<?xml version="1.0" encoding="UTF-8" standalone="no" ?>
<gpx xmlns="http://www.topografix.com/GPX/1/1" xmlns:xsi="http://www.w3.org/2001/XMLSchema-instance" xsi:schemaLocation="http://www.topografix.com/GPX/1/1 http://www.topografix.com/GPX/1/1/gpx.xsd" version="1.1" creator="VisuGPX - https://www.visugpx.com">
  <metadata>
    <name>partie espagnole</name>
    <desc><![CDATA[Le long de la Bidassoa puis la route direction Pampelune]]></desc>
  </metadata>
  <trk>
    <name><![CDATA[Navarra - Eurovelo 1 - Ederbidea]]></name>
    <extensions>
      <line xmlns="http://www.topografix.com/GPX/gpx_style/0/2">
        <color>0000FF</color>
        <width>4</width>
          <extensions>
            <sens>1</sens>
          </extensions>
      </line>
    </extensions>
    <trkseg>
      <trkpt lat="43.29733" lon="-1.73141">
        <ele>14.818</ele>
        <time>2020-05-14T12:00:19Z</time>
      </trkpt>
      <trkpt lat="43.29723" lon="-1.73135">
        <ele>14.698</ele>
        <time>2020-05-14T12:00:39Z</time>
      </trkpt>
      <trkpt lat="43.29712" lon="-1.73129">
        <ele>14.517</ele>
        <time>2020-05-14T12:00:59Z</time>
      </trkpt>
      <trkpt lat="43.29693" lon="-1.73117">
        <ele>14.408</ele>
        <time>2020-05-14T12:01:19Z</time>
      </trkpt>
      <trkpt lat="43.29676" lon="-1.73108">
        <ele>14.575</ele>
        <time>2020-05-14T12:01:39Z</time>
      </trkpt>
      <trkpt lat="43.29668" lon="-1.73103">
        <ele>14.53</ele>
        <time>2020-05-14T12:01:59Z</time>
      </trkpt>
      <trkpt lat="43.2966" lon="-1.73097">
        <ele>14.544</ele>
        <time>2020-05-14T12:02:19Z</time>
      </trkpt>
      <trkpt lat="43.29649" lon="-1.73091">
        <ele>14.682</ele>
        <time>2020-05-14T12:02:39Z</time>
      </trkpt>
      <trkpt lat="43.29641" lon="-1.73088">
        <ele>14.587</ele>
        <time>2020-05-14T12:02:59Z</time>
      </trkpt>
      <trkpt lat="43.29633" lon="-1.73084">
        <ele>14.687</ele>
        <time>2020-05-14T12:03:19Z</time>
      </trkpt>
      <trkpt lat="43.29628" lon="-1.73082">
        <ele>14.834</ele>
        <time>2020-05-14T12:03:39Z</time>
      </trkpt>
      <trkpt lat="43.29623" lon="-1.7308">
        <ele>14.836</ele>
        <time>2020-05-14T12:03:59Z</time>
      </trkpt>
      <trkpt lat="43.29618" lon="-1.73079">
        <ele>14.792</ele>
        <time>2020-05-14T12:04:19Z</time>
      </trkpt>
      <trkpt lat="43.29614" lon="-1.73078">
        <ele>15.273</ele>
        <time>2020-05-14T12:04:39Z</time>
      </trkpt>
      <trkpt lat="43.29586" lon="-1.73071">
        <ele>14.02</ele>
        <time>2020-05-14T12:04:59Z</time>
      </trkpt>
      <trkpt lat="43.29581" lon="-1.73069">
        <ele>13.908</ele>
        <time>2020-05-14T12:05:19Z</time>
      </trkpt>
      <trkpt lat="43.29578" lon="-1.73068">
        <ele>13.933</ele>
        <time>2020-05-14T12:05:39Z</time>
      </trkpt>
      <trkpt lat="43.2957" lon="-1.73062">
        <ele>14.478</ele>
        <time>2020-05-14T12:05:59Z</time>
      </trkpt>
      <trkpt lat="43.29566" lon="-1.73058">
        <ele>13.962</ele>
        <time>2020-05-14T12:06:19Z</time>
      </trkpt>
      <trkpt lat="43.29562" lon="-1.73055">
        <ele>13.98</ele>
        <time>2020-05-14T12:06:39Z</time>
      </trkpt>
      <trkpt lat="43.29559" lon="-1.73052">
        <ele>13.955</ele>
        <time>2020-05-14T12:06:59Z</time>
      </trkpt>
      <trkpt lat="43.29551" lon="-1.73044">
        <ele>14.015</ele>
        <time>2020-05-14T12:07:19Z</time>
      </trkpt>
      <trkpt lat="43.29544" lon="-1.73036">
        <ele>14.042</ele>
        <time>2020-05-14T12:07:39Z</time>
      </trkpt>
      <trkpt lat="43.29527" lon="-1.73013">
        <ele>14.144</ele>
        <time>2020-05-14T12:07:59Z</time>
      </trkpt>
      <trkpt lat="43.29516" lon="-1.72998">
        <ele>14.049</ele>
        <time>2020-05-14T12:08:19Z</time>
      </trkpt>
      <trkpt lat="43.29509" lon="-1.72989">
        <ele>13.902</ele>
        <time>2020-05-14T12:08:39Z</time>
      </trkpt>
      <trkpt lat="43.295" lon="-1.72982">
        <ele>14.222</ele>
        <time>2020-05-14T12:08:59Z</time>
      </trkpt>
      <trkpt lat="43.29495" lon="-1.72979">
        <ele>14.108</ele>
        <time>2020-05-14T12:09:19Z</time>
      </trkpt>
      <trkpt lat="43.29488" lon="-1.72975">
        <ele>14.328</ele>
        <time>2020-05-14T12:09:39Z</time>
      </trkpt>
      <trkpt lat="43.29483" lon="-1.72973">
        <ele>13.823</ele>
        <time>2020-05-14T12:09:59Z</time>
      </trkpt>
      <trkpt lat="43.29474" lon="-1.72968">
        <ele>13.817</ele>
        <time>2020-05-14T12:10:19Z</time>
      </trkpt>
      <trkpt lat="43.29469" lon="-1.72965">
        <ele>13.835</ele>
        <time>2020-05-14T12:10:39Z</time>
      </trkpt>
      <trkpt lat="43.29465" lon="-1.72962">
        <ele>13.84</ele>
        <time>2020-05-14T12:10:59Z</time>
      </trkpt>
      <trkpt lat="43.29462" lon="-1.72961">
        <ele>13.88</ele>
        <time>2020-05-14T12:11:19Z</time>
      </trkpt>
      <trkpt lat="43.29459" lon="-1.7296">
        <ele>13.787</ele>
        <time>2020-05-14T12:11:39Z</time>
      </trkpt>
      <trkpt lat="43.29451" lon="-1.72958">
        <ele>14.189</ele>
        <time>2020-05-14T12:11:59Z</time>
      </trkpt>
      <trkpt lat="43.29446" lon="-1.72957">
        <ele>14.083</ele>
        <time>2020-05-14T12:12:19Z</time>
      </trkpt>
      <trkpt lat="43.29443" lon="-1.72959">
        <ele>16.125</ele>
        <time>2020-05-14T12:12:39Z</time>
      </trkpt>
      <trkpt lat="43.2944" lon="-1.72962">
        <ele>14.517</ele>
        <time>2020-05-14T12:12:59Z</time>
      </trkpt>
      <trkpt lat="43.29437" lon="-1.72964">
        <ele>15.208</ele>
        <time>2020-05-14T12:13:19Z</time>
      </trkpt>
      <trkpt lat="43.29432" lon="-1.72965">
        <ele>14.812</ele>
        <time>2020-05-14T12:13:39Z</time>
      </trkpt>
      <trkpt lat="43.2943" lon="-1.72965">
        <ele>14.817</ele>
        <time>2020-05-14T12:13:59Z</time>
      </trkpt>
      <trkpt lat="43.29424" lon="-1.72963">
        <ele>15.151</ele>
        <time>2020-05-14T12:14:19Z</time>
      </trkpt>
      <trkpt lat="43.2942" lon="-1.72962">
        <ele>15.239</ele>
        <time>2020-05-14T12:14:39Z</time>
      </trkpt>
      <trkpt lat="43.29416" lon="-1.72962">
        <ele>15.474</ele>
        <time>2020-05-14T12:14:59Z</time>
      </trkpt>
      <trkpt lat="43.2941" lon="-1.72964">
        <ele>15.944</ele>
        <time>2020-05-14T12:15:19Z</time>
      </trkpt>
      <trkpt lat="43.29408" lon="-1.72964">
        <ele>15.961</ele>
        <time>2020-05-14T12:15:39Z</time>
      </trkpt>
      <trkpt lat="43.29405" lon="-1.72965">
        <ele>15.863</ele>
        <time>2020-05-14T12:15:59Z</time>
      </trkpt>
      <trkpt lat="43.29397" lon="-1.72968">
        <ele>12.619</ele>
        <time>2020-05-14T12:16:19Z</time>
      </trkpt>
      <trkpt lat="43.29396" lon="-1.72969">
        <ele>12.609</ele>
        <time>2020-05-14T12:16:39Z</time>
      </trkpt>
      <trkpt lat="43.29396" lon="-1.72969">
        <ele>12.619</ele>
        <time>2020-05-14T12:16:59Z</time>
      </trkpt>
      <trkpt lat="43.29395" lon="-1.72969">
        <ele>12.608</ele>
        <time>2020-05-14T12:17:19Z</time>
      </trkpt>
      <trkpt lat="43.29389" lon="-1.72971">
        <ele>15.085</ele>
        <time>2020-05-14T12:17:39Z</time>
      </trkpt>
      <trkpt lat="43.29385" lon="-1.72972">
        <ele>14.96</ele>
        <time>2020-05-14T12:17:59Z</time>
      </trkpt>
      <trkpt lat="43.29376" lon="-1.72974">
        <ele>14.854</ele>
        <time>2020-05-14T12:18:19Z</time>
      </trkpt>
      <trkpt lat="43.29374" lon="-1.72974">
        <ele>14.072</ele>
        <time>2020-05-14T12:18:39Z</time>
      </trkpt>
      <trkpt lat="43.29374" lon="-1.72974">
        <ele>14.057</ele>
        <time>2020-05-14T12:18:59Z</time>
      </trkpt>
      <trkpt lat="43.29364" lon="-1.72973">
        <ele>14.647</ele>
        <time>2020-05-14T12:19:19Z</time>
      </trkpt>
      <trkpt lat="43.29361" lon="-1.72973">
        <ele>14.534</ele>
        <time>2020-05-14T12:19:39Z</time>
      </trkpt>
      <trkpt lat="43.2936" lon="-1.72972">
        <ele>14.536</ele>
        <time>2020-05-14T12:19:59Z</time>
      </trkpt>
      <trkpt lat="43.29358" lon="-1.72973">
        <ele>14.567</ele>
        <time>2020-05-14T12:20:19Z</time>
      </trkpt>
      <trkpt lat="43.29351" lon="-1.72974">
        <ele>14.481</ele>
        <time>2020-05-14T12:20:39Z</time>
      </trkpt>
      <trkpt lat="43.29347" lon="-1.72974">
        <ele>14.419</ele>
        <time>2020-05-14T12:20:59Z</time>
      </trkpt>
      <trkpt lat="43.29343" lon="-1.72976">
        <ele>14.208</ele>
        <time>2020-05-14T12:21:19Z</time>
      </trkpt>
      <trkpt lat="43.2934" lon="-1.72977">
        <ele>14.12</ele>
        <time>2020-05-14T12:21:39Z</time>
      </trkpt>
      <trkpt lat="43.29335" lon="-1.72978">
        <ele>14.115</ele>
        <time>2020-05-14T12:21:59Z</time>
      </trkpt>
      <trkpt lat="43.29331" lon="-1.72979">
        <ele>14.239</ele>
        <time>2020-05-14T12:22:19Z</time>
      </trkpt>
      <trkpt lat="43.29317" lon="-1.72985">
        <ele>14.477</ele>
        <time>2020-05-14T12:22:39Z</time>
      </trkpt>
      <trkpt lat="43.29304" lon="-1.72992">
        <ele>18.312</ele>
        <time>2020-05-14T12:22:59Z</time>
      </trkpt>
      <trkpt lat="43.293" lon="-1.72993">
        <ele>16.672</ele>
        <time>2020-05-14T12:23:19Z</time>
      </trkpt>
      <trkpt lat="43.29296" lon="-1.72994">
        <ele>15.369</ele>
        <time>2020-05-14T12:23:39Z</time>
      </trkpt>
      <trkpt lat="43.29286" lon="-1.72995">
        <ele>15.421</ele>
        <time>2020-05-14T12:23:59Z</time>
      </trkpt>
      <trkpt lat="43.2928" lon="-1.72995">
        <ele>14.619</ele>
        <time>2020-05-14T12:24:19Z</time>
      </trkpt>
      <trkpt lat="43.29271" lon="-1.72994">
        <ele>14.809</ele>
        <time>2020-05-14T12:24:39Z</time>
      </trkpt>
      <trkpt lat="43.29262" lon="-1.72992">
        <ele>15.019</ele>
        <time>2020-05-14T12:24:59Z</time>
      </trkpt>
      <trkpt lat="43.29254" lon="-1.7299">
        <ele>14.808</ele>
        <time>2020-05-14T12:25:19Z</time>
      </trkpt>
      <trkpt lat="43.29242" lon="-1.72987">
        <ele>14.865</ele>
        <time>2020-05-14T12:25:39Z</time>
      </trkpt>
      <trkpt lat="43.29235" lon="-1.72985">
        <ele>14.93</ele>
        <time>2020-05-14T12:25:59Z</time>
      </trkpt>
      <trkpt lat="43.29231" lon="-1.72982">
        <ele>15.094</ele>
        <time>2020-05-14T12:26:19Z</time>
      </trkpt>
      <trkpt lat="43.29226" lon="-1.72979">
        <ele>14.972</ele>
        <time>2020-05-14T12:26:39Z</time>
      </trkpt>
      <trkpt lat="43.29212" lon="-1.72968">
        <ele>14.797</ele>
        <time>2020-05-14T12:26:59Z</time>
      </trkpt>
      <trkpt lat="43.29198" lon="-1.72958">
        <ele>14.767</ele>
        <time>2020-05-14T12:27:19Z</time>
      </trkpt>
      <trkpt lat="43.29193" lon="-1.72954">
        <ele>14.974</ele>
        <time>2020-05-14T12:27:39Z</time>
      </trkpt>
      <trkpt lat="43.29189" lon="-1.7295">
        <ele>15.076</ele>
        <time>2020-05-14T12:27:59Z</time>
      </trkpt>
      <trkpt lat="43.29188" lon="-1.72949">
        <ele>15.042</ele>
        <time>2020-05-14T12:28:19Z</time>
      </trkpt>
      <trkpt lat="43.29186" lon="-1.72948">
        <ele>15.022</ele>
        <time>2020-05-14T12:28:39Z</time>
      </trkpt>
      <trkpt lat="43.29184" lon="-1.72945">
        <ele>15.514</ele>
        <time>2020-05-14T12:28:59Z</time>
      </trkpt>
      <trkpt lat="43.29183" lon="-1.72944">
        <ele>14.808</ele>
        <time>2020-05-14T12:29:19Z</time>
      </trkpt>
      <trkpt lat="43.29172" lon="-1.72931">
        <ele>14.918</ele>
        <time>2020-05-14T12:29:39Z</time>
      </trkpt>
      <trkpt lat="43.2917" lon="-1.72927">
        <ele>14.933</ele>
        <time>2020-05-14T12:29:59Z</time>
      </trkpt>
      <trkpt lat="43.29166" lon="-1.72922">
        <ele>14.867</ele>
        <time>2020-05-14T12:30:19Z</time>
      </trkpt>
      <trkpt lat="43.29164" lon="-1.72919">
        <ele>14.885</ele>
        <time>2020-05-14T12:30:39Z</time>
      </trkpt>
      <trkpt lat="43.29163" lon="-1.72916">
        <ele>14.75</ele>
        <time>2020-05-14T12:30:59Z</time>
      </trkpt>
      <trkpt lat="43.29161" lon="-1.72909">
        <ele>14.51</ele>
        <time>2020-05-14T12:31:19Z</time>
      </trkpt>
      <trkpt lat="43.29159" lon="-1.72903">
        <ele>14.367</ele>
        <time>2020-05-14T12:31:39Z</time>
      </trkpt>
      <trkpt lat="43.29155" lon="-1.72886">
        <ele>14.159</ele>
        <time>2020-05-14T12:31:59Z</time>
      </trkpt>
      <trkpt lat="43.29145" lon="-1.72864">
        <ele>14.055</ele>
        <time>2020-05-14T12:32:19Z</time>
      </trkpt>
      <trkpt lat="43.29133" lon="-1.7284">
        <ele>14.307</ele>
        <time>2020-05-14T12:32:39Z</time>
      </trkpt>
      <trkpt lat="43.29121" lon="-1.72816">
        <ele>14.717</ele>
        <time>2020-05-14T12:32:59Z</time>
      </trkpt>
      <trkpt lat="43.29112" lon="-1.72795">
        <ele>14.408</ele>
        <time>2020-05-14T12:33:19Z</time>
      </trkpt>
      <trkpt lat="43.29108" lon="-1.72772">
        <ele>14.659</ele>
        <time>2020-05-14T12:33:39Z</time>
      </trkpt>
      <trkpt lat="43.29107" lon="-1.7276">
        <ele>14.584</ele>
        <time>2020-05-14T12:33:59Z</time>
      </trkpt>
      <trkpt lat="43.29106" lon="-1.72747">
        <ele>14.648</ele>
        <time>2020-05-14T12:34:19Z</time>
      </trkpt>
      <trkpt lat="43.29106" lon="-1.72705">
        <ele>14.766</ele>
        <time>2020-05-14T12:34:39Z</time>
      </trkpt>
      <trkpt lat="43.29107" lon="-1.72667">
        <ele>12.541</ele>
        <time>2020-05-14T12:34:59Z</time>
      </trkpt>
      <trkpt lat="43.29107" lon="-1.72641">
        <ele>15.211</ele>
        <time>2020-05-14T12:35:19Z</time>
      </trkpt>
      <trkpt lat="43.29107" lon="-1.72615">
        <ele>15.648</ele>
        <time>2020-05-14T12:35:39Z</time>
      </trkpt>
      <trkpt lat="43.29107" lon="-1.72561">
        <ele>15.65</ele>
        <time>2020-05-14T12:35:59Z</time>
      </trkpt>
      <trkpt lat="43.29108" lon="-1.72506">
        <ele>14.528</ele>
        <time>2020-05-14T12:36:19Z</time>
      </trkpt>
      <trkpt lat="43.29108" lon="-1.72482">
        <ele>15.289</ele>
        <time>2020-05-14T12:36:39Z</time>
      </trkpt>
      <trkpt lat="43.29107" lon="-1.72456">
        <ele>15.317</ele>
        <time>2020-05-14T12:36:59Z</time>
      </trkpt>
      <trkpt lat="43.29107" lon="-1.72455">
        <ele>15.308</ele>
        <time>2020-05-14T12:37:19Z</time>
      </trkpt>
      <trkpt lat="43.29107" lon="-1.72454">
        <ele>15.376</ele>
        <time>2020-05-14T12:37:39Z</time>
      </trkpt>
      <trkpt lat="43.29108" lon="-1.72401">
        <ele>15.521</ele>
        <time>2020-05-14T12:37:59Z</time>
      </trkpt>
      <trkpt lat="43.29108" lon="-1.7235">
        <ele>15.845</ele>
        <time>2020-05-14T12:38:19Z</time>
      </trkpt>
      <trkpt lat="43.2911" lon="-1.72226">
        <ele>16.313</ele>
        <time>2020-05-14T12:38:39Z</time>
      </trkpt>
      <trkpt lat="43.2911" lon="-1.72165">
        <ele>16.658</ele>
        <time>2020-05-14T12:38:59Z</time>
      </trkpt>
      <trkpt lat="43.2911" lon="-1.72117">
        <ele>17.268</ele>
        <time>2020-05-14T12:39:19Z</time>
      </trkpt>
      <trkpt lat="43.29113" lon="-1.72064">
        <ele>17.845</ele>
        <time>2020-05-14T12:39:39Z</time>
      </trkpt>
      <trkpt lat="43.29113" lon="-1.72042">
        <ele>18.137</ele>
        <time>2020-05-14T12:39:59Z</time>
      </trkpt>
      <trkpt lat="43.29114" lon="-1.71987">
        <ele>18.574</ele>
        <time>2020-05-14T12:40:19Z</time>
      </trkpt>
      <trkpt lat="43.29112" lon="-1.71946">
        <ele>19.256</ele>
        <time>2020-05-14T12:40:39Z</time>
      </trkpt>
      <trkpt lat="43.29109" lon="-1.71923">
        <ele>19.421</ele>
        <time>2020-05-14T12:40:59Z</time>
      </trkpt>
      <trkpt lat="43.29109" lon="-1.71915">
        <ele>19.508</ele>
        <time>2020-05-14T12:41:19Z</time>
      </trkpt>
      <trkpt lat="43.29107" lon="-1.71893">
        <ele>41.771</ele>
        <time>2020-05-14T12:41:39Z</time>
      </trkpt>
      <trkpt lat="43.29105" lon="-1.71874">
        <ele>39.436</ele>
        <time>2020-05-14T12:41:59Z</time>
      </trkpt>
      <trkpt lat="43.29103" lon="-1.71833">
        <ele>19.25</ele>
        <time>2020-05-14T12:42:19Z</time>
      </trkpt>
      <trkpt lat="43.29098" lon="-1.71809">
        <ele>27.018</ele>
        <time>2020-05-14T12:42:39Z</time>
      </trkpt>
      <trkpt lat="43.29095" lon="-1.71795">
        <ele>23.983</ele>
        <time>2020-05-14T12:42:59Z</time>
      </trkpt>
      <trkpt lat="43.29092" lon="-1.71774">
        <ele>12.363</ele>
        <time>2020-05-14T12:43:19Z</time>
      </trkpt>
      <trkpt lat="43.2909" lon="-1.71763">
        <ele>21.18</ele>
        <time>2020-05-14T12:43:39Z</time>
      </trkpt>
      <trkpt lat="43.29087" lon="-1.71747">
        <ele>21.212</ele>
        <time>2020-05-14T12:43:59Z</time>
      </trkpt>
      <trkpt lat="43.29083" lon="-1.71731">
        <ele>20.816</ele>
        <time>2020-05-14T12:44:19Z</time>
      </trkpt>
      <trkpt lat="43.29081" lon="-1.71719">
        <ele>21.576</ele>
        <time>2020-05-14T12:44:39Z</time>
      </trkpt>
      <trkpt lat="43.29077" lon="-1.71692">
        <ele>22.213</ele>
        <time>2020-05-14T12:44:59Z</time>
      </trkpt>
      <trkpt lat="43.29074" lon="-1.71673">
        <ele>21.608</ele>
        <time>2020-05-14T12:45:19Z</time>
      </trkpt>
      <trkpt lat="43.29074" lon="-1.71673">
        <ele>21.625</ele>
        <time>2020-05-14T12:45:39Z</time>
      </trkpt>
      <trkpt lat="43.29072" lon="-1.71658">
        <ele>22.25</ele>
        <time>2020-05-14T12:45:59Z</time>
      </trkpt>
      <trkpt lat="43.29068" lon="-1.71634">
        <ele>22.524</ele>
        <time>2020-05-14T12:46:19Z</time>
      </trkpt>
      <trkpt lat="43.29054" lon="-1.71546">
        <ele>23.932</ele>
        <time>2020-05-14T12:46:39Z</time>
      </trkpt>
      <trkpt lat="43.29048" lon="-1.7151">
        <ele>23.997</ele>
        <time>2020-05-14T12:46:59Z</time>
      </trkpt>
      <trkpt lat="43.2904" lon="-1.71466">
        <ele>24.557</ele>
        <time>2020-05-14T12:47:19Z</time>
      </trkpt>
      <trkpt lat="43.29031" lon="-1.71412">
        <ele>25.324</ele>
        <time>2020-05-14T12:47:39Z</time>
      </trkpt>
      <trkpt lat="43.29026" lon="-1.71376">
        <ele>25.986</ele>
        <time>2020-05-14T12:47:59Z</time>
      </trkpt>
      <trkpt lat="43.29024" lon="-1.71365">
        <ele>25.422</ele>
        <time>2020-05-14T12:48:19Z</time>
      </trkpt>
      <trkpt lat="43.29014" lon="-1.71336">
        <ele>52.362</ele>
        <time>2020-05-14T12:48:39Z</time>
      </trkpt>
      <trkpt lat="43.29006" lon="-1.71317">
        <ele>56.608</ele>
        <time>2020-05-14T12:48:59Z</time>
      </trkpt>
      <trkpt lat="43.28989" lon="-1.71296">
        <ele>54.908</ele>
        <time>2020-05-14T12:49:19Z</time>
      </trkpt>
      <trkpt lat="43.28963" lon="-1.71278">
        <ele>58.596</ele>
        <time>2020-05-14T12:49:39Z</time>
      </trkpt>
      <trkpt lat="43.28943" lon="-1.71269">
        <ele>63.441</ele>
        <time>2020-05-14T12:49:59Z</time>
      </trkpt>
      <trkpt lat="43.28915" lon="-1.7126">
        <ele>56.365</ele>
        <time>2020-05-14T12:50:19Z</time>
      </trkpt>
      <trkpt lat="43.28891" lon="-1.71251">
        <ele>44.733</ele>
        <time>2020-05-14T12:50:39Z</time>
      </trkpt>
      <trkpt lat="43.28875" lon="-1.71248">
        <ele>33.298</ele>
        <time>2020-05-14T12:50:59Z</time>
      </trkpt>
      <trkpt lat="43.28875" lon="-1.71248">
        <ele>33.248</ele>
        <time>2020-05-14T12:51:19Z</time>
      </trkpt>
      <trkpt lat="43.2887" lon="-1.7125">
        <ele>31.295</ele>
        <time>2020-05-14T12:51:39Z</time>
      </trkpt>
      <trkpt lat="43.28867" lon="-1.71252">
        <ele>28.147</ele>
        <time>2020-05-14T12:51:59Z</time>
      </trkpt>
      <trkpt lat="43.28864" lon="-1.71254">
        <ele>28.282</ele>
        <time>2020-05-14T12:52:19Z</time>
      </trkpt>
      <trkpt lat="43.28858" lon="-1.71256">
        <ele>28.243</ele>
        <time>2020-05-14T12:52:39Z</time>
      </trkpt>
      <trkpt lat="43.28854" lon="-1.71258">
        <ele>30.517</ele>
        <time>2020-05-14T12:52:59Z</time>
      </trkpt>
      <trkpt lat="43.28848" lon="-1.7126">
        <ele>29.108</ele>
        <time>2020-05-14T12:53:19Z</time>
      </trkpt>
      <trkpt lat="43.28843" lon="-1.71262">
        <ele>28.922</ele>
        <time>2020-05-14T12:53:39Z</time>
      </trkpt>
      <trkpt lat="43.28841" lon="-1.71263">
        <ele>30.297</ele>
        <time>2020-05-14T12:53:59Z</time>
      </trkpt>
      <trkpt lat="43.28839" lon="-1.71264">
        <ele>30.261</ele>
        <time>2020-05-14T12:54:19Z</time>
      </trkpt>
      <trkpt lat="43.28836" lon="-1.71265">
        <ele>30.139</ele>
        <time>2020-05-14T12:54:39Z</time>
      </trkpt>
      <trkpt lat="43.28829" lon="-1.71268">
        <ele>29.184</ele>
        <time>2020-05-14T12:54:59Z</time>
      </trkpt>
      <trkpt lat="43.2882" lon="-1.71273">
        <ele>29.334</ele>
        <time>2020-05-14T12:55:19Z</time>
      </trkpt>
      <trkpt lat="43.28805" lon="-1.71279">
        <ele>29.191</ele>
        <time>2020-05-14T12:55:39Z</time>
      </trkpt>
      <trkpt lat="43.2879" lon="-1.71285">
        <ele>30.353</ele>
        <time>2020-05-14T12:55:59Z</time>
      </trkpt>
      <trkpt lat="43.28774" lon="-1.71291">
        <ele>30.075</ele>
        <time>2020-05-14T12:56:19Z</time>
      </trkpt>
      <trkpt lat="43.28758" lon="-1.71298">
        <ele>29.828</ele>
        <time>2020-05-14T12:56:39Z</time>
      </trkpt>
      <trkpt lat="43.28732" lon="-1.71304">
        <ele>30.22</ele>
        <time>2020-05-14T12:56:59Z</time>
      </trkpt>
      <trkpt lat="43.28719" lon="-1.71304">
        <ele>30.308</ele>
        <time>2020-05-14T12:57:19Z</time>
      </trkpt>
      <trkpt lat="43.28706" lon="-1.71304">
        <ele>30.551</ele>
        <time>2020-05-14T12:57:39Z</time>
      </trkpt>
      <trkpt lat="43.28688" lon="-1.71302">
        <ele>30.746</ele>
        <time>2020-05-14T12:57:59Z</time>
      </trkpt>
      <trkpt lat="43.2867" lon="-1.71299">
        <ele>31.27</ele>
        <time>2020-05-14T12:58:19Z</time>
      </trkpt>
      <trkpt lat="43.28634" lon="-1.71293">
        <ele>31.688</ele>
        <time>2020-05-14T12:58:39Z</time>
      </trkpt>
      <trkpt lat="43.28616" lon="-1.7129">
        <ele>31.123</ele>
        <time>2020-05-14T12:58:59Z</time>
      </trkpt>
      <trkpt lat="43.28599" lon="-1.71287">
        <ele>36.553</ele>
        <time>2020-05-14T12:59:19Z</time>
      </trkpt>
      <trkpt lat="43.28568" lon="-1.71284">
        <ele>30.87</ele>
        <time>2020-05-14T12:59:39Z</time>
      </trkpt>
      <trkpt lat="43.28545" lon="-1.71285">
        <ele>31.022</ele>
        <time>2020-05-14T12:59:59Z</time>
      </trkpt>
      <trkpt lat="43.28531" lon="-1.71289">
        <ele>33.574</ele>
        <time>2020-05-14T13:00:19Z</time>
      </trkpt>
      <trkpt lat="43.28518" lon="-1.71293">
        <ele>31.456</ele>
        <time>2020-05-14T13:00:39Z</time>
      </trkpt>
      <trkpt lat="43.285" lon="-1.71301">
        <ele>30.921</ele>
        <time>2020-05-14T13:00:59Z</time>
      </trkpt>
      <trkpt lat="43.28482" lon="-1.71309">
        <ele>30.808</ele>
        <time>2020-05-14T13:01:19Z</time>
      </trkpt>
      <trkpt lat="43.28465" lon="-1.71317">
        <ele>31.071</ele>
        <time>2020-05-14T13:01:39Z</time>
      </trkpt>
      <trkpt lat="43.28448" lon="-1.71326">
        <ele>30.866</ele>
        <time>2020-05-14T13:01:59Z</time>
      </trkpt>
      <trkpt lat="43.28439" lon="-1.7133">
        <ele>31.02</ele>
        <time>2020-05-14T13:02:19Z</time>
      </trkpt>
      <trkpt lat="43.28431" lon="-1.71335">
        <ele>31.038</ele>
        <time>2020-05-14T13:02:39Z</time>
      </trkpt>
      <trkpt lat="43.2843" lon="-1.71336">
        <ele>31.073</ele>
        <time>2020-05-14T13:02:59Z</time>
      </trkpt>
      <trkpt lat="43.28404" lon="-1.71349">
        <ele>31.243</ele>
        <time>2020-05-14T13:03:19Z</time>
      </trkpt>
      <trkpt lat="43.28403" lon="-1.7135">
        <ele>31.27</ele>
        <time>2020-05-14T13:03:39Z</time>
      </trkpt>
      <trkpt lat="43.28393" lon="-1.71355">
        <ele>30.862</ele>
        <time>2020-05-14T13:03:59Z</time>
      </trkpt>
      <trkpt lat="43.28383" lon="-1.7136">
        <ele>30.874</ele>
        <time>2020-05-14T13:04:19Z</time>
      </trkpt>
      <trkpt lat="43.28347" lon="-1.71378">
        <ele>30.856</ele>
        <time>2020-05-14T13:04:39Z</time>
      </trkpt>
      <trkpt lat="43.28329" lon="-1.71387">
        <ele>30.821</ele>
        <time>2020-05-14T13:04:59Z</time>
      </trkpt>
      <trkpt lat="43.28311" lon="-1.71397">
        <ele>30.808</ele>
        <time>2020-05-14T13:05:19Z</time>
      </trkpt>
      <trkpt lat="43.28296" lon="-1.71404">
        <ele>30.521</ele>
        <time>2020-05-14T13:05:39Z</time>
      </trkpt>
      <trkpt lat="43.28281" lon="-1.71411">
        <ele>30.716</ele>
        <time>2020-05-14T13:05:59Z</time>
      </trkpt>
      <trkpt lat="43.28266" lon="-1.71414">
        <ele>30.72</ele>
        <time>2020-05-14T13:06:19Z</time>
      </trkpt>
      <trkpt lat="43.28252" lon="-1.71417">
        <ele>30.638</ele>
        <time>2020-05-14T13:06:39Z</time>
      </trkpt>
      <trkpt lat="43.28235" lon="-1.71418">
        <ele>32.513</ele>
        <time>2020-05-14T13:06:59Z</time>
      </trkpt>
      <trkpt lat="43.28217" lon="-1.71419">
        <ele>32.793</ele>
        <time>2020-05-14T13:07:19Z</time>
      </trkpt>
      <trkpt lat="43.28198" lon="-1.7142">
        <ele>32.94</ele>
        <time>2020-05-14T13:07:39Z</time>
      </trkpt>
      <trkpt lat="43.28179" lon="-1.71421">
        <ele>31.922</ele>
        <time>2020-05-14T13:07:59Z</time>
      </trkpt>
      <trkpt lat="43.28161" lon="-1.71423">
        <ele>30.985</ele>
        <time>2020-05-14T13:08:19Z</time>
      </trkpt>
      <trkpt lat="43.28138" lon="-1.71426">
        <ele>32.889</ele>
        <time>2020-05-14T13:08:39Z</time>
      </trkpt>
      <trkpt lat="43.28106" lon="-1.7143">
        <ele>31.117</ele>
        <time>2020-05-14T13:08:59Z</time>
      </trkpt>
      <trkpt lat="43.28084" lon="-1.71428">
        <ele>30.808</ele>
        <time>2020-05-14T13:09:19Z</time>
      </trkpt>
      <trkpt lat="43.2807" lon="-1.71427">
        <ele>30.792</ele>
        <time>2020-05-14T13:09:39Z</time>
      </trkpt>
      <trkpt lat="43.28055" lon="-1.71426">
        <ele>30.987</ele>
        <time>2020-05-14T13:09:59Z</time>
      </trkpt>
      <trkpt lat="43.28039" lon="-1.71426">
        <ele>31.391</ele>
        <time>2020-05-14T13:10:19Z</time>
      </trkpt>
      <trkpt lat="43.28015" lon="-1.7142">
        <ele>30.799</ele>
        <time>2020-05-14T13:10:39Z</time>
      </trkpt>
      <trkpt lat="43.28001" lon="-1.71417">
        <ele>30.934</ele>
        <time>2020-05-14T13:10:59Z</time>
      </trkpt>
      <trkpt lat="43.27982" lon="-1.71412">
        <ele>30.914</ele>
        <time>2020-05-14T13:11:19Z</time>
      </trkpt>
      <trkpt lat="43.27982" lon="-1.71411">
        <ele>30.951</ele>
        <time>2020-05-14T13:11:39Z</time>
      </trkpt>
      <trkpt lat="43.27977" lon="-1.7141">
        <ele>30.823</ele>
        <time>2020-05-14T13:11:59Z</time>
      </trkpt>
      <trkpt lat="43.27958" lon="-1.71405">
        <ele>31.558</ele>
        <time>2020-05-14T13:12:19Z</time>
      </trkpt>
      <trkpt lat="43.27938" lon="-1.714">
        <ele>31.552</ele>
        <time>2020-05-14T13:12:39Z</time>
      </trkpt>
      <trkpt lat="43.27899" lon="-1.71388">
        <ele>31.217</ele>
        <time>2020-05-14T13:12:59Z</time>
      </trkpt>
      <trkpt lat="43.27861" lon="-1.71377">
        <ele>33.408</ele>
        <time>2020-05-14T13:13:19Z</time>
      </trkpt>
      <trkpt lat="43.27822" lon="-1.71365">
        <ele>32.739</ele>
        <time>2020-05-14T13:13:39Z</time>
      </trkpt>
      <trkpt lat="43.27782" lon="-1.71356">
        <ele>32.124</ele>
        <time>2020-05-14T13:13:59Z</time>
      </trkpt>
      <trkpt lat="43.27751" lon="-1.71348">
        <ele>32.018</ele>
        <time>2020-05-14T13:14:19Z</time>
      </trkpt>
      <trkpt lat="43.27727" lon="-1.71342">
        <ele>32.156</ele>
        <time>2020-05-14T13:14:39Z</time>
      </trkpt>
      <trkpt lat="43.27707" lon="-1.71336">
        <ele>33.121</ele>
        <time>2020-05-14T13:14:59Z</time>
      </trkpt>
      <trkpt lat="43.27678" lon="-1.71328">
        <ele>32.411</ele>
        <time>2020-05-14T13:15:19Z</time>
      </trkpt>
      <trkpt lat="43.27654" lon="-1.71321">
        <ele>32.678</ele>
        <time>2020-05-14T13:15:39Z</time>
      </trkpt>
      <trkpt lat="43.2764" lon="-1.71318">
        <ele>32.64</ele>
        <time>2020-05-14T13:15:59Z</time>
      </trkpt>
      <trkpt lat="43.27599" lon="-1.71305">
        <ele>33.179</ele>
        <time>2020-05-14T13:16:19Z</time>
      </trkpt>
      <trkpt lat="43.27599" lon="-1.71305">
        <ele>33.105</ele>
        <time>2020-05-14T13:16:39Z</time>
      </trkpt>
      <trkpt lat="43.27582" lon="-1.71299">
        <ele>33.425</ele>
        <time>2020-05-14T13:16:59Z</time>
      </trkpt>
      <trkpt lat="43.27565" lon="-1.71292">
        <ele>33.608</ele>
        <time>2020-05-14T13:17:19Z</time>
      </trkpt>
      <trkpt lat="43.27557" lon="-1.71287">
        <ele>33.731</ele>
        <time>2020-05-14T13:17:39Z</time>
      </trkpt>
      <trkpt lat="43.27548" lon="-1.71281">
        <ele>33.566</ele>
        <time>2020-05-14T13:17:59Z</time>
      </trkpt>
      <trkpt lat="43.27532" lon="-1.71265">
        <ele>33.54</ele>
        <time>2020-05-14T13:18:19Z</time>
      </trkpt>
      <trkpt lat="43.27529" lon="-1.71261">
        <ele>33.568</ele>
        <time>2020-05-14T13:18:39Z</time>
      </trkpt>
      <trkpt lat="43.27525" lon="-1.71255">
        <ele>33.573</ele>
        <time>2020-05-14T13:18:59Z</time>
      </trkpt>
      <trkpt lat="43.27522" lon="-1.71252">
        <ele>33.143</ele>
        <time>2020-05-14T13:19:19Z</time>
      </trkpt>
      <trkpt lat="43.2752" lon="-1.71249">
        <ele>33.14</ele>
        <time>2020-05-14T13:19:39Z</time>
      </trkpt>
      <trkpt lat="43.27519" lon="-1.71248">
        <ele>32.852</ele>
        <time>2020-05-14T13:19:59Z</time>
      </trkpt>
      <trkpt lat="43.27517" lon="-1.71245">
        <ele>33.468</ele>
        <time>2020-05-14T13:20:19Z</time>
      </trkpt>
      <trkpt lat="43.27515" lon="-1.71242">
        <ele>33.442</ele>
        <time>2020-05-14T13:20:39Z</time>
      </trkpt>
      <trkpt lat="43.27514" lon="-1.7124">
        <ele>33.326</ele>
        <time>2020-05-14T13:20:59Z</time>
      </trkpt>
      <trkpt lat="43.27504" lon="-1.71224">
        <ele>33.308</ele>
        <time>2020-05-14T13:21:19Z</time>
      </trkpt>
      <trkpt lat="43.27501" lon="-1.71217">
        <ele>33.75</ele>
        <time>2020-05-14T13:21:39Z</time>
      </trkpt>
      <trkpt lat="43.27497" lon="-1.71207">
        <ele>33.625</ele>
        <time>2020-05-14T13:21:59Z</time>
      </trkpt>
      <trkpt lat="43.27496" lon="-1.71206">
        <ele>33.849</ele>
        <time>2020-05-14T13:22:19Z</time>
      </trkpt>
      <trkpt lat="43.27493" lon="-1.71196">
        <ele>33.857</ele>
        <time>2020-05-14T13:22:39Z</time>
      </trkpt>
      <trkpt lat="43.27486" lon="-1.71165">
        <ele>34.532</ele>
        <time>2020-05-14T13:22:59Z</time>
      </trkpt>
      <trkpt lat="43.27484" lon="-1.71155">
        <ele>33.982</ele>
        <time>2020-05-14T13:23:19Z</time>
      </trkpt>
      <trkpt lat="43.2748" lon="-1.71136">
        <ele>33.679</ele>
        <time>2020-05-14T13:23:39Z</time>
      </trkpt>
      <trkpt lat="43.27479" lon="-1.71131">
        <ele>33.641</ele>
        <time>2020-05-14T13:23:59Z</time>
      </trkpt>
      <trkpt lat="43.27477" lon="-1.71126">
        <ele>33.864</ele>
        <time>2020-05-14T13:24:19Z</time>
      </trkpt>
      <trkpt lat="43.27474" lon="-1.71121">
        <ele>33.706</ele>
        <time>2020-05-14T13:24:39Z</time>
      </trkpt>
      <trkpt lat="43.27467" lon="-1.71109">
        <ele>33.816</ele>
        <time>2020-05-14T13:24:59Z</time>
      </trkpt>
      <trkpt lat="43.2746" lon="-1.71097">
        <ele>33.608</ele>
        <time>2020-05-14T13:25:19Z</time>
      </trkpt>
      <trkpt lat="43.27457" lon="-1.71087">
        <ele>33.67</ele>
        <time>2020-05-14T13:25:39Z</time>
      </trkpt>
      <trkpt lat="43.27452" lon="-1.7107">
        <ele>33.685</ele>
        <time>2020-05-14T13:25:59Z</time>
      </trkpt>
      <trkpt lat="43.27445" lon="-1.7104">
        <ele>33.749</ele>
        <time>2020-05-14T13:26:19Z</time>
      </trkpt>
      <trkpt lat="43.27432" lon="-1.70993">
        <ele>33.997</ele>
        <time>2020-05-14T13:26:39Z</time>
      </trkpt>
      <trkpt lat="43.27424" lon="-1.70959">
        <ele>33.962</ele>
        <time>2020-05-14T13:26:59Z</time>
      </trkpt>
      <trkpt lat="43.27417" lon="-1.70927">
        <ele>32.982</ele>
        <time>2020-05-14T13:27:19Z</time>
      </trkpt>
      <trkpt lat="43.27415" lon="-1.70915">
        <ele>33.619</ele>
        <time>2020-05-14T13:27:39Z</time>
      </trkpt>
      <trkpt lat="43.27413" lon="-1.70901">
        <ele>33.771</ele>
        <time>2020-05-14T13:27:59Z</time>
      </trkpt>
      <trkpt lat="43.27413" lon="-1.70892">
        <ele>33.751</ele>
        <time>2020-05-14T13:28:19Z</time>
      </trkpt>
      <trkpt lat="43.27413" lon="-1.70769">
        <ele>41.201</ele>
        <time>2020-05-14T13:28:39Z</time>
      </trkpt>
      <trkpt lat="43.27413" lon="-1.70759">
        <ele>42.011</ele>
        <time>2020-05-14T13:28:59Z</time>
      </trkpt>
      <trkpt lat="43.27413" lon="-1.70751">
        <ele>41.608</ele>
        <time>2020-05-14T13:29:19Z</time>
      </trkpt>
      <trkpt lat="43.27413" lon="-1.70741">
        <ele>42.169</ele>
        <time>2020-05-14T13:29:39Z</time>
      </trkpt>
      <trkpt lat="43.27415" lon="-1.7073">
        <ele>38.364</ele>
        <time>2020-05-14T13:29:59Z</time>
      </trkpt>
      <trkpt lat="43.27417" lon="-1.70723">
        <ele>38.788</ele>
        <time>2020-05-14T13:30:19Z</time>
      </trkpt>
      <trkpt lat="43.27422" lon="-1.70707">
        <ele>38.796</ele>
        <time>2020-05-14T13:30:39Z</time>
      </trkpt>
      <trkpt lat="43.27427" lon="-1.70693">
        <ele>36.511</ele>
        <time>2020-05-14T13:30:59Z</time>
      </trkpt>
      <trkpt lat="43.27429" lon="-1.70686">
        <ele>34.211</ele>
        <time>2020-05-14T13:31:19Z</time>
      </trkpt>
      <trkpt lat="43.27429" lon="-1.70681">
        <ele>33.948</ele>
        <time>2020-05-14T13:31:39Z</time>
      </trkpt>
      <trkpt lat="43.2743" lon="-1.70674">
        <ele>34.27</ele>
        <time>2020-05-14T13:31:59Z</time>
      </trkpt>
      <trkpt lat="43.2743" lon="-1.70652">
        <ele>34.514</ele>
        <time>2020-05-14T13:32:19Z</time>
      </trkpt>
      <trkpt lat="43.2743" lon="-1.70652">
        <ele>34.254</ele>
        <time>2020-05-14T13:32:39Z</time>
      </trkpt>
      <trkpt lat="43.2743" lon="-1.70635">
        <ele>34.309</ele>
        <time>2020-05-14T13:32:59Z</time>
      </trkpt>
      <trkpt lat="43.27429" lon="-1.70624">
        <ele>35.608</ele>
        <time>2020-05-14T13:33:19Z</time>
      </trkpt>
      <trkpt lat="43.27426" lon="-1.70602">
        <ele>38.045</ele>
        <time>2020-05-14T13:33:39Z</time>
      </trkpt>
      <trkpt lat="43.27425" lon="-1.70592">
        <ele>37.44</ele>
        <time>2020-05-14T13:33:59Z</time>
      </trkpt>
      <trkpt lat="43.27426" lon="-1.70585">
        <ele>37.644</ele>
        <time>2020-05-14T13:34:19Z</time>
      </trkpt>
      <trkpt lat="43.27427" lon="-1.70578">
        <ele>35.342</ele>
        <time>2020-05-14T13:34:39Z</time>
      </trkpt>
      <trkpt lat="43.27429" lon="-1.7057">
        <ele>36.367</ele>
        <time>2020-05-14T13:34:59Z</time>
      </trkpt>
      <trkpt lat="43.27445" lon="-1.7052">
        <ele>33.427</ele>
        <time>2020-05-14T13:35:19Z</time>
      </trkpt>
      <trkpt lat="43.27448" lon="-1.70507">
        <ele>32.774</ele>
        <time>2020-05-14T13:35:39Z</time>
      </trkpt>
      <trkpt lat="43.2745" lon="-1.70498">
        <ele>33.026</ele>
        <time>2020-05-14T13:35:59Z</time>
      </trkpt>
      <trkpt lat="43.27451" lon="-1.70487">
        <ele>33.373</ele>
        <time>2020-05-14T13:36:19Z</time>
      </trkpt>
      <trkpt lat="43.27452" lon="-1.70473">
        <ele>32.985</ele>
        <time>2020-05-14T13:36:39Z</time>
      </trkpt>
      <trkpt lat="43.27454" lon="-1.70458">
        <ele>33.313</ele>
        <time>2020-05-14T13:36:59Z</time>
      </trkpt>
      <trkpt lat="43.27456" lon="-1.70429">
        <ele>33.108</ele>
        <time>2020-05-14T13:37:19Z</time>
      </trkpt>
      <trkpt lat="43.27459" lon="-1.70404">
        <ele>33.711</ele>
        <time>2020-05-14T13:37:39Z</time>
      </trkpt>
      <trkpt lat="43.2746" lon="-1.70394">
        <ele>33.376</ele>
        <time>2020-05-14T13:37:59Z</time>
      </trkpt>
      <trkpt lat="43.27464" lon="-1.70358">
        <ele>31.64</ele>
        <time>2020-05-14T13:38:19Z</time>
      </trkpt>
      <trkpt lat="43.27468" lon="-1.70327">
        <ele>33.498</ele>
        <time>2020-05-14T13:38:39Z</time>
      </trkpt>
      <trkpt lat="43.2747" lon="-1.70308">
        <ele>33.433</ele>
        <time>2020-05-14T13:38:59Z</time>
      </trkpt>
      <trkpt lat="43.27476" lon="-1.70246">
        <ele>33.673</ele>
        <time>2020-05-14T13:39:19Z</time>
      </trkpt>
      <trkpt lat="43.27477" lon="-1.70235">
        <ele>33.55</ele>
        <time>2020-05-14T13:39:39Z</time>
      </trkpt>
      <trkpt lat="43.27477" lon="-1.7022">
        <ele>36.432</ele>
        <time>2020-05-14T13:39:59Z</time>
      </trkpt>
      <trkpt lat="43.27479" lon="-1.70179">
        <ele>43.044</ele>
        <time>2020-05-14T13:40:19Z</time>
      </trkpt>
      <trkpt lat="43.27483" lon="-1.7014">
        <ele>36.305</ele>
        <time>2020-05-14T13:40:39Z</time>
      </trkpt>
      <trkpt lat="43.27485" lon="-1.70109">
        <ele>38.015</ele>
        <time>2020-05-14T13:40:59Z</time>
      </trkpt>
      <trkpt lat="43.27486" lon="-1.70091">
        <ele>45.008</ele>
        <time>2020-05-14T13:41:19Z</time>
      </trkpt>
      <trkpt lat="43.27488" lon="-1.70065">
        <ele>37.178</ele>
        <time>2020-05-14T13:41:39Z</time>
      </trkpt>
      <trkpt lat="43.27489" lon="-1.70052">
        <ele>40.923</ele>
        <time>2020-05-14T13:41:59Z</time>
      </trkpt>
      <trkpt lat="43.2749" lon="-1.70035">
        <ele>41.857</ele>
        <time>2020-05-14T13:42:19Z</time>
      </trkpt>
      <trkpt lat="43.2749" lon="-1.7002">
        <ele>44.965</ele>
        <time>2020-05-14T13:42:39Z</time>
      </trkpt>
      <trkpt lat="43.27492" lon="-1.70008">
        <ele>37.16</ele>
        <time>2020-05-14T13:42:59Z</time>
      </trkpt>
      <trkpt lat="43.27493" lon="-1.69999">
        <ele>41.66</ele>
        <time>2020-05-14T13:43:19Z</time>
      </trkpt>
      <trkpt lat="43.27495" lon="-1.69992">
        <ele>39.557</ele>
        <time>2020-05-14T13:43:39Z</time>
      </trkpt>
      <trkpt lat="43.27496" lon="-1.69979">
        <ele>37.379</ele>
        <time>2020-05-14T13:43:59Z</time>
      </trkpt>
      <trkpt lat="43.27496" lon="-1.69957">
        <ele>36.371</ele>
        <time>2020-05-14T13:44:19Z</time>
      </trkpt>
      <trkpt lat="43.27496" lon="-1.69926">
        <ele>32.741</ele>
        <time>2020-05-14T13:44:39Z</time>
      </trkpt>
      <trkpt lat="43.27495" lon="-1.69912">
        <ele>36.515</ele>
        <time>2020-05-14T13:44:59Z</time>
      </trkpt>
      <trkpt lat="43.27496" lon="-1.69866">
        <ele>33.208</ele>
        <time>2020-05-14T13:45:19Z</time>
      </trkpt>
      <trkpt lat="43.27496" lon="-1.69855">
        <ele>33.411</ele>
        <time>2020-05-14T13:45:39Z</time>
      </trkpt>
      <trkpt lat="43.27497" lon="-1.69827">
        <ele>33.336</ele>
        <time>2020-05-14T13:45:59Z</time>
      </trkpt>
      <trkpt lat="43.275" lon="-1.69813">
        <ele>33.43</ele>
        <time>2020-05-14T13:46:19Z</time>
      </trkpt>
      <trkpt lat="43.27504" lon="-1.69796">
        <ele>33.578</ele>
        <time>2020-05-14T13:46:39Z</time>
      </trkpt>
      <trkpt lat="43.27508" lon="-1.69782">
        <ele>33.333</ele>
        <time>2020-05-14T13:46:59Z</time>
      </trkpt>
      <trkpt lat="43.27515" lon="-1.69758">
        <ele>33.733</ele>
        <time>2020-05-14T13:47:19Z</time>
      </trkpt>
      <trkpt lat="43.27527" lon="-1.69719">
        <ele>34.49</ele>
        <time>2020-05-14T13:47:39Z</time>
      </trkpt>
      <trkpt lat="43.27538" lon="-1.69687">
        <ele>34.262</ele>
        <time>2020-05-14T13:47:59Z</time>
      </trkpt>
      <trkpt lat="43.2755" lon="-1.69642">
        <ele>31.546</ele>
        <time>2020-05-14T13:48:19Z</time>
      </trkpt>
      <trkpt lat="43.27555" lon="-1.69628">
        <ele>30.888</ele>
        <time>2020-05-14T13:48:39Z</time>
      </trkpt>
      <trkpt lat="43.27559" lon="-1.69619">
        <ele>30.416</ele>
        <time>2020-05-14T13:48:59Z</time>
      </trkpt>
      <trkpt lat="43.27564" lon="-1.69611">
        <ele>33.308</ele>
        <time>2020-05-14T13:49:19Z</time>
      </trkpt>
      <trkpt lat="43.27567" lon="-1.69607">
        <ele>36.668</ele>
        <time>2020-05-14T13:49:39Z</time>
      </trkpt>
      <trkpt lat="43.2757" lon="-1.69603">
        <ele>36.673</ele>
        <time>2020-05-14T13:49:59Z</time>
      </trkpt>
      <trkpt lat="43.27573" lon="-1.69599">
        <ele>33.997</ele>
        <time>2020-05-14T13:50:19Z</time>
      </trkpt>
      <trkpt lat="43.27575" lon="-1.69595">
        <ele>33.935</ele>
        <time>2020-05-14T13:50:39Z</time>
      </trkpt>
      <trkpt lat="43.27588" lon="-1.69581">
        <ele>31.12</ele>
        <time>2020-05-14T13:50:59Z</time>
      </trkpt>
      <trkpt lat="43.27599" lon="-1.69566">
        <ele>32.53</ele>
        <time>2020-05-14T13:51:19Z</time>
      </trkpt>
      <trkpt lat="43.27612" lon="-1.69549">
        <ele>34.097</ele>
        <time>2020-05-14T13:51:39Z</time>
      </trkpt>
      <trkpt lat="43.27624" lon="-1.69536">
        <ele>35.749</ele>
        <time>2020-05-14T13:51:59Z</time>
      </trkpt>
      <trkpt lat="43.27633" lon="-1.69528">
        <ele>35.796</ele>
        <time>2020-05-14T13:52:19Z</time>
      </trkpt>
      <trkpt lat="43.2766" lon="-1.69507">
        <ele>36.031</ele>
        <time>2020-05-14T13:52:39Z</time>
      </trkpt>
      <trkpt lat="43.27701" lon="-1.69471">
        <ele>36.324</ele>
        <time>2020-05-14T13:52:59Z</time>
      </trkpt>
      <trkpt lat="43.27714" lon="-1.6946">
        <ele>36.708</ele>
        <time>2020-05-14T13:53:19Z</time>
      </trkpt>
      <trkpt lat="43.27744" lon="-1.69436">
        <ele>36.783</ele>
        <time>2020-05-14T13:53:39Z</time>
      </trkpt>
      <trkpt lat="43.27772" lon="-1.69416">
        <ele>36.898</ele>
        <time>2020-05-14T13:53:59Z</time>
      </trkpt>
      <trkpt lat="43.27803" lon="-1.6939">
        <ele>37.222</ele>
        <time>2020-05-14T13:54:19Z</time>
      </trkpt>
      <trkpt lat="43.27821" lon="-1.69368">
        <ele>37.84</ele>
        <time>2020-05-14T13:54:39Z</time>
      </trkpt>
      <trkpt lat="43.27823" lon="-1.69363">
        <ele>37.825</ele>
        <time>2020-05-14T13:54:59Z</time>
      </trkpt>
      <trkpt lat="43.27824" lon="-1.69363">
        <ele>37.815</ele>
        <time>2020-05-14T13:55:19Z</time>
      </trkpt>
      <trkpt lat="43.27824" lon="-1.69361">
        <ele>37.962</ele>
        <time>2020-05-14T13:55:39Z</time>
      </trkpt>
      <trkpt lat="43.27825" lon="-1.69359">
        <ele>37.994</ele>
        <time>2020-05-14T13:55:59Z</time>
      </trkpt>
      <trkpt lat="43.27825" lon="-1.69359">
        <ele>37.944</ele>
        <time>2020-05-14T13:56:19Z</time>
      </trkpt>
      <trkpt lat="43.2783" lon="-1.6935">
        <ele>37.905</ele>
        <time>2020-05-14T13:56:39Z</time>
      </trkpt>
      <trkpt lat="43.27841" lon="-1.69323">
        <ele>38.515</ele>
        <time>2020-05-14T13:56:59Z</time>
      </trkpt>
      <trkpt lat="43.27847" lon="-1.69301">
        <ele>38.508</ele>
        <time>2020-05-14T13:57:19Z</time>
      </trkpt>
      <trkpt lat="43.27852" lon="-1.69267">
        <ele>39.078</ele>
        <time>2020-05-14T13:57:39Z</time>
      </trkpt>
      <trkpt lat="43.27853" lon="-1.69234">
        <ele>38.623</ele>
        <time>2020-05-14T13:57:59Z</time>
      </trkpt>
      <trkpt lat="43.2785" lon="-1.69203">
        <ele>38.827</ele>
        <time>2020-05-14T13:58:19Z</time>
      </trkpt>
      <trkpt lat="43.27841" lon="-1.69171">
        <ele>38.865</ele>
        <time>2020-05-14T13:58:39Z</time>
      </trkpt>
      <trkpt lat="43.27834" lon="-1.69152">
        <ele>38.76</ele>
        <time>2020-05-14T13:58:59Z</time>
      </trkpt>
      <trkpt lat="43.27833" lon="-1.6915">
        <ele>38.74</ele>
        <time>2020-05-14T13:59:19Z</time>
      </trkpt>
      <trkpt lat="43.27828" lon="-1.6914">
        <ele>38.947</ele>
        <time>2020-05-14T13:59:39Z</time>
      </trkpt>
      <trkpt lat="43.27819" lon="-1.69126">
        <ele>38.639</ele>
        <time>2020-05-14T13:59:59Z</time>
      </trkpt>
      <trkpt lat="43.27814" lon="-1.69118">
        <ele>38.598</ele>
        <time>2020-05-14T14:00:19Z</time>
      </trkpt>
      <trkpt lat="43.27814" lon="-1.69116">
        <ele>38.515</ele>
        <time>2020-05-14T14:00:39Z</time>
      </trkpt>
      <trkpt lat="43.27799" lon="-1.69101">
        <ele>38.326</ele>
        <time>2020-05-14T14:00:59Z</time>
      </trkpt>
      <trkpt lat="43.27786" lon="-1.69087">
        <ele>38.408</ele>
        <time>2020-05-14T14:01:19Z</time>
      </trkpt>
      <trkpt lat="43.27776" lon="-1.69081">
        <ele>38.593</ele>
        <time>2020-05-14T14:01:39Z</time>
      </trkpt>
      <trkpt lat="43.27768" lon="-1.69076">
        <ele>38.358</ele>
        <time>2020-05-14T14:01:59Z</time>
      </trkpt>
      <trkpt lat="43.27752" lon="-1.69068">
        <ele>38.382</ele>
        <time>2020-05-14T14:02:19Z</time>
      </trkpt>
      <trkpt lat="43.27733" lon="-1.69063">
        <ele>38.54</ele>
        <time>2020-05-14T14:02:39Z</time>
      </trkpt>
      <trkpt lat="43.27704" lon="-1.69062">
        <ele>37.865</ele>
        <time>2020-05-14T14:02:59Z</time>
      </trkpt>
      <trkpt lat="43.27673" lon="-1.69062">
        <ele>38.385</ele>
        <time>2020-05-14T14:03:19Z</time>
      </trkpt>
      <trkpt lat="43.27651" lon="-1.69061">
        <ele>38.432</ele>
        <time>2020-05-14T14:03:39Z</time>
      </trkpt>
      <trkpt lat="43.27625" lon="-1.69058">
        <ele>38.484</ele>
        <time>2020-05-14T14:03:59Z</time>
      </trkpt>
      <trkpt lat="43.27593" lon="-1.69055">
        <ele>38.369</ele>
        <time>2020-05-14T14:04:19Z</time>
      </trkpt>
      <trkpt lat="43.27573" lon="-1.69054">
        <ele>38.404</ele>
        <time>2020-05-14T14:04:39Z</time>
      </trkpt>
      <trkpt lat="43.27541" lon="-1.6905">
        <ele>38.424</ele>
        <time>2020-05-14T14:04:59Z</time>
      </trkpt>
      <trkpt lat="43.27527" lon="-1.69048">
        <ele>38.208</ele>
        <time>2020-05-14T14:05:19Z</time>
      </trkpt>
      <trkpt lat="43.27518" lon="-1.69042">
        <ele>37.71</ele>
        <time>2020-05-14T14:05:39Z</time>
      </trkpt>
      <trkpt lat="43.27515" lon="-1.69041">
        <ele>37.795</ele>
        <time>2020-05-14T14:05:59Z</time>
      </trkpt>
      <trkpt lat="43.27516" lon="-1.69037">
        <ele>37.799</ele>
        <time>2020-05-14T14:06:19Z</time>
      </trkpt>
      <trkpt lat="43.27514" lon="-1.69036">
        <ele>37.767</ele>
        <time>2020-05-14T14:06:39Z</time>
      </trkpt>
      <trkpt lat="43.27494" lon="-1.69026">
        <ele>37.712</ele>
        <time>2020-05-14T14:06:59Z</time>
      </trkpt>
      <trkpt lat="43.27476" lon="-1.6902">
        <ele>37.822</ele>
        <time>2020-05-14T14:07:19Z</time>
      </trkpt>
      <trkpt lat="43.27466" lon="-1.69016">
        <ele>37.669</ele>
        <time>2020-05-14T14:07:39Z</time>
      </trkpt>
      <trkpt lat="43.27453" lon="-1.69011">
        <ele>37.811</ele>
        <time>2020-05-14T14:07:59Z</time>
      </trkpt>
      <trkpt lat="43.27444" lon="-1.69009">
        <ele>37.968</ele>
        <time>2020-05-14T14:08:19Z</time>
      </trkpt>
      <trkpt lat="43.27435" lon="-1.69008">
        <ele>38.042</ele>
        <time>2020-05-14T14:08:39Z</time>
      </trkpt>
      <trkpt lat="43.27415" lon="-1.69006">
        <ele>38.026</ele>
        <time>2020-05-14T14:08:59Z</time>
      </trkpt>
      <trkpt lat="43.27404" lon="-1.69002">
        <ele>37.908</ele>
        <time>2020-05-14T14:09:19Z</time>
      </trkpt>
      <trkpt lat="43.27389" lon="-1.68996">
        <ele>38.12</ele>
        <time>2020-05-14T14:09:39Z</time>
      </trkpt>
      <trkpt lat="43.27372" lon="-1.68992">
        <ele>38.245</ele>
        <time>2020-05-14T14:09:59Z</time>
      </trkpt>
      <trkpt lat="43.27351" lon="-1.68987">
        <ele>38.229</ele>
        <time>2020-05-14T14:10:19Z</time>
      </trkpt>
      <trkpt lat="43.27345" lon="-1.68986">
        <ele>38.377</ele>
        <time>2020-05-14T14:10:39Z</time>
      </trkpt>
      <trkpt lat="43.27334" lon="-1.68985">
        <ele>38.262</ele>
        <time>2020-05-14T14:10:59Z</time>
      </trkpt>
      <trkpt lat="43.27323" lon="-1.68986">
        <ele>37.932</ele>
        <time>2020-05-14T14:11:19Z</time>
      </trkpt>
      <trkpt lat="43.27311" lon="-1.68984">
        <ele>37.159</ele>
        <time>2020-05-14T14:11:39Z</time>
      </trkpt>
      <trkpt lat="43.27303" lon="-1.6898">
        <ele>37.221</ele>
        <time>2020-05-14T14:11:59Z</time>
      </trkpt>
      <trkpt lat="43.27296" lon="-1.68976">
        <ele>36.259</ele>
        <time>2020-05-14T14:12:19Z</time>
      </trkpt>
      <trkpt lat="43.27281" lon="-1.68969">
        <ele>35.003</ele>
        <time>2020-05-14T14:12:39Z</time>
      </trkpt>
      <trkpt lat="43.27274" lon="-1.68966">
        <ele>34.823</ele>
        <time>2020-05-14T14:12:59Z</time>
      </trkpt>
      <trkpt lat="43.27261" lon="-1.68965">
        <ele>34.108</ele>
        <time>2020-05-14T14:13:19Z</time>
      </trkpt>
      <trkpt lat="43.27256" lon="-1.68966">
        <ele>38.399</ele>
        <time>2020-05-14T14:13:39Z</time>
      </trkpt>
      <trkpt lat="43.27252" lon="-1.68966">
        <ele>38.374</ele>
        <time>2020-05-14T14:13:59Z</time>
      </trkpt>
      <trkpt lat="43.27251" lon="-1.68967">
        <ele>38.338</ele>
        <time>2020-05-14T14:14:19Z</time>
      </trkpt>
      <trkpt lat="43.27236" lon="-1.68971">
        <ele>38.446</ele>
        <time>2020-05-14T14:14:39Z</time>
      </trkpt>
      <trkpt lat="43.27235" lon="-1.68971">
        <ele>38.461</ele>
        <time>2020-05-14T14:14:59Z</time>
      </trkpt>
      <trkpt lat="43.27228" lon="-1.68973">
        <ele>38.381</ele>
        <time>2020-05-14T14:15:19Z</time>
      </trkpt>
      <trkpt lat="43.27222" lon="-1.68974">
        <ele>38.358</ele>
        <time>2020-05-14T14:15:39Z</time>
      </trkpt>
      <trkpt lat="43.27219" lon="-1.68974">
        <ele>38.36</ele>
        <time>2020-05-14T14:15:59Z</time>
      </trkpt>
      <trkpt lat="43.27214" lon="-1.68974">
        <ele>37.218</ele>
        <time>2020-05-14T14:16:19Z</time>
      </trkpt>
      <trkpt lat="43.27213" lon="-1.68974">
        <ele>37.298</ele>
        <time>2020-05-14T14:16:39Z</time>
      </trkpt>
      <trkpt lat="43.27205" lon="-1.68972">
        <ele>35.417</ele>
        <time>2020-05-14T14:16:59Z</time>
      </trkpt>
      <trkpt lat="43.27201" lon="-1.6897">
        <ele>35.408</ele>
        <time>2020-05-14T14:17:19Z</time>
      </trkpt>
      <trkpt lat="43.27194" lon="-1.68956">
        <ele>36.995</ele>
        <time>2020-05-14T14:17:39Z</time>
      </trkpt>
      <trkpt lat="43.27191" lon="-1.68948">
        <ele>37.38</ele>
        <time>2020-05-14T14:17:59Z</time>
      </trkpt>
      <trkpt lat="43.27183" lon="-1.6894">
        <ele>37.654</ele>
        <time>2020-05-14T14:18:19Z</time>
      </trkpt>
      <trkpt lat="43.2716" lon="-1.68918">
        <ele>38.482</ele>
        <time>2020-05-14T14:18:39Z</time>
      </trkpt>
      <trkpt lat="43.27149" lon="-1.68912">
        <ele>38.587</ele>
        <time>2020-05-14T14:18:59Z</time>
      </trkpt>
      <trkpt lat="43.27142" lon="-1.68905">
        <ele>38.717</ele>
        <time>2020-05-14T14:19:19Z</time>
      </trkpt>
      <trkpt lat="43.27141" lon="-1.689">
        <ele>38.744</ele>
        <time>2020-05-14T14:19:39Z</time>
      </trkpt>
      <trkpt lat="43.27139" lon="-1.689">
        <ele>38.716</ele>
        <time>2020-05-14T14:19:59Z</time>
      </trkpt>
      <trkpt lat="43.27136" lon="-1.68896">
        <ele>39.148</ele>
        <time>2020-05-14T14:20:19Z</time>
      </trkpt>
      <trkpt lat="43.27134" lon="-1.68891">
        <ele>38.861</ele>
        <time>2020-05-14T14:20:39Z</time>
      </trkpt>
      <trkpt lat="43.27131" lon="-1.68886">
        <ele>39.017</ele>
        <time>2020-05-14T14:20:59Z</time>
      </trkpt>
      <trkpt lat="43.27128" lon="-1.68884">
        <ele>39.008</ele>
        <time>2020-05-14T14:21:19Z</time>
      </trkpt>
      <trkpt lat="43.27126" lon="-1.68882">
        <ele>39.228</ele>
        <time>2020-05-14T14:21:39Z</time>
      </trkpt>
      <trkpt lat="43.27123" lon="-1.68879">
        <ele>39.463</ele>
        <time>2020-05-14T14:21:59Z</time>
      </trkpt>
      <trkpt lat="43.27119" lon="-1.68875">
        <ele>39.357</ele>
        <time>2020-05-14T14:22:19Z</time>
      </trkpt>
      <trkpt lat="43.27111" lon="-1.68868">
        <ele>39.415</ele>
        <time>2020-05-14T14:22:39Z</time>
      </trkpt>
      <trkpt lat="43.27106" lon="-1.68865">
        <ele>39.67</ele>
        <time>2020-05-14T14:22:59Z</time>
      </trkpt>
      <trkpt lat="43.27102" lon="-1.68862">
        <ele>39.78</ele>
        <time>2020-05-14T14:23:19Z</time>
      </trkpt>
      <trkpt lat="43.27097" lon="-1.68859">
        <ele>39.827</ele>
        <time>2020-05-14T14:23:39Z</time>
      </trkpt>
      <trkpt lat="43.27093" lon="-1.68856">
        <ele>39.839</ele>
        <time>2020-05-14T14:23:59Z</time>
      </trkpt>
      <trkpt lat="43.27087" lon="-1.68852">
        <ele>39.884</ele>
        <time>2020-05-14T14:24:19Z</time>
      </trkpt>
      <trkpt lat="43.27085" lon="-1.68851">
        <ele>39.807</ele>
        <time>2020-05-14T14:24:39Z</time>
      </trkpt>
      <trkpt lat="43.27084" lon="-1.6885">
        <ele>39.817</ele>
        <time>2020-05-14T14:24:59Z</time>
      </trkpt>
      <trkpt lat="43.27083" lon="-1.6885">
        <ele>39.808</ele>
        <time>2020-05-14T14:25:19Z</time>
      </trkpt>
      <trkpt lat="43.27072" lon="-1.68844">
        <ele>39.832</ele>
        <time>2020-05-14T14:25:39Z</time>
      </trkpt>
      <trkpt lat="43.27066" lon="-1.68841">
        <ele>39.747</ele>
        <time>2020-05-14T14:25:59Z</time>
      </trkpt>
      <trkpt lat="43.2706" lon="-1.68838">
        <ele>39.881</ele>
        <time>2020-05-14T14:26:19Z</time>
      </trkpt>
      <trkpt lat="43.27055" lon="-1.68836">
        <ele>39.869</ele>
        <time>2020-05-14T14:26:39Z</time>
      </trkpt>
      <trkpt lat="43.27051" lon="-1.68834">
        <ele>39.854</ele>
        <time>2020-05-14T14:26:59Z</time>
      </trkpt>
      <trkpt lat="43.27046" lon="-1.68831">
        <ele>39.984</ele>
        <time>2020-05-14T14:27:19Z</time>
      </trkpt>
      <trkpt lat="43.27041" lon="-1.68828">
        <ele>40.041</ele>
        <time>2020-05-14T14:27:39Z</time>
      </trkpt>
      <trkpt lat="43.27039" lon="-1.68827">
        <ele>40.083</ele>
        <time>2020-05-14T14:27:59Z</time>
      </trkpt>
      <trkpt lat="43.27032" lon="-1.68824">
        <ele>40.235</ele>
        <time>2020-05-14T14:28:19Z</time>
      </trkpt>
      <trkpt lat="43.27026" lon="-1.68822">
        <ele>40.186</ele>
        <time>2020-05-14T14:28:39Z</time>
      </trkpt>
      <trkpt lat="43.27024" lon="-1.68821">
        <ele>40.114</ele>
        <time>2020-05-14T14:28:59Z</time>
      </trkpt>
      <trkpt lat="43.27021" lon="-1.68819">
        <ele>40.108</ele>
        <time>2020-05-14T14:29:19Z</time>
      </trkpt>
      <trkpt lat="43.2702" lon="-1.68819">
        <ele>40.127</ele>
        <time>2020-05-14T14:29:39Z</time>
      </trkpt>
      <trkpt lat="43.27014" lon="-1.68814">
        <ele>38.442</ele>
        <time>2020-05-14T14:29:59Z</time>
      </trkpt>
      <trkpt lat="43.27008" lon="-1.6881">
        <ele>39.716</ele>
        <time>2020-05-14T14:30:19Z</time>
      </trkpt>
      <trkpt lat="43.27004" lon="-1.68806">
        <ele>39.774</ele>
        <time>2020-05-14T14:30:39Z</time>
      </trkpt>
      <trkpt lat="43.26999" lon="-1.68802">
        <ele>39.869</ele>
        <time>2020-05-14T14:30:59Z</time>
      </trkpt>
      <trkpt lat="43.26992" lon="-1.68795">
        <ele>39.729</ele>
        <time>2020-05-14T14:31:19Z</time>
      </trkpt>
      <trkpt lat="43.26988" lon="-1.68789">
        <ele>39.866</ele>
        <time>2020-05-14T14:31:39Z</time>
      </trkpt>
      <trkpt lat="43.26986" lon="-1.68786">
        <ele>40.118</ele>
        <time>2020-05-14T14:31:59Z</time>
      </trkpt>
      <trkpt lat="43.26985" lon="-1.68785">
        <ele>40.127</ele>
        <time>2020-05-14T14:32:19Z</time>
      </trkpt>
      <trkpt lat="43.26983" lon="-1.68781">
        <ele>40.068</ele>
        <time>2020-05-14T14:32:39Z</time>
      </trkpt>
      <trkpt lat="43.26982" lon="-1.68779">
        <ele>46.314</ele>
        <time>2020-05-14T14:32:59Z</time>
      </trkpt>
      <trkpt lat="43.26976" lon="-1.68767">
        <ele>42.408</ele>
        <time>2020-05-14T14:33:19Z</time>
      </trkpt>
      <trkpt lat="43.26974" lon="-1.68761">
        <ele>40.516</ele>
        <time>2020-05-14T14:33:39Z</time>
      </trkpt>
      <trkpt lat="43.26971" lon="-1.68756">
        <ele>40.671</ele>
        <time>2020-05-14T14:33:59Z</time>
      </trkpt>
      <trkpt lat="43.26971" lon="-1.68754">
        <ele>40.685</ele>
        <time>2020-05-14T14:34:19Z</time>
      </trkpt>
      <trkpt lat="43.2697" lon="-1.68752">
        <ele>40.623</ele>
        <time>2020-05-14T14:34:39Z</time>
      </trkpt>
      <trkpt lat="43.2697" lon="-1.68751">
        <ele>40.658</ele>
        <time>2020-05-14T14:34:59Z</time>
      </trkpt>
      <trkpt lat="43.26968" lon="-1.68744">
        <ele>40.628</ele>
        <time>2020-05-14T14:35:19Z</time>
      </trkpt>
      <trkpt lat="43.26966" lon="-1.68736">
        <ele>40.555</ele>
        <time>2020-05-14T14:35:39Z</time>
      </trkpt>
      <trkpt lat="43.26963" lon="-1.68728">
        <ele>41.157</ele>
        <time>2020-05-14T14:35:59Z</time>
      </trkpt>
      <trkpt lat="43.26961" lon="-1.68719">
        <ele>40.881</ele>
        <time>2020-05-14T14:36:19Z</time>
      </trkpt>
      <trkpt lat="43.26959" lon="-1.68716">
        <ele>43.861</ele>
        <time>2020-05-14T14:36:39Z</time>
      </trkpt>
      <trkpt lat="43.26956" lon="-1.68713">
        <ele>41.017</ele>
        <time>2020-05-14T14:36:59Z</time>
      </trkpt>
      <trkpt lat="43.26955" lon="-1.68711">
        <ele>41.008</ele>
        <time>2020-05-14T14:37:19Z</time>
      </trkpt>
      <trkpt lat="43.26955" lon="-1.6871">
        <ele>41.022</ele>
        <time>2020-05-14T14:37:39Z</time>
      </trkpt>
      <trkpt lat="43.26954" lon="-1.68708">
        <ele>46.487</ele>
        <time>2020-05-14T14:37:59Z</time>
      </trkpt>
      <trkpt lat="43.26954" lon="-1.68707">
        <ele>46.431</ele>
        <time>2020-05-14T14:38:19Z</time>
      </trkpt>
      <trkpt lat="43.26951" lon="-1.68694">
        <ele>41.049</ele>
        <time>2020-05-14T14:38:39Z</time>
      </trkpt>
      <trkpt lat="43.26948" lon="-1.6868">
        <ele>41.114</ele>
        <time>2020-05-14T14:38:59Z</time>
      </trkpt>
      <trkpt lat="43.26943" lon="-1.68655">
        <ele>45.064</ele>
        <time>2020-05-14T14:39:19Z</time>
      </trkpt>
      <trkpt lat="43.26935" lon="-1.68609">
        <ele>41.381</ele>
        <time>2020-05-14T14:39:39Z</time>
      </trkpt>
      <trkpt lat="43.26933" lon="-1.68595">
        <ele>41.273</ele>
        <time>2020-05-14T14:39:59Z</time>
      </trkpt>
      <trkpt lat="43.26928" lon="-1.68574">
        <ele>41.399</ele>
        <time>2020-05-14T14:40:19Z</time>
      </trkpt>
      <trkpt lat="43.26926" lon="-1.68563">
        <ele>41.907</ele>
        <time>2020-05-14T14:40:39Z</time>
      </trkpt>
      <trkpt lat="43.26924" lon="-1.68556">
        <ele>41.627</ele>
        <time>2020-05-14T14:40:59Z</time>
      </trkpt>
      <trkpt lat="43.26921" lon="-1.68545">
        <ele>41.508</ele>
        <time>2020-05-14T14:41:19Z</time>
      </trkpt>
      <trkpt lat="43.2692" lon="-1.68541">
        <ele>41.663</ele>
        <time>2020-05-14T14:41:39Z</time>
      </trkpt>
      <trkpt lat="43.26918" lon="-1.68536">
        <ele>41.748</ele>
        <time>2020-05-14T14:41:59Z</time>
      </trkpt>
      <trkpt lat="43.26915" lon="-1.6853">
        <ele>41.672</ele>
        <time>2020-05-14T14:42:19Z</time>
      </trkpt>
      <trkpt lat="43.26913" lon="-1.68525">
        <ele>41.61</ele>
        <time>2020-05-14T14:42:39Z</time>
      </trkpt>
      <trkpt lat="43.2691" lon="-1.6852">
        <ele>41.915</ele>
        <time>2020-05-14T14:42:59Z</time>
      </trkpt>
      <trkpt lat="43.26907" lon="-1.68514">
        <ele>47.085</ele>
        <time>2020-05-14T14:43:19Z</time>
      </trkpt>
      <trkpt lat="43.26903" lon="-1.68509">
        <ele>46.122</ele>
        <time>2020-05-14T14:43:39Z</time>
      </trkpt>
      <trkpt lat="43.26896" lon="-1.685">
        <ele>41.844</ele>
        <time>2020-05-14T14:43:59Z</time>
      </trkpt>
      <trkpt lat="43.26892" lon="-1.68495">
        <ele>45.593</ele>
        <time>2020-05-14T14:44:19Z</time>
      </trkpt>
      <trkpt lat="43.26887" lon="-1.6849">
        <ele>42.265</ele>
        <time>2020-05-14T14:44:39Z</time>
      </trkpt>
      <trkpt lat="43.26881" lon="-1.68484">
        <ele>41.721</ele>
        <time>2020-05-14T14:44:59Z</time>
      </trkpt>
      <trkpt lat="43.26874" lon="-1.68478">
        <ele>41.808</ele>
        <time>2020-05-14T14:45:19Z</time>
      </trkpt>
      <trkpt lat="43.2686" lon="-1.68471">
        <ele>41.873</ele>
        <time>2020-05-14T14:45:39Z</time>
      </trkpt>
      <trkpt lat="43.26851" lon="-1.68467">
        <ele>41.758</ele>
        <time>2020-05-14T14:45:59Z</time>
      </trkpt>
      <trkpt lat="43.26842" lon="-1.68464">
        <ele>41.762</ele>
        <time>2020-05-14T14:46:19Z</time>
      </trkpt>
      <trkpt lat="43.26837" lon="-1.68463">
        <ele>41.72</ele>
        <time>2020-05-14T14:46:39Z</time>
      </trkpt>
      <trkpt lat="43.26831" lon="-1.68463">
        <ele>41.725</ele>
        <time>2020-05-14T14:46:59Z</time>
      </trkpt>
      <trkpt lat="43.26824" lon="-1.68463">
        <ele>41.755</ele>
        <time>2020-05-14T14:47:19Z</time>
      </trkpt>
      <trkpt lat="43.26816" lon="-1.68462">
        <ele>41.822</ele>
        <time>2020-05-14T14:47:39Z</time>
      </trkpt>
      <trkpt lat="43.26807" lon="-1.68463">
        <ele>41.894</ele>
        <time>2020-05-14T14:47:59Z</time>
      </trkpt>
      <trkpt lat="43.26802" lon="-1.68464">
        <ele>41.866</ele>
        <time>2020-05-14T14:48:19Z</time>
      </trkpt>
      <trkpt lat="43.26796" lon="-1.68467">
        <ele>41.729</ele>
        <time>2020-05-14T14:48:39Z</time>
      </trkpt>
      <trkpt lat="43.2679" lon="-1.68469">
        <ele>41.721</ele>
        <time>2020-05-14T14:48:59Z</time>
      </trkpt>
      <trkpt lat="43.26787" lon="-1.68471">
        <ele>41.808</ele>
        <time>2020-05-14T14:49:19Z</time>
      </trkpt>
      <trkpt lat="43.26784" lon="-1.68473">
        <ele>40.65</ele>
        <time>2020-05-14T14:49:39Z</time>
      </trkpt>
      <trkpt lat="43.26776" lon="-1.68478">
        <ele>41.725</ele>
        <time>2020-05-14T14:49:59Z</time>
      </trkpt>
      <trkpt lat="43.26758" lon="-1.68491">
        <ele>41.799</ele>
        <time>2020-05-14T14:50:19Z</time>
      </trkpt>
      <trkpt lat="43.26739" lon="-1.68504">
        <ele>41.627</ele>
        <time>2020-05-14T14:50:39Z</time>
      </trkpt>
      <trkpt lat="43.26733" lon="-1.68508">
        <ele>41.712</ele>
        <time>2020-05-14T14:50:59Z</time>
      </trkpt>
      <trkpt lat="43.26726" lon="-1.68512">
        <ele>41.192</ele>
        <time>2020-05-14T14:51:19Z</time>
      </trkpt>
      <trkpt lat="43.26714" lon="-1.6852">
        <ele>40.849</ele>
        <time>2020-05-14T14:51:39Z</time>
      </trkpt>
      <trkpt lat="43.26705" lon="-1.68527">
        <ele>40.441</ele>
        <time>2020-05-14T14:51:59Z</time>
      </trkpt>
      <trkpt lat="43.26699" lon="-1.68531">
        <ele>40.499</ele>
        <time>2020-05-14T14:52:19Z</time>
      </trkpt>
      <trkpt lat="43.26698" lon="-1.68532">
        <ele>40.407</ele>
        <time>2020-05-14T14:52:39Z</time>
      </trkpt>
      <trkpt lat="43.26696" lon="-1.68533">
        <ele>40.427</ele>
        <time>2020-05-14T14:52:59Z</time>
      </trkpt>
      <trkpt lat="43.26679" lon="-1.68546">
        <ele>41.708</ele>
        <time>2020-05-14T14:53:19Z</time>
      </trkpt>
      <trkpt lat="43.26662" lon="-1.68558">
        <ele>41.963</ele>
        <time>2020-05-14T14:53:39Z</time>
      </trkpt>
      <trkpt lat="43.2665" lon="-1.68566">
        <ele>42.028</ele>
        <time>2020-05-14T14:53:59Z</time>
      </trkpt>
      <trkpt lat="43.26638" lon="-1.68574">
        <ele>46.142</ele>
        <time>2020-05-14T14:54:19Z</time>
      </trkpt>
      <trkpt lat="43.26634" lon="-1.68577">
        <ele>43.13</ele>
        <time>2020-05-14T14:54:39Z</time>
      </trkpt>
      <trkpt lat="43.2663" lon="-1.6858">
        <ele>42.255</ele>
        <time>2020-05-14T14:54:59Z</time>
      </trkpt>
      <trkpt lat="43.26619" lon="-1.6859">
        <ele>41.995</ele>
        <time>2020-05-14T14:55:19Z</time>
      </trkpt>
      <trkpt lat="43.26613" lon="-1.68596">
        <ele>41.992</ele>
        <time>2020-05-14T14:55:39Z</time>
      </trkpt>
      <trkpt lat="43.26606" lon="-1.68603">
        <ele>41.984</ele>
        <time>2020-05-14T14:55:59Z</time>
      </trkpt>
      <trkpt lat="43.266" lon="-1.6861">
        <ele>41.983</ele>
        <time>2020-05-14T14:56:19Z</time>
      </trkpt>
      <trkpt lat="43.26594" lon="-1.68617">
        <ele>41.925</ele>
        <time>2020-05-14T14:56:39Z</time>
      </trkpt>
      <trkpt lat="43.26587" lon="-1.68626">
        <ele>42.017</ele>
        <time>2020-05-14T14:56:59Z</time>
      </trkpt>
      <trkpt lat="43.26579" lon="-1.68636">
        <ele>41.708</ele>
        <time>2020-05-14T14:57:19Z</time>
      </trkpt>
      <trkpt lat="43.26574" lon="-1.68641">
        <ele>41.782</ele>
        <time>2020-05-14T14:57:39Z</time>
      </trkpt>
      <trkpt lat="43.26569" lon="-1.68647">
        <ele>41.737</ele>
        <time>2020-05-14T14:57:59Z</time>
      </trkpt>
      <trkpt lat="43.26563" lon="-1.68653">
        <ele>42.061</ele>
        <time>2020-05-14T14:58:19Z</time>
      </trkpt>
      <trkpt lat="43.26556" lon="-1.6866">
        <ele>41.819</ele>
        <time>2020-05-14T14:58:39Z</time>
      </trkpt>
      <trkpt lat="43.26538" lon="-1.68677">
        <ele>42.214</ele>
        <time>2020-05-14T14:58:59Z</time>
      </trkpt>
      <trkpt lat="43.26527" lon="-1.68687">
        <ele>41.894</ele>
        <time>2020-05-14T14:59:19Z</time>
      </trkpt>
      <trkpt lat="43.26515" lon="-1.68697">
        <ele>41.981</ele>
        <time>2020-05-14T14:59:39Z</time>
      </trkpt>
      <trkpt lat="43.26503" lon="-1.68706">
        <ele>42.113</ele>
        <time>2020-05-14T14:59:59Z</time>
      </trkpt>
      <trkpt lat="43.2649" lon="-1.68717">
        <ele>41.089</ele>
        <time>2020-05-14T15:00:19Z</time>
      </trkpt>
      <trkpt lat="43.26478" lon="-1.68727">
        <ele>44.606</ele>
        <time>2020-05-14T15:00:39Z</time>
      </trkpt>
      <trkpt lat="43.26474" lon="-1.6873">
        <ele>42.026</ele>
        <time>2020-05-14T15:00:59Z</time>
      </trkpt>
      <trkpt lat="43.2647" lon="-1.68733">
        <ele>42.208</ele>
        <time>2020-05-14T15:01:19Z</time>
      </trkpt>
      <trkpt lat="43.26462" lon="-1.68738">
        <ele>42.382</ele>
        <time>2020-05-14T15:01:39Z</time>
      </trkpt>
      <trkpt lat="43.26456" lon="-1.68741">
        <ele>42.157</ele>
        <time>2020-05-14T15:01:59Z</time>
      </trkpt>
      <trkpt lat="43.26451" lon="-1.68744">
        <ele>42.211</ele>
        <time>2020-05-14T15:02:19Z</time>
      </trkpt>
      <trkpt lat="43.26445" lon="-1.68746">
        <ele>42.219</ele>
        <time>2020-05-14T15:02:39Z</time>
      </trkpt>
      <trkpt lat="43.2644" lon="-1.68748">
        <ele>42.114</ele>
        <time>2020-05-14T15:02:59Z</time>
      </trkpt>
      <trkpt lat="43.26437" lon="-1.6875">
        <ele>42.354</ele>
        <time>2020-05-14T15:03:19Z</time>
      </trkpt>
      <trkpt lat="43.2643" lon="-1.68752">
        <ele>42.651</ele>
        <time>2020-05-14T15:03:39Z</time>
      </trkpt>
      <trkpt lat="43.26429" lon="-1.68752">
        <ele>42.663</ele>
        <time>2020-05-14T15:03:59Z</time>
      </trkpt>
      <trkpt lat="43.26426" lon="-1.68753">
        <ele>42.521</ele>
        <time>2020-05-14T15:04:19Z</time>
      </trkpt>
      <trkpt lat="43.26414" lon="-1.68756">
        <ele>42.441</ele>
        <time>2020-05-14T15:04:39Z</time>
      </trkpt>
      <trkpt lat="43.26408" lon="-1.68757">
        <ele>42.405</ele>
        <time>2020-05-14T15:04:59Z</time>
      </trkpt>
      <trkpt lat="43.26402" lon="-1.68758">
        <ele>42.908</ele>
        <time>2020-05-14T15:05:19Z</time>
      </trkpt>
      <trkpt lat="43.26398" lon="-1.68759">
        <ele>42.866</ele>
        <time>2020-05-14T15:05:39Z</time>
      </trkpt>
      <trkpt lat="43.26393" lon="-1.68759">
        <ele>42.811</ele>
        <time>2020-05-14T15:05:59Z</time>
      </trkpt>
      <trkpt lat="43.26384" lon="-1.68759">
        <ele>42.825</ele>
        <time>2020-05-14T15:06:19Z</time>
      </trkpt>
      <trkpt lat="43.26377" lon="-1.68759">
        <ele>43.313</ele>
        <time>2020-05-14T15:06:39Z</time>
      </trkpt>
      <trkpt lat="43.26371" lon="-1.68758">
        <ele>43.748</ele>
        <time>2020-05-14T15:06:59Z</time>
      </trkpt>
      <trkpt lat="43.26355" lon="-1.68757">
        <ele>42.778</ele>
        <time>2020-05-14T15:07:19Z</time>
      </trkpt>
      <trkpt lat="43.26351" lon="-1.68756">
        <ele>42.935</ele>
        <time>2020-05-14T15:07:39Z</time>
      </trkpt>
      <trkpt lat="43.26348" lon="-1.68756">
        <ele>42.977</ele>
        <time>2020-05-14T15:07:59Z</time>
      </trkpt>
      <trkpt lat="43.26345" lon="-1.68755">
        <ele>43.986</ele>
        <time>2020-05-14T15:08:19Z</time>
      </trkpt>
      <trkpt lat="43.26341" lon="-1.68753">
        <ele>44.66</ele>
        <time>2020-05-14T15:08:39Z</time>
      </trkpt>
      <trkpt lat="43.26339" lon="-1.68752">
        <ele>42.426</ele>
        <time>2020-05-14T15:08:59Z</time>
      </trkpt>
      <trkpt lat="43.26339" lon="-1.68752">
        <ele>42.408</ele>
        <time>2020-05-14T15:09:19Z</time>
      </trkpt>
      <trkpt lat="43.26282" lon="-1.68724">
        <ele>43.272</ele>
        <time>2020-05-14T15:09:39Z</time>
      </trkpt>
      <trkpt lat="43.26276" lon="-1.68721">
        <ele>43.267</ele>
        <time>2020-05-14T15:09:59Z</time>
      </trkpt>
      <trkpt lat="43.2627" lon="-1.68717">
        <ele>44.021</ele>
        <time>2020-05-14T15:10:19Z</time>
      </trkpt>
      <trkpt lat="43.26264" lon="-1.68713">
        <ele>43.489</ele>
        <time>2020-05-14T15:10:39Z</time>
      </trkpt>
      <trkpt lat="43.2626" lon="-1.6871">
        <ele>43.484</ele>
        <time>2020-05-14T15:10:59Z</time>
      </trkpt>
      <trkpt lat="43.2625" lon="-1.68701">
        <ele>43.384</ele>
        <time>2020-05-14T15:11:19Z</time>
      </trkpt>
      <trkpt lat="43.26242" lon="-1.68693">
        <ele>43.691</ele>
        <time>2020-05-14T15:11:39Z</time>
      </trkpt>
      <trkpt lat="43.26234" lon="-1.68685">
        <ele>43.743</ele>
        <time>2020-05-14T15:11:59Z</time>
      </trkpt>
      <trkpt lat="43.2622" lon="-1.68672">
        <ele>43.666</ele>
        <time>2020-05-14T15:12:19Z</time>
      </trkpt>
      <trkpt lat="43.26207" lon="-1.68659">
        <ele>43.529</ele>
        <time>2020-05-14T15:12:39Z</time>
      </trkpt>
      <trkpt lat="43.26198" lon="-1.6865">
        <ele>42.521</ele>
        <time>2020-05-14T15:12:59Z</time>
      </trkpt>
      <trkpt lat="43.26189" lon="-1.68641">
        <ele>43.608</ele>
        <time>2020-05-14T15:13:19Z</time>
      </trkpt>
      <trkpt lat="43.26185" lon="-1.68636">
        <ele>43.77</ele>
        <time>2020-05-14T15:13:39Z</time>
      </trkpt>
      <trkpt lat="43.2618" lon="-1.68631">
        <ele>43.635</ele>
        <time>2020-05-14T15:13:59Z</time>
      </trkpt>
      <trkpt lat="43.26176" lon="-1.68625">
        <ele>43.519</ele>
        <time>2020-05-14T15:14:19Z</time>
      </trkpt>
      <trkpt lat="43.26172" lon="-1.6862">
        <ele>43.577</ele>
        <time>2020-05-14T15:14:39Z</time>
      </trkpt>
      <trkpt lat="43.26154" lon="-1.68596">
        <ele>44.112</ele>
        <time>2020-05-14T15:14:59Z</time>
      </trkpt>
      <trkpt lat="43.26146" lon="-1.68585">
        <ele>44.492</ele>
        <time>2020-05-14T15:15:19Z</time>
      </trkpt>
      <trkpt lat="43.26144" lon="-1.68581">
        <ele>44.459</ele>
        <time>2020-05-14T15:15:39Z</time>
      </trkpt>
      <trkpt lat="43.26142" lon="-1.68577">
        <ele>44.511</ele>
        <time>2020-05-14T15:15:59Z</time>
      </trkpt>
      <trkpt lat="43.26136" lon="-1.68566">
        <ele>44.291</ele>
        <time>2020-05-14T15:16:19Z</time>
      </trkpt>
      <trkpt lat="43.26127" lon="-1.68549">
        <ele>44.081</ele>
        <time>2020-05-14T15:16:39Z</time>
      </trkpt>
      <trkpt lat="43.26118" lon="-1.6853">
        <ele>44.019</ele>
        <time>2020-05-14T15:16:59Z</time>
      </trkpt>
      <trkpt lat="43.26108" lon="-1.68512">
        <ele>44.508</ele>
        <time>2020-05-14T15:17:19Z</time>
      </trkpt>
      <trkpt lat="43.26103" lon="-1.68502">
        <ele>44.433</ele>
        <time>2020-05-14T15:17:39Z</time>
      </trkpt>
      <trkpt lat="43.26097" lon="-1.68493">
        <ele>44.358</ele>
        <time>2020-05-14T15:17:59Z</time>
      </trkpt>
      <trkpt lat="43.26094" lon="-1.68486">
        <ele>44.462</ele>
        <time>2020-05-14T15:18:19Z</time>
      </trkpt>
      <trkpt lat="43.26091" lon="-1.6848">
        <ele>44.45</ele>
        <time>2020-05-14T15:18:39Z</time>
      </trkpt>
      <trkpt lat="43.26078" lon="-1.68451">
        <ele>44.835</ele>
        <time>2020-05-14T15:18:59Z</time>
      </trkpt>
      <trkpt lat="43.26068" lon="-1.68429">
        <ele>44.765</ele>
        <time>2020-05-14T15:19:19Z</time>
      </trkpt>
      <trkpt lat="43.26064" lon="-1.6842">
        <ele>45.092</ele>
        <time>2020-05-14T15:19:39Z</time>
      </trkpt>
      <trkpt lat="43.26059" lon="-1.68409">
        <ele>45.164</ele>
        <time>2020-05-14T15:19:59Z</time>
      </trkpt>
      <trkpt lat="43.2605" lon="-1.68385">
        <ele>45.532</ele>
        <time>2020-05-14T15:20:19Z</time>
      </trkpt>
      <trkpt lat="43.26044" lon="-1.68369">
        <ele>45.692</ele>
        <time>2020-05-14T15:20:39Z</time>
      </trkpt>
      <trkpt lat="43.26037" lon="-1.68353">
        <ele>44.911</ele>
        <time>2020-05-14T15:20:59Z</time>
      </trkpt>
      <trkpt lat="43.26035" lon="-1.68346">
        <ele>45.308</ele>
        <time>2020-05-14T15:21:19Z</time>
      </trkpt>
      <trkpt lat="43.26032" lon="-1.68339">
        <ele>45.747</ele>
        <time>2020-05-14T15:21:39Z</time>
      </trkpt>
      <trkpt lat="43.26025" lon="-1.68318">
        <ele>45.992</ele>
        <time>2020-05-14T15:21:59Z</time>
      </trkpt>
      <trkpt lat="43.26025" lon="-1.68315">
        <ele>45.526</ele>
        <time>2020-05-14T15:22:19Z</time>
      </trkpt>
      <trkpt lat="43.26024" lon="-1.68312">
        <ele>45.534</ele>
        <time>2020-05-14T15:22:39Z</time>
      </trkpt>
      <trkpt lat="43.26023" lon="-1.68306">
        <ele>45.569</ele>
        <time>2020-05-14T15:22:59Z</time>
      </trkpt>
      <trkpt lat="43.26022" lon="-1.68293">
        <ele>46.519</ele>
        <time>2020-05-14T15:23:19Z</time>
      </trkpt>
      <trkpt lat="43.26023" lon="-1.68279">
        <ele>43.846</ele>
        <time>2020-05-14T15:23:39Z</time>
      </trkpt>
      <trkpt lat="43.26023" lon="-1.68266">
        <ele>44.438</ele>
        <time>2020-05-14T15:23:59Z</time>
      </trkpt>
      <trkpt lat="43.26024" lon="-1.68241">
        <ele>45.273</ele>
        <time>2020-05-14T15:24:19Z</time>
      </trkpt>
      <trkpt lat="43.26024" lon="-1.68219">
        <ele>45.485</ele>
        <time>2020-05-14T15:24:39Z</time>
      </trkpt>
      <trkpt lat="43.26025" lon="-1.68206">
        <ele>45.613</ele>
        <time>2020-05-14T15:24:59Z</time>
      </trkpt>
      <trkpt lat="43.26027" lon="-1.68193">
        <ele>44.508</ele>
        <time>2020-05-14T15:25:19Z</time>
      </trkpt>
      <trkpt lat="43.26027" lon="-1.68184">
        <ele>45.211</ele>
        <time>2020-05-14T15:25:39Z</time>
      </trkpt>
      <trkpt lat="43.26027" lon="-1.68162">
        <ele>46.536</ele>
        <time>2020-05-14T15:25:59Z</time>
      </trkpt>
      <trkpt lat="43.26028" lon="-1.68144">
        <ele>47.26</ele>
        <time>2020-05-14T15:26:19Z</time>
      </trkpt>
      <trkpt lat="43.26026" lon="-1.68134">
        <ele>48.158</ele>
        <time>2020-05-14T15:26:39Z</time>
      </trkpt>
      <trkpt lat="43.26019" lon="-1.68119">
        <ele>50.123</ele>
        <time>2020-05-14T15:26:59Z</time>
      </trkpt>
      <trkpt lat="43.25997" lon="-1.68087">
        <ele>52.483</ele>
        <time>2020-05-14T15:27:19Z</time>
      </trkpt>
      <trkpt lat="43.2598" lon="-1.68062">
        <ele>53.06</ele>
        <time>2020-05-14T15:27:39Z</time>
      </trkpt>
      <trkpt lat="43.25965" lon="-1.68043">
        <ele>53.792</ele>
        <time>2020-05-14T15:27:59Z</time>
      </trkpt>
      <trkpt lat="43.25957" lon="-1.68033">
        <ele>54.058</ele>
        <time>2020-05-14T15:28:19Z</time>
      </trkpt>
      <trkpt lat="43.25947" lon="-1.68026">
        <ele>54.952</ele>
        <time>2020-05-14T15:28:39Z</time>
      </trkpt>
      <trkpt lat="43.25931" lon="-1.68018">
        <ele>55.617</ele>
        <time>2020-05-14T15:28:59Z</time>
      </trkpt>
      <trkpt lat="43.25929" lon="-1.68015">
        <ele>54.508</ele>
        <time>2020-05-14T15:29:19Z</time>
      </trkpt>
      <trkpt lat="43.25926" lon="-1.68013">
        <ele>54.529</ele>
        <time>2020-05-14T15:29:39Z</time>
      </trkpt>
      <trkpt lat="43.25921" lon="-1.68012">
        <ele>54.254</ele>
        <time>2020-05-14T15:29:59Z</time>
      </trkpt>
      <trkpt lat="43.25916" lon="-1.68012">
        <ele>53.828</ele>
        <time>2020-05-14T15:30:19Z</time>
      </trkpt>
      <trkpt lat="43.25912" lon="-1.68012">
        <ele>53.366</ele>
        <time>2020-05-14T15:30:39Z</time>
      </trkpt>
      <trkpt lat="43.25908" lon="-1.68013">
        <ele>53.361</ele>
        <time>2020-05-14T15:30:59Z</time>
      </trkpt>
      <trkpt lat="43.25906" lon="-1.68013">
        <ele>53.321</ele>
        <time>2020-05-14T15:31:19Z</time>
      </trkpt>
      <trkpt lat="43.25904" lon="-1.68013">
        <ele>53.338</ele>
        <time>2020-05-14T15:31:39Z</time>
      </trkpt>
      <trkpt lat="43.25899" lon="-1.68014">
        <ele>53.43</ele>
        <time>2020-05-14T15:31:59Z</time>
      </trkpt>
      <trkpt lat="43.25895" lon="-1.68015">
        <ele>53.237</ele>
        <time>2020-05-14T15:32:19Z</time>
      </trkpt>
      <trkpt lat="43.25891" lon="-1.68016">
        <ele>53.249</ele>
        <time>2020-05-14T15:32:39Z</time>
      </trkpt>
      <trkpt lat="43.25887" lon="-1.68017">
        <ele>54.213</ele>
        <time>2020-05-14T15:32:59Z</time>
      </trkpt>
      <trkpt lat="43.25884" lon="-1.68018">
        <ele>54.208</ele>
        <time>2020-05-14T15:33:19Z</time>
      </trkpt>
      <trkpt lat="43.25882" lon="-1.68019">
        <ele>53.427</ele>
        <time>2020-05-14T15:33:39Z</time>
      </trkpt>
      <trkpt lat="43.25879" lon="-1.68021">
        <ele>53.122</ele>
        <time>2020-05-14T15:33:59Z</time>
      </trkpt>
      <trkpt lat="43.25876" lon="-1.68023">
        <ele>53.156</ele>
        <time>2020-05-14T15:34:19Z</time>
      </trkpt>
      <trkpt lat="43.25871" lon="-1.68026">
        <ele>55.294</ele>
        <time>2020-05-14T15:34:39Z</time>
      </trkpt>
      <trkpt lat="43.25866" lon="-1.6803">
        <ele>53.079</ele>
        <time>2020-05-14T15:34:59Z</time>
      </trkpt>
      <trkpt lat="43.25858" lon="-1.68035">
        <ele>52.999</ele>
        <time>2020-05-14T15:35:19Z</time>
      </trkpt>
      <trkpt lat="43.2585" lon="-1.6804">
        <ele>52.996</ele>
        <time>2020-05-14T15:35:39Z</time>
      </trkpt>
      <trkpt lat="43.25832" lon="-1.6805">
        <ele>56.718</ele>
        <time>2020-05-14T15:35:59Z</time>
      </trkpt>
      <trkpt lat="43.25823" lon="-1.68055">
        <ele>52.715</ele>
        <time>2020-05-14T15:36:19Z</time>
      </trkpt>
      <trkpt lat="43.25809" lon="-1.68062">
        <ele>52.765</ele>
        <time>2020-05-14T15:36:39Z</time>
      </trkpt>
      <trkpt lat="43.25799" lon="-1.68067">
        <ele>52.811</ele>
        <time>2020-05-14T15:36:59Z</time>
      </trkpt>
      <trkpt lat="43.25779" lon="-1.68076">
        <ele>56.508</ele>
        <time>2020-05-14T15:37:19Z</time>
      </trkpt>
      <trkpt lat="43.25767" lon="-1.68083">
        <ele>54.855</ele>
        <time>2020-05-14T15:37:39Z</time>
      </trkpt>
      <trkpt lat="43.25761" lon="-1.68085">
        <ele>53.04</ele>
        <time>2020-05-14T15:37:59Z</time>
      </trkpt>
      <trkpt lat="43.25742" lon="-1.68092">
        <ele>52.024</ele>
        <time>2020-05-14T15:38:19Z</time>
      </trkpt>
      <trkpt lat="43.25737" lon="-1.68095">
        <ele>54.082</ele>
        <time>2020-05-14T15:38:39Z</time>
      </trkpt>
      <trkpt lat="43.25732" lon="-1.68097">
        <ele>51.697</ele>
        <time>2020-05-14T15:38:59Z</time>
      </trkpt>
      <trkpt lat="43.25728" lon="-1.68098">
        <ele>51.477</ele>
        <time>2020-05-14T15:39:19Z</time>
      </trkpt>
      <trkpt lat="43.25724" lon="-1.681">
        <ele>51.414</ele>
        <time>2020-05-14T15:39:39Z</time>
      </trkpt>
      <trkpt lat="43.25716" lon="-1.68102">
        <ele>52.146</ele>
        <time>2020-05-14T15:39:59Z</time>
      </trkpt>
      <trkpt lat="43.25709" lon="-1.68105">
        <ele>51.926</ele>
        <time>2020-05-14T15:40:19Z</time>
      </trkpt>
      <trkpt lat="43.25707" lon="-1.68105">
        <ele>51.947</ele>
        <time>2020-05-14T15:40:39Z</time>
      </trkpt>
      <trkpt lat="43.25705" lon="-1.68105">
        <ele>51.611</ele>
        <time>2020-05-14T15:40:59Z</time>
      </trkpt>
      <trkpt lat="43.25698" lon="-1.68106">
        <ele>49.808</ele>
        <time>2020-05-14T15:41:19Z</time>
      </trkpt>
      <trkpt lat="43.25691" lon="-1.68106">
        <ele>49.286</ele>
        <time>2020-05-14T15:41:39Z</time>
      </trkpt>
      <trkpt lat="43.2568" lon="-1.68106">
        <ele>48.531</ele>
        <time>2020-05-14T15:41:59Z</time>
      </trkpt>
      <trkpt lat="43.25679" lon="-1.68105">
        <ele>48.565</ele>
        <time>2020-05-14T15:42:19Z</time>
      </trkpt>
      <trkpt lat="43.25664" lon="-1.68113">
        <ele>48.613</ele>
        <time>2020-05-14T15:42:39Z</time>
      </trkpt>
      <trkpt lat="43.25654" lon="-1.68118">
        <ele>48.738</ele>
        <time>2020-05-14T15:42:59Z</time>
      </trkpt>
      <trkpt lat="43.25642" lon="-1.68125">
        <ele>49.018</ele>
        <time>2020-05-14T15:43:19Z</time>
      </trkpt>
      <trkpt lat="43.25625" lon="-1.68133">
        <ele>49.115</ele>
        <time>2020-05-14T15:43:39Z</time>
      </trkpt>
      <trkpt lat="43.25611" lon="-1.6814">
        <ele>49.397</ele>
        <time>2020-05-14T15:43:59Z</time>
      </trkpt>
      <trkpt lat="43.25593" lon="-1.68146">
        <ele>49.351</ele>
        <time>2020-05-14T15:44:19Z</time>
      </trkpt>
      <trkpt lat="43.2558" lon="-1.68151">
        <ele>49.401</ele>
        <time>2020-05-14T15:44:39Z</time>
      </trkpt>
      <trkpt lat="43.25572" lon="-1.68154">
        <ele>49.811</ele>
        <time>2020-05-14T15:44:59Z</time>
      </trkpt>
      <trkpt lat="43.2557" lon="-1.68155">
        <ele>49.708</ele>
        <time>2020-05-14T15:45:19Z</time>
      </trkpt>
      <trkpt lat="43.25564" lon="-1.68155">
        <ele>49.729</ele>
        <time>2020-05-14T15:45:39Z</time>
      </trkpt>
      <trkpt lat="43.25562" lon="-1.68158">
        <ele>49.744</ele>
        <time>2020-05-14T15:45:59Z</time>
      </trkpt>
      <trkpt lat="43.25558" lon="-1.68156">
        <ele>49.728</ele>
        <time>2020-05-14T15:46:19Z</time>
      </trkpt>
      <trkpt lat="43.25551" lon="-1.68154">
        <ele>49.726</ele>
        <time>2020-05-14T15:46:39Z</time>
      </trkpt>
      <trkpt lat="43.25541" lon="-1.68152">
        <ele>49.781</ele>
        <time>2020-05-14T15:46:59Z</time>
      </trkpt>
      <trkpt lat="43.25529" lon="-1.68146">
        <ele>49.681</ele>
        <time>2020-05-14T15:47:19Z</time>
      </trkpt>
      <trkpt lat="43.25516" lon="-1.68137">
        <ele>49.578</ele>
        <time>2020-05-14T15:47:39Z</time>
      </trkpt>
      <trkpt lat="43.25505" lon="-1.6813">
        <ele>49.64</ele>
        <time>2020-05-14T15:47:59Z</time>
      </trkpt>
      <trkpt lat="43.25494" lon="-1.68124">
        <ele>49.686</ele>
        <time>2020-05-14T15:48:19Z</time>
      </trkpt>
      <trkpt lat="43.25484" lon="-1.68123">
        <ele>49.46</ele>
        <time>2020-05-14T15:48:39Z</time>
      </trkpt>
      <trkpt lat="43.25476" lon="-1.68128">
        <ele>49.526</ele>
        <time>2020-05-14T15:48:59Z</time>
      </trkpt>
      <trkpt lat="43.25471" lon="-1.68133">
        <ele>49.508</ele>
        <time>2020-05-14T15:49:19Z</time>
      </trkpt>
      <trkpt lat="43.25466" lon="-1.68138">
        <ele>49.932</ele>
        <time>2020-05-14T15:49:39Z</time>
      </trkpt>
      <trkpt lat="43.25463" lon="-1.68141">
        <ele>49.957</ele>
        <time>2020-05-14T15:49:59Z</time>
      </trkpt>
      <trkpt lat="43.25461" lon="-1.68155">
        <ele>50.281</ele>
        <time>2020-05-14T15:50:19Z</time>
      </trkpt>
      <trkpt lat="43.25461" lon="-1.6816">
        <ele>50.439</ele>
        <time>2020-05-14T15:50:39Z</time>
      </trkpt>
      <trkpt lat="43.25411" lon="-1.68153">
        <ele>50.434</ele>
        <time>2020-05-14T15:50:59Z</time>
      </trkpt>
      <trkpt lat="43.25411" lon="-1.68153">
        <ele>50.424</ele>
        <time>2020-05-14T15:51:19Z</time>
      </trkpt>
      <trkpt lat="43.25403" lon="-1.68153">
        <ele>49.191</ele>
        <time>2020-05-14T15:51:39Z</time>
      </trkpt>
      <trkpt lat="43.25403" lon="-1.68153">
        <ele>49.153</ele>
        <time>2020-05-14T15:51:59Z</time>
      </trkpt>
      <trkpt lat="43.25388" lon="-1.68154">
        <ele>49.169</ele>
        <time>2020-05-14T15:52:19Z</time>
      </trkpt>
      <trkpt lat="43.25386" lon="-1.68154">
        <ele>49.004</ele>
        <time>2020-05-14T15:52:39Z</time>
      </trkpt>
      <trkpt lat="43.25379" lon="-1.68154">
        <ele>49.024</ele>
        <time>2020-05-14T15:52:59Z</time>
      </trkpt>
      <trkpt lat="43.25365" lon="-1.68155">
        <ele>49.108</ele>
        <time>2020-05-14T15:53:19Z</time>
      </trkpt>
      <trkpt lat="43.25355" lon="-1.68155">
        <ele>49.25</ele>
        <time>2020-05-14T15:53:39Z</time>
      </trkpt>
      <trkpt lat="43.25345" lon="-1.68155">
        <ele>49.265</ele>
        <time>2020-05-14T15:53:59Z</time>
      </trkpt>
      <trkpt lat="43.25334" lon="-1.68155">
        <ele>49.239</ele>
        <time>2020-05-14T15:54:19Z</time>
      </trkpt>
      <trkpt lat="43.25323" lon="-1.68154">
        <ele>49.997</ele>
        <time>2020-05-14T15:54:39Z</time>
      </trkpt>
      <trkpt lat="43.25311" lon="-1.68153">
        <ele>50.432</ele>
        <time>2020-05-14T15:54:59Z</time>
      </trkpt>
      <trkpt lat="43.25299" lon="-1.68152">
        <ele>49.342</ele>
        <time>2020-05-14T15:55:19Z</time>
      </trkpt>
      <trkpt lat="43.2529" lon="-1.68151">
        <ele>49.459</ele>
        <time>2020-05-14T15:55:39Z</time>
      </trkpt>
      <trkpt lat="43.25287" lon="-1.6815">
        <ele>49.491</ele>
        <time>2020-05-14T15:55:59Z</time>
      </trkpt>
      <trkpt lat="43.25284" lon="-1.68149">
        <ele>50.395</ele>
        <time>2020-05-14T15:56:19Z</time>
      </trkpt>
      <trkpt lat="43.25221" lon="-1.68131">
        <ele>51.049</ele>
        <time>2020-05-14T15:56:39Z</time>
      </trkpt>
      <trkpt lat="43.25216" lon="-1.68129">
        <ele>49.723</ele>
        <time>2020-05-14T15:56:59Z</time>
      </trkpt>
      <trkpt lat="43.25212" lon="-1.68127">
        <ele>50.308</ele>
        <time>2020-05-14T15:57:19Z</time>
      </trkpt>
      <trkpt lat="43.25191" lon="-1.68118">
        <ele>49.993</ele>
        <time>2020-05-14T15:57:39Z</time>
      </trkpt>
      <trkpt lat="43.25171" lon="-1.68109">
        <ele>50.118</ele>
        <time>2020-05-14T15:57:59Z</time>
      </trkpt>
      <trkpt lat="43.25167" lon="-1.68107">
        <ele>51.012</ele>
        <time>2020-05-14T15:58:19Z</time>
      </trkpt>
      <trkpt lat="43.25164" lon="-1.68105">
        <ele>50.27</ele>
        <time>2020-05-14T15:58:39Z</time>
      </trkpt>
      <trkpt lat="43.2516" lon="-1.68103">
        <ele>50.245</ele>
        <time>2020-05-14T15:58:59Z</time>
      </trkpt>
      <trkpt lat="43.25157" lon="-1.68101">
        <ele>51.165</ele>
        <time>2020-05-14T15:59:19Z</time>
      </trkpt>
      <trkpt lat="43.25149" lon="-1.68094">
        <ele>50.122</ele>
        <time>2020-05-14T15:59:39Z</time>
      </trkpt>
      <trkpt lat="43.25138" lon="-1.68082">
        <ele>50.554</ele>
        <time>2020-05-14T15:59:59Z</time>
      </trkpt>
      <trkpt lat="43.25134" lon="-1.68077">
        <ele>50.557</ele>
        <time>2020-05-14T16:00:19Z</time>
      </trkpt>
      <trkpt lat="43.25125" lon="-1.68065">
        <ele>50.2</ele>
        <time>2020-05-14T16:00:39Z</time>
      </trkpt>
      <trkpt lat="43.25122" lon="-1.6806">
        <ele>51.62</ele>
        <time>2020-05-14T16:00:59Z</time>
      </trkpt>
      <trkpt lat="43.25119" lon="-1.68054">
        <ele>51.408</ele>
        <time>2020-05-14T16:01:19Z</time>
      </trkpt>
      <trkpt lat="43.2511" lon="-1.68037">
        <ele>50.029</ele>
        <time>2020-05-14T16:01:39Z</time>
      </trkpt>
      <trkpt lat="43.25103" lon="-1.68016">
        <ele>50.374</ele>
        <time>2020-05-14T16:01:59Z</time>
      </trkpt>
      <trkpt lat="43.25101" lon="-1.68006">
        <ele>50.788</ele>
        <time>2020-05-14T16:02:19Z</time>
      </trkpt>
      <trkpt lat="43.25098" lon="-1.67996">
        <ele>50.236</ele>
        <time>2020-05-14T16:02:39Z</time>
      </trkpt>
      <trkpt lat="43.25094" lon="-1.67972">
        <ele>50.191</ele>
        <time>2020-05-14T16:02:59Z</time>
      </trkpt>
      <trkpt lat="43.25092" lon="-1.67955">
        <ele>50.471</ele>
        <time>2020-05-14T16:03:19Z</time>
      </trkpt>
      <trkpt lat="43.25089" lon="-1.67934">
        <ele>50.178</ele>
        <time>2020-05-14T16:03:39Z</time>
      </trkpt>
      <trkpt lat="43.25082" lon="-1.67887">
        <ele>49.74</ele>
        <time>2020-05-14T16:03:59Z</time>
      </trkpt>
      <trkpt lat="43.25081" lon="-1.6788">
        <ele>49.973</ele>
        <time>2020-05-14T16:04:19Z</time>
      </trkpt>
      <trkpt lat="43.2508" lon="-1.67879">
        <ele>49.985</ele>
        <time>2020-05-14T16:04:39Z</time>
      </trkpt>
      <trkpt lat="43.25079" lon="-1.67872">
        <ele>49.913</ele>
        <time>2020-05-14T16:04:59Z</time>
      </trkpt>
      <trkpt lat="43.25077" lon="-1.6786">
        <ele>50.108</ele>
        <time>2020-05-14T16:05:19Z</time>
      </trkpt>
      <trkpt lat="43.25075" lon="-1.67849">
        <ele>50.131</ele>
        <time>2020-05-14T16:05:39Z</time>
      </trkpt>
      <trkpt lat="43.25074" lon="-1.67837">
        <ele>50.226</ele>
        <time>2020-05-14T16:05:59Z</time>
      </trkpt>
      <trkpt lat="43.25071" lon="-1.67814">
        <ele>50.21</ele>
        <time>2020-05-14T16:06:19Z</time>
      </trkpt>
      <trkpt lat="43.25069" lon="-1.67802">
        <ele>50.258</ele>
        <time>2020-05-14T16:06:39Z</time>
      </trkpt>
      <trkpt lat="43.25067" lon="-1.6779">
        <ele>50.363</ele>
        <time>2020-05-14T16:06:59Z</time>
      </trkpt>
      <trkpt lat="43.25065" lon="-1.67778">
        <ele>50.513</ele>
        <time>2020-05-14T16:07:19Z</time>
      </trkpt>
      <trkpt lat="43.25065" lon="-1.67775">
        <ele>50.42</ele>
        <time>2020-05-14T16:07:39Z</time>
      </trkpt>
      <trkpt lat="43.25064" lon="-1.67772">
        <ele>50.432</ele>
        <time>2020-05-14T16:07:59Z</time>
      </trkpt>
      <trkpt lat="43.25063" lon="-1.67763">
        <ele>50.317</ele>
        <time>2020-05-14T16:08:19Z</time>
      </trkpt>
      <trkpt lat="43.25062" lon="-1.67754">
        <ele>50.287</ele>
        <time>2020-05-14T16:08:39Z</time>
      </trkpt>
      <trkpt lat="43.25059" lon="-1.67737">
        <ele>50.215</ele>
        <time>2020-05-14T16:08:59Z</time>
      </trkpt>
      <trkpt lat="43.25057" lon="-1.67719">
        <ele>50.308</ele>
        <time>2020-05-14T16:09:19Z</time>
      </trkpt>
      <trkpt lat="43.25054" lon="-1.67701">
        <ele>50.165</ele>
        <time>2020-05-14T16:09:39Z</time>
      </trkpt>
      <trkpt lat="43.25052" lon="-1.67684">
        <ele>50.34</ele>
        <time>2020-05-14T16:09:59Z</time>
      </trkpt>
      <trkpt lat="43.25048" lon="-1.67662">
        <ele>50.234</ele>
        <time>2020-05-14T16:10:19Z</time>
      </trkpt>
      <trkpt lat="43.25044" lon="-1.67633">
        <ele>50.492</ele>
        <time>2020-05-14T16:10:39Z</time>
      </trkpt>
      <trkpt lat="43.25042" lon="-1.67612">
        <ele>50.427</ele>
        <time>2020-05-14T16:10:59Z</time>
      </trkpt>
      <trkpt lat="43.25039" lon="-1.67597">
        <ele>50.327</ele>
        <time>2020-05-14T16:11:19Z</time>
      </trkpt>
      <trkpt lat="43.25035" lon="-1.67568">
        <ele>50.294</ele>
        <time>2020-05-14T16:11:39Z</time>
      </trkpt>
      <trkpt lat="43.25033" lon="-1.67555">
        <ele>49.956</ele>
        <time>2020-05-14T16:11:59Z</time>
      </trkpt>
      <trkpt lat="43.25031" lon="-1.67542">
        <ele>49.957</ele>
        <time>2020-05-14T16:12:19Z</time>
      </trkpt>
      <trkpt lat="43.25027" lon="-1.6751">
        <ele>48.9</ele>
        <time>2020-05-14T16:12:39Z</time>
      </trkpt>
      <trkpt lat="43.25025" lon="-1.67499">
        <ele>49.12</ele>
        <time>2020-05-14T16:12:59Z</time>
      </trkpt>
      <trkpt lat="43.25022" lon="-1.67479">
        <ele>49.008</ele>
        <time>2020-05-14T16:13:19Z</time>
      </trkpt>
      <trkpt lat="43.2502" lon="-1.67469">
        <ele>49.179</ele>
        <time>2020-05-14T16:13:39Z</time>
      </trkpt>
      <trkpt lat="43.2502" lon="-1.67467">
        <ele>49.184</ele>
        <time>2020-05-14T16:13:59Z</time>
      </trkpt>
      <trkpt lat="43.25019" lon="-1.67463">
        <ele>49.128</ele>
        <time>2020-05-14T16:14:19Z</time>
      </trkpt>
      <trkpt lat="43.25019" lon="-1.67454">
        <ele>49.146</ele>
        <time>2020-05-14T16:14:39Z</time>
      </trkpt>
      <trkpt lat="43.25019" lon="-1.67447">
        <ele>48.981</ele>
        <time>2020-05-14T16:14:59Z</time>
      </trkpt>
      <trkpt lat="43.25018" lon="-1.67438">
        <ele>50.031</ele>
        <time>2020-05-14T16:15:19Z</time>
      </trkpt>
      <trkpt lat="43.25017" lon="-1.67431">
        <ele>47.448</ele>
        <time>2020-05-14T16:15:39Z</time>
      </trkpt>
      <trkpt lat="43.25018" lon="-1.67427">
        <ele>53.67</ele>
        <time>2020-05-14T16:15:59Z</time>
      </trkpt>
      <trkpt lat="43.25019" lon="-1.67424">
        <ele>52.522</ele>
        <time>2020-05-14T16:16:19Z</time>
      </trkpt>
      <trkpt lat="43.25022" lon="-1.67415">
        <ele>53.362</ele>
        <time>2020-05-14T16:16:39Z</time>
      </trkpt>
      <trkpt lat="43.25024" lon="-1.67406">
        <ele>47.108</ele>
        <time>2020-05-14T16:16:59Z</time>
      </trkpt>
      <trkpt lat="43.25024" lon="-1.67391">
        <ele>47.308</ele>
        <time>2020-05-14T16:17:19Z</time>
      </trkpt>
      <trkpt lat="43.25014" lon="-1.67377">
        <ele>47.836</ele>
        <time>2020-05-14T16:17:39Z</time>
      </trkpt>
      <trkpt lat="43.25004" lon="-1.67365">
        <ele>48.741</ele>
        <time>2020-05-14T16:17:59Z</time>
      </trkpt>
      <trkpt lat="43.24989" lon="-1.67348">
        <ele>51.275</ele>
        <time>2020-05-14T16:18:19Z</time>
      </trkpt>
      <trkpt lat="43.2498" lon="-1.67335">
        <ele>49.533</ele>
        <time>2020-05-14T16:18:39Z</time>
      </trkpt>
      <trkpt lat="43.24967" lon="-1.67318">
        <ele>49.188</ele>
        <time>2020-05-14T16:18:59Z</time>
      </trkpt>
      <trkpt lat="43.24942" lon="-1.67285">
        <ele>50.138</ele>
        <time>2020-05-14T16:19:19Z</time>
      </trkpt>
      <trkpt lat="43.24925" lon="-1.67265">
        <ele>50.615</ele>
        <time>2020-05-14T16:19:39Z</time>
      </trkpt>
      <trkpt lat="43.24897" lon="-1.67234">
        <ele>52.087</ele>
        <time>2020-05-14T16:19:59Z</time>
      </trkpt>
      <trkpt lat="43.24884" lon="-1.67221">
        <ele>52.752</ele>
        <time>2020-05-14T16:20:19Z</time>
      </trkpt>
      <trkpt lat="43.24879" lon="-1.67217">
        <ele>52.253</ele>
        <time>2020-05-14T16:20:39Z</time>
      </trkpt>
      <trkpt lat="43.2487" lon="-1.67204">
        <ele>52.008</ele>
        <time>2020-05-14T16:20:59Z</time>
      </trkpt>
      <trkpt lat="43.24856" lon="-1.6719">
        <ele>51.208</ele>
        <time>2020-05-14T16:21:19Z</time>
      </trkpt>
      <trkpt lat="43.24851" lon="-1.67184">
        <ele>50.979</ele>
        <time>2020-05-14T16:21:39Z</time>
      </trkpt>
      <trkpt lat="43.24846" lon="-1.67177">
        <ele>50.754</ele>
        <time>2020-05-14T16:21:59Z</time>
      </trkpt>
      <trkpt lat="43.24844" lon="-1.67174">
        <ele>50.728</ele>
        <time>2020-05-14T16:22:19Z</time>
      </trkpt>
      <trkpt lat="43.24841" lon="-1.67172">
        <ele>50.746</ele>
        <time>2020-05-14T16:22:39Z</time>
      </trkpt>
      <trkpt lat="43.24839" lon="-1.6717">
        <ele>50.591</ele>
        <time>2020-05-14T16:22:59Z</time>
      </trkpt>
      <trkpt lat="43.24836" lon="-1.67168">
        <ele>50.511</ele>
        <time>2020-05-14T16:23:19Z</time>
      </trkpt>
      <trkpt lat="43.24826" lon="-1.67163">
        <ele>50.438</ele>
        <time>2020-05-14T16:23:39Z</time>
      </trkpt>
      <trkpt lat="43.24822" lon="-1.6716">
        <ele>51.94</ele>
        <time>2020-05-14T16:23:59Z</time>
      </trkpt>
      <trkpt lat="43.24817" lon="-1.67158">
        <ele>50.486</ele>
        <time>2020-05-14T16:24:19Z</time>
      </trkpt>
      <trkpt lat="43.24812" lon="-1.67154">
        <ele>52.66</ele>
        <time>2020-05-14T16:24:39Z</time>
      </trkpt>
      <trkpt lat="43.24809" lon="-1.67152">
        <ele>50.426</ele>
        <time>2020-05-14T16:24:59Z</time>
      </trkpt>
      <trkpt lat="43.24806" lon="-1.6715">
        <ele>52.508</ele>
        <time>2020-05-14T16:25:19Z</time>
      </trkpt>
      <trkpt lat="43.24786" lon="-1.67135">
        <ele>50.332</ele>
        <time>2020-05-14T16:25:39Z</time>
      </trkpt>
      <trkpt lat="43.24759" lon="-1.67111">
        <ele>50.487</ele>
        <time>2020-05-14T16:25:59Z</time>
      </trkpt>
      <trkpt lat="43.24746" lon="-1.67102">
        <ele>50.891</ele>
        <time>2020-05-14T16:26:19Z</time>
      </trkpt>
      <trkpt lat="43.24733" lon="-1.67093">
        <ele>50.669</ele>
        <time>2020-05-14T16:26:39Z</time>
      </trkpt>
      <trkpt lat="43.24712" lon="-1.67076">
        <ele>51.034</ele>
        <time>2020-05-14T16:26:59Z</time>
      </trkpt>
      <trkpt lat="43.2467" lon="-1.67044">
        <ele>51.354</ele>
        <time>2020-05-14T16:27:19Z</time>
      </trkpt>
      <trkpt lat="43.2466" lon="-1.67037">
        <ele>51.581</ele>
        <time>2020-05-14T16:27:39Z</time>
      </trkpt>
      <trkpt lat="43.24626" lon="-1.67011">
        <ele>51.553</ele>
        <time>2020-05-14T16:27:59Z</time>
      </trkpt>
      <trkpt lat="43.24618" lon="-1.67005">
        <ele>51.756</ele>
        <time>2020-05-14T16:28:19Z</time>
      </trkpt>
      <trkpt lat="43.2461" lon="-1.67">
        <ele>51.659</ele>
        <time>2020-05-14T16:28:39Z</time>
      </trkpt>
      <trkpt lat="43.24604" lon="-1.66996">
        <ele>51.714</ele>
        <time>2020-05-14T16:28:59Z</time>
      </trkpt>
      <trkpt lat="43.24598" lon="-1.66991">
        <ele>52.108</ele>
        <time>2020-05-14T16:29:19Z</time>
      </trkpt>
      <trkpt lat="43.24587" lon="-1.66985">
        <ele>53.079</ele>
        <time>2020-05-14T16:29:39Z</time>
      </trkpt>
      <trkpt lat="43.24583" lon="-1.66982">
        <ele>53.784</ele>
        <time>2020-05-14T16:29:59Z</time>
      </trkpt>
      <trkpt lat="43.2458" lon="-1.6698">
        <ele>53.758</ele>
        <time>2020-05-14T16:30:19Z</time>
      </trkpt>
      <trkpt lat="43.24576" lon="-1.66977">
        <ele>53.576</ele>
        <time>2020-05-14T16:30:39Z</time>
      </trkpt>
      <trkpt lat="43.24561" lon="-1.66968">
        <ele>52.671</ele>
        <time>2020-05-14T16:30:59Z</time>
      </trkpt>
      <trkpt lat="43.24557" lon="-1.66967">
        <ele>52.421</ele>
        <time>2020-05-14T16:31:19Z</time>
      </trkpt>
      <trkpt lat="43.24552" lon="-1.66967">
        <ele>52.168</ele>
        <time>2020-05-14T16:31:39Z</time>
      </trkpt>
      <trkpt lat="43.24542" lon="-1.66971">
        <ele>51.78</ele>
        <time>2020-05-14T16:31:59Z</time>
      </trkpt>
      <trkpt lat="43.24539" lon="-1.66972">
        <ele>51.766</ele>
        <time>2020-05-14T16:32:19Z</time>
      </trkpt>
      <trkpt lat="43.24536" lon="-1.66974">
        <ele>51.729</ele>
        <time>2020-05-14T16:32:39Z</time>
      </trkpt>
      <trkpt lat="43.24531" lon="-1.66976">
        <ele>51.521</ele>
        <time>2020-05-14T16:32:59Z</time>
      </trkpt>
      <trkpt lat="43.24521" lon="-1.66981">
        <ele>51.508</ele>
        <time>2020-05-14T16:33:19Z</time>
      </trkpt>
      <trkpt lat="43.2452" lon="-1.66981">
        <ele>52.36</ele>
        <time>2020-05-14T16:33:39Z</time>
      </trkpt>
      <trkpt lat="43.24516" lon="-1.66983">
        <ele>51.715</ele>
        <time>2020-05-14T16:33:59Z</time>
      </trkpt>
      <trkpt lat="43.24511" lon="-1.66985">
        <ele>51.749</ele>
        <time>2020-05-14T16:34:19Z</time>
      </trkpt>
      <trkpt lat="43.2451" lon="-1.66986">
        <ele>51.777</ele>
        <time>2020-05-14T16:34:39Z</time>
      </trkpt>
      <trkpt lat="43.24505" lon="-1.66988">
        <ele>51.582</ele>
        <time>2020-05-14T16:34:59Z</time>
      </trkpt>
      <trkpt lat="43.24503" lon="-1.66989">
        <ele>51.522</ele>
        <time>2020-05-14T16:35:19Z</time>
      </trkpt>
      <trkpt lat="43.245" lon="-1.6699">
        <ele>51.559</ele>
        <time>2020-05-14T16:35:39Z</time>
      </trkpt>
      <trkpt lat="43.24493" lon="-1.66994">
        <ele>51.681</ele>
        <time>2020-05-14T16:35:59Z</time>
      </trkpt>
      <trkpt lat="43.24487" lon="-1.66997">
        <ele>51.533</ele>
        <time>2020-05-14T16:36:19Z</time>
      </trkpt>
      <trkpt lat="43.24484" lon="-1.66999">
        <ele>51.523</ele>
        <time>2020-05-14T16:36:39Z</time>
      </trkpt>
      <trkpt lat="43.24481" lon="-1.67002">
        <ele>51.415</ele>
        <time>2020-05-14T16:36:59Z</time>
      </trkpt>
      <trkpt lat="43.24479" lon="-1.67003">
        <ele>51.408</ele>
        <time>2020-05-14T16:37:19Z</time>
      </trkpt>
      <trkpt lat="43.24477" lon="-1.67005">
        <ele>51.497</ele>
        <time>2020-05-14T16:37:39Z</time>
      </trkpt>
      <trkpt lat="43.24465" lon="-1.6702">
        <ele>52.392</ele>
        <time>2020-05-14T16:37:59Z</time>
      </trkpt>
      <trkpt lat="43.24455" lon="-1.67033">
        <ele>54.046</ele>
        <time>2020-05-14T16:38:19Z</time>
      </trkpt>
      <trkpt lat="43.24447" lon="-1.67044">
        <ele>53.134</ele>
        <time>2020-05-14T16:38:39Z</time>
      </trkpt>
      <trkpt lat="43.24444" lon="-1.67048">
        <ele>51.739</ele>
        <time>2020-05-14T16:38:59Z</time>
      </trkpt>
      <trkpt lat="43.24436" lon="-1.67059">
        <ele>52.819</ele>
        <time>2020-05-14T16:39:19Z</time>
      </trkpt>
      <trkpt lat="43.24429" lon="-1.6707">
        <ele>54.656</ele>
        <time>2020-05-14T16:39:39Z</time>
      </trkpt>
      <trkpt lat="43.24415" lon="-1.6709">
        <ele>52.148</ele>
        <time>2020-05-14T16:39:59Z</time>
      </trkpt>
      <trkpt lat="43.244" lon="-1.67111">
        <ele>52.351</ele>
        <time>2020-05-14T16:40:19Z</time>
      </trkpt>
      <trkpt lat="43.24392" lon="-1.67123">
        <ele>52.101</ele>
        <time>2020-05-14T16:40:39Z</time>
      </trkpt>
      <trkpt lat="43.24383" lon="-1.67136">
        <ele>52.211</ele>
        <time>2020-05-14T16:40:59Z</time>
      </trkpt>
      <trkpt lat="43.24373" lon="-1.67151">
        <ele>52.308</ele>
        <time>2020-05-14T16:41:19Z</time>
      </trkpt>
      <trkpt lat="43.2436" lon="-1.6717">
        <ele>52.019</ele>
        <time>2020-05-14T16:41:39Z</time>
      </trkpt>
      <trkpt lat="43.24356" lon="-1.67174">
        <ele>52.494</ele>
        <time>2020-05-14T16:41:59Z</time>
      </trkpt>
      <trkpt lat="43.24328" lon="-1.67217">
        <ele>52.698</ele>
        <time>2020-05-14T16:42:19Z</time>
      </trkpt>
      <trkpt lat="43.24311" lon="-1.6724">
        <ele>52.476</ele>
        <time>2020-05-14T16:42:39Z</time>
      </trkpt>
      <trkpt lat="43.24303" lon="-1.67252">
        <ele>53.041</ele>
        <time>2020-05-14T16:42:59Z</time>
      </trkpt>
      <trkpt lat="43.24296" lon="-1.67263">
        <ele>52.761</ele>
        <time>2020-05-14T16:43:19Z</time>
      </trkpt>
      <trkpt lat="43.2428" lon="-1.67285">
        <ele>52.998</ele>
        <time>2020-05-14T16:43:39Z</time>
      </trkpt>
      <trkpt lat="43.24271" lon="-1.67298">
        <ele>53.24</ele>
        <time>2020-05-14T16:43:59Z</time>
      </trkpt>
      <trkpt lat="43.24265" lon="-1.67306">
        <ele>53.626</ele>
        <time>2020-05-14T16:44:19Z</time>
      </trkpt>
      <trkpt lat="43.24259" lon="-1.67315">
        <ele>53.747</ele>
        <time>2020-05-14T16:44:39Z</time>
      </trkpt>
      <trkpt lat="43.24257" lon="-1.67317">
        <ele>53.711</ele>
        <time>2020-05-14T16:44:59Z</time>
      </trkpt>
      <trkpt lat="43.24254" lon="-1.67321">
        <ele>53.808</ele>
        <time>2020-05-14T16:45:19Z</time>
      </trkpt>
      <trkpt lat="43.2425" lon="-1.67326">
        <ele>54.066</ele>
        <time>2020-05-14T16:45:39Z</time>
      </trkpt>
      <trkpt lat="43.24245" lon="-1.67332">
        <ele>55.681</ele>
        <time>2020-05-14T16:45:59Z</time>
      </trkpt>
      <trkpt lat="43.2424" lon="-1.67339">
        <ele>55.445</ele>
        <time>2020-05-14T16:46:19Z</time>
      </trkpt>
      <trkpt lat="43.24231" lon="-1.67354">
        <ele>54.323</ele>
        <time>2020-05-14T16:46:39Z</time>
      </trkpt>
      <trkpt lat="43.24224" lon="-1.67366">
        <ele>55.168</ele>
        <time>2020-05-14T16:46:59Z</time>
      </trkpt>
      <trkpt lat="43.24217" lon="-1.67379">
        <ele>56.678</ele>
        <time>2020-05-14T16:47:19Z</time>
      </trkpt>
      <trkpt lat="43.24206" lon="-1.67395">
        <ele>55.035</ele>
        <time>2020-05-14T16:47:39Z</time>
      </trkpt>
      <trkpt lat="43.24189" lon="-1.67427">
        <ele>54.857</ele>
        <time>2020-05-14T16:47:59Z</time>
      </trkpt>
      <trkpt lat="43.24187" lon="-1.67432">
        <ele>54.846</ele>
        <time>2020-05-14T16:48:19Z</time>
      </trkpt>
      <trkpt lat="43.24184" lon="-1.67436">
        <ele>55.088</ele>
        <time>2020-05-14T16:48:39Z</time>
      </trkpt>
      <trkpt lat="43.24175" lon="-1.67457">
        <ele>55.316</ele>
        <time>2020-05-14T16:48:59Z</time>
      </trkpt>
      <trkpt lat="43.2417" lon="-1.67468">
        <ele>54.708</ele>
        <time>2020-05-14T16:49:19Z</time>
      </trkpt>
      <trkpt lat="43.24165" lon="-1.67478">
        <ele>55.178</ele>
        <time>2020-05-14T16:49:39Z</time>
      </trkpt>
      <trkpt lat="43.24161" lon="-1.67488">
        <ele>55.583</ele>
        <time>2020-05-14T16:49:59Z</time>
      </trkpt>
      <trkpt lat="43.24158" lon="-1.67493">
        <ele>55.527</ele>
        <time>2020-05-14T16:50:19Z</time>
      </trkpt>
      <trkpt lat="43.24141" lon="-1.67517">
        <ele>54.535</ele>
        <time>2020-05-14T16:50:39Z</time>
      </trkpt>
      <trkpt lat="43.24139" lon="-1.67521">
        <ele>54.72</ele>
        <time>2020-05-14T16:50:59Z</time>
      </trkpt>
      <trkpt lat="43.24133" lon="-1.67526">
        <ele>54.59</ele>
        <time>2020-05-14T16:51:19Z</time>
      </trkpt>
      <trkpt lat="43.2412" lon="-1.67536">
        <ele>54.517</ele>
        <time>2020-05-14T16:51:39Z</time>
      </trkpt>
      <trkpt lat="43.24117" lon="-1.67539">
        <ele>54.599</ele>
        <time>2020-05-14T16:51:59Z</time>
      </trkpt>
      <trkpt lat="43.24113" lon="-1.67541">
        <ele>54.524</ele>
        <time>2020-05-14T16:52:19Z</time>
      </trkpt>
      <trkpt lat="43.24106" lon="-1.67544">
        <ele>54.504</ele>
        <time>2020-05-14T16:52:39Z</time>
      </trkpt>
      <trkpt lat="43.241" lon="-1.67548">
        <ele>54.514</ele>
        <time>2020-05-14T16:52:59Z</time>
      </trkpt>
      <trkpt lat="43.24093" lon="-1.6755">
        <ele>54.508</ele>
        <time>2020-05-14T16:53:19Z</time>
      </trkpt>
      <trkpt lat="43.24087" lon="-1.67553">
        <ele>54.536</ele>
        <time>2020-05-14T16:53:39Z</time>
      </trkpt>
      <trkpt lat="43.24076" lon="-1.67556">
        <ele>54.581</ele>
        <time>2020-05-14T16:53:59Z</time>
      </trkpt>
      <trkpt lat="43.24072" lon="-1.67556">
        <ele>54.455</ele>
        <time>2020-05-14T16:54:19Z</time>
      </trkpt>
      <trkpt lat="43.24067" lon="-1.67557">
        <ele>54.533</ele>
        <time>2020-05-14T16:54:39Z</time>
      </trkpt>
      <trkpt lat="43.24063" lon="-1.67557">
        <ele>54.478</ele>
        <time>2020-05-14T16:54:59Z</time>
      </trkpt>
      <trkpt lat="43.24059" lon="-1.67557">
        <ele>54.598</ele>
        <time>2020-05-14T16:55:19Z</time>
      </trkpt>
      <trkpt lat="43.24051" lon="-1.67556">
        <ele>54.565</ele>
        <time>2020-05-14T16:55:39Z</time>
      </trkpt>
      <trkpt lat="43.24044" lon="-1.67556">
        <ele>54.647</ele>
        <time>2020-05-14T16:55:59Z</time>
      </trkpt>
      <trkpt lat="43.24037" lon="-1.67555">
        <ele>54.727</ele>
        <time>2020-05-14T16:56:19Z</time>
      </trkpt>
      <trkpt lat="43.2403" lon="-1.67554">
        <ele>54.868</ele>
        <time>2020-05-14T16:56:39Z</time>
      </trkpt>
      <trkpt lat="43.24028" lon="-1.67553">
        <ele>54.814</ele>
        <time>2020-05-14T16:56:59Z</time>
      </trkpt>
      <trkpt lat="43.24027" lon="-1.67553">
        <ele>54.908</ele>
        <time>2020-05-14T16:57:19Z</time>
      </trkpt>
      <trkpt lat="43.24024" lon="-1.67552">
        <ele>54.996</ele>
        <time>2020-05-14T16:57:39Z</time>
      </trkpt>
      <trkpt lat="43.24023" lon="-1.67552">
        <ele>54.911</ele>
        <time>2020-05-14T16:57:59Z</time>
      </trkpt>
      <trkpt lat="43.24018" lon="-1.6755">
        <ele>55.335</ele>
        <time>2020-05-14T16:58:19Z</time>
      </trkpt>
      <trkpt lat="43.24016" lon="-1.67549">
        <ele>55.363</ele>
        <time>2020-05-14T16:58:39Z</time>
      </trkpt>
      <trkpt lat="43.24012" lon="-1.67547">
        <ele>55.848</ele>
        <time>2020-05-14T16:58:59Z</time>
      </trkpt>
      <trkpt lat="43.24007" lon="-1.67544">
        <ele>55.068</ele>
        <time>2020-05-14T16:59:19Z</time>
      </trkpt>
      <trkpt lat="43.24002" lon="-1.67542">
        <ele>56.395</ele>
        <time>2020-05-14T16:59:39Z</time>
      </trkpt>
      <trkpt lat="43.23998" lon="-1.67539">
        <ele>55.947</ele>
        <time>2020-05-14T16:59:59Z</time>
      </trkpt>
      <trkpt lat="43.23993" lon="-1.67536">
        <ele>57.793</ele>
        <time>2020-05-14T17:00:19Z</time>
      </trkpt>
      <trkpt lat="43.23991" lon="-1.67534">
        <ele>55.365</ele>
        <time>2020-05-14T17:00:39Z</time>
      </trkpt>
      <trkpt lat="43.23989" lon="-1.67533">
        <ele>55.321</ele>
        <time>2020-05-14T17:00:59Z</time>
      </trkpt>
      <trkpt lat="43.23985" lon="-1.67529">
        <ele>59.408</ele>
        <time>2020-05-14T17:01:19Z</time>
      </trkpt>
      <trkpt lat="43.23981" lon="-1.67525">
        <ele>58.623</ele>
        <time>2020-05-14T17:01:39Z</time>
      </trkpt>
      <trkpt lat="43.23969" lon="-1.6751">
        <ele>61.998</ele>
        <time>2020-05-14T17:01:59Z</time>
      </trkpt>
      <trkpt lat="43.23962" lon="-1.67502">
        <ele>64.492</ele>
        <time>2020-05-14T17:02:19Z</time>
      </trkpt>
      <trkpt lat="43.2395" lon="-1.67495">
        <ele>63.44</ele>
        <time>2020-05-14T17:02:39Z</time>
      </trkpt>
      <trkpt lat="43.23945" lon="-1.67493">
        <ele>64.585</ele>
        <time>2020-05-14T17:02:59Z</time>
      </trkpt>
      <trkpt lat="43.23944" lon="-1.67492">
        <ele>64.695</ele>
        <time>2020-05-14T17:03:19Z</time>
      </trkpt>
      <trkpt lat="43.23942" lon="-1.67491">
        <ele>65.142</ele>
        <time>2020-05-14T17:03:39Z</time>
      </trkpt>
      <trkpt lat="43.23931" lon="-1.67489">
        <ele>71.774</ele>
        <time>2020-05-14T17:03:59Z</time>
      </trkpt>
      <trkpt lat="43.23927" lon="-1.67488">
        <ele>74.651</ele>
        <time>2020-05-14T17:04:19Z</time>
      </trkpt>
      <trkpt lat="43.23918" lon="-1.67486">
        <ele>78.401</ele>
        <time>2020-05-14T17:04:39Z</time>
      </trkpt>
      <trkpt lat="43.23917" lon="-1.67486">
        <ele>78.411</ele>
        <time>2020-05-14T17:04:59Z</time>
      </trkpt>
      <trkpt lat="43.23916" lon="-1.67486">
        <ele>78.408</ele>
        <time>2020-05-14T17:05:19Z</time>
      </trkpt>
      <trkpt lat="43.2391" lon="-1.67485">
        <ele>82.259</ele>
        <time>2020-05-14T17:05:39Z</time>
      </trkpt>
      <trkpt lat="43.23898" lon="-1.67483">
        <ele>86.284</ele>
        <time>2020-05-14T17:05:59Z</time>
      </trkpt>
      <trkpt lat="43.23879" lon="-1.6748">
        <ele>93.928</ele>
        <time>2020-05-14T17:06:19Z</time>
      </trkpt>
      <trkpt lat="43.23855" lon="-1.67476">
        <ele>89.446</ele>
        <time>2020-05-14T17:06:39Z</time>
      </trkpt>
      <trkpt lat="43.23836" lon="-1.67473">
        <ele>78.361</ele>
        <time>2020-05-14T17:06:59Z</time>
      </trkpt>
      <trkpt lat="43.23826" lon="-1.6747">
        <ele>69.621</ele>
        <time>2020-05-14T17:07:19Z</time>
      </trkpt>
      <trkpt lat="43.23817" lon="-1.67467">
        <ele>68.298</ele>
        <time>2020-05-14T17:07:39Z</time>
      </trkpt>
      <trkpt lat="43.23814" lon="-1.67467">
        <ele>68.48</ele>
        <time>2020-05-14T17:07:59Z</time>
      </trkpt>
      <trkpt lat="43.23808" lon="-1.67467">
        <ele>68.658</ele>
        <time>2020-05-14T17:08:19Z</time>
      </trkpt>
      <trkpt lat="43.23798" lon="-1.67467">
        <ele>65.152</ele>
        <time>2020-05-14T17:08:39Z</time>
      </trkpt>
      <trkpt lat="43.2379" lon="-1.67473">
        <ele>66.417</ele>
        <time>2020-05-14T17:08:59Z</time>
      </trkpt>
      <trkpt lat="43.23784" lon="-1.67478">
        <ele>55.108</ele>
        <time>2020-05-14T17:09:19Z</time>
      </trkpt>
      <trkpt lat="43.23781" lon="-1.67482">
        <ele>55.149</ele>
        <time>2020-05-14T17:09:39Z</time>
      </trkpt>
      <trkpt lat="43.23775" lon="-1.67491">
        <ele>62.994</ele>
        <time>2020-05-14T17:09:59Z</time>
      </trkpt>
      <trkpt lat="43.23772" lon="-1.67496">
        <ele>62.998</ele>
        <time>2020-05-14T17:10:19Z</time>
      </trkpt>
      <trkpt lat="43.23769" lon="-1.675">
        <ele>55.226</ele>
        <time>2020-05-14T17:10:39Z</time>
      </trkpt>
      <trkpt lat="43.23757" lon="-1.67515">
        <ele>67.921</ele>
        <time>2020-05-14T17:10:59Z</time>
      </trkpt>
      <trkpt lat="43.23743" lon="-1.67531">
        <ele>55.251</ele>
        <time>2020-05-14T17:11:19Z</time>
      </trkpt>
      <trkpt lat="43.23735" lon="-1.67542">
        <ele>55.438</ele>
        <time>2020-05-14T17:11:39Z</time>
      </trkpt>
      <trkpt lat="43.23729" lon="-1.67549">
        <ele>55.53</ele>
        <time>2020-05-14T17:11:59Z</time>
      </trkpt>
      <trkpt lat="43.23726" lon="-1.67553">
        <ele>55.354</ele>
        <time>2020-05-14T17:12:19Z</time>
      </trkpt>
      <trkpt lat="43.23723" lon="-1.67557">
        <ele>55.356</ele>
        <time>2020-05-14T17:12:39Z</time>
      </trkpt>
      <trkpt lat="43.23714" lon="-1.67569">
        <ele>58.111</ele>
        <time>2020-05-14T17:12:59Z</time>
      </trkpt>
      <trkpt lat="43.23706" lon="-1.67581">
        <ele>59.508</ele>
        <time>2020-05-14T17:13:19Z</time>
      </trkpt>
      <trkpt lat="43.23691" lon="-1.67603">
        <ele>58.569</ele>
        <time>2020-05-14T17:13:39Z</time>
      </trkpt>
      <trkpt lat="43.23676" lon="-1.67627">
        <ele>56.414</ele>
        <time>2020-05-14T17:13:59Z</time>
      </trkpt>
      <trkpt lat="43.23662" lon="-1.67646">
        <ele>56.788</ele>
        <time>2020-05-14T17:14:19Z</time>
      </trkpt>
      <trkpt lat="43.23658" lon="-1.67649">
        <ele>58.556</ele>
        <time>2020-05-14T17:14:39Z</time>
      </trkpt>
      <trkpt lat="43.23655" lon="-1.67653">
        <ele>59.831</ele>
        <time>2020-05-14T17:14:59Z</time>
      </trkpt>
      <trkpt lat="43.2365" lon="-1.67659">
        <ele>56.851</ele>
        <time>2020-05-14T17:15:19Z</time>
      </trkpt>
      <trkpt lat="43.23637" lon="-1.6767">
        <ele>56.788</ele>
        <time>2020-05-14T17:15:39Z</time>
      </trkpt>
      <trkpt lat="43.23627" lon="-1.67679">
        <ele>62.43</ele>
        <time>2020-05-14T17:15:59Z</time>
      </trkpt>
      <trkpt lat="43.23626" lon="-1.6768">
        <ele>62.464</ele>
        <time>2020-05-14T17:16:19Z</time>
      </trkpt>
      <trkpt lat="43.23624" lon="-1.67682">
        <ele>57.406</ele>
        <time>2020-05-14T17:16:39Z</time>
      </trkpt>
      <trkpt lat="43.23621" lon="-1.67683">
        <ele>57.416</ele>
        <time>2020-05-14T17:16:59Z</time>
      </trkpt>
      <trkpt lat="43.23618" lon="-1.67685">
        <ele>63.508</ele>
        <time>2020-05-14T17:17:19Z</time>
      </trkpt>
      <trkpt lat="43.23608" lon="-1.6769">
        <ele>57.31</ele>
        <time>2020-05-14T17:17:39Z</time>
      </trkpt>
      <trkpt lat="43.23598" lon="-1.67695">
        <ele>67.185</ele>
        <time>2020-05-14T17:17:59Z</time>
      </trkpt>
      <trkpt lat="43.23595" lon="-1.67697">
        <ele>60.729</ele>
        <time>2020-05-14T17:18:19Z</time>
      </trkpt>
      <trkpt lat="43.23591" lon="-1.67699">
        <ele>66.527</ele>
        <time>2020-05-14T17:18:39Z</time>
      </trkpt>
      <trkpt lat="43.23582" lon="-1.67702">
        <ele>60.382</ele>
        <time>2020-05-14T17:18:59Z</time>
      </trkpt>
      <trkpt lat="43.23579" lon="-1.67702">
        <ele>57.682</ele>
        <time>2020-05-14T17:19:19Z</time>
      </trkpt>
      <trkpt lat="43.23576" lon="-1.67703">
        <ele>57.679</ele>
        <time>2020-05-14T17:19:39Z</time>
      </trkpt>
      <trkpt lat="43.23564" lon="-1.67706">
        <ele>64.691</ele>
        <time>2020-05-14T17:19:59Z</time>
      </trkpt>
      <trkpt lat="43.23552" lon="-1.6771">
        <ele>57.819</ele>
        <time>2020-05-14T17:20:19Z</time>
      </trkpt>
      <trkpt lat="43.23548" lon="-1.6771">
        <ele>59.109</ele>
        <time>2020-05-14T17:20:39Z</time>
      </trkpt>
      <trkpt lat="43.23546" lon="-1.67711">
        <ele>59.119</ele>
        <time>2020-05-14T17:20:59Z</time>
      </trkpt>
      <trkpt lat="43.23545" lon="-1.67711">
        <ele>59.108</ele>
        <time>2020-05-14T17:21:19Z</time>
      </trkpt>
      <trkpt lat="43.23521" lon="-1.67711">
        <ele>58.275</ele>
        <time>2020-05-14T17:21:39Z</time>
      </trkpt>
      <trkpt lat="43.23494" lon="-1.6771">
        <ele>58.24</ele>
        <time>2020-05-14T17:21:59Z</time>
      </trkpt>
      <trkpt lat="43.2349" lon="-1.67708">
        <ele>58.264</ele>
        <time>2020-05-14T17:22:19Z</time>
      </trkpt>
      <trkpt lat="43.23478" lon="-1.67704">
        <ele>58.432</ele>
        <time>2020-05-14T17:22:39Z</time>
      </trkpt>
      <trkpt lat="43.23465" lon="-1.67699">
        <ele>58.617</ele>
        <time>2020-05-14T17:22:59Z</time>
      </trkpt>
      <trkpt lat="43.23461" lon="-1.67696">
        <ele>63.017</ele>
        <time>2020-05-14T17:23:19Z</time>
      </trkpt>
      <trkpt lat="43.23457" lon="-1.67694">
        <ele>63.624</ele>
        <time>2020-05-14T17:23:39Z</time>
      </trkpt>
      <trkpt lat="43.23454" lon="-1.67692">
        <ele>58.516</ele>
        <time>2020-05-14T17:23:59Z</time>
      </trkpt>
      <trkpt lat="43.23451" lon="-1.6769">
        <ele>58.773</ele>
        <time>2020-05-14T17:24:19Z</time>
      </trkpt>
      <trkpt lat="43.23448" lon="-1.67687">
        <ele>58.685</ele>
        <time>2020-05-14T17:24:39Z</time>
      </trkpt>
      <trkpt lat="43.23445" lon="-1.67685">
        <ele>58.613</ele>
        <time>2020-05-14T17:24:59Z</time>
      </trkpt>
      <trkpt lat="43.23442" lon="-1.67681">
        <ele>58.608</ele>
        <time>2020-05-14T17:25:19Z</time>
      </trkpt>
      <trkpt lat="43.23439" lon="-1.67678">
        <ele>58.811</ele>
        <time>2020-05-14T17:25:39Z</time>
      </trkpt>
      <trkpt lat="43.23429" lon="-1.67667">
        <ele>58.766</ele>
        <time>2020-05-14T17:25:59Z</time>
      </trkpt>
      <trkpt lat="43.23419" lon="-1.67656">
        <ele>59.05</ele>
        <time>2020-05-14T17:26:19Z</time>
      </trkpt>
      <trkpt lat="43.23416" lon="-1.67653">
        <ele>59.358</ele>
        <time>2020-05-14T17:26:39Z</time>
      </trkpt>
      <trkpt lat="43.23414" lon="-1.6765">
        <ele>59.143</ele>
        <time>2020-05-14T17:26:59Z</time>
      </trkpt>
      <trkpt lat="43.234" lon="-1.67634">
        <ele>59.033</ele>
        <time>2020-05-14T17:27:19Z</time>
      </trkpt>
      <trkpt lat="43.23389" lon="-1.6762">
        <ele>59.02</ele>
        <time>2020-05-14T17:27:39Z</time>
      </trkpt>
      <trkpt lat="43.23378" lon="-1.67606">
        <ele>59.132</ele>
        <time>2020-05-14T17:27:59Z</time>
      </trkpt>
      <trkpt lat="43.23367" lon="-1.67593">
        <ele>59.335</ele>
        <time>2020-05-14T17:28:19Z</time>
      </trkpt>
      <trkpt lat="43.23334" lon="-1.67555">
        <ele>59.786</ele>
        <time>2020-05-14T17:28:39Z</time>
      </trkpt>
      <trkpt lat="43.2332" lon="-1.67538">
        <ele>60.114</ele>
        <time>2020-05-14T17:28:59Z</time>
      </trkpt>
      <trkpt lat="43.23306" lon="-1.67522">
        <ele>60.008</ele>
        <time>2020-05-14T17:29:19Z</time>
      </trkpt>
      <trkpt lat="43.233" lon="-1.67516">
        <ele>60.137</ele>
        <time>2020-05-14T17:29:39Z</time>
      </trkpt>
      <trkpt lat="43.23295" lon="-1.6751">
        <ele>60.282</ele>
        <time>2020-05-14T17:29:59Z</time>
      </trkpt>
      <trkpt lat="43.23291" lon="-1.67506">
        <ele>60.346</ele>
        <time>2020-05-14T17:30:19Z</time>
      </trkpt>
      <trkpt lat="43.23287" lon="-1.67502">
        <ele>60.414</ele>
        <time>2020-05-14T17:30:39Z</time>
      </trkpt>
      <trkpt lat="43.23285" lon="-1.675">
        <ele>60.459</ele>
        <time>2020-05-14T17:30:59Z</time>
      </trkpt>
      <trkpt lat="43.23282" lon="-1.67497">
        <ele>60.449</ele>
        <time>2020-05-14T17:31:19Z</time>
      </trkpt>
      <trkpt lat="43.23279" lon="-1.67495">
        <ele>60.576</ele>
        <time>2020-05-14T17:31:39Z</time>
      </trkpt>
      <trkpt lat="43.23277" lon="-1.67493">
        <ele>60.488</ele>
        <time>2020-05-14T17:31:59Z</time>
      </trkpt>
      <trkpt lat="43.23273" lon="-1.67491">
        <ele>60.417</ele>
        <time>2020-05-14T17:32:19Z</time>
      </trkpt>
      <trkpt lat="43.23264" lon="-1.67487">
        <ele>60.487</ele>
        <time>2020-05-14T17:32:39Z</time>
      </trkpt>
      <trkpt lat="43.23253" lon="-1.67483">
        <ele>62.515</ele>
        <time>2020-05-14T17:32:59Z</time>
      </trkpt>
      <trkpt lat="43.23243" lon="-1.67481">
        <ele>60.508</ele>
        <time>2020-05-14T17:33:19Z</time>
      </trkpt>
      <trkpt lat="43.23237" lon="-1.67481">
        <ele>60.695</ele>
        <time>2020-05-14T17:33:39Z</time>
      </trkpt>
      <trkpt lat="43.23231" lon="-1.6748">
        <ele>62.09</ele>
        <time>2020-05-14T17:33:59Z</time>
      </trkpt>
      <trkpt lat="43.23229" lon="-1.6748">
        <ele>63.334</ele>
        <time>2020-05-14T17:34:19Z</time>
      </trkpt>
      <trkpt lat="43.23226" lon="-1.6748">
        <ele>62.192</ele>
        <time>2020-05-14T17:34:39Z</time>
      </trkpt>
      <trkpt lat="43.23224" lon="-1.6748">
        <ele>62.187</ele>
        <time>2020-05-14T17:34:59Z</time>
      </trkpt>
      <trkpt lat="43.23222" lon="-1.6748">
        <ele>61.357</ele>
        <time>2020-05-14T17:35:19Z</time>
      </trkpt>
      <trkpt lat="43.23217" lon="-1.67481">
        <ele>60.934</ele>
        <time>2020-05-14T17:35:39Z</time>
      </trkpt>
      <trkpt lat="43.23213" lon="-1.67482">
        <ele>60.986</ele>
        <time>2020-05-14T17:35:59Z</time>
      </trkpt>
      <trkpt lat="43.2321" lon="-1.67483">
        <ele>60.594</ele>
        <time>2020-05-14T17:36:19Z</time>
      </trkpt>
      <trkpt lat="43.23207" lon="-1.67484">
        <ele>62.857</ele>
        <time>2020-05-14T17:36:39Z</time>
      </trkpt>
      <trkpt lat="43.23202" lon="-1.67486">
        <ele>62.922</ele>
        <time>2020-05-14T17:36:59Z</time>
      </trkpt>
      <trkpt lat="43.23198" lon="-1.67488">
        <ele>61.308</ele>
        <time>2020-05-14T17:37:19Z</time>
      </trkpt>
      <trkpt lat="43.23192" lon="-1.67491">
        <ele>62.143</ele>
        <time>2020-05-14T17:37:39Z</time>
      </trkpt>
      <trkpt lat="43.23186" lon="-1.67494">
        <ele>60.618</ele>
        <time>2020-05-14T17:37:59Z</time>
      </trkpt>
      <trkpt lat="43.23182" lon="-1.67497">
        <ele>61.342</ele>
        <time>2020-05-14T17:38:19Z</time>
      </trkpt>
      <trkpt lat="43.2318" lon="-1.67499">
        <ele>60.53</ele>
        <time>2020-05-14T17:38:39Z</time>
      </trkpt>
      <trkpt lat="43.23178" lon="-1.67501">
        <ele>60.575</ele>
        <time>2020-05-14T17:38:59Z</time>
      </trkpt>
      <trkpt lat="43.23176" lon="-1.67503">
        <ele>60.585</ele>
        <time>2020-05-14T17:39:19Z</time>
      </trkpt>
      <trkpt lat="43.23173" lon="-1.67507">
        <ele>60.582</ele>
        <time>2020-05-14T17:39:39Z</time>
      </trkpt>
      <trkpt lat="43.23172" lon="-1.6751">
        <ele>60.354</ele>
        <time>2020-05-14T17:39:59Z</time>
      </trkpt>
      <trkpt lat="43.23163" lon="-1.6752">
        <ele>60.177</ele>
        <time>2020-05-14T17:40:19Z</time>
      </trkpt>
      <trkpt lat="43.23155" lon="-1.67532">
        <ele>60.561</ele>
        <time>2020-05-14T17:40:39Z</time>
      </trkpt>
      <trkpt lat="43.2315" lon="-1.67539">
        <ele>60.727</ele>
        <time>2020-05-14T17:40:59Z</time>
      </trkpt>
      <trkpt lat="43.23148" lon="-1.67546">
        <ele>60.808</ele>
        <time>2020-05-14T17:41:19Z</time>
      </trkpt>
      <trkpt lat="43.23146" lon="-1.67551">
        <ele>60.821</ele>
        <time>2020-05-14T17:41:39Z</time>
      </trkpt>
      <trkpt lat="43.23146" lon="-1.67553">
        <ele>61.096</ele>
        <time>2020-05-14T17:41:59Z</time>
      </trkpt>
      <trkpt lat="43.23141" lon="-1.67563">
        <ele>60.92</ele>
        <time>2020-05-14T17:42:19Z</time>
      </trkpt>
      <trkpt lat="43.23133" lon="-1.67578">
        <ele>61.688</ele>
        <time>2020-05-14T17:42:39Z</time>
      </trkpt>
      <trkpt lat="43.2312" lon="-1.67602">
        <ele>60.353</ele>
        <time>2020-05-14T17:42:59Z</time>
      </trkpt>
      <trkpt lat="43.23108" lon="-1.67626">
        <ele>60.643</ele>
        <time>2020-05-14T17:43:19Z</time>
      </trkpt>
      <trkpt lat="43.231" lon="-1.6765">
        <ele>60.88</ele>
        <time>2020-05-14T17:43:39Z</time>
      </trkpt>
      <trkpt lat="43.23097" lon="-1.67659">
        <ele>61.062</ele>
        <time>2020-05-14T17:43:59Z</time>
      </trkpt>
      <trkpt lat="43.23093" lon="-1.67669">
        <ele>62.763</ele>
        <time>2020-05-14T17:44:19Z</time>
      </trkpt>
      <trkpt lat="43.23086" lon="-1.6769">
        <ele>61.144</ele>
        <time>2020-05-14T17:44:39Z</time>
      </trkpt>
      <trkpt lat="43.23079" lon="-1.67711">
        <ele>61.318</ele>
        <time>2020-05-14T17:44:59Z</time>
      </trkpt>
      <trkpt lat="43.23072" lon="-1.67729">
        <ele>63.908</ele>
        <time>2020-05-14T17:45:19Z</time>
      </trkpt>
      <trkpt lat="43.23065" lon="-1.67746">
        <ele>61.57</ele>
        <time>2020-05-14T17:45:39Z</time>
      </trkpt>
      <trkpt lat="43.2306" lon="-1.67759">
        <ele>62.555</ele>
        <time>2020-05-14T17:45:59Z</time>
      </trkpt>
      <trkpt lat="43.23056" lon="-1.67771">
        <ele>62.719</ele>
        <time>2020-05-14T17:46:19Z</time>
      </trkpt>
      <trkpt lat="43.23053" lon="-1.67779">
        <ele>61.577</ele>
        <time>2020-05-14T17:46:39Z</time>
      </trkpt>
      <trkpt lat="43.2305" lon="-1.67785">
        <ele>61.772</ele>
        <time>2020-05-14T17:46:59Z</time>
      </trkpt>
      <trkpt lat="43.23048" lon="-1.67791">
        <ele>61.752</ele>
        <time>2020-05-14T17:47:19Z</time>
      </trkpt>
      <trkpt lat="43.23041" lon="-1.67803">
        <ele>65.099</ele>
        <time>2020-05-14T17:47:39Z</time>
      </trkpt>
      <trkpt lat="43.23033" lon="-1.67818">
        <ele>62.031</ele>
        <time>2020-05-14T17:47:59Z</time>
      </trkpt>
      <trkpt lat="43.2303" lon="-1.67822">
        <ele>62.157</ele>
        <time>2020-05-14T17:48:19Z</time>
      </trkpt>
      <trkpt lat="43.23027" lon="-1.67826">
        <ele>62.1</ele>
        <time>2020-05-14T17:48:39Z</time>
      </trkpt>
      <trkpt lat="43.23024" lon="-1.6783">
        <ele>63.92</ele>
        <time>2020-05-14T17:48:59Z</time>
      </trkpt>
      <trkpt lat="43.2302" lon="-1.67834">
        <ele>64.808</ele>
        <time>2020-05-14T17:49:19Z</time>
      </trkpt>
      <trkpt lat="43.23013" lon="-1.6784">
        <ele>62.719</ele>
        <time>2020-05-14T17:49:39Z</time>
      </trkpt>
      <trkpt lat="43.23005" lon="-1.67847">
        <ele>62.694</ele>
        <time>2020-05-14T17:49:59Z</time>
      </trkpt>
      <trkpt lat="43.22995" lon="-1.67854">
        <ele>63.538</ele>
        <time>2020-05-14T17:50:19Z</time>
      </trkpt>
      <trkpt lat="43.22985" lon="-1.67859">
        <ele>63.276</ele>
        <time>2020-05-14T17:50:39Z</time>
      </trkpt>
      <trkpt lat="43.22975" lon="-1.67864">
        <ele>62.621</ele>
        <time>2020-05-14T17:50:59Z</time>
      </trkpt>
      <trkpt lat="43.22965" lon="-1.67868">
        <ele>62.521</ele>
        <time>2020-05-14T17:51:19Z</time>
      </trkpt>
      <trkpt lat="43.22955" lon="-1.67872">
        <ele>64.638</ele>
        <time>2020-05-14T17:51:39Z</time>
      </trkpt>
      <trkpt lat="43.22933" lon="-1.67881">
        <ele>63.36</ele>
        <time>2020-05-14T17:51:59Z</time>
      </trkpt>
      <trkpt lat="43.2292" lon="-1.67886">
        <ele>64.798</ele>
        <time>2020-05-14T17:52:19Z</time>
      </trkpt>
      <trkpt lat="43.2292" lon="-1.67886">
        <ele>64.715</ele>
        <time>2020-05-14T17:52:39Z</time>
      </trkpt>
      <trkpt lat="43.22906" lon="-1.67891">
        <ele>64.526</ele>
        <time>2020-05-14T17:52:59Z</time>
      </trkpt>
      <trkpt lat="43.22892" lon="-1.67897">
        <ele>62.808</ele>
        <time>2020-05-14T17:53:19Z</time>
      </trkpt>
      <trkpt lat="43.2287" lon="-1.67904">
        <ele>64.353</ele>
        <time>2020-05-14T17:53:39Z</time>
      </trkpt>
      <trkpt lat="43.2286" lon="-1.67909">
        <ele>63.038</ele>
        <time>2020-05-14T17:53:59Z</time>
      </trkpt>
      <trkpt lat="43.22853" lon="-1.67913">
        <ele>63.072</ele>
        <time>2020-05-14T17:54:19Z</time>
      </trkpt>
      <trkpt lat="43.22847" lon="-1.67916">
        <ele>62.87</ele>
        <time>2020-05-14T17:54:39Z</time>
      </trkpt>
      <trkpt lat="43.22844" lon="-1.67918">
        <ele>62.825</ele>
        <time>2020-05-14T17:54:59Z</time>
      </trkpt>
      <trkpt lat="43.22829" lon="-1.67926">
        <ele>63.255</ele>
        <time>2020-05-14T17:55:19Z</time>
      </trkpt>
      <trkpt lat="43.22827" lon="-1.67927">
        <ele>63.282</ele>
        <time>2020-05-14T17:55:39Z</time>
      </trkpt>
      <trkpt lat="43.22826" lon="-1.67925">
        <ele>63.224</ele>
        <time>2020-05-14T17:55:59Z</time>
      </trkpt>
      <trkpt lat="43.22826" lon="-1.67922">
        <ele>63.292</ele>
        <time>2020-05-14T17:56:19Z</time>
      </trkpt>
      <trkpt lat="43.22825" lon="-1.67921">
        <ele>63.273</ele>
        <time>2020-05-14T17:56:39Z</time>
      </trkpt>
      <trkpt lat="43.22823" lon="-1.67921">
        <ele>63.22</ele>
        <time>2020-05-14T17:56:59Z</time>
      </trkpt>
      <trkpt lat="43.22816" lon="-1.67921">
        <ele>63.108</ele>
        <time>2020-05-14T17:57:19Z</time>
      </trkpt>
      <trkpt lat="43.2281" lon="-1.67922">
        <ele>63.023</ele>
        <time>2020-05-14T17:57:39Z</time>
      </trkpt>
      <trkpt lat="43.22806" lon="-1.67923">
        <ele>63.198</ele>
        <time>2020-05-14T17:57:59Z</time>
      </trkpt>
      <trkpt lat="43.22803" lon="-1.67923">
        <ele>63.092</ele>
        <time>2020-05-14T17:58:19Z</time>
      </trkpt>
      <trkpt lat="43.22802" lon="-1.67923">
        <ele>63.08</ele>
        <time>2020-05-14T17:58:39Z</time>
      </trkpt>
      <trkpt lat="43.22801" lon="-1.67923">
        <ele>63.045</ele>
        <time>2020-05-14T17:58:59Z</time>
      </trkpt>
      <trkpt lat="43.22787" lon="-1.67921">
        <ele>59.185</ele>
        <time>2020-05-14T17:59:19Z</time>
      </trkpt>
      <trkpt lat="43.22786" lon="-1.67921">
        <ele>63.012</ele>
        <time>2020-05-14T17:59:39Z</time>
      </trkpt>
      <trkpt lat="43.22784" lon="-1.67921">
        <ele>63.084</ele>
        <time>2020-05-14T17:59:59Z</time>
      </trkpt>
      <trkpt lat="43.22784" lon="-1.67921">
        <ele>63.023</ele>
        <time>2020-05-14T18:00:19Z</time>
      </trkpt>
      <trkpt lat="43.22781" lon="-1.6792">
        <ele>63.283</ele>
        <time>2020-05-14T18:00:39Z</time>
      </trkpt>
      <trkpt lat="43.22775" lon="-1.67919">
        <ele>63.311</ele>
        <time>2020-05-14T18:00:59Z</time>
      </trkpt>
      <trkpt lat="43.22766" lon="-1.67917">
        <ele>63.408</ele>
        <time>2020-05-14T18:01:19Z</time>
      </trkpt>
      <trkpt lat="43.2276" lon="-1.67914">
        <ele>63.466</ele>
        <time>2020-05-14T18:01:39Z</time>
      </trkpt>
      <trkpt lat="43.22755" lon="-1.67911">
        <ele>63.471</ele>
        <time>2020-05-14T18:01:59Z</time>
      </trkpt>
      <trkpt lat="43.22751" lon="-1.67908">
        <ele>63.415</ele>
        <time>2020-05-14T18:02:19Z</time>
      </trkpt>
      <trkpt lat="43.22746" lon="-1.67905">
        <ele>63.593</ele>
        <time>2020-05-14T18:02:39Z</time>
      </trkpt>
      <trkpt lat="43.22741" lon="-1.67901">
        <ele>63.598</ele>
        <time>2020-05-14T18:02:59Z</time>
      </trkpt>
      <trkpt lat="43.22733" lon="-1.67896">
        <ele>63.498</ele>
        <time>2020-05-14T18:03:19Z</time>
      </trkpt>
      <trkpt lat="43.22726" lon="-1.6789">
        <ele>63.495</ele>
        <time>2020-05-14T18:03:39Z</time>
      </trkpt>
      <trkpt lat="43.22716" lon="-1.67882">
        <ele>63.267</ele>
        <time>2020-05-14T18:03:59Z</time>
      </trkpt>
      <trkpt lat="43.22687" lon="-1.67856">
        <ele>63.042</ele>
        <time>2020-05-14T18:04:19Z</time>
      </trkpt>
      <trkpt lat="43.2267" lon="-1.67841">
        <ele>63.222</ele>
        <time>2020-05-14T18:04:39Z</time>
      </trkpt>
      <trkpt lat="43.22662" lon="-1.67833">
        <ele>62.914</ele>
        <time>2020-05-14T18:04:59Z</time>
      </trkpt>
      <trkpt lat="43.22653" lon="-1.67823">
        <ele>63.008</ele>
        <time>2020-05-14T18:05:19Z</time>
      </trkpt>
      <trkpt lat="43.22648" lon="-1.67815">
        <ele>63.048</ele>
        <time>2020-05-14T18:05:39Z</time>
      </trkpt>
      <trkpt lat="43.22642" lon="-1.67808">
        <ele>63.093</ele>
        <time>2020-05-14T18:05:59Z</time>
      </trkpt>
      <trkpt lat="43.22633" lon="-1.67796">
        <ele>63.167</ele>
        <time>2020-05-14T18:06:19Z</time>
      </trkpt>
      <trkpt lat="43.22624" lon="-1.67785">
        <ele>63.095</ele>
        <time>2020-05-14T18:06:39Z</time>
      </trkpt>
      <trkpt lat="43.2262" lon="-1.6778">
        <ele>63.27</ele>
        <time>2020-05-14T18:06:59Z</time>
      </trkpt>
      <trkpt lat="43.22616" lon="-1.67774">
        <ele>63.54</ele>
        <time>2020-05-14T18:07:19Z</time>
      </trkpt>
      <trkpt lat="43.22613" lon="-1.67771">
        <ele>63.257</ele>
        <time>2020-05-14T18:07:39Z</time>
      </trkpt>
      <trkpt lat="43.22609" lon="-1.67767">
        <ele>63.159</ele>
        <time>2020-05-14T18:07:59Z</time>
      </trkpt>
      <trkpt lat="43.22605" lon="-1.67762">
        <ele>63.277</ele>
        <time>2020-05-14T18:08:19Z</time>
      </trkpt>
      <trkpt lat="43.226" lon="-1.67757">
        <ele>62.961</ele>
        <time>2020-05-14T18:08:39Z</time>
      </trkpt>
      <trkpt lat="43.22591" lon="-1.67749">
        <ele>63.027</ele>
        <time>2020-05-14T18:08:59Z</time>
      </trkpt>
      <trkpt lat="43.22582" lon="-1.6774">
        <ele>63.008</ele>
        <time>2020-05-14T18:09:19Z</time>
      </trkpt>
      <trkpt lat="43.22569" lon="-1.67726">
        <ele>63.011</ele>
        <time>2020-05-14T18:09:39Z</time>
      </trkpt>
      <trkpt lat="43.22555" lon="-1.67712">
        <ele>63.086</ele>
        <time>2020-05-14T18:09:59Z</time>
      </trkpt>
      <trkpt lat="43.22554" lon="-1.67711">
        <ele>63.06</ele>
        <time>2020-05-14T18:10:19Z</time>
      </trkpt>
      <trkpt lat="43.22553" lon="-1.67711">
        <ele>63.088</ele>
        <time>2020-05-14T18:10:39Z</time>
      </trkpt>
      <trkpt lat="43.22527" lon="-1.67686">
        <ele>63.253</ele>
        <time>2020-05-14T18:10:59Z</time>
      </trkpt>
      <trkpt lat="43.22519" lon="-1.67678">
        <ele>65.573</ele>
        <time>2020-05-14T18:11:19Z</time>
      </trkpt>
      <trkpt lat="43.22512" lon="-1.6767">
        <ele>63.12</ele>
        <time>2020-05-14T18:11:39Z</time>
      </trkpt>
      <trkpt lat="43.22506" lon="-1.67663">
        <ele>63.232</ele>
        <time>2020-05-14T18:11:59Z</time>
      </trkpt>
      <trkpt lat="43.225" lon="-1.67656">
        <ele>63.244</ele>
        <time>2020-05-14T18:12:19Z</time>
      </trkpt>
      <trkpt lat="43.22497" lon="-1.67652">
        <ele>63.205</ele>
        <time>2020-05-14T18:12:39Z</time>
      </trkpt>
      <trkpt lat="43.22494" lon="-1.6765">
        <ele>63.215</ele>
        <time>2020-05-14T18:12:59Z</time>
      </trkpt>
      <trkpt lat="43.22492" lon="-1.67648">
        <ele>63.208</ele>
        <time>2020-05-14T18:13:19Z</time>
      </trkpt>
      <trkpt lat="43.22483" lon="-1.67638">
        <ele>63.258</ele>
        <time>2020-05-14T18:13:39Z</time>
      </trkpt>
      <trkpt lat="43.22481" lon="-1.67636">
        <ele>63.283</ele>
        <time>2020-05-14T18:13:59Z</time>
      </trkpt>
      <trkpt lat="43.2248" lon="-1.67634">
        <ele>63.287</ele>
        <time>2020-05-14T18:14:19Z</time>
      </trkpt>
      <trkpt lat="43.22455" lon="-1.67618">
        <ele>63.475</ele>
        <time>2020-05-14T18:14:39Z</time>
      </trkpt>
      <trkpt lat="43.22447" lon="-1.67614">
        <ele>63.31</ele>
        <time>2020-05-14T18:14:59Z</time>
      </trkpt>
      <trkpt lat="43.22443" lon="-1.67612">
        <ele>63.39</ele>
        <time>2020-05-14T18:15:19Z</time>
      </trkpt>
      <trkpt lat="43.22438" lon="-1.6761">
        <ele>63.467</ele>
        <time>2020-05-14T18:15:39Z</time>
      </trkpt>
      <trkpt lat="43.22424" lon="-1.67605">
        <ele>63.369</ele>
        <time>2020-05-14T18:15:59Z</time>
      </trkpt>
      <trkpt lat="43.22418" lon="-1.67603">
        <ele>63.344</ele>
        <time>2020-05-14T18:16:19Z</time>
      </trkpt>
      <trkpt lat="43.22413" lon="-1.67602">
        <ele>63.405</ele>
        <time>2020-05-14T18:16:39Z</time>
      </trkpt>
      <trkpt lat="43.22408" lon="-1.67601">
        <ele>63.415</ele>
        <time>2020-05-14T18:16:59Z</time>
      </trkpt>
      <trkpt lat="43.22403" lon="-1.67601">
        <ele>63.608</ele>
        <time>2020-05-14T18:17:19Z</time>
      </trkpt>
      <trkpt lat="43.22396" lon="-1.676">
        <ele>63.538</ele>
        <time>2020-05-14T18:17:39Z</time>
      </trkpt>
      <trkpt lat="43.22389" lon="-1.676">
        <ele>63.513</ele>
        <time>2020-05-14T18:17:59Z</time>
      </trkpt>
      <trkpt lat="43.22377" lon="-1.67601">
        <ele>64.027</ele>
        <time>2020-05-14T18:18:19Z</time>
      </trkpt>
      <trkpt lat="43.22365" lon="-1.67602">
        <ele>63.815</ele>
        <time>2020-05-14T18:18:39Z</time>
      </trkpt>
      <trkpt lat="43.22357" lon="-1.67603">
        <ele>64.23</ele>
        <time>2020-05-14T18:18:59Z</time>
      </trkpt>
      <trkpt lat="43.22349" lon="-1.67603">
        <ele>64.18</ele>
        <time>2020-05-14T18:19:19Z</time>
      </trkpt>
      <trkpt lat="43.22341" lon="-1.67605">
        <ele>64.157</ele>
        <time>2020-05-14T18:19:39Z</time>
      </trkpt>
      <trkpt lat="43.22285" lon="-1.67619">
        <ele>64.259</ele>
        <time>2020-05-14T18:19:59Z</time>
      </trkpt>
      <trkpt lat="43.22272" lon="-1.67622">
        <ele>66.546</ele>
        <time>2020-05-14T18:20:19Z</time>
      </trkpt>
      <trkpt lat="43.2226" lon="-1.67625">
        <ele>65.288</ele>
        <time>2020-05-14T18:20:39Z</time>
      </trkpt>
      <trkpt lat="43.22255" lon="-1.67627">
        <ele>64.316</ele>
        <time>2020-05-14T18:20:59Z</time>
      </trkpt>
      <trkpt lat="43.22249" lon="-1.67629">
        <ele>64.308</ele>
        <time>2020-05-14T18:21:19Z</time>
      </trkpt>
      <trkpt lat="43.2224" lon="-1.67633">
        <ele>64.278</ele>
        <time>2020-05-14T18:21:39Z</time>
      </trkpt>
      <trkpt lat="43.22231" lon="-1.67637">
        <ele>64.423</ele>
        <time>2020-05-14T18:21:59Z</time>
      </trkpt>
      <trkpt lat="43.22225" lon="-1.67641">
        <ele>64.567</ele>
        <time>2020-05-14T18:22:19Z</time>
      </trkpt>
      <trkpt lat="43.2222" lon="-1.67644">
        <ele>64.495</ele>
        <time>2020-05-14T18:22:39Z</time>
      </trkpt>
      <trkpt lat="43.22216" lon="-1.67647">
        <ele>64.98</ele>
        <time>2020-05-14T18:22:59Z</time>
      </trkpt>
      <trkpt lat="43.22213" lon="-1.6765">
        <ele>64.42</ele>
        <time>2020-05-14T18:23:19Z</time>
      </trkpt>
      <trkpt lat="43.22209" lon="-1.67654">
        <ele>64.327</ele>
        <time>2020-05-14T18:23:39Z</time>
      </trkpt>
      <trkpt lat="43.22205" lon="-1.67658">
        <ele>64.359</ele>
        <time>2020-05-14T18:23:59Z</time>
      </trkpt>
      <trkpt lat="43.22197" lon="-1.67667">
        <ele>64.457</ele>
        <time>2020-05-14T18:24:19Z</time>
      </trkpt>
      <trkpt lat="43.2219" lon="-1.67676">
        <ele>64.4</ele>
        <time>2020-05-14T18:24:39Z</time>
      </trkpt>
      <trkpt lat="43.22185" lon="-1.67683">
        <ele>64.42</ele>
        <time>2020-05-14T18:24:59Z</time>
      </trkpt>
      <trkpt lat="43.22181" lon="-1.67688">
        <ele>64.408</ele>
        <time>2020-05-14T18:25:19Z</time>
      </trkpt>
      <trkpt lat="43.22171" lon="-1.67707">
        <ele>64.879</ele>
        <time>2020-05-14T18:25:39Z</time>
      </trkpt>
      <trkpt lat="43.22165" lon="-1.6772">
        <ele>64.324</ele>
        <time>2020-05-14T18:25:59Z</time>
      </trkpt>
      <trkpt lat="43.22159" lon="-1.67739">
        <ele>64.448</ele>
        <time>2020-05-14T18:26:19Z</time>
      </trkpt>
      <trkpt lat="43.22153" lon="-1.6776">
        <ele>64.516</ele>
        <time>2020-05-14T18:26:39Z</time>
      </trkpt>
      <trkpt lat="43.22137" lon="-1.67824">
        <ele>67.441</ele>
        <time>2020-05-14T18:26:59Z</time>
      </trkpt>
      <trkpt lat="43.22127" lon="-1.67863">
        <ele>65.371</ele>
        <time>2020-05-14T18:27:19Z</time>
      </trkpt>
      <trkpt lat="43.22117" lon="-1.67901">
        <ele>65.348</ele>
        <time>2020-05-14T18:27:39Z</time>
      </trkpt>
      <trkpt lat="43.22107" lon="-1.67938">
        <ele>65.55</ele>
        <time>2020-05-14T18:27:59Z</time>
      </trkpt>
      <trkpt lat="43.22107" lon="-1.67941">
        <ele>65.446</ele>
        <time>2020-05-14T18:28:19Z</time>
      </trkpt>
      <trkpt lat="43.22106" lon="-1.67944">
        <ele>65.588</ele>
        <time>2020-05-14T18:28:39Z</time>
      </trkpt>
      <trkpt lat="43.22104" lon="-1.67949">
        <ele>65.416</ele>
        <time>2020-05-14T18:28:59Z</time>
      </trkpt>
      <trkpt lat="43.22101" lon="-1.67955">
        <ele>65.408</ele>
        <time>2020-05-14T18:29:19Z</time>
      </trkpt>
      <trkpt lat="43.22098" lon="-1.67961">
        <ele>65.698</ele>
        <time>2020-05-14T18:29:39Z</time>
      </trkpt>
      <trkpt lat="43.22095" lon="-1.67967">
        <ele>65.513</ele>
        <time>2020-05-14T18:29:59Z</time>
      </trkpt>
      <trkpt lat="43.22092" lon="-1.67973">
        <ele>65.637</ele>
        <time>2020-05-14T18:30:19Z</time>
      </trkpt>
      <trkpt lat="43.22089" lon="-1.67979">
        <ele>65.825</ele>
        <time>2020-05-14T18:30:39Z</time>
      </trkpt>
      <trkpt lat="43.22085" lon="-1.67984">
        <ele>65.93</ele>
        <time>2020-05-14T18:30:59Z</time>
      </trkpt>
      <trkpt lat="43.22082" lon="-1.67988">
        <ele>65.77</ele>
        <time>2020-05-14T18:31:19Z</time>
      </trkpt>
      <trkpt lat="43.22079" lon="-1.67993">
        <ele>65.667</ele>
        <time>2020-05-14T18:31:39Z</time>
      </trkpt>
      <trkpt lat="43.22071" lon="-1.68002">
        <ele>67.739</ele>
        <time>2020-05-14T18:31:59Z</time>
      </trkpt>
      <trkpt lat="43.22065" lon="-1.68009">
        <ele>66.056</ele>
        <time>2020-05-14T18:32:19Z</time>
      </trkpt>
      <trkpt lat="43.22056" lon="-1.68016">
        <ele>66.159</ele>
        <time>2020-05-14T18:32:39Z</time>
      </trkpt>
      <trkpt lat="43.22052" lon="-1.68019">
        <ele>66.014</ele>
        <time>2020-05-14T18:32:59Z</time>
      </trkpt>
      <trkpt lat="43.22048" lon="-1.68022">
        <ele>66.508</ele>
        <time>2020-05-14T18:33:19Z</time>
      </trkpt>
      <trkpt lat="43.2204" lon="-1.68026">
        <ele>67.959</ele>
        <time>2020-05-14T18:33:39Z</time>
      </trkpt>
      <trkpt lat="43.22031" lon="-1.68031">
        <ele>66.774</ele>
        <time>2020-05-14T18:33:59Z</time>
      </trkpt>
      <trkpt lat="43.22027" lon="-1.68033">
        <ele>66.538</ele>
        <time>2020-05-14T18:34:19Z</time>
      </trkpt>
      <trkpt lat="43.22023" lon="-1.68034">
        <ele>67.196</ele>
        <time>2020-05-14T18:34:39Z</time>
      </trkpt>
      <trkpt lat="43.22018" lon="-1.68035">
        <ele>67.051</ele>
        <time>2020-05-14T18:34:59Z</time>
      </trkpt>
      <trkpt lat="43.22014" lon="-1.68036">
        <ele>66.821</ele>
        <time>2020-05-14T18:35:19Z</time>
      </trkpt>
      <trkpt lat="43.22009" lon="-1.68037">
        <ele>66.978</ele>
        <time>2020-05-14T18:35:39Z</time>
      </trkpt>
      <trkpt lat="43.22004" lon="-1.68038">
        <ele>66.96</ele>
        <time>2020-05-14T18:35:59Z</time>
      </trkpt>
      <trkpt lat="43.21999" lon="-1.68038">
        <ele>66.919</ele>
        <time>2020-05-14T18:36:19Z</time>
      </trkpt>
      <trkpt lat="43.21995" lon="-1.68038">
        <ele>67.009</ele>
        <time>2020-05-14T18:36:39Z</time>
      </trkpt>
      <trkpt lat="43.21994" lon="-1.68039">
        <ele>66.819</ele>
        <time>2020-05-14T18:36:59Z</time>
      </trkpt>
      <trkpt lat="43.21992" lon="-1.68039">
        <ele>66.808</ele>
        <time>2020-05-14T18:37:19Z</time>
      </trkpt>
      <trkpt lat="43.21983" lon="-1.68039">
        <ele>66.975</ele>
        <time>2020-05-14T18:37:39Z</time>
      </trkpt>
      <trkpt lat="43.21975" lon="-1.68039">
        <ele>66.98</ele>
        <time>2020-05-14T18:37:59Z</time>
      </trkpt>
      <trkpt lat="43.21968" lon="-1.68038">
        <ele>67.094</ele>
        <time>2020-05-14T18:38:19Z</time>
      </trkpt>
      <trkpt lat="43.21963" lon="-1.68037">
        <ele>67.032</ele>
        <time>2020-05-14T18:38:39Z</time>
      </trkpt>
      <trkpt lat="43.21959" lon="-1.68036">
        <ele>67.367</ele>
        <time>2020-05-14T18:38:59Z</time>
      </trkpt>
      <trkpt lat="43.21945" lon="-1.68031">
        <ele>68.487</ele>
        <time>2020-05-14T18:39:19Z</time>
      </trkpt>
      <trkpt lat="43.2193" lon="-1.68027">
        <ele>67.524</ele>
        <time>2020-05-14T18:39:39Z</time>
      </trkpt>
      <trkpt lat="43.21915" lon="-1.68022">
        <ele>67.136</ele>
        <time>2020-05-14T18:39:59Z</time>
      </trkpt>
      <trkpt lat="43.21895" lon="-1.68016">
        <ele>67.148</ele>
        <time>2020-05-14T18:40:19Z</time>
      </trkpt>
      <trkpt lat="43.21876" lon="-1.68009">
        <ele>67.461</ele>
        <time>2020-05-14T18:40:39Z</time>
      </trkpt>
      <trkpt lat="43.21856" lon="-1.68005">
        <ele>67.617</ele>
        <time>2020-05-14T18:40:59Z</time>
      </trkpt>
      <trkpt lat="43.21844" lon="-1.68001">
        <ele>68.308</ele>
        <time>2020-05-14T18:41:19Z</time>
      </trkpt>
      <trkpt lat="43.21831" lon="-1.67996">
        <ele>67.798</ele>
        <time>2020-05-14T18:41:39Z</time>
      </trkpt>
      <trkpt lat="43.21824" lon="-1.67993">
        <ele>67.683</ele>
        <time>2020-05-14T18:41:59Z</time>
      </trkpt>
      <trkpt lat="43.21818" lon="-1.6799">
        <ele>67.897</ele>
        <time>2020-05-14T18:42:19Z</time>
      </trkpt>
      <trkpt lat="43.2181" lon="-1.67985">
        <ele>67.715</ele>
        <time>2020-05-14T18:42:39Z</time>
      </trkpt>
      <trkpt lat="43.21805" lon="-1.67982">
        <ele>67.61</ele>
        <time>2020-05-14T18:42:59Z</time>
      </trkpt>
      <trkpt lat="43.218" lon="-1.67978">
        <ele>68.78</ele>
        <time>2020-05-14T18:43:19Z</time>
      </trkpt>
      <trkpt lat="43.21796" lon="-1.67975">
        <ele>67.667</ele>
        <time>2020-05-14T18:43:39Z</time>
      </trkpt>
      <trkpt lat="43.21792" lon="-1.67972">
        <ele>67.939</ele>
        <time>2020-05-14T18:43:59Z</time>
      </trkpt>
      <trkpt lat="43.21787" lon="-1.67966">
        <ele>69.326</ele>
        <time>2020-05-14T18:44:19Z</time>
      </trkpt>
      <trkpt lat="43.2178" lon="-1.67957">
        <ele>68.847</ele>
        <time>2020-05-14T18:44:39Z</time>
      </trkpt>
      <trkpt lat="43.21776" lon="-1.67952">
        <ele>68.111</ele>
        <time>2020-05-14T18:44:59Z</time>
      </trkpt>
      <trkpt lat="43.21773" lon="-1.67946">
        <ele>68.908</ele>
        <time>2020-05-14T18:45:19Z</time>
      </trkpt>
      <trkpt lat="43.21769" lon="-1.6794">
        <ele>68.386</ele>
        <time>2020-05-14T18:45:39Z</time>
      </trkpt>
      <trkpt lat="43.21766" lon="-1.67934">
        <ele>68.441</ele>
        <time>2020-05-14T18:45:59Z</time>
      </trkpt>
      <trkpt lat="43.21762" lon="-1.67927">
        <ele>68.485</ele>
        <time>2020-05-14T18:46:19Z</time>
      </trkpt>
      <trkpt lat="43.21759" lon="-1.6792">
        <ele>68.443</ele>
        <time>2020-05-14T18:46:39Z</time>
      </trkpt>
      <trkpt lat="43.21753" lon="-1.67907">
        <ele>68.918</ele>
        <time>2020-05-14T18:46:59Z</time>
      </trkpt>
      <trkpt lat="43.21749" lon="-1.67896">
        <ele>68.328</ele>
        <time>2020-05-14T18:47:19Z</time>
      </trkpt>
      <trkpt lat="43.21748" lon="-1.67891">
        <ele>68.375</ele>
        <time>2020-05-14T18:47:39Z</time>
      </trkpt>
      <trkpt lat="43.21747" lon="-1.67886">
        <ele>68.337</ele>
        <time>2020-05-14T18:47:59Z</time>
      </trkpt>
      <trkpt lat="43.21745" lon="-1.67871">
        <ele>70.732</ele>
        <time>2020-05-14T18:48:19Z</time>
      </trkpt>
      <trkpt lat="43.21742" lon="-1.67856">
        <ele>68.392</ele>
        <time>2020-05-14T18:48:39Z</time>
      </trkpt>
      <trkpt lat="43.21736" lon="-1.67826">
        <ele>67.611</ele>
        <time>2020-05-14T18:48:59Z</time>
      </trkpt>
      <trkpt lat="43.21731" lon="-1.67796">
        <ele>68.008</ele>
        <time>2020-05-14T18:49:19Z</time>
      </trkpt>
      <trkpt lat="43.21726" lon="-1.67769">
        <ele>67.737</ele>
        <time>2020-05-14T18:49:39Z</time>
      </trkpt>
      <trkpt lat="43.21725" lon="-1.67757">
        <ele>69.072</ele>
        <time>2020-05-14T18:49:59Z</time>
      </trkpt>
      <trkpt lat="43.21723" lon="-1.67745">
        <ele>67.826</ele>
        <time>2020-05-14T18:50:19Z</time>
      </trkpt>
      <trkpt lat="43.21721" lon="-1.67714">
        <ele>68.164</ele>
        <time>2020-05-14T18:50:39Z</time>
      </trkpt>
      <trkpt lat="43.21719" lon="-1.67683">
        <ele>69.789</ele>
        <time>2020-05-14T18:50:59Z</time>
      </trkpt>
      <trkpt lat="43.21718" lon="-1.67658">
        <ele>68.939</ele>
        <time>2020-05-14T18:51:19Z</time>
      </trkpt>
      <trkpt lat="43.21718" lon="-1.6764">
        <ele>68.216</ele>
        <time>2020-05-14T18:51:39Z</time>
      </trkpt>
      <trkpt lat="43.2172" lon="-1.67594">
        <ele>68.358</ele>
        <time>2020-05-14T18:51:59Z</time>
      </trkpt>
      <trkpt lat="43.21721" lon="-1.67582">
        <ele>69.153</ele>
        <time>2020-05-14T18:52:19Z</time>
      </trkpt>
      <trkpt lat="43.21722" lon="-1.67573">
        <ele>68.404</ele>
        <time>2020-05-14T18:52:39Z</time>
      </trkpt>
      <trkpt lat="43.21724" lon="-1.6756">
        <ele>68.414</ele>
        <time>2020-05-14T18:52:59Z</time>
      </trkpt>
      <trkpt lat="43.21727" lon="-1.6755">
        <ele>68.408</ele>
        <time>2020-05-14T18:53:19Z</time>
      </trkpt>
      <trkpt lat="43.21729" lon="-1.6754">
        <ele>68.369</ele>
        <time>2020-05-14T18:53:39Z</time>
      </trkpt>
      <trkpt lat="43.21731" lon="-1.6753">
        <ele>68.644</ele>
        <time>2020-05-14T18:53:59Z</time>
      </trkpt>
      <trkpt lat="43.21743" lon="-1.67469">
        <ele>68.498</ele>
        <time>2020-05-14T18:54:19Z</time>
      </trkpt>
      <trkpt lat="43.21753" lon="-1.67421">
        <ele>68.916</ele>
        <time>2020-05-14T18:54:39Z</time>
      </trkpt>
      <trkpt lat="43.21759" lon="-1.67396">
        <ele>68.421</ele>
        <time>2020-05-14T18:54:59Z</time>
      </trkpt>
      <trkpt lat="43.21765" lon="-1.67377">
        <ele>68.341</ele>
        <time>2020-05-14T18:55:19Z</time>
      </trkpt>
      <trkpt lat="43.21768" lon="-1.67364">
        <ele>68.248</ele>
        <time>2020-05-14T18:55:39Z</time>
      </trkpt>
      <trkpt lat="43.21776" lon="-1.67334">
        <ele>68.05</ele>
        <time>2020-05-14T18:55:59Z</time>
      </trkpt>
      <trkpt lat="43.2178" lon="-1.67315">
        <ele>67.742</ele>
        <time>2020-05-14T18:56:19Z</time>
      </trkpt>
      <trkpt lat="43.21783" lon="-1.67296">
        <ele>68.822</ele>
        <time>2020-05-14T18:56:39Z</time>
      </trkpt>
      <trkpt lat="43.21784" lon="-1.67281">
        <ele>68.514</ele>
        <time>2020-05-14T18:56:59Z</time>
      </trkpt>
      <trkpt lat="43.21786" lon="-1.67263">
        <ele>68.408</ele>
        <time>2020-05-14T18:57:19Z</time>
      </trkpt>
      <trkpt lat="43.21785" lon="-1.67257">
        <ele>68.318</ele>
        <time>2020-05-14T18:57:39Z</time>
      </trkpt>
      <trkpt lat="43.21785" lon="-1.67255">
        <ele>68.083</ele>
        <time>2020-05-14T18:57:59Z</time>
      </trkpt>
      <trkpt lat="43.21784" lon="-1.67249">
        <ele>68.117</ele>
        <time>2020-05-14T18:58:19Z</time>
      </trkpt>
      <trkpt lat="43.21783" lon="-1.67244">
        <ele>67.945</ele>
        <time>2020-05-14T18:58:39Z</time>
      </trkpt>
      <trkpt lat="43.21783" lon="-1.67241">
        <ele>67.98</ele>
        <time>2020-05-14T18:58:59Z</time>
      </trkpt>
      <trkpt lat="43.21782" lon="-1.67236">
        <ele>68.07</ele>
        <time>2020-05-14T18:59:19Z</time>
      </trkpt>
      <trkpt lat="43.2178" lon="-1.67229">
        <ele>68.017</ele>
        <time>2020-05-14T18:59:39Z</time>
      </trkpt>
      <trkpt lat="43.21774" lon="-1.67217">
        <ele>68.299</ele>
        <time>2020-05-14T18:59:59Z</time>
      </trkpt>
      <trkpt lat="43.21772" lon="-1.67214">
        <ele>71.961</ele>
        <time>2020-05-14T19:00:19Z</time>
      </trkpt>
      <trkpt lat="43.21771" lon="-1.67211">
        <ele>68.521</ele>
        <time>2020-05-14T19:00:39Z</time>
      </trkpt>
      <trkpt lat="43.21769" lon="-1.67207">
        <ele>68.613</ele>
        <time>2020-05-14T19:00:59Z</time>
      </trkpt>
      <trkpt lat="43.21766" lon="-1.67202">
        <ele>68.708</ele>
        <time>2020-05-14T19:01:19Z</time>
      </trkpt>
      <trkpt lat="43.21765" lon="-1.67199">
        <ele>68.61</ele>
        <time>2020-05-14T19:01:39Z</time>
      </trkpt>
      <trkpt lat="43.21762" lon="-1.67193">
        <ele>68.625</ele>
        <time>2020-05-14T19:01:59Z</time>
      </trkpt>
      <trkpt lat="43.21759" lon="-1.67187">
        <ele>68.629</ele>
        <time>2020-05-14T19:02:19Z</time>
      </trkpt>
      <trkpt lat="43.21754" lon="-1.67177">
        <ele>69.197</ele>
        <time>2020-05-14T19:02:39Z</time>
      </trkpt>
      <trkpt lat="43.21751" lon="-1.67173">
        <ele>68.742</ele>
        <time>2020-05-14T19:02:59Z</time>
      </trkpt>
      <trkpt lat="43.21748" lon="-1.67168">
        <ele>68.942</ele>
        <time>2020-05-14T19:03:19Z</time>
      </trkpt>
      <trkpt lat="43.21745" lon="-1.67164">
        <ele>68.619</ele>
        <time>2020-05-14T19:03:39Z</time>
      </trkpt>
      <trkpt lat="43.21742" lon="-1.67161">
        <ele>68.681</ele>
        <time>2020-05-14T19:03:59Z</time>
      </trkpt>
      <trkpt lat="43.21738" lon="-1.67157">
        <ele>68.543</ele>
        <time>2020-05-14T19:04:19Z</time>
      </trkpt>
      <trkpt lat="43.21735" lon="-1.67153">
        <ele>68.864</ele>
        <time>2020-05-14T19:04:39Z</time>
      </trkpt>
      <trkpt lat="43.21732" lon="-1.6715">
        <ele>69.01</ele>
        <time>2020-05-14T19:04:59Z</time>
      </trkpt>
      <trkpt lat="43.21729" lon="-1.67148">
        <ele>69.008</ele>
        <time>2020-05-14T19:05:19Z</time>
      </trkpt>
      <trkpt lat="43.21725" lon="-1.67145">
        <ele>68.888</ele>
        <time>2020-05-14T19:05:39Z</time>
      </trkpt>
      <trkpt lat="43.21721" lon="-1.67141">
        <ele>68.813</ele>
        <time>2020-05-14T19:05:59Z</time>
      </trkpt>
      <trkpt lat="43.21716" lon="-1.67138">
        <ele>68.977</ele>
        <time>2020-05-14T19:06:19Z</time>
      </trkpt>
      <trkpt lat="43.21711" lon="-1.67135">
        <ele>69.185</ele>
        <time>2020-05-14T19:06:39Z</time>
      </trkpt>
      <trkpt lat="43.217" lon="-1.67128">
        <ele>69.16</ele>
        <time>2020-05-14T19:06:59Z</time>
      </trkpt>
      <trkpt lat="43.21694" lon="-1.67126">
        <ele>69.15</ele>
        <time>2020-05-14T19:07:19Z</time>
      </trkpt>
      <trkpt lat="43.21689" lon="-1.67125">
        <ele>69.297</ele>
        <time>2020-05-14T19:07:39Z</time>
      </trkpt>
      <trkpt lat="43.2168" lon="-1.67125">
        <ele>69.249</ele>
        <time>2020-05-14T19:07:59Z</time>
      </trkpt>
      <trkpt lat="43.2167" lon="-1.67124">
        <ele>69.146</ele>
        <time>2020-05-14T19:08:19Z</time>
      </trkpt>
      <trkpt lat="43.21659" lon="-1.67123">
        <ele>69.588</ele>
        <time>2020-05-14T19:08:39Z</time>
      </trkpt>
      <trkpt lat="43.21589" lon="-1.67114">
        <ele>70.216</ele>
        <time>2020-05-14T19:08:59Z</time>
      </trkpt>
      <trkpt lat="43.21576" lon="-1.67113">
        <ele>70.308</ele>
        <time>2020-05-14T19:09:19Z</time>
      </trkpt>
      <trkpt lat="43.21564" lon="-1.67112">
        <ele>70.238</ele>
        <time>2020-05-14T19:09:39Z</time>
      </trkpt>
      <trkpt lat="43.21561" lon="-1.67112">
        <ele>70.223</ele>
        <time>2020-05-14T19:09:59Z</time>
      </trkpt>
      <trkpt lat="43.21557" lon="-1.67112">
        <ele>70.347</ele>
        <time>2020-05-14T19:10:19Z</time>
      </trkpt>
      <trkpt lat="43.2155" lon="-1.67112">
        <ele>70.415</ele>
        <time>2020-05-14T19:10:39Z</time>
      </trkpt>
      <trkpt lat="43.21538" lon="-1.67114">
        <ele>70.94</ele>
        <time>2020-05-14T19:10:59Z</time>
      </trkpt>
      <trkpt lat="43.21516" lon="-1.67121">
        <ele>71.11</ele>
        <time>2020-05-14T19:11:19Z</time>
      </trkpt>
      <trkpt lat="43.21513" lon="-1.67122">
        <ele>71.367</ele>
        <time>2020-05-14T19:11:39Z</time>
      </trkpt>
      <trkpt lat="43.21509" lon="-1.67123">
        <ele>71.179</ele>
        <time>2020-05-14T19:11:59Z</time>
      </trkpt>
      <trkpt lat="43.21498" lon="-1.6713">
        <ele>71.788</ele>
        <time>2020-05-14T19:12:19Z</time>
      </trkpt>
      <trkpt lat="43.21492" lon="-1.67133">
        <ele>72.924</ele>
        <time>2020-05-14T19:12:39Z</time>
      </trkpt>
      <trkpt lat="43.21485" lon="-1.67137">
        <ele>72.026</ele>
        <time>2020-05-14T19:12:59Z</time>
      </trkpt>
      <trkpt lat="43.21468" lon="-1.67148">
        <ele>75.208</ele>
        <time>2020-05-14T19:13:19Z</time>
      </trkpt>
      <trkpt lat="43.21415" lon="-1.67182">
        <ele>74.382</ele>
        <time>2020-05-14T19:13:39Z</time>
      </trkpt>
      <trkpt lat="43.21411" lon="-1.67185">
        <ele>72.187</ele>
        <time>2020-05-14T19:13:59Z</time>
      </trkpt>
      <trkpt lat="43.21407" lon="-1.67188">
        <ele>72.091</ele>
        <time>2020-05-14T19:14:19Z</time>
      </trkpt>
      <trkpt lat="43.21404" lon="-1.67191">
        <ele>72.029</ele>
        <time>2020-05-14T19:14:39Z</time>
      </trkpt>
      <trkpt lat="43.21391" lon="-1.672">
        <ele>71.924</ele>
        <time>2020-05-14T19:14:59Z</time>
      </trkpt>
      <trkpt lat="43.2139" lon="-1.67201">
        <ele>71.924</ele>
        <time>2020-05-14T19:15:19Z</time>
      </trkpt>
      <trkpt lat="43.2138" lon="-1.67208">
        <ele>72.121</ele>
        <time>2020-05-14T19:15:39Z</time>
      </trkpt>
      <trkpt lat="43.2138" lon="-1.67208">
        <ele>72.113</ele>
        <time>2020-05-14T19:15:59Z</time>
      </trkpt>
      <trkpt lat="43.21368" lon="-1.67216">
        <ele>72.746</ele>
        <time>2020-05-14T19:16:19Z</time>
      </trkpt>
      <trkpt lat="43.21355" lon="-1.67224">
        <ele>73.188</ele>
        <time>2020-05-14T19:16:39Z</time>
      </trkpt>
      <trkpt lat="43.21333" lon="-1.67238">
        <ele>72.216</ele>
        <time>2020-05-14T19:16:59Z</time>
      </trkpt>
      <trkpt lat="43.21321" lon="-1.67246">
        <ele>72.208</ele>
        <time>2020-05-14T19:17:19Z</time>
      </trkpt>
      <trkpt lat="43.21309" lon="-1.67254">
        <ele>72.358</ele>
        <time>2020-05-14T19:17:39Z</time>
      </trkpt>
      <trkpt lat="43.21305" lon="-1.67256">
        <ele>72.533</ele>
        <time>2020-05-14T19:17:59Z</time>
      </trkpt>
      <trkpt lat="43.21301" lon="-1.67259">
        <ele>72.547</ele>
        <time>2020-05-14T19:18:19Z</time>
      </trkpt>
      <trkpt lat="43.21289" lon="-1.67265">
        <ele>72.315</ele>
        <time>2020-05-14T19:18:39Z</time>
      </trkpt>
      <trkpt lat="43.21286" lon="-1.67266">
        <ele>72.49</ele>
        <time>2020-05-14T19:18:59Z</time>
      </trkpt>
      <trkpt lat="43.21283" lon="-1.67268">
        <ele>72.63</ele>
        <time>2020-05-14T19:19:19Z</time>
      </trkpt>
      <trkpt lat="43.2128" lon="-1.67269">
        <ele>72.637</ele>
        <time>2020-05-14T19:19:39Z</time>
      </trkpt>
      <trkpt lat="43.21277" lon="-1.6727">
        <ele>72.599</ele>
        <time>2020-05-14T19:19:59Z</time>
      </trkpt>
      <trkpt lat="43.2127" lon="-1.67272">
        <ele>72.566</ele>
        <time>2020-05-14T19:20:19Z</time>
      </trkpt>
      <trkpt lat="43.21265" lon="-1.67273">
        <ele>72.729</ele>
        <time>2020-05-14T19:20:39Z</time>
      </trkpt>
      <trkpt lat="43.21259" lon="-1.67274">
        <ele>75.921</ele>
        <time>2020-05-14T19:20:59Z</time>
      </trkpt>
      <trkpt lat="43.21252" lon="-1.67274">
        <ele>76.008</ele>
        <time>2020-05-14T19:21:19Z</time>
      </trkpt>
      <trkpt lat="43.21243" lon="-1.67274">
        <ele>72.52</ele>
        <time>2020-05-14T19:21:39Z</time>
      </trkpt>
      <trkpt lat="43.21234" lon="-1.67273">
        <ele>72.575</ele>
        <time>2020-05-14T19:21:59Z</time>
      </trkpt>
      <trkpt lat="43.2123" lon="-1.67273">
        <ele>72.599</ele>
        <time>2020-05-14T19:22:19Z</time>
      </trkpt>
      <trkpt lat="43.21227" lon="-1.67272">
        <ele>72.577</ele>
        <time>2020-05-14T19:22:39Z</time>
      </trkpt>
      <trkpt lat="43.21223" lon="-1.67272">
        <ele>72.442</ele>
        <time>2020-05-14T19:22:59Z</time>
      </trkpt>
      <trkpt lat="43.2122" lon="-1.67271">
        <ele>72.542</ele>
        <time>2020-05-14T19:23:19Z</time>
      </trkpt>
      <trkpt lat="43.21213" lon="-1.67269">
        <ele>74.449</ele>
        <time>2020-05-14T19:23:39Z</time>
      </trkpt>
      <trkpt lat="43.2121" lon="-1.67268">
        <ele>72.391</ele>
        <time>2020-05-14T19:23:59Z</time>
      </trkpt>
      <trkpt lat="43.21207" lon="-1.67266">
        <ele>72.354</ele>
        <time>2020-05-14T19:24:19Z</time>
      </trkpt>
      <trkpt lat="43.21196" lon="-1.67261">
        <ele>72.656</ele>
        <time>2020-05-14T19:24:39Z</time>
      </trkpt>
      <trkpt lat="43.21191" lon="-1.67257">
        <ele>73.211</ele>
        <time>2020-05-14T19:24:59Z</time>
      </trkpt>
      <trkpt lat="43.21186" lon="-1.67254">
        <ele>72.408</ele>
        <time>2020-05-14T19:25:19Z</time>
      </trkpt>
      <trkpt lat="43.21178" lon="-1.67248">
        <ele>72.369</ele>
        <time>2020-05-14T19:25:39Z</time>
      </trkpt>
      <trkpt lat="43.21171" lon="-1.67242">
        <ele>72.444</ele>
        <time>2020-05-14T19:25:59Z</time>
      </trkpt>
      <trkpt lat="43.21165" lon="-1.67237">
        <ele>72.728</ele>
        <time>2020-05-14T19:26:19Z</time>
      </trkpt>
      <trkpt lat="43.21163" lon="-1.67235">
        <ele>72.736</ele>
        <time>2020-05-14T19:26:39Z</time>
      </trkpt>
      <trkpt lat="43.21162" lon="-1.67233">
        <ele>72.721</ele>
        <time>2020-05-14T19:26:59Z</time>
      </trkpt>
      <trkpt lat="43.2116" lon="-1.67231">
        <ele>73.781</ele>
        <time>2020-05-14T19:27:19Z</time>
      </trkpt>
      <trkpt lat="43.21158" lon="-1.67229">
        <ele>73.788</ele>
        <time>2020-05-14T19:27:39Z</time>
      </trkpt>
      <trkpt lat="43.21156" lon="-1.67225">
        <ele>73.07</ele>
        <time>2020-05-14T19:27:59Z</time>
      </trkpt>
      <trkpt lat="43.21154" lon="-1.67221">
        <ele>73.021</ele>
        <time>2020-05-14T19:28:19Z</time>
      </trkpt>
      <trkpt lat="43.21143" lon="-1.67202">
        <ele>73.441</ele>
        <time>2020-05-14T19:28:39Z</time>
      </trkpt>
      <trkpt lat="43.21124" lon="-1.67164">
        <ele>75.405</ele>
        <time>2020-05-14T19:28:59Z</time>
      </trkpt>
      <trkpt lat="43.21117" lon="-1.67148">
        <ele>74.008</ele>
        <time>2020-05-14T19:29:19Z</time>
      </trkpt>
      <trkpt lat="43.21112" lon="-1.67134">
        <ele>73.186</ele>
        <time>2020-05-14T19:29:39Z</time>
      </trkpt>
      <trkpt lat="43.21107" lon="-1.6712">
        <ele>73.181</ele>
        <time>2020-05-14T19:29:59Z</time>
      </trkpt>
      <trkpt lat="43.21105" lon="-1.67115">
        <ele>75.225</ele>
        <time>2020-05-14T19:30:19Z</time>
      </trkpt>
      <trkpt lat="43.21103" lon="-1.67109">
        <ele>73.493</ele>
        <time>2020-05-14T19:30:39Z</time>
      </trkpt>
      <trkpt lat="43.21092" lon="-1.67087">
        <ele>73.168</ele>
        <time>2020-05-14T19:30:59Z</time>
      </trkpt>
      <trkpt lat="43.21082" lon="-1.67064">
        <ele>74.798</ele>
        <time>2020-05-14T19:31:19Z</time>
      </trkpt>
      <trkpt lat="43.21061" lon="-1.6702">
        <ele>73.365</ele>
        <time>2020-05-14T19:31:39Z</time>
      </trkpt>
      <trkpt lat="43.21055" lon="-1.67006">
        <ele>73.267</ele>
        <time>2020-05-14T19:31:59Z</time>
      </trkpt>
      <trkpt lat="43.21048" lon="-1.66993">
        <ele>74.036</ele>
        <time>2020-05-14T19:32:19Z</time>
      </trkpt>
      <trkpt lat="43.21037" lon="-1.66966">
        <ele>73.617</ele>
        <time>2020-05-14T19:32:39Z</time>
      </trkpt>
      <trkpt lat="43.21025" lon="-1.6694">
        <ele>73.318</ele>
        <time>2020-05-14T19:32:59Z</time>
      </trkpt>
      <trkpt lat="43.21014" lon="-1.66915">
        <ele>71.708</ele>
        <time>2020-05-14T19:33:19Z</time>
      </trkpt>
      <trkpt lat="43.21003" lon="-1.6689">
        <ele>72.297</ele>
        <time>2020-05-14T19:33:39Z</time>
      </trkpt>
      <trkpt lat="43.20998" lon="-1.66879">
        <ele>72.422</ele>
        <time>2020-05-14T19:33:59Z</time>
      </trkpt>
      <trkpt lat="43.20994" lon="-1.66869">
        <ele>73.036</ele>
        <time>2020-05-14T19:34:19Z</time>
      </trkpt>
      <trkpt lat="43.20988" lon="-1.66855">
        <ele>73.124</ele>
        <time>2020-05-14T19:34:39Z</time>
      </trkpt>
      <trkpt lat="43.20983" lon="-1.66841">
        <ele>73.159</ele>
        <time>2020-05-14T19:34:59Z</time>
      </trkpt>
      <trkpt lat="43.20979" lon="-1.6683">
        <ele>72.629</ele>
        <time>2020-05-14T19:35:19Z</time>
      </trkpt>
      <trkpt lat="43.20977" lon="-1.66825">
        <ele>72.696</ele>
        <time>2020-05-14T19:35:39Z</time>
      </trkpt>
      <trkpt lat="43.20975" lon="-1.66819">
        <ele>73.778</ele>
        <time>2020-05-14T19:35:59Z</time>
      </trkpt>
      <trkpt lat="43.20974" lon="-1.66815">
        <ele>73.428</ele>
        <time>2020-05-14T19:36:19Z</time>
      </trkpt>
      <trkpt lat="43.20973" lon="-1.6681">
        <ele>73.489</ele>
        <time>2020-05-14T19:36:39Z</time>
      </trkpt>
      <trkpt lat="43.20972" lon="-1.66804">
        <ele>73.417</ele>
        <time>2020-05-14T19:36:59Z</time>
      </trkpt>
      <trkpt lat="43.20971" lon="-1.66798">
        <ele>73.708</ele>
        <time>2020-05-14T19:37:19Z</time>
      </trkpt>
      <trkpt lat="43.20969" lon="-1.66791">
        <ele>73.646</ele>
        <time>2020-05-14T19:37:39Z</time>
      </trkpt>
      <trkpt lat="43.20968" lon="-1.66783">
        <ele>73.631</ele>
        <time>2020-05-14T19:37:59Z</time>
      </trkpt>
      <trkpt lat="43.20967" lon="-1.66776">
        <ele>74.175</ele>
        <time>2020-05-14T19:38:19Z</time>
      </trkpt>
      <trkpt lat="43.20966" lon="-1.66768">
        <ele>73.823</ele>
        <time>2020-05-14T19:38:39Z</time>
      </trkpt>
      <trkpt lat="43.2096" lon="-1.66722">
        <ele>74.168</ele>
        <time>2020-05-14T19:38:59Z</time>
      </trkpt>
      <trkpt lat="43.20955" lon="-1.66699">
        <ele>74.278</ele>
        <time>2020-05-14T19:39:19Z</time>
      </trkpt>
      <trkpt lat="43.20951" lon="-1.66675">
        <ele>74.475</ele>
        <time>2020-05-14T19:39:39Z</time>
      </trkpt>
      <trkpt lat="43.20947" lon="-1.66652">
        <ele>74.297</ele>
        <time>2020-05-14T19:39:59Z</time>
      </trkpt>
      <trkpt lat="43.20944" lon="-1.66628">
        <ele>74.321</ele>
        <time>2020-05-14T19:40:19Z</time>
      </trkpt>
      <trkpt lat="43.20939" lon="-1.66601">
        <ele>73.241</ele>
        <time>2020-05-14T19:40:39Z</time>
      </trkpt>
      <trkpt lat="43.20936" lon="-1.6659">
        <ele>74.705</ele>
        <time>2020-05-14T19:40:59Z</time>
      </trkpt>
      <trkpt lat="43.20934" lon="-1.66584">
        <ele>74.708</ele>
        <time>2020-05-14T19:41:19Z</time>
      </trkpt>
      <trkpt lat="43.20933" lon="-1.66579">
        <ele>74.746</ele>
        <time>2020-05-14T19:41:39Z</time>
      </trkpt>
      <trkpt lat="43.2093" lon="-1.66572">
        <ele>74.771</ele>
        <time>2020-05-14T19:41:59Z</time>
      </trkpt>
      <trkpt lat="43.20928" lon="-1.66565">
        <ele>74.935</ele>
        <time>2020-05-14T19:42:19Z</time>
      </trkpt>
      <trkpt lat="43.20925" lon="-1.66558">
        <ele>74.783</ele>
        <time>2020-05-14T19:42:39Z</time>
      </trkpt>
      <trkpt lat="43.20923" lon="-1.66551">
        <ele>74.818</ele>
        <time>2020-05-14T19:42:59Z</time>
      </trkpt>
      <trkpt lat="43.20909" lon="-1.66515">
        <ele>75.078</ele>
        <time>2020-05-14T19:43:19Z</time>
      </trkpt>
      <trkpt lat="43.20902" lon="-1.66499">
        <ele>71.395</ele>
        <time>2020-05-14T19:43:39Z</time>
      </trkpt>
      <trkpt lat="43.20898" lon="-1.66491">
        <ele>75.037</ele>
        <time>2020-05-14T19:43:59Z</time>
      </trkpt>
      <trkpt lat="43.20894" lon="-1.66484">
        <ele>75.164</ele>
        <time>2020-05-14T19:44:19Z</time>
      </trkpt>
      <trkpt lat="43.20888" lon="-1.66474">
        <ele>74.806</ele>
        <time>2020-05-14T19:44:39Z</time>
      </trkpt>
      <trkpt lat="43.20882" lon="-1.66465">
        <ele>75.116</ele>
        <time>2020-05-14T19:44:59Z</time>
      </trkpt>
      <trkpt lat="43.20866" lon="-1.66438">
        <ele>73.208</ele>
        <time>2020-05-14T19:45:19Z</time>
      </trkpt>
      <trkpt lat="43.20849" lon="-1.66411">
        <ele>75.38</ele>
        <time>2020-05-14T19:45:39Z</time>
      </trkpt>
      <trkpt lat="43.20844" lon="-1.66404">
        <ele>75.615</ele>
        <time>2020-05-14T19:45:59Z</time>
      </trkpt>
      <trkpt lat="43.20837" lon="-1.66395">
        <ele>75.959</ele>
        <time>2020-05-14T19:46:19Z</time>
      </trkpt>
      <trkpt lat="43.20837" lon="-1.66395">
        <ele>75.967</ele>
        <time>2020-05-14T19:46:39Z</time>
      </trkpt>
      <trkpt lat="43.20817" lon="-1.66369">
        <ele>75.762</ele>
        <time>2020-05-14T19:46:59Z</time>
      </trkpt>
      <trkpt lat="43.20795" lon="-1.66342">
        <ele>75.792</ele>
        <time>2020-05-14T19:47:19Z</time>
      </trkpt>
      <trkpt lat="43.20788" lon="-1.66335">
        <ele>75.699</ele>
        <time>2020-05-14T19:47:39Z</time>
      </trkpt>
      <trkpt lat="43.2078" lon="-1.66326">
        <ele>76.671</ele>
        <time>2020-05-14T19:47:59Z</time>
      </trkpt>
      <trkpt lat="43.2077" lon="-1.66316">
        <ele>75.833</ele>
        <time>2020-05-14T19:48:19Z</time>
      </trkpt>
      <trkpt lat="43.20763" lon="-1.66308">
        <ele>75.723</ele>
        <time>2020-05-14T19:48:39Z</time>
      </trkpt>
      <trkpt lat="43.20758" lon="-1.66303">
        <ele>75.715</ele>
        <time>2020-05-14T19:48:59Z</time>
      </trkpt>
      <trkpt lat="43.20752" lon="-1.66298">
        <ele>75.608</ele>
        <time>2020-05-14T19:49:19Z</time>
      </trkpt>
      <trkpt lat="43.20748" lon="-1.66294">
        <ele>77.667</ele>
        <time>2020-05-14T19:49:39Z</time>
      </trkpt>
      <trkpt lat="43.20744" lon="-1.66291">
        <ele>75.752</ele>
        <time>2020-05-14T19:49:59Z</time>
      </trkpt>
      <trkpt lat="43.20736" lon="-1.66285">
        <ele>75.766</ele>
        <time>2020-05-14T19:50:19Z</time>
      </trkpt>
      <trkpt lat="43.20728" lon="-1.66279">
        <ele>75.684</ele>
        <time>2020-05-14T19:50:39Z</time>
      </trkpt>
      <trkpt lat="43.20725" lon="-1.66277">
        <ele>75.669</ele>
        <time>2020-05-14T19:50:59Z</time>
      </trkpt>
      <trkpt lat="43.20719" lon="-1.66273">
        <ele>74.869</ele>
        <time>2020-05-14T19:51:19Z</time>
      </trkpt>
      <trkpt lat="43.20718" lon="-1.66273">
        <ele>74.876</ele>
        <time>2020-05-14T19:51:39Z</time>
      </trkpt>
      <trkpt lat="43.20714" lon="-1.6627">
        <ele>75.778</ele>
        <time>2020-05-14T19:51:59Z</time>
      </trkpt>
      <trkpt lat="43.20711" lon="-1.66268">
        <ele>73.195</ele>
        <time>2020-05-14T19:52:19Z</time>
      </trkpt>
      <trkpt lat="43.20704" lon="-1.66265">
        <ele>73.949</ele>
        <time>2020-05-14T19:52:39Z</time>
      </trkpt>
      <trkpt lat="43.20698" lon="-1.66261">
        <ele>75.423</ele>
        <time>2020-05-14T19:52:59Z</time>
      </trkpt>
      <trkpt lat="43.20689" lon="-1.66257">
        <ele>73.808</ele>
        <time>2020-05-14T19:53:19Z</time>
      </trkpt>
      <trkpt lat="43.20671" lon="-1.66251">
        <ele>75.253</ele>
        <time>2020-05-14T19:53:39Z</time>
      </trkpt>
      <trkpt lat="43.20648" lon="-1.66242">
        <ele>74.698</ele>
        <time>2020-05-14T19:53:59Z</time>
      </trkpt>
      <trkpt lat="43.20635" lon="-1.66238">
        <ele>75.072</ele>
        <time>2020-05-14T19:54:19Z</time>
      </trkpt>
      <trkpt lat="43.20621" lon="-1.66233">
        <ele>75.14</ele>
        <time>2020-05-14T19:54:39Z</time>
      </trkpt>
      <trkpt lat="43.20612" lon="-1.66231">
        <ele>75.485</ele>
        <time>2020-05-14T19:54:59Z</time>
      </trkpt>
      <trkpt lat="43.20603" lon="-1.66228">
        <ele>75.335</ele>
        <time>2020-05-14T19:55:19Z</time>
      </trkpt>
      <trkpt lat="43.20597" lon="-1.66227">
        <ele>75.352</ele>
        <time>2020-05-14T19:55:39Z</time>
      </trkpt>
      <trkpt lat="43.20588" lon="-1.66225">
        <ele>76.394</ele>
        <time>2020-05-14T19:55:59Z</time>
      </trkpt>
      <trkpt lat="43.20577" lon="-1.66222">
        <ele>75.384</ele>
        <time>2020-05-14T19:56:19Z</time>
      </trkpt>
      <trkpt lat="43.20571" lon="-1.66221">
        <ele>75.407</ele>
        <time>2020-05-14T19:56:39Z</time>
      </trkpt>
      <trkpt lat="43.20565" lon="-1.6622">
        <ele>75.417</ele>
        <time>2020-05-14T19:56:59Z</time>
      </trkpt>
      <trkpt lat="43.20559" lon="-1.66219">
        <ele>75.608</ele>
        <time>2020-05-14T19:57:19Z</time>
      </trkpt>
      <trkpt lat="43.20554" lon="-1.66219">
        <ele>75.712</ele>
        <time>2020-05-14T19:57:39Z</time>
      </trkpt>
      <trkpt lat="43.20547" lon="-1.66219">
        <ele>75.927</ele>
        <time>2020-05-14T19:57:59Z</time>
      </trkpt>
      <trkpt lat="43.2054" lon="-1.66219">
        <ele>75.621</ele>
        <time>2020-05-14T19:58:19Z</time>
      </trkpt>
      <trkpt lat="43.20534" lon="-1.6622">
        <ele>75.689</ele>
        <time>2020-05-14T19:58:39Z</time>
      </trkpt>
      <trkpt lat="43.20527" lon="-1.6622">
        <ele>75.434</ele>
        <time>2020-05-14T19:58:59Z</time>
      </trkpt>
      <trkpt lat="43.20522" lon="-1.66222">
        <ele>75.494</ele>
        <time>2020-05-14T19:59:19Z</time>
      </trkpt>
      <trkpt lat="43.20517" lon="-1.66223">
        <ele>75.341</ele>
        <time>2020-05-14T19:59:39Z</time>
      </trkpt>
      <trkpt lat="43.20509" lon="-1.66226">
        <ele>75.813</ele>
        <time>2020-05-14T19:59:59Z</time>
      </trkpt>
      <trkpt lat="43.20503" lon="-1.66228">
        <ele>75.644</ele>
        <time>2020-05-14T20:00:19Z</time>
      </trkpt>
      <trkpt lat="43.20497" lon="-1.6623">
        <ele>75.405</ele>
        <time>2020-05-14T20:00:39Z</time>
      </trkpt>
      <trkpt lat="43.20493" lon="-1.66233">
        <ele>75.715</ele>
        <time>2020-05-14T20:00:59Z</time>
      </trkpt>
      <trkpt lat="43.20483" lon="-1.66241">
        <ele>75.608</ele>
        <time>2020-05-14T20:01:19Z</time>
      </trkpt>
      <trkpt lat="43.20472" lon="-1.66249">
        <ele>75.698</ele>
        <time>2020-05-14T20:01:39Z</time>
      </trkpt>
      <trkpt lat="43.20466" lon="-1.66257">
        <ele>76.243</ele>
        <time>2020-05-14T20:01:59Z</time>
      </trkpt>
      <trkpt lat="43.20459" lon="-1.66266">
        <ele>75.597</ele>
        <time>2020-05-14T20:02:19Z</time>
      </trkpt>
      <trkpt lat="43.20457" lon="-1.66271">
        <ele>75.925</ele>
        <time>2020-05-14T20:02:39Z</time>
      </trkpt>
      <trkpt lat="43.20455" lon="-1.66273">
        <ele>75.55</ele>
        <time>2020-05-14T20:02:59Z</time>
      </trkpt>
      <trkpt lat="43.20454" lon="-1.66276">
        <ele>76.06</ele>
        <time>2020-05-14T20:03:19Z</time>
      </trkpt>
      <trkpt lat="43.20451" lon="-1.6628">
        <ele>75.637</ele>
        <time>2020-05-14T20:03:39Z</time>
      </trkpt>
      <trkpt lat="43.20448" lon="-1.66286">
        <ele>75.969</ele>
        <time>2020-05-14T20:03:59Z</time>
      </trkpt>
      <trkpt lat="43.20446" lon="-1.6629">
        <ele>75.518</ele>
        <time>2020-05-14T20:04:19Z</time>
      </trkpt>
      <trkpt lat="43.20443" lon="-1.66297">
        <ele>75.598</ele>
        <time>2020-05-14T20:04:39Z</time>
      </trkpt>
      <trkpt lat="43.20439" lon="-1.66306">
        <ele>76.317</ele>
        <time>2020-05-14T20:04:59Z</time>
      </trkpt>
      <trkpt lat="43.20436" lon="-1.66315">
        <ele>76.208</ele>
        <time>2020-05-14T20:05:19Z</time>
      </trkpt>
      <trkpt lat="43.20433" lon="-1.66323">
        <ele>75.755</ele>
        <time>2020-05-14T20:05:39Z</time>
      </trkpt>
      <trkpt lat="43.20431" lon="-1.66329">
        <ele>77.48</ele>
        <time>2020-05-14T20:05:59Z</time>
      </trkpt>
      <trkpt lat="43.20428" lon="-1.66335">
        <ele>75.434</ele>
        <time>2020-05-14T20:06:19Z</time>
      </trkpt>
      <trkpt lat="43.20423" lon="-1.66347">
        <ele>75.552</ele>
        <time>2020-05-14T20:06:39Z</time>
      </trkpt>
      <trkpt lat="43.20419" lon="-1.66358">
        <ele>76.667</ele>
        <time>2020-05-14T20:06:59Z</time>
      </trkpt>
      <trkpt lat="43.20415" lon="-1.66369">
        <ele>75.597</ele>
        <time>2020-05-14T20:07:19Z</time>
      </trkpt>
      <trkpt lat="43.2041" lon="-1.66383">
        <ele>75.584</ele>
        <time>2020-05-14T20:07:39Z</time>
      </trkpt>
      <trkpt lat="43.20405" lon="-1.664">
        <ele>77.536</ele>
        <time>2020-05-14T20:07:59Z</time>
      </trkpt>
      <trkpt lat="43.20399" lon="-1.6642">
        <ele>75.643</ele>
        <time>2020-05-14T20:08:19Z</time>
      </trkpt>
      <trkpt lat="43.20393" lon="-1.66437">
        <ele>75.564</ele>
        <time>2020-05-14T20:08:39Z</time>
      </trkpt>
      <trkpt lat="43.20392" lon="-1.66442">
        <ele>75.51</ele>
        <time>2020-05-14T20:08:59Z</time>
      </trkpt>
      <trkpt lat="43.2039" lon="-1.6645">
        <ele>75.708</ele>
        <time>2020-05-14T20:09:19Z</time>
      </trkpt>
      <trkpt lat="43.20384" lon="-1.66466">
        <ele>75.658</ele>
        <time>2020-05-14T20:09:39Z</time>
      </trkpt>
      <trkpt lat="43.20379" lon="-1.66482">
        <ele>78.793</ele>
        <time>2020-05-14T20:09:59Z</time>
      </trkpt>
      <trkpt lat="43.20377" lon="-1.66489">
        <ele>75.927</ele>
        <time>2020-05-14T20:10:19Z</time>
      </trkpt>
      <trkpt lat="43.20375" lon="-1.66494">
        <ele>76.155</ele>
        <time>2020-05-14T20:10:39Z</time>
      </trkpt>
      <trkpt lat="43.20373" lon="-1.66507">
        <ele>76.22</ele>
        <time>2020-05-14T20:10:59Z</time>
      </trkpt>
      <trkpt lat="43.20369" lon="-1.66523">
        <ele>76.07</ele>
        <time>2020-05-14T20:11:19Z</time>
      </trkpt>
      <trkpt lat="43.20363" lon="-1.66552">
        <ele>76.697</ele>
        <time>2020-05-14T20:11:39Z</time>
      </trkpt>
      <trkpt lat="43.20358" lon="-1.66576">
        <ele>76.459</ele>
        <time>2020-05-14T20:11:59Z</time>
      </trkpt>
      <trkpt lat="43.20352" lon="-1.66604">
        <ele>76.683</ele>
        <time>2020-05-14T20:12:19Z</time>
      </trkpt>
      <trkpt lat="43.20347" lon="-1.66631">
        <ele>77.025</ele>
        <time>2020-05-14T20:12:39Z</time>
      </trkpt>
      <trkpt lat="43.20346" lon="-1.66636">
        <ele>77.717</ele>
        <time>2020-05-14T20:12:59Z</time>
      </trkpt>
      <trkpt lat="43.20343" lon="-1.66656">
        <ele>77.008</ele>
        <time>2020-05-14T20:13:19Z</time>
      </trkpt>
      <trkpt lat="43.2034" lon="-1.66671">
        <ele>77.312</ele>
        <time>2020-05-14T20:13:39Z</time>
      </trkpt>
      <trkpt lat="43.20334" lon="-1.66703">
        <ele>78.537</ele>
        <time>2020-05-14T20:13:59Z</time>
      </trkpt>
      <trkpt lat="43.20326" lon="-1.66739">
        <ele>77.351</ele>
        <time>2020-05-14T20:14:19Z</time>
      </trkpt>
      <trkpt lat="43.20325" lon="-1.66744">
        <ele>77.329</ele>
        <time>2020-05-14T20:14:39Z</time>
      </trkpt>
      <trkpt lat="43.20324" lon="-1.6675">
        <ele>77.574</ele>
        <time>2020-05-14T20:14:59Z</time>
      </trkpt>
      <trkpt lat="43.20323" lon="-1.66755">
        <ele>77.734</ele>
        <time>2020-05-14T20:15:19Z</time>
      </trkpt>
      <trkpt lat="43.20322" lon="-1.66767">
        <ele>77.551</ele>
        <time>2020-05-14T20:15:39Z</time>
      </trkpt>
      <trkpt lat="43.2032" lon="-1.66784">
        <ele>77.973</ele>
        <time>2020-05-14T20:15:59Z</time>
      </trkpt>
      <trkpt lat="43.20319" lon="-1.66801">
        <ele>79.434</ele>
        <time>2020-05-14T20:16:19Z</time>
      </trkpt>
      <trkpt lat="43.20318" lon="-1.66815">
        <ele>77.655</ele>
        <time>2020-05-14T20:16:39Z</time>
      </trkpt>
      <trkpt lat="43.20317" lon="-1.66829">
        <ele>78.71</ele>
        <time>2020-05-14T20:16:59Z</time>
      </trkpt>
      <trkpt lat="43.20315" lon="-1.66845">
        <ele>81.508</ele>
        <time>2020-05-14T20:17:19Z</time>
      </trkpt>
      <trkpt lat="43.2031" lon="-1.66896">
        <ele>77.967</ele>
        <time>2020-05-14T20:17:39Z</time>
      </trkpt>
      <trkpt lat="43.20304" lon="-1.66959">
        <ele>79.172</ele>
        <time>2020-05-14T20:17:59Z</time>
      </trkpt>
      <trkpt lat="43.20302" lon="-1.66988">
        <ele>78.766</ele>
        <time>2020-05-14T20:18:19Z</time>
      </trkpt>
      <trkpt lat="43.20299" lon="-1.67011">
        <ele>80.344</ele>
        <time>2020-05-14T20:18:39Z</time>
      </trkpt>
      <trkpt lat="43.20297" lon="-1.67037">
        <ele>78.749</ele>
        <time>2020-05-14T20:18:59Z</time>
      </trkpt>
      <trkpt lat="43.20295" lon="-1.67055">
        <ele>79.159</ele>
        <time>2020-05-14T20:19:19Z</time>
      </trkpt>
      <trkpt lat="43.20292" lon="-1.67082">
        <ele>78.716</ele>
        <time>2020-05-14T20:19:39Z</time>
      </trkpt>
      <trkpt lat="43.20291" lon="-1.67093">
        <ele>78.968</ele>
        <time>2020-05-14T20:19:59Z</time>
      </trkpt>
      <trkpt lat="43.20291" lon="-1.67097">
        <ele>78.943</ele>
        <time>2020-05-14T20:20:19Z</time>
      </trkpt>
      <trkpt lat="43.2029" lon="-1.67102">
        <ele>78.864</ele>
        <time>2020-05-14T20:20:39Z</time>
      </trkpt>
      <trkpt lat="43.20289" lon="-1.6711">
        <ele>78.91</ele>
        <time>2020-05-14T20:20:59Z</time>
      </trkpt>
      <trkpt lat="43.20287" lon="-1.67121">
        <ele>79.208</ele>
        <time>2020-05-14T20:21:19Z</time>
      </trkpt>
      <trkpt lat="43.20285" lon="-1.67129">
        <ele>79.178</ele>
        <time>2020-05-14T20:21:39Z</time>
      </trkpt>
      <trkpt lat="43.20284" lon="-1.67135">
        <ele>79.333</ele>
        <time>2020-05-14T20:21:59Z</time>
      </trkpt>
      <trkpt lat="43.20283" lon="-1.67139">
        <ele>79.327</ele>
        <time>2020-05-14T20:22:19Z</time>
      </trkpt>
      <trkpt lat="43.20281" lon="-1.67146">
        <ele>79.395</ele>
        <time>2020-05-14T20:22:39Z</time>
      </trkpt>
      <trkpt lat="43.20278" lon="-1.67154">
        <ele>79.82</ele>
        <time>2020-05-14T20:22:59Z</time>
      </trkpt>
      <trkpt lat="43.20276" lon="-1.67159">
        <ele>79.17</ele>
        <time>2020-05-14T20:23:19Z</time>
      </trkpt>
      <trkpt lat="43.20274" lon="-1.67165">
        <ele>79.337</ele>
        <time>2020-05-14T20:23:39Z</time>
      </trkpt>
      <trkpt lat="43.2027" lon="-1.67173">
        <ele>79.479</ele>
        <time>2020-05-14T20:23:59Z</time>
      </trkpt>
      <trkpt lat="43.20267" lon="-1.6718">
        <ele>79.565</ele>
        <time>2020-05-14T20:24:19Z</time>
      </trkpt>
      <trkpt lat="43.2026" lon="-1.67194">
        <ele>79.368</ele>
        <time>2020-05-14T20:24:39Z</time>
      </trkpt>
      <trkpt lat="43.20257" lon="-1.67198">
        <ele>79.714</ele>
        <time>2020-05-14T20:24:59Z</time>
      </trkpt>
      <trkpt lat="43.20254" lon="-1.67203">
        <ele>79.408</ele>
        <time>2020-05-14T20:25:19Z</time>
      </trkpt>
      <trkpt lat="43.20248" lon="-1.67212">
        <ele>79.91</ele>
        <time>2020-05-14T20:25:39Z</time>
      </trkpt>
      <trkpt lat="43.2024" lon="-1.67224">
        <ele>79.535</ele>
        <time>2020-05-14T20:25:59Z</time>
      </trkpt>
      <trkpt lat="43.20232" lon="-1.67238">
        <ele>79.549</ele>
        <time>2020-05-14T20:26:19Z</time>
      </trkpt>
      <trkpt lat="43.20223" lon="-1.67252">
        <ele>79.177</ele>
        <time>2020-05-14T20:26:39Z</time>
      </trkpt>
      <trkpt lat="43.20214" lon="-1.67266">
        <ele>80.022</ele>
        <time>2020-05-14T20:26:59Z</time>
      </trkpt>
      <trkpt lat="43.20203" lon="-1.67285">
        <ele>80.232</ele>
        <time>2020-05-14T20:27:19Z</time>
      </trkpt>
      <trkpt lat="43.20199" lon="-1.67292">
        <ele>80.379</ele>
        <time>2020-05-14T20:27:39Z</time>
      </trkpt>
      <trkpt lat="43.20197" lon="-1.67295">
        <ele>80.461</ele>
        <time>2020-05-14T20:27:59Z</time>
      </trkpt>
      <trkpt lat="43.20193" lon="-1.67301">
        <ele>80.417</ele>
        <time>2020-05-14T20:28:19Z</time>
      </trkpt>
      <trkpt lat="43.2019" lon="-1.67305">
        <ele>80.487</ele>
        <time>2020-05-14T20:28:39Z</time>
      </trkpt>
      <trkpt lat="43.20187" lon="-1.67309">
        <ele>80.515</ele>
        <time>2020-05-14T20:28:59Z</time>
      </trkpt>
      <trkpt lat="43.20183" lon="-1.67313">
        <ele>80.708</ele>
        <time>2020-05-14T20:29:19Z</time>
      </trkpt>
      <trkpt lat="43.20178" lon="-1.67319">
        <ele>80.615</ele>
        <time>2020-05-14T20:29:39Z</time>
      </trkpt>
      <trkpt lat="43.20172" lon="-1.67327">
        <ele>80.21</ele>
        <time>2020-05-14T20:29:59Z</time>
      </trkpt>
      <trkpt lat="43.20167" lon="-1.6733">
        <ele>80.524</ele>
        <time>2020-05-14T20:30:19Z</time>
      </trkpt>
      <trkpt lat="43.20163" lon="-1.67334">
        <ele>80.332</ele>
        <time>2020-05-14T20:30:39Z</time>
      </trkpt>
      <trkpt lat="43.20155" lon="-1.6734">
        <ele>80.277</ele>
        <time>2020-05-14T20:30:59Z</time>
      </trkpt>
      <trkpt lat="43.20149" lon="-1.67344">
        <ele>80.487</ele>
        <time>2020-05-14T20:31:19Z</time>
      </trkpt>
      <trkpt lat="43.20138" lon="-1.6735">
        <ele>80.834</ele>
        <time>2020-05-14T20:31:39Z</time>
      </trkpt>
      <trkpt lat="43.2013" lon="-1.67355">
        <ele>80.766</ele>
        <time>2020-05-14T20:31:59Z</time>
      </trkpt>
      <trkpt lat="43.20114" lon="-1.67362">
        <ele>80.895</ele>
        <time>2020-05-14T20:32:19Z</time>
      </trkpt>
      <trkpt lat="43.20099" lon="-1.6737">
        <ele>81.349</ele>
        <time>2020-05-14T20:32:39Z</time>
      </trkpt>
      <trkpt lat="43.20091" lon="-1.67373">
        <ele>81.523</ele>
        <time>2020-05-14T20:32:59Z</time>
      </trkpt>
      <trkpt lat="43.20082" lon="-1.67377">
        <ele>81.308</ele>
        <time>2020-05-14T20:33:19Z</time>
      </trkpt>
      <trkpt lat="43.20075" lon="-1.67379">
        <ele>81.293</ele>
        <time>2020-05-14T20:33:39Z</time>
      </trkpt>
      <trkpt lat="43.20068" lon="-1.67381">
        <ele>81.238</ele>
        <time>2020-05-14T20:33:59Z</time>
      </trkpt>
      <trkpt lat="43.20065" lon="-1.67382">
        <ele>81.252</ele>
        <time>2020-05-14T20:34:19Z</time>
      </trkpt>
      <trkpt lat="43.20061" lon="-1.67383">
        <ele>81.16</ele>
        <time>2020-05-14T20:34:39Z</time>
      </trkpt>
      <trkpt lat="43.20058" lon="-1.67383">
        <ele>81.185</ele>
        <time>2020-05-14T20:34:59Z</time>
      </trkpt>
      <trkpt lat="43.20054" lon="-1.67384">
        <ele>81.075</ele>
        <time>2020-05-14T20:35:19Z</time>
      </trkpt>
      <trkpt lat="43.20047" lon="-1.67384">
        <ele>81.062</ele>
        <time>2020-05-14T20:35:39Z</time>
      </trkpt>
      <trkpt lat="43.20043" lon="-1.67383">
        <ele>81.144</ele>
        <time>2020-05-14T20:35:59Z</time>
      </trkpt>
      <trkpt lat="43.2004" lon="-1.67383">
        <ele>81.134</ele>
        <time>2020-05-14T20:36:19Z</time>
      </trkpt>
      <trkpt lat="43.20037" lon="-1.67382">
        <ele>81.155</ele>
        <time>2020-05-14T20:36:39Z</time>
      </trkpt>
      <trkpt lat="43.20034" lon="-1.67381">
        <ele>81.11</ele>
        <time>2020-05-14T20:36:59Z</time>
      </trkpt>
      <trkpt lat="43.20027" lon="-1.67378">
        <ele>81.208</ele>
        <time>2020-05-14T20:37:19Z</time>
      </trkpt>
      <trkpt lat="43.20019" lon="-1.67375">
        <ele>81.937</ele>
        <time>2020-05-14T20:37:39Z</time>
      </trkpt>
      <trkpt lat="43.20011" lon="-1.67371">
        <ele>81.372</ele>
        <time>2020-05-14T20:37:59Z</time>
      </trkpt>
      <trkpt lat="43.20009" lon="-1.6737">
        <ele>81.956</ele>
        <time>2020-05-14T20:38:19Z</time>
      </trkpt>
      <trkpt lat="43.20007" lon="-1.67368">
        <ele>81.434</ele>
        <time>2020-05-14T20:38:39Z</time>
      </trkpt>
      <trkpt lat="43.19993" lon="-1.67358">
        <ele>81.469</ele>
        <time>2020-05-14T20:38:59Z</time>
      </trkpt>
      <trkpt lat="43.19991" lon="-1.67355">
        <ele>81.699</ele>
        <time>2020-05-14T20:39:19Z</time>
      </trkpt>
      <trkpt lat="43.19987" lon="-1.67353">
        <ele>81.696</ele>
        <time>2020-05-14T20:39:39Z</time>
      </trkpt>
      <trkpt lat="43.19986" lon="-1.67351">
        <ele>81.648</ele>
        <time>2020-05-14T20:39:59Z</time>
      </trkpt>
      <trkpt lat="43.19979" lon="-1.67343">
        <ele>81.569</ele>
        <time>2020-05-14T20:40:19Z</time>
      </trkpt>
      <trkpt lat="43.19974" lon="-1.67336">
        <ele>81.104</ele>
        <time>2020-05-14T20:40:39Z</time>
      </trkpt>
      <trkpt lat="43.19972" lon="-1.67334">
        <ele>81.724</ele>
        <time>2020-05-14T20:40:59Z</time>
      </trkpt>
      <trkpt lat="43.19967" lon="-1.67326">
        <ele>81.708</ele>
        <time>2020-05-14T20:41:19Z</time>
      </trkpt>
      <trkpt lat="43.19958" lon="-1.67313">
        <ele>81.94</ele>
        <time>2020-05-14T20:41:39Z</time>
      </trkpt>
      <trkpt lat="43.19954" lon="-1.67306">
        <ele>82.125</ele>
        <time>2020-05-14T20:41:59Z</time>
      </trkpt>
      <trkpt lat="43.19953" lon="-1.67303">
        <ele>82.129</ele>
        <time>2020-05-14T20:42:19Z</time>
      </trkpt>
      <trkpt lat="43.19951" lon="-1.673">
        <ele>82.187</ele>
        <time>2020-05-14T20:42:39Z</time>
      </trkpt>
      <trkpt lat="43.19951" lon="-1.67297">
        <ele>82.142</ele>
        <time>2020-05-14T20:42:59Z</time>
      </trkpt>
      <trkpt lat="43.1995" lon="-1.67295">
        <ele>82.132</ele>
        <time>2020-05-14T20:43:19Z</time>
      </trkpt>
      <trkpt lat="43.19949" lon="-1.67292">
        <ele>82.149</ele>
        <time>2020-05-14T20:43:39Z</time>
      </trkpt>
      <trkpt lat="43.19949" lon="-1.67289">
        <ele>82.171</ele>
        <time>2020-05-14T20:43:59Z</time>
      </trkpt>
      <trkpt lat="43.19947" lon="-1.6728">
        <ele>81.981</ele>
        <time>2020-05-14T20:44:19Z</time>
      </trkpt>
      <trkpt lat="43.19748" lon="-1.67203">
        <ele>84.061</ele>
        <time>2020-05-14T20:44:39Z</time>
      </trkpt>
      <trkpt lat="43.19741" lon="-1.67206">
        <ele>83.717</ele>
        <time>2020-05-14T20:44:59Z</time>
      </trkpt>
      <trkpt lat="43.19728" lon="-1.67213">
        <ele>83.808</ele>
        <time>2020-05-14T20:45:19Z</time>
      </trkpt>
      <trkpt lat="43.19722" lon="-1.67215">
        <ele>84.232</ele>
        <time>2020-05-14T20:45:39Z</time>
      </trkpt>
      <trkpt lat="43.19711" lon="-1.67219">
        <ele>83.817</ele>
        <time>2020-05-14T20:45:59Z</time>
      </trkpt>
      <trkpt lat="43.19702" lon="-1.67222">
        <ele>84.331</ele>
        <time>2020-05-14T20:46:19Z</time>
      </trkpt>
      <trkpt lat="43.19693" lon="-1.67224">
        <ele>84.239</ele>
        <time>2020-05-14T20:46:39Z</time>
      </trkpt>
      <trkpt lat="43.19684" lon="-1.67226">
        <ele>84.344</ele>
        <time>2020-05-14T20:46:59Z</time>
      </trkpt>
      <trkpt lat="43.19672" lon="-1.67227">
        <ele>84.394</ele>
        <time>2020-05-14T20:47:19Z</time>
      </trkpt>
      <trkpt lat="43.19659" lon="-1.67226">
        <ele>84.651</ele>
        <time>2020-05-14T20:47:39Z</time>
      </trkpt>
      <trkpt lat="43.19649" lon="-1.67224">
        <ele>84.953</ele>
        <time>2020-05-14T20:47:59Z</time>
      </trkpt>
      <trkpt lat="43.19642" lon="-1.67223">
        <ele>85.059</ele>
        <time>2020-05-14T20:48:19Z</time>
      </trkpt>
      <trkpt lat="43.19638" lon="-1.67221">
        <ele>84.903</ele>
        <time>2020-05-14T20:48:39Z</time>
      </trkpt>
      <trkpt lat="43.19631" lon="-1.67217">
        <ele>85.423</ele>
        <time>2020-05-14T20:48:59Z</time>
      </trkpt>
      <trkpt lat="43.19629" lon="-1.67216">
        <ele>84.608</ele>
        <time>2020-05-14T20:49:19Z</time>
      </trkpt>
      <trkpt lat="43.19627" lon="-1.67215">
        <ele>84.699</ele>
        <time>2020-05-14T20:49:39Z</time>
      </trkpt>
      <trkpt lat="43.19611" lon="-1.67205">
        <ele>84.994</ele>
        <time>2020-05-14T20:49:59Z</time>
      </trkpt>
      <trkpt lat="43.19594" lon="-1.67193">
        <ele>85.198</ele>
        <time>2020-05-14T20:50:19Z</time>
      </trkpt>
      <trkpt lat="43.19586" lon="-1.67187">
        <ele>85.756</ele>
        <time>2020-05-14T20:50:39Z</time>
      </trkpt>
      <trkpt lat="43.1958" lon="-1.67183">
        <ele>91.421</ele>
        <time>2020-05-14T20:50:59Z</time>
      </trkpt>
      <trkpt lat="43.19576" lon="-1.67179">
        <ele>85.441</ele>
        <time>2020-05-14T20:51:19Z</time>
      </trkpt>
      <trkpt lat="43.19573" lon="-1.67176">
        <ele>85.528</ele>
        <time>2020-05-14T20:51:39Z</time>
      </trkpt>
      <trkpt lat="43.19566" lon="-1.67169">
        <ele>85.82</ele>
        <time>2020-05-14T20:51:59Z</time>
      </trkpt>
      <trkpt lat="43.19557" lon="-1.67161">
        <ele>85.941</ele>
        <time>2020-05-14T20:52:19Z</time>
      </trkpt>
      <trkpt lat="43.19553" lon="-1.67156">
        <ele>85.781</ele>
        <time>2020-05-14T20:52:39Z</time>
      </trkpt>
      <trkpt lat="43.19547" lon="-1.67149">
        <ele>85.609</ele>
        <time>2020-05-14T20:52:59Z</time>
      </trkpt>
      <trkpt lat="43.19543" lon="-1.67144">
        <ele>86.008</ele>
        <time>2020-05-14T20:53:19Z</time>
      </trkpt>
      <trkpt lat="43.1954" lon="-1.6714">
        <ele>86.068</ele>
        <time>2020-05-14T20:53:39Z</time>
      </trkpt>
      <trkpt lat="43.19537" lon="-1.67136">
        <ele>86.023</ele>
        <time>2020-05-14T20:53:59Z</time>
      </trkpt>
      <trkpt lat="43.19527" lon="-1.6712">
        <ele>85.917</ele>
        <time>2020-05-14T20:54:19Z</time>
      </trkpt>
      <trkpt lat="43.19521" lon="-1.67109">
        <ele>86.445</ele>
        <time>2020-05-14T20:54:39Z</time>
      </trkpt>
      <trkpt lat="43.19516" lon="-1.67099">
        <ele>86.13</ele>
        <time>2020-05-14T20:54:59Z</time>
      </trkpt>
      <trkpt lat="43.1951" lon="-1.67088">
        <ele>86.18</ele>
        <time>2020-05-14T20:55:19Z</time>
      </trkpt>
      <trkpt lat="43.19503" lon="-1.67073">
        <ele>90.317</ele>
        <time>2020-05-14T20:55:39Z</time>
      </trkpt>
      <trkpt lat="43.19495" lon="-1.67057">
        <ele>86.199</ele>
        <time>2020-05-14T20:55:59Z</time>
      </trkpt>
      <trkpt lat="43.19492" lon="-1.67052">
        <ele>86.139</ele>
        <time>2020-05-14T20:56:19Z</time>
      </trkpt>
      <trkpt lat="43.1949" lon="-1.67047">
        <ele>86.401</ele>
        <time>2020-05-14T20:56:39Z</time>
      </trkpt>
      <trkpt lat="43.19482" lon="-1.67027">
        <ele>86.521</ele>
        <time>2020-05-14T20:56:59Z</time>
      </trkpt>
      <trkpt lat="43.19478" lon="-1.67016">
        <ele>86.608</ele>
        <time>2020-05-14T20:57:19Z</time>
      </trkpt>
      <trkpt lat="43.19476" lon="-1.6701">
        <ele>86.747</ele>
        <time>2020-05-14T20:57:39Z</time>
      </trkpt>
      <trkpt lat="43.19475" lon="-1.67005">
        <ele>86.942</ele>
        <time>2020-05-14T20:57:59Z</time>
      </trkpt>
      <trkpt lat="43.19474" lon="-1.67001">
        <ele>86.816</ele>
        <time>2020-05-14T20:58:19Z</time>
      </trkpt>
      <trkpt lat="43.19473" lon="-1.66997">
        <ele>86.944</ele>
        <time>2020-05-14T20:58:39Z</time>
      </trkpt>
      <trkpt lat="43.19472" lon="-1.66988">
        <ele>86.939</ele>
        <time>2020-05-14T20:58:59Z</time>
      </trkpt>
      <trkpt lat="43.1947" lon="-1.66971">
        <ele>87.229</ele>
        <time>2020-05-14T20:59:19Z</time>
      </trkpt>
      <trkpt lat="43.19469" lon="-1.66956">
        <ele>87.426</ele>
        <time>2020-05-14T20:59:39Z</time>
      </trkpt>
      <trkpt lat="43.19469" lon="-1.66949">
        <ele>87.538</ele>
        <time>2020-05-14T20:59:59Z</time>
      </trkpt>
      <trkpt lat="43.19468" lon="-1.66933">
        <ele>87.557</ele>
        <time>2020-05-14T21:00:19Z</time>
      </trkpt>
      <trkpt lat="43.19468" lon="-1.66911">
        <ele>87.6</ele>
        <time>2020-05-14T21:00:39Z</time>
      </trkpt>
      <trkpt lat="43.19468" lon="-1.66901">
        <ele>88.62</ele>
        <time>2020-05-14T21:00:59Z</time>
      </trkpt>
      <trkpt lat="43.19468" lon="-1.66892">
        <ele>89.508</ele>
        <time>2020-05-14T21:01:19Z</time>
      </trkpt>
      <trkpt lat="43.19468" lon="-1.66884">
        <ele>90.529</ele>
        <time>2020-05-14T21:01:39Z</time>
      </trkpt>
      <trkpt lat="43.19469" lon="-1.66858">
        <ele>87.714</ele>
        <time>2020-05-14T21:01:59Z</time>
      </trkpt>
      <trkpt lat="43.1947" lon="-1.66833">
        <ele>87.698</ele>
        <time>2020-05-14T21:02:19Z</time>
      </trkpt>
      <trkpt lat="43.1947" lon="-1.66826">
        <ele>87.626</ele>
        <time>2020-05-14T21:02:39Z</time>
      </trkpt>
      <trkpt lat="43.19471" lon="-1.66807">
        <ele>87.871</ele>
        <time>2020-05-14T21:02:59Z</time>
      </trkpt>
      <trkpt lat="43.19472" lon="-1.66794">
        <ele>87.921</ele>
        <time>2020-05-14T21:03:19Z</time>
      </trkpt>
      <trkpt lat="43.19472" lon="-1.66783">
        <ele>88.028</ele>
        <time>2020-05-14T21:03:39Z</time>
      </trkpt>
      <trkpt lat="43.19473" lon="-1.66768">
        <ele>88.02</ele>
        <time>2020-05-14T21:03:59Z</time>
      </trkpt>
      <trkpt lat="43.19474" lon="-1.6674">
        <ele>88.275</ele>
        <time>2020-05-14T21:04:19Z</time>
      </trkpt>
      <trkpt lat="43.19475" lon="-1.66716">
        <ele>88.528</ele>
        <time>2020-05-14T21:04:39Z</time>
      </trkpt>
      <trkpt lat="43.19475" lon="-1.66708">
        <ele>88.62</ele>
        <time>2020-05-14T21:04:59Z</time>
      </trkpt>
      <trkpt lat="43.19475" lon="-1.66701">
        <ele>88.608</ele>
        <time>2020-05-14T21:05:19Z</time>
      </trkpt>
      <trkpt lat="43.19475" lon="-1.66698">
        <ele>88.671</ele>
        <time>2020-05-14T21:05:39Z</time>
      </trkpt>
      <trkpt lat="43.19475" lon="-1.66695">
        <ele>88.796</ele>
        <time>2020-05-14T21:05:59Z</time>
      </trkpt>
      <trkpt lat="43.19475" lon="-1.66692">
        <ele>88.72</ele>
        <time>2020-05-14T21:06:19Z</time>
      </trkpt>
      <trkpt lat="43.19475" lon="-1.66689">
        <ele>88.868</ele>
        <time>2020-05-14T21:06:39Z</time>
      </trkpt>
      <trkpt lat="43.19474" lon="-1.66683">
        <ele>88.873</ele>
        <time>2020-05-14T21:06:59Z</time>
      </trkpt>
      <trkpt lat="43.19473" lon="-1.66678">
        <ele>88.963</ele>
        <time>2020-05-14T21:07:19Z</time>
      </trkpt>
      <trkpt lat="43.19469" lon="-1.66662">
        <ele>88.94</ele>
        <time>2020-05-14T21:07:39Z</time>
      </trkpt>
      <trkpt lat="43.19467" lon="-1.66657">
        <ele>88.922</ele>
        <time>2020-05-14T21:07:59Z</time>
      </trkpt>
      <trkpt lat="43.19466" lon="-1.66653">
        <ele>88.899</ele>
        <time>2020-05-14T21:08:19Z</time>
      </trkpt>
      <trkpt lat="43.19462" lon="-1.66643">
        <ele>89.107</ele>
        <time>2020-05-14T21:08:39Z</time>
      </trkpt>
      <trkpt lat="43.19459" lon="-1.66633">
        <ele>89.427</ele>
        <time>2020-05-14T21:08:59Z</time>
      </trkpt>
      <trkpt lat="43.19457" lon="-1.66628">
        <ele>89.708</ele>
        <time>2020-05-14T21:09:19Z</time>
      </trkpt>
      <trkpt lat="43.19456" lon="-1.66622">
        <ele>89.783</ele>
        <time>2020-05-14T21:09:39Z</time>
      </trkpt>
      <trkpt lat="43.19454" lon="-1.66614">
        <ele>89.658</ele>
        <time>2020-05-14T21:09:59Z</time>
      </trkpt>
      <trkpt lat="43.19453" lon="-1.66604">
        <ele>89.722</ele>
        <time>2020-05-14T21:10:19Z</time>
      </trkpt>
      <trkpt lat="43.19451" lon="-1.66591">
        <ele>89.96</ele>
        <time>2020-05-14T21:10:39Z</time>
      </trkpt>
      <trkpt lat="43.19449" lon="-1.66579">
        <ele>89.685</ele>
        <time>2020-05-14T21:10:59Z</time>
      </trkpt>
      <trkpt lat="43.19449" lon="-1.66576">
        <ele>89.665</ele>
        <time>2020-05-14T21:11:19Z</time>
      </trkpt>
      <trkpt lat="43.19447" lon="-1.66571">
        <ele>91.452</ele>
        <time>2020-05-14T21:11:39Z</time>
      </trkpt>
      <trkpt lat="43.19444" lon="-1.66562">
        <ele>89.224</ele>
        <time>2020-05-14T21:11:59Z</time>
      </trkpt>
      <trkpt lat="43.19443" lon="-1.66561">
        <ele>89.211</ele>
        <time>2020-05-14T21:12:19Z</time>
      </trkpt>
      <trkpt lat="43.19442" lon="-1.66559">
        <ele>89.421</ele>
        <time>2020-05-14T21:12:39Z</time>
      </trkpt>
      <trkpt lat="43.1944" lon="-1.66556">
        <ele>89.403</ele>
        <time>2020-05-14T21:12:59Z</time>
      </trkpt>
      <trkpt lat="43.19437" lon="-1.66554">
        <ele>89.408</ele>
        <time>2020-05-14T21:13:19Z</time>
      </trkpt>
      <trkpt lat="43.19435" lon="-1.66552">
        <ele>89.495</ele>
        <time>2020-05-14T21:13:39Z</time>
      </trkpt>
      <trkpt lat="43.19432" lon="-1.66551">
        <ele>90.61</ele>
        <time>2020-05-14T21:13:59Z</time>
      </trkpt>
      <trkpt lat="43.19428" lon="-1.66551">
        <ele>90.284</ele>
        <time>2020-05-14T21:14:19Z</time>
      </trkpt>
      <trkpt lat="43.19414" lon="-1.66554">
        <ele>89.812</ele>
        <time>2020-05-14T21:14:39Z</time>
      </trkpt>
      <trkpt lat="43.19397" lon="-1.66558">
        <ele>90.417</ele>
        <time>2020-05-14T21:14:59Z</time>
      </trkpt>
      <trkpt lat="43.19389" lon="-1.66559">
        <ele>90.147</ele>
        <time>2020-05-14T21:15:19Z</time>
      </trkpt>
      <trkpt lat="43.19384" lon="-1.6656">
        <ele>90.254</ele>
        <time>2020-05-14T21:15:39Z</time>
      </trkpt>
      <trkpt lat="43.19377" lon="-1.66562">
        <ele>90.236</ele>
        <time>2020-05-14T21:15:59Z</time>
      </trkpt>
      <trkpt lat="43.1937" lon="-1.66563">
        <ele>90.294</ele>
        <time>2020-05-14T21:16:19Z</time>
      </trkpt>
      <trkpt lat="43.19354" lon="-1.66565">
        <ele>90.557</ele>
        <time>2020-05-14T21:16:39Z</time>
      </trkpt>
      <trkpt lat="43.19349" lon="-1.66567">
        <ele>90.522</ele>
        <time>2020-05-14T21:16:59Z</time>
      </trkpt>
      <trkpt lat="43.19344" lon="-1.66568">
        <ele>90.608</ele>
        <time>2020-05-14T21:17:19Z</time>
      </trkpt>
      <trkpt lat="43.19339" lon="-1.6657">
        <ele>90.733</ele>
        <time>2020-05-14T21:17:39Z</time>
      </trkpt>
      <trkpt lat="43.19332" lon="-1.66573">
        <ele>95.928</ele>
        <time>2020-05-14T21:17:59Z</time>
      </trkpt>
      <trkpt lat="43.19328" lon="-1.66575">
        <ele>91.152</ele>
        <time>2020-05-14T21:18:19Z</time>
      </trkpt>
      <trkpt lat="43.19315" lon="-1.66583">
        <ele>91.22</ele>
        <time>2020-05-14T21:18:39Z</time>
      </trkpt>
      <trkpt lat="43.19304" lon="-1.66589">
        <ele>91.335</ele>
        <time>2020-05-14T21:18:59Z</time>
      </trkpt>
      <trkpt lat="43.19285" lon="-1.666">
        <ele>91.395</ele>
        <time>2020-05-14T21:19:19Z</time>
      </trkpt>
      <trkpt lat="43.19265" lon="-1.66611">
        <ele>91.712</ele>
        <time>2020-05-14T21:19:39Z</time>
      </trkpt>
      <trkpt lat="43.19256" lon="-1.66616">
        <ele>91.934</ele>
        <time>2020-05-14T21:19:59Z</time>
      </trkpt>
      <trkpt lat="43.19247" lon="-1.6662">
        <ele>91.582</ele>
        <time>2020-05-14T21:20:19Z</time>
      </trkpt>
      <trkpt lat="43.19239" lon="-1.66624">
        <ele>92.343</ele>
        <time>2020-05-14T21:20:39Z</time>
      </trkpt>
      <trkpt lat="43.19229" lon="-1.66629">
        <ele>92.717</ele>
        <time>2020-05-14T21:20:59Z</time>
      </trkpt>
      <trkpt lat="43.19221" lon="-1.66633">
        <ele>92.208</ele>
        <time>2020-05-14T21:21:19Z</time>
      </trkpt>
      <trkpt lat="43.19218" lon="-1.66635">
        <ele>93.262</ele>
        <time>2020-05-14T21:21:39Z</time>
      </trkpt>
      <trkpt lat="43.19212" lon="-1.66638">
        <ele>92.517</ele>
        <time>2020-05-14T21:21:59Z</time>
      </trkpt>
      <trkpt lat="43.19209" lon="-1.66639">
        <ele>92.511</ele>
        <time>2020-05-14T21:22:19Z</time>
      </trkpt>
      <trkpt lat="43.19208" lon="-1.66639">
        <ele>92.559</ele>
        <time>2020-05-14T21:22:39Z</time>
      </trkpt>
      <trkpt lat="43.19202" lon="-1.66641">
        <ele>92.724</ele>
        <time>2020-05-14T21:22:59Z</time>
      </trkpt>
      <trkpt lat="43.19197" lon="-1.66644">
        <ele>92.644</ele>
        <time>2020-05-14T21:23:19Z</time>
      </trkpt>
      <trkpt lat="43.19184" lon="-1.66648">
        <ele>92.461</ele>
        <time>2020-05-14T21:23:39Z</time>
      </trkpt>
      <trkpt lat="43.19181" lon="-1.66649">
        <ele>93.683</ele>
        <time>2020-05-14T21:23:59Z</time>
      </trkpt>
      <trkpt lat="43.19177" lon="-1.6665">
        <ele>92.725</ele>
        <time>2020-05-14T21:24:19Z</time>
      </trkpt>
      <trkpt lat="43.19167" lon="-1.66656">
        <ele>92.826</ele>
        <time>2020-05-14T21:24:39Z</time>
      </trkpt>
      <trkpt lat="43.19162" lon="-1.66658">
        <ele>92.708</ele>
        <time>2020-05-14T21:24:59Z</time>
      </trkpt>
      <trkpt lat="43.19158" lon="-1.66662">
        <ele>92.508</ele>
        <time>2020-05-14T21:25:19Z</time>
      </trkpt>
      <trkpt lat="43.1915" lon="-1.66665">
        <ele>92.486</ele>
        <time>2020-05-14T21:25:39Z</time>
      </trkpt>
      <trkpt lat="43.19145" lon="-1.66666">
        <ele>92.321</ele>
        <time>2020-05-14T21:25:59Z</time>
      </trkpt>
      <trkpt lat="43.19133" lon="-1.6667">
        <ele>92.485</ele>
        <time>2020-05-14T21:26:19Z</time>
      </trkpt>
      <trkpt lat="43.19125" lon="-1.66672">
        <ele>92.343</ele>
        <time>2020-05-14T21:26:39Z</time>
      </trkpt>
      <trkpt lat="43.19113" lon="-1.66676">
        <ele>92.788</ele>
        <time>2020-05-14T21:26:59Z</time>
      </trkpt>
      <trkpt lat="43.19093" lon="-1.66683">
        <ele>92.748</ele>
        <time>2020-05-14T21:27:19Z</time>
      </trkpt>
      <trkpt lat="43.19091" lon="-1.66684">
        <ele>92.725</ele>
        <time>2020-05-14T21:27:39Z</time>
      </trkpt>
      <trkpt lat="43.19083" lon="-1.66687">
        <ele>92.697</ele>
        <time>2020-05-14T21:27:59Z</time>
      </trkpt>
      <trkpt lat="43.19081" lon="-1.66688">
        <ele>92.623</ele>
        <time>2020-05-14T21:28:19Z</time>
      </trkpt>
      <trkpt lat="43.19078" lon="-1.6669">
        <ele>92.583</ele>
        <time>2020-05-14T21:28:39Z</time>
      </trkpt>
      <trkpt lat="43.19075" lon="-1.66691">
        <ele>92.511</ele>
        <time>2020-05-14T21:28:59Z</time>
      </trkpt>
      <trkpt lat="43.19073" lon="-1.66694">
        <ele>92.508</ele>
        <time>2020-05-14T21:29:19Z</time>
      </trkpt>
      <trkpt lat="43.1907" lon="-1.66697">
        <ele>92.656</ele>
        <time>2020-05-14T21:29:39Z</time>
      </trkpt>
      <trkpt lat="43.19062" lon="-1.66711">
        <ele>93.211</ele>
        <time>2020-05-14T21:29:59Z</time>
      </trkpt>
      <trkpt lat="43.19048" lon="-1.66732">
        <ele>99.075</ele>
        <time>2020-05-14T21:30:19Z</time>
      </trkpt>
      <trkpt lat="43.1904" lon="-1.66746">
        <ele>95.763</ele>
        <time>2020-05-14T21:30:39Z</time>
      </trkpt>
      <trkpt lat="43.19036" lon="-1.66752">
        <ele>95.728</ele>
        <time>2020-05-14T21:30:59Z</time>
      </trkpt>
      <trkpt lat="43.19031" lon="-1.66761">
        <ele>92.668</ele>
        <time>2020-05-14T21:31:19Z</time>
      </trkpt>
      <trkpt lat="43.19029" lon="-1.66768">
        <ele>92.815</ele>
        <time>2020-05-14T21:31:39Z</time>
      </trkpt>
      <trkpt lat="43.19028" lon="-1.66773">
        <ele>92.637</ele>
        <time>2020-05-14T21:31:59Z</time>
      </trkpt>
      <trkpt lat="43.19026" lon="-1.66787">
        <ele>92.443</ele>
        <time>2020-05-14T21:32:19Z</time>
      </trkpt>
      <trkpt lat="43.19024" lon="-1.66799">
        <ele>92.864</ele>
        <time>2020-05-14T21:32:39Z</time>
      </trkpt>
      <trkpt lat="43.19024" lon="-1.66806">
        <ele>92.61</ele>
        <time>2020-05-14T21:32:59Z</time>
      </trkpt>
      <trkpt lat="43.19024" lon="-1.66813">
        <ele>92.808</ele>
        <time>2020-05-14T21:33:19Z</time>
      </trkpt>
      <trkpt lat="43.19024" lon="-1.66814">
        <ele>92.838</ele>
        <time>2020-05-14T21:33:39Z</time>
      </trkpt>
      <trkpt lat="43.19024" lon="-1.66822">
        <ele>92.873</ele>
        <time>2020-05-14T21:33:59Z</time>
      </trkpt>
      <trkpt lat="43.19023" lon="-1.66829">
        <ele>92.857</ele>
        <time>2020-05-14T21:34:19Z</time>
      </trkpt>
      <trkpt lat="43.19023" lon="-1.66832">
        <ele>92.845</ele>
        <time>2020-05-14T21:34:39Z</time>
      </trkpt>
      <trkpt lat="43.19025" lon="-1.6686">
        <ele>92.52</ele>
        <time>2020-05-14T21:34:59Z</time>
      </trkpt>
      <trkpt lat="43.19028" lon="-1.66898">
        <ele>92.35</ele>
        <time>2020-05-14T21:35:19Z</time>
      </trkpt>
      <trkpt lat="43.19031" lon="-1.66958">
        <ele>92.367</ele>
        <time>2020-05-14T21:35:39Z</time>
      </trkpt>
      <trkpt lat="43.19035" lon="-1.67027">
        <ele>92.089</ele>
        <time>2020-05-14T21:35:59Z</time>
      </trkpt>
      <trkpt lat="43.19036" lon="-1.67044">
        <ele>92.026</ele>
        <time>2020-05-14T21:36:19Z</time>
      </trkpt>
      <trkpt lat="43.19036" lon="-1.67048">
        <ele>92.047</ele>
        <time>2020-05-14T21:36:39Z</time>
      </trkpt>
      <trkpt lat="43.19036" lon="-1.6705">
        <ele>92.011</ele>
        <time>2020-05-14T21:36:59Z</time>
      </trkpt>
      <trkpt lat="43.19037" lon="-1.67055">
        <ele>92.008</ele>
        <time>2020-05-14T21:37:19Z</time>
      </trkpt>
      <trkpt lat="43.19037" lon="-1.67058">
        <ele>92.076</ele>
        <time>2020-05-14T21:37:39Z</time>
      </trkpt>
      <trkpt lat="43.19037" lon="-1.67061">
        <ele>92.031</ele>
        <time>2020-05-14T21:37:59Z</time>
      </trkpt>
      <trkpt lat="43.19037" lon="-1.67066">
        <ele>91.935</ele>
        <time>2020-05-14T21:38:19Z</time>
      </trkpt>
      <trkpt lat="43.19037" lon="-1.6707">
        <ele>91.813</ele>
        <time>2020-05-14T21:38:39Z</time>
      </trkpt>
      <trkpt lat="43.19038" lon="-1.67071">
        <ele>91.898</ele>
        <time>2020-05-14T21:38:59Z</time>
      </trkpt>
      <trkpt lat="43.19037" lon="-1.67073">
        <ele>91.888</ele>
        <time>2020-05-14T21:39:19Z</time>
      </trkpt>
      <trkpt lat="43.19038" lon="-1.67085">
        <ele>91.865</ele>
        <time>2020-05-14T21:39:39Z</time>
      </trkpt>
      <trkpt lat="43.19041" lon="-1.6714">
        <ele>92.287</ele>
        <time>2020-05-14T21:39:59Z</time>
      </trkpt>
      <trkpt lat="43.19042" lon="-1.67152">
        <ele>92.159</ele>
        <time>2020-05-14T21:40:19Z</time>
      </trkpt>
      <trkpt lat="43.19042" lon="-1.67163">
        <ele>92.103</ele>
        <time>2020-05-14T21:40:39Z</time>
      </trkpt>
      <trkpt lat="43.19043" lon="-1.67174">
        <ele>92.323</ele>
        <time>2020-05-14T21:40:59Z</time>
      </trkpt>
      <trkpt lat="43.19044" lon="-1.67185">
        <ele>92.208</ele>
        <time>2020-05-14T21:41:19Z</time>
      </trkpt>
      <trkpt lat="43.19044" lon="-1.67201">
        <ele>92.389</ele>
        <time>2020-05-14T21:41:39Z</time>
      </trkpt>
      <trkpt lat="43.19044" lon="-1.6721">
        <ele>92.324</ele>
        <time>2020-05-14T21:41:59Z</time>
      </trkpt>
      <trkpt lat="43.19044" lon="-1.67219">
        <ele>92.468</ele>
        <time>2020-05-14T21:42:19Z</time>
      </trkpt>
      <trkpt lat="43.19044" lon="-1.67226">
        <ele>92.416</ele>
        <time>2020-05-14T21:42:39Z</time>
      </trkpt>
      <trkpt lat="43.19043" lon="-1.67233">
        <ele>92.581</ele>
        <time>2020-05-14T21:42:59Z</time>
      </trkpt>
      <trkpt lat="43.19042" lon="-1.67242">
        <ele>94.051</ele>
        <time>2020-05-14T21:43:19Z</time>
      </trkpt>
      <trkpt lat="43.19041" lon="-1.6725">
        <ele>92.668</ele>
        <time>2020-05-14T21:43:39Z</time>
      </trkpt>
      <trkpt lat="43.19038" lon="-1.67264">
        <ele>92.52</ele>
        <time>2020-05-14T21:43:59Z</time>
      </trkpt>
      <trkpt lat="43.19035" lon="-1.67279">
        <ele>92.694</ele>
        <time>2020-05-14T21:44:19Z</time>
      </trkpt>
      <trkpt lat="43.19026" lon="-1.67312">
        <ele>92.357</ele>
        <time>2020-05-14T21:44:39Z</time>
      </trkpt>
      <trkpt lat="43.19018" lon="-1.6734">
        <ele>92.022</ele>
        <time>2020-05-14T21:44:59Z</time>
      </trkpt>
      <trkpt lat="43.19011" lon="-1.67368">
        <ele>92.708</ele>
        <time>2020-05-14T21:45:19Z</time>
      </trkpt>
      <trkpt lat="43.19004" lon="-1.67393">
        <ele>92.283</ele>
        <time>2020-05-14T21:45:39Z</time>
      </trkpt>
      <trkpt lat="43.18996" lon="-1.6742">
        <ele>92.048</ele>
        <time>2020-05-14T21:45:59Z</time>
      </trkpt>
      <trkpt lat="43.18982" lon="-1.67471">
        <ele>92.162</ele>
        <time>2020-05-14T21:46:19Z</time>
      </trkpt>
      <trkpt lat="43.18979" lon="-1.67479">
        <ele>91.99</ele>
        <time>2020-05-14T21:46:39Z</time>
      </trkpt>
      <trkpt lat="43.18976" lon="-1.67487">
        <ele>91.945</ele>
        <time>2020-05-14T21:46:59Z</time>
      </trkpt>
      <trkpt lat="43.18971" lon="-1.67499">
        <ele>91.885</ele>
        <time>2020-05-14T21:47:19Z</time>
      </trkpt>
      <trkpt lat="43.18965" lon="-1.6751">
        <ele>92.142</ele>
        <time>2020-05-14T21:47:39Z</time>
      </trkpt>
      <trkpt lat="43.18958" lon="-1.67523">
        <ele>92.294</ele>
        <time>2020-05-14T21:47:59Z</time>
      </trkpt>
      <trkpt lat="43.18946" lon="-1.67542">
        <ele>92.617</ele>
        <time>2020-05-14T21:48:19Z</time>
      </trkpt>
      <trkpt lat="43.18938" lon="-1.67551">
        <ele>92.487</ele>
        <time>2020-05-14T21:48:39Z</time>
      </trkpt>
      <trkpt lat="43.18926" lon="-1.67561">
        <ele>92.515</ele>
        <time>2020-05-14T21:48:59Z</time>
      </trkpt>
      <trkpt lat="43.18919" lon="-1.67566">
        <ele>93.108</ele>
        <time>2020-05-14T21:49:19Z</time>
      </trkpt>
      <trkpt lat="43.18913" lon="-1.6757">
        <ele>92.515</ele>
        <time>2020-05-14T21:49:39Z</time>
      </trkpt>
      <trkpt lat="43.18903" lon="-1.67575">
        <ele>92.75</ele>
        <time>2020-05-14T21:49:59Z</time>
      </trkpt>
      <trkpt lat="43.18897" lon="-1.67578">
        <ele>92.794</ele>
        <time>2020-05-14T21:50:19Z</time>
      </trkpt>
      <trkpt lat="43.18891" lon="-1.6758">
        <ele>92.812</ele>
        <time>2020-05-14T21:50:39Z</time>
      </trkpt>
      <trkpt lat="43.18887" lon="-1.67581">
        <ele>92.887</ele>
        <time>2020-05-14T21:50:59Z</time>
      </trkpt>
      <trkpt lat="43.18884" lon="-1.67582">
        <ele>92.717</ele>
        <time>2020-05-14T21:51:19Z</time>
      </trkpt>
      <trkpt lat="43.1887" lon="-1.67584">
        <ele>92.994</ele>
        <time>2020-05-14T21:51:39Z</time>
      </trkpt>
      <trkpt lat="43.18867" lon="-1.67584">
        <ele>92.986</ele>
        <time>2020-05-14T21:51:59Z</time>
      </trkpt>
      <trkpt lat="43.18863" lon="-1.67584">
        <ele>92.928</ele>
        <time>2020-05-14T21:52:19Z</time>
      </trkpt>
      <trkpt lat="43.18856" lon="-1.67584">
        <ele>92.889</ele>
        <time>2020-05-14T21:52:39Z</time>
      </trkpt>
      <trkpt lat="43.18847" lon="-1.67583">
        <ele>92.817</ele>
        <time>2020-05-14T21:52:59Z</time>
      </trkpt>
      <trkpt lat="43.18841" lon="-1.6758">
        <ele>93.108</ele>
        <time>2020-05-14T21:53:19Z</time>
      </trkpt>
      <trkpt lat="43.18834" lon="-1.67578">
        <ele>93.066</ele>
        <time>2020-05-14T21:53:39Z</time>
      </trkpt>
      <trkpt lat="43.18827" lon="-1.67575">
        <ele>93.371</ele>
        <time>2020-05-14T21:53:59Z</time>
      </trkpt>
      <trkpt lat="43.18821" lon="-1.67572">
        <ele>93.225</ele>
        <time>2020-05-14T21:54:19Z</time>
      </trkpt>
      <trkpt lat="43.18798" lon="-1.67559">
        <ele>93.743</ele>
        <time>2020-05-14T21:54:39Z</time>
      </trkpt>
      <trkpt lat="43.18783" lon="-1.67547">
        <ele>93.968</ele>
        <time>2020-05-14T21:54:59Z</time>
      </trkpt>
      <trkpt lat="43.18779" lon="-1.67542">
        <ele>93.898</ele>
        <time>2020-05-14T21:55:19Z</time>
      </trkpt>
      <trkpt lat="43.18776" lon="-1.67537">
        <ele>93.915</ele>
        <time>2020-05-14T21:55:39Z</time>
      </trkpt>
      <trkpt lat="43.18771" lon="-1.67529">
        <ele>94.097</ele>
        <time>2020-05-14T21:55:59Z</time>
      </trkpt>
      <trkpt lat="43.18767" lon="-1.67521">
        <ele>94.221</ele>
        <time>2020-05-14T21:56:19Z</time>
      </trkpt>
      <trkpt lat="43.18761" lon="-1.67507">
        <ele>94.241</ele>
        <time>2020-05-14T21:56:39Z</time>
      </trkpt>
      <trkpt lat="43.18754" lon="-1.67491">
        <ele>94.305</ele>
        <time>2020-05-14T21:56:59Z</time>
      </trkpt>
      <trkpt lat="43.18754" lon="-1.67491">
        <ele>94.308</ele>
        <time>2020-05-14T21:57:19Z</time>
      </trkpt>
      <trkpt lat="43.18737" lon="-1.67443">
        <ele>94.676</ele>
        <time>2020-05-14T21:57:39Z</time>
      </trkpt>
      <trkpt lat="43.18735" lon="-1.6744">
        <ele>94.681</ele>
        <time>2020-05-14T21:57:59Z</time>
      </trkpt>
      <trkpt lat="43.18731" lon="-1.67429">
        <ele>94.625</ele>
        <time>2020-05-14T21:58:19Z</time>
      </trkpt>
      <trkpt lat="43.18726" lon="-1.67415">
        <ele>94.893</ele>
        <time>2020-05-14T21:58:39Z</time>
      </trkpt>
      <trkpt lat="43.18719" lon="-1.67395">
        <ele>94.798</ele>
        <time>2020-05-14T21:58:59Z</time>
      </trkpt>
      <trkpt lat="43.18715" lon="-1.67384">
        <ele>94.828</ele>
        <time>2020-05-14T21:59:19Z</time>
      </trkpt>
      <trkpt lat="43.1869" lon="-1.6731">
        <ele>95.325</ele>
        <time>2020-05-14T21:59:39Z</time>
      </trkpt>
      <trkpt lat="43.18668" lon="-1.67246">
        <ele>95.377</ele>
        <time>2020-05-14T21:59:59Z</time>
      </trkpt>
      <trkpt lat="43.18663" lon="-1.67229">
        <ele>95.286</ele>
        <time>2020-05-14T22:00:19Z</time>
      </trkpt>
      <trkpt lat="43.1866" lon="-1.67221">
        <ele>95.16</ele>
        <time>2020-05-14T22:00:39Z</time>
      </trkpt>
      <trkpt lat="43.1865" lon="-1.67194">
        <ele>95.026</ele>
        <time>2020-05-14T22:00:59Z</time>
      </trkpt>
      <trkpt lat="43.18643" lon="-1.67172">
        <ele>95.108</ele>
        <time>2020-05-14T22:01:19Z</time>
      </trkpt>
      <trkpt lat="43.18633" lon="-1.67143">
        <ele>95.172</ele>
        <time>2020-05-14T22:01:39Z</time>
      </trkpt>
      <trkpt lat="43.18625" lon="-1.67121">
        <ele>95.137</ele>
        <time>2020-05-14T22:01:59Z</time>
      </trkpt>
      <trkpt lat="43.18615" lon="-1.67093">
        <ele>95.181</ele>
        <time>2020-05-14T22:02:19Z</time>
      </trkpt>
      <trkpt lat="43.1861" lon="-1.67078">
        <ele>95.029</ele>
        <time>2020-05-14T22:02:39Z</time>
      </trkpt>
      <trkpt lat="43.18609" lon="-1.67075">
        <ele>95.074</ele>
        <time>2020-05-14T22:02:59Z</time>
      </trkpt>
      <trkpt lat="43.18607" lon="-1.67071">
        <ele>95.014</ele>
        <time>2020-05-14T22:03:19Z</time>
      </trkpt>
      <trkpt lat="43.18605" lon="-1.67066">
        <ele>95.031</ele>
        <time>2020-05-14T22:03:39Z</time>
      </trkpt>
      <trkpt lat="43.18593" lon="-1.67044">
        <ele>95.033</ele>
        <time>2020-05-14T22:03:59Z</time>
      </trkpt>
      <trkpt lat="43.1859" lon="-1.67041">
        <ele>95.085</ele>
        <time>2020-05-14T22:04:19Z</time>
      </trkpt>
      <trkpt lat="43.18588" lon="-1.67038">
        <ele>94.889</ele>
        <time>2020-05-14T22:04:39Z</time>
      </trkpt>
      <trkpt lat="43.18584" lon="-1.67033">
        <ele>94.717</ele>
        <time>2020-05-14T22:04:59Z</time>
      </trkpt>
      <trkpt lat="43.18582" lon="-1.67029">
        <ele>94.508</ele>
        <time>2020-05-14T22:05:19Z</time>
      </trkpt>
      <trkpt lat="43.18577" lon="-1.67024">
        <ele>99.772</ele>
        <time>2020-05-14T22:05:39Z</time>
      </trkpt>
      <trkpt lat="43.18577" lon="-1.67024">
        <ele>99.777</ele>
        <time>2020-05-14T22:05:59Z</time>
      </trkpt>
      <trkpt lat="43.18575" lon="-1.67022">
        <ele>99.731</ele>
        <time>2020-05-14T22:06:19Z</time>
      </trkpt>
      <trkpt lat="43.18572" lon="-1.67019">
        <ele>99.939</ele>
        <time>2020-05-14T22:06:39Z</time>
      </trkpt>
      <trkpt lat="43.18569" lon="-1.67016">
        <ele>99.994</ele>
        <time>2020-05-14T22:06:59Z</time>
      </trkpt>
      <trkpt lat="43.18567" lon="-1.67014">
        <ele>99.984</ele>
        <time>2020-05-14T22:07:19Z</time>
      </trkpt>
      <trkpt lat="43.18567" lon="-1.67013">
        <ele>99.921</ele>
        <time>2020-05-14T22:07:39Z</time>
      </trkpt>
      <trkpt lat="43.18565" lon="-1.67011">
        <ele>99.993</ele>
        <time>2020-05-14T22:07:59Z</time>
      </trkpt>
      <trkpt lat="43.18563" lon="-1.67009">
        <ele>99.921</ele>
        <time>2020-05-14T22:08:19Z</time>
      </trkpt>
      <trkpt lat="43.18559" lon="-1.67006">
        <ele>99.641</ele>
        <time>2020-05-14T22:08:39Z</time>
      </trkpt>
      <trkpt lat="43.18557" lon="-1.67003">
        <ele>99.605</ele>
        <time>2020-05-14T22:08:59Z</time>
      </trkpt>
      <trkpt lat="43.18556" lon="-1.67003">
        <ele>99.608</ele>
        <time>2020-05-14T22:09:19Z</time>
      </trkpt>
      <trkpt lat="43.18548" lon="-1.66998">
        <ele>94.626</ele>
        <time>2020-05-14T22:09:39Z</time>
      </trkpt>
      <trkpt lat="43.18543" lon="-1.66995">
        <ele>94.761</ele>
        <time>2020-05-14T22:09:59Z</time>
      </trkpt>
      <trkpt lat="43.18538" lon="-1.66992">
        <ele>94.915</ele>
        <time>2020-05-14T22:10:19Z</time>
      </trkpt>
      <trkpt lat="43.18531" lon="-1.66989">
        <ele>95.373</ele>
        <time>2020-05-14T22:10:39Z</time>
      </trkpt>
      <trkpt lat="43.18524" lon="-1.66987">
        <ele>95.258</ele>
        <time>2020-05-14T22:10:59Z</time>
      </trkpt>
      <trkpt lat="43.18518" lon="-1.66985">
        <ele>95.348</ele>
        <time>2020-05-14T22:11:19Z</time>
      </trkpt>
      <trkpt lat="43.18513" lon="-1.66984">
        <ele>95.325</ele>
        <time>2020-05-14T22:11:39Z</time>
      </trkpt>
      <trkpt lat="43.18504" lon="-1.66983">
        <ele>94.517</ele>
        <time>2020-05-14T22:11:59Z</time>
      </trkpt>
      <trkpt lat="43.18498" lon="-1.66982">
        <ele>94.619</ele>
        <time>2020-05-14T22:12:19Z</time>
      </trkpt>
      <trkpt lat="43.18494" lon="-1.66982">
        <ele>95.009</ele>
        <time>2020-05-14T22:12:39Z</time>
      </trkpt>
      <trkpt lat="43.1849" lon="-1.66982">
        <ele>95.019</ele>
        <time>2020-05-14T22:12:59Z</time>
      </trkpt>
      <trkpt lat="43.18484" lon="-1.66983">
        <ele>95.108</ele>
        <time>2020-05-14T22:13:19Z</time>
      </trkpt>
      <trkpt lat="43.18478" lon="-1.66984">
        <ele>95.295</ele>
        <time>2020-05-14T22:13:39Z</time>
      </trkpt>
      <trkpt lat="43.18466" lon="-1.66986">
        <ele>95.37</ele>
        <time>2020-05-14T22:13:59Z</time>
      </trkpt>
      <trkpt lat="43.18453" lon="-1.66989">
        <ele>95.114</ele>
        <time>2020-05-14T22:14:19Z</time>
      </trkpt>
      <trkpt lat="43.18417" lon="-1.66999">
        <ele>94.992</ele>
        <time>2020-05-14T22:14:39Z</time>
      </trkpt>
      <trkpt lat="43.18393" lon="-1.67006">
        <ele>94.827</ele>
        <time>2020-05-14T22:14:59Z</time>
      </trkpt>
      <trkpt lat="43.18392" lon="-1.67007">
        <ele>94.827</ele>
        <time>2020-05-14T22:15:19Z</time>
      </trkpt>
      <trkpt lat="43.18386" lon="-1.67008">
        <ele>94.994</ele>
        <time>2020-05-14T22:15:39Z</time>
      </trkpt>
      <trkpt lat="43.1838" lon="-1.6701">
        <ele>94.426</ele>
        <time>2020-05-14T22:15:59Z</time>
      </trkpt>
      <trkpt lat="43.1837" lon="-1.67013">
        <ele>94.784</ele>
        <time>2020-05-14T22:16:19Z</time>
      </trkpt>
      <trkpt lat="43.18349" lon="-1.67018">
        <ele>94.807</ele>
        <time>2020-05-14T22:16:39Z</time>
      </trkpt>
      <trkpt lat="43.18339" lon="-1.67021">
        <ele>94.817</ele>
        <time>2020-05-14T22:16:59Z</time>
      </trkpt>
      <trkpt lat="43.18331" lon="-1.67023">
        <ele>94.908</ele>
        <time>2020-05-14T22:17:19Z</time>
      </trkpt>
      <trkpt lat="43.18323" lon="-1.67025">
        <ele>94.972</ele>
        <time>2020-05-14T22:17:39Z</time>
      </trkpt>
      <trkpt lat="43.18322" lon="-1.67025">
        <ele>94.937</ele>
        <time>2020-05-14T22:17:59Z</time>
      </trkpt>
      <trkpt lat="43.18307" lon="-1.6703">
        <ele>94.971</ele>
        <time>2020-05-14T22:18:19Z</time>
      </trkpt>
      <trkpt lat="43.18298" lon="-1.67033">
        <ele>95.089</ele>
        <time>2020-05-14T22:18:39Z</time>
      </trkpt>
      <trkpt lat="43.18289" lon="-1.67035">
        <ele>95.144</ele>
        <time>2020-05-14T22:18:59Z</time>
      </trkpt>
      <trkpt lat="43.18268" lon="-1.67041">
        <ele>95.094</ele>
        <time>2020-05-14T22:19:19Z</time>
      </trkpt>
      <trkpt lat="43.18208" lon="-1.67057">
        <ele>95.061</ele>
        <time>2020-05-14T22:19:39Z</time>
      </trkpt>
      <trkpt lat="43.18192" lon="-1.67062">
        <ele>95.143</ele>
        <time>2020-05-14T22:19:59Z</time>
      </trkpt>
      <trkpt lat="43.18167" lon="-1.67069">
        <ele>94.972</ele>
        <time>2020-05-14T22:20:19Z</time>
      </trkpt>
      <trkpt lat="43.18147" lon="-1.67074">
        <ele>94.913</ele>
        <time>2020-05-14T22:20:39Z</time>
      </trkpt>
      <trkpt lat="43.18147" lon="-1.67074">
        <ele>94.914</ele>
        <time>2020-05-14T22:20:59Z</time>
      </trkpt>
      <trkpt lat="43.1814" lon="-1.67083">
        <ele>97.008</ele>
        <time>2020-05-14T22:21:19Z</time>
      </trkpt>
      <trkpt lat="43.18131" lon="-1.67095">
        <ele>102.351</ele>
        <time>2020-05-14T22:21:39Z</time>
      </trkpt>
      <trkpt lat="43.18056" lon="-1.67086">
        <ele>95.496</ele>
        <time>2020-05-14T22:21:59Z</time>
      </trkpt>
      <trkpt lat="43.18054" lon="-1.67074">
        <ele>93.34</ele>
        <time>2020-05-14T22:22:19Z</time>
      </trkpt>
      <trkpt lat="43.18052" lon="-1.67064">
        <ele>88.858</ele>
        <time>2020-05-14T22:22:39Z</time>
      </trkpt>
      <trkpt lat="43.18007" lon="-1.67052">
        <ele>89.873</ele>
        <time>2020-05-14T22:22:59Z</time>
      </trkpt>
      <trkpt lat="43.17981" lon="-1.67044">
        <ele>95.313</ele>
        <time>2020-05-14T22:23:19Z</time>
      </trkpt>
      <trkpt lat="43.17976" lon="-1.67041">
        <ele>94.75</ele>
        <time>2020-05-14T22:23:39Z</time>
      </trkpt>
      <trkpt lat="43.17962" lon="-1.67022">
        <ele>95.452</ele>
        <time>2020-05-14T22:23:59Z</time>
      </trkpt>
      <trkpt lat="43.17951" lon="-1.67004">
        <ele>95.657</ele>
        <time>2020-05-14T22:24:19Z</time>
      </trkpt>
      <trkpt lat="43.17936" lon="-1.66983">
        <ele>95.8</ele>
        <time>2020-05-14T22:24:39Z</time>
      </trkpt>
      <trkpt lat="43.17921" lon="-1.66962">
        <ele>95.92</ele>
        <time>2020-05-14T22:24:59Z</time>
      </trkpt>
      <trkpt lat="43.17907" lon="-1.66943">
        <ele>96.208</ele>
        <time>2020-05-14T22:25:19Z</time>
      </trkpt>
      <trkpt lat="43.17893" lon="-1.66924">
        <ele>96.129</ele>
        <time>2020-05-14T22:25:39Z</time>
      </trkpt>
      <trkpt lat="43.1785" lon="-1.66865">
        <ele>96.744</ele>
        <time>2020-05-14T22:25:59Z</time>
      </trkpt>
      <trkpt lat="43.17847" lon="-1.66861">
        <ele>96.918</ele>
        <time>2020-05-14T22:26:19Z</time>
      </trkpt>
      <trkpt lat="43.17815" lon="-1.66815">
        <ele>97.126</ele>
        <time>2020-05-14T22:26:39Z</time>
      </trkpt>
      <trkpt lat="43.17785" lon="-1.66774">
        <ele>97.471</ele>
        <time>2020-05-14T22:26:59Z</time>
      </trkpt>
      <trkpt lat="43.1778" lon="-1.66768">
        <ele>97.571</ele>
        <time>2020-05-14T22:27:19Z</time>
      </trkpt>
      <trkpt lat="43.17776" lon="-1.66762">
        <ele>97.538</ele>
        <time>2020-05-14T22:27:39Z</time>
      </trkpt>
      <trkpt lat="43.17772" lon="-1.66757">
        <ele>97.62</ele>
        <time>2020-05-14T22:27:59Z</time>
      </trkpt>
      <trkpt lat="43.17768" lon="-1.66753">
        <ele>97.237</ele>
        <time>2020-05-14T22:28:19Z</time>
      </trkpt>
      <trkpt lat="43.17758" lon="-1.66743">
        <ele>97.749</ele>
        <time>2020-05-14T22:28:39Z</time>
      </trkpt>
      <trkpt lat="43.17752" lon="-1.6674">
        <ele>97.813</ele>
        <time>2020-05-14T22:28:59Z</time>
      </trkpt>
      <trkpt lat="43.17747" lon="-1.66736">
        <ele>97.808</ele>
        <time>2020-05-14T22:29:19Z</time>
      </trkpt>
      <trkpt lat="43.17738" lon="-1.66731">
        <ele>97.987</ele>
        <time>2020-05-14T22:29:39Z</time>
      </trkpt>
      <trkpt lat="43.1773" lon="-1.66728">
        <ele>97.662</ele>
        <time>2020-05-14T22:29:59Z</time>
      </trkpt>
      <trkpt lat="43.1772" lon="-1.66725">
        <ele>98.246</ele>
        <time>2020-05-14T22:30:19Z</time>
      </trkpt>
      <trkpt lat="43.17715" lon="-1.66724">
        <ele>98.354</ele>
        <time>2020-05-14T22:30:39Z</time>
      </trkpt>
      <trkpt lat="43.1771" lon="-1.66723">
        <ele>98.359</ele>
        <time>2020-05-14T22:30:59Z</time>
      </trkpt>
      <trkpt lat="43.17705" lon="-1.66723">
        <ele>98.469</ele>
        <time>2020-05-14T22:31:19Z</time>
      </trkpt>
      <trkpt lat="43.177" lon="-1.66723">
        <ele>98.596</ele>
        <time>2020-05-14T22:31:39Z</time>
      </trkpt>
      <trkpt lat="43.17695" lon="-1.66723">
        <ele>98.688</ele>
        <time>2020-05-14T22:31:59Z</time>
      </trkpt>
      <trkpt lat="43.17691" lon="-1.66723">
        <ele>98.671</ele>
        <time>2020-05-14T22:32:19Z</time>
      </trkpt>
      <trkpt lat="43.17687" lon="-1.66724">
        <ele>98.541</ele>
        <time>2020-05-14T22:32:39Z</time>
      </trkpt>
      <trkpt lat="43.17683" lon="-1.66725">
        <ele>98.615</ele>
        <time>2020-05-14T22:32:59Z</time>
      </trkpt>
      <trkpt lat="43.17679" lon="-1.66726">
        <ele>98.708</ele>
        <time>2020-05-14T22:33:19Z</time>
      </trkpt>
      <trkpt lat="43.17676" lon="-1.66727">
        <ele>98.741</ele>
        <time>2020-05-14T22:33:39Z</time>
      </trkpt>
      <trkpt lat="43.17667" lon="-1.66731">
        <ele>101.726</ele>
        <time>2020-05-14T22:33:59Z</time>
      </trkpt>
      <trkpt lat="43.17663" lon="-1.66733">
        <ele>98.92</ele>
        <time>2020-05-14T22:34:19Z</time>
      </trkpt>
      <trkpt lat="43.17658" lon="-1.66735">
        <ele>98.818</ele>
        <time>2020-05-14T22:34:39Z</time>
      </trkpt>
      <trkpt lat="43.1765" lon="-1.66741">
        <ele>98.923</ele>
        <time>2020-05-14T22:34:59Z</time>
      </trkpt>
      <trkpt lat="43.17646" lon="-1.66744">
        <ele>98.973</ele>
        <time>2020-05-14T22:35:19Z</time>
      </trkpt>
      <trkpt lat="43.17642" lon="-1.66748">
        <ele>99.01</ele>
        <time>2020-05-14T22:35:39Z</time>
      </trkpt>
      <trkpt lat="43.17638" lon="-1.66751">
        <ele>99.022</ele>
        <time>2020-05-14T22:35:59Z</time>
      </trkpt>
      <trkpt lat="43.17634" lon="-1.66755">
        <ele>99.139</ele>
        <time>2020-05-14T22:36:19Z</time>
      </trkpt>
      <trkpt lat="43.17626" lon="-1.66767">
        <ele>99.101</ele>
        <time>2020-05-14T22:36:39Z</time>
      </trkpt>
      <trkpt lat="43.17622" lon="-1.66773">
        <ele>99.021</ele>
        <time>2020-05-14T22:36:59Z</time>
      </trkpt>
      <trkpt lat="43.17618" lon="-1.66779">
        <ele>99.108</ele>
        <time>2020-05-14T22:37:19Z</time>
      </trkpt>
      <trkpt lat="43.17614" lon="-1.66786">
        <ele>99.217</ele>
        <time>2020-05-14T22:37:39Z</time>
      </trkpt>
      <trkpt lat="43.17611" lon="-1.66793">
        <ele>99.322</ele>
        <time>2020-05-14T22:37:59Z</time>
      </trkpt>
      <trkpt lat="43.1761" lon="-1.66795">
        <ele>99.326</ele>
        <time>2020-05-14T22:38:19Z</time>
      </trkpt>
      <trkpt lat="43.17606" lon="-1.66804">
        <ele>99.424</ele>
        <time>2020-05-14T22:38:39Z</time>
      </trkpt>
      <trkpt lat="43.17604" lon="-1.66809">
        <ele>99.599</ele>
        <time>2020-05-14T22:38:59Z</time>
      </trkpt>
      <trkpt lat="43.17602" lon="-1.66816">
        <ele>99.619</ele>
        <time>2020-05-14T22:39:19Z</time>
      </trkpt>
      <trkpt lat="43.17599" lon="-1.66824">
        <ele>99.666</ele>
        <time>2020-05-14T22:39:39Z</time>
      </trkpt>
      <trkpt lat="43.17596" lon="-1.66838">
        <ele>99.598</ele>
        <time>2020-05-14T22:39:59Z</time>
      </trkpt>
      <trkpt lat="43.17594" lon="-1.66851">
        <ele>99.599</ele>
        <time>2020-05-14T22:40:19Z</time>
      </trkpt>
      <trkpt lat="43.17593" lon="-1.66869">
        <ele>99.407</ele>
        <time>2020-05-14T22:40:39Z</time>
      </trkpt>
      <trkpt lat="43.17594" lon="-1.66887">
        <ele>99.327</ele>
        <time>2020-05-14T22:40:59Z</time>
      </trkpt>
      <trkpt lat="43.17596" lon="-1.66897">
        <ele>99.508</ele>
        <time>2020-05-14T22:41:19Z</time>
      </trkpt>
      <trkpt lat="43.17597" lon="-1.66903">
        <ele>99.483</ele>
        <time>2020-05-14T22:41:39Z</time>
      </trkpt>
      <trkpt lat="43.17597" lon="-1.66906">
        <ele>99.228</ele>
        <time>2020-05-14T22:41:59Z</time>
      </trkpt>
      <trkpt lat="43.17601" lon="-1.66925">
        <ele>99.272</ele>
        <time>2020-05-14T22:42:19Z</time>
      </trkpt>
      <trkpt lat="43.17606" lon="-1.6696">
        <ele>99.17</ele>
        <time>2020-05-14T22:42:39Z</time>
      </trkpt>
      <trkpt lat="43.17623" lon="-1.67061">
        <ele>99.235</ele>
        <time>2020-05-14T22:42:59Z</time>
      </trkpt>
      <trkpt lat="43.17625" lon="-1.67075">
        <ele>99.175</ele>
        <time>2020-05-14T22:43:19Z</time>
      </trkpt>
      <trkpt lat="43.17628" lon="-1.67115">
        <ele>99.372</ele>
        <time>2020-05-14T22:43:39Z</time>
      </trkpt>
      <trkpt lat="43.17636" lon="-1.67194">
        <ele>99.254</ele>
        <time>2020-05-14T22:43:59Z</time>
      </trkpt>
      <trkpt lat="43.17638" lon="-1.67241">
        <ele>99.624</ele>
        <time>2020-05-14T22:44:19Z</time>
      </trkpt>
      <trkpt lat="43.17639" lon="-1.67254">
        <ele>97.804</ele>
        <time>2020-05-14T22:44:39Z</time>
      </trkpt>
      <trkpt lat="43.17639" lon="-1.67297">
        <ele>99.614</ele>
        <time>2020-05-14T22:44:59Z</time>
      </trkpt>
      <trkpt lat="43.17638" lon="-1.67327">
        <ele>99.808</ele>
        <time>2020-05-14T22:45:19Z</time>
      </trkpt>
      <trkpt lat="43.17636" lon="-1.67349">
        <ele>99.926</ele>
        <time>2020-05-14T22:45:39Z</time>
      </trkpt>
      <trkpt lat="43.17635" lon="-1.67356">
        <ele>99.931</ele>
        <time>2020-05-14T22:45:59Z</time>
      </trkpt>
      <trkpt lat="43.17634" lon="-1.67367">
        <ele>99.975</ele>
        <time>2020-05-14T22:46:19Z</time>
      </trkpt>
      <trkpt lat="43.17633" lon="-1.67377">
        <ele>100.023</ele>
        <time>2020-05-14T22:46:39Z</time>
      </trkpt>
      <trkpt lat="43.17631" lon="-1.67397">
        <ele>100.138</ele>
        <time>2020-05-14T22:46:59Z</time>
      </trkpt>
      <trkpt lat="43.17629" lon="-1.67417">
        <ele>100.368</ele>
        <time>2020-05-14T22:47:19Z</time>
      </trkpt>
      <trkpt lat="43.17627" lon="-1.67431">
        <ele>100.365</ele>
        <time>2020-05-14T22:47:39Z</time>
      </trkpt>
      <trkpt lat="43.17626" lon="-1.67444">
        <ele>100.597</ele>
        <time>2020-05-14T22:47:59Z</time>
      </trkpt>
      <trkpt lat="43.17624" lon="-1.67459">
        <ele>100.437</ele>
        <time>2020-05-14T22:48:19Z</time>
      </trkpt>
      <trkpt lat="43.17623" lon="-1.67473">
        <ele>100.649</ele>
        <time>2020-05-14T22:48:39Z</time>
      </trkpt>
      <trkpt lat="43.17621" lon="-1.67489">
        <ele>100.713</ele>
        <time>2020-05-14T22:48:59Z</time>
      </trkpt>
      <trkpt lat="43.1762" lon="-1.67505">
        <ele>100.708</ele>
        <time>2020-05-14T22:49:19Z</time>
      </trkpt>
      <trkpt lat="43.17619" lon="-1.6751">
        <ele>100.797</ele>
        <time>2020-05-14T22:49:39Z</time>
      </trkpt>
      <trkpt lat="43.17617" lon="-1.67519">
        <ele>101.382</ele>
        <time>2020-05-14T22:49:59Z</time>
      </trkpt>
      <trkpt lat="43.17617" lon="-1.67522">
        <ele>100.866</ele>
        <time>2020-05-14T22:50:19Z</time>
      </trkpt>
      <trkpt lat="43.17616" lon="-1.67525">
        <ele>100.884</ele>
        <time>2020-05-14T22:50:39Z</time>
      </trkpt>
      <trkpt lat="43.17615" lon="-1.67528">
        <ele>100.829</ele>
        <time>2020-05-14T22:50:59Z</time>
      </trkpt>
      <trkpt lat="43.17612" lon="-1.67538">
        <ele>100.899</ele>
        <time>2020-05-14T22:51:19Z</time>
      </trkpt>
      <trkpt lat="43.17608" lon="-1.67549">
        <ele>100.646</ele>
        <time>2020-05-14T22:51:39Z</time>
      </trkpt>
      <trkpt lat="43.17605" lon="-1.67557">
        <ele>100.748</ele>
        <time>2020-05-14T22:51:59Z</time>
      </trkpt>
      <trkpt lat="43.17602" lon="-1.67565">
        <ele>100.868</ele>
        <time>2020-05-14T22:52:19Z</time>
      </trkpt>
      <trkpt lat="43.176" lon="-1.67569">
        <ele>100.942</ele>
        <time>2020-05-14T22:52:39Z</time>
      </trkpt>
      <trkpt lat="43.17599" lon="-1.67573">
        <ele>100.926</ele>
        <time>2020-05-14T22:52:59Z</time>
      </trkpt>
      <trkpt lat="43.17598" lon="-1.67575">
        <ele>101.008</ele>
        <time>2020-05-14T22:53:19Z</time>
      </trkpt>
      <trkpt lat="43.17592" lon="-1.67584">
        <ele>101.09</ele>
        <time>2020-05-14T22:53:39Z</time>
      </trkpt>
      <trkpt lat="43.17591" lon="-1.67586">
        <ele>101.065</ele>
        <time>2020-05-14T22:53:59Z</time>
      </trkpt>
      <trkpt lat="43.17589" lon="-1.67588">
        <ele>101.019</ele>
        <time>2020-05-14T22:54:19Z</time>
      </trkpt>
      <trkpt lat="43.17587" lon="-1.67593">
        <ele>101.037</ele>
        <time>2020-05-14T22:54:39Z</time>
      </trkpt>
      <trkpt lat="43.17584" lon="-1.67597">
        <ele>101.132</ele>
        <time>2020-05-14T22:54:59Z</time>
      </trkpt>
      <trkpt lat="43.17558" lon="-1.67632">
        <ele>101.542</ele>
        <time>2020-05-14T22:55:19Z</time>
      </trkpt>
      <trkpt lat="43.17515" lon="-1.67688">
        <ele>102.319</ele>
        <time>2020-05-14T22:55:39Z</time>
      </trkpt>
      <trkpt lat="43.17506" lon="-1.67699">
        <ele>102.491</ele>
        <time>2020-05-14T22:55:59Z</time>
      </trkpt>
      <trkpt lat="43.17496" lon="-1.67711">
        <ele>102.646</ele>
        <time>2020-05-14T22:56:19Z</time>
      </trkpt>
      <trkpt lat="43.17493" lon="-1.67714">
        <ele>102.788</ele>
        <time>2020-05-14T22:56:39Z</time>
      </trkpt>
      <trkpt lat="43.17489" lon="-1.67718">
        <ele>102.716</ele>
        <time>2020-05-14T22:56:59Z</time>
      </trkpt>
      <trkpt lat="43.17488" lon="-1.67719">
        <ele>104.708</ele>
        <time>2020-05-14T22:57:19Z</time>
      </trkpt>
      <trkpt lat="43.17486" lon="-1.67721">
        <ele>104.768</ele>
        <time>2020-05-14T22:57:39Z</time>
      </trkpt>
      <trkpt lat="43.17482" lon="-1.67724">
        <ele>102.873</ele>
        <time>2020-05-14T22:57:59Z</time>
      </trkpt>
      <trkpt lat="43.1747" lon="-1.67731">
        <ele>102.937</ele>
        <time>2020-05-14T22:58:19Z</time>
      </trkpt>
      <trkpt lat="43.17466" lon="-1.67732">
        <ele>103.075</ele>
        <time>2020-05-14T22:58:39Z</time>
      </trkpt>
      <trkpt lat="43.17462" lon="-1.67734">
        <ele>103.08</ele>
        <time>2020-05-14T22:58:59Z</time>
      </trkpt>
      <trkpt lat="43.17457" lon="-1.67736">
        <ele>103.04</ele>
        <time>2020-05-14T22:59:19Z</time>
      </trkpt>
      <trkpt lat="43.17453" lon="-1.67738">
        <ele>103.197</ele>
        <time>2020-05-14T22:59:39Z</time>
      </trkpt>
      <trkpt lat="43.17451" lon="-1.67738">
        <ele>103.129</ele>
        <time>2020-05-14T22:59:59Z</time>
      </trkpt>
      <trkpt lat="43.17449" lon="-1.67739">
        <ele>103.129</ele>
        <time>2020-05-14T23:00:19Z</time>
      </trkpt>
      <trkpt lat="43.17423" lon="-1.67742">
        <ele>103.3</ele>
        <time>2020-05-14T23:00:39Z</time>
      </trkpt>
      <trkpt lat="43.17375" lon="-1.67744">
        <ele>103.92</ele>
        <time>2020-05-14T23:00:59Z</time>
      </trkpt>
      <trkpt lat="43.17366" lon="-1.67745">
        <ele>104.408</ele>
        <time>2020-05-14T23:01:19Z</time>
      </trkpt>
      <trkpt lat="43.17357" lon="-1.67744">
        <ele>104.016</ele>
        <time>2020-05-14T23:01:39Z</time>
      </trkpt>
      <trkpt lat="43.17346" lon="-1.67743">
        <ele>104.081</ele>
        <time>2020-05-14T23:01:59Z</time>
      </trkpt>
      <trkpt lat="43.17344" lon="-1.67743">
        <ele>104.175</ele>
        <time>2020-05-14T23:02:19Z</time>
      </trkpt>
      <trkpt lat="43.17342" lon="-1.67742">
        <ele>104.173</ele>
        <time>2020-05-14T23:02:39Z</time>
      </trkpt>
      <trkpt lat="43.17334" lon="-1.67739">
        <ele>104.258</ele>
        <time>2020-05-14T23:02:59Z</time>
      </trkpt>
      <trkpt lat="43.17323" lon="-1.67735">
        <ele>104.358</ele>
        <time>2020-05-14T23:03:19Z</time>
      </trkpt>
      <trkpt lat="43.17314" lon="-1.67731">
        <ele>104.495</ele>
        <time>2020-05-14T23:03:39Z</time>
      </trkpt>
      <trkpt lat="43.17311" lon="-1.6773">
        <ele>104.547</ele>
        <time>2020-05-14T23:03:59Z</time>
      </trkpt>
      <trkpt lat="43.17302" lon="-1.67726">
        <ele>104.664</ele>
        <time>2020-05-14T23:04:19Z</time>
      </trkpt>
      <trkpt lat="43.17296" lon="-1.67723">
        <ele>104.606</ele>
        <time>2020-05-14T23:04:39Z</time>
      </trkpt>
      <trkpt lat="43.17294" lon="-1.67723">
        <ele>104.816</ele>
        <time>2020-05-14T23:04:59Z</time>
      </trkpt>
      <trkpt lat="43.17292" lon="-1.67722">
        <ele>104.708</ele>
        <time>2020-05-14T23:05:19Z</time>
      </trkpt>
      <trkpt lat="43.17274" lon="-1.67717">
        <ele>104.74</ele>
        <time>2020-05-14T23:05:39Z</time>
      </trkpt>
      <trkpt lat="43.1726" lon="-1.67713">
        <ele>104.865</ele>
        <time>2020-05-14T23:05:59Z</time>
      </trkpt>
      <trkpt lat="43.17246" lon="-1.67708">
        <ele>104.869</ele>
        <time>2020-05-14T23:06:19Z</time>
      </trkpt>
      <trkpt lat="43.17231" lon="-1.67702">
        <ele>104.867</ele>
        <time>2020-05-14T23:06:39Z</time>
      </trkpt>
      <trkpt lat="43.17216" lon="-1.67697">
        <ele>104.842</ele>
        <time>2020-05-14T23:06:59Z</time>
      </trkpt>
      <trkpt lat="43.1719" lon="-1.67687">
        <ele>104.792</ele>
        <time>2020-05-14T23:07:19Z</time>
      </trkpt>
      <trkpt lat="43.17188" lon="-1.67686">
        <ele>104.719</ele>
        <time>2020-05-14T23:07:39Z</time>
      </trkpt>
      <trkpt lat="43.17184" lon="-1.67685">
        <ele>104.731</ele>
        <time>2020-05-14T23:07:59Z</time>
      </trkpt>
      <trkpt lat="43.17183" lon="-1.67684">
        <ele>104.718</ele>
        <time>2020-05-14T23:08:19Z</time>
      </trkpt>
      <trkpt lat="43.1716" lon="-1.67676">
        <ele>104.098</ele>
        <time>2020-05-14T23:08:39Z</time>
      </trkpt>
      <trkpt lat="43.17142" lon="-1.67669">
        <ele>104.617</ele>
        <time>2020-05-14T23:08:59Z</time>
      </trkpt>
      <trkpt lat="43.17138" lon="-1.67667">
        <ele>104.608</ele>
        <time>2020-05-14T23:09:19Z</time>
      </trkpt>
      <trkpt lat="43.17133" lon="-1.67666">
        <ele>104.635</ele>
        <time>2020-05-14T23:09:39Z</time>
      </trkpt>
      <trkpt lat="43.17124" lon="-1.67662">
        <ele>104.76</ele>
        <time>2020-05-14T23:09:59Z</time>
      </trkpt>
      <trkpt lat="43.17115" lon="-1.67659">
        <ele>104.874</ele>
        <time>2020-05-14T23:10:19Z</time>
      </trkpt>
      <trkpt lat="43.1706" lon="-1.67638">
        <ele>104.832</ele>
        <time>2020-05-14T23:10:39Z</time>
      </trkpt>
      <trkpt lat="43.1705" lon="-1.67634">
        <ele>104.977</ele>
        <time>2020-05-14T23:10:59Z</time>
      </trkpt>
      <trkpt lat="43.17044" lon="-1.67632">
        <ele>104.887</ele>
        <time>2020-05-14T23:11:19Z</time>
      </trkpt>
      <trkpt lat="43.17039" lon="-1.67631">
        <ele>105.024</ele>
        <time>2020-05-14T23:11:39Z</time>
      </trkpt>
      <trkpt lat="43.17032" lon="-1.67629">
        <ele>104.476</ele>
        <time>2020-05-14T23:11:59Z</time>
      </trkpt>
      <trkpt lat="43.17031" lon="-1.67629">
        <ele>104.431</ele>
        <time>2020-05-14T23:12:19Z</time>
      </trkpt>
      <trkpt lat="43.17029" lon="-1.67628">
        <ele>104.461</ele>
        <time>2020-05-14T23:12:39Z</time>
      </trkpt>
      <trkpt lat="43.17021" lon="-1.67628">
        <ele>104.907</ele>
        <time>2020-05-14T23:12:59Z</time>
      </trkpt>
      <trkpt lat="43.17016" lon="-1.67627">
        <ele>105.008</ele>
        <time>2020-05-14T23:13:19Z</time>
      </trkpt>
      <trkpt lat="43.17011" lon="-1.67627">
        <ele>105.187</ele>
        <time>2020-05-14T23:13:39Z</time>
      </trkpt>
      <trkpt lat="43.17005" lon="-1.67627">
        <ele>105.252</ele>
        <time>2020-05-14T23:13:59Z</time>
      </trkpt>
      <trkpt lat="43.16999" lon="-1.67628">
        <ele>105.246</ele>
        <time>2020-05-14T23:14:19Z</time>
      </trkpt>
      <trkpt lat="43.16993" lon="-1.6763">
        <ele>105.324</ele>
        <time>2020-05-14T23:14:39Z</time>
      </trkpt>
      <trkpt lat="43.16978" lon="-1.67634">
        <ele>105.429</ele>
        <time>2020-05-14T23:14:59Z</time>
      </trkpt>
      <trkpt lat="43.16962" lon="-1.6764">
        <ele>105.789</ele>
        <time>2020-05-14T23:15:19Z</time>
      </trkpt>
      <trkpt lat="43.16935" lon="-1.6765">
        <ele>105.966</ele>
        <time>2020-05-14T23:15:39Z</time>
      </trkpt>
      <trkpt lat="43.16909" lon="-1.67661">
        <ele>108.718</ele>
        <time>2020-05-14T23:15:59Z</time>
      </trkpt>
      <trkpt lat="43.16902" lon="-1.67663">
        <ele>107.899</ele>
        <time>2020-05-14T23:16:19Z</time>
      </trkpt>
      <trkpt lat="43.16894" lon="-1.67666">
        <ele>106.907</ele>
        <time>2020-05-14T23:16:39Z</time>
      </trkpt>
      <trkpt lat="43.16888" lon="-1.67668">
        <ele>106.027</ele>
        <time>2020-05-14T23:16:59Z</time>
      </trkpt>
      <trkpt lat="43.16877" lon="-1.67669">
        <ele>106.008</ele>
        <time>2020-05-14T23:17:19Z</time>
      </trkpt>
      <trkpt lat="43.1687" lon="-1.67669">
        <ele>106.043</ele>
        <time>2020-05-14T23:17:39Z</time>
      </trkpt>
      <trkpt lat="43.16862" lon="-1.67669">
        <ele>106.098</ele>
        <time>2020-05-14T23:17:59Z</time>
      </trkpt>
      <trkpt lat="43.16858" lon="-1.67668">
        <ele>106.122</ele>
        <time>2020-05-14T23:18:19Z</time>
      </trkpt>
      <trkpt lat="43.16854" lon="-1.67668">
        <ele>106.11</ele>
        <time>2020-05-14T23:18:39Z</time>
      </trkpt>
      <trkpt lat="43.16844" lon="-1.67664">
        <ele>106.075</ele>
        <time>2020-05-14T23:18:59Z</time>
      </trkpt>
      <trkpt lat="43.16833" lon="-1.67661">
        <ele>106.165</ele>
        <time>2020-05-14T23:19:19Z</time>
      </trkpt>
      <trkpt lat="43.16825" lon="-1.67656">
        <ele>106.162</ele>
        <time>2020-05-14T23:19:39Z</time>
      </trkpt>
      <trkpt lat="43.16816" lon="-1.67652">
        <ele>106.214</ele>
        <time>2020-05-14T23:19:59Z</time>
      </trkpt>
      <trkpt lat="43.16811" lon="-1.67649">
        <ele>106.318</ele>
        <time>2020-05-14T23:20:19Z</time>
      </trkpt>
      <trkpt lat="43.16803" lon="-1.67644">
        <ele>106.498</ele>
        <time>2020-05-14T23:20:39Z</time>
      </trkpt>
      <trkpt lat="43.168" lon="-1.67641">
        <ele>106.417</ele>
        <time>2020-05-14T23:20:59Z</time>
      </trkpt>
      <trkpt lat="43.16796" lon="-1.67639">
        <ele>106.508</ele>
        <time>2020-05-14T23:21:19Z</time>
      </trkpt>
      <trkpt lat="43.16794" lon="-1.67637">
        <ele>106.095</ele>
        <time>2020-05-14T23:21:39Z</time>
      </trkpt>
      <trkpt lat="43.16793" lon="-1.67636">
        <ele>106.04</ele>
        <time>2020-05-14T23:21:59Z</time>
      </trkpt>
      <trkpt lat="43.16792" lon="-1.67636">
        <ele>106.034</ele>
        <time>2020-05-14T23:22:19Z</time>
      </trkpt>
      <trkpt lat="43.16791" lon="-1.67634">
        <ele>106.562</ele>
        <time>2020-05-14T23:22:39Z</time>
      </trkpt>
      <trkpt lat="43.16788" lon="-1.67631">
        <ele>106.627</ele>
        <time>2020-05-14T23:22:59Z</time>
      </trkpt>
      <trkpt lat="43.16786" lon="-1.67628">
        <ele>106.517</ele>
        <time>2020-05-14T23:23:19Z</time>
      </trkpt>
      <trkpt lat="43.16777" lon="-1.67614">
        <ele>106.714</ele>
        <time>2020-05-14T23:23:39Z</time>
      </trkpt>
      <trkpt lat="43.16767" lon="-1.67598">
        <ele>106.156</ele>
        <time>2020-05-14T23:23:59Z</time>
      </trkpt>
      <trkpt lat="43.16762" lon="-1.67588">
        <ele>106.741</ele>
        <time>2020-05-14T23:24:19Z</time>
      </trkpt>
      <trkpt lat="43.16758" lon="-1.67578">
        <ele>106.981</ele>
        <time>2020-05-14T23:24:39Z</time>
      </trkpt>
      <trkpt lat="43.1675" lon="-1.67559">
        <ele>107.109</ele>
        <time>2020-05-14T23:24:59Z</time>
      </trkpt>
      <trkpt lat="43.16739" lon="-1.67535">
        <ele>107.108</ele>
        <time>2020-05-14T23:25:19Z</time>
      </trkpt>
      <trkpt lat="43.16727" lon="-1.6751">
        <ele>108.758</ele>
        <time>2020-05-14T23:25:39Z</time>
      </trkpt>
      <trkpt lat="43.16721" lon="-1.67496">
        <ele>107.363</ele>
        <time>2020-05-14T23:25:59Z</time>
      </trkpt>
      <trkpt lat="43.16709" lon="-1.67468">
        <ele>107.437</ele>
        <time>2020-05-14T23:26:19Z</time>
      </trkpt>
      <trkpt lat="43.167" lon="-1.67447">
        <ele>107.475</ele>
        <time>2020-05-14T23:26:39Z</time>
      </trkpt>
      <trkpt lat="43.16684" lon="-1.6741">
        <ele>107.36</ele>
        <time>2020-05-14T23:26:59Z</time>
      </trkpt>
      <trkpt lat="43.16676" lon="-1.6739">
        <ele>107.36</ele>
        <time>2020-05-14T23:27:19Z</time>
      </trkpt>
      <trkpt lat="43.16671" lon="-1.67379">
        <ele>107.377</ele>
        <time>2020-05-14T23:27:39Z</time>
      </trkpt>
      <trkpt lat="43.16669" lon="-1.67376">
        <ele>107.359</ele>
        <time>2020-05-14T23:27:59Z</time>
      </trkpt>
      <trkpt lat="43.16668" lon="-1.67373">
        <ele>107.354</ele>
        <time>2020-05-14T23:28:19Z</time>
      </trkpt>
      <trkpt lat="43.1666" lon="-1.67357">
        <ele>107.356</ele>
        <time>2020-05-14T23:28:39Z</time>
      </trkpt>
      <trkpt lat="43.16652" lon="-1.67339">
        <ele>107.211</ele>
        <time>2020-05-14T23:28:59Z</time>
      </trkpt>
      <trkpt lat="43.16651" lon="-1.67338">
        <ele>107.308</ele>
        <time>2020-05-14T23:29:19Z</time>
      </trkpt>
      <trkpt lat="43.16644" lon="-1.67324">
        <ele>107.329</ele>
        <time>2020-05-14T23:29:39Z</time>
      </trkpt>
      <trkpt lat="43.16639" lon="-1.67314">
        <ele>107.394</ele>
        <time>2020-05-14T23:29:59Z</time>
      </trkpt>
      <trkpt lat="43.16637" lon="-1.6731">
        <ele>107.338</ele>
        <time>2020-05-14T23:30:19Z</time>
      </trkpt>
      <trkpt lat="43.1663" lon="-1.67299">
        <ele>107.366</ele>
        <time>2020-05-14T23:30:39Z</time>
      </trkpt>
      <trkpt lat="43.16624" lon="-1.67289">
        <ele>107.481</ele>
        <time>2020-05-14T23:30:59Z</time>
      </trkpt>
      <trkpt lat="43.16618" lon="-1.67279">
        <ele>107.551</ele>
        <time>2020-05-14T23:31:19Z</time>
      </trkpt>
      <trkpt lat="43.16612" lon="-1.6727">
        <ele>107.718</ele>
        <time>2020-05-14T23:31:39Z</time>
      </trkpt>
      <trkpt lat="43.16599" lon="-1.67253">
        <ele>107.97</ele>
        <time>2020-05-14T23:31:59Z</time>
      </trkpt>
      <trkpt lat="43.16591" lon="-1.67243">
        <ele>107.939</ele>
        <time>2020-05-14T23:32:19Z</time>
      </trkpt>
      <trkpt lat="43.16584" lon="-1.67235">
        <ele>107.901</ele>
        <time>2020-05-14T23:32:39Z</time>
      </trkpt>
      <trkpt lat="43.16571" lon="-1.67223">
        <ele>107.521</ele>
        <time>2020-05-14T23:32:59Z</time>
      </trkpt>
      <trkpt lat="43.1657" lon="-1.67222">
        <ele>107.508</ele>
        <time>2020-05-14T23:33:19Z</time>
      </trkpt>
      <trkpt lat="43.16569" lon="-1.67221">
        <ele>107.497</ele>
        <time>2020-05-14T23:33:39Z</time>
      </trkpt>
      <trkpt lat="43.16543" lon="-1.67208">
        <ele>107.772</ele>
        <time>2020-05-14T23:33:59Z</time>
      </trkpt>
      <trkpt lat="43.16535" lon="-1.67203">
        <ele>107.896</ele>
        <time>2020-05-14T23:34:19Z</time>
      </trkpt>
      <trkpt lat="43.16527" lon="-1.67199">
        <ele>108.734</ele>
        <time>2020-05-14T23:34:39Z</time>
      </trkpt>
      <trkpt lat="43.1652" lon="-1.67195">
        <ele>108.329</ele>
        <time>2020-05-14T23:34:59Z</time>
      </trkpt>
      <trkpt lat="43.16513" lon="-1.67192">
        <ele>109.799</ele>
        <time>2020-05-14T23:35:19Z</time>
      </trkpt>
      <trkpt lat="43.16503" lon="-1.67186">
        <ele>108.156</ele>
        <time>2020-05-14T23:35:39Z</time>
      </trkpt>
      <trkpt lat="43.16493" lon="-1.67181">
        <ele>108.018</ele>
        <time>2020-05-14T23:35:59Z</time>
      </trkpt>
      <trkpt lat="43.16486" lon="-1.67178">
        <ele>108.451</ele>
        <time>2020-05-14T23:36:19Z</time>
      </trkpt>
      <trkpt lat="43.16479" lon="-1.67174">
        <ele>111.401</ele>
        <time>2020-05-14T23:36:39Z</time>
      </trkpt>
      <trkpt lat="43.16462" lon="-1.67166">
        <ele>117.911</ele>
        <time>2020-05-14T23:36:59Z</time>
      </trkpt>
      <trkpt lat="43.16451" lon="-1.6716">
        <ele>119.108</ele>
        <time>2020-05-14T23:37:19Z</time>
      </trkpt>
      <trkpt lat="43.16403" lon="-1.67134">
        <ele>116.239</ele>
        <time>2020-05-14T23:37:39Z</time>
      </trkpt>
      <trkpt lat="43.1635" lon="-1.67106">
        <ele>108.964</ele>
        <time>2020-05-14T23:37:59Z</time>
      </trkpt>
      <trkpt lat="43.16341" lon="-1.67102">
        <ele>108.998</ele>
        <time>2020-05-14T23:38:19Z</time>
      </trkpt>
      <trkpt lat="43.16332" lon="-1.67097">
        <ele>109.616</ele>
        <time>2020-05-14T23:38:39Z</time>
      </trkpt>
      <trkpt lat="43.163" lon="-1.67089">
        <ele>108.911</ele>
        <time>2020-05-14T23:38:59Z</time>
      </trkpt>
      <trkpt lat="43.16285" lon="-1.67088">
        <ele>109.021</ele>
        <time>2020-05-14T23:39:19Z</time>
      </trkpt>
      <trkpt lat="43.16272" lon="-1.67091">
        <ele>108.748</ele>
        <time>2020-05-14T23:39:39Z</time>
      </trkpt>
      <trkpt lat="43.1626" lon="-1.67094">
        <ele>108.61</ele>
        <time>2020-05-14T23:39:59Z</time>
      </trkpt>
      <trkpt lat="43.16248" lon="-1.67098">
        <ele>108.751</ele>
        <time>2020-05-14T23:40:19Z</time>
      </trkpt>
      <trkpt lat="43.16237" lon="-1.67101">
        <ele>108.601</ele>
        <time>2020-05-14T23:40:39Z</time>
      </trkpt>
      <trkpt lat="43.16157" lon="-1.67128">
        <ele>108.711</ele>
        <time>2020-05-14T23:40:59Z</time>
      </trkpt>
      <trkpt lat="43.16103" lon="-1.67147">
        <ele>108.808</ele>
        <time>2020-05-14T23:41:19Z</time>
      </trkpt>
      <trkpt lat="43.16057" lon="-1.67162">
        <ele>108.969</ele>
        <time>2020-05-14T23:41:39Z</time>
      </trkpt>
      <trkpt lat="43.16045" lon="-1.67166">
        <ele>109.084</ele>
        <time>2020-05-14T23:41:59Z</time>
      </trkpt>
      <trkpt lat="43.15997" lon="-1.67184">
        <ele>108.928</ele>
        <time>2020-05-14T23:42:19Z</time>
      </trkpt>
      <trkpt lat="43.15984" lon="-1.67188">
        <ele>108.896</ele>
        <time>2020-05-14T23:42:39Z</time>
      </trkpt>
      <trkpt lat="43.1598" lon="-1.67189">
        <ele>108.891</ele>
        <time>2020-05-14T23:42:59Z</time>
      </trkpt>
      <trkpt lat="43.15975" lon="-1.67189">
        <ele>108.881</ele>
        <time>2020-05-14T23:43:19Z</time>
      </trkpt>
      <trkpt lat="43.15964" lon="-1.67189">
        <ele>108.728</ele>
        <time>2020-05-14T23:43:39Z</time>
      </trkpt>
      <trkpt lat="43.15934" lon="-1.67188">
        <ele>108.58</ele>
        <time>2020-05-14T23:43:59Z</time>
      </trkpt>
      <trkpt lat="43.15922" lon="-1.67187">
        <ele>108.367</ele>
        <time>2020-05-14T23:44:19Z</time>
      </trkpt>
      <trkpt lat="43.1591" lon="-1.67187">
        <ele>108.681</ele>
        <time>2020-05-14T23:44:39Z</time>
      </trkpt>
      <trkpt lat="43.15869" lon="-1.67184">
        <ele>108.919</ele>
        <time>2020-05-14T23:44:59Z</time>
      </trkpt>
      <trkpt lat="43.15838" lon="-1.67182">
        <ele>108.908</ele>
        <time>2020-05-14T23:45:19Z</time>
      </trkpt>
      <trkpt lat="43.15791" lon="-1.67178">
        <ele>108.94</ele>
        <time>2020-05-14T23:45:39Z</time>
      </trkpt>
      <trkpt lat="43.15777" lon="-1.67177">
        <ele>108.995</ele>
        <time>2020-05-14T23:45:59Z</time>
      </trkpt>
      <trkpt lat="43.15764" lon="-1.67176">
        <ele>108.939</ele>
        <time>2020-05-14T23:46:19Z</time>
      </trkpt>
      <trkpt lat="43.15753" lon="-1.67174">
        <ele>108.957</ele>
        <time>2020-05-14T23:46:39Z</time>
      </trkpt>
      <trkpt lat="43.15741" lon="-1.67173">
        <ele>108.982</ele>
        <time>2020-05-14T23:46:59Z</time>
      </trkpt>
      <trkpt lat="43.15727" lon="-1.67169">
        <ele>108.942</ele>
        <time>2020-05-14T23:47:19Z</time>
      </trkpt>
      <trkpt lat="43.157" lon="-1.67162">
        <ele>108.829</ele>
        <time>2020-05-14T23:47:39Z</time>
      </trkpt>
      <trkpt lat="43.15686" lon="-1.67158">
        <ele>108.871</ele>
        <time>2020-05-14T23:47:59Z</time>
      </trkpt>
      <trkpt lat="43.15662" lon="-1.67152">
        <ele>108.891</ele>
        <time>2020-05-14T23:48:19Z</time>
      </trkpt>
      <trkpt lat="43.15641" lon="-1.67148">
        <ele>108.881</ele>
        <time>2020-05-14T23:48:39Z</time>
      </trkpt>
      <trkpt lat="43.15623" lon="-1.67143">
        <ele>108.619</ele>
        <time>2020-05-14T23:48:59Z</time>
      </trkpt>
      <trkpt lat="43.15619" lon="-1.67143">
        <ele>108.708</ele>
        <time>2020-05-14T23:49:19Z</time>
      </trkpt>
      <trkpt lat="43.15612" lon="-1.67141">
        <ele>108.793</ele>
        <time>2020-05-14T23:49:39Z</time>
      </trkpt>
      <trkpt lat="43.15597" lon="-1.67137">
        <ele>108.668</ele>
        <time>2020-05-14T23:49:59Z</time>
      </trkpt>
      <trkpt lat="43.15582" lon="-1.67132">
        <ele>108.752</ele>
        <time>2020-05-14T23:50:19Z</time>
      </trkpt>
      <trkpt lat="43.15577" lon="-1.6713">
        <ele>108.74</ele>
        <time>2020-05-14T23:50:39Z</time>
      </trkpt>
      <trkpt lat="43.15573" lon="-1.67128">
        <ele>108.755</ele>
        <time>2020-05-14T23:50:59Z</time>
      </trkpt>
      <trkpt lat="43.15561" lon="-1.67122">
        <ele>108.755</ele>
        <time>2020-05-14T23:51:19Z</time>
      </trkpt>
      <trkpt lat="43.1555" lon="-1.67115">
        <ele>108.712</ele>
        <time>2020-05-14T23:51:39Z</time>
      </trkpt>
      <trkpt lat="43.15527" lon="-1.67103">
        <ele>108.574</ele>
        <time>2020-05-14T23:51:59Z</time>
      </trkpt>
      <trkpt lat="43.15518" lon="-1.67098">
        <ele>108.531</ele>
        <time>2020-05-14T23:52:19Z</time>
      </trkpt>
      <trkpt lat="43.15507" lon="-1.67091">
        <ele>108.661</ele>
        <time>2020-05-14T23:52:39Z</time>
      </trkpt>
      <trkpt lat="43.155" lon="-1.67088">
        <ele>108.707</ele>
        <time>2020-05-14T23:52:59Z</time>
      </trkpt>
      <trkpt lat="43.15497" lon="-1.67086">
        <ele>108.708</ele>
        <time>2020-05-14T23:53:19Z</time>
      </trkpt>
      <trkpt lat="43.15492" lon="-1.67083">
        <ele>108.737</ele>
        <time>2020-05-14T23:53:39Z</time>
      </trkpt>
      <trkpt lat="43.15489" lon="-1.67081">
        <ele>108.792</ele>
        <time>2020-05-14T23:53:59Z</time>
      </trkpt>
      <trkpt lat="43.15488" lon="-1.67081">
        <ele>108.796</ele>
        <time>2020-05-14T23:54:19Z</time>
      </trkpt>
      <trkpt lat="43.15469" lon="-1.6707">
        <ele>108.894</ele>
        <time>2020-05-14T23:54:39Z</time>
      </trkpt>
      <trkpt lat="43.15454" lon="-1.67061">
        <ele>108.839</ele>
        <time>2020-05-14T23:54:59Z</time>
      </trkpt>
      <trkpt lat="43.15441" lon="-1.67054">
        <ele>108.849</ele>
        <time>2020-05-14T23:55:19Z</time>
      </trkpt>
      <trkpt lat="43.1543" lon="-1.67048">
        <ele>108.736</ele>
        <time>2020-05-14T23:55:39Z</time>
      </trkpt>
      <trkpt lat="43.15424" lon="-1.67044">
        <ele>108.988</ele>
        <time>2020-05-14T23:55:59Z</time>
      </trkpt>
      <trkpt lat="43.15418" lon="-1.67041">
        <ele>108.955</ele>
        <time>2020-05-14T23:56:19Z</time>
      </trkpt>
      <trkpt lat="43.15394" lon="-1.67027">
        <ele>109.107</ele>
        <time>2020-05-14T23:56:39Z</time>
      </trkpt>
      <trkpt lat="43.15383" lon="-1.67021">
        <ele>109.117</ele>
        <time>2020-05-14T23:56:59Z</time>
      </trkpt>
      <trkpt lat="43.15331" lon="-1.66991">
        <ele>109.308</ele>
        <time>2020-05-14T23:57:19Z</time>
      </trkpt>
      <trkpt lat="43.1528" lon="-1.66961">
        <ele>109.759</ele>
        <time>2020-05-14T23:57:39Z</time>
      </trkpt>
      <trkpt lat="43.15249" lon="-1.66943">
        <ele>110.064</ele>
        <time>2020-05-14T23:57:59Z</time>
      </trkpt>
      <trkpt lat="43.1523" lon="-1.66934">
        <ele>110.068</ele>
        <time>2020-05-14T23:58:19Z</time>
      </trkpt>
      <trkpt lat="43.15212" lon="-1.66927">
        <ele>110.216</ele>
        <time>2020-05-14T23:58:39Z</time>
      </trkpt>
      <trkpt lat="43.15202" lon="-1.66923">
        <ele>110.341</ele>
        <time>2020-05-14T23:58:59Z</time>
      </trkpt>
      <trkpt lat="43.15191" lon="-1.6692">
        <ele>110.271</ele>
        <time>2020-05-14T23:59:19Z</time>
      </trkpt>
      <trkpt lat="43.15143" lon="-1.66904">
        <ele>110.848</ele>
        <time>2020-05-14T23:59:39Z</time>
      </trkpt>
      <trkpt lat="43.15112" lon="-1.66892">
        <ele>111.03</ele>
        <time>2020-05-14T23:59:59Z</time>
      </trkpt>
      <trkpt lat="43.151" lon="-1.66889">
        <ele>111.223</ele>
        <time>2020-05-15T00:00:19Z</time>
      </trkpt>
      <trkpt lat="43.15088" lon="-1.66886">
        <ele>111.483</ele>
        <time>2020-05-15T00:00:39Z</time>
      </trkpt>
      <trkpt lat="43.15066" lon="-1.66883">
        <ele>111.611</ele>
        <time>2020-05-15T00:00:59Z</time>
      </trkpt>
      <trkpt lat="43.15046" lon="-1.66883">
        <ele>109.508</ele>
        <time>2020-05-15T00:01:19Z</time>
      </trkpt>
      <trkpt lat="43.15027" lon="-1.66885">
        <ele>108.886</ele>
        <time>2020-05-15T00:01:39Z</time>
      </trkpt>
      <trkpt lat="43.15005" lon="-1.66896">
        <ele>112.011</ele>
        <time>2020-05-15T00:01:59Z</time>
      </trkpt>
      <trkpt lat="43.14991" lon="-1.66904">
        <ele>112.075</ele>
        <time>2020-05-15T00:02:19Z</time>
      </trkpt>
      <trkpt lat="43.14978" lon="-1.66913">
        <ele>112.843</ele>
        <time>2020-05-15T00:02:39Z</time>
      </trkpt>
      <trkpt lat="43.14973" lon="-1.66915">
        <ele>112.278</ele>
        <time>2020-05-15T00:02:59Z</time>
      </trkpt>
      <trkpt lat="43.14962" lon="-1.66919">
        <ele>112.478</ele>
        <time>2020-05-15T00:03:19Z</time>
      </trkpt>
      <trkpt lat="43.14946" lon="-1.66923">
        <ele>112.685</ele>
        <time>2020-05-15T00:03:39Z</time>
      </trkpt>
      <trkpt lat="43.14939" lon="-1.66925">
        <ele>112.697</ele>
        <time>2020-05-15T00:03:59Z</time>
      </trkpt>
      <trkpt lat="43.14932" lon="-1.66926">
        <ele>112.669</ele>
        <time>2020-05-15T00:04:19Z</time>
      </trkpt>
      <trkpt lat="43.14919" lon="-1.66927">
        <ele>112.604</ele>
        <time>2020-05-15T00:04:39Z</time>
      </trkpt>
      <trkpt lat="43.14914" lon="-1.66927">
        <ele>112.624</ele>
        <time>2020-05-15T00:04:59Z</time>
      </trkpt>
      <trkpt lat="43.14908" lon="-1.66926">
        <ele>112.608</ele>
        <time>2020-05-15T00:05:19Z</time>
      </trkpt>
      <trkpt lat="43.14895" lon="-1.66923">
        <ele>112.75</ele>
        <time>2020-05-15T00:05:39Z</time>
      </trkpt>
      <trkpt lat="43.14866" lon="-1.66913">
        <ele>113.155</ele>
        <time>2020-05-15T00:05:59Z</time>
      </trkpt>
      <trkpt lat="43.14858" lon="-1.66909">
        <ele>113.149</ele>
        <time>2020-05-15T00:06:19Z</time>
      </trkpt>
      <trkpt lat="43.14849" lon="-1.66906">
        <ele>113.297</ele>
        <time>2020-05-15T00:06:39Z</time>
      </trkpt>
      <trkpt lat="43.1481" lon="-1.6689">
        <ele>113.692</ele>
        <time>2020-05-15T00:06:59Z</time>
      </trkpt>
      <trkpt lat="43.14779" lon="-1.66881">
        <ele>113.982</ele>
        <time>2020-05-15T00:07:19Z</time>
      </trkpt>
      <trkpt lat="43.14764" lon="-1.66878">
        <ele>113.969</ele>
        <time>2020-05-15T00:07:39Z</time>
      </trkpt>
      <trkpt lat="43.1475" lon="-1.66876">
        <ele>113.931</ele>
        <time>2020-05-15T00:07:59Z</time>
      </trkpt>
      <trkpt lat="43.14745" lon="-1.66876">
        <ele>113.922</ele>
        <time>2020-05-15T00:08:19Z</time>
      </trkpt>
      <trkpt lat="43.1474" lon="-1.66876">
        <ele>113.962</ele>
        <time>2020-05-15T00:08:39Z</time>
      </trkpt>
      <trkpt lat="43.14728" lon="-1.66878">
        <ele>114.108</ele>
        <time>2020-05-15T00:08:59Z</time>
      </trkpt>
      <trkpt lat="43.14684" lon="-1.66886">
        <ele>114.408</ele>
        <time>2020-05-15T00:09:19Z</time>
      </trkpt>
      <trkpt lat="43.14672" lon="-1.66889">
        <ele>114.596</ele>
        <time>2020-05-15T00:09:39Z</time>
      </trkpt>
      <trkpt lat="43.14659" lon="-1.66893">
        <ele>114.791</ele>
        <time>2020-05-15T00:09:59Z</time>
      </trkpt>
      <trkpt lat="43.14654" lon="-1.66893">
        <ele>114.835</ele>
        <time>2020-05-15T00:10:19Z</time>
      </trkpt>
      <trkpt lat="43.14648" lon="-1.66893">
        <ele>114.843</ele>
        <time>2020-05-15T00:10:39Z</time>
      </trkpt>
      <trkpt lat="43.14636" lon="-1.66894">
        <ele>114.858</ele>
        <time>2020-05-15T00:10:59Z</time>
      </trkpt>
      <trkpt lat="43.14625" lon="-1.66895">
        <ele>115.538</ele>
        <time>2020-05-15T00:11:19Z</time>
      </trkpt>
      <trkpt lat="43.14623" lon="-1.66895">
        <ele>115.555</ele>
        <time>2020-05-15T00:11:39Z</time>
      </trkpt>
      <trkpt lat="43.14621" lon="-1.66896">
        <ele>115.537</ele>
        <time>2020-05-15T00:11:59Z</time>
      </trkpt>
      <trkpt lat="43.14616" lon="-1.66895">
        <ele>116.642</ele>
        <time>2020-05-15T00:12:19Z</time>
      </trkpt>
      <trkpt lat="43.14612" lon="-1.66895">
        <ele>116.422</ele>
        <time>2020-05-15T00:12:39Z</time>
      </trkpt>
      <trkpt lat="43.14607" lon="-1.66895">
        <ele>115.414</ele>
        <time>2020-05-15T00:12:59Z</time>
      </trkpt>
      <trkpt lat="43.14602" lon="-1.66894">
        <ele>115.508</ele>
        <time>2020-05-15T00:13:19Z</time>
      </trkpt>
      <trkpt lat="43.14598" lon="-1.66893">
        <ele>115.668</ele>
        <time>2020-05-15T00:13:39Z</time>
      </trkpt>
      <trkpt lat="43.14593" lon="-1.66891">
        <ele>115.563</ele>
        <time>2020-05-15T00:13:59Z</time>
      </trkpt>
      <trkpt lat="43.14587" lon="-1.66889">
        <ele>115.737</ele>
        <time>2020-05-15T00:14:19Z</time>
      </trkpt>
      <trkpt lat="43.14587" lon="-1.66889">
        <ele>115.755</ele>
        <time>2020-05-15T00:14:39Z</time>
      </trkpt>
      <trkpt lat="43.14585" lon="-1.66889">
        <ele>115.76</ele>
        <time>2020-05-15T00:14:59Z</time>
      </trkpt>
      <trkpt lat="43.14583" lon="-1.66889">
        <ele>116.26</ele>
        <time>2020-05-15T00:15:19Z</time>
      </trkpt>
      <trkpt lat="43.14581" lon="-1.66889">
        <ele>116.297</ele>
        <time>2020-05-15T00:15:39Z</time>
      </trkpt>
      <trkpt lat="43.14579" lon="-1.6689">
        <ele>115.589</ele>
        <time>2020-05-15T00:15:59Z</time>
      </trkpt>
      <trkpt lat="43.14575" lon="-1.6689">
        <ele>115.573</ele>
        <time>2020-05-15T00:16:19Z</time>
      </trkpt>
      <trkpt lat="43.14572" lon="-1.6689">
        <ele>115.985</ele>
        <time>2020-05-15T00:16:39Z</time>
      </trkpt>
      <trkpt lat="43.14567" lon="-1.66889">
        <ele>115.813</ele>
        <time>2020-05-15T00:16:59Z</time>
      </trkpt>
      <trkpt lat="43.14562" lon="-1.66889">
        <ele>115.608</ele>
        <time>2020-05-15T00:17:19Z</time>
      </trkpt>
      <trkpt lat="43.14558" lon="-1.66888">
        <ele>115.651</ele>
        <time>2020-05-15T00:17:39Z</time>
      </trkpt>
      <trkpt lat="43.14554" lon="-1.66887">
        <ele>115.676</ele>
        <time>2020-05-15T00:17:59Z</time>
      </trkpt>
      <trkpt lat="43.14544" lon="-1.66886">
        <ele>115.61</ele>
        <time>2020-05-15T00:18:19Z</time>
      </trkpt>
      <trkpt lat="43.14539" lon="-1.66886">
        <ele>115.658</ele>
        <time>2020-05-15T00:18:39Z</time>
      </trkpt>
      <trkpt lat="43.14533" lon="-1.66885">
        <ele>115.663</ele>
        <time>2020-05-15T00:18:59Z</time>
      </trkpt>
      <trkpt lat="43.14529" lon="-1.66885">
        <ele>115.743</ele>
        <time>2020-05-15T00:19:19Z</time>
      </trkpt>
      <trkpt lat="43.14524" lon="-1.66885">
        <ele>115.88</ele>
        <time>2020-05-15T00:19:39Z</time>
      </trkpt>
      <trkpt lat="43.14513" lon="-1.66884">
        <ele>115.842</ele>
        <time>2020-05-15T00:19:59Z</time>
      </trkpt>
      <trkpt lat="43.14504" lon="-1.66885">
        <ele>115.937</ele>
        <time>2020-05-15T00:20:19Z</time>
      </trkpt>
      <trkpt lat="43.14493" lon="-1.66884">
        <ele>115.949</ele>
        <time>2020-05-15T00:20:39Z</time>
      </trkpt>
      <trkpt lat="43.14482" lon="-1.66884">
        <ele>115.913</ele>
        <time>2020-05-15T00:20:59Z</time>
      </trkpt>
      <trkpt lat="43.14467" lon="-1.66886">
        <ele>115.908</ele>
        <time>2020-05-15T00:21:19Z</time>
      </trkpt>
      <trkpt lat="43.14455" lon="-1.66885">
        <ele>115.917</ele>
        <time>2020-05-15T00:21:39Z</time>
      </trkpt>
      <trkpt lat="43.14435" lon="-1.66886">
        <ele>116.022</ele>
        <time>2020-05-15T00:21:59Z</time>
      </trkpt>
      <trkpt lat="43.1443" lon="-1.66886">
        <ele>116.056</ele>
        <time>2020-05-15T00:22:19Z</time>
      </trkpt>
      <trkpt lat="43.14426" lon="-1.66886">
        <ele>116.054</ele>
        <time>2020-05-15T00:22:39Z</time>
      </trkpt>
      <trkpt lat="43.14421" lon="-1.66886">
        <ele>116.089</ele>
        <time>2020-05-15T00:22:59Z</time>
      </trkpt>
      <trkpt lat="43.14417" lon="-1.66885">
        <ele>116.089</ele>
        <time>2020-05-15T00:23:19Z</time>
      </trkpt>
      <trkpt lat="43.14408" lon="-1.66884">
        <ele>115.926</ele>
        <time>2020-05-15T00:23:39Z</time>
      </trkpt>
      <trkpt lat="43.14404" lon="-1.66883">
        <ele>115.918</ele>
        <time>2020-05-15T00:23:59Z</time>
      </trkpt>
      <trkpt lat="43.144" lon="-1.66881">
        <ele>115.931</ele>
        <time>2020-05-15T00:24:19Z</time>
      </trkpt>
      <trkpt lat="43.14389" lon="-1.66877">
        <ele>115.861</ele>
        <time>2020-05-15T00:24:39Z</time>
      </trkpt>
      <trkpt lat="43.14379" lon="-1.66871">
        <ele>115.707</ele>
        <time>2020-05-15T00:24:59Z</time>
      </trkpt>
      <trkpt lat="43.14374" lon="-1.66868">
        <ele>115.708</ele>
        <time>2020-05-15T00:25:19Z</time>
      </trkpt>
      <trkpt lat="43.14368" lon="-1.66864">
        <ele>115.717</ele>
        <time>2020-05-15T00:25:39Z</time>
      </trkpt>
      <trkpt lat="43.14357" lon="-1.66854">
        <ele>115.682</ele>
        <time>2020-05-15T00:25:59Z</time>
      </trkpt>
      <trkpt lat="43.14346" lon="-1.66841">
        <ele>115.776</ele>
        <time>2020-05-15T00:26:19Z</time>
      </trkpt>
      <trkpt lat="43.14334" lon="-1.66829">
        <ele>115.884</ele>
        <time>2020-05-15T00:26:39Z</time>
      </trkpt>
      <trkpt lat="43.14329" lon="-1.66823">
        <ele>115.919</ele>
        <time>2020-05-15T00:26:59Z</time>
      </trkpt>
      <trkpt lat="43.14324" lon="-1.66818">
        <ele>115.999</ele>
        <time>2020-05-15T00:27:19Z</time>
      </trkpt>
      <trkpt lat="43.14315" lon="-1.66808">
        <ele>115.926</ele>
        <time>2020-05-15T00:27:39Z</time>
      </trkpt>
      <trkpt lat="43.14306" lon="-1.66797">
        <ele>116.188</ele>
        <time>2020-05-15T00:27:59Z</time>
      </trkpt>
      <trkpt lat="43.14306" lon="-1.66797">
        <ele>116.191</ele>
        <time>2020-05-15T00:28:19Z</time>
      </trkpt>
      <trkpt lat="43.14306" lon="-1.66797">
        <ele>116.181</ele>
        <time>2020-05-15T00:28:39Z</time>
      </trkpt>
      <trkpt lat="43.14281" lon="-1.66771">
        <ele>133.519</ele>
        <time>2020-05-15T00:28:59Z</time>
      </trkpt>
      <trkpt lat="43.14257" lon="-1.66744">
        <ele>116.408</ele>
        <time>2020-05-15T00:29:19Z</time>
      </trkpt>
      <trkpt lat="43.14257" lon="-1.66744">
        <ele>116.473</ele>
        <time>2020-05-15T00:29:39Z</time>
      </trkpt>
      <trkpt lat="43.14257" lon="-1.66744">
        <ele>116.448</ele>
        <time>2020-05-15T00:29:59Z</time>
      </trkpt>
      <trkpt lat="43.1425" lon="-1.66739">
        <ele>116.692</ele>
        <time>2020-05-15T00:30:19Z</time>
      </trkpt>
      <trkpt lat="43.14244" lon="-1.66735">
        <ele>116.67</ele>
        <time>2020-05-15T00:30:39Z</time>
      </trkpt>
      <trkpt lat="43.14237" lon="-1.6673">
        <ele>116.775</ele>
        <time>2020-05-15T00:30:59Z</time>
      </trkpt>
      <trkpt lat="43.14231" lon="-1.66726">
        <ele>116.775</ele>
        <time>2020-05-15T00:31:19Z</time>
      </trkpt>
      <trkpt lat="43.14208" lon="-1.66715">
        <ele>116.752</ele>
        <time>2020-05-15T00:31:39Z</time>
      </trkpt>
      <trkpt lat="43.14185" lon="-1.66704">
        <ele>116.844</ele>
        <time>2020-05-15T00:31:59Z</time>
      </trkpt>
      <trkpt lat="43.14169" lon="-1.66696">
        <ele>116.991</ele>
        <time>2020-05-15T00:32:19Z</time>
      </trkpt>
      <trkpt lat="43.14152" lon="-1.66688">
        <ele>117.181</ele>
        <time>2020-05-15T00:32:39Z</time>
      </trkpt>
      <trkpt lat="43.14145" lon="-1.66686">
        <ele>117.219</ele>
        <time>2020-05-15T00:32:59Z</time>
      </trkpt>
      <trkpt lat="43.14139" lon="-1.66683">
        <ele>117.308</ele>
        <time>2020-05-15T00:33:19Z</time>
      </trkpt>
      <trkpt lat="43.14134" lon="-1.66682">
        <ele>117.223</ele>
        <time>2020-05-15T00:33:39Z</time>
      </trkpt>
      <trkpt lat="43.14129" lon="-1.66681">
        <ele>117.348</ele>
        <time>2020-05-15T00:33:59Z</time>
      </trkpt>
      <trkpt lat="43.14124" lon="-1.6668">
        <ele>117.342</ele>
        <time>2020-05-15T00:34:19Z</time>
      </trkpt>
      <trkpt lat="43.14119" lon="-1.66679">
        <ele>117.39</ele>
        <time>2020-05-15T00:34:39Z</time>
      </trkpt>
      <trkpt lat="43.14086" lon="-1.66676">
        <ele>117.885</ele>
        <time>2020-05-15T00:34:59Z</time>
      </trkpt>
      <trkpt lat="43.14073" lon="-1.66675">
        <ele>117.745</ele>
        <time>2020-05-15T00:35:19Z</time>
      </trkpt>
      <trkpt lat="43.14059" lon="-1.66674">
        <ele>117.622</ele>
        <time>2020-05-15T00:35:39Z</time>
      </trkpt>
      <trkpt lat="43.14053" lon="-1.66674">
        <ele>117.744</ele>
        <time>2020-05-15T00:35:59Z</time>
      </trkpt>
      <trkpt lat="43.14046" lon="-1.66674">
        <ele>117.863</ele>
        <time>2020-05-15T00:36:19Z</time>
      </trkpt>
      <trkpt lat="43.14017" lon="-1.66669">
        <ele>119.244</ele>
        <time>2020-05-15T00:36:39Z</time>
      </trkpt>
      <trkpt lat="43.14006" lon="-1.66666">
        <ele>117.718</ele>
        <time>2020-05-15T00:36:59Z</time>
      </trkpt>
      <trkpt lat="43.13994" lon="-1.66661">
        <ele>117.808</ele>
        <time>2020-05-15T00:37:19Z</time>
      </trkpt>
      <trkpt lat="43.13989" lon="-1.66658">
        <ele>117.81</ele>
        <time>2020-05-15T00:37:39Z</time>
      </trkpt>
      <trkpt lat="43.13984" lon="-1.66655">
        <ele>117.875</ele>
        <time>2020-05-15T00:37:59Z</time>
      </trkpt>
      <trkpt lat="43.13954" lon="-1.66635">
        <ele>117.959</ele>
        <time>2020-05-15T00:38:19Z</time>
      </trkpt>
      <trkpt lat="43.13923" lon="-1.66614">
        <ele>117.867</ele>
        <time>2020-05-15T00:38:39Z</time>
      </trkpt>
      <trkpt lat="43.13909" lon="-1.66604">
        <ele>118.312</ele>
        <time>2020-05-15T00:38:59Z</time>
      </trkpt>
      <trkpt lat="43.13892" lon="-1.66592">
        <ele>118.442</ele>
        <time>2020-05-15T00:39:19Z</time>
      </trkpt>
      <trkpt lat="43.13872" lon="-1.66584">
        <ele>118.449</ele>
        <time>2020-05-15T00:39:39Z</time>
      </trkpt>
      <trkpt lat="43.13858" lon="-1.6658">
        <ele>118.451</ele>
        <time>2020-05-15T00:39:59Z</time>
      </trkpt>
      <trkpt lat="43.1385" lon="-1.66579">
        <ele>118.565</ele>
        <time>2020-05-15T00:40:19Z</time>
      </trkpt>
      <trkpt lat="43.13843" lon="-1.66578">
        <ele>118.568</ele>
        <time>2020-05-15T00:40:39Z</time>
      </trkpt>
      <trkpt lat="43.13829" lon="-1.66576">
        <ele>118.514</ele>
        <time>2020-05-15T00:40:59Z</time>
      </trkpt>
      <trkpt lat="43.13815" lon="-1.66575">
        <ele>118.508</ele>
        <time>2020-05-15T00:41:19Z</time>
      </trkpt>
      <trkpt lat="43.13804" lon="-1.66575">
        <ele>118.95</ele>
        <time>2020-05-15T00:41:39Z</time>
      </trkpt>
      <trkpt lat="43.13788" lon="-1.66573">
        <ele>118.835</ele>
        <time>2020-05-15T00:41:59Z</time>
      </trkpt>
      <trkpt lat="43.13771" lon="-1.66572">
        <ele>118.999</ele>
        <time>2020-05-15T00:42:19Z</time>
      </trkpt>
      <trkpt lat="43.13754" lon="-1.66571">
        <ele>119.677</ele>
        <time>2020-05-15T00:42:39Z</time>
      </trkpt>
      <trkpt lat="43.13736" lon="-1.6657">
        <ele>123.212</ele>
        <time>2020-05-15T00:42:59Z</time>
      </trkpt>
      <trkpt lat="43.13729" lon="-1.66569">
        <ele>119.332</ele>
        <time>2020-05-15T00:43:19Z</time>
      </trkpt>
      <trkpt lat="43.13722" lon="-1.66569">
        <ele>119.479</ele>
        <time>2020-05-15T00:43:39Z</time>
      </trkpt>
      <trkpt lat="43.13684" lon="-1.66566">
        <ele>119.661</ele>
        <time>2020-05-15T00:43:59Z</time>
      </trkpt>
      <trkpt lat="43.13645" lon="-1.66563">
        <ele>119.831</ele>
        <time>2020-05-15T00:44:19Z</time>
      </trkpt>
      <trkpt lat="43.13635" lon="-1.66563">
        <ele>119.961</ele>
        <time>2020-05-15T00:44:39Z</time>
      </trkpt>
      <trkpt lat="43.13611" lon="-1.66564">
        <ele>120.007</ele>
        <time>2020-05-15T00:44:59Z</time>
      </trkpt>
      <trkpt lat="43.13595" lon="-1.66567">
        <ele>119.908</ele>
        <time>2020-05-15T00:45:19Z</time>
      </trkpt>
      <trkpt lat="43.13579" lon="-1.6657">
        <ele>120.057</ele>
        <time>2020-05-15T00:45:39Z</time>
      </trkpt>
      <trkpt lat="43.13576" lon="-1.66571">
        <ele>120.012</ele>
        <time>2020-05-15T00:45:59Z</time>
      </trkpt>
      <trkpt lat="43.13573" lon="-1.66572">
        <ele>119.886</ele>
        <time>2020-05-15T00:46:19Z</time>
      </trkpt>
      <trkpt lat="43.13565" lon="-1.66576">
        <ele>119.794</ele>
        <time>2020-05-15T00:46:39Z</time>
      </trkpt>
      <trkpt lat="43.13558" lon="-1.66581">
        <ele>119.629</ele>
        <time>2020-05-15T00:46:59Z</time>
      </trkpt>
      <trkpt lat="43.13549" lon="-1.66587">
        <ele>119.559</ele>
        <time>2020-05-15T00:47:19Z</time>
      </trkpt>
      <trkpt lat="43.13541" lon="-1.66594">
        <ele>119.416</ele>
        <time>2020-05-15T00:47:39Z</time>
      </trkpt>
      <trkpt lat="43.1354" lon="-1.66593">
        <ele>119.388</ele>
        <time>2020-05-15T00:47:59Z</time>
      </trkpt>
      <trkpt lat="43.13539" lon="-1.66593">
        <ele>119.315</ele>
        <time>2020-05-15T00:48:19Z</time>
      </trkpt>
      <trkpt lat="43.13536" lon="-1.66591">
        <ele>118.665</ele>
        <time>2020-05-15T00:48:39Z</time>
      </trkpt>
      <trkpt lat="43.13529" lon="-1.66587">
        <ele>114.511</ele>
        <time>2020-05-15T00:48:59Z</time>
      </trkpt>
      <trkpt lat="43.13517" lon="-1.66582">
        <ele>115.108</ele>
        <time>2020-05-15T00:49:19Z</time>
      </trkpt>
      <trkpt lat="43.1351" lon="-1.6658">
        <ele>117.065</ele>
        <time>2020-05-15T00:49:39Z</time>
      </trkpt>
      <trkpt lat="43.13506" lon="-1.66579">
        <ele>119.45</ele>
        <time>2020-05-15T00:49:59Z</time>
      </trkpt>
      <trkpt lat="43.135" lon="-1.6658">
        <ele>119.414</ele>
        <time>2020-05-15T00:50:19Z</time>
      </trkpt>
      <trkpt lat="43.1349" lon="-1.66582">
        <ele>119.812</ele>
        <time>2020-05-15T00:50:39Z</time>
      </trkpt>
      <trkpt lat="43.13483" lon="-1.66584">
        <ele>119.697</ele>
        <time>2020-05-15T00:50:59Z</time>
      </trkpt>
      <trkpt lat="43.13479" lon="-1.66602">
        <ele>118.957</ele>
        <time>2020-05-15T00:51:19Z</time>
      </trkpt>
      <trkpt lat="43.13467" lon="-1.66608">
        <ele>118.814</ele>
        <time>2020-05-15T00:51:39Z</time>
      </trkpt>
      <trkpt lat="43.13444" lon="-1.6662">
        <ele>118.716</ele>
        <time>2020-05-15T00:51:59Z</time>
      </trkpt>
      <trkpt lat="43.13404" lon="-1.6664">
        <ele>118.791</ele>
        <time>2020-05-15T00:52:19Z</time>
      </trkpt>
      <trkpt lat="43.13378" lon="-1.66654">
        <ele>118.981</ele>
        <time>2020-05-15T00:52:39Z</time>
      </trkpt>
      <trkpt lat="43.13352" lon="-1.66671">
        <ele>119.119</ele>
        <time>2020-05-15T00:52:59Z</time>
      </trkpt>
      <trkpt lat="43.13338" lon="-1.66677">
        <ele>119.008</ele>
        <time>2020-05-15T00:53:19Z</time>
      </trkpt>
      <trkpt lat="43.13324" lon="-1.66685">
        <ele>118.923</ele>
        <time>2020-05-15T00:53:39Z</time>
      </trkpt>
      <trkpt lat="43.1331" lon="-1.66712">
        <ele>119.018</ele>
        <time>2020-05-15T00:53:59Z</time>
      </trkpt>
      <trkpt lat="43.13301" lon="-1.66727">
        <ele>119.072</ele>
        <time>2020-05-15T00:54:19Z</time>
      </trkpt>
      <trkpt lat="43.13274" lon="-1.66767">
        <ele>119.48</ele>
        <time>2020-05-15T00:54:39Z</time>
      </trkpt>
      <trkpt lat="43.13266" lon="-1.66782">
        <ele>119.915</ele>
        <time>2020-05-15T00:54:59Z</time>
      </trkpt>
      <trkpt lat="43.13264" lon="-1.66807">
        <ele>116.165</ele>
        <time>2020-05-15T00:55:19Z</time>
      </trkpt>
      <trkpt lat="43.13257" lon="-1.66825">
        <ele>119.912</ele>
        <time>2020-05-15T00:55:39Z</time>
      </trkpt>
      <trkpt lat="43.1325" lon="-1.66851">
        <ele>119.964</ele>
        <time>2020-05-15T00:55:59Z</time>
      </trkpt>
      <trkpt lat="43.13242" lon="-1.66882">
        <ele>119.738</ele>
        <time>2020-05-15T00:56:19Z</time>
      </trkpt>
      <trkpt lat="43.13236" lon="-1.66908">
        <ele>120.07</ele>
        <time>2020-05-15T00:56:39Z</time>
      </trkpt>
      <trkpt lat="43.13233" lon="-1.66932">
        <ele>120.117</ele>
        <time>2020-05-15T00:56:59Z</time>
      </trkpt>
      <trkpt lat="43.13229" lon="-1.66957">
        <ele>120.808</ele>
        <time>2020-05-15T00:57:19Z</time>
      </trkpt>
      <trkpt lat="43.13227" lon="-1.66983">
        <ele>117.797</ele>
        <time>2020-05-15T00:57:39Z</time>
      </trkpt>
      <trkpt lat="43.13224" lon="-1.67007">
        <ele>117.492</ele>
        <time>2020-05-15T00:57:59Z</time>
      </trkpt>
      <trkpt lat="43.1322" lon="-1.67034">
        <ele>120.436</ele>
        <time>2020-05-15T00:58:19Z</time>
      </trkpt>
      <trkpt lat="43.13216" lon="-1.6705">
        <ele>120.624</ele>
        <time>2020-05-15T00:58:39Z</time>
      </trkpt>
      <trkpt lat="43.13205" lon="-1.67085">
        <ele>117.749</ele>
        <time>2020-05-15T00:58:59Z</time>
      </trkpt>
      <trkpt lat="43.13199" lon="-1.67102">
        <ele>121.229</ele>
        <time>2020-05-15T00:59:19Z</time>
      </trkpt>
      <trkpt lat="43.13189" lon="-1.67125">
        <ele>119.096</ele>
        <time>2020-05-15T00:59:39Z</time>
      </trkpt>
      <trkpt lat="43.13185" lon="-1.67135">
        <ele>121.668</ele>
        <time>2020-05-15T00:59:59Z</time>
      </trkpt>
      <trkpt lat="43.13171" lon="-1.67155">
        <ele>118.557</ele>
        <time>2020-05-15T01:00:19Z</time>
      </trkpt>
      <trkpt lat="43.13163" lon="-1.67157">
        <ele>121.9</ele>
        <time>2020-05-15T01:00:39Z</time>
      </trkpt>
      <trkpt lat="43.13159" lon="-1.67144">
        <ele>121.92</ele>
        <time>2020-05-15T01:00:59Z</time>
      </trkpt>
      <trkpt lat="43.13157" lon="-1.67139">
        <ele>121.808</ele>
        <time>2020-05-15T01:01:19Z</time>
      </trkpt>
      <trkpt lat="43.13149" lon="-1.6715">
        <ele>123.059</ele>
        <time>2020-05-15T01:01:39Z</time>
      </trkpt>
      <trkpt lat="43.13144" lon="-1.67147">
        <ele>122.454</ele>
        <time>2020-05-15T01:01:59Z</time>
      </trkpt>
      <trkpt lat="43.13142" lon="-1.67146">
        <ele>122.478</ele>
        <time>2020-05-15T01:02:19Z</time>
      </trkpt>
      <trkpt lat="43.1314" lon="-1.67145">
        <ele>122.466</ele>
        <time>2020-05-15T01:02:39Z</time>
      </trkpt>
      <trkpt lat="43.13135" lon="-1.67143">
        <ele>122.211</ele>
        <time>2020-05-15T01:02:59Z</time>
      </trkpt>
      <trkpt lat="43.13134" lon="-1.67142">
        <ele>121.981</ele>
        <time>2020-05-15T01:03:19Z</time>
      </trkpt>
      <trkpt lat="43.13132" lon="-1.67141">
        <ele>121.858</ele>
        <time>2020-05-15T01:03:39Z</time>
      </trkpt>
      <trkpt lat="43.13129" lon="-1.67139">
        <ele>121.85</ele>
        <time>2020-05-15T01:03:59Z</time>
      </trkpt>
      <trkpt lat="43.13122" lon="-1.67135">
        <ele>121.693</ele>
        <time>2020-05-15T01:04:19Z</time>
      </trkpt>
      <trkpt lat="43.13118" lon="-1.67131">
        <ele>121.665</ele>
        <time>2020-05-15T01:04:39Z</time>
      </trkpt>
      <trkpt lat="43.13113" lon="-1.67127">
        <ele>121.708</ele>
        <time>2020-05-15T01:05:19Z</time>
      </trkpt>
      <trkpt lat="43.13107" lon="-1.67119">
        <ele>121.628</ele>
        <time>2020-05-15T01:05:59Z</time>
        <extensions>
          <visugpx:TrkExtension xmlns:visugpx="https://www.visugpx.com/editgpx/">
            <visugpx:node>1</visugpx:node>
            </visugpx:TrkExtension>
        </extensions>
      </trkpt>
      <trkpt lat="43.13115" lon="-1.67128">
        <ele>120.4</ele>
      </trkpt>
      <trkpt lat="43.1313" lon="-1.6714">
        <ele>121</ele>
      </trkpt>
      <trkpt lat="43.13153" lon="-1.67149">
        <ele>120.7</ele>
      </trkpt>
      <trkpt lat="43.13149" lon="-1.67161">
        <ele>119.3</ele>
      </trkpt>
      <trkpt lat="43.13148" lon="-1.67176">
        <ele>120.4</ele>
      </trkpt>
      <trkpt lat="43.13153" lon="-1.67193">
        <ele>123.2</ele>
      </trkpt>
      <trkpt lat="43.13158" lon="-1.67201">
        <ele>122.6</ele>
      </trkpt>
      <trkpt lat="43.13164" lon="-1.67207">
        <ele>121.4</ele>
      </trkpt>
      <trkpt lat="43.13178" lon="-1.67216">
        <ele>121</ele>
      </trkpt>
      <trkpt lat="43.13203" lon="-1.67225">
        <ele>123</ele>
      </trkpt>
      <trkpt lat="43.13205" lon="-1.67219">
        <ele>122.9</ele>
      </trkpt>
      <trkpt lat="43.13209" lon="-1.67216">
        <ele>122.8</ele>
      </trkpt>
      <trkpt lat="43.13212" lon="-1.67216">
        <ele>122.8</ele>
      </trkpt>
      <trkpt lat="43.13217" lon="-1.67221">
        <ele>123</ele>
      </trkpt>
      <trkpt lat="43.13217" lon="-1.67232">
        <ele>123</ele>
      </trkpt>
      <trkpt lat="43.13229" lon="-1.67248">
        <ele>123.2</ele>
      </trkpt>
      <trkpt lat="43.13235" lon="-1.6726">
        <ele>123.7</ele>
      </trkpt>
      <trkpt lat="43.13258" lon="-1.67314">
        <ele>124.1</ele>
      </trkpt>
      <trkpt lat="43.13271" lon="-1.67362">
        <ele>125</ele>
      </trkpt>
      <trkpt lat="43.13302" lon="-1.67494">
        <ele>126.7</ele>
      </trkpt>
      <trkpt lat="43.13314" lon="-1.67529">
        <ele>127.6</ele>
      </trkpt>
      <trkpt lat="43.1332" lon="-1.67542">
        <ele>127.8</ele>
      </trkpt>
      <trkpt lat="43.13368" lon="-1.67618">
        <ele>131</ele>
      </trkpt>
      <trkpt lat="43.13422" lon="-1.67695">
        <ele>129.2</ele>
      </trkpt>
      <trkpt lat="43.13521" lon="-1.67852">
        <ele>129.8</ele>
      </trkpt>
      <trkpt lat="43.13572" lon="-1.67926">
        <ele>130.1</ele>
      </trkpt>
      <trkpt lat="43.13594" lon="-1.67965">
        <ele>131</ele>
      </trkpt>
      <trkpt lat="43.13655" lon="-1.68085">
        <ele>132.5</ele>
      </trkpt>
      <trkpt lat="43.13679" lon="-1.68119">
        <ele>132.2</ele>
      </trkpt>
      <trkpt lat="43.13731" lon="-1.68182">
        <ele>131.4</ele>
      </trkpt>
      <trkpt lat="43.13772" lon="-1.6822">
        <ele>132.1</ele>
      </trkpt>
      <trkpt lat="43.13827" lon="-1.68264">
        <ele>135.7</ele>
      </trkpt>
      <trkpt lat="43.13836" lon="-1.68274">
        <ele>135.1</ele>
      </trkpt>
      <trkpt lat="43.13843" lon="-1.68285">
        <ele>135.6</ele>
      </trkpt>
      <trkpt lat="43.13852" lon="-1.68309">
        <ele>134</ele>
      </trkpt>
      <trkpt lat="43.13888" lon="-1.68452">
        <ele>141.5</ele>
      </trkpt>
      <trkpt lat="43.13899" lon="-1.6851">
        <ele>142.6</ele>
      </trkpt>
      <trkpt lat="43.13903" lon="-1.68578">
        <ele>143.1</ele>
      </trkpt>
      <trkpt lat="43.13904" lon="-1.6868">
        <ele>142.3</ele>
      </trkpt>
      <trkpt lat="43.13909" lon="-1.68731">
        <ele>143.1</ele>
      </trkpt>
      <trkpt lat="43.13906" lon="-1.68746">
        <ele>142.4</ele>
      </trkpt>
      <trkpt lat="43.13903" lon="-1.68753">
        <ele>142</ele>
      </trkpt>
      <trkpt lat="43.13872" lon="-1.68803">
        <ele>139.7</ele>
      </trkpt>
      <trkpt lat="43.13855" lon="-1.68842">
        <ele>139.8</ele>
      </trkpt>
      <trkpt lat="43.13828" lon="-1.68956">
        <ele>141.4</ele>
      </trkpt>
      <trkpt lat="43.1382" lon="-1.6898">
        <ele>142.3</ele>
      </trkpt>
      <trkpt lat="43.1381" lon="-1.68998">
        <ele>142.5</ele>
      </trkpt>
      <trkpt lat="43.13794" lon="-1.69016">
        <ele>142.9</ele>
      </trkpt>
      <trkpt lat="43.1378" lon="-1.69027">
        <ele>143.1</ele>
      </trkpt>
      <trkpt lat="43.13753" lon="-1.69043">
        <ele>143.4</ele>
      </trkpt>
      <trkpt lat="43.13733" lon="-1.6905">
        <ele>143</ele>
      </trkpt>
      <trkpt lat="43.13702" lon="-1.69053">
        <ele>142.6</ele>
      </trkpt>
      <trkpt lat="43.1366" lon="-1.69052">
        <ele>142.5</ele>
      </trkpt>
      <trkpt lat="43.13641" lon="-1.6905">
        <ele>142.2</ele>
      </trkpt>
      <trkpt lat="43.13621" lon="-1.69046">
        <ele>142.3</ele>
      </trkpt>
      <trkpt lat="43.13574" lon="-1.69031">
        <ele>143</ele>
      </trkpt>
      <trkpt lat="43.13555" lon="-1.69027">
        <ele>143.8</ele>
      </trkpt>
      <trkpt lat="43.1354" lon="-1.69027">
        <ele>143.3</ele>
      </trkpt>
      <trkpt lat="43.13514" lon="-1.69032">
        <ele>144.6</ele>
      </trkpt>
      <trkpt lat="43.13498" lon="-1.69038">
        <ele>145.8</ele>
      </trkpt>
      <trkpt lat="43.13474" lon="-1.69051">
        <ele>145.8</ele>
      </trkpt>
      <trkpt lat="43.13451" lon="-1.69069">
        <ele>146.9</ele>
      </trkpt>
      <trkpt lat="43.13432" lon="-1.69089">
        <ele>147.5</ele>
      </trkpt>
      <trkpt lat="43.1342" lon="-1.69105">
        <ele>147.3</ele>
      </trkpt>
      <trkpt lat="43.13392" lon="-1.69151">
        <ele>147.5</ele>
      </trkpt>
      <trkpt lat="43.13376" lon="-1.69181">
        <ele>148</ele>
      </trkpt>
      <trkpt lat="43.13362" lon="-1.69213">
        <ele>147.8</ele>
      </trkpt>
      <trkpt lat="43.13354" lon="-1.69236">
        <ele>147.2</ele>
      </trkpt>
      <trkpt lat="43.13346" lon="-1.6927">
        <ele>146.7</ele>
      </trkpt>
      <trkpt lat="43.13344" lon="-1.6929">
        <ele>147.2</ele>
      </trkpt>
      <trkpt lat="43.13345" lon="-1.69331">
        <ele>147.3</ele>
      </trkpt>
      <trkpt lat="43.1336" lon="-1.69449">
        <ele>147.6</ele>
      </trkpt>
      <trkpt lat="43.1336" lon="-1.69479">
        <ele>147.3</ele>
      </trkpt>
      <trkpt lat="43.13346" lon="-1.69555">
        <ele>149.6</ele>
      </trkpt>
      <trkpt lat="43.13308" lon="-1.69741">
        <ele>148.2</ele>
      </trkpt>
      <trkpt lat="43.13295" lon="-1.69834">
        <ele>151.5</ele>
      </trkpt>
      <trkpt lat="43.13288" lon="-1.69869">
        <ele>149.9</ele>
      </trkpt>
      <trkpt lat="43.13268" lon="-1.69917">
        <ele>148</ele>
      </trkpt>
      <trkpt lat="43.132" lon="-1.70065">
        <ele>147.5</ele>
      </trkpt>
      <trkpt lat="43.1318" lon="-1.70105">
        <ele>147.9</ele>
      </trkpt>
      <trkpt lat="43.13164" lon="-1.70132">
        <ele>148.7</ele>
      </trkpt>
      <trkpt lat="43.13002" lon="-1.70342">
        <ele>150.7</ele>
      </trkpt>
      <trkpt lat="43.12985" lon="-1.70371">
        <ele>150.8</ele>
      </trkpt>
      <trkpt lat="43.12973" lon="-1.704">
        <ele>152</ele>
      </trkpt>
      <trkpt lat="43.1294" lon="-1.70506">
        <ele>153.3</ele>
      </trkpt>
      <trkpt lat="43.12937" lon="-1.70522">
        <ele>153.2</ele>
      </trkpt>
      <trkpt lat="43.12933" lon="-1.70576">
        <ele>154.4</ele>
      </trkpt>
      <trkpt lat="43.12923" lon="-1.70613">
        <ele>155</ele>
      </trkpt>
      <trkpt lat="43.12919" lon="-1.70634">
        <ele>155.1</ele>
      </trkpt>
      <trkpt lat="43.12915" lon="-1.70682">
        <ele>156</ele>
      </trkpt>
      <trkpt lat="43.12911" lon="-1.70707">
        <ele>156</ele>
      </trkpt>
      <trkpt lat="43.12898" lon="-1.7075">
        <ele>156.3</ele>
      </trkpt>
      <trkpt lat="43.12896" lon="-1.70785">
        <ele>156.3</ele>
      </trkpt>
      <trkpt lat="43.12899" lon="-1.70814">
        <ele>156.4</ele>
      </trkpt>
      <trkpt lat="43.1292" lon="-1.70928">
        <ele>157.2</ele>
      </trkpt>
      <trkpt lat="43.12922" lon="-1.70934">
        <ele>157.3</ele>
      </trkpt>
      <trkpt lat="43.12929" lon="-1.70944">
        <ele>157.9</ele>
      </trkpt>
      <trkpt lat="43.12941" lon="-1.70953">
        <ele>158.5</ele>
      </trkpt>
      <trkpt lat="43.12946" lon="-1.70961">
        <ele>158.4</ele>
      </trkpt>
      <trkpt lat="43.12951" lon="-1.70977">
        <ele>158.4</ele>
      </trkpt>
      <trkpt lat="43.12976" lon="-1.71154">
        <ele>164.1</ele>
      </trkpt>
      <trkpt lat="43.1298" lon="-1.71175">
        <ele>165.8</ele>
      </trkpt>
      <trkpt lat="43.12996" lon="-1.71229">
        <ele>167.8</ele>
      </trkpt>
      <trkpt lat="43.12999" lon="-1.71244">
        <ele>167.4</ele>
      </trkpt>
      <trkpt lat="43.13" lon="-1.71259">
        <ele>167</ele>
      </trkpt>
      <trkpt lat="43.12994" lon="-1.71331">
        <ele>169.7</ele>
      </trkpt>
      <trkpt lat="43.12995" lon="-1.71373">
        <ele>169</ele>
      </trkpt>
      <trkpt lat="43.13012" lon="-1.71452">
        <ele>170.7</ele>
      </trkpt>
      <trkpt lat="43.13018" lon="-1.71489">
        <ele>172.4</ele>
      </trkpt>
      <trkpt lat="43.1303" lon="-1.7162">
        <ele>173.9</ele>
      </trkpt>
      <trkpt lat="43.13033" lon="-1.71676">
        <ele>176.3</ele>
      </trkpt>
      <trkpt lat="43.1303" lon="-1.71708">
        <ele>176.1</ele>
      </trkpt>
      <trkpt lat="43.13023" lon="-1.71739">
        <ele>177.9</ele>
      </trkpt>
      <trkpt lat="43.13009" lon="-1.71782">
        <ele>179.4</ele>
      </trkpt>
      <trkpt lat="43.13007" lon="-1.71808">
        <ele>179.6</ele>
      </trkpt>
      <trkpt lat="43.13012" lon="-1.71825">
        <ele>179.6</ele>
      </trkpt>
      <trkpt lat="43.13018" lon="-1.71834">
        <ele>180.4</ele>
      </trkpt>
      <trkpt lat="43.13046" lon="-1.71863">
        <ele>181.6</ele>
      </trkpt>
      <trkpt lat="43.1306" lon="-1.71884">
        <ele>183.1</ele>
      </trkpt>
      <trkpt lat="43.1313" lon="-1.72022">
        <ele>189.7</ele>
      </trkpt>
      <trkpt lat="43.13154" lon="-1.72055">
        <ele>191.1</ele>
      </trkpt>
      <trkpt lat="43.13304" lon="-1.7223">
        <ele>184.3</ele>
      </trkpt>
      <trkpt lat="43.13312" lon="-1.72242">
        <ele>184.1</ele>
      </trkpt>
      <trkpt lat="43.13319" lon="-1.72264">
        <ele>184.4</ele>
      </trkpt>
      <trkpt lat="43.1332" lon="-1.72275">
        <ele>184.6</ele>
      </trkpt>
      <trkpt lat="43.13318" lon="-1.72289">
        <ele>184.6</ele>
      </trkpt>
      <trkpt lat="43.13303" lon="-1.72336">
        <ele>183.9</ele>
      </trkpt>
      <trkpt lat="43.13302" lon="-1.72357">
        <ele>183.3</ele>
      </trkpt>
      <trkpt lat="43.13328" lon="-1.72479">
        <ele>184.5</ele>
      </trkpt>
      <trkpt lat="43.13328" lon="-1.72507">
        <ele>184.2</ele>
      </trkpt>
      <trkpt lat="43.13325" lon="-1.72522">
        <ele>183.7</ele>
      </trkpt>
      <trkpt lat="43.13319" lon="-1.72535">
        <ele>183.5</ele>
      </trkpt>
      <trkpt lat="43.1329" lon="-1.72578">
        <ele>183.3</ele>
      </trkpt>
      <trkpt lat="43.13272" lon="-1.72599">
        <ele>181.4</ele>
      </trkpt>
      <trkpt lat="43.13262" lon="-1.72606">
        <ele>181.6</ele>
      </trkpt>
      <trkpt lat="43.13206" lon="-1.72636">
        <ele>183.6</ele>
      </trkpt>
      <trkpt lat="43.13153" lon="-1.72678">
        <ele>183.7</ele>
      </trkpt>
      <trkpt lat="43.13102" lon="-1.72699">
        <ele>184</ele>
      </trkpt>
      <trkpt lat="43.13095" lon="-1.72704">
        <ele>184.4</ele>
      </trkpt>
      <trkpt lat="43.13084" lon="-1.72719">
        <ele>184</ele>
      </trkpt>
      <trkpt lat="43.13065" lon="-1.72765">
        <ele>184.9</ele>
      </trkpt>
      <trkpt lat="43.13032" lon="-1.72815">
        <ele>184.7</ele>
      </trkpt>
      <trkpt lat="43.13025" lon="-1.72828">
        <ele>185.1</ele>
      </trkpt>
      <trkpt lat="43.12968" lon="-1.72967">
        <ele>185.3</ele>
      </trkpt>
      <trkpt lat="43.12959" lon="-1.72996">
        <ele>185.5</ele>
      </trkpt>
      <trkpt lat="43.1295" lon="-1.73074">
        <ele>185.9</ele>
      </trkpt>
      <trkpt lat="43.12947" lon="-1.73087">
        <ele>186</ele>
      </trkpt>
      <trkpt lat="43.12937" lon="-1.73113">
        <ele>185.6</ele>
      </trkpt>
      <trkpt lat="43.12919" lon="-1.73137">
        <ele>185.8</ele>
      </trkpt>
      <trkpt lat="43.12854" lon="-1.73212">
        <ele>187.2</ele>
      </trkpt>
      <trkpt lat="43.12836" lon="-1.73237">
        <ele>186.4</ele>
      </trkpt>
      <trkpt lat="43.12796" lon="-1.733">
        <ele>189.8</ele>
      </trkpt>
      <trkpt lat="43.12742" lon="-1.73401">
        <ele>190.9</ele>
      </trkpt>
      <trkpt lat="43.12724" lon="-1.73438">
        <ele>190.6</ele>
      </trkpt>
      <trkpt lat="43.12685" lon="-1.7353">
        <ele>193.6</ele>
      </trkpt>
      <trkpt lat="43.12672" lon="-1.73568">
        <ele>193.3</ele>
      </trkpt>
      <trkpt lat="43.12653" lon="-1.73641">
        <ele>194.7</ele>
      </trkpt>
      <trkpt lat="43.1265" lon="-1.73675">
        <ele>196</ele>
      </trkpt>
      <trkpt lat="43.12653" lon="-1.73713">
        <ele>198.9</ele>
      </trkpt>
      <trkpt lat="43.12662" lon="-1.73768">
        <ele>195.1</ele>
      </trkpt>
      <trkpt lat="43.1266" lon="-1.73804">
        <ele>194.2</ele>
      </trkpt>
      <trkpt lat="43.12653" lon="-1.73838">
        <ele>198</ele>
      </trkpt>
      <trkpt lat="43.12633" lon="-1.73909">
        <ele>198.7</ele>
      </trkpt>
      <trkpt lat="43.12628" lon="-1.73932">
        <ele>199.4</ele>
      </trkpt>
      <trkpt lat="43.12624" lon="-1.73962">
        <ele>200.1</ele>
      </trkpt>
      <trkpt lat="43.1262" lon="-1.74026">
        <ele>200.1</ele>
      </trkpt>
      <trkpt lat="43.12617" lon="-1.74111">
        <ele>200.4</ele>
      </trkpt>
      <trkpt lat="43.12615" lon="-1.74289">
        <ele>201.3</ele>
      </trkpt>
      <trkpt lat="43.12612" lon="-1.74399">
        <ele>203.5</ele>
      </trkpt>
      <trkpt lat="43.12608" lon="-1.74476">
        <ele>206.8</ele>
      </trkpt>
      <trkpt lat="43.12609" lon="-1.74498">
        <ele>208</ele>
      </trkpt>
      <trkpt lat="43.12626" lon="-1.74658">
        <ele>216.8</ele>
      </trkpt>
      <trkpt lat="43.12629" lon="-1.74719">
        <ele>219.7</ele>
      </trkpt>
      <trkpt lat="43.12628" lon="-1.74746">
        <ele>219.8</ele>
      </trkpt>
      <trkpt lat="43.12625" lon="-1.7477">
        <ele>221.2</ele>
      </trkpt>
      <trkpt lat="43.12605" lon="-1.74872">
        <ele>224.4</ele>
      </trkpt>
      <trkpt lat="43.12593" lon="-1.74896">
        <ele>225.6</ele>
      </trkpt>
      <trkpt lat="43.12539" lon="-1.74973">
        <ele>227.7</ele>
      </trkpt>
      <trkpt lat="43.12476" lon="-1.75095">
        <ele>236.4</ele>
      </trkpt>
      <trkpt lat="43.12428" lon="-1.75173">
        <ele>241.7</ele>
      </trkpt>
      <trkpt lat="43.1241" lon="-1.75197">
        <ele>242.6</ele>
      </trkpt>
      <trkpt lat="43.12401" lon="-1.75206">
        <ele>242.5</ele>
      </trkpt>
      <trkpt lat="43.12366" lon="-1.75231">
        <ele>245.4</ele>
      </trkpt>
      <trkpt lat="43.12353" lon="-1.75247">
        <ele>247.8</ele>
      </trkpt>
      <trkpt lat="43.12348" lon="-1.75265">
        <ele>249.9</ele>
      </trkpt>
      <trkpt lat="43.12349" lon="-1.75304">
        <ele>251.4</ele>
      </trkpt>
      <trkpt lat="43.12347" lon="-1.75313">
        <ele>251.6</ele>
      </trkpt>
      <trkpt lat="43.12343" lon="-1.75319">
        <ele>251.1</ele>
      </trkpt>
      <trkpt lat="43.12338" lon="-1.75322">
        <ele>249.8</ele>
      </trkpt>
      <trkpt lat="43.12331" lon="-1.75323">
        <ele>249.1</ele>
      </trkpt>
      <trkpt lat="43.12293" lon="-1.75309">
        <ele>253.3</ele>
      </trkpt>
      <trkpt lat="43.12277" lon="-1.75308">
        <ele>255.2</ele>
      </trkpt>
      <trkpt lat="43.12269" lon="-1.7531">
        <ele>255</ele>
      </trkpt>
      <trkpt lat="43.12236" lon="-1.75333">
        <ele>260.3</ele>
      </trkpt>
      <trkpt lat="43.12182" lon="-1.75358">
        <ele>262.4</ele>
      </trkpt>
      <trkpt lat="43.12156" lon="-1.75373">
        <ele>265.9</ele>
      </trkpt>
      <trkpt lat="43.12144" lon="-1.75382">
        <ele>266.7</ele>
      </trkpt>
      <trkpt lat="43.12117" lon="-1.75409">
        <ele>268.9</ele>
      </trkpt>
      <trkpt lat="43.12103" lon="-1.75419">
        <ele>269.4</ele>
      </trkpt>
      <trkpt lat="43.12056" lon="-1.75426">
        <ele>272.4</ele>
      </trkpt>
      <trkpt lat="43.12036" lon="-1.75434">
        <ele>272.8</ele>
      </trkpt>
      <trkpt lat="43.12011" lon="-1.75448">
        <ele>275.6</ele>
      </trkpt>
      <trkpt lat="43.11995" lon="-1.75453">
        <ele>276.2</ele>
      </trkpt>
      <trkpt lat="43.11983" lon="-1.75455">
        <ele>277.5</ele>
      </trkpt>
      <trkpt lat="43.11957" lon="-1.75454">
        <ele>279.3</ele>
      </trkpt>
      <trkpt lat="43.11945" lon="-1.75451">
        <ele>278.9</ele>
      </trkpt>
      <trkpt lat="43.11923" lon="-1.7544">
        <ele>279.9</ele>
      </trkpt>
      <trkpt lat="43.11907" lon="-1.75435">
        <ele>279.1</ele>
      </trkpt>
      <trkpt lat="43.11901" lon="-1.75436">
        <ele>278.9</ele>
      </trkpt>
      <trkpt lat="43.11895" lon="-1.7544">
        <ele>278.9</ele>
      </trkpt>
      <trkpt lat="43.1189" lon="-1.75448">
        <ele>278.7</ele>
      </trkpt>
      <trkpt lat="43.11887" lon="-1.75457">
        <ele>277.9</ele>
      </trkpt>
      <trkpt lat="43.11879" lon="-1.7549">
        <ele>276.3</ele>
      </trkpt>
      <trkpt lat="43.11873" lon="-1.75507">
        <ele>274.7</ele>
      </trkpt>
      <trkpt lat="43.1183" lon="-1.75597">
        <ele>269.9</ele>
      </trkpt>
      <trkpt lat="43.1179" lon="-1.75707">
        <ele>264.8</ele>
      </trkpt>
      <trkpt lat="43.11775" lon="-1.75736">
        <ele>261.1</ele>
      </trkpt>
      <trkpt lat="43.11743" lon="-1.75779">
        <ele>258.3</ele>
      </trkpt>
      <trkpt lat="43.11719" lon="-1.75803">
        <ele>255.2</ele>
      </trkpt>
      <trkpt lat="43.11701" lon="-1.75815">
        <ele>257.8</ele>
      </trkpt>
      <trkpt lat="43.11688" lon="-1.75821">
        <ele>258.5</ele>
      </trkpt>
      <trkpt lat="43.11656" lon="-1.75828">
        <ele>255.4</ele>
      </trkpt>
      <trkpt lat="43.11599" lon="-1.75835">
        <ele>258.5</ele>
      </trkpt>
      <trkpt lat="43.11566" lon="-1.75841">
        <ele>257.4</ele>
      </trkpt>
      <trkpt lat="43.11551" lon="-1.75846">
        <ele>258.1</ele>
      </trkpt>
      <trkpt lat="43.11527" lon="-1.75857">
        <ele>261.6</ele>
      </trkpt>
      <trkpt lat="43.11485" lon="-1.7588">
        <ele>262.1</ele>
      </trkpt>
      <trkpt lat="43.11466" lon="-1.75893">
        <ele>268.3</ele>
      </trkpt>
      <trkpt lat="43.11442" lon="-1.75914">
        <ele>269.1</ele>
      </trkpt>
      <trkpt lat="43.11383" lon="-1.75975">
        <ele>273.2</ele>
      </trkpt>
      <trkpt lat="43.11361" lon="-1.76003">
        <ele>273.3</ele>
      </trkpt>
      <trkpt lat="43.11343" lon="-1.76033">
        <ele>276.7</ele>
      </trkpt>
      <trkpt lat="43.11299" lon="-1.76124">
        <ele>286.3</ele>
      </trkpt>
      <trkpt lat="43.1129" lon="-1.7614">
        <ele>284.2</ele>
      </trkpt>
      <trkpt lat="43.11279" lon="-1.76155">
        <ele>284.6</ele>
      </trkpt>
      <trkpt lat="43.11269" lon="-1.76166">
        <ele>287.4</ele>
      </trkpt>
      <trkpt lat="43.11247" lon="-1.76185">
        <ele>289.6</ele>
      </trkpt>
      <trkpt lat="43.11235" lon="-1.76194">
        <ele>288.2</ele>
      </trkpt>
      <trkpt lat="43.11197" lon="-1.76217">
        <ele>290.7</ele>
      </trkpt>
      <trkpt lat="43.1117" lon="-1.76239">
        <ele>292.7</ele>
      </trkpt>
      <trkpt lat="43.11151" lon="-1.76263">
        <ele>294.2</ele>
      </trkpt>
      <trkpt lat="43.11123" lon="-1.76312">
        <ele>294.2</ele>
      </trkpt>
      <trkpt lat="43.11114" lon="-1.76325">
        <ele>295.7</ele>
      </trkpt>
      <trkpt lat="43.11093" lon="-1.76348">
        <ele>296.5</ele>
      </trkpt>
      <trkpt lat="43.11057" lon="-1.76376">
        <ele>299.7</ele>
      </trkpt>
      <trkpt lat="43.11045" lon="-1.76387">
        <ele>302.1</ele>
      </trkpt>
      <trkpt lat="43.11036" lon="-1.76398">
        <ele>301.7</ele>
      </trkpt>
      <trkpt lat="43.11018" lon="-1.76425">
        <ele>301.7</ele>
      </trkpt>
      <trkpt lat="43.11009" lon="-1.76442">
        <ele>301.1</ele>
      </trkpt>
      <trkpt lat="43.10971" lon="-1.76523">
        <ele>308.5</ele>
      </trkpt>
      <trkpt lat="43.10955" lon="-1.76546">
        <ele>312.4</ele>
      </trkpt>
      <trkpt lat="43.10936" lon="-1.76561">
        <ele>310.5</ele>
      </trkpt>
      <trkpt lat="43.10885" lon="-1.76584">
        <ele>308.5</ele>
      </trkpt>
      <trkpt lat="43.10859" lon="-1.76599">
        <ele>309.1</ele>
      </trkpt>
      <trkpt lat="43.10845" lon="-1.76609">
        <ele>311.1</ele>
      </trkpt>
      <trkpt lat="43.10818" lon="-1.76635">
        <ele>311.7</ele>
      </trkpt>
      <trkpt lat="43.10776" lon="-1.7669">
        <ele>313.3</ele>
      </trkpt>
      <trkpt lat="43.10766" lon="-1.76701">
        <ele>312.2</ele>
      </trkpt>
      <trkpt lat="43.10756" lon="-1.76709">
        <ele>312.7</ele>
      </trkpt>
      <trkpt lat="43.10745" lon="-1.76715">
        <ele>313.5</ele>
      </trkpt>
      <trkpt lat="43.10734" lon="-1.76718">
        <ele>313.1</ele>
      </trkpt>
      <trkpt lat="43.10722" lon="-1.76719">
        <ele>313.4</ele>
      </trkpt>
      <trkpt lat="43.10709" lon="-1.76717">
        <ele>313</ele>
      </trkpt>
      <trkpt lat="43.10676" lon="-1.76705">
        <ele>312.2</ele>
      </trkpt>
      <trkpt lat="43.10652" lon="-1.76701">
        <ele>310.1</ele>
      </trkpt>
      <trkpt lat="43.10641" lon="-1.76703">
        <ele>308.9</ele>
      </trkpt>
      <trkpt lat="43.10599" lon="-1.76716">
        <ele>310.3</ele>
      </trkpt>
      <trkpt lat="43.10588" lon="-1.76716">
        <ele>310.9</ele>
      </trkpt>
      <trkpt lat="43.10561" lon="-1.7671">
        <ele>311.3</ele>
      </trkpt>
      <trkpt lat="43.10479" lon="-1.76686">
        <ele>311</ele>
      </trkpt>
      <trkpt lat="43.10457" lon="-1.76683">
        <ele>311.1</ele>
      </trkpt>
      <trkpt lat="43.10444" lon="-1.76684">
        <ele>311.7</ele>
      </trkpt>
      <trkpt lat="43.10403" lon="-1.76696">
        <ele>309.2</ele>
      </trkpt>
      <trkpt lat="43.10314" lon="-1.76728">
        <ele>309.9</ele>
      </trkpt>
      <trkpt lat="43.1022" lon="-1.76759">
        <ele>316.5</ele>
      </trkpt>
      <trkpt lat="43.10193" lon="-1.76773">
        <ele>315.6</ele>
      </trkpt>
      <trkpt lat="43.10172" lon="-1.76792">
        <ele>316.2</ele>
      </trkpt>
      <trkpt lat="43.10161" lon="-1.76806">
        <ele>316.5</ele>
      </trkpt>
      <trkpt lat="43.10142" lon="-1.76841">
        <ele>320.1</ele>
      </trkpt>
      <trkpt lat="43.10131" lon="-1.76872">
        <ele>322.1</ele>
      </trkpt>
      <trkpt lat="43.10103" lon="-1.76988">
        <ele>325.5</ele>
      </trkpt>
      <trkpt lat="43.10085" lon="-1.77048">
        <ele>326.9</ele>
      </trkpt>
      <trkpt lat="43.10073" lon="-1.77071">
        <ele>329.7</ele>
      </trkpt>
      <trkpt lat="43.10046" lon="-1.77107">
        <ele>330.5</ele>
      </trkpt>
      <trkpt lat="43.10038" lon="-1.7712">
        <ele>331</ele>
      </trkpt>
      <trkpt lat="43.10025" lon="-1.77156">
        <ele>330.1</ele>
      </trkpt>
      <trkpt lat="43.10017" lon="-1.77197">
        <ele>332</ele>
      </trkpt>
      <trkpt lat="43.1" lon="-1.77254">
        <ele>331.3</ele>
      </trkpt>
      <trkpt lat="43.09964" lon="-1.77333">
        <ele>331.2</ele>
      </trkpt>
      <trkpt lat="43.09938" lon="-1.77401">
        <ele>335</ele>
      </trkpt>
      <trkpt lat="43.09908" lon="-1.77468">
        <ele>334.3</ele>
      </trkpt>
      <trkpt lat="43.09902" lon="-1.77485">
        <ele>334.1</ele>
      </trkpt>
      <trkpt lat="43.09893" lon="-1.7753">
        <ele>333.7</ele>
      </trkpt>
      <trkpt lat="43.09892" lon="-1.7756">
        <ele>334.1</ele>
      </trkpt>
      <trkpt lat="43.09897" lon="-1.77589">
        <ele>334.3</ele>
      </trkpt>
      <trkpt lat="43.09912" lon="-1.77626">
        <ele>335.6</ele>
      </trkpt>
      <trkpt lat="43.09921" lon="-1.77659">
        <ele>337</ele>
      </trkpt>
      <trkpt lat="43.09922" lon="-1.77671">
        <ele>337.2</ele>
      </trkpt>
      <trkpt lat="43.0992" lon="-1.77694">
        <ele>336.5</ele>
      </trkpt>
      <trkpt lat="43.09915" lon="-1.77717">
        <ele>334.2</ele>
      </trkpt>
      <trkpt lat="43.0991" lon="-1.77728">
        <ele>333.4</ele>
      </trkpt>
      <trkpt lat="43.09898" lon="-1.77742">
        <ele>333.1</ele>
      </trkpt>
      <trkpt lat="43.09823" lon="-1.77801">
        <ele>336.4</ele>
      </trkpt>
      <trkpt lat="43.09815" lon="-1.77811">
        <ele>336.1</ele>
      </trkpt>
      <trkpt lat="43.0981" lon="-1.7782">
        <ele>335.6</ele>
      </trkpt>
      <trkpt lat="43.09806" lon="-1.77833">
        <ele>335.2</ele>
      </trkpt>
      <trkpt lat="43.09789" lon="-1.7792">
        <ele>340</ele>
      </trkpt>
      <trkpt lat="43.09779" lon="-1.77945">
        <ele>337</ele>
      </trkpt>
      <trkpt lat="43.09765" lon="-1.77964">
        <ele>337.9</ele>
      </trkpt>
      <trkpt lat="43.09692" lon="-1.7803">
        <ele>338.2</ele>
      </trkpt>
      <trkpt lat="43.09684" lon="-1.7804">
        <ele>339</ele>
      </trkpt>
      <trkpt lat="43.0968" lon="-1.78048">
        <ele>339.5</ele>
      </trkpt>
      <trkpt lat="43.09677" lon="-1.78059">
        <ele>340.1</ele>
      </trkpt>
      <trkpt lat="43.09676" lon="-1.78072">
        <ele>340.9</ele>
      </trkpt>
      <trkpt lat="43.09684" lon="-1.78166">
        <ele>340.2</ele>
      </trkpt>
      <trkpt lat="43.09683" lon="-1.78177">
        <ele>341.8</ele>
      </trkpt>
      <trkpt lat="43.09676" lon="-1.78208">
        <ele>345.1</ele>
      </trkpt>
      <trkpt lat="43.09672" lon="-1.78218">
        <ele>345.6</ele>
      </trkpt>
      <trkpt lat="43.09659" lon="-1.78239">
        <ele>348.6</ele>
      </trkpt>
      <trkpt lat="43.09652" lon="-1.78248">
        <ele>349</ele>
      </trkpt>
      <trkpt lat="43.09636" lon="-1.78263">
        <ele>349.5</ele>
      </trkpt>
      <trkpt lat="43.09617" lon="-1.78271">
        <ele>348.9</ele>
      </trkpt>
      <trkpt lat="43.09577" lon="-1.78279">
        <ele>350.7</ele>
      </trkpt>
      <trkpt lat="43.09527" lon="-1.78276">
        <ele>352.2</ele>
      </trkpt>
      <trkpt lat="43.09517" lon="-1.78278">
        <ele>353</ele>
      </trkpt>
      <trkpt lat="43.09509" lon="-1.78282">
        <ele>353.7</ele>
      </trkpt>
      <trkpt lat="43.09501" lon="-1.78289">
        <ele>354.3</ele>
      </trkpt>
      <trkpt lat="43.09493" lon="-1.78298">
        <ele>354.2</ele>
      </trkpt>
      <trkpt lat="43.09487" lon="-1.78309">
        <ele>355</ele>
      </trkpt>
      <trkpt lat="43.09483" lon="-1.78322">
        <ele>356.2</ele>
      </trkpt>
      <trkpt lat="43.09481" lon="-1.78337">
        <ele>357.5</ele>
      </trkpt>
      <trkpt lat="43.09482" lon="-1.78352">
        <ele>358.6</ele>
      </trkpt>
      <trkpt lat="43.09484" lon="-1.78364">
        <ele>359.3</ele>
      </trkpt>
      <trkpt lat="43.09499" lon="-1.78413">
        <ele>360.2</ele>
      </trkpt>
      <trkpt lat="43.09502" lon="-1.78456">
        <ele>361.2</ele>
      </trkpt>
      <trkpt lat="43.09501" lon="-1.78486">
        <ele>360.8</ele>
      </trkpt>
      <trkpt lat="43.09497" lon="-1.78511">
        <ele>359.8</ele>
      </trkpt>
      <trkpt lat="43.09493" lon="-1.78522">
        <ele>360.3</ele>
      </trkpt>
      <trkpt lat="43.09466" lon="-1.78569">
        <ele>365.3</ele>
      </trkpt>
      <trkpt lat="43.09424" lon="-1.78681">
        <ele>367.9</ele>
      </trkpt>
      <trkpt lat="43.09416" lon="-1.78698">
        <ele>366.2</ele>
      </trkpt>
      <trkpt lat="43.09408" lon="-1.78711">
        <ele>366.2</ele>
      </trkpt>
      <trkpt lat="43.09398" lon="-1.78722">
        <ele>367.6</ele>
      </trkpt>
      <trkpt lat="43.0932" lon="-1.78792">
        <ele>369.2</ele>
      </trkpt>
      <trkpt lat="43.09294" lon="-1.78818">
        <ele>370.9</ele>
      </trkpt>
      <trkpt lat="43.09283" lon="-1.78833">
        <ele>371.8</ele>
      </trkpt>
      <trkpt lat="43.09261" lon="-1.7887">
        <ele>374.6</ele>
      </trkpt>
      <trkpt lat="43.0925" lon="-1.78885">
        <ele>375</ele>
      </trkpt>
      <trkpt lat="43.09226" lon="-1.78911">
        <ele>374.8</ele>
      </trkpt>
      <trkpt lat="43.09217" lon="-1.78919">
        <ele>375.5</ele>
      </trkpt>
      <trkpt lat="43.09199" lon="-1.78928">
        <ele>377.5</ele>
      </trkpt>
      <trkpt lat="43.09188" lon="-1.78931">
        <ele>377.9</ele>
      </trkpt>
      <trkpt lat="43.09158" lon="-1.78933">
        <ele>377</ele>
      </trkpt>
      <trkpt lat="43.0915" lon="-1.78937">
        <ele>377.6</ele>
      </trkpt>
      <trkpt lat="43.09143" lon="-1.78944">
        <ele>378.6</ele>
      </trkpt>
      <trkpt lat="43.09138" lon="-1.78952">
        <ele>379.5</ele>
      </trkpt>
      <trkpt lat="43.09134" lon="-1.78964">
        <ele>380.5</ele>
      </trkpt>
      <trkpt lat="43.09115" lon="-1.79039">
        <ele>384.6</ele>
      </trkpt>
      <trkpt lat="43.09102" lon="-1.79065">
        <ele>385.2</ele>
      </trkpt>
      <trkpt lat="43.09084" lon="-1.79086">
        <ele>383</ele>
      </trkpt>
      <trkpt lat="43.09036" lon="-1.7913">
        <ele>385.7</ele>
      </trkpt>
      <trkpt lat="43.0902" lon="-1.79149">
        <ele>387</ele>
      </trkpt>
      <trkpt lat="43.09013" lon="-1.79161">
        <ele>387.9</ele>
      </trkpt>
      <trkpt lat="43.09005" lon="-1.79186">
        <ele>388.4</ele>
      </trkpt>
      <trkpt lat="43.09004" lon="-1.79199">
        <ele>388.9</ele>
      </trkpt>
      <trkpt lat="43.09006" lon="-1.79214">
        <ele>390.3</ele>
      </trkpt>
      <trkpt lat="43.09015" lon="-1.79246">
        <ele>393</ele>
      </trkpt>
      <trkpt lat="43.09015" lon="-1.79253">
        <ele>392.4</ele>
      </trkpt>
      <trkpt lat="43.09013" lon="-1.79259">
        <ele>392.4</ele>
      </trkpt>
      <trkpt lat="43.09009" lon="-1.79263">
        <ele>392.5</ele>
      </trkpt>
      <trkpt lat="43.09004" lon="-1.79263">
        <ele>392.4</ele>
      </trkpt>
      <trkpt lat="43.08998" lon="-1.7926">
        <ele>391.9</ele>
      </trkpt>
      <trkpt lat="43.08983" lon="-1.79247">
        <ele>392.1</ele>
      </trkpt>
      <trkpt lat="43.08976" lon="-1.79244">
        <ele>392.8</ele>
      </trkpt>
      <trkpt lat="43.08946" lon="-1.79242">
        <ele>395.1</ele>
      </trkpt>
      <trkpt lat="43.08938" lon="-1.79238">
        <ele>395.5</ele>
      </trkpt>
      <trkpt lat="43.0893" lon="-1.79232">
        <ele>395.4</ele>
      </trkpt>
      <trkpt lat="43.0891" lon="-1.79206">
        <ele>393.4</ele>
      </trkpt>
      <trkpt lat="43.08903" lon="-1.79198">
        <ele>393.7</ele>
      </trkpt>
      <trkpt lat="43.08896" lon="-1.79193">
        <ele>394.7</ele>
      </trkpt>
      <trkpt lat="43.08881" lon="-1.79191">
        <ele>395.7</ele>
      </trkpt>
      <trkpt lat="43.08873" lon="-1.79195">
        <ele>395.9</ele>
      </trkpt>
      <trkpt lat="43.08867" lon="-1.79201">
        <ele>396.3</ele>
      </trkpt>
      <trkpt lat="43.08862" lon="-1.79209">
        <ele>396.7</ele>
      </trkpt>
      <trkpt lat="43.08858" lon="-1.7922">
        <ele>396.5</ele>
      </trkpt>
      <trkpt lat="43.08852" lon="-1.79254">
        <ele>398.5</ele>
      </trkpt>
      <trkpt lat="43.08843" lon="-1.79327">
        <ele>400.8</ele>
      </trkpt>
      <trkpt lat="43.08836" lon="-1.7942">
        <ele>404</ele>
      </trkpt>
      <trkpt lat="43.08827" lon="-1.79461">
        <ele>402.5</ele>
      </trkpt>
      <trkpt lat="43.0882" lon="-1.79486">
        <ele>405.1</ele>
      </trkpt>
      <trkpt lat="43.08804" lon="-1.79531">
        <ele>407</ele>
      </trkpt>
      <trkpt lat="43.08773" lon="-1.79606">
        <ele>406.2</ele>
      </trkpt>
      <trkpt lat="43.08768" lon="-1.79627">
        <ele>406.8</ele>
      </trkpt>
      <trkpt lat="43.08757" lon="-1.79709">
        <ele>409.7</ele>
      </trkpt>
      <trkpt lat="43.08752" lon="-1.79729">
        <ele>410.3</ele>
      </trkpt>
      <trkpt lat="43.08737" lon="-1.79773">
        <ele>411.3</ele>
      </trkpt>
      <trkpt lat="43.08724" lon="-1.79806">
        <ele>411.4</ele>
      </trkpt>
      <trkpt lat="43.08713" lon="-1.79826">
        <ele>409.9</ele>
      </trkpt>
      <trkpt lat="43.08707" lon="-1.79834">
        <ele>409.8</ele>
      </trkpt>
      <trkpt lat="43.0869" lon="-1.79849">
        <ele>411.3</ele>
      </trkpt>
      <trkpt lat="43.08681" lon="-1.79862">
        <ele>414</ele>
      </trkpt>
      <trkpt lat="43.08681" lon="-1.79875">
        <ele>412.7</ele>
      </trkpt>
      <trkpt lat="43.08708" lon="-1.79923">
        <ele>417.2</ele>
      </trkpt>
      <trkpt lat="43.08716" lon="-1.7995">
        <ele>415.9</ele>
      </trkpt>
      <trkpt lat="43.08721" lon="-1.79976">
        <ele>413.9</ele>
      </trkpt>
      <trkpt lat="43.08722" lon="-1.79988">
        <ele>414.3</ele>
      </trkpt>
      <trkpt lat="43.08721" lon="-1.80001">
        <ele>413.4</ele>
      </trkpt>
      <trkpt lat="43.08713" lon="-1.80042">
        <ele>416.1</ele>
      </trkpt>
      <trkpt lat="43.08709" lon="-1.80076">
        <ele>415.3</ele>
      </trkpt>
      <trkpt lat="43.08706" lon="-1.80085">
        <ele>415.1</ele>
      </trkpt>
      <trkpt lat="43.08701" lon="-1.80093">
        <ele>416.7</ele>
      </trkpt>
      <trkpt lat="43.08693" lon="-1.80099">
        <ele>417.1</ele>
      </trkpt>
      <trkpt lat="43.08684" lon="-1.80103">
        <ele>416.2</ele>
      </trkpt>
      <trkpt lat="43.08654" lon="-1.80111">
        <ele>415.5</ele>
      </trkpt>
      <trkpt lat="43.08636" lon="-1.80121">
        <ele>418</ele>
      </trkpt>
      <trkpt lat="43.08613" lon="-1.80146">
        <ele>418.6</ele>
      </trkpt>
      <trkpt lat="43.08604" lon="-1.80159">
        <ele>420</ele>
      </trkpt>
      <trkpt lat="43.08592" lon="-1.80186">
        <ele>422.7</ele>
      </trkpt>
      <trkpt lat="43.08562" lon="-1.80305">
        <ele>429.1</ele>
      </trkpt>
      <trkpt lat="43.08562" lon="-1.80327">
        <ele>429.8</ele>
      </trkpt>
      <trkpt lat="43.08568" lon="-1.80343">
        <ele>429</ele>
      </trkpt>
      <trkpt lat="43.08574" lon="-1.80352">
        <ele>428</ele>
      </trkpt>
      <trkpt lat="43.08599" lon="-1.80378">
        <ele>430.6</ele>
      </trkpt>
      <trkpt lat="43.08628" lon="-1.80418">
        <ele>436.1</ele>
      </trkpt>
      <trkpt lat="43.08638" lon="-1.80439">
        <ele>435.4</ele>
      </trkpt>
      <trkpt lat="43.08641" lon="-1.80448">
        <ele>435.4</ele>
      </trkpt>
      <trkpt lat="43.08646" lon="-1.80479">
        <ele>437.3</ele>
      </trkpt>
      <trkpt lat="43.08648" lon="-1.80511">
        <ele>438.6</ele>
      </trkpt>
      <trkpt lat="43.08647" lon="-1.80529">
        <ele>439.2</ele>
      </trkpt>
      <trkpt lat="43.08641" lon="-1.8054">
        <ele>437.6</ele>
      </trkpt>
      <trkpt lat="43.08637" lon="-1.80544">
        <ele>437.7</ele>
      </trkpt>
      <trkpt lat="43.08632" lon="-1.80545">
        <ele>439.3</ele>
      </trkpt>
      <trkpt lat="43.08627" lon="-1.80544">
        <ele>440.6</ele>
      </trkpt>
      <trkpt lat="43.08622" lon="-1.8054">
        <ele>441.2</ele>
      </trkpt>
      <trkpt lat="43.08617" lon="-1.80533">
        <ele>440.6</ele>
      </trkpt>
      <trkpt lat="43.08595" lon="-1.80494">
        <ele>441.2</ele>
      </trkpt>
      <trkpt lat="43.08588" lon="-1.80485">
        <ele>441.5</ele>
      </trkpt>
      <trkpt lat="43.08572" lon="-1.8047">
        <ele>440.1</ele>
      </trkpt>
      <trkpt lat="43.08566" lon="-1.80467">
        <ele>440.7</ele>
      </trkpt>
      <trkpt lat="43.08555" lon="-1.80466">
        <ele>443.4</ele>
      </trkpt>
      <trkpt lat="43.08544" lon="-1.80471">
        <ele>444.2</ele>
      </trkpt>
      <trkpt lat="43.08539" lon="-1.80477">
        <ele>445.8</ele>
      </trkpt>
      <trkpt lat="43.08532" lon="-1.8049">
        <ele>446.9</ele>
      </trkpt>
      <trkpt lat="43.08492" lon="-1.80597">
        <ele>449.8</ele>
      </trkpt>
      <trkpt lat="43.08483" lon="-1.80638">
        <ele>451.6</ele>
      </trkpt>
      <trkpt lat="43.08478" lon="-1.80689">
        <ele>453.9</ele>
      </trkpt>
      <trkpt lat="43.08475" lon="-1.80811">
        <ele>459.9</ele>
      </trkpt>
      <trkpt lat="43.08471" lon="-1.8088">
        <ele>460.6</ele>
      </trkpt>
      <trkpt lat="43.08464" lon="-1.80962">
        <ele>466.3</ele>
      </trkpt>
      <trkpt lat="43.08459" lon="-1.81068">
        <ele>471.8</ele>
      </trkpt>
      <trkpt lat="43.08452" lon="-1.8111">
        <ele>473.7</ele>
      </trkpt>
      <trkpt lat="43.08451" lon="-1.81124">
        <ele>473.8</ele>
      </trkpt>
      <trkpt lat="43.08453" lon="-1.81147">
        <ele>476.4</ele>
      </trkpt>
      <trkpt lat="43.0845" lon="-1.81167">
        <ele>475.9</ele>
      </trkpt>
      <trkpt lat="43.08443" lon="-1.81182">
        <ele>476</ele>
      </trkpt>
      <trkpt lat="43.08423" lon="-1.81208">
        <ele>478.7</ele>
      </trkpt>
      <trkpt lat="43.08412" lon="-1.81225">
        <ele>479</ele>
      </trkpt>
      <trkpt lat="43.08403" lon="-1.81243">
        <ele>481</ele>
      </trkpt>
      <trkpt lat="43.08388" lon="-1.81284">
        <ele>481.5</ele>
      </trkpt>
      <trkpt lat="43.08364" lon="-1.81342">
        <ele>484.6</ele>
      </trkpt>
      <trkpt lat="43.08346" lon="-1.81394">
        <ele>489.1</ele>
      </trkpt>
      <trkpt lat="43.08341" lon="-1.81401">
        <ele>488.1</ele>
      </trkpt>
      <trkpt lat="43.08336" lon="-1.81405">
        <ele>485.7</ele>
      </trkpt>
      <trkpt lat="43.08324" lon="-1.81407">
        <ele>484.4</ele>
      </trkpt>
      <trkpt lat="43.08282" lon="-1.81397">
        <ele>483.6</ele>
      </trkpt>
      <trkpt lat="43.08266" lon="-1.81398">
        <ele>482.6</ele>
      </trkpt>
      <trkpt lat="43.08255" lon="-1.81403">
        <ele>482.4</ele>
      </trkpt>
      <trkpt lat="43.08251" lon="-1.81407">
        <ele>482.7</ele>
      </trkpt>
      <trkpt lat="43.08245" lon="-1.8142">
        <ele>484.1</ele>
      </trkpt>
      <trkpt lat="43.08244" lon="-1.8144">
        <ele>484.7</ele>
      </trkpt>
      <trkpt lat="43.08246" lon="-1.81455">
        <ele>484.4</ele>
      </trkpt>
      <trkpt lat="43.08259" lon="-1.81506">
        <ele>485.4</ele>
      </trkpt>
      <trkpt lat="43.08264" lon="-1.81565">
        <ele>485</ele>
      </trkpt>
      <trkpt lat="43.08272" lon="-1.81582">
        <ele>485.5</ele>
      </trkpt>
      <trkpt lat="43.08286" lon="-1.81603">
        <ele>488.1</ele>
      </trkpt>
      <trkpt lat="43.08294" lon="-1.81625">
        <ele>490.8</ele>
      </trkpt>
      <trkpt lat="43.08295" lon="-1.81649">
        <ele>492</ele>
      </trkpt>
      <trkpt lat="43.0829" lon="-1.81703">
        <ele>493.6</ele>
      </trkpt>
      <trkpt lat="43.08291" lon="-1.81756">
        <ele>494.2</ele>
      </trkpt>
      <trkpt lat="43.08298" lon="-1.81812">
        <ele>497.7</ele>
      </trkpt>
      <trkpt lat="43.0831" lon="-1.8187">
        <ele>500.5</ele>
      </trkpt>
      <trkpt lat="43.08356" lon="-1.82033">
        <ele>507.3</ele>
      </trkpt>
      <trkpt lat="43.08363" lon="-1.82054">
        <ele>507.7</ele>
      </trkpt>
      <trkpt lat="43.0837" lon="-1.82069">
        <ele>508</ele>
      </trkpt>
      <trkpt lat="43.08376" lon="-1.82079">
        <ele>508.3</ele>
      </trkpt>
      <trkpt lat="43.08387" lon="-1.82092">
        <ele>509.3</ele>
      </trkpt>
      <trkpt lat="43.08402" lon="-1.82101">
        <ele>510</ele>
      </trkpt>
      <trkpt lat="43.08433" lon="-1.82107">
        <ele>512.7</ele>
      </trkpt>
      <trkpt lat="43.08437" lon="-1.82111">
        <ele>512.2</ele>
      </trkpt>
      <trkpt lat="43.0844" lon="-1.82121">
        <ele>513.2</ele>
      </trkpt>
      <trkpt lat="43.08437" lon="-1.82174">
        <ele>515.1</ele>
      </trkpt>
      <trkpt lat="43.0844" lon="-1.82217">
        <ele>515.9</ele>
      </trkpt>
      <trkpt lat="43.08445" lon="-1.8226">
        <ele>517.2</ele>
      </trkpt>
      <trkpt lat="43.08456" lon="-1.82318">
        <ele>518.9</ele>
      </trkpt>
      <trkpt lat="43.08458" lon="-1.82376">
        <ele>518.2</ele>
      </trkpt>
      <trkpt lat="43.08473" lon="-1.8243">
        <ele>519.1</ele>
      </trkpt>
      <trkpt lat="43.08475" lon="-1.82449">
        <ele>518.9</ele>
      </trkpt>
      <trkpt lat="43.08474" lon="-1.82459">
        <ele>519.9</ele>
      </trkpt>
      <trkpt lat="43.08461" lon="-1.82498">
        <ele>521.2</ele>
      </trkpt>
      <trkpt lat="43.08455" lon="-1.82521">
        <ele>523.2</ele>
      </trkpt>
      <trkpt lat="43.08449" lon="-1.82564">
        <ele>521</ele>
      </trkpt>
      <trkpt lat="43.08447" lon="-1.82618">
        <ele>519.7</ele>
      </trkpt>
      <trkpt lat="43.08447" lon="-1.82735">
        <ele>518.2</ele>
      </trkpt>
      <trkpt lat="43.08432" lon="-1.82778">
        <ele>520.1</ele>
      </trkpt>
      <trkpt lat="43.08426" lon="-1.82805">
        <ele>519.3</ele>
      </trkpt>
      <trkpt lat="43.08427" lon="-1.82835">
        <ele>519</ele>
      </trkpt>
      <trkpt lat="43.08437" lon="-1.82892">
        <ele>519.6</ele>
      </trkpt>
      <trkpt lat="43.08441" lon="-1.82909">
        <ele>520.5</ele>
      </trkpt>
      <trkpt lat="43.0845" lon="-1.82932">
        <ele>521.9</ele>
      </trkpt>
      <trkpt lat="43.08456" lon="-1.82942">
        <ele>522.6</ele>
      </trkpt>
      <trkpt lat="43.0847" lon="-1.82958">
        <ele>523</ele>
      </trkpt>
      <trkpt lat="43.08486" lon="-1.82966">
        <ele>523.3</ele>
      </trkpt>
      <trkpt lat="43.08511" lon="-1.82969">
        <ele>525.6</ele>
      </trkpt>
      <trkpt lat="43.08524" lon="-1.82973">
        <ele>526.3</ele>
      </trkpt>
      <trkpt lat="43.0853" lon="-1.82981">
        <ele>527.1</ele>
      </trkpt>
      <trkpt lat="43.08532" lon="-1.82987">
        <ele>527.5</ele>
      </trkpt>
      <trkpt lat="43.0853" lon="-1.83">
        <ele>526.7</ele>
      </trkpt>
      <trkpt lat="43.08515" lon="-1.83023">
        <ele>529.9</ele>
      </trkpt>
      <trkpt lat="43.08503" lon="-1.83038">
        <ele>530.7</ele>
      </trkpt>
      <trkpt lat="43.08494" lon="-1.83048">
        <ele>530.9</ele>
      </trkpt>
      <trkpt lat="43.08484" lon="-1.83056">
        <ele>531.7</ele>
      </trkpt>
      <trkpt lat="43.08452" lon="-1.83076">
        <ele>533.3</ele>
      </trkpt>
      <trkpt lat="43.08447" lon="-1.83083">
        <ele>534.5</ele>
      </trkpt>
      <trkpt lat="43.08438" lon="-1.83107">
        <ele>534.5</ele>
      </trkpt>
      <trkpt lat="43.08431" lon="-1.83139">
        <ele>535.2</ele>
      </trkpt>
      <trkpt lat="43.0843" lon="-1.83152">
        <ele>535.5</ele>
      </trkpt>
      <trkpt lat="43.08433" lon="-1.83179">
        <ele>537.6</ele>
      </trkpt>
      <trkpt lat="43.08445" lon="-1.83225">
        <ele>541.7</ele>
      </trkpt>
      <trkpt lat="43.08453" lon="-1.83244">
        <ele>542.2</ele>
      </trkpt>
      <trkpt lat="43.08459" lon="-1.83253">
        <ele>543.4</ele>
      </trkpt>
      <trkpt lat="43.08471" lon="-1.83261">
        <ele>545.8</ele>
      </trkpt>
      <trkpt lat="43.08486" lon="-1.83266">
        <ele>547.5</ele>
      </trkpt>
      <trkpt lat="43.08491" lon="-1.8327">
        <ele>547.5</ele>
      </trkpt>
      <trkpt lat="43.08498" lon="-1.8328">
        <ele>547.2</ele>
      </trkpt>
      <trkpt lat="43.08506" lon="-1.8331">
        <ele>550.3</ele>
      </trkpt>
      <trkpt lat="43.08505" lon="-1.83322">
        <ele>550.7</ele>
      </trkpt>
      <trkpt lat="43.085" lon="-1.83332">
        <ele>548.9</ele>
      </trkpt>
      <trkpt lat="43.08492" lon="-1.83337">
        <ele>550.2</ele>
      </trkpt>
      <trkpt lat="43.08486" lon="-1.83338">
        <ele>550.9</ele>
      </trkpt>
      <trkpt lat="43.08467" lon="-1.83335">
        <ele>551</ele>
      </trkpt>
      <trkpt lat="43.08448" lon="-1.83329">
        <ele>550</ele>
      </trkpt>
      <trkpt lat="43.0841" lon="-1.83309">
        <ele>552.8</ele>
      </trkpt>
      <trkpt lat="43.08367" lon="-1.83298">
        <ele>556.1</ele>
      </trkpt>
      <trkpt lat="43.08357" lon="-1.83293">
        <ele>556.2</ele>
      </trkpt>
      <trkpt lat="43.08332" lon="-1.83275">
        <ele>558</ele>
      </trkpt>
      <trkpt lat="43.08319" lon="-1.83271">
        <ele>558.5</ele>
      </trkpt>
      <trkpt lat="43.08314" lon="-1.83272">
        <ele>559.4</ele>
      </trkpt>
      <trkpt lat="43.08306" lon="-1.83278">
        <ele>561</ele>
      </trkpt>
      <trkpt lat="43.08288" lon="-1.83316">
        <ele>563.7</ele>
      </trkpt>
      <trkpt lat="43.08283" lon="-1.83323">
        <ele>564.6</ele>
      </trkpt>
      <trkpt lat="43.08276" lon="-1.83328">
        <ele>565.7</ele>
      </trkpt>
      <trkpt lat="43.08261" lon="-1.83335">
        <ele>567.2</ele>
      </trkpt>
      <trkpt lat="43.08254" lon="-1.83341">
        <ele>567.9</ele>
      </trkpt>
      <trkpt lat="43.08243" lon="-1.83359">
        <ele>568.8</ele>
      </trkpt>
      <trkpt lat="43.08237" lon="-1.83379">
        <ele>570.7</ele>
      </trkpt>
      <trkpt lat="43.08236" lon="-1.83398">
        <ele>571.8</ele>
      </trkpt>
      <trkpt lat="43.08241" lon="-1.83413">
        <ele>572.5</ele>
      </trkpt>
      <trkpt lat="43.08252" lon="-1.83428">
        <ele>573</ele>
      </trkpt>
      <trkpt lat="43.08281" lon="-1.83459">
        <ele>575.3</ele>
      </trkpt>
      <trkpt lat="43.08331" lon="-1.83525">
        <ele>575.9</ele>
      </trkpt>
      <trkpt lat="43.08338" lon="-1.83537">
        <ele>576.7</ele>
      </trkpt>
      <trkpt lat="43.08344" lon="-1.83554">
        <ele>577.4</ele>
      </trkpt>
      <trkpt lat="43.08344" lon="-1.83563">
        <ele>577.5</ele>
      </trkpt>
      <trkpt lat="43.08341" lon="-1.83577">
        <ele>577.6</ele>
      </trkpt>
      <trkpt lat="43.08333" lon="-1.8359">
        <ele>577.9</ele>
      </trkpt>
      <trkpt lat="43.08328" lon="-1.83595">
        <ele>578.4</ele>
      </trkpt>
      <trkpt lat="43.08321" lon="-1.83599">
        <ele>578.6</ele>
      </trkpt>
      <trkpt lat="43.08285" lon="-1.83611">
        <ele>579</ele>
      </trkpt>
      <trkpt lat="43.08278" lon="-1.83615">
        <ele>579.4</ele>
      </trkpt>
      <trkpt lat="43.08272" lon="-1.83621">
        <ele>579.5</ele>
      </trkpt>
      <trkpt lat="43.08267" lon="-1.83629">
        <ele>579.7</ele>
      </trkpt>
      <trkpt lat="43.08261" lon="-1.83649">
        <ele>580</ele>
      </trkpt>
      <trkpt lat="43.08259" lon="-1.8368">
        <ele>581.4</ele>
      </trkpt>
      <trkpt lat="43.0826" lon="-1.83697">
        <ele>582.4</ele>
      </trkpt>
      <trkpt lat="43.08265" lon="-1.83724">
        <ele>583</ele>
      </trkpt>
      <trkpt lat="43.08274" lon="-1.83749">
        <ele>582.4</ele>
      </trkpt>
      <trkpt lat="43.08278" lon="-1.83768">
        <ele>583</ele>
      </trkpt>
      <trkpt lat="43.08277" lon="-1.83786">
        <ele>583.7</ele>
      </trkpt>
      <trkpt lat="43.08263" lon="-1.83834">
        <ele>585.8</ele>
      </trkpt>
      <trkpt lat="43.0826" lon="-1.83858">
        <ele>585.2</ele>
      </trkpt>
      <trkpt lat="43.08262" lon="-1.83926">
        <ele>587.5</ele>
      </trkpt>
      <trkpt lat="43.08265" lon="-1.83967">
        <ele>588</ele>
      </trkpt>
      <trkpt lat="43.08269" lon="-1.83987">
        <ele>588.8</ele>
      </trkpt>
      <trkpt lat="43.08291" lon="-1.84034">
        <ele>591</ele>
      </trkpt>
      <trkpt lat="43.08296" lon="-1.84051">
        <ele>591.5</ele>
      </trkpt>
      <trkpt lat="43.08306" lon="-1.84105">
        <ele>592.6</ele>
      </trkpt>
      <trkpt lat="43.08315" lon="-1.84135">
        <ele>593</ele>
      </trkpt>
      <trkpt lat="43.08364" lon="-1.84228">
        <ele>596</ele>
      </trkpt>
      <trkpt lat="43.08373" lon="-1.84241">
        <ele>596.4</ele>
      </trkpt>
      <trkpt lat="43.08412" lon="-1.84287">
        <ele>599.3</ele>
      </trkpt>
      <trkpt lat="43.08434" lon="-1.84318">
        <ele>600.5</ele>
      </trkpt>
      <trkpt lat="43.08443" lon="-1.84327">
        <ele>600.7</ele>
      </trkpt>
      <trkpt lat="43.08453" lon="-1.84334">
        <ele>601.4</ele>
      </trkpt>
      <trkpt lat="43.08491" lon="-1.84352">
        <ele>603</ele>
      </trkpt>
      <trkpt lat="43.085" lon="-1.84359">
        <ele>602.5</ele>
      </trkpt>
      <trkpt lat="43.08508" lon="-1.84367">
        <ele>603.4</ele>
      </trkpt>
      <trkpt lat="43.0855" lon="-1.84422">
        <ele>606.3</ele>
      </trkpt>
      <trkpt lat="43.08628" lon="-1.84507">
        <ele>613</ele>
      </trkpt>
      <trkpt lat="43.08638" lon="-1.84522">
        <ele>613.3</ele>
      </trkpt>
      <trkpt lat="43.08655" lon="-1.84559">
        <ele>617.8</ele>
      </trkpt>
      <trkpt lat="43.08661" lon="-1.84579">
        <ele>618.5</ele>
      </trkpt>
      <trkpt lat="43.08664" lon="-1.84598">
        <ele>617.4</ele>
      </trkpt>
      <trkpt lat="43.08663" lon="-1.84603">
        <ele>617.2</ele>
      </trkpt>
      <trkpt lat="43.08658" lon="-1.84608">
        <ele>617.8</ele>
      </trkpt>
      <trkpt lat="43.08651" lon="-1.84606">
        <ele>618.7</ele>
      </trkpt>
      <trkpt lat="43.08644" lon="-1.84598">
        <ele>617.7</ele>
      </trkpt>
      <trkpt lat="43.08624" lon="-1.84566">
        <ele>615.1</ele>
      </trkpt>
      <trkpt lat="43.08616" lon="-1.84558">
        <ele>615.3</ele>
      </trkpt>
      <trkpt lat="43.08604" lon="-1.84553">
        <ele>615.3</ele>
      </trkpt>
      <trkpt lat="43.08597" lon="-1.84552">
        <ele>615.4</ele>
      </trkpt>
      <trkpt lat="43.0857" lon="-1.84555">
        <ele>617.8</ele>
      </trkpt>
      <trkpt lat="43.08534" lon="-1.8455">
        <ele>618.9</ele>
      </trkpt>
      <trkpt lat="43.08522" lon="-1.84556">
        <ele>620.4</ele>
      </trkpt>
      <trkpt lat="43.08518" lon="-1.84561">
        <ele>619.9</ele>
      </trkpt>
      <trkpt lat="43.08514" lon="-1.84585">
        <ele>621.1</ele>
      </trkpt>
      <trkpt lat="43.08513" lon="-1.84673">
        <ele>624.4</ele>
      </trkpt>
      <trkpt lat="43.08505" lon="-1.84822">
        <ele>631.1</ele>
      </trkpt>
      <trkpt lat="43.08504" lon="-1.84908">
        <ele>634.9</ele>
      </trkpt>
      <trkpt lat="43.08507" lon="-1.84978">
        <ele>637.7</ele>
      </trkpt>
      <trkpt lat="43.08506" lon="-1.84996">
        <ele>638.5</ele>
      </trkpt>
      <trkpt lat="43.08485" lon="-1.85125">
        <ele>645.1</ele>
      </trkpt>
      <trkpt lat="43.08479" lon="-1.85148">
        <ele>645.4</ele>
      </trkpt>
      <trkpt lat="43.08475" lon="-1.85154">
        <ele>644.2</ele>
      </trkpt>
      <trkpt lat="43.0847" lon="-1.85157">
        <ele>643.6</ele>
      </trkpt>
      <trkpt lat="43.0846" lon="-1.85157">
        <ele>645.2</ele>
      </trkpt>
      <trkpt lat="43.08456" lon="-1.85154">
        <ele>645.3</ele>
      </trkpt>
      <trkpt lat="43.08447" lon="-1.85134">
        <ele>644.2</ele>
      </trkpt>
      <trkpt lat="43.08418" lon="-1.85038">
        <ele>648.2</ele>
      </trkpt>
      <trkpt lat="43.08415" lon="-1.85032">
        <ele>648.4</ele>
      </trkpt>
      <trkpt lat="43.08407" lon="-1.85025">
        <ele>648.4</ele>
      </trkpt>
      <trkpt lat="43.08399" lon="-1.85025">
        <ele>648.9</ele>
      </trkpt>
      <trkpt lat="43.08392" lon="-1.85032">
        <ele>650.1</ele>
      </trkpt>
      <trkpt lat="43.0839" lon="-1.85038">
        <ele>650.7</ele>
      </trkpt>
      <trkpt lat="43.0838" lon="-1.85094">
        <ele>653.4</ele>
      </trkpt>
      <trkpt lat="43.08373" lon="-1.85115">
        <ele>655.3</ele>
      </trkpt>
      <trkpt lat="43.08365" lon="-1.85122">
        <ele>655.1</ele>
      </trkpt>
      <trkpt lat="43.0836" lon="-1.85123">
        <ele>654.7</ele>
      </trkpt>
      <trkpt lat="43.08336" lon="-1.85121">
        <ele>657.2</ele>
      </trkpt>
      <trkpt lat="43.08317" lon="-1.85126">
        <ele>657.3</ele>
      </trkpt>
      <trkpt lat="43.08306" lon="-1.85131">
        <ele>658.2</ele>
      </trkpt>
      <trkpt lat="43.08286" lon="-1.85144">
        <ele>659.2</ele>
      </trkpt>
      <trkpt lat="43.08277" lon="-1.85154">
        <ele>660.5</ele>
      </trkpt>
      <trkpt lat="43.08266" lon="-1.85178">
        <ele>661.6</ele>
      </trkpt>
      <trkpt lat="43.08259" lon="-1.85216">
        <ele>663.5</ele>
      </trkpt>
      <trkpt lat="43.08258" lon="-1.85257">
        <ele>665.7</ele>
      </trkpt>
      <trkpt lat="43.08261" lon="-1.85293">
        <ele>667.1</ele>
      </trkpt>
      <trkpt lat="43.08268" lon="-1.8533">
        <ele>667.1</ele>
      </trkpt>
      <trkpt lat="43.08276" lon="-1.85388">
        <ele>669.1</ele>
      </trkpt>
      <trkpt lat="43.08282" lon="-1.8541">
        <ele>669.3</ele>
      </trkpt>
      <trkpt lat="43.08293" lon="-1.85439">
        <ele>669.3</ele>
      </trkpt>
      <trkpt lat="43.08306" lon="-1.85465">
        <ele>670.2</ele>
      </trkpt>
      <trkpt lat="43.08318" lon="-1.85483">
        <ele>670</ele>
      </trkpt>
      <trkpt lat="43.08343" lon="-1.85511">
        <ele>671</ele>
      </trkpt>
      <trkpt lat="43.08354" lon="-1.85532">
        <ele>671.1</ele>
      </trkpt>
      <trkpt lat="43.08361" lon="-1.8556">
        <ele>671.7</ele>
      </trkpt>
      <trkpt lat="43.08366" lon="-1.85599">
        <ele>671.7</ele>
      </trkpt>
      <trkpt lat="43.08364" lon="-1.85636">
        <ele>672.2</ele>
      </trkpt>
      <trkpt lat="43.08328" lon="-1.8587">
        <ele>672.9</ele>
      </trkpt>
      <trkpt lat="43.08319" lon="-1.85914">
        <ele>673.7</ele>
      </trkpt>
      <trkpt lat="43.08301" lon="-1.85972">
        <ele>673.8</ele>
      </trkpt>
      <trkpt lat="43.0829" lon="-1.86019">
        <ele>674.2</ele>
      </trkpt>
      <trkpt lat="43.08281" lon="-1.86076">
        <ele>674.3</ele>
      </trkpt>
      <trkpt lat="43.08281" lon="-1.86103">
        <ele>674.7</ele>
      </trkpt>
      <trkpt lat="43.08284" lon="-1.86113">
        <ele>674.6</ele>
      </trkpt>
      <trkpt lat="43.0829" lon="-1.86123">
        <ele>675.2</ele>
      </trkpt>
      <trkpt lat="43.08324" lon="-1.86161">
        <ele>675</ele>
      </trkpt>
      <trkpt lat="43.08335" lon="-1.86175">
        <ele>674.8</ele>
      </trkpt>
      <trkpt lat="43.08344" lon="-1.8619">
        <ele>675.1</ele>
      </trkpt>
      <trkpt lat="43.08352" lon="-1.86208">
        <ele>674.9</ele>
      </trkpt>
      <trkpt lat="43.08364" lon="-1.8625">
        <ele>675.3</ele>
      </trkpt>
      <trkpt lat="43.08376" lon="-1.86317">
        <ele>674.8</ele>
      </trkpt>
      <trkpt lat="43.0838" lon="-1.86357">
        <ele>675.4</ele>
      </trkpt>
      <trkpt lat="43.08377" lon="-1.86389">
        <ele>675.8</ele>
      </trkpt>
      <trkpt lat="43.08367" lon="-1.86446">
        <ele>675.6</ele>
      </trkpt>
      <trkpt lat="43.08367" lon="-1.86457">
        <ele>676.2</ele>
      </trkpt>
      <trkpt lat="43.08372" lon="-1.86474">
        <ele>676.8</ele>
      </trkpt>
      <trkpt lat="43.08376" lon="-1.86481">
        <ele>677.8</ele>
      </trkpt>
      <trkpt lat="43.08382" lon="-1.86485">
        <ele>678.7</ele>
      </trkpt>
      <trkpt lat="43.08388" lon="-1.86486">
        <ele>679</ele>
      </trkpt>
      <trkpt lat="43.08417" lon="-1.8648">
        <ele>679.7</ele>
      </trkpt>
      <trkpt lat="43.08448" lon="-1.86477">
        <ele>679.6</ele>
      </trkpt>
      <trkpt lat="43.08462" lon="-1.86478">
        <ele>678.6</ele>
      </trkpt>
      <trkpt lat="43.08474" lon="-1.86481">
        <ele>678</ele>
      </trkpt>
      <trkpt lat="43.08484" lon="-1.86487">
        <ele>677.1</ele>
      </trkpt>
      <trkpt lat="43.08493" lon="-1.86495">
        <ele>677.2</ele>
      </trkpt>
      <trkpt lat="43.08503" lon="-1.86506">
        <ele>677.4</ele>
      </trkpt>
      <trkpt lat="43.08507" lon="-1.86513">
        <ele>677.6</ele>
      </trkpt>
      <trkpt lat="43.0851" lon="-1.86529">
        <ele>678.4</ele>
      </trkpt>
      <trkpt lat="43.08509" lon="-1.86542">
        <ele>678.1</ele>
      </trkpt>
      <trkpt lat="43.08506" lon="-1.86554">
        <ele>678.3</ele>
      </trkpt>
      <trkpt lat="43.08497" lon="-1.86578">
        <ele>677.6</ele>
      </trkpt>
      <trkpt lat="43.08492" lon="-1.86587">
        <ele>677.6</ele>
      </trkpt>
      <trkpt lat="43.08465" lon="-1.86627">
        <ele>677.1</ele>
      </trkpt>
      <trkpt lat="43.08462" lon="-1.86635">
        <ele>675.5</ele>
      </trkpt>
      <trkpt lat="43.08461" lon="-1.86644">
        <ele>676</ele>
      </trkpt>
      <trkpt lat="43.08462" lon="-1.86652">
        <ele>677.8</ele>
      </trkpt>
      <trkpt lat="43.08465" lon="-1.86661">
        <ele>679.1</ele>
      </trkpt>
      <trkpt lat="43.08477" lon="-1.86681">
        <ele>680.7</ele>
      </trkpt>
      <trkpt lat="43.08502" lon="-1.86708">
        <ele>680.2</ele>
      </trkpt>
      <trkpt lat="43.08509" lon="-1.86719">
        <ele>680.8</ele>
      </trkpt>
      <trkpt lat="43.08517" lon="-1.86741">
        <ele>681.8</ele>
      </trkpt>
      <trkpt lat="43.08519" lon="-1.86768">
        <ele>682.4</ele>
      </trkpt>
      <trkpt lat="43.08513" lon="-1.86827">
        <ele>682.9</ele>
      </trkpt>
      <trkpt lat="43.08516" lon="-1.86853">
        <ele>682</ele>
      </trkpt>
      <trkpt lat="43.08519" lon="-1.86862">
        <ele>681.4</ele>
      </trkpt>
      <trkpt lat="43.0853" lon="-1.86881">
        <ele>682.9</ele>
      </trkpt>
      <trkpt lat="43.08554" lon="-1.86915">
        <ele>684.1</ele>
      </trkpt>
      <trkpt lat="43.08562" lon="-1.86924">
        <ele>684.9</ele>
      </trkpt>
      <trkpt lat="43.0857" lon="-1.8693">
        <ele>685.2</ele>
      </trkpt>
      <trkpt lat="43.08588" lon="-1.86936">
        <ele>684</ele>
      </trkpt>
      <trkpt lat="43.08596" lon="-1.86941">
        <ele>684.6</ele>
      </trkpt>
      <trkpt lat="43.08602" lon="-1.86948">
        <ele>684.9</ele>
      </trkpt>
      <trkpt lat="43.08606" lon="-1.86956">
        <ele>684.6</ele>
      </trkpt>
      <trkpt lat="43.08611" lon="-1.86977">
        <ele>683.9</ele>
      </trkpt>
      <trkpt lat="43.0861" lon="-1.86999">
        <ele>683.4</ele>
      </trkpt>
      <trkpt lat="43.08607" lon="-1.8701">
        <ele>683.3</ele>
      </trkpt>
      <trkpt lat="43.08597" lon="-1.87033">
        <ele>684.1</ele>
      </trkpt>
      <trkpt lat="43.08584" lon="-1.87057">
        <ele>684.5</ele>
      </trkpt>
      <trkpt lat="43.08562" lon="-1.87092">
        <ele>685</ele>
      </trkpt>
      <trkpt lat="43.08544" lon="-1.87115">
        <ele>684.7</ele>
      </trkpt>
      <trkpt lat="43.08524" lon="-1.87126">
        <ele>686.2</ele>
      </trkpt>
      <trkpt lat="43.08492" lon="-1.87135">
        <ele>686.7</ele>
      </trkpt>
      <trkpt lat="43.08445" lon="-1.87157">
        <ele>686.7</ele>
      </trkpt>
      <trkpt lat="43.08417" lon="-1.87167">
        <ele>686.9</ele>
      </trkpt>
      <trkpt lat="43.08407" lon="-1.87172">
        <ele>687</ele>
      </trkpt>
      <trkpt lat="43.08401" lon="-1.87178">
        <ele>686.8</ele>
      </trkpt>
      <trkpt lat="43.08397" lon="-1.87186">
        <ele>686.2</ele>
      </trkpt>
      <trkpt lat="43.08396" lon="-1.87206">
        <ele>686.2</ele>
      </trkpt>
      <trkpt lat="43.084" lon="-1.87233">
        <ele>686.9</ele>
      </trkpt>
      <trkpt lat="43.08393" lon="-1.87292">
        <ele>687.5</ele>
      </trkpt>
      <trkpt lat="43.08402" lon="-1.87355">
        <ele>687.5</ele>
      </trkpt>
      <trkpt lat="43.08401" lon="-1.87374">
        <ele>688</ele>
      </trkpt>
      <trkpt lat="43.08395" lon="-1.87419">
        <ele>689.4</ele>
      </trkpt>
      <trkpt lat="43.08395" lon="-1.87447">
        <ele>688.7</ele>
      </trkpt>
      <trkpt lat="43.0841" lon="-1.87513">
        <ele>690.7</ele>
      </trkpt>
      <trkpt lat="43.0842" lon="-1.87572">
        <ele>690.8</ele>
      </trkpt>
      <trkpt lat="43.08425" lon="-1.87589">
        <ele>691.3</ele>
      </trkpt>
      <trkpt lat="43.08447" lon="-1.8764">
        <ele>692.6</ele>
      </trkpt>
      <trkpt lat="43.08452" lon="-1.87661">
        <ele>693</ele>
      </trkpt>
      <trkpt lat="43.08454" lon="-1.87683">
        <ele>693.1</ele>
      </trkpt>
      <trkpt lat="43.08448" lon="-1.87762">
        <ele>693.8</ele>
      </trkpt>
      <trkpt lat="43.0845" lon="-1.87796">
        <ele>694.1</ele>
      </trkpt>
      <trkpt lat="43.08463" lon="-1.87833">
        <ele>694.3</ele>
      </trkpt>
      <trkpt lat="43.08544" lon="-1.8799">
        <ele>693.5</ele>
      </trkpt>
      <trkpt lat="43.08562" lon="-1.88029">
        <ele>693.2</ele>
      </trkpt>
      <trkpt lat="43.08567" lon="-1.88045">
        <ele>692.8</ele>
      </trkpt>
      <trkpt lat="43.08569" lon="-1.88058">
        <ele>692.4</ele>
      </trkpt>
      <trkpt lat="43.08571" lon="-1.88131">
        <ele>689.4</ele>
      </trkpt>
      <trkpt lat="43.08576" lon="-1.8818">
        <ele>686.2</ele>
      </trkpt>
      <trkpt lat="43.0858" lon="-1.88201">
        <ele>685.9</ele>
      </trkpt>
      <trkpt lat="43.08588" lon="-1.88228">
        <ele>684.9</ele>
      </trkpt>
      <trkpt lat="43.08607" lon="-1.88277">
        <ele>681.6</ele>
      </trkpt>
      <trkpt lat="43.08622" lon="-1.88322">
        <ele>679.9</ele>
      </trkpt>
      <trkpt lat="43.08626" lon="-1.8834">
        <ele>678.6</ele>
      </trkpt>
      <trkpt lat="43.08631" lon="-1.8838">
        <ele>676.7</ele>
      </trkpt>
      <trkpt lat="43.08631" lon="-1.88461">
        <ele>673.8</ele>
      </trkpt>
      <trkpt lat="43.08638" lon="-1.88487">
        <ele>673.4</ele>
      </trkpt>
      <trkpt lat="43.08653" lon="-1.8851">
        <ele>672.1</ele>
      </trkpt>
      <trkpt lat="43.08662" lon="-1.8852">
        <ele>671.4</ele>
      </trkpt>
      <trkpt lat="43.08671" lon="-1.88527">
        <ele>670.8</ele>
      </trkpt>
      <trkpt lat="43.08682" lon="-1.88531">
        <ele>669.4</ele>
      </trkpt>
      <trkpt lat="43.08693" lon="-1.88531">
        <ele>668.6</ele>
      </trkpt>
      <trkpt lat="43.08718" lon="-1.88526">
        <ele>666.9</ele>
      </trkpt>
      <trkpt lat="43.0873" lon="-1.88526">
        <ele>666.5</ele>
      </trkpt>
      <trkpt lat="43.08741" lon="-1.88529">
        <ele>665.6</ele>
      </trkpt>
      <trkpt lat="43.08751" lon="-1.88537">
        <ele>663.9</ele>
      </trkpt>
      <trkpt lat="43.08761" lon="-1.88548">
        <ele>663.9</ele>
      </trkpt>
      <trkpt lat="43.08768" lon="-1.88562">
        <ele>663.1</ele>
      </trkpt>
      <trkpt lat="43.08774" lon="-1.8858">
        <ele>662.2</ele>
      </trkpt>
      <trkpt lat="43.08791" lon="-1.88652">
        <ele>656.7</ele>
      </trkpt>
      <trkpt lat="43.08815" lon="-1.88724">
        <ele>653.6</ele>
      </trkpt>
      <trkpt lat="43.08818" lon="-1.88742">
        <ele>653.1</ele>
      </trkpt>
      <trkpt lat="43.0882" lon="-1.88795">
        <ele>650.7</ele>
      </trkpt>
      <trkpt lat="43.08822" lon="-1.88809">
        <ele>650.1</ele>
      </trkpt>
      <trkpt lat="43.08826" lon="-1.88821">
        <ele>649.6</ele>
      </trkpt>
      <trkpt lat="43.08839" lon="-1.88844">
        <ele>647.9</ele>
      </trkpt>
      <trkpt lat="43.08851" lon="-1.88857">
        <ele>646.9</ele>
      </trkpt>
      <trkpt lat="43.08866" lon="-1.88871">
        <ele>645.6</ele>
      </trkpt>
      <trkpt lat="43.08892" lon="-1.88891">
        <ele>643.7</ele>
      </trkpt>
      <trkpt lat="43.08914" lon="-1.88903">
        <ele>642.4</ele>
      </trkpt>
      <trkpt lat="43.08922" lon="-1.88904">
        <ele>641.2</ele>
      </trkpt>
      <trkpt lat="43.0893" lon="-1.88901">
        <ele>640.1</ele>
      </trkpt>
      <trkpt lat="43.08937" lon="-1.88893">
        <ele>640</ele>
      </trkpt>
      <trkpt lat="43.08942" lon="-1.88881">
        <ele>639.9</ele>
      </trkpt>
      <trkpt lat="43.08951" lon="-1.88845">
        <ele>638.3</ele>
      </trkpt>
      <trkpt lat="43.08978" lon="-1.8877">
        <ele>637.7</ele>
      </trkpt>
      <trkpt lat="43.08983" lon="-1.88762">
        <ele>637.7</ele>
      </trkpt>
      <trkpt lat="43.0899" lon="-1.88756">
        <ele>636.8</ele>
      </trkpt>
      <trkpt lat="43.08997" lon="-1.88754">
        <ele>635.1</ele>
      </trkpt>
      <trkpt lat="43.09004" lon="-1.88757">
        <ele>634.8</ele>
      </trkpt>
      <trkpt lat="43.09009" lon="-1.88764">
        <ele>635.1</ele>
      </trkpt>
      <trkpt lat="43.09013" lon="-1.88776">
        <ele>634.5</ele>
      </trkpt>
      <trkpt lat="43.09024" lon="-1.88829">
        <ele>630.5</ele>
      </trkpt>
      <trkpt lat="43.0903" lon="-1.88866">
        <ele>628</ele>
      </trkpt>
      <trkpt lat="43.09031" lon="-1.889">
        <ele>626.8</ele>
      </trkpt>
      <trkpt lat="43.09029" lon="-1.88947">
        <ele>624.3</ele>
      </trkpt>
      <trkpt lat="43.09032" lon="-1.88972">
        <ele>623.4</ele>
      </trkpt>
      <trkpt lat="43.09042" lon="-1.89002">
        <ele>622.2</ele>
      </trkpt>
      <trkpt lat="43.0906" lon="-1.89034">
        <ele>620.6</ele>
      </trkpt>
      <trkpt lat="43.09064" lon="-1.89054">
        <ele>619.4</ele>
      </trkpt>
      <trkpt lat="43.09063" lon="-1.89063">
        <ele>619.3</ele>
      </trkpt>
      <trkpt lat="43.09059" lon="-1.89074">
        <ele>618.7</ele>
      </trkpt>
      <trkpt lat="43.0904" lon="-1.89107">
        <ele>618.2</ele>
      </trkpt>
      <trkpt lat="43.09028" lon="-1.89137">
        <ele>615.1</ele>
      </trkpt>
      <trkpt lat="43.09025" lon="-1.89151">
        <ele>613.7</ele>
      </trkpt>
      <trkpt lat="43.09024" lon="-1.89179">
        <ele>612.3</ele>
      </trkpt>
      <trkpt lat="43.09027" lon="-1.89195">
        <ele>611.8</ele>
      </trkpt>
      <trkpt lat="43.09032" lon="-1.89206">
        <ele>612</ele>
      </trkpt>
      <trkpt lat="43.09039" lon="-1.89213">
        <ele>611.7</ele>
      </trkpt>
      <trkpt lat="43.09069" lon="-1.89218">
        <ele>611.5</ele>
      </trkpt>
      <trkpt lat="43.09074" lon="-1.89224">
        <ele>610.6</ele>
      </trkpt>
      <trkpt lat="43.09076" lon="-1.89232">
        <ele>610.8</ele>
      </trkpt>
      <trkpt lat="43.09075" lon="-1.89241">
        <ele>610.5</ele>
      </trkpt>
      <trkpt lat="43.09071" lon="-1.89252">
        <ele>609.1</ele>
      </trkpt>
      <trkpt lat="43.09049" lon="-1.89294">
        <ele>606.2</ele>
      </trkpt>
      <trkpt lat="43.09047" lon="-1.89304">
        <ele>606.7</ele>
      </trkpt>
      <trkpt lat="43.09047" lon="-1.89315">
        <ele>605.5</ele>
      </trkpt>
      <trkpt lat="43.09057" lon="-1.8936">
        <ele>603.5</ele>
      </trkpt>
      <trkpt lat="43.09057" lon="-1.89369">
        <ele>603.5</ele>
      </trkpt>
      <trkpt lat="43.09046" lon="-1.89402">
        <ele>599.7</ele>
      </trkpt>
      <trkpt lat="43.09044" lon="-1.89415">
        <ele>599.7</ele>
      </trkpt>
      <trkpt lat="43.09045" lon="-1.89429">
        <ele>598.8</ele>
      </trkpt>
      <trkpt lat="43.09054" lon="-1.89458">
        <ele>597.6</ele>
      </trkpt>
      <trkpt lat="43.09072" lon="-1.89489">
        <ele>596.2</ele>
      </trkpt>
      <trkpt lat="43.0908" lon="-1.89498">
        <ele>595.8</ele>
      </trkpt>
      <trkpt lat="43.09106" lon="-1.8952">
        <ele>594.9</ele>
      </trkpt>
      <trkpt lat="43.09112" lon="-1.89527">
        <ele>594.3</ele>
      </trkpt>
      <trkpt lat="43.09115" lon="-1.89536">
        <ele>594.2</ele>
      </trkpt>
      <trkpt lat="43.09115" lon="-1.89544">
        <ele>594.1</ele>
      </trkpt>
      <trkpt lat="43.09113" lon="-1.8955">
        <ele>593.6</ele>
      </trkpt>
      <trkpt lat="43.09108" lon="-1.89556">
        <ele>592.8</ele>
      </trkpt>
      <trkpt lat="43.09093" lon="-1.89563">
        <ele>593.2</ele>
      </trkpt>
      <trkpt lat="43.09073" lon="-1.89568">
        <ele>592.9</ele>
      </trkpt>
      <trkpt lat="43.09045" lon="-1.89571">
        <ele>591.9</ele>
      </trkpt>
      <trkpt lat="43.09002" lon="-1.89566">
        <ele>589.9</ele>
      </trkpt>
      <trkpt lat="43.08982" lon="-1.89567">
        <ele>589.2</ele>
      </trkpt>
      <trkpt lat="43.08975" lon="-1.8957">
        <ele>589.3</ele>
      </trkpt>
      <trkpt lat="43.08969" lon="-1.89578">
        <ele>589</ele>
      </trkpt>
      <trkpt lat="43.08965" lon="-1.89589">
        <ele>588.6</ele>
      </trkpt>
      <trkpt lat="43.08958" lon="-1.89624">
        <ele>587.5</ele>
      </trkpt>
      <trkpt lat="43.08956" lon="-1.89647">
        <ele>587.3</ele>
      </trkpt>
      <trkpt lat="43.08956" lon="-1.89729">
        <ele>582.7</ele>
      </trkpt>
      <trkpt lat="43.08959" lon="-1.89769">
        <ele>581.6</ele>
      </trkpt>
      <trkpt lat="43.08962" lon="-1.89783">
        <ele>581.2</ele>
      </trkpt>
      <trkpt lat="43.0897" lon="-1.89806">
        <ele>578.4</ele>
      </trkpt>
      <trkpt lat="43.08971" lon="-1.89816">
        <ele>578.4</ele>
      </trkpt>
      <trkpt lat="43.0897" lon="-1.89825">
        <ele>578</ele>
      </trkpt>
      <trkpt lat="43.08967" lon="-1.89832">
        <ele>577.4</ele>
      </trkpt>
      <trkpt lat="43.08961" lon="-1.89839">
        <ele>578.1</ele>
      </trkpt>
      <trkpt lat="43.0893" lon="-1.89857">
        <ele>576.3</ele>
      </trkpt>
      <trkpt lat="43.08917" lon="-1.89875">
        <ele>574.6</ele>
      </trkpt>
      <trkpt lat="43.0891" lon="-1.89905">
        <ele>573.8</ele>
      </trkpt>
      <trkpt lat="43.08907" lon="-1.89958">
        <ele>570.9</ele>
      </trkpt>
      <trkpt lat="43.08904" lon="-1.89973">
        <ele>568.6</ele>
      </trkpt>
      <trkpt lat="43.08885" lon="-1.90021">
        <ele>569.1</ele>
      </trkpt>
      <trkpt lat="43.0888" lon="-1.90039">
        <ele>567.8</ele>
      </trkpt>
      <trkpt lat="43.08878" lon="-1.90056">
        <ele>567.1</ele>
      </trkpt>
      <trkpt lat="43.08881" lon="-1.90088">
        <ele>565.7</ele>
      </trkpt>
      <trkpt lat="43.08886" lon="-1.90106">
        <ele>564.2</ele>
      </trkpt>
      <trkpt lat="43.08892" lon="-1.9012">
        <ele>563.5</ele>
      </trkpt>
      <trkpt lat="43.089" lon="-1.90133">
        <ele>563.1</ele>
      </trkpt>
      <trkpt lat="43.08926" lon="-1.90164">
        <ele>561</ele>
      </trkpt>
      <trkpt lat="43.0893" lon="-1.90174">
        <ele>560.4</ele>
      </trkpt>
      <trkpt lat="43.0893" lon="-1.90184">
        <ele>559.7</ele>
      </trkpt>
      <trkpt lat="43.08927" lon="-1.90193">
        <ele>558.6</ele>
      </trkpt>
      <trkpt lat="43.08921" lon="-1.90199">
        <ele>558.7</ele>
      </trkpt>
      <trkpt lat="43.0891" lon="-1.90203">
        <ele>557.5</ele>
      </trkpt>
      <trkpt lat="43.08874" lon="-1.9021">
        <ele>554.8</ele>
      </trkpt>
      <trkpt lat="43.08851" lon="-1.90209">
        <ele>553.3</ele>
      </trkpt>
      <trkpt lat="43.08827" lon="-1.90205">
        <ele>551.8</ele>
      </trkpt>
      <trkpt lat="43.08818" lon="-1.90207">
        <ele>550.9</ele>
      </trkpt>
      <trkpt lat="43.08809" lon="-1.90213">
        <ele>550.7</ele>
      </trkpt>
      <trkpt lat="43.08781" lon="-1.90252">
        <ele>548.1</ele>
      </trkpt>
      <trkpt lat="43.08722" lon="-1.90305">
        <ele>542.7</ele>
      </trkpt>
      <trkpt lat="43.08711" lon="-1.90317">
        <ele>540.1</ele>
        <extensions>
          <visugpx:TrkExtension xmlns:visugpx="https://www.visugpx.com/editgpx/">
            <visugpx:node>2</visugpx:node>
            </visugpx:TrkExtension>
        </extensions>
      </trkpt>
      <trkpt lat="43.08721" lon="-1.90477">
        <ele>516.908</ele>
        <time>2020-05-14T00:49:29Z</time>
      </trkpt>
      <trkpt lat="43.08719" lon="-1.90442">
        <ele>532.053</ele>
        <time>2020-05-14T00:49:09Z</time>
      </trkpt>
      <trkpt lat="43.08718" lon="-1.90439">
        <ele>532.052</ele>
        <time>2020-05-14T00:48:49Z</time>
      </trkpt>
      <trkpt lat="43.08715" lon="-1.90425">
        <ele>535.512</ele>
        <time>2020-05-14T00:48:29Z</time>
      </trkpt>
      <trkpt lat="43.08711" lon="-1.90402">
        <ele>539.034</ele>
        <time>2020-05-14T00:48:09Z</time>
      </trkpt>
      <trkpt lat="43.08707" lon="-1.90382">
        <ele>540.996</ele>
        <time>2020-05-14T00:47:49Z</time>
      </trkpt>
      <trkpt lat="43.08701" lon="-1.90361">
        <ele>540.054</ele>
        <time>2020-05-14T00:47:29Z</time>
      </trkpt>
      <trkpt lat="43.087" lon="-1.90359">
        <ele>540.318</ele>
        <time>2020-05-14T00:47:09Z</time>
      </trkpt>
      <trkpt lat="43.08692" lon="-1.9033">
        <ele>541.543</ele>
        <time>2020-05-14T00:46:49Z</time>
      </trkpt>
      <trkpt lat="43.08676" lon="-1.90296">
        <ele>522.59</ele>
        <time>2020-05-14T00:46:29Z</time>
      </trkpt>
      <trkpt lat="43.08674" lon="-1.90292">
        <ele>522.515</ele>
        <time>2020-05-14T00:46:09Z</time>
      </trkpt>
      <trkpt lat="43.08667" lon="-1.90282">
        <ele>511.808</ele>
        <time>2020-05-14T00:45:49Z</time>
      </trkpt>
      <trkpt lat="43.0866" lon="-1.90273">
        <ele>510.317</ele>
        <time>2020-05-14T00:45:29Z</time>
      </trkpt>
      <trkpt lat="43.08656" lon="-1.90269">
        <ele>510.398</ele>
        <time>2020-05-14T00:45:09Z</time>
      </trkpt>
      <trkpt lat="43.08653" lon="-1.90266">
        <ele>510.618</ele>
        <time>2020-05-14T00:44:49Z</time>
      </trkpt>
      <trkpt lat="43.08644" lon="-1.90258">
        <ele>512.566</ele>
        <time>2020-05-14T00:44:29Z</time>
      </trkpt>
      <trkpt lat="43.08642" lon="-1.90257">
        <ele>512.518</ele>
        <time>2020-05-14T00:44:09Z</time>
      </trkpt>
      <trkpt lat="43.0864" lon="-1.90255">
        <ele>512.54</ele>
        <time>2020-05-14T00:43:49Z</time>
      </trkpt>
      <trkpt lat="43.08628" lon="-1.90248">
        <ele>516.888</ele>
        <time>2020-05-14T00:43:29Z</time>
      </trkpt>
      <trkpt lat="43.0862" lon="-1.90244">
        <ele>513.842</ele>
        <time>2020-05-14T00:43:09Z</time>
      </trkpt>
      <trkpt lat="43.08613" lon="-1.90239">
        <ele>513.037</ele>
        <time>2020-05-14T00:42:49Z</time>
      </trkpt>
      <trkpt lat="43.08605" lon="-1.90235">
        <ele>514.354</ele>
        <time>2020-05-14T00:42:29Z</time>
      </trkpt>
      <trkpt lat="43.086" lon="-1.90234">
        <ele>511.779</ele>
        <time>2020-05-14T00:42:09Z</time>
      </trkpt>
      <trkpt lat="43.08596" lon="-1.90232">
        <ele>511.708</ele>
        <time>2020-05-14T00:41:49Z</time>
      </trkpt>
      <trkpt lat="43.0859" lon="-1.9023">
        <ele>511.511</ele>
        <time>2020-05-14T00:41:29Z</time>
      </trkpt>
      <trkpt lat="43.08584" lon="-1.90229">
        <ele>511.556</ele>
        <time>2020-05-14T00:41:09Z</time>
      </trkpt>
      <trkpt lat="43.0858" lon="-1.90228">
        <ele>511.254</ele>
        <time>2020-05-14T00:40:49Z</time>
      </trkpt>
      <trkpt lat="43.08575" lon="-1.90227">
        <ele>512.167</ele>
        <time>2020-05-14T00:40:29Z</time>
      </trkpt>
      <trkpt lat="43.08543" lon="-1.90223">
        <ele>512.899</ele>
        <time>2020-05-14T00:40:09Z</time>
      </trkpt>
      <trkpt lat="43.08524" lon="-1.9022">
        <ele>502.591</ele>
        <time>2020-05-14T00:39:49Z</time>
      </trkpt>
      <trkpt lat="43.08483" lon="-1.90215">
        <ele>508.879</ele>
        <time>2020-05-14T00:39:29Z</time>
      </trkpt>
      <trkpt lat="43.08471" lon="-1.90213">
        <ele>515.713</ele>
        <time>2020-05-14T00:39:09Z</time>
      </trkpt>
      <trkpt lat="43.08468" lon="-1.90213">
        <ele>515.748</ele>
        <time>2020-05-14T00:38:49Z</time>
      </trkpt>
      <trkpt lat="43.08467" lon="-1.90213">
        <ele>515.795</ele>
        <time>2020-05-14T00:38:29Z</time>
      </trkpt>
      <trkpt lat="43.08464" lon="-1.90212">
        <ele>517.92</ele>
        <time>2020-05-14T00:38:09Z</time>
      </trkpt>
      <trkpt lat="43.08459" lon="-1.90211">
        <ele>517.908</ele>
        <time>2020-05-14T00:37:49Z</time>
      </trkpt>
      <trkpt lat="43.08456" lon="-1.9021">
        <ele>520.726</ele>
        <time>2020-05-14T00:37:29Z</time>
      </trkpt>
      <trkpt lat="43.08431" lon="-1.90218">
        <ele>529.942</ele>
        <time>2020-05-14T00:37:09Z</time>
      </trkpt>
      <trkpt lat="43.08415" lon="-1.90226">
        <ele>536.968</ele>
        <time>2020-05-14T00:36:49Z</time>
      </trkpt>
      <trkpt lat="43.08379" lon="-1.90244">
        <ele>543.547</ele>
        <time>2020-05-14T00:36:29Z</time>
      </trkpt>
      <trkpt lat="43.08371" lon="-1.90248">
        <ele>545.359</ele>
        <time>2020-05-14T00:36:09Z</time>
      </trkpt>
      <trkpt lat="43.08364" lon="-1.90252">
        <ele>545.521</ele>
        <time>2020-05-14T00:35:49Z</time>
      </trkpt>
      <trkpt lat="43.08337" lon="-1.90273">
        <ele>532.459</ele>
        <time>2020-05-14T00:35:29Z</time>
      </trkpt>
      <trkpt lat="43.08327" lon="-1.90281">
        <ele>529.843</ele>
        <time>2020-05-14T00:35:09Z</time>
      </trkpt>
      <trkpt lat="43.08326" lon="-1.90283">
        <ele>522.198</ele>
        <time>2020-05-14T00:34:49Z</time>
      </trkpt>
      <trkpt lat="43.08316" lon="-1.90296">
        <ele>517.635</ele>
        <time>2020-05-14T00:34:29Z</time>
      </trkpt>
      <trkpt lat="43.08309" lon="-1.90304">
        <ele>518.23</ele>
        <time>2020-05-14T00:34:09Z</time>
      </trkpt>
      <trkpt lat="43.08304" lon="-1.90309">
        <ele>516.008</ele>
        <time>2020-05-14T00:33:49Z</time>
      </trkpt>
      <trkpt lat="43.08282" lon="-1.90336">
        <ele>518.319</ele>
        <time>2020-05-14T00:33:29Z</time>
      </trkpt>
      <trkpt lat="43.08274" lon="-1.90346">
        <ele>518.581</ele>
        <time>2020-05-14T00:33:09Z</time>
      </trkpt>
      <trkpt lat="43.08263" lon="-1.90358">
        <ele>518.867</ele>
        <time>2020-05-14T00:32:49Z</time>
      </trkpt>
      <trkpt lat="43.08256" lon="-1.90366">
        <ele>519.25</ele>
        <time>2020-05-14T00:32:29Z</time>
      </trkpt>
      <trkpt lat="43.0825" lon="-1.90374">
        <ele>519.542</ele>
        <time>2020-05-14T00:32:09Z</time>
      </trkpt>
      <trkpt lat="43.08243" lon="-1.90382">
        <ele>518.594</ele>
        <time>2020-05-14T00:31:49Z</time>
      </trkpt>
      <trkpt lat="43.08237" lon="-1.9039">
        <ele>519.752</ele>
        <time>2020-05-14T00:31:29Z</time>
      </trkpt>
      <trkpt lat="43.08215" lon="-1.90415">
        <ele>526.436</ele>
        <time>2020-05-14T00:31:09Z</time>
      </trkpt>
      <trkpt lat="43.08197" lon="-1.90436">
        <ele>542.781</ele>
        <time>2020-05-14T00:30:49Z</time>
      </trkpt>
      <trkpt lat="43.08196" lon="-1.90438">
        <ele>548.298</ele>
        <time>2020-05-14T00:30:29Z</time>
      </trkpt>
      <trkpt lat="43.08195" lon="-1.90439">
        <ele>548.293</ele>
        <time>2020-05-14T00:30:09Z</time>
      </trkpt>
      <trkpt lat="43.07913" lon="-1.90776">
        <ele>647.908</ele>
        <time>2020-05-14T00:29:49Z</time>
      </trkpt>
      <trkpt lat="43.07819" lon="-1.9089">
        <ele>570.024</ele>
        <time>2020-05-14T00:29:29Z</time>
      </trkpt>
      <trkpt lat="43.07783" lon="-1.90932">
        <ele>538.731</ele>
        <time>2020-05-14T00:29:09Z</time>
      </trkpt>
      <trkpt lat="43.07773" lon="-1.90943">
        <ele>531.896</ele>
        <time>2020-05-14T00:28:49Z</time>
      </trkpt>
      <trkpt lat="43.07766" lon="-1.9095">
        <ele>529.137</ele>
        <time>2020-05-14T00:28:29Z</time>
      </trkpt>
      <trkpt lat="43.07763" lon="-1.90954">
        <ele>528.719</ele>
        <time>2020-05-14T00:28:09Z</time>
      </trkpt>
      <trkpt lat="43.07755" lon="-1.90964">
        <ele>529.191</ele>
        <time>2020-05-14T00:27:49Z</time>
      </trkpt>
      <trkpt lat="43.07752" lon="-1.90968">
        <ele>529.459</ele>
        <time>2020-05-14T00:27:29Z</time>
      </trkpt>
      <trkpt lat="43.07748" lon="-1.90972">
        <ele>529.423</ele>
        <time>2020-05-14T00:27:09Z</time>
      </trkpt>
      <trkpt lat="43.07742" lon="-1.9098">
        <ele>529.878</ele>
        <time>2020-05-14T00:26:49Z</time>
      </trkpt>
      <trkpt lat="43.07733" lon="-1.90991">
        <ele>534.425</ele>
        <time>2020-05-14T00:26:29Z</time>
      </trkpt>
      <trkpt lat="43.07724" lon="-1.91004">
        <ele>534.71</ele>
        <time>2020-05-14T00:26:09Z</time>
      </trkpt>
      <trkpt lat="43.07719" lon="-1.9101">
        <ele>531.608</ele>
        <time>2020-05-14T00:25:49Z</time>
      </trkpt>
      <trkpt lat="43.07714" lon="-1.91017">
        <ele>532.826</ele>
        <time>2020-05-14T00:25:29Z</time>
      </trkpt>
      <trkpt lat="43.0771" lon="-1.91024">
        <ele>532.842</ele>
        <time>2020-05-14T00:25:09Z</time>
      </trkpt>
      <trkpt lat="43.07705" lon="-1.91031">
        <ele>533.268</ele>
        <time>2020-05-14T00:24:49Z</time>
      </trkpt>
      <trkpt lat="43.07701" lon="-1.91038">
        <ele>533.276</ele>
        <time>2020-05-14T00:24:29Z</time>
      </trkpt>
      <trkpt lat="43.07695" lon="-1.9105">
        <ele>533.468</ele>
        <time>2020-05-14T00:24:09Z</time>
      </trkpt>
      <trkpt lat="43.07693" lon="-1.91055">
        <ele>530.82</ele>
        <time>2020-05-14T00:23:49Z</time>
      </trkpt>
      <trkpt lat="43.07691" lon="-1.9106">
        <ele>530.828</ele>
        <time>2020-05-14T00:23:29Z</time>
      </trkpt>
      <trkpt lat="43.0769" lon="-1.91063">
        <ele>530.882</ele>
        <time>2020-05-14T00:23:09Z</time>
      </trkpt>
      <trkpt lat="43.07689" lon="-1.91066">
        <ele>532.937</ele>
        <time>2020-05-14T00:22:49Z</time>
      </trkpt>
      <trkpt lat="43.07686" lon="-1.91077">
        <ele>531.674</ele>
        <time>2020-05-14T00:22:29Z</time>
      </trkpt>
      <trkpt lat="43.07683" lon="-1.91089">
        <ele>532.029</ele>
        <time>2020-05-14T00:22:09Z</time>
      </trkpt>
      <trkpt lat="43.07679" lon="-1.91102">
        <ele>535.608</ele>
        <time>2020-05-14T00:21:49Z</time>
      </trkpt>
      <trkpt lat="43.07676" lon="-1.91114">
        <ele>532.508</ele>
        <time>2020-05-14T00:21:29Z</time>
      </trkpt>
      <trkpt lat="43.07674" lon="-1.91123">
        <ele>532.453</ele>
        <time>2020-05-14T00:21:09Z</time>
      </trkpt>
      <trkpt lat="43.07671" lon="-1.91134">
        <ele>535.452</ele>
        <time>2020-05-14T00:20:49Z</time>
      </trkpt>
      <trkpt lat="43.07667" lon="-1.91149">
        <ele>532.328</ele>
        <time>2020-05-14T00:20:29Z</time>
      </trkpt>
      <trkpt lat="43.07665" lon="-1.91162">
        <ele>532.22</ele>
        <time>2020-05-14T00:20:09Z</time>
      </trkpt>
      <trkpt lat="43.07655" lon="-1.91205">
        <ele>533.132</ele>
        <time>2020-05-14T00:19:49Z</time>
      </trkpt>
      <trkpt lat="43.07644" lon="-1.9125">
        <ele>535.31</ele>
        <time>2020-05-14T00:19:29Z</time>
      </trkpt>
      <trkpt lat="43.07642" lon="-1.9126">
        <ele>534.274</ele>
        <time>2020-05-14T00:19:09Z</time>
      </trkpt>
      <trkpt lat="43.07639" lon="-1.91272">
        <ele>534.229</ele>
        <time>2020-05-14T00:18:49Z</time>
      </trkpt>
      <trkpt lat="43.07637" lon="-1.91281">
        <ele>538.786</ele>
        <time>2020-05-14T00:18:29Z</time>
      </trkpt>
      <trkpt lat="43.07636" lon="-1.91287">
        <ele>538.771</ele>
        <time>2020-05-14T00:18:09Z</time>
      </trkpt>
      <trkpt lat="43.07621" lon="-1.91354">
        <ele>541.508</ele>
        <time>2020-05-14T00:17:49Z</time>
      </trkpt>
      <trkpt lat="43.07615" lon="-1.9138">
        <ele>537.114</ele>
        <time>2020-05-14T00:17:29Z</time>
      </trkpt>
      <trkpt lat="43.07609" lon="-1.91407">
        <ele>539.313</ele>
        <time>2020-05-14T00:17:09Z</time>
      </trkpt>
      <trkpt lat="43.07602" lon="-1.91439">
        <ele>538.472</ele>
        <time>2020-05-14T00:16:49Z</time>
      </trkpt>
      <trkpt lat="43.07594" lon="-1.91471">
        <ele>540.624</ele>
        <time>2020-05-14T00:16:29Z</time>
      </trkpt>
      <trkpt lat="43.07589" lon="-1.91494">
        <ele>537.796</ele>
        <time>2020-05-14T00:16:09Z</time>
      </trkpt>
      <trkpt lat="43.07583" lon="-1.91518">
        <ele>539.548</ele>
        <time>2020-05-14T00:15:49Z</time>
      </trkpt>
      <trkpt lat="43.0758" lon="-1.91534">
        <ele>538.876</ele>
        <time>2020-05-14T00:15:29Z</time>
      </trkpt>
      <trkpt lat="43.07575" lon="-1.91558">
        <ele>541.04</ele>
        <time>2020-05-14T00:15:09Z</time>
      </trkpt>
      <trkpt lat="43.07569" lon="-1.91583">
        <ele>543.225</ele>
        <time>2020-05-14T00:14:49Z</time>
      </trkpt>
      <trkpt lat="43.07566" lon="-1.91595">
        <ele>539.832</ele>
        <time>2020-05-14T00:14:29Z</time>
      </trkpt>
      <trkpt lat="43.07564" lon="-1.91604">
        <ele>539.667</ele>
        <time>2020-05-14T00:14:09Z</time>
      </trkpt>
      <trkpt lat="43.07563" lon="-1.91607">
        <ele>539.608</ele>
        <time>2020-05-14T00:13:49Z</time>
      </trkpt>
      <trkpt lat="43.0756" lon="-1.91616">
        <ele>540.313</ele>
        <time>2020-05-14T00:13:29Z</time>
      </trkpt>
      <trkpt lat="43.07557" lon="-1.91625">
        <ele>540.349</ele>
        <time>2020-05-14T00:13:09Z</time>
      </trkpt>
      <trkpt lat="43.07554" lon="-1.91636">
        <ele>540.337</ele>
        <time>2020-05-14T00:12:49Z</time>
      </trkpt>
      <trkpt lat="43.07549" lon="-1.91646">
        <ele>544.425</ele>
        <time>2020-05-14T00:12:29Z</time>
      </trkpt>
      <trkpt lat="43.07544" lon="-1.91659">
        <ele>540.497</ele>
        <time>2020-05-14T00:12:09Z</time>
      </trkpt>
      <trkpt lat="43.07541" lon="-1.91664">
        <ele>541.759</ele>
        <time>2020-05-14T00:11:49Z</time>
      </trkpt>
      <trkpt lat="43.0754" lon="-1.91668">
        <ele>541.797</ele>
        <time>2020-05-14T00:11:29Z</time>
      </trkpt>
      <trkpt lat="43.07539" lon="-1.91669">
        <ele>541.721</ele>
        <time>2020-05-14T00:11:09Z</time>
      </trkpt>
      <trkpt lat="43.07538" lon="-1.9167">
        <ele>541.726</ele>
        <time>2020-05-14T00:10:49Z</time>
      </trkpt>
      <trkpt lat="43.07537" lon="-1.91672">
        <ele>541.773</ele>
        <time>2020-05-14T00:10:29Z</time>
      </trkpt>
      <trkpt lat="43.07533" lon="-1.91678">
        <ele>544.248</ele>
        <time>2020-05-14T00:10:09Z</time>
      </trkpt>
      <trkpt lat="43.07527" lon="-1.91685">
        <ele>542.408</ele>
        <time>2020-05-14T00:09:49Z</time>
      </trkpt>
      <trkpt lat="43.07522" lon="-1.91692">
        <ele>543.611</ele>
        <time>2020-05-14T00:09:29Z</time>
      </trkpt>
      <trkpt lat="43.07519" lon="-1.91695">
        <ele>543.647</ele>
        <time>2020-05-14T00:09:09Z</time>
      </trkpt>
      <trkpt lat="43.07515" lon="-1.917">
        <ele>544.545</ele>
        <time>2020-05-14T00:08:49Z</time>
      </trkpt>
      <trkpt lat="43.0751" lon="-1.91704">
        <ele>544.565</ele>
        <time>2020-05-14T00:08:29Z</time>
      </trkpt>
      <trkpt lat="43.07507" lon="-1.91706">
        <ele>544.587</ele>
        <time>2020-05-14T00:08:09Z</time>
      </trkpt>
      <trkpt lat="43.07503" lon="-1.91709">
        <ele>545.379</ele>
        <time>2020-05-14T00:07:49Z</time>
      </trkpt>
      <trkpt lat="43.07499" lon="-1.91712">
        <ele>545.367</ele>
        <time>2020-05-14T00:07:29Z</time>
      </trkpt>
      <trkpt lat="43.07497" lon="-1.91714">
        <ele>544.951</ele>
        <time>2020-05-14T00:07:09Z</time>
      </trkpt>
      <trkpt lat="43.07494" lon="-1.91715">
        <ele>544.926</ele>
        <time>2020-05-14T00:06:49Z</time>
      </trkpt>
      <trkpt lat="43.0749" lon="-1.91718">
        <ele>544.993</ele>
        <time>2020-05-14T00:06:29Z</time>
      </trkpt>
      <trkpt lat="43.07485" lon="-1.9172">
        <ele>549.688</ele>
        <time>2020-05-14T00:06:09Z</time>
      </trkpt>
      <trkpt lat="43.07481" lon="-1.91722">
        <ele>544.508</ele>
        <time>2020-05-14T00:05:49Z</time>
      </trkpt>
      <trkpt lat="43.07477" lon="-1.91724">
        <ele>546.016</ele>
        <time>2020-05-14T00:05:29Z</time>
      </trkpt>
      <trkpt lat="43.07475" lon="-1.91725">
        <ele>546.088</ele>
        <time>2020-05-14T00:05:09Z</time>
      </trkpt>
      <trkpt lat="43.07471" lon="-1.91727">
        <ele>546.046</ele>
        <time>2020-05-14T00:04:49Z</time>
      </trkpt>
      <trkpt lat="43.07466" lon="-1.91728">
        <ele>546.013</ele>
        <time>2020-05-14T00:04:29Z</time>
      </trkpt>
      <trkpt lat="43.07463" lon="-1.91729">
        <ele>546.065</ele>
        <time>2020-05-14T00:04:09Z</time>
      </trkpt>
      <trkpt lat="43.07458" lon="-1.9173">
        <ele>545.967</ele>
        <time>2020-05-14T00:03:49Z</time>
      </trkpt>
      <trkpt lat="43.07453" lon="-1.91731">
        <ele>545.915</ele>
        <time>2020-05-14T00:03:29Z</time>
      </trkpt>
      <trkpt lat="43.07447" lon="-1.91732">
        <ele>548.999</ele>
        <time>2020-05-14T00:03:09Z</time>
      </trkpt>
      <trkpt lat="43.07441" lon="-1.91732">
        <ele>550.624</ele>
        <time>2020-05-14T00:02:49Z</time>
      </trkpt>
      <trkpt lat="43.0743" lon="-1.91731">
        <ele>550.911</ele>
        <time>2020-05-14T00:02:29Z</time>
      </trkpt>
      <trkpt lat="43.07421" lon="-1.9173">
        <ele>546.716</ele>
        <time>2020-05-14T00:02:09Z</time>
      </trkpt>
      <trkpt lat="43.07415" lon="-1.91729">
        <ele>545.708</ele>
        <time>2020-05-14T00:01:49Z</time>
      </trkpt>
      <trkpt lat="43.07408" lon="-1.91727">
        <ele>545.014</ele>
        <time>2020-05-14T00:01:29Z</time>
      </trkpt>
      <trkpt lat="43.07405" lon="-1.91726">
        <ele>545.004</ele>
        <time>2020-05-14T00:01:09Z</time>
      </trkpt>
      <trkpt lat="43.07401" lon="-1.91725">
        <ele>545.024</ele>
        <time>2020-05-14T00:00:49Z</time>
      </trkpt>
      <trkpt lat="43.07396" lon="-1.91722">
        <ele>545.487</ele>
        <time>2020-05-14T00:00:29Z</time>
      </trkpt>
      <trkpt lat="43.07392" lon="-1.9172">
        <ele>545.469</ele>
        <time>2020-05-14T00:00:09Z</time>
      </trkpt>
      <trkpt lat="43.07388" lon="-1.91717">
        <ele>544.261</ele>
        <time>2020-05-13T23:59:49Z</time>
      </trkpt>
      <trkpt lat="43.07382" lon="-1.91712">
        <ele>544.259</ele>
        <time>2020-05-13T23:59:29Z</time>
      </trkpt>
      <trkpt lat="43.07377" lon="-1.91707">
        <ele>545.723</ele>
        <time>2020-05-13T23:59:09Z</time>
      </trkpt>
      <trkpt lat="43.07369" lon="-1.917">
        <ele>544.468</ele>
        <time>2020-05-13T23:58:49Z</time>
      </trkpt>
      <trkpt lat="43.07361" lon="-1.91693">
        <ele>544.975</ele>
        <time>2020-05-13T23:58:29Z</time>
      </trkpt>
      <trkpt lat="43.07358" lon="-1.91689">
        <ele>544.93</ele>
        <time>2020-05-13T23:58:09Z</time>
      </trkpt>
      <trkpt lat="43.07354" lon="-1.91684">
        <ele>545.008</ele>
        <time>2020-05-13T23:57:49Z</time>
      </trkpt>
      <trkpt lat="43.0735" lon="-1.9168">
        <ele>545.026</ele>
        <time>2020-05-13T23:57:29Z</time>
      </trkpt>
      <trkpt lat="43.07349" lon="-1.91678">
        <ele>545.042</ele>
        <time>2020-05-13T23:57:09Z</time>
      </trkpt>
      <trkpt lat="43.07342" lon="-1.91666">
        <ele>545.368</ele>
        <time>2020-05-13T23:56:49Z</time>
      </trkpt>
      <trkpt lat="43.0733" lon="-1.91645">
        <ele>546.199</ele>
        <time>2020-05-13T23:56:29Z</time>
      </trkpt>
      <trkpt lat="43.07323" lon="-1.91633">
        <ele>546.161</ele>
        <time>2020-05-13T23:56:09Z</time>
      </trkpt>
      <trkpt lat="43.07305" lon="-1.91603">
        <ele>546.823</ele>
        <time>2020-05-13T23:55:49Z</time>
      </trkpt>
      <trkpt lat="43.07284" lon="-1.91567">
        <ele>549.541</ele>
        <time>2020-05-13T23:55:29Z</time>
      </trkpt>
      <trkpt lat="43.07272" lon="-1.91548">
        <ele>552.675</ele>
        <time>2020-05-13T23:55:09Z</time>
      </trkpt>
      <trkpt lat="43.07262" lon="-1.9153">
        <ele>551.65</ele>
        <time>2020-05-13T23:54:49Z</time>
      </trkpt>
      <trkpt lat="43.07251" lon="-1.9151">
        <ele>548.877</ele>
        <time>2020-05-13T23:54:29Z</time>
      </trkpt>
      <trkpt lat="43.0724" lon="-1.9149">
        <ele>554.032</ele>
        <time>2020-05-13T23:54:09Z</time>
      </trkpt>
      <trkpt lat="43.07235" lon="-1.91483">
        <ele>554.008</ele>
        <time>2020-05-13T23:53:49Z</time>
      </trkpt>
      <trkpt lat="43.0723" lon="-1.91476">
        <ele>552.517</ele>
        <time>2020-05-13T23:53:29Z</time>
      </trkpt>
      <trkpt lat="43.07226" lon="-1.91471">
        <ele>552.561</ele>
        <time>2020-05-13T23:53:09Z</time>
      </trkpt>
      <trkpt lat="43.07223" lon="-1.91467">
        <ele>552.781</ele>
        <time>2020-05-13T23:52:49Z</time>
      </trkpt>
      <trkpt lat="43.07214" lon="-1.91458">
        <ele>549.757</ele>
        <time>2020-05-13T23:52:29Z</time>
      </trkpt>
      <trkpt lat="43.0721" lon="-1.91453">
        <ele>553.489</ele>
        <time>2020-05-13T23:52:09Z</time>
      </trkpt>
      <trkpt lat="43.07205" lon="-1.91449">
        <ele>550.011</ele>
        <time>2020-05-13T23:51:49Z</time>
      </trkpt>
      <trkpt lat="43.072" lon="-1.91445">
        <ele>550.019</ele>
        <time>2020-05-13T23:51:29Z</time>
      </trkpt>
      <trkpt lat="43.07198" lon="-1.91444">
        <ele>549.193</ele>
        <time>2020-05-13T23:51:09Z</time>
      </trkpt>
      <trkpt lat="43.07196" lon="-1.91442">
        <ele>551.078</ele>
        <time>2020-05-13T23:50:49Z</time>
      </trkpt>
      <trkpt lat="43.07192" lon="-1.9144">
        <ele>551.045</ele>
        <time>2020-05-13T23:50:29Z</time>
      </trkpt>
      <trkpt lat="43.07187" lon="-1.91437">
        <ele>550.61</ele>
        <time>2020-05-13T23:50:09Z</time>
      </trkpt>
      <trkpt lat="43.07175" lon="-1.91432">
        <ele>550.408</ele>
        <time>2020-05-13T23:49:49Z</time>
      </trkpt>
      <trkpt lat="43.07159" lon="-1.91427">
        <ele>560.511</ele>
        <time>2020-05-13T23:49:29Z</time>
      </trkpt>
      <trkpt lat="43.07066" lon="-1.9141">
        <ele>562.583</ele>
        <time>2020-05-13T23:49:09Z</time>
      </trkpt>
      <trkpt lat="43.07059" lon="-1.91406">
        <ele>559.362</ele>
        <time>2020-05-13T23:48:49Z</time>
      </trkpt>
      <trkpt lat="43.0705" lon="-1.91402">
        <ele>554.055</ele>
        <time>2020-05-13T23:48:29Z</time>
      </trkpt>
      <trkpt lat="43.07043" lon="-1.91398">
        <ele>553.657</ele>
        <time>2020-05-13T23:48:09Z</time>
      </trkpt>
      <trkpt lat="43.07039" lon="-1.91396">
        <ele>554.319</ele>
        <time>2020-05-13T23:47:49Z</time>
      </trkpt>
      <trkpt lat="43.07033" lon="-1.91392">
        <ele>553.867</ele>
        <time>2020-05-13T23:47:29Z</time>
      </trkpt>
      <trkpt lat="43.07025" lon="-1.91386">
        <ele>553.971</ele>
        <time>2020-05-13T23:47:09Z</time>
      </trkpt>
      <trkpt lat="43.07018" lon="-1.9138">
        <ele>554.136</ele>
        <time>2020-05-13T23:46:49Z</time>
      </trkpt>
      <trkpt lat="43.07012" lon="-1.91376">
        <ele>554.223</ele>
        <time>2020-05-13T23:46:29Z</time>
      </trkpt>
      <trkpt lat="43.06999" lon="-1.91363">
        <ele>553.058</ele>
        <time>2020-05-13T23:46:09Z</time>
      </trkpt>
      <trkpt lat="43.06986" lon="-1.9135">
        <ele>554.808</ele>
        <time>2020-05-13T23:45:49Z</time>
      </trkpt>
      <trkpt lat="43.06978" lon="-1.91343">
        <ele>555.221</ele>
        <time>2020-05-13T23:45:29Z</time>
      </trkpt>
      <trkpt lat="43.06962" lon="-1.91329">
        <ele>555.629</ele>
        <time>2020-05-13T23:45:09Z</time>
      </trkpt>
      <trkpt lat="43.06957" lon="-1.91324">
        <ele>560.147</ele>
        <time>2020-05-13T23:44:49Z</time>
      </trkpt>
      <trkpt lat="43.06944" lon="-1.91312">
        <ele>560.269</ele>
        <time>2020-05-13T23:44:29Z</time>
      </trkpt>
      <trkpt lat="43.0692" lon="-1.91289">
        <ele>556.791</ele>
        <time>2020-05-13T23:44:09Z</time>
      </trkpt>
      <trkpt lat="43.06907" lon="-1.91276">
        <ele>561.453</ele>
        <time>2020-05-13T23:43:49Z</time>
      </trkpt>
      <trkpt lat="43.06895" lon="-1.91266">
        <ele>557.681</ele>
        <time>2020-05-13T23:43:29Z</time>
      </trkpt>
      <trkpt lat="43.06885" lon="-1.91256">
        <ele>558.735</ele>
        <time>2020-05-13T23:43:09Z</time>
      </trkpt>
      <trkpt lat="43.06871" lon="-1.91242">
        <ele>560.59</ele>
        <time>2020-05-13T23:42:49Z</time>
      </trkpt>
      <trkpt lat="43.0686" lon="-1.91231">
        <ele>559.487</ele>
        <time>2020-05-13T23:42:29Z</time>
      </trkpt>
      <trkpt lat="43.06854" lon="-1.91226">
        <ele>569.692</ele>
        <time>2020-05-13T23:42:09Z</time>
      </trkpt>
      <trkpt lat="43.06849" lon="-1.91222">
        <ele>559.808</ele>
        <time>2020-05-13T23:41:49Z</time>
      </trkpt>
      <trkpt lat="43.0684" lon="-1.91213">
        <ele>563.317</ele>
        <time>2020-05-13T23:41:29Z</time>
      </trkpt>
      <trkpt lat="43.06831" lon="-1.91203">
        <ele>563.607</ele>
        <time>2020-05-13T23:41:09Z</time>
      </trkpt>
      <trkpt lat="43.06825" lon="-1.91199">
        <ele>559.984</ele>
        <time>2020-05-13T23:40:49Z</time>
      </trkpt>
      <trkpt lat="43.06821" lon="-1.91195">
        <ele>559.998</ele>
        <time>2020-05-13T23:40:29Z</time>
      </trkpt>
      <trkpt lat="43.06816" lon="-1.91191">
        <ele>560.02</ele>
        <time>2020-05-13T23:40:09Z</time>
      </trkpt>
      <trkpt lat="43.06808" lon="-1.91184">
        <ele>559.822</ele>
        <time>2020-05-13T23:39:49Z</time>
      </trkpt>
      <trkpt lat="43.06796" lon="-1.91177">
        <ele>560.23</ele>
        <time>2020-05-13T23:39:29Z</time>
      </trkpt>
      <trkpt lat="43.06786" lon="-1.91173">
        <ele>560.384</ele>
        <time>2020-05-13T23:39:09Z</time>
      </trkpt>
      <trkpt lat="43.06776" lon="-1.9117">
        <ele>560.989</ele>
        <time>2020-05-13T23:38:49Z</time>
      </trkpt>
      <trkpt lat="43.06765" lon="-1.9117">
        <ele>562.326</ele>
        <time>2020-05-13T23:38:29Z</time>
      </trkpt>
      <trkpt lat="43.06748" lon="-1.91169">
        <ele>566.951</ele>
        <time>2020-05-13T23:38:09Z</time>
      </trkpt>
      <trkpt lat="43.06716" lon="-1.91177">
        <ele>563.508</ele>
        <time>2020-05-13T23:37:49Z</time>
      </trkpt>
      <trkpt lat="43.06707" lon="-1.91178">
        <ele>563.827</ele>
        <time>2020-05-13T23:37:29Z</time>
      </trkpt>
      <trkpt lat="43.06695" lon="-1.9118">
        <ele>564.761</ele>
        <time>2020-05-13T23:37:09Z</time>
      </trkpt>
      <trkpt lat="43.06686" lon="-1.91181">
        <ele>563.877</ele>
        <time>2020-05-13T23:36:49Z</time>
      </trkpt>
      <trkpt lat="43.06675" lon="-1.91182">
        <ele>564.639</ele>
        <time>2020-05-13T23:36:29Z</time>
      </trkpt>
      <trkpt lat="43.06641" lon="-1.91186">
        <ele>563.671</ele>
        <time>2020-05-13T23:36:09Z</time>
      </trkpt>
      <trkpt lat="43.06634" lon="-1.91186">
        <ele>563.863</ele>
        <time>2020-05-13T23:35:49Z</time>
      </trkpt>
      <trkpt lat="43.06625" lon="-1.91187">
        <ele>564.091</ele>
        <time>2020-05-13T23:35:29Z</time>
      </trkpt>
      <trkpt lat="43.0662" lon="-1.91187">
        <ele>564.075</ele>
        <time>2020-05-13T23:35:09Z</time>
      </trkpt>
      <trkpt lat="43.06617" lon="-1.91187">
        <ele>564.22</ele>
        <time>2020-05-13T23:34:49Z</time>
      </trkpt>
      <trkpt lat="43.06615" lon="-1.91186">
        <ele>564.257</ele>
        <time>2020-05-13T23:34:29Z</time>
      </trkpt>
      <trkpt lat="43.0661" lon="-1.91185">
        <ele>564.772</ele>
        <time>2020-05-13T23:34:09Z</time>
      </trkpt>
      <trkpt lat="43.06607" lon="-1.91185">
        <ele>564.708</ele>
        <time>2020-05-13T23:33:49Z</time>
      </trkpt>
      <trkpt lat="43.06602" lon="-1.91183">
        <ele>566.526</ele>
        <time>2020-05-13T23:33:29Z</time>
      </trkpt>
      <trkpt lat="43.06595" lon="-1.9118">
        <ele>565.542</ele>
        <time>2020-05-13T23:33:09Z</time>
      </trkpt>
      <trkpt lat="43.06591" lon="-1.91178">
        <ele>564.987</ele>
        <time>2020-05-13T23:32:49Z</time>
      </trkpt>
      <trkpt lat="43.06589" lon="-1.91177">
        <ele>564.977</ele>
        <time>2020-05-13T23:32:29Z</time>
      </trkpt>
      <trkpt lat="43.06583" lon="-1.91173">
        <ele>565.329</ele>
        <time>2020-05-13T23:32:09Z</time>
      </trkpt>
      <trkpt lat="43.06575" lon="-1.91167">
        <ele>565.991</ele>
        <time>2020-05-13T23:31:49Z</time>
      </trkpt>
      <trkpt lat="43.06569" lon="-1.91163">
        <ele>565.469</ele>
        <time>2020-05-13T23:31:29Z</time>
      </trkpt>
      <trkpt lat="43.06564" lon="-1.91159">
        <ele>565.383</ele>
        <time>2020-05-13T23:31:09Z</time>
      </trkpt>
      <trkpt lat="43.06562" lon="-1.91157">
        <ele>565.328</ele>
        <time>2020-05-13T23:30:49Z</time>
      </trkpt>
      <trkpt lat="43.06561" lon="-1.91155">
        <ele>565.365</ele>
        <time>2020-05-13T23:30:29Z</time>
      </trkpt>
      <trkpt lat="43.06555" lon="-1.91149">
        <ele>565.46</ele>
        <time>2020-05-13T23:30:09Z</time>
      </trkpt>
      <trkpt lat="43.0655" lon="-1.91142">
        <ele>568.608</ele>
        <time>2020-05-13T23:29:49Z</time>
      </trkpt>
      <trkpt lat="43.06545" lon="-1.91136">
        <ele>565.619</ele>
        <time>2020-05-13T23:29:29Z</time>
      </trkpt>
      <trkpt lat="43.06543" lon="-1.91131">
        <ele>568.181</ele>
        <time>2020-05-13T23:29:09Z</time>
      </trkpt>
      <trkpt lat="43.06535" lon="-1.91119">
        <ele>566.667</ele>
        <time>2020-05-13T23:28:49Z</time>
      </trkpt>
      <trkpt lat="43.06529" lon="-1.91108">
        <ele>570.169</ele>
        <time>2020-05-13T23:28:29Z</time>
      </trkpt>
      <trkpt lat="43.06522" lon="-1.91096">
        <ele>569.191</ele>
        <time>2020-05-13T23:28:09Z</time>
      </trkpt>
      <trkpt lat="43.06516" lon="-1.91085">
        <ele>568.253</ele>
        <time>2020-05-13T23:27:49Z</time>
      </trkpt>
      <trkpt lat="43.06507" lon="-1.91068">
        <ele>566.961</ele>
        <time>2020-05-13T23:27:29Z</time>
      </trkpt>
      <trkpt lat="43.06499" lon="-1.91053">
        <ele>567.215</ele>
        <time>2020-05-13T23:27:09Z</time>
      </trkpt>
      <trkpt lat="43.06492" lon="-1.91041">
        <ele>567.75</ele>
        <time>2020-05-13T23:26:49Z</time>
      </trkpt>
      <trkpt lat="43.06485" lon="-1.91028">
        <ele>568.597</ele>
        <time>2020-05-13T23:26:29Z</time>
      </trkpt>
      <trkpt lat="43.06477" lon="-1.91009">
        <ele>573.622</ele>
        <time>2020-05-13T23:26:09Z</time>
      </trkpt>
      <trkpt lat="43.06474" lon="-1.91001">
        <ele>569.808</ele>
        <time>2020-05-13T23:25:49Z</time>
      </trkpt>
      <trkpt lat="43.0647" lon="-1.90993">
        <ele>569.826</ele>
        <time>2020-05-13T23:25:29Z</time>
      </trkpt>
      <trkpt lat="43.06465" lon="-1.90983">
        <ele>572.524</ele>
        <time>2020-05-13T23:25:09Z</time>
      </trkpt>
      <trkpt lat="43.0646" lon="-1.90973">
        <ele>571.988</ele>
        <time>2020-05-13T23:24:49Z</time>
      </trkpt>
      <trkpt lat="43.06446" lon="-1.90947">
        <ele>578.664</ele>
        <time>2020-05-13T23:24:29Z</time>
      </trkpt>
      <trkpt lat="43.06438" lon="-1.90933">
        <ele>577.616</ele>
        <time>2020-05-13T23:24:09Z</time>
      </trkpt>
      <trkpt lat="43.06434" lon="-1.90925">
        <ele>573.398</ele>
        <time>2020-05-13T23:23:49Z</time>
      </trkpt>
      <trkpt lat="43.0643" lon="-1.90918">
        <ele>573.326</ele>
        <time>2020-05-13T23:23:29Z</time>
      </trkpt>
      <trkpt lat="43.06426" lon="-1.90913">
        <ele>572.93</ele>
        <time>2020-05-13T23:23:09Z</time>
      </trkpt>
      <trkpt lat="43.06421" lon="-1.90904">
        <ele>579.745</ele>
        <time>2020-05-13T23:22:49Z</time>
      </trkpt>
      <trkpt lat="43.06418" lon="-1.909">
        <ele>570.822</ele>
        <time>2020-05-13T23:22:29Z</time>
      </trkpt>
      <trkpt lat="43.06411" lon="-1.90891">
        <ele>577.637</ele>
        <time>2020-05-13T23:22:09Z</time>
      </trkpt>
      <trkpt lat="43.06407" lon="-1.90886">
        <ele>570.608</ele>
        <time>2020-05-13T23:21:49Z</time>
      </trkpt>
      <trkpt lat="43.06403" lon="-1.90881">
        <ele>570.607</ele>
        <time>2020-05-13T23:21:29Z</time>
      </trkpt>
      <trkpt lat="43.064" lon="-1.90878">
        <ele>570.861</ele>
        <time>2020-05-13T23:21:09Z</time>
      </trkpt>
      <trkpt lat="43.06396" lon="-1.90874">
        <ele>570.831</ele>
        <time>2020-05-13T23:20:49Z</time>
      </trkpt>
      <trkpt lat="43.06396" lon="-1.90874">
        <ele>570.846</ele>
        <time>2020-05-13T23:20:29Z</time>
      </trkpt>
      <trkpt lat="43.06389" lon="-1.90868">
        <ele>564.438</ele>
        <time>2020-05-13T23:20:09Z</time>
      </trkpt>
      <trkpt lat="43.06382" lon="-1.90863">
        <ele>565.75</ele>
        <time>2020-05-13T23:19:49Z</time>
      </trkpt>
      <trkpt lat="43.06379" lon="-1.9086">
        <ele>565.778</ele>
        <time>2020-05-13T23:19:29Z</time>
      </trkpt>
      <trkpt lat="43.06375" lon="-1.90857">
        <ele>565.792</ele>
        <time>2020-05-13T23:19:09Z</time>
      </trkpt>
      <trkpt lat="43.06373" lon="-1.90856">
        <ele>565.887</ele>
        <time>2020-05-13T23:18:49Z</time>
      </trkpt>
      <trkpt lat="43.06365" lon="-1.90851">
        <ele>565.854</ele>
        <time>2020-05-13T23:18:29Z</time>
      </trkpt>
      <trkpt lat="43.06364" lon="-1.90851">
        <ele>567.429</ele>
        <time>2020-05-13T23:18:09Z</time>
      </trkpt>
      <trkpt lat="43.06364" lon="-1.9085">
        <ele>567.408</ele>
        <time>2020-05-13T23:17:49Z</time>
      </trkpt>
      <trkpt lat="43.06363" lon="-1.9085">
        <ele>567.417</ele>
        <time>2020-05-13T23:17:29Z</time>
      </trkpt>
      <trkpt lat="43.06363" lon="-1.9085">
        <ele>567.407</ele>
        <time>2020-05-13T23:17:09Z</time>
      </trkpt>
      <trkpt lat="43.0636" lon="-1.90849">
        <ele>567.455</ele>
        <time>2020-05-13T23:16:49Z</time>
      </trkpt>
      <trkpt lat="43.06358" lon="-1.90847">
        <ele>567.414</ele>
        <time>2020-05-13T23:16:29Z</time>
      </trkpt>
      <trkpt lat="43.06354" lon="-1.90845">
        <ele>570.936</ele>
        <time>2020-05-13T23:16:09Z</time>
      </trkpt>
      <trkpt lat="43.06352" lon="-1.90844">
        <ele>570.978</ele>
        <time>2020-05-13T23:15:49Z</time>
      </trkpt>
      <trkpt lat="43.06348" lon="-1.90842">
        <ele>571.886</ele>
        <time>2020-05-13T23:15:29Z</time>
      </trkpt>
      <trkpt lat="43.06343" lon="-1.9084">
        <ele>573.11</ele>
        <time>2020-05-13T23:15:09Z</time>
      </trkpt>
      <trkpt lat="43.06325" lon="-1.90839">
        <ele>588.275</ele>
        <time>2020-05-13T23:14:49Z</time>
      </trkpt>
      <trkpt lat="43.0631" lon="-1.90837">
        <ele>591.922</ele>
        <time>2020-05-13T23:14:29Z</time>
      </trkpt>
      <trkpt lat="43.0629" lon="-1.90836">
        <ele>585.197</ele>
        <time>2020-05-13T23:14:09Z</time>
      </trkpt>
      <trkpt lat="43.06266" lon="-1.90836">
        <ele>581.208</ele>
        <time>2020-05-13T23:13:49Z</time>
      </trkpt>
      <trkpt lat="43.06254" lon="-1.90836">
        <ele>574.215</ele>
        <time>2020-05-13T23:13:29Z</time>
      </trkpt>
      <trkpt lat="43.06253" lon="-1.90836">
        <ele>574.223</ele>
        <time>2020-05-13T23:13:09Z</time>
      </trkpt>
      <trkpt lat="43.06227" lon="-1.90838">
        <ele>574.333</ele>
        <time>2020-05-13T23:12:49Z</time>
      </trkpt>
      <trkpt lat="43.062" lon="-1.9084">
        <ele>574.934</ele>
        <time>2020-05-13T23:12:29Z</time>
      </trkpt>
      <trkpt lat="43.06197" lon="-1.9084">
        <ele>574.916</ele>
        <time>2020-05-13T23:12:09Z</time>
      </trkpt>
      <trkpt lat="43.06169" lon="-1.90842">
        <ele>576.948</ele>
        <time>2020-05-13T23:11:49Z</time>
      </trkpt>
      <trkpt lat="43.06142" lon="-1.90843">
        <ele>579.886</ele>
        <time>2020-05-13T23:11:29Z</time>
      </trkpt>
      <trkpt lat="43.06106" lon="-1.90846">
        <ele>585.76</ele>
        <time>2020-05-13T23:11:09Z</time>
      </trkpt>
      <trkpt lat="43.06052" lon="-1.90851">
        <ele>578.865</ele>
        <time>2020-05-13T23:10:49Z</time>
      </trkpt>
      <trkpt lat="43.06048" lon="-1.90851">
        <ele>577.962</ele>
        <time>2020-05-13T23:10:29Z</time>
      </trkpt>
      <trkpt lat="43.06043" lon="-1.90852">
        <ele>577.937</ele>
        <time>2020-05-13T23:10:09Z</time>
      </trkpt>
      <trkpt lat="43.06039" lon="-1.90852">
        <ele>578.008</ele>
        <time>2020-05-13T23:09:49Z</time>
      </trkpt>
      <trkpt lat="43.0602" lon="-1.90853">
        <ele>578.81</ele>
        <time>2020-05-13T23:09:29Z</time>
      </trkpt>
      <trkpt lat="43.0601" lon="-1.90854">
        <ele>578.955</ele>
        <time>2020-05-13T23:09:09Z</time>
      </trkpt>
      <trkpt lat="43.05993" lon="-1.90854">
        <ele>579.534</ele>
        <time>2020-05-13T23:08:49Z</time>
      </trkpt>
      <trkpt lat="43.05989" lon="-1.90854">
        <ele>579.592</ele>
        <time>2020-05-13T23:08:29Z</time>
      </trkpt>
      <trkpt lat="43.05983" lon="-1.90854">
        <ele>579.344</ele>
        <time>2020-05-13T23:08:09Z</time>
      </trkpt>
      <trkpt lat="43.0598" lon="-1.90853">
        <ele>579.346</ele>
        <time>2020-05-13T23:07:49Z</time>
      </trkpt>
      <trkpt lat="43.05967" lon="-1.90849">
        <ele>580.384</ele>
        <time>2020-05-13T23:07:29Z</time>
      </trkpt>
      <trkpt lat="43.0596" lon="-1.90845">
        <ele>580.378</ele>
        <time>2020-05-13T23:07:09Z</time>
      </trkpt>
      <trkpt lat="43.05952" lon="-1.90841">
        <ele>580.223</ele>
        <time>2020-05-13T23:06:49Z</time>
      </trkpt>
      <trkpt lat="43.05944" lon="-1.90835">
        <ele>580.44</ele>
        <time>2020-05-13T23:06:29Z</time>
      </trkpt>
      <trkpt lat="43.05941" lon="-1.90833">
        <ele>580.475</ele>
        <time>2020-05-13T23:06:09Z</time>
      </trkpt>
      <trkpt lat="43.05938" lon="-1.9083">
        <ele>580.708</ele>
        <time>2020-05-13T23:05:49Z</time>
      </trkpt>
      <trkpt lat="43.05931" lon="-1.90823">
        <ele>580.917</ele>
        <time>2020-05-13T23:05:29Z</time>
      </trkpt>
      <trkpt lat="43.05924" lon="-1.90815">
        <ele>580.998</ele>
        <time>2020-05-13T23:05:09Z</time>
      </trkpt>
      <trkpt lat="43.05923" lon="-1.90813">
        <ele>582.118</ele>
        <time>2020-05-13T23:04:49Z</time>
      </trkpt>
      <trkpt lat="43.05921" lon="-1.90811">
        <ele>581.358</ele>
        <time>2020-05-13T23:04:29Z</time>
      </trkpt>
      <trkpt lat="43.05915" lon="-1.90803">
        <ele>581.35</ele>
        <time>2020-05-13T23:04:09Z</time>
      </trkpt>
      <trkpt lat="43.05911" lon="-1.90796">
        <ele>581.672</ele>
        <time>2020-05-13T23:03:49Z</time>
      </trkpt>
      <trkpt lat="43.0591" lon="-1.90794">
        <ele>581.69</ele>
        <time>2020-05-13T23:03:29Z</time>
      </trkpt>
      <trkpt lat="43.05908" lon="-1.90791">
        <ele>581.664</ele>
        <time>2020-05-13T23:03:09Z</time>
      </trkpt>
      <trkpt lat="43.05908" lon="-1.9079">
        <ele>584.829</ele>
        <time>2020-05-13T23:02:49Z</time>
      </trkpt>
      <trkpt lat="43.05906" lon="-1.90787">
        <ele>584.876</ele>
        <time>2020-05-13T23:02:29Z</time>
      </trkpt>
      <trkpt lat="43.05905" lon="-1.90784">
        <ele>584.851</ele>
        <time>2020-05-13T23:02:09Z</time>
      </trkpt>
      <trkpt lat="43.05903" lon="-1.90779">
        <ele>583.508</ele>
        <time>2020-05-13T23:01:49Z</time>
      </trkpt>
      <trkpt lat="43.05901" lon="-1.90774">
        <ele>584.013</ele>
        <time>2020-05-13T23:01:29Z</time>
      </trkpt>
      <trkpt lat="43.05898" lon="-1.90763">
        <ele>589.585</ele>
        <time>2020-05-13T23:01:09Z</time>
      </trkpt>
      <trkpt lat="43.05894" lon="-1.90753">
        <ele>587.073</ele>
        <time>2020-05-13T23:00:49Z</time>
      </trkpt>
      <trkpt lat="43.05893" lon="-1.90745">
        <ele>587.022</ele>
        <time>2020-05-13T23:00:29Z</time>
      </trkpt>
      <trkpt lat="43.05891" lon="-1.90737">
        <ele>585.624</ele>
        <time>2020-05-13T23:00:09Z</time>
      </trkpt>
      <trkpt lat="43.0589" lon="-1.90733">
        <ele>585.686</ele>
        <time>2020-05-13T22:59:49Z</time>
      </trkpt>
      <trkpt lat="43.0589" lon="-1.90731">
        <ele>585.664</ele>
        <time>2020-05-13T22:59:29Z</time>
      </trkpt>
      <trkpt lat="43.05889" lon="-1.9072">
        <ele>592.738</ele>
        <time>2020-05-13T22:59:09Z</time>
      </trkpt>
      <trkpt lat="43.0589" lon="-1.9069">
        <ele>599.093</ele>
        <time>2020-05-13T22:58:49Z</time>
      </trkpt>
      <trkpt lat="43.0589" lon="-1.90678">
        <ele>599.91</ele>
        <time>2020-05-13T22:58:29Z</time>
      </trkpt>
      <trkpt lat="43.05894" lon="-1.90657">
        <ele>602.955</ele>
        <time>2020-05-13T22:58:09Z</time>
      </trkpt>
      <trkpt lat="43.05903" lon="-1.90628">
        <ele>599.608</ele>
        <time>2020-05-13T22:57:49Z</time>
      </trkpt>
      <trkpt lat="43.05909" lon="-1.90618">
        <ele>590.607</ele>
        <time>2020-05-13T22:57:29Z</time>
      </trkpt>
      <trkpt lat="43.05919" lon="-1.906">
        <ele>588.243</ele>
        <time>2020-05-13T22:57:09Z</time>
      </trkpt>
      <trkpt lat="43.0592" lon="-1.90597">
        <ele>588.213</ele>
        <time>2020-05-13T22:56:49Z</time>
      </trkpt>
      <trkpt lat="43.05923" lon="-1.90591">
        <ele>591.063</ele>
        <time>2020-05-13T22:56:29Z</time>
      </trkpt>
      <trkpt lat="43.05924" lon="-1.90588">
        <ele>591.025</ele>
        <time>2020-05-13T22:56:09Z</time>
      </trkpt>
      <trkpt lat="43.05934" lon="-1.90572">
        <ele>590.317</ele>
        <time>2020-05-13T22:55:49Z</time>
      </trkpt>
      <trkpt lat="43.05939" lon="-1.90564">
        <ele>589.915</ele>
        <time>2020-05-13T22:55:29Z</time>
      </trkpt>
      <trkpt lat="43.05949" lon="-1.90545">
        <ele>590.129</ele>
        <time>2020-05-13T22:55:09Z</time>
      </trkpt>
      <trkpt lat="43.05954" lon="-1.90537">
        <ele>587.764</ele>
        <time>2020-05-13T22:54:49Z</time>
      </trkpt>
      <trkpt lat="43.05958" lon="-1.90529">
        <ele>589.371</ele>
        <time>2020-05-13T22:54:29Z</time>
      </trkpt>
      <trkpt lat="43.05961" lon="-1.90523">
        <ele>589.356</ele>
        <time>2020-05-13T22:54:09Z</time>
      </trkpt>
      <trkpt lat="43.05963" lon="-1.90518">
        <ele>586.408</ele>
        <time>2020-05-13T22:53:49Z</time>
      </trkpt>
      <trkpt lat="43.05966" lon="-1.90512">
        <ele>591.708</ele>
        <time>2020-05-13T22:53:29Z</time>
      </trkpt>
      <trkpt lat="43.05968" lon="-1.90505">
        <ele>590.762</ele>
        <time>2020-05-13T22:53:09Z</time>
      </trkpt>
      <trkpt lat="43.05973" lon="-1.90491">
        <ele>587.522</ele>
        <time>2020-05-13T22:52:49Z</time>
      </trkpt>
      <trkpt lat="43.05978" lon="-1.90467">
        <ele>590.167</ele>
        <time>2020-05-13T22:52:29Z</time>
      </trkpt>
      <trkpt lat="43.0598" lon="-1.90459">
        <ele>590.179</ele>
        <time>2020-05-13T22:52:09Z</time>
      </trkpt>
      <trkpt lat="43.05981" lon="-1.90456">
        <ele>589.221</ele>
        <time>2020-05-13T22:51:49Z</time>
      </trkpt>
      <trkpt lat="43.05981" lon="-1.90453">
        <ele>589.279</ele>
        <time>2020-05-13T22:51:29Z</time>
      </trkpt>
      <trkpt lat="43.05982" lon="-1.90448">
        <ele>589.233</ele>
        <time>2020-05-13T22:51:09Z</time>
      </trkpt>
      <trkpt lat="43.05982" lon="-1.90442">
        <ele>594.298</ele>
        <time>2020-05-13T22:50:49Z</time>
      </trkpt>
      <trkpt lat="43.05982" lon="-1.90441">
        <ele>594.235</ele>
        <time>2020-05-13T22:50:29Z</time>
      </trkpt>
      <trkpt lat="43.05982" lon="-1.90413">
        <ele>600.76</ele>
        <time>2020-05-13T22:50:09Z</time>
      </trkpt>
      <trkpt lat="43.05978" lon="-1.90389">
        <ele>606.508</ele>
        <time>2020-05-13T22:49:49Z</time>
      </trkpt>
      <trkpt lat="43.0597" lon="-1.90354">
        <ele>594.121</ele>
        <time>2020-05-13T22:49:29Z</time>
      </trkpt>
      <trkpt lat="43.0597" lon="-1.90354">
        <ele>594.129</ele>
        <time>2020-05-13T22:49:09Z</time>
      </trkpt>
      <trkpt lat="43.05969" lon="-1.9035">
        <ele>594.166</ele>
        <time>2020-05-13T22:48:49Z</time>
      </trkpt>
      <trkpt lat="43.05968" lon="-1.90347">
        <ele>595.973</ele>
        <time>2020-05-13T22:48:29Z</time>
      </trkpt>
      <trkpt lat="43.05965" lon="-1.90339">
        <ele>595.945</ele>
        <time>2020-05-13T22:48:09Z</time>
      </trkpt>
      <trkpt lat="43.05963" lon="-1.90334">
        <ele>589.747</ele>
        <time>2020-05-13T22:47:49Z</time>
      </trkpt>
      <trkpt lat="43.0596" lon="-1.90329">
        <ele>589.755</ele>
        <time>2020-05-13T22:47:29Z</time>
      </trkpt>
      <trkpt lat="43.05959" lon="-1.90325">
        <ele>589.779</ele>
        <time>2020-05-13T22:47:09Z</time>
      </trkpt>
      <trkpt lat="43.05957" lon="-1.90321">
        <ele>589.614</ele>
        <time>2020-05-13T22:46:49Z</time>
      </trkpt>
      <trkpt lat="43.05956" lon="-1.9032">
        <ele>589.641</ele>
        <time>2020-05-13T22:46:29Z</time>
      </trkpt>
      <trkpt lat="43.05953" lon="-1.90316">
        <ele>589.746</ele>
        <time>2020-05-13T22:46:09Z</time>
      </trkpt>
      <trkpt lat="43.05953" lon="-1.90315">
        <ele>589.708</ele>
        <time>2020-05-13T22:45:49Z</time>
      </trkpt>
      <trkpt lat="43.05952" lon="-1.90314">
        <ele>589.714</ele>
        <time>2020-05-13T22:45:29Z</time>
      </trkpt>
      <trkpt lat="43.05947" lon="-1.90307">
        <ele>589.868</ele>
        <time>2020-05-13T22:45:09Z</time>
      </trkpt>
      <trkpt lat="43.05941" lon="-1.90299">
        <ele>589.927</ele>
        <time>2020-05-13T22:44:49Z</time>
      </trkpt>
      <trkpt lat="43.05932" lon="-1.90289">
        <ele>590.317</ele>
        <time>2020-05-13T22:44:29Z</time>
      </trkpt>
      <trkpt lat="43.05928" lon="-1.90286">
        <ele>590.869</ele>
        <time>2020-05-13T22:44:09Z</time>
      </trkpt>
      <trkpt lat="43.05924" lon="-1.90282">
        <ele>591.041</ele>
        <time>2020-05-13T22:43:49Z</time>
      </trkpt>
      <trkpt lat="43.05923" lon="-1.90281">
        <ele>591.099</ele>
        <time>2020-05-13T22:43:29Z</time>
      </trkpt>
      <trkpt lat="43.05919" lon="-1.90278">
        <ele>591.083</ele>
        <time>2020-05-13T22:43:09Z</time>
      </trkpt>
      <trkpt lat="43.05906" lon="-1.90263">
        <ele>594.648</ele>
        <time>2020-05-13T22:42:49Z</time>
      </trkpt>
      <trkpt lat="43.05897" lon="-1.90254">
        <ele>602.955</ele>
        <time>2020-05-13T22:42:29Z</time>
      </trkpt>
      <trkpt lat="43.05879" lon="-1.90242">
        <ele>599.26</ele>
        <time>2020-05-13T22:42:09Z</time>
      </trkpt>
      <trkpt lat="43.05874" lon="-1.90237">
        <ele>605.508</ele>
        <time>2020-05-13T22:41:49Z</time>
      </trkpt>
      <trkpt lat="43.05856" lon="-1.90221">
        <ele>599.226</ele>
        <time>2020-05-13T22:41:29Z</time>
      </trkpt>
      <trkpt lat="43.0583" lon="-1.90198">
        <ele>598.342</ele>
        <time>2020-05-13T22:41:09Z</time>
      </trkpt>
      <trkpt lat="43.05827" lon="-1.90195">
        <ele>598.368</ele>
        <time>2020-05-13T22:40:49Z</time>
      </trkpt>
      <trkpt lat="43.05799" lon="-1.90169">
        <ele>593.923</ele>
        <time>2020-05-13T22:40:29Z</time>
      </trkpt>
      <trkpt lat="43.05771" lon="-1.90143">
        <ele>594.895</ele>
        <time>2020-05-13T22:40:09Z</time>
      </trkpt>
      <trkpt lat="43.05727" lon="-1.90105">
        <ele>601.057</ele>
        <time>2020-05-13T22:39:49Z</time>
      </trkpt>
      <trkpt lat="43.05721" lon="-1.90099">
        <ele>598.355</ele>
        <time>2020-05-13T22:39:29Z</time>
      </trkpt>
      <trkpt lat="43.05709" lon="-1.90089">
        <ele>600.149</ele>
        <time>2020-05-13T22:39:09Z</time>
      </trkpt>
      <trkpt lat="43.05704" lon="-1.90083">
        <ele>596.594</ele>
        <time>2020-05-13T22:38:49Z</time>
      </trkpt>
      <trkpt lat="43.05698" lon="-1.90077">
        <ele>596.661</ele>
        <time>2020-05-13T22:38:29Z</time>
      </trkpt>
      <trkpt lat="43.05688" lon="-1.90065">
        <ele>596.886</ele>
        <time>2020-05-13T22:38:09Z</time>
      </trkpt>
      <trkpt lat="43.05684" lon="-1.9006">
        <ele>596.808</ele>
        <time>2020-05-13T22:37:49Z</time>
      </trkpt>
      <trkpt lat="43.05681" lon="-1.90056">
        <ele>596.917</ele>
        <time>2020-05-13T22:37:29Z</time>
      </trkpt>
      <trkpt lat="43.05678" lon="-1.90051">
        <ele>596.989</ele>
        <time>2020-05-13T22:37:09Z</time>
      </trkpt>
      <trkpt lat="43.05675" lon="-1.90046">
        <ele>596.928</ele>
        <time>2020-05-13T22:36:49Z</time>
      </trkpt>
      <trkpt lat="43.05672" lon="-1.9004">
        <ele>597.372</ele>
        <time>2020-05-13T22:36:29Z</time>
      </trkpt>
      <trkpt lat="43.05668" lon="-1.90033">
        <ele>599.394</ele>
        <time>2020-05-13T22:36:09Z</time>
      </trkpt>
      <trkpt lat="43.05666" lon="-1.90028">
        <ele>599.346</ele>
        <time>2020-05-13T22:35:49Z</time>
      </trkpt>
      <trkpt lat="43.05664" lon="-1.90023">
        <ele>599.374</ele>
        <time>2020-05-13T22:35:29Z</time>
      </trkpt>
      <trkpt lat="43.05659" lon="-1.90008">
        <ele>599.678</ele>
        <time>2020-05-13T22:35:09Z</time>
      </trkpt>
      <trkpt lat="43.05658" lon="-1.90005">
        <ele>599.633</ele>
        <time>2020-05-13T22:34:49Z</time>
      </trkpt>
      <trkpt lat="43.05657" lon="-1.90001">
        <ele>599.66</ele>
        <time>2020-05-13T22:34:29Z</time>
      </trkpt>
      <trkpt lat="43.05653" lon="-1.89979">
        <ele>598.645</ele>
        <time>2020-05-13T22:34:09Z</time>
      </trkpt>
      <trkpt lat="43.05653" lon="-1.89978">
        <ele>598.608</ele>
        <time>2020-05-13T22:33:49Z</time>
      </trkpt>
      <trkpt lat="43.05651" lon="-1.89966">
        <ele>599.217</ele>
        <time>2020-05-13T22:33:29Z</time>
      </trkpt>
      <trkpt lat="43.0565" lon="-1.89963">
        <ele>599.298</ele>
        <time>2020-05-13T22:33:09Z</time>
      </trkpt>
      <trkpt lat="43.05649" lon="-1.89957">
        <ele>600.818</ele>
        <time>2020-05-13T22:32:49Z</time>
      </trkpt>
      <trkpt lat="43.05648" lon="-1.89947">
        <ele>602.216</ele>
        <time>2020-05-13T22:32:29Z</time>
      </trkpt>
      <trkpt lat="43.05647" lon="-1.89934">
        <ele>602.148</ele>
        <time>2020-05-13T22:32:09Z</time>
      </trkpt>
      <trkpt lat="43.05646" lon="-1.89916">
        <ele>600.73</ele>
        <time>2020-05-13T22:31:49Z</time>
      </trkpt>
      <trkpt lat="43.05645" lon="-1.89897">
        <ele>602.888</ele>
        <time>2020-05-13T22:31:29Z</time>
      </trkpt>
      <trkpt lat="43.05643" lon="-1.89854">
        <ele>605.092</ele>
        <time>2020-05-13T22:31:09Z</time>
      </trkpt>
      <trkpt lat="43.05642" lon="-1.89841">
        <ele>602.097</ele>
        <time>2020-05-13T22:30:49Z</time>
      </trkpt>
      <trkpt lat="43.05641" lon="-1.89827">
        <ele>605.414</ele>
        <time>2020-05-13T22:30:29Z</time>
      </trkpt>
      <trkpt lat="43.05636" lon="-1.89799">
        <ele>605.589</ele>
        <time>2020-05-13T22:30:09Z</time>
      </trkpt>
      <trkpt lat="43.05632" lon="-1.89782">
        <ele>604.308</ele>
        <time>2020-05-13T22:29:49Z</time>
      </trkpt>
      <trkpt lat="43.0563" lon="-1.89774">
        <ele>603.817</ele>
        <time>2020-05-13T22:29:29Z</time>
      </trkpt>
      <trkpt lat="43.05628" lon="-1.89766">
        <ele>603.807</ele>
        <time>2020-05-13T22:29:09Z</time>
      </trkpt>
      <trkpt lat="43.05627" lon="-1.89762">
        <ele>605.255</ele>
        <time>2020-05-13T22:28:49Z</time>
      </trkpt>
      <trkpt lat="43.05625" lon="-1.89759">
        <ele>605.256</ele>
        <time>2020-05-13T22:28:29Z</time>
      </trkpt>
      <trkpt lat="43.05624" lon="-1.89756">
        <ele>602.188</ele>
        <time>2020-05-13T22:28:09Z</time>
      </trkpt>
      <trkpt lat="43.05623" lon="-1.89752">
        <ele>602.11</ele>
        <time>2020-05-13T22:27:49Z</time>
      </trkpt>
      <trkpt lat="43.0562" lon="-1.89744">
        <ele>601.168</ele>
        <time>2020-05-13T22:27:29Z</time>
      </trkpt>
      <trkpt lat="43.05615" lon="-1.89739">
        <ele>600.492</ele>
        <time>2020-05-13T22:27:09Z</time>
      </trkpt>
      <trkpt lat="43.05604" lon="-1.89725">
        <ele>598.867</ele>
        <time>2020-05-13T22:26:49Z</time>
      </trkpt>
      <trkpt lat="43.05591" lon="-1.89714">
        <ele>598.454</ele>
        <time>2020-05-13T22:26:29Z</time>
      </trkpt>
      <trkpt lat="43.05589" lon="-1.89713">
        <ele>598.489</ele>
        <time>2020-05-13T22:26:09Z</time>
      </trkpt>
      <trkpt lat="43.05584" lon="-1.89709">
        <ele>598.008</ele>
        <time>2020-05-13T22:25:49Z</time>
      </trkpt>
      <trkpt lat="43.05577" lon="-1.89706">
        <ele>597.611</ele>
        <time>2020-05-13T22:25:29Z</time>
      </trkpt>
      <trkpt lat="43.05576" lon="-1.89705">
        <ele>597.601</ele>
        <time>2020-05-13T22:25:09Z</time>
      </trkpt>
      <trkpt lat="43.05572" lon="-1.89704">
        <ele>597.551</ele>
        <time>2020-05-13T22:24:49Z</time>
      </trkpt>
      <trkpt lat="43.05566" lon="-1.89702">
        <ele>597.624</ele>
        <time>2020-05-13T22:24:29Z</time>
      </trkpt>
      <trkpt lat="43.05564" lon="-1.89701">
        <ele>597.696</ele>
        <time>2020-05-13T22:24:09Z</time>
      </trkpt>
      <trkpt lat="43.05561" lon="-1.89701">
        <ele>598.228</ele>
        <time>2020-05-13T22:23:49Z</time>
      </trkpt>
      <trkpt lat="43.05555" lon="-1.897">
        <ele>598.286</ele>
        <time>2020-05-13T22:23:29Z</time>
      </trkpt>
      <trkpt lat="43.0555" lon="-1.897">
        <ele>599.07</ele>
        <time>2020-05-13T22:23:09Z</time>
      </trkpt>
      <trkpt lat="43.05545" lon="-1.897">
        <ele>599.095</ele>
        <time>2020-05-13T22:22:49Z</time>
      </trkpt>
      <trkpt lat="43.05544" lon="-1.897">
        <ele>599.082</ele>
        <time>2020-05-13T22:22:29Z</time>
      </trkpt>
      <trkpt lat="43.05541" lon="-1.897">
        <ele>600.277</ele>
        <time>2020-05-13T22:22:09Z</time>
      </trkpt>
      <trkpt lat="43.05535" lon="-1.89701">
        <ele>600.208</ele>
        <time>2020-05-13T22:21:49Z</time>
      </trkpt>
      <trkpt lat="43.0553" lon="-1.89702">
        <ele>603.311</ele>
        <time>2020-05-13T22:21:29Z</time>
      </trkpt>
      <trkpt lat="43.05521" lon="-1.89703">
        <ele>605.492</ele>
        <time>2020-05-13T22:21:09Z</time>
      </trkpt>
      <trkpt lat="43.05513" lon="-1.89705">
        <ele>604.032</ele>
        <time>2020-05-13T22:20:49Z</time>
      </trkpt>
      <trkpt lat="43.05501" lon="-1.89708">
        <ele>604.57</ele>
        <time>2020-05-13T22:20:29Z</time>
      </trkpt>
      <trkpt lat="43.05498" lon="-1.89708">
        <ele>604.572</ele>
        <time>2020-05-13T22:20:09Z</time>
      </trkpt>
      <trkpt lat="43.05496" lon="-1.89709">
        <ele>604.914</ele>
        <time>2020-05-13T22:19:49Z</time>
      </trkpt>
      <trkpt lat="43.05494" lon="-1.8971">
        <ele>604.982</ele>
        <time>2020-05-13T22:19:29Z</time>
      </trkpt>
      <trkpt lat="43.05492" lon="-1.89711">
        <ele>604.946</ele>
        <time>2020-05-13T22:19:09Z</time>
      </trkpt>
      <trkpt lat="43.05481" lon="-1.89717">
        <ele>605.381</ele>
        <time>2020-05-13T22:18:49Z</time>
      </trkpt>
      <trkpt lat="43.05479" lon="-1.89719">
        <ele>607.428</ele>
        <time>2020-05-13T22:18:29Z</time>
      </trkpt>
      <trkpt lat="43.05475" lon="-1.89722">
        <ele>607.473</ele>
        <time>2020-05-13T22:18:09Z</time>
      </trkpt>
      <trkpt lat="43.05473" lon="-1.89724">
        <ele>607.408</ele>
        <time>2020-05-13T22:17:49Z</time>
      </trkpt>
      <trkpt lat="43.05468" lon="-1.89729">
        <ele>606.521</ele>
        <time>2020-05-13T22:17:29Z</time>
      </trkpt>
      <trkpt lat="43.05461" lon="-1.89737">
        <ele>607.065</ele>
        <time>2020-05-13T22:17:09Z</time>
      </trkpt>
      <trkpt lat="43.05457" lon="-1.89741">
        <ele>607.093</ele>
        <time>2020-05-13T22:16:49Z</time>
      </trkpt>
      <trkpt lat="43.05457" lon="-1.89743">
        <ele>611.182</ele>
        <time>2020-05-13T22:16:29Z</time>
      </trkpt>
      <trkpt lat="43.05454" lon="-1.89747">
        <ele>611.134</ele>
        <time>2020-05-13T22:16:09Z</time>
      </trkpt>
      <trkpt lat="43.05453" lon="-1.8975">
        <ele>608.216</ele>
        <time>2020-05-13T22:15:49Z</time>
      </trkpt>
      <trkpt lat="43.05451" lon="-1.89755">
        <ele>608.154</ele>
        <time>2020-05-13T22:15:29Z</time>
      </trkpt>
      <trkpt lat="43.05449" lon="-1.89761">
        <ele>608.198</ele>
        <time>2020-05-13T22:15:09Z</time>
      </trkpt>
      <trkpt lat="43.05447" lon="-1.89765">
        <ele>608.183</ele>
        <time>2020-05-13T22:14:49Z</time>
      </trkpt>
      <trkpt lat="43.0544" lon="-1.89777">
        <ele>613.05</ele>
        <time>2020-05-13T22:14:29Z</time>
      </trkpt>
      <trkpt lat="43.05434" lon="-1.89796">
        <ele>629.485</ele>
        <time>2020-05-13T22:14:09Z</time>
      </trkpt>
      <trkpt lat="43.05433" lon="-1.89822">
        <ele>636.208</ele>
        <time>2020-05-13T22:13:49Z</time>
      </trkpt>
      <trkpt lat="43.05433" lon="-1.89865">
        <ele>637.603</ele>
        <time>2020-05-13T22:13:29Z</time>
      </trkpt>
      <trkpt lat="43.05436" lon="-1.89897">
        <ele>633.521</ele>
        <time>2020-05-13T22:13:09Z</time>
      </trkpt>
      <trkpt lat="43.05441" lon="-1.89918">
        <ele>619.311</ele>
        <time>2020-05-13T22:12:49Z</time>
      </trkpt>
      <trkpt lat="43.05444" lon="-1.89925">
        <ele>619.386</ele>
        <time>2020-05-13T22:12:29Z</time>
      </trkpt>
      <trkpt lat="43.05447" lon="-1.89933">
        <ele>612.698</ele>
        <time>2020-05-13T22:12:09Z</time>
      </trkpt>
      <trkpt lat="43.05453" lon="-1.89943">
        <ele>610.46</ele>
        <time>2020-05-13T22:11:49Z</time>
      </trkpt>
      <trkpt lat="43.05458" lon="-1.89952">
        <ele>610.738</ele>
        <time>2020-05-13T22:11:29Z</time>
      </trkpt>
      <trkpt lat="43.05462" lon="-1.8996">
        <ele>610.742</ele>
        <time>2020-05-13T22:11:09Z</time>
      </trkpt>
      <trkpt lat="43.05465" lon="-1.89968">
        <ele>613.067</ele>
        <time>2020-05-13T22:10:49Z</time>
      </trkpt>
      <trkpt lat="43.05468" lon="-1.89972">
        <ele>613.074</ele>
        <time>2020-05-13T22:10:29Z</time>
      </trkpt>
      <trkpt lat="43.0547" lon="-1.89977">
        <ele>621.949</ele>
        <time>2020-05-13T22:10:09Z</time>
      </trkpt>
      <trkpt lat="43.05474" lon="-1.89985">
        <ele>616.308</ele>
        <time>2020-05-13T22:09:49Z</time>
      </trkpt>
      <trkpt lat="43.05499" lon="-1.90031">
        <ele>623.311</ele>
        <time>2020-05-13T22:09:29Z</time>
      </trkpt>
      <trkpt lat="43.05511" lon="-1.9005">
        <ele>615.301</ele>
        <time>2020-05-13T22:09:09Z</time>
      </trkpt>
      <trkpt lat="43.0552" lon="-1.90066">
        <ele>613.551</ele>
        <time>2020-05-13T22:08:49Z</time>
      </trkpt>
      <trkpt lat="43.05544" lon="-1.90107">
        <ele>615.687</ele>
        <time>2020-05-13T22:08:29Z</time>
      </trkpt>
      <trkpt lat="43.05561" lon="-1.90137">
        <ele>615.589</ele>
        <time>2020-05-13T22:08:09Z</time>
      </trkpt>
      <trkpt lat="43.05568" lon="-1.90149">
        <ele>614.181</ele>
        <time>2020-05-13T22:07:49Z</time>
      </trkpt>
      <trkpt lat="43.05583" lon="-1.90174">
        <ele>618.669</ele>
        <time>2020-05-13T22:07:29Z</time>
      </trkpt>
      <trkpt lat="43.05601" lon="-1.90201">
        <ele>617.143</ele>
        <time>2020-05-13T22:07:09Z</time>
      </trkpt>
      <trkpt lat="43.05616" lon="-1.90226">
        <ele>615.548</ele>
        <time>2020-05-13T22:06:49Z</time>
      </trkpt>
      <trkpt lat="43.0562" lon="-1.90233">
        <ele>615.775</ele>
        <time>2020-05-13T22:06:29Z</time>
      </trkpt>
      <trkpt lat="43.05622" lon="-1.90236">
        <ele>615.71</ele>
        <time>2020-05-13T22:06:09Z</time>
      </trkpt>
      <trkpt lat="43.05625" lon="-1.90241">
        <ele>615.708</ele>
        <time>2020-05-13T22:05:49Z</time>
      </trkpt>
      <trkpt lat="43.05638" lon="-1.90262">
        <ele>621.916</ele>
        <time>2020-05-13T22:05:29Z</time>
      </trkpt>
      <trkpt lat="43.05649" lon="-1.90278">
        <ele>616.806</ele>
        <time>2020-05-13T22:05:09Z</time>
      </trkpt>
      <trkpt lat="43.05652" lon="-1.90283">
        <ele>617.164</ele>
        <time>2020-05-13T22:04:49Z</time>
      </trkpt>
      <trkpt lat="43.05653" lon="-1.90286">
        <ele>617.144</ele>
        <time>2020-05-13T22:04:29Z</time>
      </trkpt>
      <trkpt lat="43.05658" lon="-1.90295">
        <ele>617.396</ele>
        <time>2020-05-13T22:04:09Z</time>
      </trkpt>
      <trkpt lat="43.05663" lon="-1.90303">
        <ele>617.388</ele>
        <time>2020-05-13T22:03:49Z</time>
      </trkpt>
      <trkpt lat="43.05666" lon="-1.90308">
        <ele>617.466</ele>
        <time>2020-05-13T22:03:29Z</time>
      </trkpt>
      <trkpt lat="43.05673" lon="-1.90322">
        <ele>622.17</ele>
        <time>2020-05-13T22:03:09Z</time>
      </trkpt>
      <trkpt lat="43.05682" lon="-1.90338">
        <ele>620.615</ele>
        <time>2020-05-13T22:02:49Z</time>
      </trkpt>
      <trkpt lat="43.05687" lon="-1.90348">
        <ele>618.012</ele>
        <time>2020-05-13T22:02:29Z</time>
      </trkpt>
      <trkpt lat="43.05688" lon="-1.90351">
        <ele>618.067</ele>
        <time>2020-05-13T22:02:09Z</time>
      </trkpt>
      <trkpt lat="43.05691" lon="-1.90361">
        <ele>619.308</ele>
        <time>2020-05-13T22:01:49Z</time>
      </trkpt>
      <trkpt lat="43.05695" lon="-1.90372">
        <ele>618.317</ele>
        <time>2020-05-13T22:01:29Z</time>
      </trkpt>
      <trkpt lat="43.05697" lon="-1.90382">
        <ele>618.77</ele>
        <time>2020-05-13T22:01:09Z</time>
      </trkpt>
      <trkpt lat="43.057" lon="-1.90392">
        <ele>620.538</ele>
        <time>2020-05-13T22:00:49Z</time>
      </trkpt>
      <trkpt lat="43.05701" lon="-1.90396">
        <ele>620.568</ele>
        <time>2020-05-13T22:00:29Z</time>
      </trkpt>
      <trkpt lat="43.05702" lon="-1.904">
        <ele>620.58</ele>
        <time>2020-05-13T22:00:09Z</time>
      </trkpt>
      <trkpt lat="43.05703" lon="-1.90407">
        <ele>622.172</ele>
        <time>2020-05-13T21:59:49Z</time>
      </trkpt>
      <trkpt lat="43.05704" lon="-1.90413">
        <ele>618.66</ele>
        <time>2020-05-13T21:59:29Z</time>
      </trkpt>
      <trkpt lat="43.05704" lon="-1.90421">
        <ele>618.894</ele>
        <time>2020-05-13T21:59:09Z</time>
      </trkpt>
      <trkpt lat="43.05705" lon="-1.90426">
        <ele>618.829</ele>
        <time>2020-05-13T21:58:49Z</time>
      </trkpt>
      <trkpt lat="43.05705" lon="-1.9043">
        <ele>618.966</ele>
        <time>2020-05-13T21:58:29Z</time>
      </trkpt>
      <trkpt lat="43.05705" lon="-1.90434">
        <ele>618.981</ele>
        <time>2020-05-13T21:58:09Z</time>
      </trkpt>
      <trkpt lat="43.05705" lon="-1.90439">
        <ele>619.108</ele>
        <time>2020-05-13T21:57:49Z</time>
      </trkpt>
      <trkpt lat="43.05705" lon="-1.90457">
        <ele>619.327</ele>
        <time>2020-05-13T21:57:29Z</time>
      </trkpt>
      <trkpt lat="43.05704" lon="-1.90468">
        <ele>619.461</ele>
        <time>2020-05-13T21:57:09Z</time>
      </trkpt>
      <trkpt lat="43.05703" lon="-1.90478">
        <ele>621.877</ele>
        <time>2020-05-13T21:56:49Z</time>
      </trkpt>
      <trkpt lat="43.05702" lon="-1.90489">
        <ele>621.268</ele>
        <time>2020-05-13T21:56:29Z</time>
      </trkpt>
      <trkpt lat="43.05701" lon="-1.90494">
        <ele>621.27</ele>
        <time>2020-05-13T21:56:09Z</time>
      </trkpt>
      <trkpt lat="43.057" lon="-1.90499">
        <ele>621.252</ele>
        <time>2020-05-13T21:55:49Z</time>
      </trkpt>
      <trkpt lat="43.05697" lon="-1.9051">
        <ele>621.94</ele>
        <time>2020-05-13T21:55:29Z</time>
      </trkpt>
      <trkpt lat="43.05693" lon="-1.90521">
        <ele>625.464</ele>
        <time>2020-05-13T21:55:09Z</time>
      </trkpt>
      <trkpt lat="43.05692" lon="-1.90525">
        <ele>622.639</ele>
        <time>2020-05-13T21:54:49Z</time>
      </trkpt>
      <trkpt lat="43.0569" lon="-1.90529">
        <ele>622.666</ele>
        <time>2020-05-13T21:54:29Z</time>
      </trkpt>
      <trkpt lat="43.05687" lon="-1.90537">
        <ele>622.691</ele>
        <time>2020-05-13T21:54:09Z</time>
      </trkpt>
      <trkpt lat="43.05684" lon="-1.90544">
        <ele>622.408</ele>
        <time>2020-05-13T21:53:49Z</time>
      </trkpt>
      <trkpt lat="43.05682" lon="-1.90547">
        <ele>622.42</ele>
        <time>2020-05-13T21:53:29Z</time>
      </trkpt>
      <trkpt lat="43.05681" lon="-1.9055">
        <ele>621.628</ele>
        <time>2020-05-13T21:53:09Z</time>
      </trkpt>
      <trkpt lat="43.05676" lon="-1.90558">
        <ele>627.875</ele>
        <time>2020-05-13T21:52:49Z</time>
      </trkpt>
      <trkpt lat="43.05672" lon="-1.90566">
        <ele>623.018</ele>
        <time>2020-05-13T21:52:29Z</time>
      </trkpt>
      <trkpt lat="43.0567" lon="-1.90569">
        <ele>623.03</ele>
        <time>2020-05-13T21:52:09Z</time>
      </trkpt>
      <trkpt lat="43.05667" lon="-1.90573">
        <ele>631.972</ele>
        <time>2020-05-13T21:51:49Z</time>
      </trkpt>
      <trkpt lat="43.05666" lon="-1.90575">
        <ele>627.18</ele>
        <time>2020-05-13T21:51:29Z</time>
      </trkpt>
      <trkpt lat="43.05657" lon="-1.90586">
        <ele>627.554</ele>
        <time>2020-05-13T21:51:09Z</time>
      </trkpt>
      <trkpt lat="43.05648" lon="-1.90597">
        <ele>626.759</ele>
        <time>2020-05-13T21:50:49Z</time>
      </trkpt>
      <trkpt lat="43.05647" lon="-1.90598">
        <ele>626.786</ele>
        <time>2020-05-13T21:50:29Z</time>
      </trkpt>
      <trkpt lat="43.05643" lon="-1.90602">
        <ele>626.371</ele>
        <time>2020-05-13T21:50:09Z</time>
      </trkpt>
      <trkpt lat="43.05642" lon="-1.90603">
        <ele>622.908</ele>
        <time>2020-05-13T21:49:49Z</time>
      </trkpt>
      <trkpt lat="43.05635" lon="-1.90608">
        <ele>622.926</ele>
        <time>2020-05-13T21:49:29Z</time>
      </trkpt>
      <trkpt lat="43.05629" lon="-1.90613">
        <ele>622.633</ele>
        <time>2020-05-13T21:49:09Z</time>
      </trkpt>
      <trkpt lat="43.05622" lon="-1.90618">
        <ele>622.778</ele>
        <time>2020-05-13T21:48:49Z</time>
      </trkpt>
      <trkpt lat="43.05616" lon="-1.90621">
        <ele>622.714</ele>
        <time>2020-05-13T21:48:29Z</time>
      </trkpt>
      <trkpt lat="43.05611" lon="-1.90623">
        <ele>622.616</ele>
        <time>2020-05-13T21:48:09Z</time>
      </trkpt>
      <trkpt lat="43.05602" lon="-1.90627">
        <ele>622.718</ele>
        <time>2020-05-13T21:47:49Z</time>
      </trkpt>
      <trkpt lat="43.05599" lon="-1.90629">
        <ele>622.716</ele>
        <time>2020-05-13T21:47:29Z</time>
      </trkpt>
      <trkpt lat="43.05596" lon="-1.9063">
        <ele>622.95</ele>
        <time>2020-05-13T21:47:09Z</time>
      </trkpt>
      <trkpt lat="43.05586" lon="-1.90632">
        <ele>623.385</ele>
        <time>2020-05-13T21:46:49Z</time>
      </trkpt>
      <trkpt lat="43.05582" lon="-1.90633">
        <ele>623.322</ele>
        <time>2020-05-13T21:46:29Z</time>
      </trkpt>
      <trkpt lat="43.05568" lon="-1.90632">
        <ele>623.767</ele>
        <time>2020-05-13T21:46:09Z</time>
      </trkpt>
      <trkpt lat="43.05551" lon="-1.90632">
        <ele>624.108</ele>
        <time>2020-05-13T21:45:49Z</time>
      </trkpt>
      <trkpt lat="43.05527" lon="-1.90632">
        <ele>627.211</ele>
        <time>2020-05-13T21:45:29Z</time>
      </trkpt>
      <trkpt lat="43.05515" lon="-1.90632">
        <ele>633.792</ele>
        <time>2020-05-13T21:45:09Z</time>
      </trkpt>
      <trkpt lat="43.05445" lon="-1.90628">
        <ele>663.732</ele>
        <time>2020-05-13T21:44:49Z</time>
      </trkpt>
      <trkpt lat="43.05408" lon="-1.90626">
        <ele>672.43</ele>
        <time>2020-05-13T21:44:29Z</time>
      </trkpt>
      <trkpt lat="43.05267" lon="-1.90618">
        <ele>689.622</ele>
        <time>2020-05-13T21:44:09Z</time>
      </trkpt>
      <trkpt lat="43.05096" lon="-1.90609">
        <ele>711.494</ele>
        <time>2020-05-13T21:43:49Z</time>
      </trkpt>
      <trkpt lat="43.04927" lon="-1.90601">
        <ele>775.022</ele>
        <time>2020-05-13T21:43:29Z</time>
      </trkpt>
      <trkpt lat="43.04772" lon="-1.90592">
        <ele>807.916</ele>
        <time>2020-05-13T21:43:09Z</time>
      </trkpt>
      <trkpt lat="43.04654" lon="-1.90586">
        <ele>860.071</ele>
        <time>2020-05-13T21:42:49Z</time>
      </trkpt>
      <trkpt lat="43.04555" lon="-1.9058">
        <ele>856.428</ele>
        <time>2020-05-13T21:42:29Z</time>
      </trkpt>
      <trkpt lat="43.04437" lon="-1.90574">
        <ele>848.253</ele>
        <time>2020-05-13T21:42:09Z</time>
      </trkpt>
      <trkpt lat="43.04251" lon="-1.90564">
        <ele>824.308</ele>
        <time>2020-05-13T21:41:49Z</time>
      </trkpt>
      <trkpt lat="43.04213" lon="-1.90562">
        <ele>819.123</ele>
        <time>2020-05-13T21:41:29Z</time>
      </trkpt>
      <trkpt lat="43.04171" lon="-1.9056">
        <ele>796.849</ele>
        <time>2020-05-13T21:41:09Z</time>
      </trkpt>
      <trkpt lat="43.04124" lon="-1.90557">
        <ele>778.295</ele>
        <time>2020-05-13T21:40:49Z</time>
      </trkpt>
      <trkpt lat="43.04049" lon="-1.90553">
        <ele>760.588</ele>
        <time>2020-05-13T21:40:29Z</time>
      </trkpt>
      <trkpt lat="43.03886" lon="-1.90544">
        <ele>717.96</ele>
        <time>2020-05-13T21:40:09Z</time>
      </trkpt>
      <trkpt lat="43.03677" lon="-1.90534">
        <ele>729.182</ele>
        <time>2020-05-13T21:39:49Z</time>
      </trkpt>
      <trkpt lat="43.03509" lon="-1.90524">
        <ele>706.71</ele>
        <time>2020-05-13T21:39:29Z</time>
      </trkpt>
      <trkpt lat="43.03343" lon="-1.90515">
        <ele>716.674</ele>
        <time>2020-05-13T21:39:09Z</time>
      </trkpt>
      <trkpt lat="43.03151" lon="-1.90505">
        <ele>659.599</ele>
        <time>2020-05-13T21:38:49Z</time>
      </trkpt>
      <trkpt lat="43.03125" lon="-1.90506">
        <ele>654.256</ele>
        <time>2020-05-13T21:38:29Z</time>
      </trkpt>
      <trkpt lat="43.03125" lon="-1.90507">
        <ele>654.241</ele>
        <time>2020-05-13T21:38:09Z</time>
      </trkpt>
      <trkpt lat="43.03124" lon="-1.90509">
        <ele>653.608</ele>
        <time>2020-05-13T21:37:49Z</time>
      </trkpt>
      <trkpt lat="43.03119" lon="-1.90518">
        <ele>653.427</ele>
        <time>2020-05-13T21:37:29Z</time>
      </trkpt>
      <trkpt lat="43.03112" lon="-1.90533">
        <ele>653.761</ele>
        <time>2020-05-13T21:37:09Z</time>
      </trkpt>
      <trkpt lat="43.03107" lon="-1.90531">
        <ele>653.777</ele>
        <time>2020-05-13T21:36:49Z</time>
      </trkpt>
      <trkpt lat="43.031" lon="-1.90529">
        <ele>653.645</ele>
        <time>2020-05-13T21:36:29Z</time>
      </trkpt>
      <trkpt lat="43.03096" lon="-1.90529">
        <ele>653.667</ele>
        <time>2020-05-13T21:36:09Z</time>
      </trkpt>
      <trkpt lat="43.03093" lon="-1.90529">
        <ele>653.689</ele>
        <time>2020-05-13T21:35:49Z</time>
      </trkpt>
      <trkpt lat="43.03087" lon="-1.9053">
        <ele>653.737</ele>
        <time>2020-05-13T21:35:29Z</time>
      </trkpt>
      <trkpt lat="43.0308" lon="-1.90532">
        <ele>653.781</ele>
        <time>2020-05-13T21:35:09Z</time>
      </trkpt>
      <trkpt lat="43.03073" lon="-1.90536">
        <ele>653.566</ele>
        <time>2020-05-13T21:34:49Z</time>
      </trkpt>
      <trkpt lat="43.03057" lon="-1.90548">
        <ele>653.373</ele>
        <time>2020-05-13T21:34:29Z</time>
      </trkpt>
      <trkpt lat="43.03031" lon="-1.90567">
        <ele>653.558</ele>
        <time>2020-05-13T21:34:09Z</time>
      </trkpt>
      <trkpt lat="43.03011" lon="-1.90583">
        <ele>653.808</ele>
        <time>2020-05-13T21:33:49Z</time>
      </trkpt>
      <trkpt lat="43.02997" lon="-1.90594">
        <ele>653.615</ele>
        <time>2020-05-13T21:33:29Z</time>
      </trkpt>
      <trkpt lat="43.02957" lon="-1.90624">
        <ele>653.305</ele>
        <time>2020-05-13T21:33:09Z</time>
      </trkpt>
      <trkpt lat="43.02945" lon="-1.90631">
        <ele>653.244</ele>
        <time>2020-05-13T21:32:49Z</time>
      </trkpt>
      <trkpt lat="43.02935" lon="-1.90636">
        <ele>653.399</ele>
        <time>2020-05-13T21:32:29Z</time>
      </trkpt>
      <trkpt lat="43.02922" lon="-1.90641">
        <ele>653.251</ele>
        <time>2020-05-13T21:32:09Z</time>
      </trkpt>
      <trkpt lat="43.02913" lon="-1.90642">
        <ele>653.373</ele>
        <time>2020-05-13T21:31:49Z</time>
      </trkpt>
      <trkpt lat="43.02903" lon="-1.90642">
        <ele>653.211</ele>
        <time>2020-05-13T21:31:29Z</time>
      </trkpt>
      <trkpt lat="43.0289" lon="-1.9064">
        <ele>653.155</ele>
        <time>2020-05-13T21:31:09Z</time>
      </trkpt>
      <trkpt lat="43.02868" lon="-1.90639">
        <ele>652.97</ele>
        <time>2020-05-13T21:30:49Z</time>
      </trkpt>
      <trkpt lat="43.02858" lon="-1.90639">
        <ele>652.897</ele>
        <time>2020-05-13T21:30:29Z</time>
      </trkpt>
      <trkpt lat="43.02856" lon="-1.90634">
        <ele>654.112</ele>
        <time>2020-05-13T21:30:09Z</time>
      </trkpt>
      <trkpt lat="43.02856" lon="-1.90632">
        <ele>654.108</ele>
        <time>2020-05-13T21:29:49Z</time>
      </trkpt>
      <trkpt lat="43.02853" lon="-1.90629">
        <ele>654.126</ele>
        <time>2020-05-13T21:29:29Z</time>
      </trkpt>
      <trkpt lat="43.0285" lon="-1.90627">
        <ele>654.124</ele>
        <time>2020-05-13T21:29:09Z</time>
      </trkpt>
      <trkpt lat="43.02848" lon="-1.90626">
        <ele>653.088</ele>
        <time>2020-05-13T21:28:49Z</time>
      </trkpt>
      <trkpt lat="43.02842" lon="-1.90627">
        <ele>653.053</ele>
        <time>2020-05-13T21:28:29Z</time>
      </trkpt>
      <trkpt lat="43.02838" lon="-1.90628">
        <ele>652.985</ele>
        <time>2020-05-13T21:28:09Z</time>
      </trkpt>
      <trkpt lat="43.02831" lon="-1.90629">
        <ele>652.827</ele>
        <time>2020-05-13T21:27:49Z</time>
      </trkpt>
      <trkpt lat="43.02824" lon="-1.90631">
        <ele>652.845</ele>
        <time>2020-05-13T21:27:29Z</time>
      </trkpt>
      <trkpt lat="43.02816" lon="-1.90632">
        <ele>652.679</ele>
        <time>2020-05-13T21:27:09Z</time>
      </trkpt>
      <trkpt lat="43.02803" lon="-1.90634">
        <ele>652.564</ele>
        <time>2020-05-13T21:26:49Z</time>
      </trkpt>
      <trkpt lat="43.02796" lon="-1.90636">
        <ele>652.781</ele>
        <time>2020-05-13T21:26:29Z</time>
      </trkpt>
      <trkpt lat="43.02792" lon="-1.90637">
        <ele>652.746</ele>
        <time>2020-05-13T21:26:09Z</time>
      </trkpt>
      <trkpt lat="43.0279" lon="-1.90637">
        <ele>652.708</ele>
        <time>2020-05-13T21:25:49Z</time>
      </trkpt>
      <trkpt lat="43.02788" lon="-1.90638">
        <ele>652.408</ele>
        <time>2020-05-13T21:25:29Z</time>
      </trkpt>
      <trkpt lat="43.02783" lon="-1.9064">
        <ele>652.326</ele>
        <time>2020-05-13T21:25:09Z</time>
      </trkpt>
      <trkpt lat="43.02779" lon="-1.90642">
        <ele>652.325</ele>
        <time>2020-05-13T21:24:49Z</time>
      </trkpt>
      <trkpt lat="43.02775" lon="-1.90643">
        <ele>652.196</ele>
        <time>2020-05-13T21:24:29Z</time>
      </trkpt>
      <trkpt lat="43.02771" lon="-1.90645">
        <ele>652.128</ele>
        <time>2020-05-13T21:24:09Z</time>
      </trkpt>
      <trkpt lat="43.02768" lon="-1.90646">
        <ele>652.15</ele>
        <time>2020-05-13T21:23:49Z</time>
      </trkpt>
      <trkpt lat="43.02765" lon="-1.90648">
        <ele>652.188</ele>
        <time>2020-05-13T21:23:29Z</time>
      </trkpt>
      <trkpt lat="43.02764" lon="-1.90649">
        <ele>652.172</ele>
        <time>2020-05-13T21:23:09Z</time>
      </trkpt>
      <trkpt lat="43.02758" lon="-1.90654">
        <ele>652.087</ele>
        <time>2020-05-13T21:22:49Z</time>
      </trkpt>
      <trkpt lat="43.02753" lon="-1.90659">
        <ele>652.084</ele>
        <time>2020-05-13T21:22:29Z</time>
      </trkpt>
      <trkpt lat="43.02744" lon="-1.90666">
        <ele>651.959</ele>
        <time>2020-05-13T21:22:09Z</time>
      </trkpt>
      <trkpt lat="43.02736" lon="-1.90674">
        <ele>651.508</ele>
        <time>2020-05-13T21:21:49Z</time>
      </trkpt>
      <trkpt lat="43.02734" lon="-1.90676">
        <ele>651.608</ele>
        <time>2020-05-13T21:21:29Z</time>
      </trkpt>
      <trkpt lat="43.02732" lon="-1.90678">
        <ele>651.453</ele>
        <time>2020-05-13T21:21:09Z</time>
      </trkpt>
      <trkpt lat="43.02727" lon="-1.90684">
        <ele>651.452</ele>
        <time>2020-05-13T21:20:49Z</time>
      </trkpt>
      <trkpt lat="43.02722" lon="-1.90691">
        <ele>651.162</ele>
        <time>2020-05-13T21:20:29Z</time>
      </trkpt>
      <trkpt lat="43.02716" lon="-1.907">
        <ele>651.214</ele>
        <time>2020-05-13T21:20:09Z</time>
      </trkpt>
      <trkpt lat="43.02709" lon="-1.90709">
        <ele>651.026</ele>
        <time>2020-05-13T21:19:49Z</time>
      </trkpt>
      <trkpt lat="43.02704" lon="-1.90717">
        <ele>650.574</ele>
        <time>2020-05-13T21:19:29Z</time>
      </trkpt>
      <trkpt lat="43.02702" lon="-1.90721">
        <ele>650.598</ele>
        <time>2020-05-13T21:19:09Z</time>
      </trkpt>
      <trkpt lat="43.02691" lon="-1.90741">
        <ele>649.813</ele>
        <time>2020-05-13T21:18:49Z</time>
      </trkpt>
      <trkpt lat="43.02682" lon="-1.90755">
        <ele>649.47</ele>
        <time>2020-05-13T21:18:29Z</time>
      </trkpt>
      <trkpt lat="43.02681" lon="-1.90757">
        <ele>649.445</ele>
        <time>2020-05-13T21:18:09Z</time>
      </trkpt>
      <trkpt lat="43.02679" lon="-1.90759">
        <ele>648.608</ele>
        <time>2020-05-13T21:17:49Z</time>
      </trkpt>
      <trkpt lat="43.02673" lon="-1.90768">
        <ele>649.115</ele>
        <time>2020-05-13T21:17:29Z</time>
      </trkpt>
      <trkpt lat="43.02657" lon="-1.90789">
        <ele>647.887</ele>
        <time>2020-05-13T21:17:09Z</time>
      </trkpt>
      <trkpt lat="43.02654" lon="-1.90793">
        <ele>647.817</ele>
        <time>2020-05-13T21:16:49Z</time>
      </trkpt>
      <trkpt lat="43.02648" lon="-1.90798">
        <ele>648.836</ele>
        <time>2020-05-13T21:16:29Z</time>
      </trkpt>
      <trkpt lat="43.0264" lon="-1.90804">
        <ele>647.468</ele>
        <time>2020-05-13T21:16:09Z</time>
      </trkpt>
      <trkpt lat="43.02636" lon="-1.90807">
        <ele>647.43</ele>
        <time>2020-05-13T21:15:49Z</time>
      </trkpt>
      <trkpt lat="43.02632" lon="-1.90809">
        <ele>648.558</ele>
        <time>2020-05-13T21:15:29Z</time>
      </trkpt>
      <trkpt lat="43.02631" lon="-1.9081">
        <ele>648.532</ele>
        <time>2020-05-13T21:15:09Z</time>
      </trkpt>
      <trkpt lat="43.02629" lon="-1.90811">
        <ele>648.577</ele>
        <time>2020-05-13T21:14:49Z</time>
      </trkpt>
      <trkpt lat="43.02623" lon="-1.90814">
        <ele>646.764</ele>
        <time>2020-05-13T21:14:29Z</time>
      </trkpt>
      <trkpt lat="43.02616" lon="-1.90817">
        <ele>646.639</ele>
        <time>2020-05-13T21:14:09Z</time>
      </trkpt>
      <trkpt lat="43.02615" lon="-1.90817">
        <ele>646.608</ele>
        <time>2020-05-13T21:13:49Z</time>
      </trkpt>
      <trkpt lat="43.02611" lon="-1.90819">
        <ele>646.611</ele>
        <time>2020-05-13T21:13:29Z</time>
      </trkpt>
      <trkpt lat="43.02609" lon="-1.9082">
        <ele>646.601</ele>
        <time>2020-05-13T21:13:09Z</time>
      </trkpt>
      <trkpt lat="43.02606" lon="-1.90821">
        <ele>646.851</ele>
        <time>2020-05-13T21:12:49Z</time>
      </trkpt>
      <trkpt lat="43.02603" lon="-1.90822">
        <ele>646.826</ele>
        <time>2020-05-13T21:12:29Z</time>
      </trkpt>
      <trkpt lat="43.02592" lon="-1.90825">
        <ele>647.328</ele>
        <time>2020-05-13T21:12:09Z</time>
      </trkpt>
      <trkpt lat="43.02581" lon="-1.90828">
        <ele>647.02</ele>
        <time>2020-05-13T21:11:49Z</time>
      </trkpt>
      <trkpt lat="43.02559" lon="-1.90835">
        <ele>646.578</ele>
        <time>2020-05-13T21:11:29Z</time>
      </trkpt>
      <trkpt lat="43.02555" lon="-1.90837">
        <ele>645.972</ele>
        <time>2020-05-13T21:11:09Z</time>
      </trkpt>
      <trkpt lat="43.0255" lon="-1.90839">
        <ele>646.067</ele>
        <time>2020-05-13T21:10:49Z</time>
      </trkpt>
      <trkpt lat="43.02539" lon="-1.90845">
        <ele>645.514</ele>
        <time>2020-05-13T21:10:29Z</time>
      </trkpt>
      <trkpt lat="43.02527" lon="-1.90851">
        <ele>644.739</ele>
        <time>2020-05-13T21:10:09Z</time>
      </trkpt>
      <trkpt lat="43.02516" lon="-1.90856">
        <ele>644.608</ele>
        <time>2020-05-13T21:09:49Z</time>
      </trkpt>
      <trkpt lat="43.02505" lon="-1.9086">
        <ele>644.614</ele>
        <time>2020-05-13T21:09:29Z</time>
      </trkpt>
      <trkpt lat="43.02497" lon="-1.90865">
        <ele>644.259</ele>
        <time>2020-05-13T21:09:09Z</time>
      </trkpt>
      <trkpt lat="43.02489" lon="-1.90869">
        <ele>644.556</ele>
        <time>2020-05-13T21:08:49Z</time>
      </trkpt>
      <trkpt lat="43.02483" lon="-1.90871">
        <ele>648.757</ele>
        <time>2020-05-13T21:08:29Z</time>
      </trkpt>
      <trkpt lat="43.02476" lon="-1.90874">
        <ele>648.769</ele>
        <time>2020-05-13T21:08:09Z</time>
      </trkpt>
      <trkpt lat="43.02464" lon="-1.90877">
        <ele>644.571</ele>
        <time>2020-05-13T21:07:49Z</time>
      </trkpt>
      <trkpt lat="43.02455" lon="-1.90879">
        <ele>644.449</ele>
        <time>2020-05-13T21:07:29Z</time>
      </trkpt>
      <trkpt lat="43.02451" lon="-1.9088">
        <ele>644.433</ele>
        <time>2020-05-13T21:07:09Z</time>
      </trkpt>
      <trkpt lat="43.02446" lon="-1.90881">
        <ele>644.488</ele>
        <time>2020-05-13T21:06:49Z</time>
      </trkpt>
      <trkpt lat="43.02436" lon="-1.90881">
        <ele>644.285</ele>
        <time>2020-05-13T21:06:29Z</time>
      </trkpt>
      <trkpt lat="43.02422" lon="-1.9088">
        <ele>643.93</ele>
        <time>2020-05-13T21:06:09Z</time>
      </trkpt>
      <trkpt lat="43.02416" lon="-1.90879">
        <ele>644.208</ele>
        <time>2020-05-13T21:05:49Z</time>
      </trkpt>
      <trkpt lat="43.02409" lon="-1.90878">
        <ele>643.518</ele>
        <time>2020-05-13T21:05:29Z</time>
      </trkpt>
      <trkpt lat="43.02405" lon="-1.90877">
        <ele>650.044</ele>
        <time>2020-05-13T21:05:09Z</time>
      </trkpt>
      <trkpt lat="43.02401" lon="-1.90876">
        <ele>648.263</ele>
        <time>2020-05-13T21:04:49Z</time>
      </trkpt>
      <trkpt lat="43.02392" lon="-1.90873">
        <ele>644.265</ele>
        <time>2020-05-13T21:04:29Z</time>
      </trkpt>
      <trkpt lat="43.02388" lon="-1.9087">
        <ele>644.267</ele>
        <time>2020-05-13T21:04:09Z</time>
      </trkpt>
      <trkpt lat="43.02382" lon="-1.90867">
        <ele>642.189</ele>
        <time>2020-05-13T21:03:49Z</time>
      </trkpt>
      <trkpt lat="43.02373" lon="-1.90861">
        <ele>643.737</ele>
        <time>2020-05-13T21:03:29Z</time>
      </trkpt>
      <trkpt lat="43.02366" lon="-1.90856">
        <ele>643.761</ele>
        <time>2020-05-13T21:03:09Z</time>
      </trkpt>
      <trkpt lat="43.0236" lon="-1.9085">
        <ele>644.956</ele>
        <time>2020-05-13T21:02:49Z</time>
      </trkpt>
      <trkpt lat="43.02354" lon="-1.90845">
        <ele>641.833</ele>
        <time>2020-05-13T21:02:29Z</time>
      </trkpt>
      <trkpt lat="43.02345" lon="-1.90836">
        <ele>643.618</ele>
        <time>2020-05-13T21:02:09Z</time>
      </trkpt>
      <trkpt lat="43.0234" lon="-1.90831">
        <ele>643.608</ele>
        <time>2020-05-13T21:01:49Z</time>
      </trkpt>
      <trkpt lat="43.02339" lon="-1.90829">
        <ele>642.516</ele>
        <time>2020-05-13T21:01:29Z</time>
      </trkpt>
      <trkpt lat="43.02337" lon="-1.90825">
        <ele>642.588</ele>
        <time>2020-05-13T21:01:09Z</time>
      </trkpt>
      <trkpt lat="43.02335" lon="-1.90823">
        <ele>642.546</ele>
        <time>2020-05-13T21:00:49Z</time>
      </trkpt>
      <trkpt lat="43.02323" lon="-1.90804">
        <ele>647.836</ele>
        <time>2020-05-13T21:00:29Z</time>
      </trkpt>
      <trkpt lat="43.02314" lon="-1.9079">
        <ele>646.388</ele>
        <time>2020-05-13T21:00:09Z</time>
      </trkpt>
      <trkpt lat="43.02309" lon="-1.90783">
        <ele>640.71</ele>
        <time>2020-05-13T20:59:49Z</time>
      </trkpt>
      <trkpt lat="43.02305" lon="-1.90776">
        <ele>645.488</ele>
        <time>2020-05-13T20:59:29Z</time>
      </trkpt>
      <trkpt lat="43.02302" lon="-1.90771">
        <ele>640.042</ele>
        <time>2020-05-13T20:59:09Z</time>
      </trkpt>
      <trkpt lat="43.02299" lon="-1.90767">
        <ele>644.947</ele>
        <time>2020-05-13T20:58:49Z</time>
      </trkpt>
      <trkpt lat="43.0229" lon="-1.90751">
        <ele>640.964</ele>
        <time>2020-05-13T20:58:29Z</time>
      </trkpt>
      <trkpt lat="43.02278" lon="-1.90727">
        <ele>641.249</ele>
        <time>2020-05-13T20:58:09Z</time>
      </trkpt>
      <trkpt lat="43.02277" lon="-1.90724">
        <ele>641.208</ele>
        <time>2020-05-13T20:57:49Z</time>
      </trkpt>
      <trkpt lat="43.02275" lon="-1.90722">
        <ele>641.214</ele>
        <time>2020-05-13T20:57:29Z</time>
      </trkpt>
      <trkpt lat="43.02273" lon="-1.90719">
        <ele>640.904</ele>
        <time>2020-05-13T20:57:09Z</time>
      </trkpt>
      <trkpt lat="43.02257" lon="-1.90702">
        <ele>642.653</ele>
        <time>2020-05-13T20:56:49Z</time>
      </trkpt>
      <trkpt lat="43.02239" lon="-1.90684">
        <ele>647.09</ele>
        <time>2020-05-13T20:56:29Z</time>
      </trkpt>
      <trkpt lat="43.02233" lon="-1.90677">
        <ele>642.542</ele>
        <time>2020-05-13T20:56:09Z</time>
      </trkpt>
      <trkpt lat="43.02229" lon="-1.90672">
        <ele>642.424</ele>
        <time>2020-05-13T20:55:49Z</time>
      </trkpt>
      <trkpt lat="43.02227" lon="-1.9067">
        <ele>642.452</ele>
        <time>2020-05-13T20:55:29Z</time>
      </trkpt>
      <trkpt lat="43.02226" lon="-1.90668">
        <ele>642.416</ele>
        <time>2020-05-13T20:55:09Z</time>
      </trkpt>
      <trkpt lat="43.02222" lon="-1.90662">
        <ele>642.431</ele>
        <time>2020-05-13T20:54:49Z</time>
      </trkpt>
      <trkpt lat="43.02218" lon="-1.90656">
        <ele>641.058</ele>
        <time>2020-05-13T20:54:29Z</time>
      </trkpt>
      <trkpt lat="43.022" lon="-1.9063">
        <ele>639.163</ele>
        <time>2020-05-13T20:54:09Z</time>
      </trkpt>
      <trkpt lat="43.02186" lon="-1.90609">
        <ele>644.608</ele>
        <time>2020-05-13T20:53:49Z</time>
      </trkpt>
      <trkpt lat="43.0218" lon="-1.90599">
        <ele>643.923</ele>
        <time>2020-05-13T20:53:29Z</time>
      </trkpt>
      <trkpt lat="43.02175" lon="-1.9059">
        <ele>643.949</ele>
        <time>2020-05-13T20:53:09Z</time>
      </trkpt>
      <trkpt lat="43.02173" lon="-1.90588">
        <ele>635.795</ele>
        <time>2020-05-13T20:52:49Z</time>
      </trkpt>
      <trkpt lat="43.02171" lon="-1.90585">
        <ele>638.587</ele>
        <time>2020-05-13T20:52:29Z</time>
      </trkpt>
      <trkpt lat="43.02168" lon="-1.90583">
        <ele>638.579</ele>
        <time>2020-05-13T20:52:09Z</time>
      </trkpt>
      <trkpt lat="43.02168" lon="-1.90582">
        <ele>638.541</ele>
        <time>2020-05-13T20:51:49Z</time>
      </trkpt>
      <trkpt lat="43.0216" lon="-1.90575">
        <ele>635.449</ele>
        <time>2020-05-13T20:51:29Z</time>
      </trkpt>
      <trkpt lat="43.02156" lon="-1.90571">
        <ele>638.493</ele>
        <time>2020-05-13T20:51:09Z</time>
      </trkpt>
      <trkpt lat="43.02151" lon="-1.90567">
        <ele>638.488</ele>
        <time>2020-05-13T20:50:49Z</time>
      </trkpt>
      <trkpt lat="43.0215" lon="-1.90565">
        <ele>638.475</ele>
        <time>2020-05-13T20:50:29Z</time>
      </trkpt>
      <trkpt lat="43.02148" lon="-1.90564">
        <ele>638.45</ele>
        <time>2020-05-13T20:50:09Z</time>
      </trkpt>
      <trkpt lat="43.02146" lon="-1.90563">
        <ele>644.208</ele>
        <time>2020-05-13T20:49:49Z</time>
      </trkpt>
      <trkpt lat="43.02137" lon="-1.90558">
        <ele>638.821</ele>
        <time>2020-05-13T20:49:29Z</time>
      </trkpt>
      <trkpt lat="43.02125" lon="-1.90552">
        <ele>634.729</ele>
        <time>2020-05-13T20:49:09Z</time>
      </trkpt>
      <trkpt lat="43.02103" lon="-1.90543">
        <ele>634.866</ele>
        <time>2020-05-13T20:48:49Z</time>
      </trkpt>
      <trkpt lat="43.02091" lon="-1.90537">
        <ele>638.675</ele>
        <time>2020-05-13T20:48:29Z</time>
      </trkpt>
      <trkpt lat="43.02087" lon="-1.90536">
        <ele>638.617</ele>
        <time>2020-05-13T20:48:09Z</time>
      </trkpt>
      <trkpt lat="43.02087" lon="-1.90536">
        <ele>638.699</ele>
        <time>2020-05-13T20:47:49Z</time>
      </trkpt>
      <trkpt lat="43.02085" lon="-1.90534">
        <ele>638.657</ele>
        <time>2020-05-13T20:47:29Z</time>
      </trkpt>
      <trkpt lat="43.0208" lon="-1.90532">
        <ele>633.971</ele>
        <time>2020-05-13T20:47:09Z</time>
      </trkpt>
      <trkpt lat="43.02076" lon="-1.9053">
        <ele>633.946</ele>
        <time>2020-05-13T20:46:49Z</time>
      </trkpt>
      <trkpt lat="43.02069" lon="-1.90528">
        <ele>633.273</ele>
        <time>2020-05-13T20:46:29Z</time>
      </trkpt>
      <trkpt lat="43.02048" lon="-1.90522">
        <ele>637.868</ele>
        <time>2020-05-13T20:46:09Z</time>
      </trkpt>
      <trkpt lat="43.02037" lon="-1.90518">
        <ele>632.408</ele>
        <time>2020-05-13T20:45:49Z</time>
      </trkpt>
      <trkpt lat="43.02029" lon="-1.90516">
        <ele>631.115</ele>
        <time>2020-05-13T20:45:29Z</time>
      </trkpt>
      <trkpt lat="43.02026" lon="-1.90515">
        <ele>643.105</ele>
        <time>2020-05-13T20:45:09Z</time>
      </trkpt>
      <trkpt lat="43.02024" lon="-1.90514">
        <ele>643.144</ele>
        <time>2020-05-13T20:44:49Z</time>
      </trkpt>
      <trkpt lat="43.02021" lon="-1.90513">
        <ele>643.119</ele>
        <time>2020-05-13T20:44:29Z</time>
      </trkpt>
      <trkpt lat="43.0202" lon="-1.90512">
        <ele>632.351</ele>
        <time>2020-05-13T20:44:09Z</time>
      </trkpt>
      <trkpt lat="43.02013" lon="-1.90507">
        <ele>632.393</ele>
        <time>2020-05-13T20:43:49Z</time>
      </trkpt>
      <trkpt lat="43.0201" lon="-1.90504">
        <ele>647.651</ele>
        <time>2020-05-13T20:43:29Z</time>
      </trkpt>
      <trkpt lat="43.02007" lon="-1.905">
        <ele>647.625</ele>
        <time>2020-05-13T20:43:09Z</time>
      </trkpt>
      <trkpt lat="43.02001" lon="-1.90492">
        <ele>651.21</ele>
        <time>2020-05-13T20:42:49Z</time>
      </trkpt>
      <trkpt lat="43.01997" lon="-1.90488">
        <ele>651.277</ele>
        <time>2020-05-13T20:42:29Z</time>
      </trkpt>
      <trkpt lat="43.01994" lon="-1.90483">
        <ele>651.282</ele>
        <time>2020-05-13T20:42:09Z</time>
      </trkpt>
      <trkpt lat="43.01985" lon="-1.90472">
        <ele>647.108</ele>
        <time>2020-05-13T20:41:49Z</time>
      </trkpt>
      <trkpt lat="43.01975" lon="-1.90462">
        <ele>635.817</ele>
        <time>2020-05-13T20:41:29Z</time>
      </trkpt>
      <trkpt lat="43.01973" lon="-1.90459">
        <ele>631.061</ele>
        <time>2020-05-13T20:41:09Z</time>
      </trkpt>
      <trkpt lat="43.0197" lon="-1.90455">
        <ele>632.481</ele>
        <time>2020-05-13T20:40:49Z</time>
      </trkpt>
      <trkpt lat="43.01968" lon="-1.90452">
        <ele>632.426</ele>
        <time>2020-05-13T20:40:29Z</time>
      </trkpt>
      <trkpt lat="43.01965" lon="-1.90449">
        <ele>630.788</ele>
        <time>2020-05-13T20:40:09Z</time>
      </trkpt>
      <trkpt lat="43.01963" lon="-1.90447">
        <ele>630.72</ele>
        <time>2020-05-13T20:39:49Z</time>
      </trkpt>
      <trkpt lat="43.01961" lon="-1.90444">
        <ele>630.748</ele>
        <time>2020-05-13T20:39:29Z</time>
      </trkpt>
      <trkpt lat="43.01958" lon="-1.90442">
        <ele>638.452</ele>
        <time>2020-05-13T20:39:09Z</time>
      </trkpt>
      <trkpt lat="43.01956" lon="-1.9044">
        <ele>631.857</ele>
        <time>2020-05-13T20:38:49Z</time>
      </trkpt>
      <trkpt lat="43.01953" lon="-1.90438">
        <ele>631.844</ele>
        <time>2020-05-13T20:38:29Z</time>
      </trkpt>
      <trkpt lat="43.01951" lon="-1.90435">
        <ele>631.839</ele>
        <time>2020-05-13T20:38:09Z</time>
      </trkpt>
      <trkpt lat="43.01946" lon="-1.90431">
        <ele>634.708</ele>
        <time>2020-05-13T20:37:49Z</time>
      </trkpt>
      <trkpt lat="43.0194" lon="-1.90426">
        <ele>634.708</ele>
        <time>2020-05-13T20:37:29Z</time>
      </trkpt>
      <trkpt lat="43.01937" lon="-1.90423">
        <ele>629.953</ele>
        <time>2020-05-13T20:37:09Z</time>
      </trkpt>
      <trkpt lat="43.01936" lon="-1.90422">
        <ele>629.952</ele>
        <time>2020-05-13T20:36:49Z</time>
      </trkpt>
      <trkpt lat="43.01923" lon="-1.90406">
        <ele>643.383</ele>
        <time>2020-05-13T20:36:29Z</time>
      </trkpt>
      <trkpt lat="43.01905" lon="-1.90383">
        <ele>651.725</ele>
        <time>2020-05-13T20:36:09Z</time>
      </trkpt>
      <trkpt lat="43.01891" lon="-1.90359">
        <ele>661.277</ele>
        <time>2020-05-13T20:35:49Z</time>
      </trkpt>
      <trkpt lat="43.01883" lon="-1.90336">
        <ele>651.975</ele>
        <time>2020-05-13T20:35:29Z</time>
      </trkpt>
      <trkpt lat="43.01877" lon="-1.90309">
        <ele>644.229</ele>
        <time>2020-05-13T20:35:09Z</time>
      </trkpt>
      <trkpt lat="43.01876" lon="-1.90305">
        <ele>644.264</ele>
        <time>2020-05-13T20:34:49Z</time>
      </trkpt>
      <trkpt lat="43.01875" lon="-1.90299">
        <ele>644.281</ele>
        <time>2020-05-13T20:34:29Z</time>
      </trkpt>
      <trkpt lat="43.01874" lon="-1.90293">
        <ele>627.316</ele>
        <time>2020-05-13T20:34:09Z</time>
      </trkpt>
      <trkpt lat="43.01874" lon="-1.90287">
        <ele>627.308</ele>
        <time>2020-05-13T20:33:49Z</time>
      </trkpt>
      <trkpt lat="43.01874" lon="-1.90284">
        <ele>627.105</ele>
        <time>2020-05-13T20:33:29Z</time>
      </trkpt>
      <trkpt lat="43.01874" lon="-1.90281">
        <ele>627.141</ele>
        <time>2020-05-13T20:33:09Z</time>
      </trkpt>
      <trkpt lat="43.01874" lon="-1.90278">
        <ele>627.121</ele>
        <time>2020-05-13T20:32:49Z</time>
      </trkpt>
      <trkpt lat="43.01874" lon="-1.90275">
        <ele>627.195</ele>
        <time>2020-05-13T20:32:29Z</time>
      </trkpt>
      <trkpt lat="43.01874" lon="-1.90269">
        <ele>626.987</ele>
        <time>2020-05-13T20:32:09Z</time>
      </trkpt>
      <trkpt lat="43.01875" lon="-1.90265">
        <ele>634.569</ele>
        <time>2020-05-13T20:31:49Z</time>
      </trkpt>
      <trkpt lat="43.01875" lon="-1.9026">
        <ele>632.017</ele>
        <time>2020-05-13T20:31:29Z</time>
      </trkpt>
      <trkpt lat="43.01876" lon="-1.90256">
        <ele>632.071</ele>
        <time>2020-05-13T20:31:09Z</time>
      </trkpt>
      <trkpt lat="43.01877" lon="-1.90252">
        <ele>632.086</ele>
        <time>2020-05-13T20:30:49Z</time>
      </trkpt>
      <trkpt lat="43.0188" lon="-1.90233">
        <ele>626.573</ele>
        <time>2020-05-13T20:30:29Z</time>
      </trkpt>
      <trkpt lat="43.01882" lon="-1.90224">
        <ele>626.338</ele>
        <time>2020-05-13T20:30:09Z</time>
      </trkpt>
      <trkpt lat="43.01883" lon="-1.90219">
        <ele>637.208</ele>
        <time>2020-05-13T20:29:49Z</time>
      </trkpt>
      <trkpt lat="43.01884" lon="-1.90215">
        <ele>637.214</ele>
        <time>2020-05-13T20:29:29Z</time>
      </trkpt>
      <trkpt lat="43.01891" lon="-1.90195">
        <ele>625.822</ele>
        <time>2020-05-13T20:29:09Z</time>
      </trkpt>
      <trkpt lat="43.01894" lon="-1.90185">
        <ele>631.342</ele>
        <time>2020-05-13T20:28:49Z</time>
      </trkpt>
      <trkpt lat="43.01897" lon="-1.90175">
        <ele>631.375</ele>
        <time>2020-05-13T20:28:29Z</time>
      </trkpt>
      <trkpt lat="43.01899" lon="-1.90167">
        <ele>625.547</ele>
        <time>2020-05-13T20:28:09Z</time>
      </trkpt>
      <trkpt lat="43.01902" lon="-1.90159">
        <ele>638.139</ele>
        <time>2020-05-13T20:27:49Z</time>
      </trkpt>
      <trkpt lat="43.01906" lon="-1.90144">
        <ele>626.437</ele>
        <time>2020-05-13T20:27:29Z</time>
      </trkpt>
      <trkpt lat="43.01912" lon="-1.90126">
        <ele>635.061</ele>
        <time>2020-05-13T20:27:09Z</time>
      </trkpt>
      <trkpt lat="43.01915" lon="-1.90118">
        <ele>627.956</ele>
        <time>2020-05-13T20:26:49Z</time>
      </trkpt>
      <trkpt lat="43.01918" lon="-1.90109">
        <ele>634.083</ele>
        <time>2020-05-13T20:26:29Z</time>
      </trkpt>
      <trkpt lat="43.01923" lon="-1.90094">
        <ele>628.538</ele>
        <time>2020-05-13T20:26:09Z</time>
      </trkpt>
      <trkpt lat="43.01927" lon="-1.90078">
        <ele>633.208</ele>
        <time>2020-05-13T20:25:49Z</time>
      </trkpt>
      <trkpt lat="43.01929" lon="-1.90073">
        <ele>629.61</ele>
        <time>2020-05-13T20:25:29Z</time>
      </trkpt>
      <trkpt lat="43.0193" lon="-1.90068">
        <ele>629.664</ele>
        <time>2020-05-13T20:25:09Z</time>
      </trkpt>
      <trkpt lat="43.01931" lon="-1.90064">
        <ele>629.643</ele>
        <time>2020-05-13T20:24:49Z</time>
      </trkpt>
      <trkpt lat="43.01933" lon="-1.90059">
        <ele>623.814</ele>
        <time>2020-05-13T20:24:29Z</time>
      </trkpt>
      <trkpt lat="43.01933" lon="-1.90056">
        <ele>623.846</ele>
        <time>2020-05-13T20:24:09Z</time>
      </trkpt>
      <trkpt lat="43.01933" lon="-1.90053">
        <ele>623.828</ele>
        <time>2020-05-13T20:23:49Z</time>
      </trkpt>
      <trkpt lat="43.01934" lon="-1.90051">
        <ele>623.496</ele>
        <time>2020-05-13T20:23:29Z</time>
      </trkpt>
      <trkpt lat="43.01934" lon="-1.90048">
        <ele>623.41</ele>
        <time>2020-05-13T20:23:09Z</time>
      </trkpt>
      <trkpt lat="43.01934" lon="-1.90047">
        <ele>623.435</ele>
        <time>2020-05-13T20:22:49Z</time>
      </trkpt>
      <trkpt lat="43.01934" lon="-1.90045">
        <ele>623.462</ele>
        <time>2020-05-13T20:22:29Z</time>
      </trkpt>
      <trkpt lat="43.01934" lon="-1.90043">
        <ele>623.447</ele>
        <time>2020-05-13T20:22:09Z</time>
      </trkpt>
      <trkpt lat="43.01934" lon="-1.90042">
        <ele>623.408</ele>
        <time>2020-05-13T20:21:49Z</time>
      </trkpt>
      <trkpt lat="43.01934" lon="-1.90041">
        <ele>623.41</ele>
        <time>2020-05-13T20:21:29Z</time>
      </trkpt>
      <trkpt lat="43.01935" lon="-1.90036">
        <ele>623.255</ele>
        <time>2020-05-13T20:21:09Z</time>
      </trkpt>
      <trkpt lat="43.01935" lon="-1.90035">
        <ele>623.234</ele>
        <time>2020-05-13T20:20:49Z</time>
      </trkpt>
      <trkpt lat="43.01935" lon="-1.90026">
        <ele>623.135</ele>
        <time>2020-05-13T20:20:29Z</time>
      </trkpt>
      <trkpt lat="43.01935" lon="-1.90018">
        <ele>622.937</ele>
        <time>2020-05-13T20:20:09Z</time>
      </trkpt>
      <trkpt lat="43.01935" lon="-1.90013">
        <ele>622.779</ele>
        <time>2020-05-13T20:19:49Z</time>
      </trkpt>
      <trkpt lat="43.01934" lon="-1.90009">
        <ele>622.747</ele>
        <time>2020-05-13T20:19:29Z</time>
      </trkpt>
      <trkpt lat="43.01934" lon="-1.90004">
        <ele>622.761</ele>
        <time>2020-05-13T20:19:09Z</time>
      </trkpt>
      <trkpt lat="43.01934" lon="-1.89999">
        <ele>622.416</ele>
        <time>2020-05-13T20:18:49Z</time>
      </trkpt>
      <trkpt lat="43.01933" lon="-1.89995">
        <ele>622.493</ele>
        <time>2020-05-13T20:18:29Z</time>
      </trkpt>
      <trkpt lat="43.01933" lon="-1.8999">
        <ele>622.428</ele>
        <time>2020-05-13T20:18:09Z</time>
      </trkpt>
      <trkpt lat="43.01932" lon="-1.89986">
        <ele>622.408</ele>
        <time>2020-05-13T20:17:49Z</time>
      </trkpt>
      <trkpt lat="43.01931" lon="-1.89981">
        <ele>622.414</ele>
        <time>2020-05-13T20:17:29Z</time>
      </trkpt>
      <trkpt lat="43.01928" lon="-1.89969">
        <ele>622.122</ele>
        <time>2020-05-13T20:17:09Z</time>
      </trkpt>
      <trkpt lat="43.01927" lon="-1.89963">
        <ele>621.742</ele>
        <time>2020-05-13T20:16:49Z</time>
      </trkpt>
      <trkpt lat="43.01925" lon="-1.89957">
        <ele>621.648</ele>
        <time>2020-05-13T20:16:29Z</time>
      </trkpt>
      <trkpt lat="43.01922" lon="-1.89947">
        <ele>621.65</ele>
        <time>2020-05-13T20:16:09Z</time>
      </trkpt>
      <trkpt lat="43.0192" lon="-1.89943">
        <ele>621.692</ele>
        <time>2020-05-13T20:15:49Z</time>
      </trkpt>
      <trkpt lat="43.01919" lon="-1.8994">
        <ele>621.47</ele>
        <time>2020-05-13T20:15:29Z</time>
      </trkpt>
      <trkpt lat="43.01918" lon="-1.89938">
        <ele>621.444</ele>
        <time>2020-05-13T20:15:09Z</time>
      </trkpt>
      <trkpt lat="43.01916" lon="-1.89935">
        <ele>621.629</ele>
        <time>2020-05-13T20:14:49Z</time>
      </trkpt>
      <trkpt lat="43.01913" lon="-1.8993">
        <ele>621.656</ele>
        <time>2020-05-13T20:14:29Z</time>
      </trkpt>
      <trkpt lat="43.0191" lon="-1.89925">
        <ele>621.831</ele>
        <time>2020-05-13T20:14:09Z</time>
      </trkpt>
      <trkpt lat="43.01906" lon="-1.89921">
        <ele>621.708</ele>
        <time>2020-05-13T20:13:49Z</time>
      </trkpt>
      <trkpt lat="43.01903" lon="-1.89917">
        <ele>621.72</ele>
        <time>2020-05-13T20:13:29Z</time>
      </trkpt>
      <trkpt lat="43.01902" lon="-1.89917">
        <ele>621.728</ele>
        <time>2020-05-13T20:13:09Z</time>
      </trkpt>
      <trkpt lat="43.019" lon="-1.89915">
        <ele>621.875</ele>
        <time>2020-05-13T20:12:49Z</time>
      </trkpt>
      <trkpt lat="43.01899" lon="-1.89914">
        <ele>621.816</ele>
        <time>2020-05-13T20:12:29Z</time>
      </trkpt>
      <trkpt lat="43.01885" lon="-1.899">
        <ele>622.298</ele>
        <time>2020-05-13T20:12:09Z</time>
      </trkpt>
      <trkpt lat="43.01871" lon="-1.89883">
        <ele>627.93</ele>
        <time>2020-05-13T20:11:49Z</time>
      </trkpt>
      <trkpt lat="43.01852" lon="-1.8988">
        <ele>643.388</ele>
        <time>2020-05-13T20:11:29Z</time>
      </trkpt>
      <trkpt lat="43.01826" lon="-1.89888">
        <ele>642.482</ele>
        <time>2020-05-13T20:11:09Z</time>
      </trkpt>
      <trkpt lat="43.01818" lon="-1.89892">
        <ele>643.867</ele>
        <time>2020-05-13T20:10:49Z</time>
      </trkpt>
      <trkpt lat="43.01747" lon="-1.89927">
        <ele>653.674</ele>
        <time>2020-05-13T20:10:29Z</time>
      </trkpt>
      <trkpt lat="43.01726" lon="-1.89936">
        <ele>650.329</ele>
        <time>2020-05-13T20:10:09Z</time>
      </trkpt>
      <trkpt lat="43.01708" lon="-1.89944">
        <ele>644.808</ele>
        <time>2020-05-13T20:09:49Z</time>
      </trkpt>
      <trkpt lat="43.01705" lon="-1.89945">
        <ele>645.617</ele>
        <time>2020-05-13T20:09:29Z</time>
      </trkpt>
      <trkpt lat="43.01696" lon="-1.89949">
        <ele>642.307</ele>
        <time>2020-05-13T20:09:09Z</time>
      </trkpt>
      <trkpt lat="43.01693" lon="-1.89949">
        <ele>642.355</ele>
        <time>2020-05-13T20:08:49Z</time>
      </trkpt>
      <trkpt lat="43.01671" lon="-1.89953">
        <ele>623.943</ele>
        <time>2020-05-13T20:08:29Z</time>
      </trkpt>
      <trkpt lat="43.01652" lon="-1.89964">
        <ele>620.715</ele>
        <time>2020-05-13T20:08:09Z</time>
      </trkpt>
      <trkpt lat="43.01643" lon="-1.8997">
        <ele>616.757</ele>
        <time>2020-05-13T20:07:49Z</time>
      </trkpt>
      <trkpt lat="43.01635" lon="-1.89975">
        <ele>617.125</ele>
        <time>2020-05-13T20:07:29Z</time>
      </trkpt>
      <trkpt lat="43.01616" lon="-1.89986">
        <ele>615.539</ele>
        <time>2020-05-13T20:07:09Z</time>
      </trkpt>
      <trkpt lat="43.01616" lon="-1.89987">
        <ele>615.524</ele>
        <time>2020-05-13T20:06:49Z</time>
      </trkpt>
      <trkpt lat="43.01606" lon="-1.89992">
        <ele>615.191</ele>
        <time>2020-05-13T20:06:29Z</time>
      </trkpt>
      <trkpt lat="43.01597" lon="-1.89997">
        <ele>614.176</ele>
        <time>2020-05-13T20:06:09Z</time>
      </trkpt>
      <trkpt lat="43.01589" lon="-1.90001">
        <ele>614.608</ele>
        <time>2020-05-13T20:05:49Z</time>
      </trkpt>
      <trkpt lat="43.01582" lon="-1.90004">
        <ele>614.22</ele>
        <time>2020-05-13T20:05:29Z</time>
      </trkpt>
      <trkpt lat="43.01567" lon="-1.90012">
        <ele>614.2</ele>
        <time>2020-05-13T20:05:09Z</time>
      </trkpt>
      <trkpt lat="43.01543" lon="-1.90023">
        <ele>614.229</ele>
        <time>2020-05-13T20:04:49Z</time>
      </trkpt>
      <trkpt lat="43.01518" lon="-1.90035">
        <ele>615.824</ele>
        <time>2020-05-13T20:04:29Z</time>
      </trkpt>
      <trkpt lat="43.01511" lon="-1.90038">
        <ele>621.286</ele>
        <time>2020-05-13T20:04:09Z</time>
      </trkpt>
      <trkpt lat="43.01504" lon="-1.90042">
        <ele>621.228</ele>
        <time>2020-05-13T20:03:49Z</time>
      </trkpt>
      <trkpt lat="43.01497" lon="-1.90045">
        <ele>625.266</ele>
        <time>2020-05-13T20:03:29Z</time>
      </trkpt>
      <trkpt lat="43.01489" lon="-1.90049">
        <ele>619.14</ele>
        <time>2020-05-13T20:03:09Z</time>
      </trkpt>
      <trkpt lat="43.01485" lon="-1.9005">
        <ele>619.125</ele>
        <time>2020-05-13T20:02:49Z</time>
      </trkpt>
      <trkpt lat="43.01482" lon="-1.90052">
        <ele>622.022</ele>
        <time>2020-05-13T20:02:29Z</time>
      </trkpt>
      <trkpt lat="43.01478" lon="-1.90054">
        <ele>622.057</ele>
        <time>2020-05-13T20:02:09Z</time>
      </trkpt>
      <trkpt lat="43.01474" lon="-1.90056">
        <ele>623.808</ele>
        <time>2020-05-13T20:01:49Z</time>
      </trkpt>
      <trkpt lat="43.01467" lon="-1.90058">
        <ele>624.818</ele>
        <time>2020-05-13T20:01:29Z</time>
      </trkpt>
      <trkpt lat="43.01463" lon="-1.90059">
        <ele>624.817</ele>
        <time>2020-05-13T20:01:09Z</time>
      </trkpt>
      <trkpt lat="43.01459" lon="-1.9006">
        <ele>615.736</ele>
        <time>2020-05-13T20:00:49Z</time>
      </trkpt>
      <trkpt lat="43.01456" lon="-1.90061">
        <ele>614.889</ele>
        <time>2020-05-13T20:00:29Z</time>
      </trkpt>
      <trkpt lat="43.01453" lon="-1.90062">
        <ele>614.871</ele>
        <time>2020-05-13T20:00:09Z</time>
      </trkpt>
      <trkpt lat="43.0145" lon="-1.90062">
        <ele>614.853</ele>
        <time>2020-05-13T19:59:49Z</time>
      </trkpt>
      <trkpt lat="43.01447" lon="-1.90062">
        <ele>615.161</ele>
        <time>2020-05-13T19:59:29Z</time>
      </trkpt>
      <trkpt lat="43.01444" lon="-1.90063">
        <ele>615.185</ele>
        <time>2020-05-13T19:59:09Z</time>
      </trkpt>
      <trkpt lat="43.0144" lon="-1.90063">
        <ele>615.14</ele>
        <time>2020-05-13T19:58:49Z</time>
      </trkpt>
      <trkpt lat="43.01434" lon="-1.90062">
        <ele>618.057</ele>
        <time>2020-05-13T19:58:29Z</time>
      </trkpt>
      <trkpt lat="43.01427" lon="-1.90061">
        <ele>616.222</ele>
        <time>2020-05-13T19:58:09Z</time>
      </trkpt>
      <trkpt lat="43.01424" lon="-1.90061">
        <ele>616.208</ele>
        <time>2020-05-13T19:57:49Z</time>
      </trkpt>
      <trkpt lat="43.01421" lon="-1.9006">
        <ele>617.426</ele>
        <time>2020-05-13T19:57:29Z</time>
      </trkpt>
      <trkpt lat="43.01421" lon="-1.9006">
        <ele>617.442</ele>
        <time>2020-05-13T19:57:09Z</time>
      </trkpt>
      <trkpt lat="43.01416" lon="-1.90058">
        <ele>617.487</ele>
        <time>2020-05-13T19:56:49Z</time>
      </trkpt>
      <trkpt lat="43.01411" lon="-1.90057">
        <ele>613.926</ele>
        <time>2020-05-13T19:56:29Z</time>
      </trkpt>
      <trkpt lat="43.01402" lon="-1.90053">
        <ele>611.618</ele>
        <time>2020-05-13T19:56:09Z</time>
      </trkpt>
      <trkpt lat="43.01394" lon="-1.9005">
        <ele>611.22</ele>
        <time>2020-05-13T19:55:49Z</time>
      </trkpt>
      <trkpt lat="43.0138" lon="-1.90044">
        <ele>610.828</ele>
        <time>2020-05-13T19:55:29Z</time>
      </trkpt>
      <trkpt lat="43.01365" lon="-1.90035">
        <ele>608.892</ele>
        <time>2020-05-13T19:55:09Z</time>
      </trkpt>
      <trkpt lat="43.01361" lon="-1.90033">
        <ele>608.817</ele>
        <time>2020-05-13T19:54:49Z</time>
      </trkpt>
      <trkpt lat="43.01358" lon="-1.9003">
        <ele>607.464</ele>
        <time>2020-05-13T19:54:29Z</time>
      </trkpt>
      <trkpt lat="43.01354" lon="-1.90028">
        <ele>607.459</ele>
        <time>2020-05-13T19:54:09Z</time>
      </trkpt>
      <trkpt lat="43.0135" lon="-1.90025">
        <ele>607.408</ele>
        <time>2020-05-13T19:53:49Z</time>
      </trkpt>
      <trkpt lat="43.01345" lon="-1.90022">
        <ele>605.708</ele>
        <time>2020-05-13T19:53:29Z</time>
      </trkpt>
      <trkpt lat="43.01338" lon="-1.90019">
        <ele>605.953</ele>
        <time>2020-05-13T19:53:09Z</time>
      </trkpt>
      <trkpt lat="43.01336" lon="-1.90019">
        <ele>605.952</ele>
        <time>2020-05-13T19:52:49Z</time>
      </trkpt>
      <trkpt lat="43.01334" lon="-1.90018">
        <ele>605.968</ele>
        <time>2020-05-13T19:52:29Z</time>
      </trkpt>
      <trkpt lat="43.0133" lon="-1.90017">
        <ele>606.75</ele>
        <time>2020-05-13T19:52:09Z</time>
      </trkpt>
      <trkpt lat="43.01325" lon="-1.90016">
        <ele>606.712</ele>
        <time>2020-05-13T19:51:49Z</time>
      </trkpt>
      <trkpt lat="43.01321" lon="-1.90016">
        <ele>607.98</ele>
        <time>2020-05-13T19:51:29Z</time>
      </trkpt>
      <trkpt lat="43.01317" lon="-1.90015">
        <ele>607.984</ele>
        <time>2020-05-13T19:51:09Z</time>
      </trkpt>
      <trkpt lat="43.01313" lon="-1.90014">
        <ele>608.689</ele>
        <time>2020-05-13T19:50:49Z</time>
      </trkpt>
      <trkpt lat="43.01302" lon="-1.90012">
        <ele>609.586</ele>
        <time>2020-05-13T19:50:29Z</time>
      </trkpt>
      <trkpt lat="43.01285" lon="-1.90011">
        <ele>610.221</ele>
        <time>2020-05-13T19:50:09Z</time>
      </trkpt>
      <trkpt lat="43.01276" lon="-1.9001">
        <ele>610.908</ele>
        <time>2020-05-13T19:49:49Z</time>
      </trkpt>
      <trkpt lat="43.01268" lon="-1.9001">
        <ele>610.119</ele>
        <time>2020-05-13T19:49:29Z</time>
      </trkpt>
      <trkpt lat="43.0126" lon="-1.9001">
        <ele>610.19</ele>
        <time>2020-05-13T19:49:09Z</time>
      </trkpt>
      <trkpt lat="43.01253" lon="-1.90009">
        <ele>611.576</ele>
        <time>2020-05-13T19:48:49Z</time>
      </trkpt>
      <trkpt lat="43.0123" lon="-1.90008">
        <ele>610.177</ele>
        <time>2020-05-13T19:48:29Z</time>
      </trkpt>
      <trkpt lat="43.01208" lon="-1.90007">
        <ele>609.219</ele>
        <time>2020-05-13T19:48:09Z</time>
      </trkpt>
      <trkpt lat="43.01201" lon="-1.90007">
        <ele>610.321</ele>
        <time>2020-05-13T19:47:49Z</time>
      </trkpt>
      <trkpt lat="43.01194" lon="-1.90006">
        <ele>610.389</ele>
        <time>2020-05-13T19:47:29Z</time>
      </trkpt>
      <trkpt lat="43.01186" lon="-1.90005">
        <ele>608.883</ele>
        <time>2020-05-13T19:47:09Z</time>
      </trkpt>
      <trkpt lat="43.01179" lon="-1.90005">
        <ele>608.848</ele>
        <time>2020-05-13T19:46:49Z</time>
      </trkpt>
      <trkpt lat="43.01171" lon="-1.90004">
        <ele>608.525</ele>
        <time>2020-05-13T19:46:29Z</time>
      </trkpt>
      <trkpt lat="43.01164" lon="-1.90003">
        <ele>611.79</ele>
        <time>2020-05-13T19:46:09Z</time>
      </trkpt>
      <trkpt lat="43.0116" lon="-1.90002">
        <ele>610.408</ele>
        <time>2020-05-13T19:45:49Z</time>
      </trkpt>
      <trkpt lat="43.01157" lon="-1.90002">
        <ele>610.418</ele>
        <time>2020-05-13T19:45:29Z</time>
      </trkpt>
      <trkpt lat="43.0115" lon="-1.9">
        <ele>607.144</ele>
        <time>2020-05-13T19:45:09Z</time>
      </trkpt>
      <trkpt lat="43.01147" lon="-1.89999">
        <ele>607.163</ele>
        <time>2020-05-13T19:44:49Z</time>
      </trkpt>
      <trkpt lat="43.01143" lon="-1.89997">
        <ele>607.143</ele>
        <time>2020-05-13T19:44:29Z</time>
      </trkpt>
      <trkpt lat="43.01139" lon="-1.89995">
        <ele>606.465</ele>
        <time>2020-05-13T19:44:09Z</time>
      </trkpt>
      <trkpt lat="43.01134" lon="-1.89993">
        <ele>606.497</ele>
        <time>2020-05-13T19:43:49Z</time>
      </trkpt>
      <trkpt lat="43.01133" lon="-1.89993">
        <ele>605.235</ele>
        <time>2020-05-13T19:43:29Z</time>
      </trkpt>
      <trkpt lat="43.01131" lon="-1.89992">
        <ele>605.219</ele>
        <time>2020-05-13T19:43:09Z</time>
      </trkpt>
      <trkpt lat="43.01128" lon="-1.89992">
        <ele>609.054</ele>
        <time>2020-05-13T19:42:49Z</time>
      </trkpt>
      <trkpt lat="43.01127" lon="-1.89992">
        <ele>609.011</ele>
        <time>2020-05-13T19:42:29Z</time>
      </trkpt>
      <trkpt lat="43.01127" lon="-1.89992">
        <ele>609.016</ele>
        <time>2020-05-13T19:42:09Z</time>
      </trkpt>
      <trkpt lat="43.01125" lon="-1.89991">
        <ele>609.008</ele>
        <time>2020-05-13T19:41:49Z</time>
      </trkpt>
      <trkpt lat="43.01122" lon="-1.89991">
        <ele>603.711</ele>
        <time>2020-05-13T19:41:29Z</time>
      </trkpt>
      <trkpt lat="43.01122" lon="-1.8999">
        <ele>603.783</ele>
        <time>2020-05-13T19:41:09Z</time>
      </trkpt>
      <trkpt lat="43.01119" lon="-1.89987">
        <ele>603.723</ele>
        <time>2020-05-13T19:40:49Z</time>
      </trkpt>
      <trkpt lat="43.01117" lon="-1.89983">
        <ele>603.745</ele>
        <time>2020-05-13T19:40:29Z</time>
      </trkpt>
      <trkpt lat="43.01113" lon="-1.89976">
        <ele>602.427</ele>
        <time>2020-05-13T19:40:09Z</time>
      </trkpt>
      <trkpt lat="43.01109" lon="-1.89969">
        <ele>602.459</ele>
        <time>2020-05-13T19:39:49Z</time>
      </trkpt>
      <trkpt lat="43.01105" lon="-1.89962">
        <ele>601.977</ele>
        <time>2020-05-13T19:39:29Z</time>
      </trkpt>
      <trkpt lat="43.011" lon="-1.89952">
        <ele>603.841</ele>
        <time>2020-05-13T19:39:09Z</time>
      </trkpt>
      <trkpt lat="43.01094" lon="-1.89941">
        <ele>602.026</ele>
        <time>2020-05-13T19:38:49Z</time>
      </trkpt>
      <trkpt lat="43.0109" lon="-1.89932">
        <ele>602.063</ele>
        <time>2020-05-13T19:38:29Z</time>
      </trkpt>
      <trkpt lat="43.01087" lon="-1.89928">
        <ele>600.848</ele>
        <time>2020-05-13T19:38:09Z</time>
      </trkpt>
      <trkpt lat="43.01085" lon="-1.89923">
        <ele>600.808</ele>
        <time>2020-05-13T19:37:49Z</time>
      </trkpt>
      <trkpt lat="43.01083" lon="-1.89918">
        <ele>603.221</ele>
        <time>2020-05-13T19:37:29Z</time>
      </trkpt>
      <trkpt lat="43.01081" lon="-1.89912">
        <ele>603.229</ele>
        <time>2020-05-13T19:37:09Z</time>
      </trkpt>
      <trkpt lat="43.01076" lon="-1.89901">
        <ele>600.447</ele>
        <time>2020-05-13T19:36:49Z</time>
      </trkpt>
      <trkpt lat="43.01074" lon="-1.89894">
        <ele>601.388</ele>
        <time>2020-05-13T19:36:29Z</time>
      </trkpt>
      <trkpt lat="43.01071" lon="-1.89887">
        <ele>601.37</ele>
        <time>2020-05-13T19:36:09Z</time>
      </trkpt>
      <trkpt lat="43.01069" lon="-1.8988">
        <ele>604.392</ele>
        <time>2020-05-13T19:35:49Z</time>
      </trkpt>
      <trkpt lat="43.01067" lon="-1.89873">
        <ele>599.96</ele>
        <time>2020-05-13T19:35:29Z</time>
      </trkpt>
      <trkpt lat="43.01063" lon="-1.8986">
        <ele>599.734</ele>
        <time>2020-05-13T19:35:09Z</time>
      </trkpt>
      <trkpt lat="43.01061" lon="-1.89853">
        <ele>601.829</ele>
        <time>2020-05-13T19:34:49Z</time>
      </trkpt>
      <trkpt lat="43.01059" lon="-1.89847">
        <ele>599.776</ele>
        <time>2020-05-13T19:34:29Z</time>
      </trkpt>
      <trkpt lat="43.01058" lon="-1.89839">
        <ele>599.291</ele>
        <time>2020-05-13T19:34:09Z</time>
      </trkpt>
      <trkpt lat="43.01056" lon="-1.89832">
        <ele>599.408</ele>
        <time>2020-05-13T19:33:49Z</time>
      </trkpt>
      <trkpt lat="43.01054" lon="-1.89825">
        <ele>599.421</ele>
        <time>2020-05-13T19:33:29Z</time>
      </trkpt>
      <trkpt lat="43.01052" lon="-1.89818">
        <ele>602.156</ele>
        <time>2020-05-13T19:33:09Z</time>
      </trkpt>
      <trkpt lat="43.01051" lon="-1.89814">
        <ele>602.174</ele>
        <time>2020-05-13T19:32:49Z</time>
      </trkpt>
      <trkpt lat="43.0105" lon="-1.8981">
        <ele>599.283</ele>
        <time>2020-05-13T19:32:29Z</time>
      </trkpt>
      <trkpt lat="43.01049" lon="-1.89803">
        <ele>599.395</ele>
        <time>2020-05-13T19:32:09Z</time>
      </trkpt>
      <trkpt lat="43.01046" lon="-1.8979">
        <ele>599.827</ele>
        <time>2020-05-13T19:31:49Z</time>
      </trkpt>
      <trkpt lat="43.01045" lon="-1.89778">
        <ele>600.435</ele>
        <time>2020-05-13T19:31:29Z</time>
      </trkpt>
      <trkpt lat="43.01044" lon="-1.89773">
        <ele>600.439</ele>
        <time>2020-05-13T19:31:09Z</time>
      </trkpt>
      <trkpt lat="43.01043" lon="-1.89768">
        <ele>603.294</ele>
        <time>2020-05-13T19:30:49Z</time>
      </trkpt>
      <trkpt lat="43.01043" lon="-1.89763">
        <ele>603.221</ele>
        <time>2020-05-13T19:30:29Z</time>
      </trkpt>
      <trkpt lat="43.01042" lon="-1.89759">
        <ele>604.776</ele>
        <time>2020-05-13T19:30:09Z</time>
      </trkpt>
      <trkpt lat="43.01041" lon="-1.89743">
        <ele>600.908</ele>
        <time>2020-05-13T19:29:49Z</time>
      </trkpt>
      <trkpt lat="43.0104" lon="-1.89738">
        <ele>600.917</ele>
        <time>2020-05-13T19:29:29Z</time>
      </trkpt>
      <trkpt lat="43.01039" lon="-1.89731">
        <ele>601.589</ele>
        <time>2020-05-13T19:29:09Z</time>
      </trkpt>
      <trkpt lat="43.01039" lon="-1.89728">
        <ele>601.528</ele>
        <time>2020-05-13T19:28:49Z</time>
      </trkpt>
      <trkpt lat="43.01039" lon="-1.89724">
        <ele>601.543</ele>
        <time>2020-05-13T19:28:29Z</time>
      </trkpt>
      <trkpt lat="43.01038" lon="-1.89719">
        <ele>601.835</ele>
        <time>2020-05-13T19:28:09Z</time>
      </trkpt>
      <trkpt lat="43.01038" lon="-1.89713">
        <ele>601.857</ele>
        <time>2020-05-13T19:27:49Z</time>
      </trkpt>
      <trkpt lat="43.01038" lon="-1.89707">
        <ele>601.875</ele>
        <time>2020-05-13T19:27:29Z</time>
      </trkpt>
      <trkpt lat="43.01038" lon="-1.89705">
        <ele>601.829</ele>
        <time>2020-05-13T19:27:09Z</time>
      </trkpt>
      <trkpt lat="43.01038" lon="-1.89702">
        <ele>601.834</ele>
        <time>2020-05-13T19:26:49Z</time>
      </trkpt>
      <trkpt lat="43.01038" lon="-1.897">
        <ele>601.871</ele>
        <time>2020-05-13T19:26:29Z</time>
      </trkpt>
      <trkpt lat="43.01039" lon="-1.89697">
        <ele>603.246</ele>
        <time>2020-05-13T19:26:09Z</time>
      </trkpt>
      <trkpt lat="43.01039" lon="-1.89692">
        <ele>603.208</ele>
        <time>2020-05-13T19:25:49Z</time>
      </trkpt>
      <trkpt lat="43.0104" lon="-1.8969">
        <ele>603.208</ele>
        <time>2020-05-13T19:25:29Z</time>
      </trkpt>
      <trkpt lat="43.0104" lon="-1.89687">
        <ele>603.226</ele>
        <time>2020-05-13T19:25:09Z</time>
      </trkpt>
      <trkpt lat="43.01041" lon="-1.89684">
        <ele>606.825</ele>
        <time>2020-05-13T19:24:49Z</time>
      </trkpt>
      <trkpt lat="43.01041" lon="-1.89681">
        <ele>606.825</ele>
        <time>2020-05-13T19:24:29Z</time>
      </trkpt>
      <trkpt lat="43.01042" lon="-1.89678">
        <ele>606.877</ele>
        <time>2020-05-13T19:24:09Z</time>
      </trkpt>
      <trkpt lat="43.01043" lon="-1.89675">
        <ele>606.869</ele>
        <time>2020-05-13T19:23:49Z</time>
      </trkpt>
      <trkpt lat="43.01044" lon="-1.89672">
        <ele>604.117</ele>
        <time>2020-05-13T19:23:29Z</time>
      </trkpt>
      <trkpt lat="43.01044" lon="-1.89669">
        <ele>604.131</ele>
        <time>2020-05-13T19:23:09Z</time>
      </trkpt>
      <trkpt lat="43.01047" lon="-1.89659">
        <ele>605.186</ele>
        <time>2020-05-13T19:22:49Z</time>
      </trkpt>
      <trkpt lat="43.0105" lon="-1.8965">
        <ele>607.223</ele>
        <time>2020-05-13T19:22:29Z</time>
      </trkpt>
      <trkpt lat="43.01064" lon="-1.89615">
        <ele>606.738</ele>
        <time>2020-05-13T19:22:09Z</time>
      </trkpt>
      <trkpt lat="43.01066" lon="-1.89609">
        <ele>604.508</ele>
        <time>2020-05-13T19:21:49Z</time>
      </trkpt>
      <trkpt lat="43.01067" lon="-1.89608">
        <ele>606.309</ele>
        <time>2020-05-13T19:21:29Z</time>
      </trkpt>
      <trkpt lat="43.01071" lon="-1.89597">
        <ele>602.281</ele>
        <time>2020-05-13T19:21:09Z</time>
      </trkpt>
      <trkpt lat="43.01076" lon="-1.89585">
        <ele>605.741</ele>
        <time>2020-05-13T19:20:49Z</time>
      </trkpt>
      <trkpt lat="43.01076" lon="-1.89585">
        <ele>605.767</ele>
        <time>2020-05-13T19:20:29Z</time>
      </trkpt>
      <trkpt lat="43.0108" lon="-1.89575">
        <ele>601.519</ele>
        <time>2020-05-13T19:20:09Z</time>
      </trkpt>
      <trkpt lat="43.01083" lon="-1.89567">
        <ele>601.551</ele>
        <time>2020-05-13T19:19:49Z</time>
      </trkpt>
      <trkpt lat="43.01085" lon="-1.89564">
        <ele>605.549</ele>
        <time>2020-05-13T19:19:29Z</time>
      </trkpt>
      <trkpt lat="43.01086" lon="-1.8956">
        <ele>602.043</ele>
        <time>2020-05-13T19:19:09Z</time>
      </trkpt>
      <trkpt lat="43.01089" lon="-1.89553">
        <ele>602.028</ele>
        <time>2020-05-13T19:18:49Z</time>
      </trkpt>
      <trkpt lat="43.01093" lon="-1.89545">
        <ele>601.815</ele>
        <time>2020-05-13T19:18:29Z</time>
      </trkpt>
      <trkpt lat="43.01096" lon="-1.89536">
        <ele>598.66</ele>
        <time>2020-05-13T19:18:09Z</time>
      </trkpt>
      <trkpt lat="43.011" lon="-1.89525">
        <ele>598.308</ele>
        <time>2020-05-13T19:17:49Z</time>
      </trkpt>
      <trkpt lat="43.01101" lon="-1.8952">
        <ele>598.326</ele>
        <time>2020-05-13T19:17:29Z</time>
      </trkpt>
      <trkpt lat="43.01103" lon="-1.89515">
        <ele>598.242</ele>
        <time>2020-05-13T19:17:09Z</time>
      </trkpt>
      <trkpt lat="43.01104" lon="-1.89512">
        <ele>598.068</ele>
        <time>2020-05-13T19:16:49Z</time>
      </trkpt>
      <trkpt lat="43.01106" lon="-1.89508">
        <ele>598.096</ele>
        <time>2020-05-13T19:16:29Z</time>
      </trkpt>
      <trkpt lat="43.01107" lon="-1.89505">
        <ele>598.038</ele>
        <time>2020-05-13T19:16:09Z</time>
      </trkpt>
      <trkpt lat="43.01108" lon="-1.89502">
        <ele>598.07</ele>
        <time>2020-05-13T19:15:49Z</time>
      </trkpt>
      <trkpt lat="43.0111" lon="-1.89494">
        <ele>598.998</ele>
        <time>2020-05-13T19:15:29Z</time>
      </trkpt>
      <trkpt lat="43.01112" lon="-1.89486">
        <ele>599.612</ele>
        <time>2020-05-13T19:15:09Z</time>
      </trkpt>
      <trkpt lat="43.01113" lon="-1.8948">
        <ele>599.647</ele>
        <time>2020-05-13T19:14:49Z</time>
      </trkpt>
      <trkpt lat="43.01115" lon="-1.89473">
        <ele>597.544</ele>
        <time>2020-05-13T19:14:29Z</time>
      </trkpt>
      <trkpt lat="43.01116" lon="-1.89465">
        <ele>597.599</ele>
        <time>2020-05-13T19:14:09Z</time>
      </trkpt>
      <trkpt lat="43.01116" lon="-1.89465">
        <ele>597.508</ele>
        <time>2020-05-13T19:13:49Z</time>
      </trkpt>
      <trkpt lat="43.01117" lon="-1.89458">
        <ele>597.017</ele>
        <time>2020-05-13T19:13:29Z</time>
      </trkpt>
      <trkpt lat="43.01118" lon="-1.89455">
        <ele>597.007</ele>
        <time>2020-05-13T19:13:09Z</time>
      </trkpt>
      <trkpt lat="43.01118" lon="-1.89453">
        <ele>597.055</ele>
        <time>2020-05-13T19:12:49Z</time>
      </trkpt>
      <trkpt lat="43.01119" lon="-1.89447">
        <ele>596.883</ele>
        <time>2020-05-13T19:12:29Z</time>
      </trkpt>
      <trkpt lat="43.01119" lon="-1.89445">
        <ele>596.835</ele>
        <time>2020-05-13T19:12:09Z</time>
      </trkpt>
      <trkpt lat="43.01119" lon="-1.89444">
        <ele>596.897</ele>
        <time>2020-05-13T19:11:49Z</time>
      </trkpt>
      <trkpt lat="43.01119" lon="-1.89437">
        <ele>596.645</ele>
        <time>2020-05-13T19:11:29Z</time>
      </trkpt>
      <trkpt lat="43.01119" lon="-1.89434">
        <ele>596.679</ele>
        <time>2020-05-13T19:11:09Z</time>
      </trkpt>
      <trkpt lat="43.01119" lon="-1.8943">
        <ele>596.624</ele>
        <time>2020-05-13T19:10:49Z</time>
      </trkpt>
      <trkpt lat="43.01119" lon="-1.89423">
        <ele>596.251</ele>
        <time>2020-05-13T19:10:29Z</time>
      </trkpt>
      <trkpt lat="43.01119" lon="-1.8942">
        <ele>596.286</ele>
        <time>2020-05-13T19:10:09Z</time>
      </trkpt>
      <trkpt lat="43.01119" lon="-1.89416">
        <ele>596.508</ele>
        <time>2020-05-13T19:09:49Z</time>
      </trkpt>
      <trkpt lat="43.01118" lon="-1.89413">
        <ele>596.511</ele>
        <time>2020-05-13T19:09:29Z</time>
      </trkpt>
      <trkpt lat="43.01118" lon="-1.89409">
        <ele>596.583</ele>
        <time>2020-05-13T19:09:09Z</time>
      </trkpt>
      <trkpt lat="43.01117" lon="-1.89406">
        <ele>596.523</ele>
        <time>2020-05-13T19:08:49Z</time>
      </trkpt>
      <trkpt lat="43.01116" lon="-1.89403">
        <ele>595.81</ele>
        <time>2020-05-13T19:08:29Z</time>
      </trkpt>
      <trkpt lat="43.01115" lon="-1.89396">
        <ele>595.872</ele>
        <time>2020-05-13T19:08:09Z</time>
      </trkpt>
      <trkpt lat="43.01114" lon="-1.89394">
        <ele>595.814</ele>
        <time>2020-05-13T19:07:49Z</time>
      </trkpt>
      <trkpt lat="43.01113" lon="-1.89389">
        <ele>595.942</ele>
        <time>2020-05-13T19:07:29Z</time>
      </trkpt>
      <trkpt lat="43.01113" lon="-1.89387">
        <ele>595.976</ele>
        <time>2020-05-13T19:07:09Z</time>
      </trkpt>
      <trkpt lat="43.01112" lon="-1.89384">
        <ele>595.951</ele>
        <time>2020-05-13T19:06:49Z</time>
      </trkpt>
      <trkpt lat="43.0111" lon="-1.89378">
        <ele>595.578</ele>
        <time>2020-05-13T19:06:29Z</time>
      </trkpt>
      <trkpt lat="43.01108" lon="-1.89372">
        <ele>595.813</ele>
        <time>2020-05-13T19:06:09Z</time>
      </trkpt>
      <trkpt lat="43.01106" lon="-1.89365">
        <ele>595.608</ele>
        <time>2020-05-13T19:05:49Z</time>
      </trkpt>
      <trkpt lat="43.01104" lon="-1.89362">
        <ele>595.62</ele>
        <time>2020-05-13T19:05:29Z</time>
      </trkpt>
      <trkpt lat="43.01103" lon="-1.89359">
        <ele>595.673</ele>
        <time>2020-05-13T19:05:09Z</time>
      </trkpt>
      <trkpt lat="43.01101" lon="-1.89355">
        <ele>595.692</ele>
        <time>2020-05-13T19:04:49Z</time>
      </trkpt>
      <trkpt lat="43.01099" lon="-1.89351">
        <ele>595.655</ele>
        <time>2020-05-13T19:04:29Z</time>
      </trkpt>
      <trkpt lat="43.01097" lon="-1.89347">
        <ele>595.637</ele>
        <time>2020-05-13T19:04:09Z</time>
      </trkpt>
      <trkpt lat="43.01095" lon="-1.89344">
        <ele>595.679</ele>
        <time>2020-05-13T19:03:49Z</time>
      </trkpt>
      <trkpt lat="43.01092" lon="-1.89339">
        <ele>598.697</ele>
        <time>2020-05-13T19:03:29Z</time>
      </trkpt>
      <trkpt lat="43.01091" lon="-1.89338">
        <ele>598.691</ele>
        <time>2020-05-13T19:03:09Z</time>
      </trkpt>
      <trkpt lat="43.01089" lon="-1.89335">
        <ele>595.666</ele>
        <time>2020-05-13T19:02:49Z</time>
      </trkpt>
      <trkpt lat="43.01088" lon="-1.89332">
        <ele>595.673</ele>
        <time>2020-05-13T19:02:29Z</time>
      </trkpt>
      <trkpt lat="43.01084" lon="-1.89326">
        <ele>599.848</ele>
        <time>2020-05-13T19:02:09Z</time>
      </trkpt>
      <trkpt lat="43.01083" lon="-1.89324">
        <ele>599.808</ele>
        <time>2020-05-13T19:01:49Z</time>
      </trkpt>
      <trkpt lat="43.01081" lon="-1.89321">
        <ele>595.709</ele>
        <time>2020-05-13T19:01:29Z</time>
      </trkpt>
      <trkpt lat="43.01079" lon="-1.89319">
        <ele>595.781</ele>
        <time>2020-05-13T19:01:09Z</time>
      </trkpt>
      <trkpt lat="43.01077" lon="-1.89317">
        <ele>601.841</ele>
        <time>2020-05-13T19:00:49Z</time>
      </trkpt>
      <trkpt lat="43.01075" lon="-1.89315">
        <ele>601.853</ele>
        <time>2020-05-13T19:00:29Z</time>
      </trkpt>
      <trkpt lat="43.01073" lon="-1.89314">
        <ele>601.885</ele>
        <time>2020-05-13T19:00:09Z</time>
      </trkpt>
      <trkpt lat="43.01069" lon="-1.89309">
        <ele>597.587</ele>
        <time>2020-05-13T18:59:49Z</time>
      </trkpt>
      <trkpt lat="43.01064" lon="-1.89305">
        <ele>604.055</ele>
        <time>2020-05-13T18:59:29Z</time>
      </trkpt>
      <trkpt lat="43.01062" lon="-1.89304">
        <ele>597.739</ele>
        <time>2020-05-13T18:59:09Z</time>
      </trkpt>
      <trkpt lat="43.01059" lon="-1.89302">
        <ele>597.734</ele>
        <time>2020-05-13T18:58:49Z</time>
      </trkpt>
      <trkpt lat="43.01054" lon="-1.89299">
        <ele>597.421</ele>
        <time>2020-05-13T18:58:29Z</time>
      </trkpt>
      <trkpt lat="43.0105" lon="-1.89298">
        <ele>597.436</ele>
        <time>2020-05-13T18:58:09Z</time>
      </trkpt>
      <trkpt lat="43.01049" lon="-1.89297">
        <ele>597.408</ele>
        <time>2020-05-13T18:57:49Z</time>
      </trkpt>
      <trkpt lat="43.01042" lon="-1.89294">
        <ele>597.614</ele>
        <time>2020-05-13T18:57:29Z</time>
      </trkpt>
      <trkpt lat="43.01041" lon="-1.89293">
        <ele>597.604</ele>
        <time>2020-05-13T18:57:09Z</time>
      </trkpt>
      <trkpt lat="43.0104" lon="-1.89292">
        <ele>597.624</ele>
        <time>2020-05-13T18:56:49Z</time>
      </trkpt>
      <trkpt lat="43.01035" lon="-1.8929">
        <ele>594.898</ele>
        <time>2020-05-13T18:56:29Z</time>
      </trkpt>
      <trkpt lat="43.0103" lon="-1.89289">
        <ele>594.81</ele>
        <time>2020-05-13T18:56:09Z</time>
      </trkpt>
      <trkpt lat="43.01025" lon="-1.89288">
        <ele>594.622</ele>
        <time>2020-05-13T18:55:49Z</time>
      </trkpt>
      <trkpt lat="43.0102" lon="-1.89287">
        <ele>594.63</ele>
        <time>2020-05-13T18:55:29Z</time>
      </trkpt>
      <trkpt lat="43.01013" lon="-1.89287">
        <ele>594.424</ele>
        <time>2020-05-13T18:55:09Z</time>
      </trkpt>
      <trkpt lat="43.01006" lon="-1.89286">
        <ele>594.559</ele>
        <time>2020-05-13T18:54:49Z</time>
      </trkpt>
      <trkpt lat="43.01" lon="-1.89286">
        <ele>593.386</ele>
        <time>2020-05-13T18:54:29Z</time>
      </trkpt>
      <trkpt lat="43.00998" lon="-1.89286">
        <ele>593.381</ele>
        <time>2020-05-13T18:54:09Z</time>
      </trkpt>
      <trkpt lat="43.00995" lon="-1.89286">
        <ele>593.308</ele>
        <time>2020-05-13T18:53:49Z</time>
      </trkpt>
      <trkpt lat="43.00993" lon="-1.89286">
        <ele>593.319</ele>
        <time>2020-05-13T18:53:29Z</time>
      </trkpt>
      <trkpt lat="43.0099" lon="-1.89286">
        <ele>593.39</ele>
        <time>2020-05-13T18:53:09Z</time>
      </trkpt>
      <trkpt lat="43.0098" lon="-1.89286">
        <ele>593.276</ele>
        <time>2020-05-13T18:52:49Z</time>
      </trkpt>
      <trkpt lat="43.00975" lon="-1.89286">
        <ele>593.218</ele>
        <time>2020-05-13T18:52:29Z</time>
      </trkpt>
      <trkpt lat="43.00971" lon="-1.89286">
        <ele>592.43</ele>
        <time>2020-05-13T18:52:09Z</time>
      </trkpt>
      <trkpt lat="43.00967" lon="-1.89286">
        <ele>592.452</ele>
        <time>2020-05-13T18:51:49Z</time>
      </trkpt>
      <trkpt lat="43.00963" lon="-1.89285">
        <ele>592.51</ele>
        <time>2020-05-13T18:51:29Z</time>
      </trkpt>
      <trkpt lat="43.00959" lon="-1.89285">
        <ele>592.594</ele>
        <time>2020-05-13T18:51:09Z</time>
      </trkpt>
      <trkpt lat="43.00956" lon="-1.89286">
        <ele>592.529</ele>
        <time>2020-05-13T18:50:49Z</time>
      </trkpt>
      <trkpt lat="43.00953" lon="-1.89286">
        <ele>591.896</ele>
        <time>2020-05-13T18:50:29Z</time>
      </trkpt>
      <trkpt lat="43.0095" lon="-1.89286">
        <ele>591.841</ele>
        <time>2020-05-13T18:50:09Z</time>
      </trkpt>
      <trkpt lat="43.00943" lon="-1.89285">
        <ele>592.208</ele>
        <time>2020-05-13T18:49:49Z</time>
      </trkpt>
      <trkpt lat="43.00937" lon="-1.89284">
        <ele>593.525</ele>
        <time>2020-05-13T18:49:29Z</time>
      </trkpt>
      <trkpt lat="43.00934" lon="-1.89284">
        <ele>596.305</ele>
        <time>2020-05-13T18:49:09Z</time>
      </trkpt>
      <trkpt lat="43.00931" lon="-1.89284">
        <ele>596.379</ele>
        <time>2020-05-13T18:48:49Z</time>
      </trkpt>
      <trkpt lat="43.00929" lon="-1.89284">
        <ele>596.358</ele>
        <time>2020-05-13T18:48:29Z</time>
      </trkpt>
      <trkpt lat="43.00926" lon="-1.89284">
        <ele>597.76</ele>
        <time>2020-05-13T18:48:09Z</time>
      </trkpt>
      <trkpt lat="43.00923" lon="-1.89283">
        <ele>597.792</ele>
        <time>2020-05-13T18:47:49Z</time>
      </trkpt>
      <trkpt lat="43.00921" lon="-1.89283">
        <ele>597.75</ele>
        <time>2020-05-13T18:47:29Z</time>
      </trkpt>
      <trkpt lat="43.00915" lon="-1.89283">
        <ele>598.794</ele>
        <time>2020-05-13T18:47:09Z</time>
      </trkpt>
      <trkpt lat="43.00906" lon="-1.89282">
        <ele>599.399</ele>
        <time>2020-05-13T18:46:49Z</time>
      </trkpt>
      <trkpt lat="43.00903" lon="-1.89282">
        <ele>599.386</ele>
        <time>2020-05-13T18:46:29Z</time>
      </trkpt>
      <trkpt lat="43.009" lon="-1.89282">
        <ele>594.191</ele>
        <time>2020-05-13T18:46:09Z</time>
      </trkpt>
      <trkpt lat="43.00893" lon="-1.89281">
        <ele>594.108</ele>
        <time>2020-05-13T18:45:49Z</time>
      </trkpt>
      <trkpt lat="43.00891" lon="-1.89281">
        <ele>594.013</ele>
        <time>2020-05-13T18:45:29Z</time>
      </trkpt>
      <trkpt lat="43.00888" lon="-1.89281">
        <ele>594.085</ele>
        <time>2020-05-13T18:45:09Z</time>
      </trkpt>
      <trkpt lat="43.00885" lon="-1.89281">
        <ele>594.073</ele>
        <time>2020-05-13T18:44:49Z</time>
      </trkpt>
      <trkpt lat="43.00882" lon="-1.89281">
        <ele>597.949</ele>
        <time>2020-05-13T18:44:29Z</time>
      </trkpt>
      <trkpt lat="43.00878" lon="-1.89281">
        <ele>597.971</ele>
        <time>2020-05-13T18:44:09Z</time>
      </trkpt>
      <trkpt lat="43.00875" lon="-1.89281">
        <ele>597.953</ele>
        <time>2020-05-13T18:43:49Z</time>
      </trkpt>
      <trkpt lat="43.00868" lon="-1.89281">
        <ele>602.811</ele>
        <time>2020-05-13T18:43:29Z</time>
      </trkpt>
      <trkpt lat="43.00862" lon="-1.89281">
        <ele>595.575</ele>
        <time>2020-05-13T18:43:09Z</time>
      </trkpt>
      <trkpt lat="43.00855" lon="-1.8928">
        <ele>592.66</ele>
        <time>2020-05-13T18:42:49Z</time>
      </trkpt>
      <trkpt lat="43.00843" lon="-1.89279">
        <ele>592.547</ele>
        <time>2020-05-13T18:42:29Z</time>
      </trkpt>
      <trkpt lat="43.00834" lon="-1.89278">
        <ele>591.332</ele>
        <time>2020-05-13T18:42:09Z</time>
      </trkpt>
      <trkpt lat="43.00834" lon="-1.89278">
        <ele>591.308</ele>
        <time>2020-05-13T18:41:49Z</time>
      </trkpt>
      <trkpt lat="43.00833" lon="-1.89281">
        <ele>591.317</ele>
        <time>2020-05-13T18:41:29Z</time>
      </trkpt>
      <trkpt lat="43.00831" lon="-1.89283">
        <ele>591.343</ele>
        <time>2020-05-13T18:41:09Z</time>
      </trkpt>
      <trkpt lat="43.00828" lon="-1.89289">
        <ele>588.182</ele>
        <time>2020-05-13T18:40:49Z</time>
      </trkpt>
      <trkpt lat="43.00827" lon="-1.89292">
        <ele>588.159</ele>
        <time>2020-05-13T18:40:29Z</time>
      </trkpt>
      <trkpt lat="43.00826" lon="-1.89295">
        <ele>588.121</ele>
        <time>2020-05-13T18:40:09Z</time>
      </trkpt>
      <trkpt lat="43.00822" lon="-1.89301">
        <ele>591.473</ele>
        <time>2020-05-13T18:39:49Z</time>
      </trkpt>
      <trkpt lat="43.00819" lon="-1.89307">
        <ele>586.341</ele>
        <time>2020-05-13T18:39:29Z</time>
      </trkpt>
      <trkpt lat="43.00815" lon="-1.89313">
        <ele>592.025</ele>
        <time>2020-05-13T18:39:09Z</time>
      </trkpt>
      <trkpt lat="43.00813" lon="-1.89316">
        <ele>592.08</ele>
        <time>2020-05-13T18:38:49Z</time>
      </trkpt>
      <trkpt lat="43.00812" lon="-1.89319">
        <ele>592.027</ele>
        <time>2020-05-13T18:38:29Z</time>
      </trkpt>
      <trkpt lat="43.00812" lon="-1.8932">
        <ele>592.082</ele>
        <time>2020-05-13T18:38:09Z</time>
      </trkpt>
      <trkpt lat="43.0081" lon="-1.89322">
        <ele>592.908</ele>
        <time>2020-05-13T18:37:49Z</time>
      </trkpt>
      <trkpt lat="43.00807" lon="-1.89329">
        <ele>592.417</ele>
        <time>2020-05-13T18:37:29Z</time>
      </trkpt>
      <trkpt lat="43.00802" lon="-1.89338">
        <ele>592.161</ele>
        <time>2020-05-13T18:37:09Z</time>
      </trkpt>
      <trkpt lat="43.00799" lon="-1.89345">
        <ele>592.181</ele>
        <time>2020-05-13T18:36:49Z</time>
      </trkpt>
      <trkpt lat="43.00796" lon="-1.89352">
        <ele>591.058</ele>
        <time>2020-05-13T18:36:29Z</time>
      </trkpt>
      <trkpt lat="43.00782" lon="-1.8938">
        <ele>578.44</ele>
        <time>2020-05-13T18:36:09Z</time>
      </trkpt>
      <trkpt lat="43.00779" lon="-1.89376">
        <ele>578.432</ele>
        <time>2020-05-13T18:35:49Z</time>
      </trkpt>
      <trkpt lat="43.00777" lon="-1.89375">
        <ele>578.49</ele>
        <time>2020-05-13T18:35:29Z</time>
      </trkpt>
      <trkpt lat="43.00772" lon="-1.89371">
        <ele>582.554</ele>
        <time>2020-05-13T18:35:09Z</time>
      </trkpt>
      <trkpt lat="43.00766" lon="-1.89367">
        <ele>580.069</ele>
        <time>2020-05-13T18:34:49Z</time>
      </trkpt>
      <trkpt lat="43.00759" lon="-1.89363">
        <ele>580.046</ele>
        <time>2020-05-13T18:34:29Z</time>
      </trkpt>
      <trkpt lat="43.00752" lon="-1.89359">
        <ele>584.561</ele>
        <time>2020-05-13T18:34:09Z</time>
      </trkpt>
      <trkpt lat="43.00747" lon="-1.89355">
        <ele>583.808</ele>
        <time>2020-05-13T18:33:49Z</time>
      </trkpt>
      <trkpt lat="43.00742" lon="-1.89352">
        <ele>583.825</ele>
        <time>2020-05-13T18:33:29Z</time>
      </trkpt>
      <trkpt lat="43.00739" lon="-1.8935">
        <ele>586.205</ele>
        <time>2020-05-13T18:33:09Z</time>
      </trkpt>
      <trkpt lat="43.00736" lon="-1.89348">
        <ele>589.279</ele>
        <time>2020-05-13T18:32:49Z</time>
      </trkpt>
      <trkpt lat="43.00733" lon="-1.89346">
        <ele>589.227</ele>
        <time>2020-05-13T18:32:29Z</time>
      </trkpt>
      <trkpt lat="43.00732" lon="-1.89345">
        <ele>589.269</ele>
        <time>2020-05-13T18:32:09Z</time>
      </trkpt>
      <trkpt lat="43.00728" lon="-1.89341">
        <ele>588.891</ele>
        <time>2020-05-13T18:31:49Z</time>
      </trkpt>
      <trkpt lat="43.00721" lon="-1.89335">
        <ele>590.689</ele>
        <time>2020-05-13T18:31:29Z</time>
      </trkpt>
      <trkpt lat="43.00714" lon="-1.89328">
        <ele>590.613</ele>
        <time>2020-05-13T18:31:09Z</time>
      </trkpt>
      <trkpt lat="43.00706" lon="-1.89323">
        <ele>600.538</ele>
        <time>2020-05-13T18:30:49Z</time>
      </trkpt>
      <trkpt lat="43.00694" lon="-1.89324">
        <ele>604.165</ele>
        <time>2020-05-13T18:30:29Z</time>
      </trkpt>
      <trkpt lat="43.0069" lon="-1.89328">
        <ele>602.31</ele>
        <time>2020-05-13T18:30:09Z</time>
      </trkpt>
      <trkpt lat="43.00684" lon="-1.89336">
        <ele>602.708</ele>
        <time>2020-05-13T18:29:49Z</time>
      </trkpt>
      <trkpt lat="43.0068" lon="-1.89341">
        <ele>600.924</ele>
        <time>2020-05-13T18:29:29Z</time>
      </trkpt>
      <trkpt lat="43.00673" lon="-1.89351">
        <ele>599.604</ele>
        <time>2020-05-13T18:29:09Z</time>
      </trkpt>
      <trkpt lat="43.00654" lon="-1.89374">
        <ele>599.769</ele>
        <time>2020-05-13T18:28:49Z</time>
      </trkpt>
      <trkpt lat="43.00651" lon="-1.89378">
        <ele>600.077</ele>
        <time>2020-05-13T18:28:29Z</time>
      </trkpt>
      <trkpt lat="43.0064" lon="-1.8939">
        <ele>589.899</ele>
        <time>2020-05-13T18:28:09Z</time>
      </trkpt>
      <trkpt lat="43.00633" lon="-1.89398">
        <ele>589.871</ele>
        <time>2020-05-13T18:27:49Z</time>
      </trkpt>
      <trkpt lat="43.00619" lon="-1.89409">
        <ele>584.279</ele>
        <time>2020-05-13T18:27:29Z</time>
      </trkpt>
      <trkpt lat="43.00615" lon="-1.89413">
        <ele>583.123</ele>
        <time>2020-05-13T18:27:09Z</time>
      </trkpt>
      <trkpt lat="43.00613" lon="-1.89415">
        <ele>582.648</ele>
        <time>2020-05-13T18:26:49Z</time>
      </trkpt>
      <trkpt lat="43.00607" lon="-1.8942">
        <ele>582.615</ele>
        <time>2020-05-13T18:26:29Z</time>
      </trkpt>
      <trkpt lat="43.00601" lon="-1.89426">
        <ele>576.68</ele>
        <time>2020-05-13T18:26:09Z</time>
      </trkpt>
      <trkpt lat="43.00597" lon="-1.89428">
        <ele>576.608</ele>
        <time>2020-05-13T18:25:49Z</time>
      </trkpt>
      <trkpt lat="43.0058" lon="-1.8944">
        <ele>583.111</ele>
        <time>2020-05-13T18:25:29Z</time>
      </trkpt>
      <trkpt lat="43.00574" lon="-1.89444">
        <ele>583.083</ele>
        <time>2020-05-13T18:25:09Z</time>
      </trkpt>
      <trkpt lat="43.00564" lon="-1.89447">
        <ele>584.562</ele>
        <time>2020-05-13T18:24:49Z</time>
      </trkpt>
      <trkpt lat="43.00546" lon="-1.89448">
        <ele>587.777</ele>
        <time>2020-05-13T18:24:29Z</time>
      </trkpt>
      <trkpt lat="43.00525" lon="-1.89448">
        <ele>585.389</ele>
        <time>2020-05-13T18:24:09Z</time>
      </trkpt>
      <trkpt lat="43.00499" lon="-1.89437">
        <ele>589.081</ele>
        <time>2020-05-13T18:23:49Z</time>
      </trkpt>
      <trkpt lat="43.00406" lon="-1.89355">
        <ele>579.059</ele>
        <time>2020-05-13T18:23:29Z</time>
      </trkpt>
      <trkpt lat="43.0037" lon="-1.89333">
        <ele>578.023</ele>
        <time>2020-05-13T18:23:09Z</time>
      </trkpt>
      <trkpt lat="43.00347" lon="-1.89324">
        <ele>580.368</ele>
        <time>2020-05-13T18:22:49Z</time>
      </trkpt>
      <trkpt lat="43.00291" lon="-1.89297">
        <ele>576.345</ele>
        <time>2020-05-13T18:22:29Z</time>
      </trkpt>
      <trkpt lat="43.00273" lon="-1.89279">
        <ele>579.27</ele>
        <time>2020-05-13T18:22:09Z</time>
      </trkpt>
      <trkpt lat="43.0026" lon="-1.89263">
        <ele>575.308</ele>
        <time>2020-05-13T18:21:49Z</time>
      </trkpt>
      <trkpt lat="43.00246" lon="-1.89236">
        <ele>579.519</ele>
        <time>2020-05-13T18:21:29Z</time>
      </trkpt>
      <trkpt lat="43.00232" lon="-1.89192">
        <ele>574.681</ele>
        <time>2020-05-13T18:21:09Z</time>
      </trkpt>
      <trkpt lat="43.00229" lon="-1.89172">
        <ele>577.967</ele>
        <time>2020-05-13T18:20:49Z</time>
      </trkpt>
      <trkpt lat="43.00228" lon="-1.89165">
        <ele>577.965</ele>
        <time>2020-05-13T18:20:29Z</time>
      </trkpt>
      <trkpt lat="43.00224" lon="-1.8915">
        <ele>573.487</ele>
        <time>2020-05-13T18:20:09Z</time>
      </trkpt>
      <trkpt lat="43.00216" lon="-1.89073">
        <ele>576.679</ele>
        <time>2020-05-13T18:19:49Z</time>
      </trkpt>
      <trkpt lat="43.00215" lon="-1.89051">
        <ele>574.067</ele>
        <time>2020-05-13T18:19:29Z</time>
      </trkpt>
      <trkpt lat="43.00215" lon="-1.89042">
        <ele>574.091</ele>
        <time>2020-05-13T18:19:09Z</time>
      </trkpt>
      <trkpt lat="43.00214" lon="-1.89042">
        <ele>571.996</ele>
        <time>2020-05-13T18:18:49Z</time>
      </trkpt>
      <trkpt lat="43.00205" lon="-1.89031">
        <ele>572.013</ele>
        <time>2020-05-13T18:18:29Z</time>
      </trkpt>
      <trkpt lat="43.00196" lon="-1.89008">
        <ele>572.128</ele>
        <time>2020-05-13T18:18:09Z</time>
      </trkpt>
      <trkpt lat="43.00185" lon="-1.88997">
        <ele>571.808</ele>
        <time>2020-05-13T18:17:49Z</time>
      </trkpt>
      <trkpt lat="43.00183" lon="-1.88994">
        <ele>571.811</ele>
        <time>2020-05-13T18:17:29Z</time>
      </trkpt>
      <trkpt lat="43.00177" lon="-1.88987">
        <ele>572.947</ele>
        <time>2020-05-13T18:17:09Z</time>
      </trkpt>
      <trkpt lat="43.00168" lon="-1.88977">
        <ele>573.145</ele>
        <time>2020-05-13T18:16:49Z</time>
      </trkpt>
      <trkpt lat="43.00164" lon="-1.88973">
        <ele>573.194</ele>
        <time>2020-05-13T18:16:29Z</time>
      </trkpt>
      <trkpt lat="43.00161" lon="-1.8897">
        <ele>573.116</ele>
        <time>2020-05-13T18:16:09Z</time>
      </trkpt>
      <trkpt lat="43.00158" lon="-1.88966">
        <ele>573.078</ele>
        <time>2020-05-13T18:15:49Z</time>
      </trkpt>
      <trkpt lat="43.00151" lon="-1.88959">
        <ele>573.036</ele>
        <time>2020-05-13T18:15:29Z</time>
      </trkpt>
      <trkpt lat="43.00148" lon="-1.88956">
        <ele>575.22</ele>
        <time>2020-05-13T18:15:09Z</time>
      </trkpt>
      <trkpt lat="43.00145" lon="-1.88953">
        <ele>573.015</ele>
        <time>2020-05-13T18:14:49Z</time>
      </trkpt>
      <trkpt lat="43.00142" lon="-1.88949">
        <ele>573.022</ele>
        <time>2020-05-13T18:14:29Z</time>
      </trkpt>
      <trkpt lat="43.00138" lon="-1.88946">
        <ele>574.067</ele>
        <time>2020-05-13T18:14:09Z</time>
      </trkpt>
      <trkpt lat="43.00135" lon="-1.88942">
        <ele>572.908</ele>
        <time>2020-05-13T18:13:49Z</time>
      </trkpt>
      <trkpt lat="43.00132" lon="-1.88939">
        <ele>575.207</ele>
        <time>2020-05-13T18:13:29Z</time>
      </trkpt>
      <trkpt lat="43.00129" lon="-1.88935">
        <ele>575.261</ele>
        <time>2020-05-13T18:13:09Z</time>
      </trkpt>
      <trkpt lat="43.00122" lon="-1.88929">
        <ele>572.631</ele>
        <time>2020-05-13T18:12:49Z</time>
      </trkpt>
      <trkpt lat="43.00119" lon="-1.88925">
        <ele>572.682</ele>
        <time>2020-05-13T18:12:29Z</time>
      </trkpt>
      <trkpt lat="43.00116" lon="-1.88922">
        <ele>572.634</ele>
        <time>2020-05-13T18:12:09Z</time>
      </trkpt>
      <trkpt lat="43.00113" lon="-1.88918">
        <ele>572.856</ele>
        <time>2020-05-13T18:11:49Z</time>
      </trkpt>
      <trkpt lat="43.0011" lon="-1.88915">
        <ele>573.774</ele>
        <time>2020-05-13T18:11:29Z</time>
      </trkpt>
      <trkpt lat="43.00106" lon="-1.88912">
        <ele>573.718</ele>
        <time>2020-05-13T18:11:09Z</time>
      </trkpt>
      <trkpt lat="43.00096" lon="-1.88902">
        <ele>577.663</ele>
        <time>2020-05-13T18:10:49Z</time>
      </trkpt>
      <trkpt lat="43.00083" lon="-1.88888">
        <ele>574.26</ele>
        <time>2020-05-13T18:10:29Z</time>
      </trkpt>
      <trkpt lat="43.0008" lon="-1.88885">
        <ele>574.265</ele>
        <time>2020-05-13T18:10:09Z</time>
      </trkpt>
      <trkpt lat="43.0007" lon="-1.88875">
        <ele>573.208</ele>
        <time>2020-05-13T18:09:49Z</time>
      </trkpt>
      <trkpt lat="43.00067" lon="-1.88873">
        <ele>571.913</ele>
        <time>2020-05-13T18:09:29Z</time>
      </trkpt>
      <trkpt lat="43.00064" lon="-1.88871">
        <ele>571.976</ele>
        <time>2020-05-13T18:09:09Z</time>
      </trkpt>
      <trkpt lat="43.00062" lon="-1.88868">
        <ele>571.916</ele>
        <time>2020-05-13T18:08:49Z</time>
      </trkpt>
      <trkpt lat="43.00059" lon="-1.88865">
        <ele>569.992</ele>
        <time>2020-05-13T18:08:29Z</time>
      </trkpt>
      <trkpt lat="43.00056" lon="-1.88862">
        <ele>569.954</ele>
        <time>2020-05-13T18:08:09Z</time>
      </trkpt>
      <trkpt lat="43.00053" lon="-1.8886">
        <ele>569.926</ele>
        <time>2020-05-13T18:07:49Z</time>
      </trkpt>
      <trkpt lat="43.00053" lon="-1.8886">
        <ele>569.964</ele>
        <time>2020-05-13T18:07:29Z</time>
      </trkpt>
      <trkpt lat="43.0005" lon="-1.88857">
        <ele>571.558</ele>
        <time>2020-05-13T18:07:09Z</time>
      </trkpt>
      <trkpt lat="43.00046" lon="-1.88854">
        <ele>571.573</ele>
        <time>2020-05-13T18:06:49Z</time>
      </trkpt>
      <trkpt lat="43.00039" lon="-1.88845">
        <ele>570.92</ele>
        <time>2020-05-13T18:06:29Z</time>
      </trkpt>
      <trkpt lat="43.00037" lon="-1.88842">
        <ele>570.915</ele>
        <time>2020-05-13T18:06:09Z</time>
      </trkpt>
      <trkpt lat="43.00035" lon="-1.8884">
        <ele>570.908</ele>
        <time>2020-05-13T18:05:49Z</time>
      </trkpt>
      <trkpt lat="43.00034" lon="-1.8884">
        <ele>570.911</ele>
        <time>2020-05-13T18:05:29Z</time>
      </trkpt>
      <trkpt lat="43.00032" lon="-1.88838">
        <ele>570.465</ele>
        <time>2020-05-13T18:05:09Z</time>
      </trkpt>
      <trkpt lat="43.00029" lon="-1.88835">
        <ele>570.415</ele>
        <time>2020-05-13T18:04:49Z</time>
      </trkpt>
      <trkpt lat="43.00022" lon="-1.8883">
        <ele>570.949</ele>
        <time>2020-05-13T18:04:29Z</time>
      </trkpt>
      <trkpt lat="43.00016" lon="-1.88826">
        <ele>570.971</ele>
        <time>2020-05-13T18:04:09Z</time>
      </trkpt>
      <trkpt lat="43.00014" lon="-1.88825">
        <ele>570.753</ele>
        <time>2020-05-13T18:03:49Z</time>
      </trkpt>
      <trkpt lat="43.00011" lon="-1.88824">
        <ele>570.771</ele>
        <time>2020-05-13T18:03:29Z</time>
      </trkpt>
      <trkpt lat="43.00008" lon="-1.88822">
        <ele>570.765</ele>
        <time>2020-05-13T18:03:09Z</time>
      </trkpt>
      <trkpt lat="43.00004" lon="-1.88821">
        <ele>570.93</ele>
        <time>2020-05-13T18:02:49Z</time>
      </trkpt>
      <trkpt lat="43.00001" lon="-1.88819">
        <ele>570.937</ele>
        <time>2020-05-13T18:02:29Z</time>
      </trkpt>
      <trkpt lat="42.99998" lon="-1.88818">
        <ele>570.922</ele>
        <time>2020-05-13T18:02:09Z</time>
      </trkpt>
      <trkpt lat="42.99981" lon="-1.88813">
        <ele>570.508</ele>
        <time>2020-05-13T18:01:49Z</time>
      </trkpt>
      <trkpt lat="42.99968" lon="-1.88813">
        <ele>570.417</ele>
        <time>2020-05-13T18:01:29Z</time>
      </trkpt>
      <trkpt lat="42.99951" lon="-1.88816">
        <ele>570.243</ele>
        <time>2020-05-13T18:01:09Z</time>
      </trkpt>
      <trkpt lat="42.99936" lon="-1.88821">
        <ele>570.182</ele>
        <time>2020-05-13T18:00:49Z</time>
      </trkpt>
      <trkpt lat="42.99921" lon="-1.88831">
        <ele>570.368</ele>
        <time>2020-05-13T18:00:29Z</time>
      </trkpt>
      <trkpt lat="42.99918" lon="-1.88835">
        <ele>570.36</ele>
        <time>2020-05-13T18:00:09Z</time>
      </trkpt>
      <trkpt lat="42.99915" lon="-1.88838">
        <ele>570.342</ele>
        <time>2020-05-13T17:59:49Z</time>
      </trkpt>
      <trkpt lat="42.99911" lon="-1.88842">
        <ele>570.39</ele>
        <time>2020-05-13T17:59:29Z</time>
      </trkpt>
      <trkpt lat="42.99909" lon="-1.88841">
        <ele>570.394</ele>
        <time>2020-05-13T17:59:09Z</time>
      </trkpt>
      <trkpt lat="42.99904" lon="-1.88838">
        <ele>570.479</ele>
        <time>2020-05-13T17:58:49Z</time>
      </trkpt>
      <trkpt lat="42.99891" lon="-1.88846">
        <ele>570.946</ele>
        <time>2020-05-13T17:58:29Z</time>
      </trkpt>
      <trkpt lat="42.99868" lon="-1.88859">
        <ele>570.411</ele>
        <time>2020-05-13T17:58:09Z</time>
      </trkpt>
      <trkpt lat="42.99844" lon="-1.88871">
        <ele>568.308</ele>
        <time>2020-05-13T17:57:49Z</time>
      </trkpt>
      <trkpt lat="42.99832" lon="-1.88876">
        <ele>568.415</ele>
        <time>2020-05-13T17:57:29Z</time>
      </trkpt>
      <trkpt lat="42.99816" lon="-1.88877">
        <ele>567.841</ele>
        <time>2020-05-13T17:57:09Z</time>
      </trkpt>
      <trkpt lat="42.99797" lon="-1.88878">
        <ele>568.471</ele>
        <time>2020-05-13T17:56:49Z</time>
      </trkpt>
      <trkpt lat="42.99778" lon="-1.88879">
        <ele>567.972</ele>
        <time>2020-05-13T17:56:29Z</time>
      </trkpt>
      <trkpt lat="42.99742" lon="-1.88879">
        <ele>566.964</ele>
        <time>2020-05-13T17:56:09Z</time>
      </trkpt>
      <trkpt lat="42.99732" lon="-1.8888">
        <ele>566.456</ele>
        <time>2020-05-13T17:55:49Z</time>
      </trkpt>
      <trkpt lat="42.99716" lon="-1.88881">
        <ele>565.864</ele>
        <time>2020-05-13T17:55:29Z</time>
      </trkpt>
      <trkpt lat="42.99707" lon="-1.88883">
        <ele>565.918</ele>
        <time>2020-05-13T17:55:09Z</time>
      </trkpt>
      <trkpt lat="42.99696" lon="-1.88888">
        <ele>566.553</ele>
        <time>2020-05-13T17:54:49Z</time>
      </trkpt>
      <trkpt lat="42.99683" lon="-1.88894">
        <ele>565.23</ele>
        <time>2020-05-13T17:54:29Z</time>
      </trkpt>
      <trkpt lat="42.99682" lon="-1.88894">
        <ele>565.275</ele>
        <time>2020-05-13T17:54:09Z</time>
      </trkpt>
      <trkpt lat="42.99676" lon="-1.88898">
        <ele>565.308</ele>
        <time>2020-05-13T17:53:49Z</time>
      </trkpt>
      <trkpt lat="42.99671" lon="-1.88903">
        <ele>564.703</ele>
        <time>2020-05-13T17:53:29Z</time>
      </trkpt>
      <trkpt lat="42.99661" lon="-1.88911">
        <ele>565.021</ele>
        <time>2020-05-13T17:53:09Z</time>
      </trkpt>
      <trkpt lat="42.99658" lon="-1.88914">
        <ele>564.311</ele>
        <time>2020-05-13T17:52:49Z</time>
      </trkpt>
      <trkpt lat="42.99655" lon="-1.88917">
        <ele>564.368</ele>
        <time>2020-05-13T17:52:29Z</time>
      </trkpt>
      <trkpt lat="42.99654" lon="-1.88918">
        <ele>564.84</ele>
        <time>2020-05-13T17:52:09Z</time>
      </trkpt>
      <trkpt lat="42.99647" lon="-1.88924">
        <ele>564.812</ele>
        <time>2020-05-13T17:51:49Z</time>
      </trkpt>
      <trkpt lat="42.99634" lon="-1.88933">
        <ele>564.52</ele>
        <time>2020-05-13T17:51:29Z</time>
      </trkpt>
      <trkpt lat="42.99627" lon="-1.88939">
        <ele>564.364</ele>
        <time>2020-05-13T17:51:09Z</time>
      </trkpt>
      <trkpt lat="42.99624" lon="-1.88942">
        <ele>564.549</ele>
        <time>2020-05-13T17:50:49Z</time>
      </trkpt>
      <trkpt lat="42.99617" lon="-1.88946">
        <ele>564.576</ele>
        <time>2020-05-13T17:50:29Z</time>
      </trkpt>
      <trkpt lat="42.99611" lon="-1.88951">
        <ele>564.571</ele>
        <time>2020-05-13T17:50:09Z</time>
      </trkpt>
      <trkpt lat="42.99604" lon="-1.88956">
        <ele>563.908</ele>
        <time>2020-05-13T17:49:49Z</time>
      </trkpt>
      <trkpt lat="42.99597" lon="-1.8896">
        <ele>567.313</ele>
        <time>2020-05-13T17:49:29Z</time>
      </trkpt>
      <trkpt lat="42.99594" lon="-1.88963">
        <ele>567.385</ele>
        <time>2020-05-13T17:49:09Z</time>
      </trkpt>
      <trkpt lat="42.99586" lon="-1.88967">
        <ele>564.373</ele>
        <time>2020-05-13T17:48:49Z</time>
      </trkpt>
      <trkpt lat="42.99585" lon="-1.88968">
        <ele>564.398</ele>
        <time>2020-05-13T17:48:29Z</time>
      </trkpt>
      <trkpt lat="42.99572" lon="-1.88975">
        <ele>571.84</ele>
        <time>2020-05-13T17:48:09Z</time>
      </trkpt>
      <trkpt lat="42.99566" lon="-1.88978">
        <ele>565.512</ele>
        <time>2020-05-13T17:47:49Z</time>
      </trkpt>
      <trkpt lat="42.99561" lon="-1.8898">
        <ele>565.97</ele>
        <time>2020-05-13T17:47:29Z</time>
      </trkpt>
      <trkpt lat="42.99556" lon="-1.88982">
        <ele>565.344</ele>
        <time>2020-05-13T17:47:09Z</time>
      </trkpt>
      <trkpt lat="42.9955" lon="-1.88984">
        <ele>565.349</ele>
        <time>2020-05-13T17:46:49Z</time>
      </trkpt>
      <trkpt lat="42.9954" lon="-1.88987">
        <ele>567.276</ele>
        <time>2020-05-13T17:46:29Z</time>
      </trkpt>
      <trkpt lat="42.99532" lon="-1.88989">
        <ele>565.051</ele>
        <time>2020-05-13T17:46:09Z</time>
      </trkpt>
      <trkpt lat="42.99529" lon="-1.88989">
        <ele>568.808</ele>
        <time>2020-05-13T17:45:49Z</time>
      </trkpt>
      <trkpt lat="42.99526" lon="-1.88989">
        <ele>568.825</ele>
        <time>2020-05-13T17:45:29Z</time>
      </trkpt>
      <trkpt lat="42.99521" lon="-1.88989">
        <ele>568.805</ele>
        <time>2020-05-13T17:45:09Z</time>
      </trkpt>
      <trkpt lat="42.99507" lon="-1.88988">
        <ele>564.679</ele>
        <time>2020-05-13T17:44:49Z</time>
      </trkpt>
      <trkpt lat="42.99498" lon="-1.88987">
        <ele>563.292</ele>
        <time>2020-05-13T17:44:29Z</time>
      </trkpt>
      <trkpt lat="42.99484" lon="-1.88985">
        <ele>563.484</ele>
        <time>2020-05-13T17:44:09Z</time>
      </trkpt>
      <trkpt lat="42.99467" lon="-1.88983">
        <ele>562.836</ele>
        <time>2020-05-13T17:43:49Z</time>
      </trkpt>
      <trkpt lat="42.9946" lon="-1.88982">
        <ele>562.854</ele>
        <time>2020-05-13T17:43:29Z</time>
      </trkpt>
      <trkpt lat="42.99455" lon="-1.88982">
        <ele>562.958</ele>
        <time>2020-05-13T17:43:09Z</time>
      </trkpt>
      <trkpt lat="42.99453" lon="-1.88982">
        <ele>562.973</ele>
        <time>2020-05-13T17:42:49Z</time>
      </trkpt>
      <trkpt lat="42.99451" lon="-1.88982">
        <ele>562.95</ele>
        <time>2020-05-13T17:42:29Z</time>
      </trkpt>
      <trkpt lat="42.99447" lon="-1.88983">
        <ele>562.615</ele>
        <time>2020-05-13T17:42:09Z</time>
      </trkpt>
      <trkpt lat="42.99444" lon="-1.88984">
        <ele>562.608</ele>
        <time>2020-05-13T17:41:49Z</time>
      </trkpt>
      <trkpt lat="42.99431" lon="-1.88988">
        <ele>562.505</ele>
        <time>2020-05-13T17:41:29Z</time>
      </trkpt>
      <trkpt lat="42.9943" lon="-1.88989">
        <ele>562.632</ele>
        <time>2020-05-13T17:41:09Z</time>
      </trkpt>
      <trkpt lat="42.99417" lon="-1.88992">
        <ele>558.512</ele>
        <time>2020-05-13T17:40:49Z</time>
      </trkpt>
      <trkpt lat="42.99406" lon="-1.88997">
        <ele>558.253</ele>
        <time>2020-05-13T17:40:29Z</time>
      </trkpt>
      <trkpt lat="42.99395" lon="-1.89001">
        <ele>558.135</ele>
        <time>2020-05-13T17:40:09Z</time>
      </trkpt>
      <trkpt lat="42.99389" lon="-1.89002">
        <ele>558.127</ele>
        <time>2020-05-13T17:39:49Z</time>
      </trkpt>
      <trkpt lat="42.99376" lon="-1.89003">
        <ele>558.095</ele>
        <time>2020-05-13T17:39:29Z</time>
      </trkpt>
      <trkpt lat="42.99365" lon="-1.89003">
        <ele>558.059</ele>
        <time>2020-05-13T17:39:09Z</time>
      </trkpt>
      <trkpt lat="42.99355" lon="-1.89">
        <ele>557.984</ele>
        <time>2020-05-13T17:38:49Z</time>
      </trkpt>
      <trkpt lat="42.99349" lon="-1.88998">
        <ele>557.721</ele>
        <time>2020-05-13T17:38:29Z</time>
      </trkpt>
      <trkpt lat="42.99344" lon="-1.88993">
        <ele>558.016</ele>
        <time>2020-05-13T17:38:09Z</time>
      </trkpt>
      <trkpt lat="42.99336" lon="-1.88983">
        <ele>557.908</ele>
        <time>2020-05-13T17:37:49Z</time>
      </trkpt>
      <trkpt lat="42.99323" lon="-1.88964">
        <ele>557.811</ele>
        <time>2020-05-13T17:37:29Z</time>
      </trkpt>
      <trkpt lat="42.99305" lon="-1.88936">
        <ele>558.247</ele>
        <time>2020-05-13T17:37:09Z</time>
      </trkpt>
      <trkpt lat="42.99303" lon="-1.88932">
        <ele>558.226</ele>
        <time>2020-05-13T17:36:49Z</time>
      </trkpt>
      <trkpt lat="42.99298" lon="-1.88925">
        <ele>558.227</ele>
        <time>2020-05-13T17:36:29Z</time>
      </trkpt>
      <trkpt lat="42.99295" lon="-1.88921">
        <ele>558.399</ele>
        <time>2020-05-13T17:36:09Z</time>
      </trkpt>
      <trkpt lat="42.99288" lon="-1.88912">
        <ele>558.311</ele>
        <time>2020-05-13T17:35:49Z</time>
      </trkpt>
      <trkpt lat="42.99281" lon="-1.88902">
        <ele>558.279</ele>
        <time>2020-05-13T17:35:29Z</time>
      </trkpt>
      <trkpt lat="42.99265" lon="-1.88884">
        <ele>558.213</ele>
        <time>2020-05-13T17:35:09Z</time>
      </trkpt>
      <trkpt lat="42.99246" lon="-1.88863">
        <ele>558.078</ele>
        <time>2020-05-13T17:34:49Z</time>
      </trkpt>
      <trkpt lat="42.99242" lon="-1.88857">
        <ele>558.115</ele>
        <time>2020-05-13T17:34:29Z</time>
      </trkpt>
      <trkpt lat="42.99239" lon="-1.88854">
        <ele>558.01</ele>
        <time>2020-05-13T17:34:09Z</time>
      </trkpt>
      <trkpt lat="42.99236" lon="-1.8885">
        <ele>558.008</ele>
        <time>2020-05-13T17:33:49Z</time>
      </trkpt>
      <trkpt lat="42.99233" lon="-1.88846">
        <ele>558.019</ele>
        <time>2020-05-13T17:33:29Z</time>
      </trkpt>
      <trkpt lat="42.9923" lon="-1.88841">
        <ele>558.081</ele>
        <time>2020-05-13T17:33:09Z</time>
      </trkpt>
      <trkpt lat="42.99227" lon="-1.88835">
        <ele>558.267</ele>
        <time>2020-05-13T17:32:49Z</time>
      </trkpt>
      <trkpt lat="42.99216" lon="-1.88817">
        <ele>558.073</ele>
        <time>2020-05-13T17:32:29Z</time>
      </trkpt>
      <trkpt lat="42.99207" lon="-1.888">
        <ele>558.045</ele>
        <time>2020-05-13T17:32:09Z</time>
      </trkpt>
      <trkpt lat="42.99196" lon="-1.88781">
        <ele>558.267</ele>
        <time>2020-05-13T17:31:49Z</time>
      </trkpt>
      <trkpt lat="42.99185" lon="-1.88765">
        <ele>558.065</ele>
        <time>2020-05-13T17:31:29Z</time>
      </trkpt>
      <trkpt lat="42.99173" lon="-1.88751">
        <ele>558.849</ele>
        <time>2020-05-13T17:31:09Z</time>
      </trkpt>
      <trkpt lat="42.99164" lon="-1.88743">
        <ele>558.984</ele>
        <time>2020-05-13T17:30:49Z</time>
      </trkpt>
      <trkpt lat="42.99159" lon="-1.88742">
        <ele>558.911</ele>
        <time>2020-05-13T17:30:29Z</time>
      </trkpt>
      <trkpt lat="42.99154" lon="-1.88741">
        <ele>559.026</ele>
        <time>2020-05-13T17:30:09Z</time>
      </trkpt>
      <trkpt lat="42.99152" lon="-1.88741">
        <ele>559.008</ele>
        <time>2020-05-13T17:29:49Z</time>
      </trkpt>
      <trkpt lat="42.99142" lon="-1.88742">
        <ele>558.708</ele>
        <time>2020-05-13T17:29:29Z</time>
      </trkpt>
      <trkpt lat="42.99133" lon="-1.88745">
        <ele>558.626</ele>
        <time>2020-05-13T17:29:09Z</time>
      </trkpt>
      <trkpt lat="42.99115" lon="-1.88755">
        <ele>559.525</ele>
        <time>2020-05-13T17:28:49Z</time>
      </trkpt>
      <trkpt lat="42.99115" lon="-1.88756">
        <ele>559.558</ele>
        <time>2020-05-13T17:28:29Z</time>
      </trkpt>
      <trkpt lat="42.99113" lon="-1.88758">
        <ele>560.81</ele>
        <time>2020-05-13T17:28:09Z</time>
      </trkpt>
      <trkpt lat="42.99111" lon="-1.8876">
        <ele>560.832</ele>
        <time>2020-05-13T17:27:49Z</time>
      </trkpt>
      <trkpt lat="42.99108" lon="-1.88765">
        <ele>559.87</ele>
        <time>2020-05-13T17:27:29Z</time>
      </trkpt>
      <trkpt lat="42.99103" lon="-1.88773">
        <ele>562.434</ele>
        <time>2020-05-13T17:27:09Z</time>
      </trkpt>
      <trkpt lat="42.99101" lon="-1.88776">
        <ele>562.459</ele>
        <time>2020-05-13T17:26:49Z</time>
      </trkpt>
      <trkpt lat="42.991" lon="-1.8878">
        <ele>559.686</ele>
        <time>2020-05-13T17:26:29Z</time>
      </trkpt>
      <trkpt lat="42.99098" lon="-1.88783">
        <ele>559.631</ele>
        <time>2020-05-13T17:26:09Z</time>
      </trkpt>
      <trkpt lat="42.99093" lon="-1.88793">
        <ele>560.808</ele>
        <time>2020-05-13T17:25:49Z</time>
      </trkpt>
      <trkpt lat="42.99088" lon="-1.88804">
        <ele>559.72</ele>
        <time>2020-05-13T17:25:29Z</time>
      </trkpt>
      <trkpt lat="42.99083" lon="-1.88815">
        <ele>559.028</ele>
        <time>2020-05-13T17:25:09Z</time>
      </trkpt>
      <trkpt lat="42.99077" lon="-1.88828">
        <ele>560.275</ele>
        <time>2020-05-13T17:24:49Z</time>
      </trkpt>
      <trkpt lat="42.99073" lon="-1.88836">
        <ele>560.299</ele>
        <time>2020-05-13T17:24:29Z</time>
      </trkpt>
      <trkpt lat="42.99071" lon="-1.88841">
        <ele>557.771</ele>
        <time>2020-05-13T17:24:09Z</time>
      </trkpt>
      <trkpt lat="42.99065" lon="-1.8885">
        <ele>565.043</ele>
        <time>2020-05-13T17:23:49Z</time>
      </trkpt>
      <trkpt lat="42.99062" lon="-1.88854">
        <ele>557.781</ele>
        <time>2020-05-13T17:23:29Z</time>
      </trkpt>
      <trkpt lat="42.99058" lon="-1.88859">
        <ele>558.675</ele>
        <time>2020-05-13T17:23:09Z</time>
      </trkpt>
      <trkpt lat="42.99056" lon="-1.88861">
        <ele>558.69</ele>
        <time>2020-05-13T17:22:49Z</time>
      </trkpt>
      <trkpt lat="42.99053" lon="-1.88863">
        <ele>558.637</ele>
        <time>2020-05-13T17:22:29Z</time>
      </trkpt>
      <trkpt lat="42.9905" lon="-1.88865">
        <ele>557.752</ele>
        <time>2020-05-13T17:22:09Z</time>
      </trkpt>
      <trkpt lat="42.99046" lon="-1.88867">
        <ele>557.708</ele>
        <time>2020-05-13T17:21:49Z</time>
      </trkpt>
      <trkpt lat="42.99044" lon="-1.88867">
        <ele>557.726</ele>
        <time>2020-05-13T17:21:29Z</time>
      </trkpt>
      <trkpt lat="42.9904" lon="-1.88869">
        <ele>557.424</ele>
        <time>2020-05-13T17:21:09Z</time>
      </trkpt>
      <trkpt lat="42.99033" lon="-1.88871">
        <ele>557.688</ele>
        <time>2020-05-13T17:20:49Z</time>
      </trkpt>
      <trkpt lat="42.99028" lon="-1.88872">
        <ele>557.68</ele>
        <time>2020-05-13T17:20:29Z</time>
      </trkpt>
      <trkpt lat="42.99023" lon="-1.88873">
        <ele>557.882</ele>
        <time>2020-05-13T17:20:09Z</time>
      </trkpt>
      <trkpt lat="42.99019" lon="-1.88874">
        <ele>557.834</ele>
        <time>2020-05-13T17:19:49Z</time>
      </trkpt>
      <trkpt lat="42.99015" lon="-1.88874">
        <ele>558.482</ele>
        <time>2020-05-13T17:19:29Z</time>
      </trkpt>
      <trkpt lat="42.99011" lon="-1.88874">
        <ele>558.466</ele>
        <time>2020-05-13T17:19:09Z</time>
      </trkpt>
      <trkpt lat="42.99008" lon="-1.88874">
        <ele>558.471</ele>
        <time>2020-05-13T17:18:49Z</time>
      </trkpt>
      <trkpt lat="42.99006" lon="-1.88874">
        <ele>558.438</ele>
        <time>2020-05-13T17:18:29Z</time>
      </trkpt>
      <trkpt lat="42.99003" lon="-1.88873">
        <ele>557.863</ele>
        <time>2020-05-13T17:18:09Z</time>
      </trkpt>
      <trkpt lat="42.98999" lon="-1.88872">
        <ele>557.808</ele>
        <time>2020-05-13T17:17:49Z</time>
      </trkpt>
      <trkpt lat="42.98986" lon="-1.88869">
        <ele>557.426</ele>
        <time>2020-05-13T17:17:29Z</time>
      </trkpt>
      <trkpt lat="42.98974" lon="-1.88865">
        <ele>557.515</ele>
        <time>2020-05-13T17:17:09Z</time>
      </trkpt>
      <trkpt lat="42.98962" lon="-1.88862">
        <ele>559.298</ele>
        <time>2020-05-13T17:16:49Z</time>
      </trkpt>
      <trkpt lat="42.98957" lon="-1.88861">
        <ele>562.677</ele>
        <time>2020-05-13T17:16:29Z</time>
      </trkpt>
      <trkpt lat="42.98944" lon="-1.88859">
        <ele>559.929</ele>
        <time>2020-05-13T17:16:09Z</time>
      </trkpt>
      <trkpt lat="42.98941" lon="-1.88858">
        <ele>557.641</ele>
        <time>2020-05-13T17:15:49Z</time>
      </trkpt>
      <trkpt lat="42.98939" lon="-1.88857">
        <ele>557.699</ele>
        <time>2020-05-13T17:15:29Z</time>
      </trkpt>
      <trkpt lat="42.98935" lon="-1.88856">
        <ele>557.683</ele>
        <time>2020-05-13T17:15:09Z</time>
      </trkpt>
      <trkpt lat="42.98932" lon="-1.88854">
        <ele>557.678</ele>
        <time>2020-05-13T17:14:49Z</time>
      </trkpt>
      <trkpt lat="42.98924" lon="-1.88848">
        <ele>558.245</ele>
        <time>2020-05-13T17:14:29Z</time>
      </trkpt>
      <trkpt lat="42.98916" lon="-1.88842">
        <ele>558.14</ele>
        <time>2020-05-13T17:14:09Z</time>
      </trkpt>
      <trkpt lat="42.98906" lon="-1.88836">
        <ele>558.608</ele>
        <time>2020-05-13T17:13:49Z</time>
      </trkpt>
      <trkpt lat="42.98896" lon="-1.8883">
        <ele>558.514</ele>
        <time>2020-05-13T17:13:29Z</time>
      </trkpt>
      <trkpt lat="42.98892" lon="-1.88827">
        <ele>562.568</ele>
        <time>2020-05-13T17:13:09Z</time>
      </trkpt>
      <trkpt lat="42.98888" lon="-1.88824">
        <ele>558.965</ele>
        <time>2020-05-13T17:12:49Z</time>
      </trkpt>
      <trkpt lat="42.98881" lon="-1.88818">
        <ele>558.927</ele>
        <time>2020-05-13T17:12:29Z</time>
      </trkpt>
      <trkpt lat="42.98877" lon="-1.88814">
        <ele>560.379</ele>
        <time>2020-05-13T17:12:09Z</time>
      </trkpt>
      <trkpt lat="42.98875" lon="-1.88809">
        <ele>560.351</ele>
        <time>2020-05-13T17:11:49Z</time>
      </trkpt>
      <trkpt lat="42.9887" lon="-1.88799">
        <ele>564.559</ele>
        <time>2020-05-13T17:11:29Z</time>
      </trkpt>
      <trkpt lat="42.98869" lon="-1.88791">
        <ele>558.443</ele>
        <time>2020-05-13T17:11:09Z</time>
      </trkpt>
      <trkpt lat="42.9887" lon="-1.88772">
        <ele>558.528</ele>
        <time>2020-05-13T17:10:49Z</time>
      </trkpt>
      <trkpt lat="42.98874" lon="-1.88754">
        <ele>561.165</ele>
        <time>2020-05-13T17:10:29Z</time>
      </trkpt>
      <trkpt lat="42.98881" lon="-1.88741">
        <ele>562.83</ele>
        <time>2020-05-13T17:10:09Z</time>
      </trkpt>
      <trkpt lat="42.98895" lon="-1.88718">
        <ele>558.908</ele>
        <time>2020-05-13T17:09:49Z</time>
      </trkpt>
      <trkpt lat="42.98903" lon="-1.88705">
        <ele>560.919</ele>
        <time>2020-05-13T17:09:29Z</time>
      </trkpt>
      <trkpt lat="42.9891" lon="-1.88698">
        <ele>564.381</ele>
        <time>2020-05-13T17:09:09Z</time>
      </trkpt>
      <trkpt lat="42.98916" lon="-1.88695">
        <ele>567.767</ele>
        <time>2020-05-13T17:08:49Z</time>
      </trkpt>
      <trkpt lat="42.98921" lon="-1.88694">
        <ele>561.632</ele>
        <time>2020-05-13T17:08:29Z</time>
      </trkpt>
      <trkpt lat="42.98926" lon="-1.88689">
        <ele>563.554</ele>
        <time>2020-05-13T17:08:09Z</time>
      </trkpt>
      <trkpt lat="42.98939" lon="-1.88674">
        <ele>563.556</ele>
        <time>2020-05-13T17:07:49Z</time>
      </trkpt>
      <trkpt lat="42.98945" lon="-1.88665">
        <ele>564.354</ele>
        <time>2020-05-13T17:07:29Z</time>
      </trkpt>
      <trkpt lat="42.98948" lon="-1.8866">
        <ele>564.378</ele>
        <time>2020-05-13T17:07:09Z</time>
      </trkpt>
      <trkpt lat="42.98954" lon="-1.88647">
        <ele>567.313</ele>
        <time>2020-05-13T17:06:49Z</time>
      </trkpt>
      <trkpt lat="42.98962" lon="-1.88633">
        <ele>567.86</ele>
        <time>2020-05-13T17:06:29Z</time>
      </trkpt>
      <trkpt lat="42.98966" lon="-1.88622">
        <ele>564.635</ele>
        <time>2020-05-13T17:06:09Z</time>
      </trkpt>
      <trkpt lat="42.98965" lon="-1.88611">
        <ele>562.308</ele>
        <time>2020-05-13T17:05:49Z</time>
      </trkpt>
      <trkpt lat="42.98965" lon="-1.886">
        <ele>564.111</ele>
        <time>2020-05-13T17:05:29Z</time>
      </trkpt>
      <trkpt lat="42.98964" lon="-1.88597">
        <ele>564.165</ele>
        <time>2020-05-13T17:05:09Z</time>
      </trkpt>
      <trkpt lat="42.98964" lon="-1.88594">
        <ele>567.615</ele>
        <time>2020-05-13T17:04:49Z</time>
      </trkpt>
      <trkpt lat="42.98962" lon="-1.8859">
        <ele>567.666</ele>
        <time>2020-05-13T17:04:29Z</time>
      </trkpt>
      <trkpt lat="42.98961" lon="-1.88586">
        <ele>567.618</ele>
        <time>2020-05-13T17:04:09Z</time>
      </trkpt>
      <trkpt lat="42.98959" lon="-1.88583">
        <ele>567.64</ele>
        <time>2020-05-13T17:03:49Z</time>
      </trkpt>
      <trkpt lat="42.98958" lon="-1.8858">
        <ele>562.868</ele>
        <time>2020-05-13T17:03:29Z</time>
      </trkpt>
      <trkpt lat="42.98956" lon="-1.88578">
        <ele>562.822</ele>
        <time>2020-05-13T17:03:09Z</time>
      </trkpt>
      <trkpt lat="42.98954" lon="-1.88576">
        <ele>562.897</ele>
        <time>2020-05-13T17:02:49Z</time>
      </trkpt>
      <trkpt lat="42.98952" lon="-1.88574">
        <ele>562.824</ele>
        <time>2020-05-13T17:02:29Z</time>
      </trkpt>
      <trkpt lat="42.9895" lon="-1.88572">
        <ele>562.879</ele>
        <time>2020-05-13T17:02:09Z</time>
      </trkpt>
      <trkpt lat="42.98949" lon="-1.88571">
        <ele>565.408</ele>
        <time>2020-05-13T17:01:49Z</time>
      </trkpt>
      <trkpt lat="42.98945" lon="-1.88569">
        <ele>565.417</ele>
        <time>2020-05-13T17:01:29Z</time>
      </trkpt>
      <trkpt lat="42.98927" lon="-1.88558">
        <ele>565.652</ele>
        <time>2020-05-13T17:01:09Z</time>
      </trkpt>
      <trkpt lat="42.98907" lon="-1.8855">
        <ele>562.658</ele>
        <time>2020-05-13T17:00:49Z</time>
      </trkpt>
      <trkpt lat="42.9889" lon="-1.88545">
        <ele>562.767</ele>
        <time>2020-05-13T17:00:29Z</time>
      </trkpt>
      <trkpt lat="42.98865" lon="-1.88535">
        <ele>567.389</ele>
        <time>2020-05-13T17:00:09Z</time>
      </trkpt>
      <trkpt lat="42.98856" lon="-1.88526">
        <ele>562.681</ele>
        <time>2020-05-13T16:59:49Z</time>
      </trkpt>
      <trkpt lat="42.98849" lon="-1.88518">
        <ele>566.629</ele>
        <time>2020-05-13T16:59:29Z</time>
      </trkpt>
      <trkpt lat="42.98838" lon="-1.88505">
        <ele>568.273</ele>
        <time>2020-05-13T16:59:09Z</time>
      </trkpt>
      <trkpt lat="42.98827" lon="-1.88486">
        <ele>578.888</ele>
        <time>2020-05-13T16:58:49Z</time>
      </trkpt>
      <trkpt lat="42.98819" lon="-1.88469">
        <ele>578.185</ele>
        <time>2020-05-13T16:58:29Z</time>
      </trkpt>
      <trkpt lat="42.98815" lon="-1.88455">
        <ele>580.44</ele>
        <time>2020-05-13T16:58:09Z</time>
      </trkpt>
      <trkpt lat="42.98815" lon="-1.88438">
        <ele>577.608</ele>
        <time>2020-05-13T16:57:49Z</time>
      </trkpt>
      <trkpt lat="42.98816" lon="-1.88428">
        <ele>577.611</ele>
        <time>2020-05-13T16:57:29Z</time>
      </trkpt>
      <trkpt lat="42.98815" lon="-1.88413">
        <ele>571.683</ele>
        <time>2020-05-13T16:57:09Z</time>
      </trkpt>
      <trkpt lat="42.98815" lon="-1.8839">
        <ele>570.162</ele>
        <time>2020-05-13T16:56:49Z</time>
      </trkpt>
      <trkpt lat="42.98818" lon="-1.88356">
        <ele>566.754</ele>
        <time>2020-05-13T16:56:29Z</time>
      </trkpt>
      <trkpt lat="42.98824" lon="-1.8831">
        <ele>569.776</ele>
        <time>2020-05-13T16:56:09Z</time>
      </trkpt>
      <trkpt lat="42.98827" lon="-1.88288">
        <ele>561.978</ele>
        <time>2020-05-13T16:55:49Z</time>
      </trkpt>
      <trkpt lat="42.98827" lon="-1.88284">
        <ele>561.946</ele>
        <time>2020-05-13T16:55:29Z</time>
      </trkpt>
      <trkpt lat="42.98833" lon="-1.88254">
        <ele>565.81</ele>
        <time>2020-05-13T16:55:09Z</time>
      </trkpt>
      <trkpt lat="42.98833" lon="-1.88218">
        <ele>567.025</ele>
        <time>2020-05-13T16:54:49Z</time>
      </trkpt>
      <trkpt lat="42.98739" lon="-1.88037">
        <ele>566.852</ele>
        <time>2020-05-13T16:54:29Z</time>
      </trkpt>
      <trkpt lat="42.98739" lon="-1.88033">
        <ele>565.247</ele>
        <time>2020-05-13T16:54:09Z</time>
      </trkpt>
      <trkpt lat="42.98736" lon="-1.87941">
        <ele>560.408</ele>
        <time>2020-05-13T16:53:49Z</time>
      </trkpt>
      <trkpt lat="42.9875" lon="-1.8786">
        <ele>557.818</ele>
        <time>2020-05-13T16:53:29Z</time>
      </trkpt>
      <trkpt lat="42.98759" lon="-1.87808">
        <ele>560.917</ele>
        <time>2020-05-13T16:53:09Z</time>
      </trkpt>
      <trkpt lat="42.98759" lon="-1.87773">
        <ele>555.636</ele>
        <time>2020-05-13T16:52:49Z</time>
      </trkpt>
      <trkpt lat="42.9875" lon="-1.87729">
        <ele>554.638</ele>
        <time>2020-05-13T16:52:29Z</time>
      </trkpt>
      <trkpt lat="42.98749" lon="-1.87724">
        <ele>554.61</ele>
        <time>2020-05-13T16:52:09Z</time>
      </trkpt>
      <trkpt lat="42.98732" lon="-1.87678">
        <ele>559.072</ele>
        <time>2020-05-13T16:51:49Z</time>
      </trkpt>
      <trkpt lat="42.98695" lon="-1.87643">
        <ele>554.23</ele>
        <time>2020-05-13T16:51:29Z</time>
      </trkpt>
      <trkpt lat="42.98661" lon="-1.87604">
        <ele>552.154</ele>
        <time>2020-05-13T16:51:09Z</time>
      </trkpt>
      <trkpt lat="42.98634" lon="-1.87582">
        <ele>554.329</ele>
        <time>2020-05-13T16:50:49Z</time>
      </trkpt>
      <trkpt lat="42.98621" lon="-1.87554">
        <ele>552.716</ele>
        <time>2020-05-13T16:50:29Z</time>
      </trkpt>
      <trkpt lat="42.9861" lon="-1.87513">
        <ele>551.451</ele>
        <time>2020-05-13T16:50:09Z</time>
      </trkpt>
      <trkpt lat="42.98596" lon="-1.87489">
        <ele>548.008</ele>
        <time>2020-05-13T16:49:49Z</time>
      </trkpt>
      <trkpt lat="42.98579" lon="-1.87448">
        <ele>553.621</ele>
        <time>2020-05-13T16:49:29Z</time>
      </trkpt>
      <trkpt lat="42.98561" lon="-1.87411">
        <ele>551.256</ele>
        <time>2020-05-13T16:49:09Z</time>
      </trkpt>
      <trkpt lat="42.98546" lon="-1.87368">
        <ele>549.574</ele>
        <time>2020-05-13T16:48:49Z</time>
      </trkpt>
      <trkpt lat="42.98514" lon="-1.87272">
        <ele>548.519</ele>
        <time>2020-05-13T16:48:29Z</time>
      </trkpt>
      <trkpt lat="42.98497" lon="-1.8723">
        <ele>543.981</ele>
        <time>2020-05-13T16:48:09Z</time>
      </trkpt>
      <trkpt lat="42.9848" lon="-1.87196">
        <ele>542.313</ele>
        <time>2020-05-13T16:47:49Z</time>
      </trkpt>
      <trkpt lat="42.98476" lon="-1.87185">
        <ele>540.311</ele>
        <time>2020-05-13T16:47:29Z</time>
      </trkpt>
      <trkpt lat="42.98467" lon="-1.8716">
        <ele>541.395</ele>
        <time>2020-05-13T16:47:09Z</time>
      </trkpt>
      <trkpt lat="42.98445" lon="-1.87101">
        <ele>543.44</ele>
        <time>2020-05-13T16:46:49Z</time>
      </trkpt>
      <trkpt lat="42.98429" lon="-1.87061">
        <ele>541.587</ele>
        <time>2020-05-13T16:46:29Z</time>
      </trkpt>
      <trkpt lat="42.984" lon="-1.87028">
        <ele>540.552</ele>
        <time>2020-05-13T16:46:09Z</time>
      </trkpt>
      <trkpt lat="42.98358" lon="-1.86967">
        <ele>543.908</ele>
        <time>2020-05-13T16:45:49Z</time>
      </trkpt>
      <trkpt lat="42.98335" lon="-1.86929">
        <ele>540.326</ele>
        <time>2020-05-13T16:45:29Z</time>
      </trkpt>
      <trkpt lat="42.98318" lon="-1.8688">
        <ele>537.006</ele>
        <time>2020-05-13T16:45:09Z</time>
      </trkpt>
      <trkpt lat="42.983" lon="-1.86823">
        <ele>537.489</ele>
        <time>2020-05-13T16:44:49Z</time>
      </trkpt>
      <trkpt lat="42.98296" lon="-1.86801">
        <ele>540.478</ele>
        <time>2020-05-13T16:44:29Z</time>
      </trkpt>
      <trkpt lat="42.98266" lon="-1.86721">
        <ele>538.01</ele>
        <time>2020-05-13T16:44:09Z</time>
      </trkpt>
      <trkpt lat="42.98245" lon="-1.86683">
        <ele>533.362</ele>
        <time>2020-05-13T16:43:49Z</time>
      </trkpt>
      <trkpt lat="42.98216" lon="-1.86636">
        <ele>533.96</ele>
        <time>2020-05-13T16:43:29Z</time>
      </trkpt>
      <trkpt lat="42.98208" lon="-1.86619">
        <ele>535.744</ele>
        <time>2020-05-13T16:43:09Z</time>
      </trkpt>
      <trkpt lat="42.98203" lon="-1.86609">
        <ele>535.739</ele>
        <time>2020-05-13T16:42:49Z</time>
      </trkpt>
      <trkpt lat="42.98193" lon="-1.86574">
        <ele>533.036</ele>
        <time>2020-05-13T16:42:29Z</time>
      </trkpt>
      <trkpt lat="42.98197" lon="-1.8652">
        <ele>532.991</ele>
        <time>2020-05-13T16:42:09Z</time>
      </trkpt>
      <trkpt lat="42.98203" lon="-1.86474">
        <ele>534.108</ele>
        <time>2020-05-13T16:41:49Z</time>
      </trkpt>
      <trkpt lat="42.98206" lon="-1.86423">
        <ele>532.713</ele>
        <time>2020-05-13T16:41:29Z</time>
      </trkpt>
      <trkpt lat="42.982" lon="-1.86385">
        <ele>534.185</ele>
        <time>2020-05-13T16:41:09Z</time>
      </trkpt>
      <trkpt lat="42.98179" lon="-1.86326">
        <ele>529.773</ele>
        <time>2020-05-13T16:40:49Z</time>
      </trkpt>
      <trkpt lat="42.98144" lon="-1.86264">
        <ele>528.085</ele>
        <time>2020-05-13T16:40:29Z</time>
      </trkpt>
      <trkpt lat="42.9811" lon="-1.86207">
        <ele>528.547</ele>
        <time>2020-05-13T16:40:09Z</time>
      </trkpt>
      <trkpt lat="42.98092" lon="-1.86166">
        <ele>532.769</ele>
        <time>2020-05-13T16:39:49Z</time>
      </trkpt>
      <trkpt lat="42.98085" lon="-1.86145">
        <ele>529.657</ele>
        <time>2020-05-13T16:39:29Z</time>
      </trkpt>
      <trkpt lat="42.98076" lon="-1.86087">
        <ele>527.441</ele>
        <time>2020-05-13T16:39:09Z</time>
      </trkpt>
      <trkpt lat="42.98074" lon="-1.86072">
        <ele>530.536</ele>
        <time>2020-05-13T16:38:49Z</time>
      </trkpt>
      <trkpt lat="42.98063" lon="-1.86018">
        <ele>527.213</ele>
        <time>2020-05-13T16:38:29Z</time>
      </trkpt>
      <trkpt lat="42.98044" lon="-1.85963">
        <ele>526.398</ele>
        <time>2020-05-13T16:38:09Z</time>
      </trkpt>
      <trkpt lat="42.98035" lon="-1.85944">
        <ele>527.708</ele>
        <time>2020-05-13T16:37:49Z</time>
      </trkpt>
      <trkpt lat="42.98029" lon="-1.85932">
        <ele>527.621</ele>
        <time>2020-05-13T16:37:29Z</time>
      </trkpt>
      <trkpt lat="42.98012" lon="-1.85905">
        <ele>526.929</ele>
        <time>2020-05-13T16:37:09Z</time>
      </trkpt>
      <trkpt lat="42.97998" lon="-1.85883">
        <ele>532.147</ele>
        <time>2020-05-13T16:36:49Z</time>
      </trkpt>
      <trkpt lat="42.97962" lon="-1.85835">
        <ele>527.572</ele>
        <time>2020-05-13T16:36:29Z</time>
      </trkpt>
      <trkpt lat="42.97938" lon="-1.85803">
        <ele>524.594</ele>
        <time>2020-05-13T16:36:09Z</time>
      </trkpt>
      <trkpt lat="42.97921" lon="-1.85775">
        <ele>523.886</ele>
        <time>2020-05-13T16:35:49Z</time>
      </trkpt>
      <trkpt lat="42.97896" lon="-1.8574">
        <ele>525.814</ele>
        <time>2020-05-13T16:35:29Z</time>
      </trkpt>
      <trkpt lat="42.97851" lon="-1.85672">
        <ele>527.648</ele>
        <time>2020-05-13T16:35:09Z</time>
      </trkpt>
      <trkpt lat="42.97807" lon="-1.85628">
        <ele>524.053</ele>
        <time>2020-05-13T16:34:49Z</time>
      </trkpt>
      <trkpt lat="42.97773" lon="-1.85602">
        <ele>518.54</ele>
        <time>2020-05-13T16:34:29Z</time>
      </trkpt>
      <trkpt lat="42.97739" lon="-1.85572">
        <ele>524.055</ele>
        <time>2020-05-13T16:34:09Z</time>
      </trkpt>
      <trkpt lat="42.97722" lon="-1.8556">
        <ele>525.008</ele>
        <time>2020-05-13T16:33:49Z</time>
      </trkpt>
      <trkpt lat="42.97708" lon="-1.85545">
        <ele>522.715</ele>
        <time>2020-05-13T16:33:29Z</time>
      </trkpt>
      <trkpt lat="42.97706" lon="-1.85538">
        <ele>524.687</ele>
        <time>2020-05-13T16:33:09Z</time>
      </trkpt>
      <trkpt lat="42.97704" lon="-1.85532">
        <ele>524.617</ele>
        <time>2020-05-13T16:32:49Z</time>
      </trkpt>
      <trkpt lat="42.97701" lon="-1.85525">
        <ele>523.834</ele>
        <time>2020-05-13T16:32:29Z</time>
      </trkpt>
      <trkpt lat="42.977" lon="-1.85522">
        <ele>523.896</ele>
        <time>2020-05-13T16:32:09Z</time>
      </trkpt>
      <trkpt lat="42.97698" lon="-1.85518">
        <ele>523.868</ele>
        <time>2020-05-13T16:31:49Z</time>
      </trkpt>
      <trkpt lat="42.97695" lon="-1.85512">
        <ele>526.816</ele>
        <time>2020-05-13T16:31:29Z</time>
      </trkpt>
      <trkpt lat="42.97694" lon="-1.85509">
        <ele>522.93</ele>
        <time>2020-05-13T16:31:09Z</time>
      </trkpt>
      <trkpt lat="42.97691" lon="-1.85501">
        <ele>524.845</ele>
        <time>2020-05-13T16:30:49Z</time>
      </trkpt>
      <trkpt lat="42.9769" lon="-1.85496">
        <ele>524.862</ele>
        <time>2020-05-13T16:30:29Z</time>
      </trkpt>
      <trkpt lat="42.9769" lon="-1.85489">
        <ele>525.837</ele>
        <time>2020-05-13T16:30:09Z</time>
      </trkpt>
      <trkpt lat="42.9769" lon="-1.85486">
        <ele>525.808</ele>
        <time>2020-05-13T16:29:49Z</time>
      </trkpt>
      <trkpt lat="42.97689" lon="-1.85476">
        <ele>526.11</ele>
        <time>2020-05-13T16:29:29Z</time>
      </trkpt>
      <trkpt lat="42.97689" lon="-1.8547">
        <ele>526.155</ele>
        <time>2020-05-13T16:29:09Z</time>
      </trkpt>
      <trkpt lat="42.97684" lon="-1.85457">
        <ele>525.134</ele>
        <time>2020-05-13T16:28:49Z</time>
      </trkpt>
      <trkpt lat="42.9768" lon="-1.85439">
        <ele>524.596</ele>
        <time>2020-05-13T16:28:29Z</time>
      </trkpt>
      <trkpt lat="42.97676" lon="-1.85418">
        <ele>523.438</ele>
        <time>2020-05-13T16:28:09Z</time>
      </trkpt>
      <trkpt lat="42.97675" lon="-1.85413">
        <ele>523.36</ele>
        <time>2020-05-13T16:27:49Z</time>
      </trkpt>
      <trkpt lat="42.97661" lon="-1.85335">
        <ele>519.678</ele>
        <time>2020-05-13T16:27:29Z</time>
      </trkpt>
      <trkpt lat="42.97653" lon="-1.85294">
        <ele>517.492</ele>
        <time>2020-05-13T16:27:09Z</time>
      </trkpt>
      <trkpt lat="42.97646" lon="-1.85256">
        <ele>516.017</ele>
        <time>2020-05-13T16:26:49Z</time>
      </trkpt>
      <trkpt lat="42.97644" lon="-1.8524">
        <ele>515.754</ele>
        <time>2020-05-13T16:26:29Z</time>
      </trkpt>
      <trkpt lat="42.97641" lon="-1.85216">
        <ele>514.599</ele>
        <time>2020-05-13T16:26:09Z</time>
      </trkpt>
      <trkpt lat="42.97637" lon="-1.85196">
        <ele>513.308</ele>
        <time>2020-05-13T16:25:49Z</time>
      </trkpt>
      <trkpt lat="42.97624" lon="-1.85158">
        <ele>512.42</ele>
        <time>2020-05-13T16:25:29Z</time>
      </trkpt>
      <trkpt lat="42.97613" lon="-1.85131">
        <ele>511.9</ele>
        <time>2020-05-13T16:25:09Z</time>
      </trkpt>
      <trkpt lat="42.97602" lon="-1.85111">
        <ele>511.657</ele>
        <time>2020-05-13T16:24:49Z</time>
      </trkpt>
      <trkpt lat="42.97593" lon="-1.85096">
        <ele>511.45</ele>
        <time>2020-05-13T16:24:29Z</time>
      </trkpt>
      <trkpt lat="42.9757" lon="-1.85063">
        <ele>510.762</ele>
        <time>2020-05-13T16:24:09Z</time>
      </trkpt>
      <trkpt lat="42.97561" lon="-1.85048">
        <ele>510.684</ele>
        <time>2020-05-13T16:23:49Z</time>
      </trkpt>
      <trkpt lat="42.97551" lon="-1.85031">
        <ele>511.312</ele>
        <time>2020-05-13T16:23:29Z</time>
      </trkpt>
      <trkpt lat="42.97529" lon="-1.8498">
        <ele>509.986</ele>
        <time>2020-05-13T16:23:09Z</time>
      </trkpt>
      <trkpt lat="42.97499" lon="-1.84912">
        <ele>509.511</ele>
        <time>2020-05-13T16:22:49Z</time>
      </trkpt>
      <trkpt lat="42.97442" lon="-1.84784">
        <ele>508.968</ele>
        <time>2020-05-13T16:22:29Z</time>
      </trkpt>
      <trkpt lat="42.97425" lon="-1.84744">
        <ele>512.483</ele>
        <time>2020-05-13T16:22:09Z</time>
      </trkpt>
      <trkpt lat="42.97412" lon="-1.84716">
        <ele>513.008</ele>
        <time>2020-05-13T16:21:49Z</time>
      </trkpt>
      <trkpt lat="42.974" lon="-1.847">
        <ele>517.025</ele>
        <time>2020-05-13T16:21:29Z</time>
      </trkpt>
      <trkpt lat="42.97388" lon="-1.84685">
        <ele>513.323</ele>
        <time>2020-05-13T16:21:09Z</time>
      </trkpt>
      <trkpt lat="42.97365" lon="-1.84662">
        <ele>508.397</ele>
        <time>2020-05-13T16:20:49Z</time>
      </trkpt>
      <trkpt lat="42.97355" lon="-1.84651">
        <ele>511.353</ele>
        <time>2020-05-13T16:20:29Z</time>
      </trkpt>
      <trkpt lat="42.97336" lon="-1.84632">
        <ele>506.555</ele>
        <time>2020-05-13T16:20:09Z</time>
      </trkpt>
      <trkpt lat="42.97329" lon="-1.84627">
        <ele>506.157</ele>
        <time>2020-05-13T16:19:49Z</time>
      </trkpt>
      <trkpt lat="42.97318" lon="-1.84618">
        <ele>505.695</ele>
        <time>2020-05-13T16:19:29Z</time>
      </trkpt>
      <trkpt lat="42.97303" lon="-1.8461">
        <ele>505.089</ele>
        <time>2020-05-13T16:19:09Z</time>
      </trkpt>
      <trkpt lat="42.9725" lon="-1.84589">
        <ele>503.624</ele>
        <time>2020-05-13T16:18:49Z</time>
      </trkpt>
      <trkpt lat="42.97185" lon="-1.84562">
        <ele>502.531</ele>
        <time>2020-05-13T16:18:29Z</time>
      </trkpt>
      <trkpt lat="42.9718" lon="-1.8456">
        <ele>501.896</ele>
        <time>2020-05-13T16:18:09Z</time>
      </trkpt>
      <trkpt lat="42.97138" lon="-1.84541">
        <ele>502.308</ele>
        <time>2020-05-13T16:17:49Z</time>
      </trkpt>
      <trkpt lat="42.97127" lon="-1.84533">
        <ele>504.308</ele>
        <time>2020-05-13T16:17:29Z</time>
      </trkpt>
      <trkpt lat="42.97116" lon="-1.84523">
        <ele>502.526</ele>
        <time>2020-05-13T16:17:09Z</time>
      </trkpt>
      <trkpt lat="42.97108" lon="-1.84514">
        <ele>501.025</ele>
        <time>2020-05-13T16:16:49Z</time>
      </trkpt>
      <trkpt lat="42.97103" lon="-1.84506">
        <ele>500.925</ele>
        <time>2020-05-13T16:16:29Z</time>
      </trkpt>
      <trkpt lat="42.971" lon="-1.84493">
        <ele>500.887</ele>
        <time>2020-05-13T16:16:09Z</time>
      </trkpt>
      <trkpt lat="42.97095" lon="-1.84479">
        <ele>500.659</ele>
        <time>2020-05-13T16:15:49Z</time>
      </trkpt>
      <trkpt lat="42.97092" lon="-1.84467">
        <ele>500.437</ele>
        <time>2020-05-13T16:15:29Z</time>
      </trkpt>
      <trkpt lat="42.97091" lon="-1.84457">
        <ele>500.231</ele>
        <time>2020-05-13T16:15:09Z</time>
      </trkpt>
      <trkpt lat="42.97087" lon="-1.84446">
        <ele>500.086</ele>
        <time>2020-05-13T16:14:49Z</time>
      </trkpt>
      <trkpt lat="42.97083" lon="-1.84438">
        <ele>500.073</ele>
        <time>2020-05-13T16:14:29Z</time>
      </trkpt>
      <trkpt lat="42.9704" lon="-1.84385">
        <ele>499.058</ele>
        <time>2020-05-13T16:14:09Z</time>
      </trkpt>
      <trkpt lat="42.97003" lon="-1.84339">
        <ele>498.208</ele>
        <time>2020-05-13T16:13:49Z</time>
      </trkpt>
      <trkpt lat="42.96956" lon="-1.84278">
        <ele>497.615</ele>
        <time>2020-05-13T16:13:29Z</time>
      </trkpt>
      <trkpt lat="42.96887" lon="-1.84187">
        <ele>496.705</ele>
        <time>2020-05-13T16:13:09Z</time>
      </trkpt>
      <trkpt lat="42.96839" lon="-1.84123">
        <ele>496.444</ele>
        <time>2020-05-13T16:12:49Z</time>
      </trkpt>
      <trkpt lat="42.96789" lon="-1.8406">
        <ele>495.763</ele>
        <time>2020-05-13T16:12:29Z</time>
      </trkpt>
      <trkpt lat="42.96756" lon="-1.84018">
        <ele>495.235</ele>
        <time>2020-05-13T16:12:09Z</time>
      </trkpt>
      <trkpt lat="42.96713" lon="-1.83963">
        <ele>494.777</ele>
        <time>2020-05-13T16:11:49Z</time>
      </trkpt>
      <trkpt lat="42.96684" lon="-1.83928">
        <ele>494.595</ele>
        <time>2020-05-13T16:11:29Z</time>
      </trkpt>
      <trkpt lat="42.96683" lon="-1.83931">
        <ele>494.579</ele>
        <time>2020-05-13T16:11:09Z</time>
      </trkpt>
      <trkpt lat="42.96679" lon="-1.83936">
        <ele>494.524</ele>
        <time>2020-05-13T16:10:49Z</time>
      </trkpt>
      <trkpt lat="42.96674" lon="-1.83945">
        <ele>495.411</ele>
        <time>2020-05-13T16:10:29Z</time>
      </trkpt>
      <trkpt lat="42.9667" lon="-1.8395">
        <ele>495.456</ele>
        <time>2020-05-13T16:10:09Z</time>
      </trkpt>
      <trkpt lat="42.96667" lon="-1.83956">
        <ele>497.208</ele>
        <time>2020-05-13T16:09:49Z</time>
      </trkpt>
      <trkpt lat="42.96664" lon="-1.83957">
        <ele>497.214</ele>
        <time>2020-05-13T16:09:29Z</time>
      </trkpt>
      <trkpt lat="42.96662" lon="-1.83957">
        <ele>497.268</ele>
        <time>2020-05-13T16:09:09Z</time>
      </trkpt>
      <trkpt lat="42.96656" lon="-1.83954">
        <ele>499.827</ele>
        <time>2020-05-13T16:08:49Z</time>
      </trkpt>
      <trkpt lat="42.96645" lon="-1.8395">
        <ele>498.05</ele>
        <time>2020-05-13T16:08:29Z</time>
      </trkpt>
      <trkpt lat="42.96628" lon="-1.83945">
        <ele>503.992</ele>
        <time>2020-05-13T16:08:09Z</time>
      </trkpt>
      <trkpt lat="42.96612" lon="-1.83942">
        <ele>507.834</ele>
        <time>2020-05-13T16:07:49Z</time>
      </trkpt>
      <trkpt lat="42.96598" lon="-1.83942">
        <ele>505.242</ele>
        <time>2020-05-13T16:07:29Z</time>
      </trkpt>
      <trkpt lat="42.96581" lon="-1.8395">
        <ele>509.136</ele>
        <time>2020-05-13T16:07:09Z</time>
      </trkpt>
      <trkpt lat="42.96563" lon="-1.8396">
        <ele>511.921</ele>
        <time>2020-05-13T16:06:49Z</time>
      </trkpt>
      <trkpt lat="42.9656" lon="-1.83964">
        <ele>513.398</ele>
        <time>2020-05-13T16:06:29Z</time>
      </trkpt>
      <trkpt lat="42.96561" lon="-1.83942">
        <ele>515.343</ele>
        <time>2020-05-13T16:06:09Z</time>
      </trkpt>
      <trkpt lat="42.96562" lon="-1.83925">
        <ele>514.208</ele>
        <time>2020-05-13T16:05:49Z</time>
      </trkpt>
      <trkpt lat="42.96559" lon="-1.83912">
        <ele>515.926</ele>
        <time>2020-05-13T16:05:29Z</time>
      </trkpt>
      <trkpt lat="42.96552" lon="-1.83899">
        <ele>518.815</ele>
        <time>2020-05-13T16:05:09Z</time>
      </trkpt>
      <trkpt lat="42.96544" lon="-1.83891">
        <ele>517.098</ele>
        <time>2020-05-13T16:04:49Z</time>
      </trkpt>
      <trkpt lat="42.96537" lon="-1.8388">
        <ele>518.638</ele>
        <time>2020-05-13T16:04:29Z</time>
      </trkpt>
      <trkpt lat="42.96525" lon="-1.83863">
        <ele>523.66</ele>
        <time>2020-05-13T16:04:09Z</time>
      </trkpt>
      <trkpt lat="42.96517" lon="-1.8385">
        <ele>519.872</ele>
        <time>2020-05-13T16:03:49Z</time>
      </trkpt>
      <trkpt lat="42.9651" lon="-1.8383">
        <ele>520.64</ele>
        <time>2020-05-13T16:03:29Z</time>
      </trkpt>
      <trkpt lat="42.96507" lon="-1.8382">
        <ele>521.474</ele>
        <time>2020-05-13T16:03:09Z</time>
      </trkpt>
      <trkpt lat="42.96502" lon="-1.83805">
        <ele>521.169</ele>
        <time>2020-05-13T16:02:49Z</time>
      </trkpt>
      <trkpt lat="42.96493" lon="-1.83782">
        <ele>521.286</ele>
        <time>2020-05-13T16:02:29Z</time>
      </trkpt>
      <trkpt lat="42.96485" lon="-1.83766">
        <ele>523.341</ele>
        <time>2020-05-13T16:02:09Z</time>
      </trkpt>
      <trkpt lat="42.96479" lon="-1.83758">
        <ele>523.608</ele>
        <time>2020-05-13T16:01:49Z</time>
      </trkpt>
      <trkpt lat="42.96477" lon="-1.83755">
        <ele>523.621</ele>
        <time>2020-05-13T16:01:29Z</time>
      </trkpt>
      <trkpt lat="42.96472" lon="-1.83745">
        <ele>519.656</ele>
        <time>2020-05-13T16:01:09Z</time>
      </trkpt>
      <trkpt lat="42.96469" lon="-1.8374">
        <ele>521.774</ele>
        <time>2020-05-13T16:00:49Z</time>
      </trkpt>
      <trkpt lat="42.96466" lon="-1.83736">
        <ele>519.859</ele>
        <time>2020-05-13T16:00:29Z</time>
      </trkpt>
      <trkpt lat="42.96464" lon="-1.83729">
        <ele>519.861</ele>
        <time>2020-05-13T16:00:09Z</time>
      </trkpt>
      <trkpt lat="42.96462" lon="-1.83724">
        <ele>519.663</ele>
        <time>2020-05-13T15:59:49Z</time>
      </trkpt>
      <trkpt lat="42.9646" lon="-1.83716">
        <ele>523.731</ele>
        <time>2020-05-13T15:59:29Z</time>
      </trkpt>
      <trkpt lat="42.96457" lon="-1.83707">
        <ele>521.545</ele>
        <time>2020-05-13T15:59:09Z</time>
      </trkpt>
      <trkpt lat="42.96455" lon="-1.83698">
        <ele>519.63</ele>
        <time>2020-05-13T15:58:49Z</time>
      </trkpt>
      <trkpt lat="42.96454" lon="-1.8369">
        <ele>519.677</ele>
        <time>2020-05-13T15:58:29Z</time>
      </trkpt>
      <trkpt lat="42.96453" lon="-1.83682">
        <ele>518.152</ele>
        <time>2020-05-13T15:58:09Z</time>
      </trkpt>
      <trkpt lat="42.96452" lon="-1.83676">
        <ele>518.108</ele>
        <time>2020-05-13T15:57:49Z</time>
      </trkpt>
      <trkpt lat="42.96452" lon="-1.83665">
        <ele>518.117</ele>
        <time>2020-05-13T15:57:29Z</time>
      </trkpt>
      <trkpt lat="42.96453" lon="-1.83653">
        <ele>517.261</ele>
        <time>2020-05-13T15:57:09Z</time>
      </trkpt>
      <trkpt lat="42.96453" lon="-1.83645">
        <ele>516.481</ele>
        <time>2020-05-13T15:56:49Z</time>
      </trkpt>
      <trkpt lat="42.96453" lon="-1.83638">
        <ele>516.29</ele>
        <time>2020-05-13T15:56:29Z</time>
      </trkpt>
      <trkpt lat="42.96454" lon="-1.83632">
        <ele>516.282</ele>
        <time>2020-05-13T15:56:09Z</time>
      </trkpt>
      <trkpt lat="42.96455" lon="-1.8362">
        <ele>515.074</ele>
        <time>2020-05-13T15:55:49Z</time>
      </trkpt>
      <trkpt lat="42.96455" lon="-1.83613">
        <ele>513.432</ele>
        <time>2020-05-13T15:55:29Z</time>
      </trkpt>
      <trkpt lat="42.96457" lon="-1.83602">
        <ele>513.456</ele>
        <time>2020-05-13T15:55:09Z</time>
      </trkpt>
      <trkpt lat="42.9646" lon="-1.83584">
        <ele>510.741</ele>
        <time>2020-05-13T15:54:49Z</time>
      </trkpt>
      <trkpt lat="42.96461" lon="-1.83578">
        <ele>510.748</ele>
        <time>2020-05-13T15:54:29Z</time>
      </trkpt>
      <trkpt lat="42.96462" lon="-1.83572">
        <ele>509.523</ele>
        <time>2020-05-13T15:54:09Z</time>
      </trkpt>
      <trkpt lat="42.96461" lon="-1.83569">
        <ele>509.508</ele>
        <time>2020-05-13T15:53:49Z</time>
      </trkpt>
      <trkpt lat="42.96461" lon="-1.83566">
        <ele>509.525</ele>
        <time>2020-05-13T15:53:29Z</time>
      </trkpt>
      <trkpt lat="42.96459" lon="-1.83559">
        <ele>508.123</ele>
        <time>2020-05-13T15:53:09Z</time>
      </trkpt>
      <trkpt lat="42.96457" lon="-1.83554">
        <ele>513.497</ele>
        <time>2020-05-13T15:52:49Z</time>
      </trkpt>
      <trkpt lat="42.96456" lon="-1.83549">
        <ele>508.759</ele>
        <time>2020-05-13T15:52:29Z</time>
      </trkpt>
      <trkpt lat="42.96453" lon="-1.83544">
        <ele>508.741</ele>
        <time>2020-05-13T15:52:09Z</time>
      </trkpt>
      <trkpt lat="42.96451" lon="-1.83539">
        <ele>506.873</ele>
        <time>2020-05-13T15:51:49Z</time>
      </trkpt>
      <trkpt lat="42.96442" lon="-1.83524">
        <ele>506.821</ele>
        <time>2020-05-13T15:51:29Z</time>
      </trkpt>
      <trkpt lat="42.96431" lon="-1.83502">
        <ele>508.615</ele>
        <time>2020-05-13T15:51:09Z</time>
      </trkpt>
      <trkpt lat="42.96424" lon="-1.83489">
        <ele>505.95</ele>
        <time>2020-05-13T15:50:49Z</time>
      </trkpt>
      <trkpt lat="42.96416" lon="-1.83471">
        <ele>506.147</ele>
        <time>2020-05-13T15:50:29Z</time>
      </trkpt>
      <trkpt lat="42.96413" lon="-1.83465">
        <ele>507.912</ele>
        <time>2020-05-13T15:50:09Z</time>
      </trkpt>
      <trkpt lat="42.96411" lon="-1.83463">
        <ele>507.908</ele>
        <time>2020-05-13T15:49:49Z</time>
      </trkpt>
      <trkpt lat="42.96408" lon="-1.83457">
        <ele>507.917</ele>
        <time>2020-05-13T15:49:29Z</time>
      </trkpt>
      <trkpt lat="42.96405" lon="-1.83454">
        <ele>505.289</ele>
        <time>2020-05-13T15:49:09Z</time>
      </trkpt>
      <trkpt lat="42.96403" lon="-1.8345">
        <ele>507.885</ele>
        <time>2020-05-13T15:48:49Z</time>
      </trkpt>
      <trkpt lat="42.96401" lon="-1.83445">
        <ele>507.879</ele>
        <time>2020-05-13T15:48:29Z</time>
      </trkpt>
      <trkpt lat="42.96397" lon="-1.83437">
        <ele>504.251</ele>
        <time>2020-05-13T15:48:09Z</time>
      </trkpt>
      <trkpt lat="42.96391" lon="-1.83422">
        <ele>503.513</ele>
        <time>2020-05-13T15:47:49Z</time>
      </trkpt>
      <trkpt lat="42.96388" lon="-1.83414">
        <ele>501.361</ele>
        <time>2020-05-13T15:47:29Z</time>
      </trkpt>
      <trkpt lat="42.96383" lon="-1.83404">
        <ele>500.175</ele>
        <time>2020-05-13T15:47:09Z</time>
      </trkpt>
      <trkpt lat="42.96378" lon="-1.83392">
        <ele>498.16</ele>
        <time>2020-05-13T15:46:49Z</time>
      </trkpt>
      <trkpt lat="42.96377" lon="-1.8339">
        <ele>498.187</ele>
        <time>2020-05-13T15:46:29Z</time>
      </trkpt>
      <trkpt lat="42.96375" lon="-1.83384">
        <ele>498.022</ele>
        <time>2020-05-13T15:46:09Z</time>
      </trkpt>
      <trkpt lat="42.96371" lon="-1.83377">
        <ele>495.708</ele>
        <time>2020-05-13T15:45:49Z</time>
      </trkpt>
      <trkpt lat="42.96366" lon="-1.83366">
        <ele>493.726</ele>
        <time>2020-05-13T15:45:29Z</time>
      </trkpt>
      <trkpt lat="42.96364" lon="-1.83362">
        <ele>493.724</ele>
        <time>2020-05-13T15:45:09Z</time>
      </trkpt>
      <trkpt lat="42.96361" lon="-1.83355">
        <ele>494.088</ele>
        <time>2020-05-13T15:44:49Z</time>
      </trkpt>
      <trkpt lat="42.96358" lon="-1.83351">
        <ele>494.063</ele>
        <time>2020-05-13T15:44:29Z</time>
      </trkpt>
      <trkpt lat="42.96351" lon="-1.83341">
        <ele>493.755</ele>
        <time>2020-05-13T15:44:09Z</time>
      </trkpt>
      <trkpt lat="42.96343" lon="-1.83332">
        <ele>493.437</ele>
        <time>2020-05-13T15:43:49Z</time>
      </trkpt>
      <trkpt lat="42.96337" lon="-1.83324">
        <ele>492.525</ele>
        <time>2020-05-13T15:43:29Z</time>
      </trkpt>
      <trkpt lat="42.96329" lon="-1.83316">
        <ele>492.329</ele>
        <time>2020-05-13T15:43:09Z</time>
      </trkpt>
      <trkpt lat="42.96322" lon="-1.83309">
        <ele>492.894</ele>
        <time>2020-05-13T15:42:49Z</time>
      </trkpt>
      <trkpt lat="42.96313" lon="-1.833">
        <ele>492.411</ele>
        <time>2020-05-13T15:42:29Z</time>
      </trkpt>
      <trkpt lat="42.96304" lon="-1.83293">
        <ele>492.136</ele>
        <time>2020-05-13T15:42:09Z</time>
      </trkpt>
      <trkpt lat="42.96299" lon="-1.83288">
        <ele>491.208</ele>
        <time>2020-05-13T15:41:49Z</time>
      </trkpt>
      <trkpt lat="42.96288" lon="-1.83282">
        <ele>491.32</ele>
        <time>2020-05-13T15:41:29Z</time>
      </trkpt>
      <trkpt lat="42.96285" lon="-1.83281">
        <ele>490.4</ele>
        <time>2020-05-13T15:41:09Z</time>
      </trkpt>
      <trkpt lat="42.96282" lon="-1.83281">
        <ele>490.429</ele>
        <time>2020-05-13T15:40:49Z</time>
      </trkpt>
      <trkpt lat="42.96277" lon="-1.83281">
        <ele>490.437</ele>
        <time>2020-05-13T15:40:29Z</time>
      </trkpt>
      <trkpt lat="42.96273" lon="-1.83281">
        <ele>490.169</ele>
        <time>2020-05-13T15:40:09Z</time>
      </trkpt>
      <trkpt lat="42.96267" lon="-1.83282">
        <ele>490.411</ele>
        <time>2020-05-13T15:39:49Z</time>
      </trkpt>
      <trkpt lat="42.96262" lon="-1.83282">
        <ele>490.489</ele>
        <time>2020-05-13T15:39:29Z</time>
      </trkpt>
      <trkpt lat="42.96261" lon="-1.83282">
        <ele>490.483</ele>
        <time>2020-05-13T15:39:09Z</time>
      </trkpt>
      <trkpt lat="42.96259" lon="-1.83282">
        <ele>490.498</ele>
        <time>2020-05-13T15:38:49Z</time>
      </trkpt>
      <trkpt lat="42.96258" lon="-1.83281">
        <ele>490.485</ele>
        <time>2020-05-13T15:38:29Z</time>
      </trkpt>
      <trkpt lat="42.96257" lon="-1.8328">
        <ele>489.93</ele>
        <time>2020-05-13T15:38:09Z</time>
      </trkpt>
      <trkpt lat="42.96256" lon="-1.83279">
        <ele>489.908</ele>
        <time>2020-05-13T15:37:49Z</time>
      </trkpt>
      <trkpt lat="42.96255" lon="-1.83278">
        <ele>489.918</ele>
        <time>2020-05-13T15:37:29Z</time>
      </trkpt>
      <trkpt lat="42.96251" lon="-1.83277">
        <ele>489.944</ele>
        <time>2020-05-13T15:37:09Z</time>
      </trkpt>
      <trkpt lat="42.9625" lon="-1.83277">
        <ele>489.963</ele>
        <time>2020-05-13T15:36:49Z</time>
      </trkpt>
      <trkpt lat="42.96246" lon="-1.83274">
        <ele>489.679</ele>
        <time>2020-05-13T15:36:29Z</time>
      </trkpt>
      <trkpt lat="42.96242" lon="-1.83268">
        <ele>489.331</ele>
        <time>2020-05-13T15:36:09Z</time>
      </trkpt>
      <trkpt lat="42.96237" lon="-1.83261">
        <ele>488.993</ele>
        <time>2020-05-13T15:35:49Z</time>
      </trkpt>
      <trkpt lat="42.96231" lon="-1.83254">
        <ele>488.651</ele>
        <time>2020-05-13T15:35:29Z</time>
      </trkpt>
      <trkpt lat="42.9622" lon="-1.83243">
        <ele>488.295</ele>
        <time>2020-05-13T15:35:09Z</time>
      </trkpt>
      <trkpt lat="42.96209" lon="-1.83232">
        <ele>487.76</ele>
        <time>2020-05-13T15:34:49Z</time>
      </trkpt>
      <trkpt lat="42.96201" lon="-1.83223">
        <ele>487.067</ele>
        <time>2020-05-13T15:34:29Z</time>
      </trkpt>
      <trkpt lat="42.96193" lon="-1.83213">
        <ele>486.052</ele>
        <time>2020-05-13T15:34:09Z</time>
      </trkpt>
      <trkpt lat="42.96185" lon="-1.83199">
        <ele>485.308</ele>
        <time>2020-05-13T15:33:49Z</time>
      </trkpt>
      <trkpt lat="42.9618" lon="-1.83188">
        <ele>484.717</ele>
        <time>2020-05-13T15:33:29Z</time>
      </trkpt>
      <trkpt lat="42.96178" lon="-1.83182">
        <ele>484.789</ele>
        <time>2020-05-13T15:33:09Z</time>
      </trkpt>
      <trkpt lat="42.96175" lon="-1.83169">
        <ele>484.285</ele>
        <time>2020-05-13T15:32:49Z</time>
      </trkpt>
      <trkpt lat="42.96173" lon="-1.83154">
        <ele>483.854</ele>
        <time>2020-05-13T15:32:29Z</time>
      </trkpt>
      <trkpt lat="42.96172" lon="-1.83146">
        <ele>483.536</ele>
        <time>2020-05-13T15:32:09Z</time>
      </trkpt>
      <trkpt lat="42.96172" lon="-1.83144">
        <ele>483.578</ele>
        <time>2020-05-13T15:31:49Z</time>
      </trkpt>
      <trkpt lat="42.96179" lon="-1.83141">
        <ele>490.816</ele>
        <time>2020-05-13T15:31:29Z</time>
      </trkpt>
      <trkpt lat="42.9618" lon="-1.83132">
        <ele>490.72</ele>
        <time>2020-05-13T15:31:09Z</time>
      </trkpt>
      <trkpt lat="42.9618" lon="-1.8313">
        <ele>490.745</ele>
        <time>2020-05-13T15:30:49Z</time>
      </trkpt>
      <trkpt lat="42.96181" lon="-1.83119">
        <ele>486.972</ele>
        <time>2020-05-13T15:30:29Z</time>
      </trkpt>
      <trkpt lat="42.96182" lon="-1.83111">
        <ele>483.317</ele>
        <time>2020-05-13T15:30:09Z</time>
      </trkpt>
      <trkpt lat="42.96183" lon="-1.8311">
        <ele>483.308</ele>
        <time>2020-05-13T15:29:49Z</time>
      </trkpt>
      <trkpt lat="42.96183" lon="-1.8311">
        <ele>483.307</ele>
        <time>2020-05-13T15:29:29Z</time>
      </trkpt>
      <trkpt lat="42.96191" lon="-1.83084">
        <ele>484.361</ele>
        <time>2020-05-13T15:29:09Z</time>
      </trkpt>
      <trkpt lat="42.96192" lon="-1.8308">
        <ele>484.331</ele>
        <time>2020-05-13T15:28:49Z</time>
      </trkpt>
      <trkpt lat="42.96193" lon="-1.83079">
        <ele>484.358</ele>
        <time>2020-05-13T15:28:29Z</time>
      </trkpt>
      <trkpt lat="42.96198" lon="-1.83064">
        <ele>485.72</ele>
        <time>2020-05-13T15:28:09Z</time>
      </trkpt>
      <trkpt lat="42.96199" lon="-1.83062">
        <ele>485.732</ele>
        <time>2020-05-13T15:27:49Z</time>
      </trkpt>
      <trkpt lat="42.962" lon="-1.83058">
        <ele>485.71</ele>
        <time>2020-05-13T15:27:29Z</time>
      </trkpt>
      <trkpt lat="42.96208" lon="-1.83037">
        <ele>486.234</ele>
        <time>2020-05-13T15:27:09Z</time>
      </trkpt>
      <trkpt lat="42.96217" lon="-1.83053">
        <ele>486.459</ele>
        <time>2020-05-13T15:26:49Z</time>
      </trkpt>
      <trkpt lat="42.96218" lon="-1.83054">
        <ele>486.616</ele>
        <time>2020-05-13T15:26:29Z</time>
      </trkpt>
      <trkpt lat="42.96225" lon="-1.83066">
        <ele>486.731</ele>
        <time>2020-05-13T15:26:09Z</time>
      </trkpt>
      <trkpt lat="42.96235" lon="-1.83082">
        <ele>487.408</ele>
        <time>2020-05-13T15:25:49Z</time>
      </trkpt>
      <trkpt lat="42.96239" lon="-1.83088">
        <ele>487.713</ele>
        <time>2020-05-13T15:25:29Z</time>
      </trkpt>
      <trkpt lat="42.96238" lon="-1.8308">
        <ele>487.785</ele>
        <time>2020-05-13T15:25:09Z</time>
      </trkpt>
      <trkpt lat="42.96239" lon="-1.83067">
        <ele>487.573</ele>
        <time>2020-05-13T15:24:49Z</time>
      </trkpt>
      <trkpt lat="42.96238" lon="-1.83054">
        <ele>486.128</ele>
        <time>2020-05-13T15:24:29Z</time>
      </trkpt>
      <trkpt lat="42.96238" lon="-1.83035">
        <ele>485.81</ele>
        <time>2020-05-13T15:24:09Z</time>
      </trkpt>
      <trkpt lat="42.96239" lon="-1.83018">
        <ele>485.632</ele>
        <time>2020-05-13T15:23:49Z</time>
      </trkpt>
      <trkpt lat="42.96239" lon="-1.8301">
        <ele>486.94</ele>
        <time>2020-05-13T15:23:29Z</time>
      </trkpt>
      <trkpt lat="42.96239" lon="-1.82996">
        <ele>488.334</ele>
        <time>2020-05-13T15:23:09Z</time>
      </trkpt>
      <trkpt lat="42.96241" lon="-1.82978">
        <ele>502.099</ele>
        <time>2020-05-13T15:22:49Z</time>
      </trkpt>
      <trkpt lat="42.96241" lon="-1.82967">
        <ele>506.086</ele>
        <time>2020-05-13T15:22:29Z</time>
      </trkpt>
      <trkpt lat="42.96241" lon="-1.82961">
        <ele>506.061</ele>
        <time>2020-05-13T15:22:09Z</time>
      </trkpt>
      <trkpt lat="42.9624" lon="-1.82957">
        <ele>506.008</ele>
        <time>2020-05-13T15:21:49Z</time>
      </trkpt>
      <trkpt lat="42.96237" lon="-1.8295">
        <ele>507.619</ele>
        <time>2020-05-13T15:21:29Z</time>
      </trkpt>
      <trkpt lat="42.96236" lon="-1.82927">
        <ele>501.19</ele>
        <time>2020-05-13T15:21:09Z</time>
      </trkpt>
      <trkpt lat="42.96234" lon="-1.82912">
        <ele>498.976</ele>
        <time>2020-05-13T15:20:49Z</time>
      </trkpt>
      <trkpt lat="42.96232" lon="-1.82882">
        <ele>489.277</ele>
        <time>2020-05-13T15:20:29Z</time>
      </trkpt>
      <trkpt lat="42.96233" lon="-1.82874">
        <ele>489.229</ele>
        <time>2020-05-13T15:20:09Z</time>
      </trkpt>
      <trkpt lat="42.96235" lon="-1.82866">
        <ele>488.961</ele>
        <time>2020-05-13T15:19:49Z</time>
      </trkpt>
      <trkpt lat="42.96238" lon="-1.82859">
        <ele>491.039</ele>
        <time>2020-05-13T15:19:29Z</time>
      </trkpt>
      <trkpt lat="42.9624" lon="-1.82854">
        <ele>489.763</ele>
        <time>2020-05-13T15:19:09Z</time>
      </trkpt>
      <trkpt lat="42.96242" lon="-1.82848">
        <ele>489.738</ele>
        <time>2020-05-13T15:18:49Z</time>
      </trkpt>
      <trkpt lat="42.96245" lon="-1.8284">
        <ele>490.165</ele>
        <time>2020-05-13T15:18:29Z</time>
      </trkpt>
      <trkpt lat="42.96246" lon="-1.82836">
        <ele>490.18</ele>
        <time>2020-05-13T15:18:09Z</time>
      </trkpt>
      <trkpt lat="42.96248" lon="-1.82832">
        <ele>488.708</ele>
        <time>2020-05-13T15:17:49Z</time>
      </trkpt>
      <trkpt lat="42.96249" lon="-1.82828">
        <ele>488.713</ele>
        <time>2020-05-13T15:17:29Z</time>
      </trkpt>
      <trkpt lat="42.96251" lon="-1.82824">
        <ele>488.721</ele>
        <time>2020-05-13T15:17:09Z</time>
      </trkpt>
      <trkpt lat="42.96252" lon="-1.82821">
        <ele>488.761</ele>
        <time>2020-05-13T15:16:49Z</time>
      </trkpt>
      <trkpt lat="42.96253" lon="-1.82818">
        <ele>487.472</ele>
        <time>2020-05-13T15:16:29Z</time>
      </trkpt>
      <trkpt lat="42.96255" lon="-1.82816">
        <ele>487.464</ele>
        <time>2020-05-13T15:16:09Z</time>
      </trkpt>
      <trkpt lat="42.96257" lon="-1.82812">
        <ele>487.476</ele>
        <time>2020-05-13T15:15:49Z</time>
      </trkpt>
      <trkpt lat="42.96259" lon="-1.8281">
        <ele>487.424</ele>
        <time>2020-05-13T15:15:29Z</time>
      </trkpt>
      <trkpt lat="42.96261" lon="-1.82807">
        <ele>481.448</ele>
        <time>2020-05-13T15:15:09Z</time>
      </trkpt>
      <trkpt lat="42.96267" lon="-1.828">
        <ele>483.743</ele>
        <time>2020-05-13T15:14:49Z</time>
      </trkpt>
      <trkpt lat="42.96269" lon="-1.82799">
        <ele>483.77</ele>
        <time>2020-05-13T15:14:29Z</time>
      </trkpt>
      <trkpt lat="42.96265" lon="-1.82797">
        <ele>483.715</ele>
        <time>2020-05-13T15:14:09Z</time>
      </trkpt>
      <trkpt lat="42.96265" lon="-1.82792">
        <ele>480.508</ele>
        <time>2020-05-13T15:13:49Z</time>
      </trkpt>
      <trkpt lat="42.96264" lon="-1.8278">
        <ele>481.005</ele>
        <time>2020-05-13T15:13:29Z</time>
      </trkpt>
      <trkpt lat="42.96264" lon="-1.82777">
        <ele>481.032</ele>
        <time>2020-05-13T15:13:09Z</time>
      </trkpt>
      <trkpt lat="42.96263" lon="-1.82774">
        <ele>481.012</ele>
        <time>2020-05-13T15:12:49Z</time>
      </trkpt>
      <trkpt lat="42.96262" lon="-1.82768">
        <ele>481.886</ele>
        <time>2020-05-13T15:12:29Z</time>
      </trkpt>
      <trkpt lat="42.96262" lon="-1.82763">
        <ele>481.878</ele>
        <time>2020-05-13T15:12:09Z</time>
      </trkpt>
      <trkpt lat="42.96261" lon="-1.82755">
        <ele>474.77</ele>
        <time>2020-05-13T15:11:49Z</time>
      </trkpt>
      <trkpt lat="42.96261" lon="-1.82755">
        <ele>474.718</ele>
        <time>2020-05-13T15:11:29Z</time>
      </trkpt>
      <trkpt lat="42.96258" lon="-1.82743">
        <ele>479.172</ele>
        <time>2020-05-13T15:11:09Z</time>
      </trkpt>
      <trkpt lat="42.96255" lon="-1.8273">
        <ele>482.457</ele>
        <time>2020-05-13T15:10:49Z</time>
      </trkpt>
      <trkpt lat="42.96252" lon="-1.82717">
        <ele>482.174</ele>
        <time>2020-05-13T15:10:29Z</time>
      </trkpt>
      <trkpt lat="42.96248" lon="-1.82708">
        <ele>482.269</ele>
        <time>2020-05-13T15:10:09Z</time>
      </trkpt>
      <trkpt lat="42.96247" lon="-1.82705">
        <ele>482.208</ele>
        <time>2020-05-13T15:09:49Z</time>
      </trkpt>
      <trkpt lat="42.96245" lon="-1.827">
        <ele>482.223</ele>
        <time>2020-05-13T15:09:29Z</time>
      </trkpt>
      <trkpt lat="42.96238" lon="-1.82685">
        <ele>482.203</ele>
        <time>2020-05-13T15:09:09Z</time>
      </trkpt>
      <trkpt lat="42.96233" lon="-1.82674">
        <ele>481.759</ele>
        <time>2020-05-13T15:08:49Z</time>
      </trkpt>
      <trkpt lat="42.96227" lon="-1.82665">
        <ele>482.153</ele>
        <time>2020-05-13T15:08:29Z</time>
      </trkpt>
      <trkpt lat="42.96226" lon="-1.82663">
        <ele>482.115</ele>
        <time>2020-05-13T15:08:09Z</time>
      </trkpt>
      <trkpt lat="42.96219" lon="-1.8265">
        <ele>481.567</ele>
        <time>2020-05-13T15:07:49Z</time>
      </trkpt>
      <trkpt lat="42.96211" lon="-1.82637">
        <ele>481.575</ele>
        <time>2020-05-13T15:07:29Z</time>
      </trkpt>
      <trkpt lat="42.96203" lon="-1.82623">
        <ele>480.979</ele>
        <time>2020-05-13T15:07:09Z</time>
      </trkpt>
      <trkpt lat="42.96193" lon="-1.82607">
        <ele>480.874</ele>
        <time>2020-05-13T15:06:49Z</time>
      </trkpt>
      <trkpt lat="42.96182" lon="-1.82587">
        <ele>480.111</ele>
        <time>2020-05-13T15:06:29Z</time>
      </trkpt>
      <trkpt lat="42.96171" lon="-1.82568">
        <ele>479.786</ele>
        <time>2020-05-13T15:06:09Z</time>
      </trkpt>
      <trkpt lat="42.96159" lon="-1.82549">
        <ele>479.108</ele>
        <time>2020-05-13T15:05:49Z</time>
      </trkpt>
      <trkpt lat="42.96149" lon="-1.82531">
        <ele>478.914</ele>
        <time>2020-05-13T15:05:29Z</time>
      </trkpt>
      <trkpt lat="42.96139" lon="-1.82514">
        <ele>480.204</ele>
        <time>2020-05-13T15:05:09Z</time>
      </trkpt>
      <trkpt lat="42.96129" lon="-1.82501">
        <ele>481.124</ele>
        <time>2020-05-13T15:04:49Z</time>
      </trkpt>
      <trkpt lat="42.96119" lon="-1.8249">
        <ele>481.142</ele>
        <time>2020-05-13T15:04:29Z</time>
      </trkpt>
      <trkpt lat="42.9611" lon="-1.82481">
        <ele>478.294</ele>
        <time>2020-05-13T15:04:09Z</time>
      </trkpt>
      <trkpt lat="42.961" lon="-1.82472">
        <ele>478.136</ele>
        <time>2020-05-13T15:03:49Z</time>
      </trkpt>
      <trkpt lat="42.96087" lon="-1.82461">
        <ele>477.494</ele>
        <time>2020-05-13T15:03:29Z</time>
      </trkpt>
      <trkpt lat="42.96074" lon="-1.82451">
        <ele>477.988</ele>
        <time>2020-05-13T15:03:09Z</time>
      </trkpt>
      <trkpt lat="42.96058" lon="-1.82443">
        <ele>478.633</ele>
        <time>2020-05-13T15:02:49Z</time>
      </trkpt>
      <trkpt lat="42.96045" lon="-1.82439">
        <ele>476.84</ele>
        <time>2020-05-13T15:02:29Z</time>
      </trkpt>
      <trkpt lat="42.96032" lon="-1.82433">
        <ele>476.375</ele>
        <time>2020-05-13T15:02:09Z</time>
      </trkpt>
      <trkpt lat="42.96008" lon="-1.82424">
        <ele>476.108</ele>
        <time>2020-05-13T15:01:49Z</time>
      </trkpt>
      <trkpt lat="42.95994" lon="-1.82421">
        <ele>475.709</ele>
        <time>2020-05-13T15:01:29Z</time>
      </trkpt>
      <trkpt lat="42.95978" lon="-1.82418">
        <ele>476.054</ele>
        <time>2020-05-13T15:01:09Z</time>
      </trkpt>
      <trkpt lat="42.95957" lon="-1.82415">
        <ele>475.214</ele>
        <time>2020-05-13T15:00:49Z</time>
      </trkpt>
      <trkpt lat="42.95943" lon="-1.82412">
        <ele>475.043</ele>
        <time>2020-05-13T15:00:29Z</time>
      </trkpt>
      <trkpt lat="42.95933" lon="-1.8241">
        <ele>475.145</ele>
        <time>2020-05-13T15:00:09Z</time>
      </trkpt>
      <trkpt lat="42.95923" lon="-1.82408">
        <ele>475.917</ele>
        <time>2020-05-13T14:59:49Z</time>
      </trkpt>
      <trkpt lat="42.95911" lon="-1.82408">
        <ele>475.875</ele>
        <time>2020-05-13T14:59:29Z</time>
      </trkpt>
      <trkpt lat="42.95901" lon="-1.82408">
        <ele>476.059</ele>
        <time>2020-05-13T14:59:09Z</time>
      </trkpt>
      <trkpt lat="42.95891" lon="-1.82408">
        <ele>476.984</ele>
        <time>2020-05-13T14:58:49Z</time>
      </trkpt>
      <trkpt lat="42.95884" lon="-1.82407">
        <ele>476.051</ele>
        <time>2020-05-13T14:58:29Z</time>
      </trkpt>
      <trkpt lat="42.95877" lon="-1.82406">
        <ele>475.136</ele>
        <time>2020-05-13T14:58:09Z</time>
      </trkpt>
      <trkpt lat="42.95872" lon="-1.82406">
        <ele>475.108</ele>
        <time>2020-05-13T14:57:49Z</time>
      </trkpt>
      <trkpt lat="42.95866" lon="-1.8241">
        <ele>474.614</ele>
        <time>2020-05-13T14:57:29Z</time>
      </trkpt>
      <trkpt lat="42.95859" lon="-1.82413">
        <ele>473.368</ele>
        <time>2020-05-13T14:57:09Z</time>
      </trkpt>
      <trkpt lat="42.95852" lon="-1.82414">
        <ele>472.927</ele>
        <time>2020-05-13T14:56:49Z</time>
      </trkpt>
      <trkpt lat="42.95841" lon="-1.82414">
        <ele>472.873</ele>
        <time>2020-05-13T14:56:29Z</time>
      </trkpt>
      <trkpt lat="42.95838" lon="-1.82414">
        <ele>472.885</ele>
        <time>2020-05-13T14:56:09Z</time>
      </trkpt>
      <trkpt lat="42.95829" lon="-1.82413">
        <ele>472.797</ele>
        <time>2020-05-13T14:55:49Z</time>
      </trkpt>
      <trkpt lat="42.95815" lon="-1.82413">
        <ele>472.345</ele>
        <time>2020-05-13T14:55:29Z</time>
      </trkpt>
      <trkpt lat="42.95801" lon="-1.82413">
        <ele>471.849</ele>
        <time>2020-05-13T14:55:09Z</time>
      </trkpt>
      <trkpt lat="42.95785" lon="-1.82413">
        <ele>471.354</ele>
        <time>2020-05-13T14:54:49Z</time>
      </trkpt>
      <trkpt lat="42.95767" lon="-1.82412">
        <ele>473.071</ele>
        <time>2020-05-13T14:54:29Z</time>
      </trkpt>
      <trkpt lat="42.95755" lon="-1.82411">
        <ele>472.846</ele>
        <time>2020-05-13T14:54:09Z</time>
      </trkpt>
      <trkpt lat="42.95753" lon="-1.82411">
        <ele>472.008</ele>
        <time>2020-05-13T14:53:49Z</time>
      </trkpt>
      <trkpt lat="42.95739" lon="-1.82411">
        <ele>471.105</ele>
        <time>2020-05-13T14:53:29Z</time>
      </trkpt>
      <trkpt lat="42.95725" lon="-1.8241">
        <ele>471.441</ele>
        <time>2020-05-13T14:53:09Z</time>
      </trkpt>
      <trkpt lat="42.95719" lon="-1.8241">
        <ele>471.421</ele>
        <time>2020-05-13T14:52:49Z</time>
      </trkpt>
      <trkpt lat="42.9571" lon="-1.82408">
        <ele>470.95</ele>
        <time>2020-05-13T14:52:29Z</time>
      </trkpt>
      <trkpt lat="42.95697" lon="-1.82406">
        <ele>470.882</ele>
        <time>2020-05-13T14:52:09Z</time>
      </trkpt>
      <trkpt lat="42.95684" lon="-1.82403">
        <ele>470.884</ele>
        <time>2020-05-13T14:51:49Z</time>
      </trkpt>
      <trkpt lat="42.9567" lon="-1.82401">
        <ele>470.942</ele>
        <time>2020-05-13T14:51:29Z</time>
      </trkpt>
      <trkpt lat="42.95659" lon="-1.82397">
        <ele>471.046</ele>
        <time>2020-05-13T14:51:09Z</time>
      </trkpt>
      <trkpt lat="42.95644" lon="-1.82395">
        <ele>471.071</ele>
        <time>2020-05-13T14:50:49Z</time>
      </trkpt>
      <trkpt lat="42.95629" lon="-1.82391">
        <ele>471.018</ele>
        <time>2020-05-13T14:50:29Z</time>
      </trkpt>
      <trkpt lat="42.95616" lon="-1.82387">
        <ele>470.963</ele>
        <time>2020-05-13T14:50:09Z</time>
      </trkpt>
      <trkpt lat="42.95603" lon="-1.82387">
        <ele>471.608</ele>
        <time>2020-05-13T14:49:49Z</time>
      </trkpt>
      <trkpt lat="42.9559" lon="-1.82387">
        <ele>470.824</ele>
        <time>2020-05-13T14:49:29Z</time>
      </trkpt>
      <trkpt lat="42.95582" lon="-1.82389">
        <ele>470.831</ele>
        <time>2020-05-13T14:49:09Z</time>
      </trkpt>
      <trkpt lat="42.95578" lon="-1.82389">
        <ele>470.896</ele>
        <time>2020-05-13T14:48:49Z</time>
      </trkpt>
      <trkpt lat="42.95574" lon="-1.82389">
        <ele>470.858</ele>
        <time>2020-05-13T14:48:29Z</time>
      </trkpt>
      <trkpt lat="42.95557" lon="-1.8239">
        <ele>470.82</ele>
        <time>2020-05-13T14:48:09Z</time>
      </trkpt>
      <trkpt lat="42.95554" lon="-1.8239">
        <ele>470.952</ele>
        <time>2020-05-13T14:47:49Z</time>
      </trkpt>
      <trkpt lat="42.95553" lon="-1.8239">
        <ele>470.93</ele>
        <time>2020-05-13T14:47:29Z</time>
      </trkpt>
      <trkpt lat="42.95551" lon="-1.8239">
        <ele>470.954</ele>
        <time>2020-05-13T14:47:09Z</time>
      </trkpt>
      <trkpt lat="42.95546" lon="-1.8239">
        <ele>471.629</ele>
        <time>2020-05-13T14:46:49Z</time>
      </trkpt>
      <trkpt lat="42.95539" lon="-1.82389">
        <ele>471.656</ele>
        <time>2020-05-13T14:46:29Z</time>
      </trkpt>
      <trkpt lat="42.95527" lon="-1.82386">
        <ele>470.951</ele>
        <time>2020-05-13T14:46:09Z</time>
      </trkpt>
      <trkpt lat="42.95511" lon="-1.82383">
        <ele>470.608</ele>
        <time>2020-05-13T14:45:49Z</time>
      </trkpt>
      <trkpt lat="42.95507" lon="-1.82382">
        <ele>472.02</ele>
        <time>2020-05-13T14:45:29Z</time>
      </trkpt>
      <trkpt lat="42.95503" lon="-1.82381">
        <ele>472.028</ele>
        <time>2020-05-13T14:45:09Z</time>
      </trkpt>
      <trkpt lat="42.955" lon="-1.82381">
        <ele>471.775</ele>
        <time>2020-05-13T14:44:49Z</time>
      </trkpt>
      <trkpt lat="42.95491" lon="-1.82379">
        <ele>470.969</ele>
        <time>2020-05-13T14:44:29Z</time>
      </trkpt>
      <trkpt lat="42.95487" lon="-1.82378">
        <ele>470.951</ele>
        <time>2020-05-13T14:44:09Z</time>
      </trkpt>
      <trkpt lat="42.95483" lon="-1.82377">
        <ele>470.673</ele>
        <time>2020-05-13T14:43:49Z</time>
      </trkpt>
      <trkpt lat="42.9548" lon="-1.82375">
        <ele>470.671</ele>
        <time>2020-05-13T14:43:29Z</time>
      </trkpt>
      <trkpt lat="42.95477" lon="-1.82373">
        <ele>470.695</ele>
        <time>2020-05-13T14:43:09Z</time>
      </trkpt>
      <trkpt lat="42.95465" lon="-1.82367">
        <ele>471.05</ele>
        <time>2020-05-13T14:42:49Z</time>
      </trkpt>
      <trkpt lat="42.95459" lon="-1.82364">
        <ele>471.017</ele>
        <time>2020-05-13T14:42:29Z</time>
      </trkpt>
      <trkpt lat="42.95456" lon="-1.82362">
        <ele>470.992</ele>
        <time>2020-05-13T14:42:09Z</time>
      </trkpt>
      <trkpt lat="42.95452" lon="-1.8236">
        <ele>470.908</ele>
        <time>2020-05-13T14:41:49Z</time>
      </trkpt>
      <trkpt lat="42.95448" lon="-1.82359">
        <ele>470.917</ele>
        <time>2020-05-13T14:41:29Z</time>
      </trkpt>
      <trkpt lat="42.95444" lon="-1.82358">
        <ele>471.143</ele>
        <time>2020-05-13T14:41:09Z</time>
      </trkpt>
      <trkpt lat="42.9544" lon="-1.82357">
        <ele>471.882</ele>
        <time>2020-05-13T14:40:49Z</time>
      </trkpt>
      <trkpt lat="42.95436" lon="-1.82355">
        <ele>471.735</ele>
        <time>2020-05-13T14:40:29Z</time>
      </trkpt>
      <trkpt lat="42.95433" lon="-1.82354">
        <ele>471.797</ele>
        <time>2020-05-13T14:40:09Z</time>
      </trkpt>
      <trkpt lat="42.95429" lon="-1.82353">
        <ele>471.369</ele>
        <time>2020-05-13T14:39:49Z</time>
      </trkpt>
      <trkpt lat="42.95425" lon="-1.82351">
        <ele>471.317</ele>
        <time>2020-05-13T14:39:29Z</time>
      </trkpt>
      <trkpt lat="42.95421" lon="-1.8235">
        <ele>471.341</ele>
        <time>2020-05-13T14:39:09Z</time>
      </trkpt>
      <trkpt lat="42.95418" lon="-1.82349">
        <ele>471.346</ele>
        <time>2020-05-13T14:38:49Z</time>
      </trkpt>
      <trkpt lat="42.95416" lon="-1.82348">
        <ele>471.343</ele>
        <time>2020-05-13T14:38:29Z</time>
      </trkpt>
      <trkpt lat="42.95412" lon="-1.82347">
        <ele>471.368</ele>
        <time>2020-05-13T14:38:09Z</time>
      </trkpt>
      <trkpt lat="42.95408" lon="-1.82346">
        <ele>471.608</ele>
        <time>2020-05-13T14:37:49Z</time>
      </trkpt>
      <trkpt lat="42.95404" lon="-1.82344">
        <ele>471.61</ele>
        <time>2020-05-13T14:37:29Z</time>
      </trkpt>
      <trkpt lat="42.954" lon="-1.82343">
        <ele>471.464</ele>
        <time>2020-05-13T14:37:09Z</time>
      </trkpt>
      <trkpt lat="42.95401" lon="-1.82342">
        <ele>471.443</ele>
        <time>2020-05-13T14:36:49Z</time>
      </trkpt>
      <trkpt lat="42.95402" lon="-1.82341">
        <ele>471.686</ele>
        <time>2020-05-13T14:36:29Z</time>
      </trkpt>
      <trkpt lat="42.95397" lon="-1.8234">
        <ele>471.448</ele>
        <time>2020-05-13T14:36:09Z</time>
      </trkpt>
      <trkpt lat="42.95388" lon="-1.82339">
        <ele>471.18</ele>
        <time>2020-05-13T14:35:49Z</time>
      </trkpt>
      <trkpt lat="42.95378" lon="-1.8234">
        <ele>471.288</ele>
        <time>2020-05-13T14:35:29Z</time>
      </trkpt>
      <trkpt lat="42.9537" lon="-1.82342">
        <ele>471.412</ele>
        <time>2020-05-13T14:35:09Z</time>
      </trkpt>
      <trkpt lat="42.95363" lon="-1.82343">
        <ele>470.937</ele>
        <time>2020-05-13T14:34:49Z</time>
      </trkpt>
      <trkpt lat="42.95357" lon="-1.82346">
        <ele>470.924</ele>
        <time>2020-05-13T14:34:29Z</time>
      </trkpt>
      <trkpt lat="42.95349" lon="-1.8235">
        <ele>470.919</ele>
        <time>2020-05-13T14:34:09Z</time>
      </trkpt>
      <trkpt lat="42.95341" lon="-1.82355">
        <ele>471.408</ele>
        <time>2020-05-13T14:33:49Z</time>
      </trkpt>
      <trkpt lat="42.95333" lon="-1.82361">
        <ele>469.117</ele>
        <time>2020-05-13T14:33:29Z</time>
      </trkpt>
      <trkpt lat="42.95324" lon="-1.82368">
        <ele>470.852</ele>
        <time>2020-05-13T14:33:09Z</time>
      </trkpt>
      <trkpt lat="42.9532" lon="-1.82372">
        <ele>467.658</ele>
        <time>2020-05-13T14:32:49Z</time>
      </trkpt>
      <trkpt lat="42.95317" lon="-1.82376">
        <ele>465.34</ele>
        <time>2020-05-13T14:32:29Z</time>
      </trkpt>
      <trkpt lat="42.95313" lon="-1.8238">
        <ele>465.352</ele>
        <time>2020-05-13T14:32:09Z</time>
      </trkpt>
      <trkpt lat="42.95307" lon="-1.82386">
        <ele>465.314</ele>
        <time>2020-05-13T14:31:49Z</time>
      </trkpt>
      <trkpt lat="42.95301" lon="-1.82393">
        <ele>464.982</ele>
        <time>2020-05-13T14:31:29Z</time>
      </trkpt>
      <trkpt lat="42.95295" lon="-1.82399">
        <ele>467.126</ele>
        <time>2020-05-13T14:31:09Z</time>
      </trkpt>
      <trkpt lat="42.95286" lon="-1.82409">
        <ele>470.671</ele>
        <time>2020-05-13T14:30:49Z</time>
      </trkpt>
      <trkpt lat="42.95281" lon="-1.82415">
        <ele>470.478</ele>
        <time>2020-05-13T14:30:29Z</time>
      </trkpt>
      <trkpt lat="42.95275" lon="-1.82422">
        <ele>470.223</ele>
        <time>2020-05-13T14:30:09Z</time>
      </trkpt>
      <trkpt lat="42.95273" lon="-1.82422">
        <ele>470.208</ele>
        <time>2020-05-13T14:29:49Z</time>
      </trkpt>
      <trkpt lat="42.9527" lon="-1.82421">
        <ele>470.227</ele>
        <time>2020-05-13T14:29:29Z</time>
      </trkpt>
      <trkpt lat="42.95267" lon="-1.8242">
        <ele>470.107</ele>
        <time>2020-05-13T14:29:09Z</time>
      </trkpt>
      <trkpt lat="42.95262" lon="-1.8242">
        <ele>470.199</ele>
        <time>2020-05-13T14:28:49Z</time>
      </trkpt>
      <trkpt lat="42.9526" lon="-1.8242">
        <ele>470.118</ele>
        <time>2020-05-13T14:28:29Z</time>
      </trkpt>
      <trkpt lat="42.95257" lon="-1.82421">
        <ele>470.21</ele>
        <time>2020-05-13T14:28:09Z</time>
      </trkpt>
      <trkpt lat="42.95251" lon="-1.82422">
        <ele>470.262</ele>
        <time>2020-05-13T14:27:49Z</time>
      </trkpt>
      <trkpt lat="42.9524" lon="-1.82428">
        <ele>470.42</ele>
        <time>2020-05-13T14:27:29Z</time>
      </trkpt>
      <trkpt lat="42.95235" lon="-1.82435">
        <ele>470.464</ele>
        <time>2020-05-13T14:27:09Z</time>
      </trkpt>
      <trkpt lat="42.95229" lon="-1.82445">
        <ele>470.599</ele>
        <time>2020-05-13T14:26:49Z</time>
      </trkpt>
      <trkpt lat="42.95224" lon="-1.82458">
        <ele>470.746</ele>
        <time>2020-05-13T14:26:29Z</time>
      </trkpt>
      <trkpt lat="42.95222" lon="-1.82473">
        <ele>479.671</ele>
        <time>2020-05-13T14:26:09Z</time>
      </trkpt>
      <trkpt lat="42.95222" lon="-1.82477">
        <ele>479.608</ele>
        <time>2020-05-13T14:25:49Z</time>
      </trkpt>
      <trkpt lat="42.95221" lon="-1.82484">
        <ele>479.621</ele>
        <time>2020-05-13T14:25:29Z</time>
      </trkpt>
      <trkpt lat="42.95219" lon="-1.82499">
        <ele>479.056</ele>
        <time>2020-05-13T14:25:09Z</time>
      </trkpt>
      <trkpt lat="42.95218" lon="-1.8251">
        <ele>478.374</ele>
        <time>2020-05-13T14:24:49Z</time>
      </trkpt>
      <trkpt lat="42.95218" lon="-1.82515">
        <ele>478.398</ele>
        <time>2020-05-13T14:24:29Z</time>
      </trkpt>
      <trkpt lat="42.95217" lon="-1.82518">
        <ele>478.37</ele>
        <time>2020-05-13T14:24:09Z</time>
      </trkpt>
      <trkpt lat="42.95215" lon="-1.82527">
        <ele>473.662</ele>
        <time>2020-05-13T14:23:49Z</time>
      </trkpt>
      <trkpt lat="42.95215" lon="-1.8253">
        <ele>475.73</ele>
        <time>2020-05-13T14:23:29Z</time>
      </trkpt>
      <trkpt lat="42.95213" lon="-1.82536">
        <ele>472.984</ele>
        <time>2020-05-13T14:23:09Z</time>
      </trkpt>
      <trkpt lat="42.95211" lon="-1.82542">
        <ele>472.989</ele>
        <time>2020-05-13T14:22:49Z</time>
      </trkpt>
      <trkpt lat="42.9521" lon="-1.82546">
        <ele>472.996</ele>
        <time>2020-05-13T14:22:29Z</time>
      </trkpt>
      <trkpt lat="42.95208" lon="-1.82548">
        <ele>475.031</ele>
        <time>2020-05-13T14:22:09Z</time>
      </trkpt>
      <trkpt lat="42.95207" lon="-1.82552">
        <ele>475.008</ele>
        <time>2020-05-13T14:21:49Z</time>
      </trkpt>
      <trkpt lat="42.95204" lon="-1.82556">
        <ele>473.227</ele>
        <time>2020-05-13T14:21:29Z</time>
      </trkpt>
      <trkpt lat="42.95203" lon="-1.82558">
        <ele>473.261</ele>
        <time>2020-05-13T14:21:09Z</time>
      </trkpt>
      <trkpt lat="42.95206" lon="-1.82566">
        <ele>479.577</ele>
        <time>2020-05-13T14:20:49Z</time>
      </trkpt>
      <trkpt lat="42.95203" lon="-1.8257">
        <ele>474.233</ele>
        <time>2020-05-13T14:20:29Z</time>
      </trkpt>
      <trkpt lat="42.95194" lon="-1.82579">
        <ele>476.215</ele>
        <time>2020-05-13T14:20:09Z</time>
      </trkpt>
      <trkpt lat="42.95187" lon="-1.82584">
        <ele>479.997</ele>
        <time>2020-05-13T14:19:49Z</time>
      </trkpt>
      <trkpt lat="42.95178" lon="-1.82587">
        <ele>477.095</ele>
        <time>2020-05-13T14:19:29Z</time>
      </trkpt>
      <trkpt lat="42.9517" lon="-1.8259">
        <ele>475.229</ele>
        <time>2020-05-13T14:19:09Z</time>
      </trkpt>
      <trkpt lat="42.95164" lon="-1.82593">
        <ele>475.234</ele>
        <time>2020-05-13T14:18:49Z</time>
      </trkpt>
      <trkpt lat="42.95159" lon="-1.82595">
        <ele>474.261</ele>
        <time>2020-05-13T14:18:29Z</time>
      </trkpt>
      <trkpt lat="42.95156" lon="-1.82599">
        <ele>476.576</ele>
        <time>2020-05-13T14:18:09Z</time>
      </trkpt>
      <trkpt lat="42.95151" lon="-1.82611">
        <ele>475.208</ele>
        <time>2020-05-13T14:17:49Z</time>
      </trkpt>
      <trkpt lat="42.95148" lon="-1.8262">
        <ele>475.205</ele>
        <time>2020-05-13T14:17:29Z</time>
      </trkpt>
      <trkpt lat="42.95147" lon="-1.8262">
        <ele>475.241</ele>
        <time>2020-05-13T14:17:09Z</time>
      </trkpt>
      <trkpt lat="42.95144" lon="-1.8262">
        <ele>475.221</ele>
        <time>2020-05-13T14:16:49Z</time>
      </trkpt>
      <trkpt lat="42.95145" lon="-1.82627">
        <ele>477.423</ele>
        <time>2020-05-13T14:16:29Z</time>
      </trkpt>
      <trkpt lat="42.95144" lon="-1.82631">
        <ele>477.495</ele>
        <time>2020-05-13T14:16:09Z</time>
      </trkpt>
      <trkpt lat="42.95144" lon="-1.82633">
        <ele>481.717</ele>
        <time>2020-05-13T14:15:49Z</time>
      </trkpt>
      <trkpt lat="42.95143" lon="-1.82634">
        <ele>480.295</ele>
        <time>2020-05-13T14:15:29Z</time>
      </trkpt>
      <trkpt lat="42.95139" lon="-1.82634">
        <ele>480.299</ele>
        <time>2020-05-13T14:15:09Z</time>
      </trkpt>
      <trkpt lat="42.95131" lon="-1.82635">
        <ele>478.234</ele>
        <time>2020-05-13T14:14:49Z</time>
      </trkpt>
      <trkpt lat="42.95124" lon="-1.82636">
        <ele>477.461</ele>
        <time>2020-05-13T14:14:29Z</time>
      </trkpt>
      <trkpt lat="42.95115" lon="-1.82639">
        <ele>475.426</ele>
        <time>2020-05-13T14:14:09Z</time>
      </trkpt>
      <trkpt lat="42.95105" lon="-1.82641">
        <ele>474.408</ele>
        <time>2020-05-13T14:13:49Z</time>
      </trkpt>
      <trkpt lat="42.95097" lon="-1.82644">
        <ele>473.117</ele>
        <time>2020-05-13T14:13:29Z</time>
      </trkpt>
      <trkpt lat="42.95092" lon="-1.82647">
        <ele>475.789</ele>
        <time>2020-05-13T14:13:09Z</time>
      </trkpt>
      <trkpt lat="42.95082" lon="-1.82655">
        <ele>473.028</ele>
        <time>2020-05-13T14:12:49Z</time>
      </trkpt>
      <trkpt lat="42.95073" lon="-1.82663">
        <ele>472.857</ele>
        <time>2020-05-13T14:12:29Z</time>
      </trkpt>
      <trkpt lat="42.95065" lon="-1.8267">
        <ele>469.469</ele>
        <time>2020-05-13T14:12:09Z</time>
      </trkpt>
      <trkpt lat="42.95062" lon="-1.82671">
        <ele>468.871</ele>
        <time>2020-05-13T14:11:49Z</time>
      </trkpt>
      <trkpt lat="42.95061" lon="-1.82669">
        <ele>468.889</ele>
        <time>2020-05-13T14:11:29Z</time>
      </trkpt>
      <trkpt lat="42.95059" lon="-1.82666">
        <ele>468.833</ele>
        <time>2020-05-13T14:11:09Z</time>
      </trkpt>
      <trkpt lat="42.95058" lon="-1.82663">
        <ele>468.898</ele>
        <time>2020-05-13T14:10:49Z</time>
      </trkpt>
      <trkpt lat="42.95057" lon="-1.82663">
        <ele>468.815</ele>
        <time>2020-05-13T14:10:29Z</time>
      </trkpt>
      <trkpt lat="42.95056" lon="-1.8266">
        <ele>468.84</ele>
        <time>2020-05-13T14:10:09Z</time>
      </trkpt>
      <trkpt lat="42.95056" lon="-1.8266">
        <ele>468.808</ele>
        <time>2020-05-13T14:09:49Z</time>
      </trkpt>
      <trkpt lat="42.95051" lon="-1.82657">
        <ele>468.611</ele>
        <time>2020-05-13T14:09:29Z</time>
      </trkpt>
      <trkpt lat="42.95012" lon="-1.82697">
        <ele>468.483</ele>
        <time>2020-05-13T14:09:09Z</time>
      </trkpt>
      <trkpt lat="42.9497" lon="-1.82738">
        <ele>467.962</ele>
        <time>2020-05-13T14:08:49Z</time>
      </trkpt>
      <trkpt lat="42.94937" lon="-1.82762">
        <ele>466.92</ele>
        <time>2020-05-13T14:08:29Z</time>
      </trkpt>
      <trkpt lat="42.94906" lon="-1.82781">
        <ele>466.172</ele>
        <time>2020-05-13T14:08:09Z</time>
      </trkpt>
      <trkpt lat="42.9488" lon="-1.82796">
        <ele>466.124</ele>
        <time>2020-05-13T14:07:49Z</time>
      </trkpt>
      <trkpt lat="42.94839" lon="-1.82814">
        <ele>465.892</ele>
        <time>2020-05-13T14:07:29Z</time>
      </trkpt>
      <trkpt lat="42.94809" lon="-1.82826">
        <ele>465.766</ele>
        <time>2020-05-13T14:07:09Z</time>
      </trkpt>
      <trkpt lat="42.94715" lon="-1.82858">
        <ele>463.571</ele>
        <time>2020-05-13T14:06:49Z</time>
      </trkpt>
      <trkpt lat="42.9463" lon="-1.82887">
        <ele>462.958</ele>
        <time>2020-05-13T14:06:29Z</time>
      </trkpt>
      <trkpt lat="42.94583" lon="-1.82902">
        <ele>463.313</ele>
        <time>2020-05-13T14:06:09Z</time>
      </trkpt>
      <trkpt lat="42.94518" lon="-1.82925">
        <ele>463.508</ele>
        <time>2020-05-13T14:05:49Z</time>
      </trkpt>
      <trkpt lat="42.9449" lon="-1.82934">
        <ele>463.123</ele>
        <time>2020-05-13T14:05:29Z</time>
      </trkpt>
      <trkpt lat="42.94476" lon="-1.82937">
        <ele>463.049</ele>
        <time>2020-05-13T14:05:09Z</time>
      </trkpt>
      <trkpt lat="42.9447" lon="-1.82937">
        <ele>463.095</ele>
        <time>2020-05-13T14:04:49Z</time>
      </trkpt>
      <trkpt lat="42.94463" lon="-1.82935">
        <ele>463.068</ele>
        <time>2020-05-13T14:04:29Z</time>
      </trkpt>
      <trkpt lat="42.94455" lon="-1.8293">
        <ele>463.15</ele>
        <time>2020-05-13T14:04:09Z</time>
      </trkpt>
      <trkpt lat="42.94447" lon="-1.82923">
        <ele>463.222</ele>
        <time>2020-05-13T14:03:49Z</time>
      </trkpt>
      <trkpt lat="42.9444" lon="-1.82921">
        <ele>463.47</ele>
        <time>2020-05-13T14:03:29Z</time>
      </trkpt>
      <trkpt lat="42.94437" lon="-1.82922">
        <ele>463.444</ele>
        <time>2020-05-13T14:03:09Z</time>
      </trkpt>
      <trkpt lat="42.94432" lon="-1.82923">
        <ele>463.339</ele>
        <time>2020-05-13T14:02:49Z</time>
      </trkpt>
      <trkpt lat="42.94427" lon="-1.82924">
        <ele>463.396</ele>
        <time>2020-05-13T14:02:29Z</time>
      </trkpt>
      <trkpt lat="42.94425" lon="-1.82924">
        <ele>462.741</ele>
        <time>2020-05-13T14:02:09Z</time>
      </trkpt>
      <trkpt lat="42.94423" lon="-1.82924">
        <ele>462.708</ele>
        <time>2020-05-13T14:01:49Z</time>
      </trkpt>
      <trkpt lat="42.94421" lon="-1.82924">
        <ele>462.726</ele>
        <time>2020-05-13T14:01:29Z</time>
      </trkpt>
      <trkpt lat="42.94418" lon="-1.82924">
        <ele>462.733</ele>
        <time>2020-05-13T14:01:09Z</time>
      </trkpt>
      <trkpt lat="42.94416" lon="-1.82924">
        <ele>464.078</ele>
        <time>2020-05-13T14:00:49Z</time>
      </trkpt>
      <trkpt lat="42.94414" lon="-1.82923">
        <ele>464.079</ele>
        <time>2020-05-13T14:00:29Z</time>
      </trkpt>
      <trkpt lat="42.94412" lon="-1.82922">
        <ele>464.091</ele>
        <time>2020-05-13T14:00:09Z</time>
      </trkpt>
      <trkpt lat="42.9441" lon="-1.82921">
        <ele>464.043</ele>
        <time>2020-05-13T13:59:49Z</time>
      </trkpt>
      <trkpt lat="42.94406" lon="-1.82919">
        <ele>465.271</ele>
        <time>2020-05-13T13:59:29Z</time>
      </trkpt>
      <trkpt lat="42.94401" lon="-1.82916">
        <ele>462.355</ele>
        <time>2020-05-13T13:59:09Z</time>
      </trkpt>
      <trkpt lat="42.94397" lon="-1.82913">
        <ele>464.61</ele>
        <time>2020-05-13T13:58:49Z</time>
      </trkpt>
      <trkpt lat="42.94393" lon="-1.8291">
        <ele>464.697</ele>
        <time>2020-05-13T13:58:29Z</time>
      </trkpt>
      <trkpt lat="42.94391" lon="-1.82908">
        <ele>464.682</ele>
        <time>2020-05-13T13:58:09Z</time>
      </trkpt>
      <trkpt lat="42.94389" lon="-1.82906">
        <ele>469.408</ele>
        <time>2020-05-13T13:57:49Z</time>
      </trkpt>
      <trkpt lat="42.94385" lon="-1.82902">
        <ele>462.417</ele>
        <time>2020-05-13T13:57:29Z</time>
      </trkpt>
      <trkpt lat="42.94382" lon="-1.82899">
        <ele>462.489</ele>
        <time>2020-05-13T13:57:09Z</time>
      </trkpt>
      <trkpt lat="42.94379" lon="-1.82894">
        <ele>467.785</ele>
        <time>2020-05-13T13:56:49Z</time>
      </trkpt>
      <trkpt lat="42.94373" lon="-1.82885">
        <ele>462.275</ele>
        <time>2020-05-13T13:56:29Z</time>
      </trkpt>
      <trkpt lat="42.94365" lon="-1.8287">
        <ele>462.897</ele>
        <time>2020-05-13T13:56:09Z</time>
      </trkpt>
      <trkpt lat="42.94361" lon="-1.82861">
        <ele>469.219</ele>
        <time>2020-05-13T13:55:49Z</time>
      </trkpt>
      <trkpt lat="42.94358" lon="-1.82856">
        <ele>462.267</ele>
        <time>2020-05-13T13:55:29Z</time>
      </trkpt>
      <trkpt lat="42.94356" lon="-1.8285">
        <ele>462.261</ele>
        <time>2020-05-13T13:55:09Z</time>
      </trkpt>
      <trkpt lat="42.94352" lon="-1.82839">
        <ele>467.596</ele>
        <time>2020-05-13T13:54:49Z</time>
      </trkpt>
      <trkpt lat="42.94349" lon="-1.82832">
        <ele>467.513</ele>
        <time>2020-05-13T13:54:29Z</time>
      </trkpt>
      <trkpt lat="42.94346" lon="-1.82823">
        <ele>461.678</ele>
        <time>2020-05-13T13:54:09Z</time>
      </trkpt>
      <trkpt lat="42.94344" lon="-1.82814">
        <ele>464.608</ele>
        <time>2020-05-13T13:53:49Z</time>
      </trkpt>
      <trkpt lat="42.94342" lon="-1.82808">
        <ele>464.622</ele>
        <time>2020-05-13T13:53:29Z</time>
      </trkpt>
      <trkpt lat="42.94339" lon="-1.82796">
        <ele>461.302</ele>
        <time>2020-05-13T13:53:09Z</time>
      </trkpt>
      <trkpt lat="42.94335" lon="-1.82772">
        <ele>467.949</ele>
        <time>2020-05-13T13:52:49Z</time>
      </trkpt>
      <trkpt lat="42.9433" lon="-1.82749">
        <ele>462.733</ele>
        <time>2020-05-13T13:52:29Z</time>
      </trkpt>
      <trkpt lat="42.94324" lon="-1.8272">
        <ele>463.375</ele>
        <time>2020-05-13T13:52:09Z</time>
      </trkpt>
      <trkpt lat="42.94318" lon="-1.82692">
        <ele>460.377</ele>
        <time>2020-05-13T13:51:49Z</time>
      </trkpt>
      <trkpt lat="42.94311" lon="-1.82658">
        <ele>460.665</ele>
        <time>2020-05-13T13:51:29Z</time>
      </trkpt>
      <trkpt lat="42.9431" lon="-1.82656">
        <ele>460.639</ele>
        <time>2020-05-13T13:51:09Z</time>
      </trkpt>
      <trkpt lat="42.94306" lon="-1.82638">
        <ele>467.684</ele>
        <time>2020-05-13T13:50:49Z</time>
      </trkpt>
      <trkpt lat="42.94302" lon="-1.8262">
        <ele>461.091</ele>
        <time>2020-05-13T13:50:29Z</time>
      </trkpt>
      <trkpt lat="42.94299" lon="-1.82612">
        <ele>460.846</ele>
        <time>2020-05-13T13:50:09Z</time>
      </trkpt>
      <trkpt lat="42.94295" lon="-1.82594">
        <ele>461.408</ele>
        <time>2020-05-13T13:49:49Z</time>
      </trkpt>
      <trkpt lat="42.94291" lon="-1.82578">
        <ele>460.114</ele>
        <time>2020-05-13T13:49:29Z</time>
      </trkpt>
      <trkpt lat="42.9429" lon="-1.82573">
        <ele>460.404</ele>
        <time>2020-05-13T13:49:09Z</time>
      </trkpt>
      <trkpt lat="42.94288" lon="-1.82563">
        <ele>460.724</ele>
        <time>2020-05-13T13:48:49Z</time>
      </trkpt>
      <trkpt lat="42.94287" lon="-1.82556">
        <ele>462.385</ele>
        <time>2020-05-13T13:48:29Z</time>
      </trkpt>
      <trkpt lat="42.94284" lon="-1.82545">
        <ele>461.317</ele>
        <time>2020-05-13T13:48:09Z</time>
      </trkpt>
      <trkpt lat="42.94281" lon="-1.82534">
        <ele>460.549</ele>
        <time>2020-05-13T13:47:49Z</time>
      </trkpt>
      <trkpt lat="42.94278" lon="-1.8252">
        <ele>464.727</ele>
        <time>2020-05-13T13:47:29Z</time>
      </trkpt>
      <trkpt lat="42.94274" lon="-1.82504">
        <ele>461.981</ele>
        <time>2020-05-13T13:47:09Z</time>
      </trkpt>
      <trkpt lat="42.94271" lon="-1.82489">
        <ele>459.986</ele>
        <time>2020-05-13T13:46:49Z</time>
      </trkpt>
      <trkpt lat="42.94268" lon="-1.82478">
        <ele>460.113</ele>
        <time>2020-05-13T13:46:29Z</time>
      </trkpt>
      <trkpt lat="42.94266" lon="-1.82472">
        <ele>460.118</ele>
        <time>2020-05-13T13:46:09Z</time>
      </trkpt>
      <trkpt lat="42.94264" lon="-1.82465">
        <ele>459.808</ele>
        <time>2020-05-13T13:45:49Z</time>
      </trkpt>
      <trkpt lat="42.94262" lon="-1.82459">
        <ele>459.816</ele>
        <time>2020-05-13T13:45:29Z</time>
      </trkpt>
      <trkpt lat="42.9426" lon="-1.82453">
        <ele>459.588</ele>
        <time>2020-05-13T13:45:09Z</time>
      </trkpt>
      <trkpt lat="42.94255" lon="-1.82439">
        <ele>459.646</ele>
        <time>2020-05-13T13:44:49Z</time>
      </trkpt>
      <trkpt lat="42.9425" lon="-1.82425">
        <ele>461.719</ele>
        <time>2020-05-13T13:44:29Z</time>
      </trkpt>
      <trkpt lat="42.94247" lon="-1.82419">
        <ele>461.771</ele>
        <time>2020-05-13T13:44:09Z</time>
      </trkpt>
      <trkpt lat="42.94245" lon="-1.82412">
        <ele>459.973</ele>
        <time>2020-05-13T13:43:49Z</time>
      </trkpt>
      <trkpt lat="42.9424" lon="-1.82402">
        <ele>460.631</ele>
        <time>2020-05-13T13:43:29Z</time>
      </trkpt>
      <trkpt lat="42.94236" lon="-1.82395">
        <ele>460.625</ele>
        <time>2020-05-13T13:43:09Z</time>
      </trkpt>
      <trkpt lat="42.94232" lon="-1.82388">
        <ele>462.04</ele>
        <time>2020-05-13T13:42:49Z</time>
      </trkpt>
      <trkpt lat="42.94225" lon="-1.82378">
        <ele>460.387</ele>
        <time>2020-05-13T13:42:29Z</time>
      </trkpt>
      <trkpt lat="42.94222" lon="-1.82373">
        <ele>461.842</ele>
        <time>2020-05-13T13:42:09Z</time>
      </trkpt>
      <trkpt lat="42.94218" lon="-1.82368">
        <ele>460.108</ele>
        <time>2020-05-13T13:41:49Z</time>
      </trkpt>
      <trkpt lat="42.94214" lon="-1.82365">
        <ele>460.126</ele>
        <time>2020-05-13T13:41:29Z</time>
      </trkpt>
      <trkpt lat="42.94212" lon="-1.8236">
        <ele>461.406</ele>
        <time>2020-05-13T13:41:09Z</time>
      </trkpt>
      <trkpt lat="42.9421" lon="-1.82358">
        <ele>461.489</ele>
        <time>2020-05-13T13:40:49Z</time>
      </trkpt>
      <trkpt lat="42.94207" lon="-1.82355">
        <ele>460.426</ele>
        <time>2020-05-13T13:40:29Z</time>
      </trkpt>
      <trkpt lat="42.94205" lon="-1.82354">
        <ele>460.448</ele>
        <time>2020-05-13T13:40:09Z</time>
      </trkpt>
      <trkpt lat="42.94202" lon="-1.82353">
        <ele>461.12</ele>
        <time>2020-05-13T13:39:49Z</time>
      </trkpt>
      <trkpt lat="42.942" lon="-1.82352">
        <ele>461.118</ele>
        <time>2020-05-13T13:39:29Z</time>
      </trkpt>
      <trkpt lat="42.94198" lon="-1.82352">
        <ele>461.182</ele>
        <time>2020-05-13T13:39:09Z</time>
      </trkpt>
      <trkpt lat="42.94195" lon="-1.82351">
        <ele>459.987</ele>
        <time>2020-05-13T13:38:49Z</time>
      </trkpt>
      <trkpt lat="42.94193" lon="-1.82352">
        <ele>459.924</ele>
        <time>2020-05-13T13:38:29Z</time>
      </trkpt>
      <trkpt lat="42.94191" lon="-1.82352">
        <ele>459.989</ele>
        <time>2020-05-13T13:38:09Z</time>
      </trkpt>
      <trkpt lat="42.94188" lon="-1.82354">
        <ele>459.908</ele>
        <time>2020-05-13T13:37:49Z</time>
      </trkpt>
      <trkpt lat="42.94183" lon="-1.82357">
        <ele>460.114</ele>
        <time>2020-05-13T13:37:29Z</time>
      </trkpt>
      <trkpt lat="42.94177" lon="-1.8236">
        <ele>462.404</ele>
        <time>2020-05-13T13:37:09Z</time>
      </trkpt>
      <trkpt lat="42.94174" lon="-1.82362">
        <ele>462.453</ele>
        <time>2020-05-13T13:36:49Z</time>
      </trkpt>
      <trkpt lat="42.94172" lon="-1.82363">
        <ele>462.423</ele>
        <time>2020-05-13T13:36:29Z</time>
      </trkpt>
      <trkpt lat="42.94164" lon="-1.8237">
        <ele>461.295</ele>
        <time>2020-05-13T13:36:09Z</time>
      </trkpt>
      <trkpt lat="42.9416" lon="-1.82373">
        <ele>464.077</ele>
        <time>2020-05-13T13:35:49Z</time>
      </trkpt>
      <trkpt lat="42.94146" lon="-1.82386">
        <ele>463.185</ele>
        <time>2020-05-13T13:35:29Z</time>
      </trkpt>
      <trkpt lat="42.94134" lon="-1.82397">
        <ele>463.929</ele>
        <time>2020-05-13T13:35:09Z</time>
      </trkpt>
      <trkpt lat="42.94121" lon="-1.82409">
        <ele>462.184</ele>
        <time>2020-05-13T13:34:49Z</time>
      </trkpt>
      <trkpt lat="42.94109" lon="-1.8242">
        <ele>463.091</ele>
        <time>2020-05-13T13:34:29Z</time>
      </trkpt>
      <trkpt lat="42.94103" lon="-1.82427">
        <ele>460.356</ele>
        <time>2020-05-13T13:34:09Z</time>
      </trkpt>
      <trkpt lat="42.94096" lon="-1.82434">
        <ele>461.708</ele>
        <time>2020-05-13T13:33:49Z</time>
      </trkpt>
      <trkpt lat="42.94096" lon="-1.82435">
        <ele>461.711</ele>
        <time>2020-05-13T13:33:29Z</time>
      </trkpt>
      <trkpt lat="42.94089" lon="-1.8244">
        <ele>461.783</ele>
        <time>2020-05-13T13:33:09Z</time>
      </trkpt>
      <trkpt lat="42.94089" lon="-1.82441">
        <ele>461.723</ele>
        <time>2020-05-13T13:32:49Z</time>
      </trkpt>
      <trkpt lat="42.94085" lon="-1.82444">
        <ele>459.195</ele>
        <time>2020-05-13T13:32:29Z</time>
      </trkpt>
      <trkpt lat="42.94083" lon="-1.82446">
        <ele>460.557</ele>
        <time>2020-05-13T13:32:09Z</time>
      </trkpt>
      <trkpt lat="42.94081" lon="-1.82448">
        <ele>460.559</ele>
        <time>2020-05-13T13:31:49Z</time>
      </trkpt>
      <trkpt lat="42.94069" lon="-1.82462">
        <ele>458.847</ele>
        <time>2020-05-13T13:31:29Z</time>
      </trkpt>
      <trkpt lat="42.94066" lon="-1.82468">
        <ele>458.881</ele>
        <time>2020-05-13T13:31:09Z</time>
      </trkpt>
      <trkpt lat="42.94062" lon="-1.82475">
        <ele>466.526</ele>
        <time>2020-05-13T13:30:49Z</time>
      </trkpt>
      <trkpt lat="42.94061" lon="-1.82477">
        <ele>458.963</ele>
        <time>2020-05-13T13:30:29Z</time>
      </trkpt>
      <trkpt lat="42.94055" lon="-1.82486">
        <ele>465.588</ele>
        <time>2020-05-13T13:30:09Z</time>
      </trkpt>
      <trkpt lat="42.94049" lon="-1.82497">
        <ele>462.808</ele>
        <time>2020-05-13T13:29:49Z</time>
      </trkpt>
      <trkpt lat="42.94044" lon="-1.82506">
        <ele>462.816</ele>
        <time>2020-05-13T13:29:29Z</time>
      </trkpt>
      <trkpt lat="42.9404" lon="-1.82513">
        <ele>460.088</ele>
        <time>2020-05-13T13:29:09Z</time>
      </trkpt>
      <trkpt lat="42.94038" lon="-1.82518">
        <ele>460.046</ele>
        <time>2020-05-13T13:28:49Z</time>
      </trkpt>
      <trkpt lat="42.94036" lon="-1.82523">
        <ele>462.215</ele>
        <time>2020-05-13T13:28:29Z</time>
      </trkpt>
      <trkpt lat="42.94034" lon="-1.82531">
        <ele>457.417</ele>
        <time>2020-05-13T13:28:09Z</time>
      </trkpt>
      <trkpt lat="42.94033" lon="-1.82538">
        <ele>457.179</ele>
        <time>2020-05-13T13:27:49Z</time>
      </trkpt>
      <trkpt lat="42.94028" lon="-1.8254">
        <ele>457.157</ele>
        <time>2020-05-13T13:27:29Z</time>
      </trkpt>
      <trkpt lat="42.94021" lon="-1.82543">
        <ele>457.311</ele>
        <time>2020-05-13T13:27:09Z</time>
      </trkpt>
      <trkpt lat="42.94018" lon="-1.82548">
        <ele>456.686</ele>
        <time>2020-05-13T13:26:49Z</time>
      </trkpt>
      <trkpt lat="42.94016" lon="-1.82554">
        <ele>455.393</ele>
        <time>2020-05-13T13:26:29Z</time>
      </trkpt>
      <trkpt lat="42.94011" lon="-1.82553">
        <ele>455.318</ele>
        <time>2020-05-13T13:26:09Z</time>
      </trkpt>
      <trkpt lat="42.94" lon="-1.82545">
        <ele>453.708</ele>
        <time>2020-05-13T13:25:49Z</time>
      </trkpt>
      <trkpt lat="42.93994" lon="-1.82541">
        <ele>469.91</ele>
        <time>2020-05-13T13:25:29Z</time>
      </trkpt>
      <trkpt lat="42.9399" lon="-1.82551">
        <ele>476.464</ele>
        <time>2020-05-13T13:25:09Z</time>
      </trkpt>
      <trkpt lat="42.9399" lon="-1.82561">
        <ele>476.043</ele>
        <time>2020-05-13T13:24:49Z</time>
      </trkpt>
      <trkpt lat="42.93989" lon="-1.82574">
        <ele>467.34</ele>
        <time>2020-05-13T13:24:29Z</time>
      </trkpt>
      <trkpt lat="42.93985" lon="-1.82591">
        <ele>460.392</ele>
        <time>2020-05-13T13:24:09Z</time>
      </trkpt>
      <trkpt lat="42.93976" lon="-1.82602">
        <ele>458.564</ele>
        <time>2020-05-13T13:23:49Z</time>
      </trkpt>
      <trkpt lat="42.93969" lon="-1.82606">
        <ele>458.792</ele>
        <time>2020-05-13T13:23:29Z</time>
      </trkpt>
      <trkpt lat="42.93953" lon="-1.82615">
        <ele>458.536</ele>
        <time>2020-05-13T13:23:09Z</time>
      </trkpt>
      <trkpt lat="42.93935" lon="-1.82627">
        <ele>458.481</ele>
        <time>2020-05-13T13:22:49Z</time>
      </trkpt>
      <trkpt lat="42.93914" lon="-1.82638">
        <ele>458.898</ele>
        <time>2020-05-13T13:22:29Z</time>
      </trkpt>
      <trkpt lat="42.93892" lon="-1.82653">
        <ele>460.323</ele>
        <time>2020-05-13T13:22:09Z</time>
      </trkpt>
      <trkpt lat="42.93871" lon="-1.82663">
        <ele>461.608</ele>
        <time>2020-05-13T13:21:49Z</time>
      </trkpt>
      <trkpt lat="42.93857" lon="-1.82673">
        <ele>460.921</ele>
        <time>2020-05-13T13:21:29Z</time>
      </trkpt>
      <trkpt lat="42.9384" lon="-1.82681">
        <ele>463.065</ele>
        <time>2020-05-13T13:21:09Z</time>
      </trkpt>
      <trkpt lat="42.93821" lon="-1.82686">
        <ele>459.093</ele>
        <time>2020-05-13T13:20:49Z</time>
      </trkpt>
      <trkpt lat="42.93806" lon="-1.82689">
        <ele>460.799</ele>
        <time>2020-05-13T13:20:29Z</time>
      </trkpt>
      <trkpt lat="42.93797" lon="-1.82695">
        <ele>461.951</ele>
        <time>2020-05-13T13:20:09Z</time>
      </trkpt>
      <trkpt lat="42.93787" lon="-1.82705">
        <ele>461.573</ele>
        <time>2020-05-13T13:19:49Z</time>
      </trkpt>
      <trkpt lat="42.93782" lon="-1.82713">
        <ele>461.091</ele>
        <time>2020-05-13T13:19:29Z</time>
      </trkpt>
      <trkpt lat="42.93775" lon="-1.8272">
        <ele>466.915</ele>
        <time>2020-05-13T13:19:09Z</time>
      </trkpt>
      <trkpt lat="42.93759" lon="-1.82743">
        <ele>462.26</ele>
        <time>2020-05-13T13:18:49Z</time>
      </trkpt>
      <trkpt lat="42.9375" lon="-1.82762">
        <ele>461.287</ele>
        <time>2020-05-13T13:18:29Z</time>
      </trkpt>
      <trkpt lat="42.93743" lon="-1.82782">
        <ele>460.942</ele>
        <time>2020-05-13T13:18:09Z</time>
      </trkpt>
      <trkpt lat="42.93729" lon="-1.82812">
        <ele>463.308</ele>
        <time>2020-05-13T13:17:49Z</time>
      </trkpt>
      <trkpt lat="42.93718" lon="-1.82837">
        <ele>461.917</ele>
        <time>2020-05-13T13:17:29Z</time>
      </trkpt>
      <trkpt lat="42.93709" lon="-1.82861">
        <ele>462.061</ele>
        <time>2020-05-13T13:17:09Z</time>
      </trkpt>
      <trkpt lat="42.93704" lon="-1.82875">
        <ele>464.581</ele>
        <time>2020-05-13T13:16:49Z</time>
      </trkpt>
      <trkpt lat="42.93692" lon="-1.82899">
        <ele>462.378</ele>
        <time>2020-05-13T13:16:29Z</time>
      </trkpt>
      <trkpt lat="42.93684" lon="-1.82922">
        <ele>462.77</ele>
        <time>2020-05-13T13:16:09Z</time>
      </trkpt>
      <trkpt lat="42.93672" lon="-1.82943">
        <ele>463.442</ele>
        <time>2020-05-13T13:15:49Z</time>
      </trkpt>
      <trkpt lat="42.93656" lon="-1.82963">
        <ele>464.47</ele>
        <time>2020-05-13T13:15:29Z</time>
      </trkpt>
      <trkpt lat="42.93643" lon="-1.82972">
        <ele>465.124</ele>
        <time>2020-05-13T13:15:09Z</time>
      </trkpt>
      <trkpt lat="42.93626" lon="-1.8298">
        <ele>464.729</ele>
        <time>2020-05-13T13:14:49Z</time>
      </trkpt>
      <trkpt lat="42.93608" lon="-1.82987">
        <ele>465.016</ele>
        <time>2020-05-13T13:14:29Z</time>
      </trkpt>
      <trkpt lat="42.93589" lon="-1.82989">
        <ele>464.541</ele>
        <time>2020-05-13T13:14:09Z</time>
      </trkpt>
      <trkpt lat="42.93571" lon="-1.82984">
        <ele>462.808</ele>
        <time>2020-05-13T13:13:49Z</time>
      </trkpt>
      <trkpt lat="42.93554" lon="-1.82977">
        <ele>467.126</ele>
        <time>2020-05-13T13:13:29Z</time>
      </trkpt>
      <trkpt lat="42.93543" lon="-1.82971">
        <ele>463.233</ele>
        <time>2020-05-13T13:13:09Z</time>
      </trkpt>
      <trkpt lat="42.93525" lon="-1.82959">
        <ele>464.378</ele>
        <time>2020-05-13T13:12:49Z</time>
      </trkpt>
      <trkpt lat="42.93516" lon="-1.82948">
        <ele>465.043</ele>
        <time>2020-05-13T13:12:29Z</time>
      </trkpt>
      <trkpt lat="42.93499" lon="-1.82937">
        <ele>465.865</ele>
        <time>2020-05-13T13:12:09Z</time>
      </trkpt>
      <trkpt lat="42.93485" lon="-1.82931">
        <ele>465.337</ele>
        <time>2020-05-13T13:11:49Z</time>
      </trkpt>
      <trkpt lat="42.93453" lon="-1.82916">
        <ele>465.475</ele>
        <time>2020-05-13T13:11:29Z</time>
      </trkpt>
      <trkpt lat="42.93445" lon="-1.82905">
        <ele>465.559</ele>
        <time>2020-05-13T13:11:09Z</time>
      </trkpt>
      <trkpt lat="42.93441" lon="-1.82902">
        <ele>465.334</ele>
        <time>2020-05-13T13:10:49Z</time>
      </trkpt>
      <trkpt lat="42.93436" lon="-1.82897">
        <ele>471.471</ele>
        <time>2020-05-13T13:10:29Z</time>
      </trkpt>
      <trkpt lat="42.93429" lon="-1.82887">
        <ele>470.616</ele>
        <time>2020-05-13T13:10:09Z</time>
      </trkpt>
      <trkpt lat="42.93425" lon="-1.82881">
        <ele>470.308</ele>
        <time>2020-05-13T13:09:49Z</time>
      </trkpt>
      <trkpt lat="42.93408" lon="-1.82858">
        <ele>475.511</ele>
        <time>2020-05-13T13:09:29Z</time>
      </trkpt>
      <trkpt lat="42.93403" lon="-1.82852">
        <ele>474.983</ele>
        <time>2020-05-13T13:09:09Z</time>
      </trkpt>
      <trkpt lat="42.93391" lon="-1.82838">
        <ele>473.723</ele>
        <time>2020-05-13T13:08:49Z</time>
      </trkpt>
      <trkpt lat="42.93373" lon="-1.82833">
        <ele>466.947</ele>
        <time>2020-05-13T13:08:29Z</time>
      </trkpt>
      <trkpt lat="42.93369" lon="-1.82833">
        <ele>466.729</ele>
        <time>2020-05-13T13:08:09Z</time>
      </trkpt>
      <trkpt lat="42.93347" lon="-1.82837">
        <ele>467.021</ele>
        <time>2020-05-13T13:07:49Z</time>
      </trkpt>
      <trkpt lat="42.9334" lon="-1.82839">
        <ele>469.029</ele>
        <time>2020-05-13T13:07:29Z</time>
      </trkpt>
      <trkpt lat="42.93317" lon="-1.82843">
        <ele>468.963</ele>
        <time>2020-05-13T13:07:09Z</time>
      </trkpt>
      <trkpt lat="42.93283" lon="-1.8284">
        <ele>467.378</ele>
        <time>2020-05-13T13:06:49Z</time>
      </trkpt>
      <trkpt lat="42.93274" lon="-1.82839">
        <ele>469.075</ele>
        <time>2020-05-13T13:06:29Z</time>
      </trkpt>
      <trkpt lat="42.93265" lon="-1.82838">
        <ele>467.39</ele>
        <time>2020-05-13T13:06:09Z</time>
      </trkpt>
      <trkpt lat="42.9325" lon="-1.82835">
        <ele>467.608</ele>
        <time>2020-05-13T13:05:49Z</time>
      </trkpt>
      <trkpt lat="42.93241" lon="-1.82833">
        <ele>467.411</ele>
        <time>2020-05-13T13:05:29Z</time>
      </trkpt>
      <trkpt lat="42.93221" lon="-1.82827">
        <ele>472.983</ele>
        <time>2020-05-13T13:05:09Z</time>
      </trkpt>
      <trkpt lat="42.93214" lon="-1.82825">
        <ele>467.762</ele>
        <time>2020-05-13T13:04:49Z</time>
      </trkpt>
      <trkpt lat="42.93206" lon="-1.82822">
        <ele>467.935</ele>
        <time>2020-05-13T13:04:29Z</time>
      </trkpt>
      <trkpt lat="42.93189" lon="-1.82815">
        <ele>471.087</ele>
        <time>2020-05-13T13:04:09Z</time>
      </trkpt>
      <trkpt lat="42.9317" lon="-1.82805">
        <ele>468.659</ele>
        <time>2020-05-13T13:03:49Z</time>
      </trkpt>
      <trkpt lat="42.93154" lon="-1.82792">
        <ele>469.267</ele>
        <time>2020-05-13T13:03:29Z</time>
      </trkpt>
      <trkpt lat="42.93138" lon="-1.82779">
        <ele>471.491</ele>
        <time>2020-05-13T13:03:09Z</time>
      </trkpt>
      <trkpt lat="42.9312" lon="-1.82763">
        <ele>470.396</ele>
        <time>2020-05-13T13:02:49Z</time>
      </trkpt>
      <trkpt lat="42.93104" lon="-1.8275">
        <ele>470.783</ele>
        <time>2020-05-13T13:02:29Z</time>
      </trkpt>
      <trkpt lat="42.93085" lon="-1.82739">
        <ele>471.588</ele>
        <time>2020-05-13T13:02:09Z</time>
      </trkpt>
      <trkpt lat="42.93061" lon="-1.82728">
        <ele>472.608</ele>
        <time>2020-05-13T13:01:49Z</time>
      </trkpt>
      <trkpt lat="42.93049" lon="-1.82722">
        <ele>473.016</ele>
        <time>2020-05-13T13:01:29Z</time>
      </trkpt>
      <trkpt lat="42.93036" lon="-1.82715">
        <ele>473.788</ele>
        <time>2020-05-13T13:01:09Z</time>
      </trkpt>
      <trkpt lat="42.93021" lon="-1.82707">
        <ele>474.946</ele>
        <time>2020-05-13T13:00:49Z</time>
      </trkpt>
      <trkpt lat="42.9301" lon="-1.82702">
        <ele>476.078</ele>
        <time>2020-05-13T13:00:29Z</time>
      </trkpt>
      <trkpt lat="42.92993" lon="-1.82697">
        <ele>475.27</ele>
        <time>2020-05-13T13:00:09Z</time>
      </trkpt>
      <trkpt lat="42.9298" lon="-1.82696">
        <ele>475.322</ele>
        <time>2020-05-13T12:59:49Z</time>
      </trkpt>
      <trkpt lat="42.92916" lon="-1.82704">
        <ele>493.43</ele>
        <time>2020-05-13T12:59:29Z</time>
      </trkpt>
      <trkpt lat="42.92807" lon="-1.82721">
        <ele>479.434</ele>
        <time>2020-05-13T12:59:09Z</time>
      </trkpt>
      <trkpt lat="42.92803" lon="-1.82722">
        <ele>505.919</ele>
        <time>2020-05-13T12:58:49Z</time>
      </trkpt>
      <trkpt lat="42.92718" lon="-1.82736">
        <ele>492.116</ele>
        <time>2020-05-13T12:58:29Z</time>
      </trkpt>
      <trkpt lat="42.92706" lon="-1.82738">
        <ele>481.111</ele>
        <time>2020-05-13T12:58:09Z</time>
      </trkpt>
      <trkpt lat="42.92692" lon="-1.8274">
        <ele>481.208</ele>
        <time>2020-05-13T12:57:49Z</time>
      </trkpt>
      <trkpt lat="42.92688" lon="-1.82735">
        <ele>481.215</ele>
        <time>2020-05-13T12:57:29Z</time>
      </trkpt>
      <trkpt lat="42.9268" lon="-1.82733">
        <ele>481.241</ele>
        <time>2020-05-13T12:57:09Z</time>
      </trkpt>
      <trkpt lat="42.92672" lon="-1.82733">
        <ele>481.371</ele>
        <time>2020-05-13T12:56:49Z</time>
      </trkpt>
      <trkpt lat="42.9267" lon="-1.82733">
        <ele>481.34</ele>
        <time>2020-05-13T12:56:29Z</time>
      </trkpt>
      <trkpt lat="42.92668" lon="-1.82734">
        <ele>481.672</ele>
        <time>2020-05-13T12:56:09Z</time>
      </trkpt>
      <trkpt lat="42.92664" lon="-1.82735">
        <ele>481.614</ele>
        <time>2020-05-13T12:55:49Z</time>
      </trkpt>
      <trkpt lat="42.92648" lon="-1.82737">
        <ele>481.822</ele>
        <time>2020-05-13T12:55:29Z</time>
      </trkpt>
      <trkpt lat="42.92629" lon="-1.82739">
        <ele>483.216</ele>
        <time>2020-05-13T12:55:09Z</time>
      </trkpt>
      <trkpt lat="42.9262" lon="-1.82741">
        <ele>483.531</ele>
        <time>2020-05-13T12:54:49Z</time>
      </trkpt>
      <trkpt lat="42.92605" lon="-1.82743">
        <ele>483.248</ele>
        <time>2020-05-13T12:54:29Z</time>
      </trkpt>
      <trkpt lat="42.92598" lon="-1.82745">
        <ele>483.283</ele>
        <time>2020-05-13T12:54:09Z</time>
      </trkpt>
      <trkpt lat="42.92594" lon="-1.82746">
        <ele>483.308</ele>
        <time>2020-05-13T12:53:49Z</time>
      </trkpt>
      <trkpt lat="42.92585" lon="-1.82749">
        <ele>483.323</ele>
        <time>2020-05-13T12:53:29Z</time>
      </trkpt>
      <trkpt lat="42.92578" lon="-1.82751">
        <ele>483.449</ele>
        <time>2020-05-13T12:53:09Z</time>
      </trkpt>
      <trkpt lat="42.92574" lon="-1.82753">
        <ele>483.495</ele>
        <time>2020-05-13T12:52:49Z</time>
      </trkpt>
      <trkpt lat="42.92569" lon="-1.82754">
        <ele>483.696</ele>
        <time>2020-05-13T12:52:29Z</time>
      </trkpt>
      <trkpt lat="42.92566" lon="-1.82754">
        <ele>483.658</ele>
        <time>2020-05-13T12:52:09Z</time>
      </trkpt>
      <trkpt lat="42.9256" lon="-1.82755">
        <ele>484.19</ele>
        <time>2020-05-13T12:51:49Z</time>
      </trkpt>
      <trkpt lat="42.92552" lon="-1.82755">
        <ele>484.198</ele>
        <time>2020-05-13T12:51:29Z</time>
      </trkpt>
      <trkpt lat="42.92548" lon="-1.82755">
        <ele>485.532</ele>
        <time>2020-05-13T12:51:09Z</time>
      </trkpt>
      <trkpt lat="42.92542" lon="-1.82754">
        <ele>485.227</ele>
        <time>2020-05-13T12:50:49Z</time>
      </trkpt>
      <trkpt lat="42.92533" lon="-1.82753">
        <ele>484.794</ele>
        <time>2020-05-13T12:50:29Z</time>
      </trkpt>
      <trkpt lat="42.92527" lon="-1.82752">
        <ele>484.739</ele>
        <time>2020-05-13T12:50:09Z</time>
      </trkpt>
      <trkpt lat="42.92525" lon="-1.82751">
        <ele>484.708</ele>
        <time>2020-05-13T12:49:49Z</time>
      </trkpt>
      <trkpt lat="42.92521" lon="-1.82749">
        <ele>484.717</ele>
        <time>2020-05-13T12:49:29Z</time>
      </trkpt>
      <trkpt lat="42.92519" lon="-1.82748">
        <ele>484.707</ele>
        <time>2020-05-13T12:49:09Z</time>
      </trkpt>
      <trkpt lat="42.92517" lon="-1.82746">
        <ele>484.755</ele>
        <time>2020-05-13T12:48:49Z</time>
      </trkpt>
      <trkpt lat="42.92514" lon="-1.82744">
        <ele>485.378</ele>
        <time>2020-05-13T12:48:29Z</time>
      </trkpt>
      <trkpt lat="42.92511" lon="-1.8274">
        <ele>489.48</ele>
        <time>2020-05-13T12:48:09Z</time>
      </trkpt>
      <trkpt lat="42.92509" lon="-1.82738">
        <ele>489.442</ele>
        <time>2020-05-13T12:47:49Z</time>
      </trkpt>
      <trkpt lat="42.92506" lon="-1.82736">
        <ele>487.74</ele>
        <time>2020-05-13T12:47:29Z</time>
      </trkpt>
      <trkpt lat="42.92504" lon="-1.82734">
        <ele>487.754</ele>
        <time>2020-05-13T12:47:09Z</time>
      </trkpt>
      <trkpt lat="42.92502" lon="-1.82732">
        <ele>487.749</ele>
        <time>2020-05-13T12:46:49Z</time>
      </trkpt>
      <trkpt lat="42.92501" lon="-1.82729">
        <ele>490.556</ele>
        <time>2020-05-13T12:46:29Z</time>
      </trkpt>
      <trkpt lat="42.92499" lon="-1.82726">
        <ele>490.551</ele>
        <time>2020-05-13T12:46:09Z</time>
      </trkpt>
      <trkpt lat="42.92488" lon="-1.8277">
        <ele>488.408</ele>
        <time>2020-05-13T12:45:49Z</time>
      </trkpt>
      <trkpt lat="42.92481" lon="-1.82787">
        <ele>484.413</ele>
        <time>2020-05-13T12:45:29Z</time>
      </trkpt>
      <trkpt lat="42.92477" lon="-1.82797">
        <ele>486.785</ele>
        <time>2020-05-13T12:45:09Z</time>
      </trkpt>
      <trkpt lat="42.92469" lon="-1.82815">
        <ele>491.673</ele>
        <time>2020-05-13T12:44:49Z</time>
      </trkpt>
      <trkpt lat="42.92463" lon="-1.82824">
        <ele>491.545</ele>
        <time>2020-05-13T12:44:29Z</time>
      </trkpt>
      <trkpt lat="42.92456" lon="-1.82833">
        <ele>493.187</ele>
        <time>2020-05-13T12:44:09Z</time>
      </trkpt>
      <trkpt lat="42.92439" lon="-1.82864">
        <ele>490.549</ele>
        <time>2020-05-13T12:43:49Z</time>
      </trkpt>
      <trkpt lat="42.92427" lon="-1.82883">
        <ele>484.687</ele>
        <time>2020-05-13T12:43:29Z</time>
      </trkpt>
      <trkpt lat="42.92417" lon="-1.82899">
        <ele>487.361</ele>
        <time>2020-05-13T12:43:09Z</time>
      </trkpt>
      <trkpt lat="42.92411" lon="-1.82904">
        <ele>487.316</ele>
        <time>2020-05-13T12:42:49Z</time>
      </trkpt>
      <trkpt lat="42.92406" lon="-1.82907">
        <ele>485.963</ele>
        <time>2020-05-13T12:42:29Z</time>
      </trkpt>
      <trkpt lat="42.92397" lon="-1.82908">
        <ele>485.858</ele>
        <time>2020-05-13T12:42:09Z</time>
      </trkpt>
      <trkpt lat="42.92388" lon="-1.82905">
        <ele>486.108</ele>
        <time>2020-05-13T12:41:49Z</time>
      </trkpt>
      <trkpt lat="42.92381" lon="-1.82896">
        <ele>485.509</ele>
        <time>2020-05-13T12:41:29Z</time>
      </trkpt>
      <trkpt lat="42.9237" lon="-1.82887">
        <ele>484.681</ele>
        <time>2020-05-13T12:41:09Z</time>
      </trkpt>
      <trkpt lat="42.92364" lon="-1.82878">
        <ele>485.841</ele>
        <time>2020-05-13T12:40:49Z</time>
      </trkpt>
      <trkpt lat="42.92359" lon="-1.82859">
        <ele>485.874</ele>
        <time>2020-05-13T12:40:29Z</time>
      </trkpt>
      <trkpt lat="42.92349" lon="-1.8283">
        <ele>486.546</ele>
        <time>2020-05-13T12:40:09Z</time>
      </trkpt>
      <trkpt lat="42.92344" lon="-1.82803">
        <ele>484.588</ele>
        <time>2020-05-13T12:39:49Z</time>
      </trkpt>
      <trkpt lat="42.92343" lon="-1.82746">
        <ele>481.726</ele>
        <time>2020-05-13T12:39:29Z</time>
      </trkpt>
      <trkpt lat="42.92343" lon="-1.82726">
        <ele>481.62</ele>
        <time>2020-05-13T12:39:09Z</time>
      </trkpt>
      <trkpt lat="42.92339" lon="-1.82707">
        <ele>482.695</ele>
        <time>2020-05-13T12:38:49Z</time>
      </trkpt>
      <trkpt lat="42.92333" lon="-1.82693">
        <ele>481.892</ele>
        <time>2020-05-13T12:38:29Z</time>
      </trkpt>
      <trkpt lat="42.92329" lon="-1.82686">
        <ele>482.067</ele>
        <time>2020-05-13T12:38:09Z</time>
      </trkpt>
      <trkpt lat="42.92325" lon="-1.82675">
        <ele>481.508</ele>
        <time>2020-05-13T12:37:49Z</time>
      </trkpt>
      <trkpt lat="42.92325" lon="-1.8266">
        <ele>479.513</ele>
        <time>2020-05-13T12:37:29Z</time>
      </trkpt>
      <trkpt lat="42.92329" lon="-1.82642">
        <ele>481.049</ele>
        <time>2020-05-13T12:37:09Z</time>
      </trkpt>
      <trkpt lat="42.92331" lon="-1.82627">
        <ele>481.437</ele>
        <time>2020-05-13T12:36:49Z</time>
      </trkpt>
      <trkpt lat="42.92338" lon="-1.8261">
        <ele>484.873</ele>
        <time>2020-05-13T12:36:29Z</time>
      </trkpt>
      <trkpt lat="42.9234" lon="-1.82589">
        <ele>485.385</ele>
        <time>2020-05-13T12:36:09Z</time>
      </trkpt>
      <trkpt lat="42.92341" lon="-1.82582">
        <ele>485.927</ele>
        <time>2020-05-13T12:35:49Z</time>
      </trkpt>
      <trkpt lat="42.92341" lon="-1.82551">
        <ele>488.985</ele>
        <time>2020-05-13T12:35:29Z</time>
      </trkpt>
      <trkpt lat="42.92334" lon="-1.82537">
        <ele>488.779</ele>
        <time>2020-05-13T12:35:09Z</time>
      </trkpt>
      <trkpt lat="42.92326" lon="-1.82529">
        <ele>489.024</ele>
        <time>2020-05-13T12:34:49Z</time>
      </trkpt>
      <trkpt lat="42.92322" lon="-1.82526">
        <ele>489.331</ele>
        <time>2020-05-13T12:34:29Z</time>
      </trkpt>
      <trkpt lat="42.92319" lon="-1.82522">
        <ele>489.346</ele>
        <time>2020-05-13T12:34:09Z</time>
      </trkpt>
      <trkpt lat="42.92312" lon="-1.82516">
        <ele>489.308</ele>
        <time>2020-05-13T12:33:49Z</time>
      </trkpt>
      <trkpt lat="42.923" lon="-1.82508">
        <ele>489.608</ele>
        <time>2020-05-13T12:33:29Z</time>
      </trkpt>
      <trkpt lat="42.92293" lon="-1.82503">
        <ele>489.862</ele>
        <time>2020-05-13T12:33:09Z</time>
      </trkpt>
      <trkpt lat="42.92284" lon="-1.82496">
        <ele>490.022</ele>
        <time>2020-05-13T12:32:49Z</time>
      </trkpt>
      <trkpt lat="42.92282" lon="-1.82495">
        <ele>490.069</ele>
        <time>2020-05-13T12:32:29Z</time>
      </trkpt>
      <trkpt lat="42.92273" lon="-1.82491">
        <ele>490.341</ele>
        <time>2020-05-13T12:32:09Z</time>
      </trkpt>
      <trkpt lat="42.92267" lon="-1.82488">
        <ele>490.813</ele>
        <time>2020-05-13T12:31:49Z</time>
      </trkpt>
      <trkpt lat="42.92261" lon="-1.82485">
        <ele>490.831</ele>
        <time>2020-05-13T12:31:29Z</time>
      </trkpt>
      <trkpt lat="42.92255" lon="-1.82483">
        <ele>491.325</ele>
        <time>2020-05-13T12:31:09Z</time>
      </trkpt>
      <trkpt lat="42.92249" lon="-1.8248">
        <ele>492.05</ele>
        <time>2020-05-13T12:30:49Z</time>
      </trkpt>
      <trkpt lat="42.92238" lon="-1.82477">
        <ele>494.517</ele>
        <time>2020-05-13T12:30:29Z</time>
      </trkpt>
      <trkpt lat="42.92228" lon="-1.82474">
        <ele>492.392</ele>
        <time>2020-05-13T12:30:09Z</time>
      </trkpt>
      <trkpt lat="42.9222" lon="-1.82472">
        <ele>492.208</ele>
        <time>2020-05-13T12:29:49Z</time>
      </trkpt>
      <trkpt lat="42.92209" lon="-1.8247">
        <ele>492.317</ele>
        <time>2020-05-13T12:29:29Z</time>
      </trkpt>
      <trkpt lat="42.92194" lon="-1.82467">
        <ele>494.825</ele>
        <time>2020-05-13T12:29:09Z</time>
      </trkpt>
      <trkpt lat="42.92183" lon="-1.82465">
        <ele>494.483</ele>
        <time>2020-05-13T12:28:49Z</time>
      </trkpt>
      <trkpt lat="42.92176" lon="-1.82465">
        <ele>493.488</ele>
        <time>2020-05-13T12:28:29Z</time>
      </trkpt>
      <trkpt lat="42.92169" lon="-1.82464">
        <ele>493.08</ele>
        <time>2020-05-13T12:28:09Z</time>
      </trkpt>
      <trkpt lat="42.92162" lon="-1.82465">
        <ele>493.072</ele>
        <time>2020-05-13T12:27:49Z</time>
      </trkpt>
      <trkpt lat="42.92154" lon="-1.82465">
        <ele>493.23</ele>
        <time>2020-05-13T12:27:29Z</time>
      </trkpt>
      <trkpt lat="42.92151" lon="-1.82465">
        <ele>493.084</ele>
        <time>2020-05-13T12:27:09Z</time>
      </trkpt>
      <trkpt lat="42.92145" lon="-1.82466">
        <ele>493.059</ele>
        <time>2020-05-13T12:26:49Z</time>
      </trkpt>
      <trkpt lat="42.9213" lon="-1.82469">
        <ele>493.266</ele>
        <time>2020-05-13T12:26:29Z</time>
      </trkpt>
      <trkpt lat="42.92121" lon="-1.82471">
        <ele>493.481</ele>
        <time>2020-05-13T12:26:09Z</time>
      </trkpt>
      <trkpt lat="42.92106" lon="-1.82474">
        <ele>493.708</ele>
        <time>2020-05-13T12:25:49Z</time>
      </trkpt>
      <trkpt lat="42.9209" lon="-1.82478">
        <ele>493.821</ele>
        <time>2020-05-13T12:25:29Z</time>
      </trkpt>
      <trkpt lat="42.92082" lon="-1.8248">
        <ele>494.356</ele>
        <time>2020-05-13T12:25:09Z</time>
      </trkpt>
      <trkpt lat="42.92075" lon="-1.82481">
        <ele>494.174</ele>
        <time>2020-05-13T12:24:49Z</time>
      </trkpt>
      <trkpt lat="42.9207" lon="-1.82482">
        <ele>494.589</ele>
        <time>2020-05-13T12:24:29Z</time>
      </trkpt>
      <trkpt lat="42.92065" lon="-1.82483">
        <ele>496.141</ele>
        <time>2020-05-13T12:24:09Z</time>
      </trkpt>
      <trkpt lat="42.92063" lon="-1.82484">
        <ele>496.193</ele>
        <time>2020-05-13T12:23:49Z</time>
      </trkpt>
      <trkpt lat="42.92061" lon="-1.82484">
        <ele>498.071</ele>
        <time>2020-05-13T12:23:29Z</time>
      </trkpt>
      <trkpt lat="42.92054" lon="-1.82488">
        <ele>498.055</ele>
        <time>2020-05-13T12:23:09Z</time>
      </trkpt>
      <trkpt lat="42.92047" lon="-1.82494">
        <ele>495.94</ele>
        <time>2020-05-13T12:22:49Z</time>
      </trkpt>
      <trkpt lat="42.92039" lon="-1.82502">
        <ele>496.047</ele>
        <time>2020-05-13T12:22:29Z</time>
      </trkpt>
      <trkpt lat="42.92036" lon="-1.82507">
        <ele>495.062</ele>
        <time>2020-05-13T12:22:09Z</time>
      </trkpt>
      <trkpt lat="42.92031" lon="-1.82511">
        <ele>494.808</ele>
        <time>2020-05-13T12:21:49Z</time>
      </trkpt>
      <trkpt lat="42.92022" lon="-1.82513">
        <ele>494.626</ele>
        <time>2020-05-13T12:21:29Z</time>
      </trkpt>
      <trkpt lat="42.91987" lon="-1.82513">
        <ele>494.442</ele>
        <time>2020-05-13T12:21:09Z</time>
      </trkpt>
      <trkpt lat="42.91975" lon="-1.82512">
        <ele>494.387</ele>
        <time>2020-05-13T12:20:49Z</time>
      </trkpt>
      <trkpt lat="42.91961" lon="-1.8251">
        <ele>494.353</ele>
        <time>2020-05-13T12:20:29Z</time>
      </trkpt>
      <trkpt lat="42.9195" lon="-1.82506">
        <ele>494.275</ele>
        <time>2020-05-13T12:20:09Z</time>
      </trkpt>
      <trkpt lat="42.91944" lon="-1.82504">
        <ele>494.587</ele>
        <time>2020-05-13T12:19:49Z</time>
      </trkpt>
      <trkpt lat="42.9194" lon="-1.82507">
        <ele>494.515</ele>
        <time>2020-05-13T12:19:29Z</time>
      </trkpt>
      <trkpt lat="42.91935" lon="-1.82507">
        <ele>494.769</ele>
        <time>2020-05-13T12:19:09Z</time>
      </trkpt>
      <trkpt lat="42.91931" lon="-1.82507">
        <ele>494.714</ele>
        <time>2020-05-13T12:18:49Z</time>
      </trkpt>
      <trkpt lat="42.91915" lon="-1.82505">
        <ele>494.681</ele>
        <time>2020-05-13T12:18:29Z</time>
      </trkpt>
      <trkpt lat="42.91898" lon="-1.82502">
        <ele>494.646</ele>
        <time>2020-05-13T12:18:09Z</time>
      </trkpt>
      <trkpt lat="42.91886" lon="-1.825">
        <ele>494.708</ele>
        <time>2020-05-13T12:17:49Z</time>
      </trkpt>
      <trkpt lat="42.91881" lon="-1.82499">
        <ele>494.814</ele>
        <time>2020-05-13T12:17:29Z</time>
      </trkpt>
      <trkpt lat="42.91878" lon="-1.82498">
        <ele>494.868</ele>
        <time>2020-05-13T12:17:09Z</time>
      </trkpt>
      <trkpt lat="42.91875" lon="-1.82498">
        <ele>494.827</ele>
        <time>2020-05-13T12:16:49Z</time>
      </trkpt>
      <trkpt lat="42.91871" lon="-1.82496">
        <ele>495.285</ele>
        <time>2020-05-13T12:16:29Z</time>
      </trkpt>
      <trkpt lat="42.91859" lon="-1.82489">
        <ele>494.937</ele>
        <time>2020-05-13T12:16:09Z</time>
      </trkpt>
      <trkpt lat="42.91857" lon="-1.82487">
        <ele>494.969</ele>
        <time>2020-05-13T12:15:49Z</time>
      </trkpt>
      <trkpt lat="42.91852" lon="-1.82484">
        <ele>497.737</ele>
        <time>2020-05-13T12:15:29Z</time>
      </trkpt>
      <trkpt lat="42.91849" lon="-1.82482">
        <ele>497.731</ele>
        <time>2020-05-13T12:15:09Z</time>
      </trkpt>
      <trkpt lat="42.91846" lon="-1.82479">
        <ele>495.446</ele>
        <time>2020-05-13T12:14:49Z</time>
      </trkpt>
      <trkpt lat="42.9184" lon="-1.82473">
        <ele>500.183</ele>
        <time>2020-05-13T12:14:29Z</time>
      </trkpt>
      <trkpt lat="42.91834" lon="-1.82466">
        <ele>495.798</ele>
        <time>2020-05-13T12:14:09Z</time>
      </trkpt>
      <trkpt lat="42.91833" lon="-1.82464">
        <ele>495.708</ele>
        <time>2020-05-13T12:13:49Z</time>
      </trkpt>
      <trkpt lat="42.91831" lon="-1.82462">
        <ele>501.315</ele>
        <time>2020-05-13T12:13:29Z</time>
      </trkpt>
      <trkpt lat="42.91829" lon="-1.82459">
        <ele>501.305</ele>
        <time>2020-05-13T12:13:09Z</time>
      </trkpt>
      <trkpt lat="42.91825" lon="-1.82452">
        <ele>495.844</ele>
        <time>2020-05-13T12:12:49Z</time>
      </trkpt>
      <trkpt lat="42.91821" lon="-1.82443">
        <ele>499.392</ele>
        <time>2020-05-13T12:12:29Z</time>
      </trkpt>
      <trkpt lat="42.91817" lon="-1.82436">
        <ele>498.214</ele>
        <time>2020-05-13T12:12:09Z</time>
      </trkpt>
      <trkpt lat="42.91814" lon="-1.82429">
        <ele>498.296</ele>
        <time>2020-05-13T12:11:49Z</time>
      </trkpt>
      <trkpt lat="42.91812" lon="-1.82423">
        <ele>500.174</ele>
        <time>2020-05-13T12:11:29Z</time>
      </trkpt>
      <trkpt lat="42.91809" lon="-1.82417">
        <ele>496.678</ele>
        <time>2020-05-13T12:11:09Z</time>
      </trkpt>
      <trkpt lat="42.91808" lon="-1.82411">
        <ele>497.833</ele>
        <time>2020-05-13T12:10:49Z</time>
      </trkpt>
      <trkpt lat="42.91806" lon="-1.82403">
        <ele>497.84</ele>
        <time>2020-05-13T12:10:29Z</time>
      </trkpt>
      <trkpt lat="42.91804" lon="-1.82391">
        <ele>500.185</ele>
        <time>2020-05-13T12:10:09Z</time>
      </trkpt>
      <trkpt lat="42.918" lon="-1.82358">
        <ele>497.208</ele>
        <time>2020-05-13T12:09:49Z</time>
      </trkpt>
      <trkpt lat="42.91797" lon="-1.82332">
        <ele>498.913</ele>
        <time>2020-05-13T12:09:29Z</time>
      </trkpt>
      <trkpt lat="42.91796" lon="-1.82322">
        <ele>499.476</ele>
        <time>2020-05-13T12:09:09Z</time>
      </trkpt>
      <trkpt lat="42.91793" lon="-1.823">
        <ele>499.016</ele>
        <time>2020-05-13T12:08:49Z</time>
      </trkpt>
      <trkpt lat="42.91788" lon="-1.82267">
        <ele>498.95</ele>
        <time>2020-05-13T12:08:29Z</time>
      </trkpt>
      <trkpt lat="42.91785" lon="-1.82249">
        <ele>499.832</ele>
        <time>2020-05-13T12:08:09Z</time>
      </trkpt>
      <trkpt lat="42.91784" lon="-1.82233">
        <ele>499.734</ele>
        <time>2020-05-13T12:07:49Z</time>
      </trkpt>
      <trkpt lat="42.91782" lon="-1.82221">
        <ele>499.642</ele>
        <time>2020-05-13T12:07:29Z</time>
      </trkpt>
      <trkpt lat="42.91779" lon="-1.82197">
        <ele>499.066</ele>
        <time>2020-05-13T12:07:09Z</time>
      </trkpt>
      <trkpt lat="42.91778" lon="-1.82179">
        <ele>499.361</ele>
        <time>2020-05-13T12:06:49Z</time>
      </trkpt>
      <trkpt lat="42.91776" lon="-1.82166">
        <ele>499.488</ele>
        <time>2020-05-13T12:06:29Z</time>
      </trkpt>
      <trkpt lat="42.91774" lon="-1.82152">
        <ele>499.613</ele>
        <time>2020-05-13T12:06:09Z</time>
      </trkpt>
      <trkpt lat="42.91772" lon="-1.82144">
        <ele>499.608</ele>
        <time>2020-05-13T12:05:49Z</time>
      </trkpt>
      <trkpt lat="42.9177" lon="-1.82133">
        <ele>499.92</ele>
        <time>2020-05-13T12:05:29Z</time>
      </trkpt>
      <trkpt lat="42.91769" lon="-1.82125">
        <ele>499.973</ele>
        <time>2020-05-13T12:05:09Z</time>
      </trkpt>
      <trkpt lat="42.91768" lon="-1.82121">
        <ele>500.392</ele>
        <time>2020-05-13T12:04:49Z</time>
      </trkpt>
      <trkpt lat="42.91766" lon="-1.82117">
        <ele>500.378</ele>
        <time>2020-05-13T12:04:29Z</time>
      </trkpt>
      <trkpt lat="42.91764" lon="-1.82108">
        <ele>499.95</ele>
        <time>2020-05-13T12:04:09Z</time>
      </trkpt>
      <trkpt lat="42.9176" lon="-1.82098">
        <ele>499.982</ele>
        <time>2020-05-13T12:03:49Z</time>
      </trkpt>
      <trkpt lat="42.91757" lon="-1.8209">
        <ele>500.46</ele>
        <time>2020-05-13T12:03:29Z</time>
      </trkpt>
      <trkpt lat="42.91754" lon="-1.82085">
        <ele>500.484</ele>
        <time>2020-05-13T12:03:09Z</time>
      </trkpt>
      <trkpt lat="42.9175" lon="-1.82076">
        <ele>500.369</ele>
        <time>2020-05-13T12:02:49Z</time>
      </trkpt>
      <trkpt lat="42.91746" lon="-1.8207">
        <ele>500.576</ele>
        <time>2020-05-13T12:02:29Z</time>
      </trkpt>
      <trkpt lat="42.91744" lon="-1.82067">
        <ele>500.551</ele>
        <time>2020-05-13T12:02:09Z</time>
      </trkpt>
      <trkpt lat="42.91742" lon="-1.82065">
        <ele>500.208</ele>
        <time>2020-05-13T12:01:49Z</time>
      </trkpt>
      <trkpt lat="42.91739" lon="-1.8206">
        <ele>501.815</ele>
        <time>2020-05-13T12:01:29Z</time>
      </trkpt>
      <trkpt lat="42.91736" lon="-1.82057">
        <ele>501.841</ele>
        <time>2020-05-13T12:01:09Z</time>
      </trkpt>
      <trkpt lat="42.91727" lon="-1.82047">
        <ele>505.071</ele>
        <time>2020-05-13T12:00:49Z</time>
      </trkpt>
      <trkpt lat="42.91712" lon="-1.82032">
        <ele>503.134</ele>
        <time>2020-05-13T12:00:29Z</time>
      </trkpt>
      <trkpt lat="42.91705" lon="-1.82025">
        <ele>503.946</ele>
        <time>2020-05-13T12:00:09Z</time>
      </trkpt>
      <trkpt lat="42.91688" lon="-1.82008">
        <ele>503.498</ele>
        <time>2020-05-13T11:59:49Z</time>
      </trkpt>
      <trkpt lat="42.91671" lon="-1.81991">
        <ele>503.256</ele>
        <time>2020-05-13T11:59:29Z</time>
      </trkpt>
      <trkpt lat="42.91671" lon="-1.81991">
        <ele>503.25</ele>
        <time>2020-05-13T11:59:09Z</time>
      </trkpt>
      <trkpt lat="42.91655" lon="-1.81975">
        <ele>505.975</ele>
        <time>2020-05-13T11:58:49Z</time>
      </trkpt>
      <trkpt lat="42.9164" lon="-1.8196">
        <ele>502.952</ele>
        <time>2020-05-13T11:58:29Z</time>
      </trkpt>
      <trkpt lat="42.91627" lon="-1.81948">
        <ele>504.947</ele>
        <time>2020-05-13T11:58:09Z</time>
      </trkpt>
      <trkpt lat="42.91613" lon="-1.81935">
        <ele>500.508</ele>
        <time>2020-05-13T11:57:49Z</time>
      </trkpt>
      <trkpt lat="42.91605" lon="-1.81927">
        <ele>500.815</ele>
        <time>2020-05-13T11:57:29Z</time>
      </trkpt>
      <trkpt lat="42.91599" lon="-1.81921">
        <ele>500.823</ele>
        <time>2020-05-13T11:57:09Z</time>
      </trkpt>
      <trkpt lat="42.91594" lon="-1.81914">
        <ele>500.733</ele>
        <time>2020-05-13T11:56:49Z</time>
      </trkpt>
      <trkpt lat="42.91591" lon="-1.81911">
        <ele>500.775</ele>
        <time>2020-05-13T11:56:29Z</time>
      </trkpt>
      <trkpt lat="42.9159" lon="-1.81911">
        <ele>500.797</ele>
        <time>2020-05-13T11:56:09Z</time>
      </trkpt>
      <trkpt lat="42.91589" lon="-1.81909">
        <ele>500.719</ele>
        <time>2020-05-13T11:55:49Z</time>
      </trkpt>
      <trkpt lat="42.91587" lon="-1.81904">
        <ele>500.567</ele>
        <time>2020-05-13T11:55:29Z</time>
      </trkpt>
      <trkpt lat="42.91583" lon="-1.81895">
        <ele>501.071</ele>
        <time>2020-05-13T11:55:09Z</time>
      </trkpt>
      <trkpt lat="42.91579" lon="-1.81885">
        <ele>501.556</ele>
        <time>2020-05-13T11:54:49Z</time>
      </trkpt>
      <trkpt lat="42.91577" lon="-1.81879">
        <ele>502.863</ele>
        <time>2020-05-13T11:54:29Z</time>
      </trkpt>
      <trkpt lat="42.91574" lon="-1.81873">
        <ele>502.848</ele>
        <time>2020-05-13T11:54:09Z</time>
      </trkpt>
      <trkpt lat="42.9157" lon="-1.81861">
        <ele>504.008</ele>
        <time>2020-05-13T11:53:49Z</time>
      </trkpt>
      <trkpt lat="42.91566" lon="-1.8185">
        <ele>504.722</ele>
        <time>2020-05-13T11:53:29Z</time>
      </trkpt>
      <trkpt lat="42.91562" lon="-1.81842">
        <ele>506.602</ele>
        <time>2020-05-13T11:53:09Z</time>
      </trkpt>
      <trkpt lat="42.91557" lon="-1.81831">
        <ele>507.649</ele>
        <time>2020-05-13T11:52:49Z</time>
      </trkpt>
      <trkpt lat="42.91553" lon="-1.81823">
        <ele>507.635</ele>
        <time>2020-05-13T11:52:29Z</time>
      </trkpt>
      <trkpt lat="42.91551" lon="-1.81818">
        <ele>506.447</ele>
        <time>2020-05-13T11:52:09Z</time>
      </trkpt>
      <trkpt lat="42.91545" lon="-1.81808">
        <ele>506.429</ele>
        <time>2020-05-13T11:51:49Z</time>
      </trkpt>
      <trkpt lat="42.91543" lon="-1.81804">
        <ele>508.337</ele>
        <time>2020-05-13T11:51:29Z</time>
      </trkpt>
      <trkpt lat="42.9154" lon="-1.81801">
        <ele>506.711</ele>
        <time>2020-05-13T11:51:09Z</time>
      </trkpt>
      <trkpt lat="42.91537" lon="-1.81796">
        <ele>506.766</ele>
        <time>2020-05-13T11:50:49Z</time>
      </trkpt>
      <trkpt lat="42.91532" lon="-1.8179">
        <ele>507.493</ele>
        <time>2020-05-13T11:50:29Z</time>
      </trkpt>
      <trkpt lat="42.91524" lon="-1.81781">
        <ele>509.768</ele>
        <time>2020-05-13T11:50:09Z</time>
      </trkpt>
      <trkpt lat="42.91512" lon="-1.81768">
        <ele>509.108</ele>
        <time>2020-05-13T11:49:49Z</time>
      </trkpt>
      <trkpt lat="42.91505" lon="-1.8176">
        <ele>508.916</ele>
        <time>2020-05-13T11:49:29Z</time>
      </trkpt>
      <trkpt lat="42.91501" lon="-1.81757">
        <ele>510.688</ele>
        <time>2020-05-13T11:49:09Z</time>
      </trkpt>
      <trkpt lat="42.91497" lon="-1.81754">
        <ele>510.646</ele>
        <time>2020-05-13T11:48:49Z</time>
      </trkpt>
      <trkpt lat="42.91484" lon="-1.81743">
        <ele>509.697</ele>
        <time>2020-05-13T11:48:29Z</time>
      </trkpt>
      <trkpt lat="42.9148" lon="-1.81739">
        <ele>509.659</ele>
        <time>2020-05-13T11:48:09Z</time>
      </trkpt>
      <trkpt lat="42.91473" lon="-1.81729">
        <ele>511.571</ele>
        <time>2020-05-13T11:47:49Z</time>
      </trkpt>
      <trkpt lat="42.91468" lon="-1.81723">
        <ele>510.249</ele>
        <time>2020-05-13T11:47:29Z</time>
      </trkpt>
      <trkpt lat="42.91467" lon="-1.81722">
        <ele>511.713</ele>
        <time>2020-05-13T11:47:09Z</time>
      </trkpt>
      <trkpt lat="42.91466" lon="-1.81721">
        <ele>511.758</ele>
        <time>2020-05-13T11:46:49Z</time>
      </trkpt>
      <trkpt lat="42.91464" lon="-1.81718">
        <ele>511.785</ele>
        <time>2020-05-13T11:46:29Z</time>
      </trkpt>
      <trkpt lat="42.91462" lon="-1.81717">
        <ele>511.71</ele>
        <time>2020-05-13T11:46:09Z</time>
      </trkpt>
      <trkpt lat="42.9146" lon="-1.81716">
        <ele>511.008</ele>
        <time>2020-05-13T11:45:49Z</time>
      </trkpt>
      <trkpt lat="42.91456" lon="-1.81713">
        <ele>511.026</ele>
        <time>2020-05-13T11:45:29Z</time>
      </trkpt>
      <trkpt lat="42.91452" lon="-1.81709">
        <ele>512.942</ele>
        <time>2020-05-13T11:45:09Z</time>
      </trkpt>
      <trkpt lat="42.91448" lon="-1.81704">
        <ele>512.168</ele>
        <time>2020-05-13T11:44:49Z</time>
      </trkpt>
      <trkpt lat="42.9144" lon="-1.81696">
        <ele>513.099</ele>
        <time>2020-05-13T11:44:29Z</time>
      </trkpt>
      <trkpt lat="42.91435" lon="-1.81691">
        <ele>513.071</ele>
        <time>2020-05-13T11:44:09Z</time>
      </trkpt>
      <trkpt lat="42.91429" lon="-1.81685">
        <ele>515.013</ele>
        <time>2020-05-13T11:43:49Z</time>
      </trkpt>
      <trkpt lat="42.91424" lon="-1.8168">
        <ele>515.041</ele>
        <time>2020-05-13T11:43:29Z</time>
      </trkpt>
      <trkpt lat="42.91419" lon="-1.81675">
        <ele>514.575</ele>
        <time>2020-05-13T11:43:09Z</time>
      </trkpt>
      <trkpt lat="42.91412" lon="-1.81667">
        <ele>515.67</ele>
        <time>2020-05-13T11:42:49Z</time>
      </trkpt>
      <trkpt lat="42.91408" lon="-1.81664">
        <ele>515.657</ele>
        <time>2020-05-13T11:42:29Z</time>
      </trkpt>
      <trkpt lat="42.91405" lon="-1.8166">
        <ele>516.872</ele>
        <time>2020-05-13T11:42:09Z</time>
      </trkpt>
      <trkpt lat="42.91403" lon="-1.81657">
        <ele>516.808</ele>
        <time>2020-05-13T11:41:49Z</time>
      </trkpt>
      <trkpt lat="42.91401" lon="-1.81655">
        <ele>516.826</ele>
        <time>2020-05-13T11:41:29Z</time>
      </trkpt>
      <trkpt lat="42.91399" lon="-1.81653">
        <ele>516.86</ele>
        <time>2020-05-13T11:41:09Z</time>
      </trkpt>
      <trkpt lat="42.91397" lon="-1.8165">
        <ele>517.586</ele>
        <time>2020-05-13T11:40:49Z</time>
      </trkpt>
      <trkpt lat="42.91395" lon="-1.81649">
        <ele>517.438</ele>
        <time>2020-05-13T11:40:29Z</time>
      </trkpt>
      <trkpt lat="42.91395" lon="-1.81648">
        <ele>517.49</ele>
        <time>2020-05-13T11:40:09Z</time>
      </trkpt>
      <trkpt lat="42.91394" lon="-1.81647">
        <ele>517.452</ele>
        <time>2020-05-13T11:39:49Z</time>
      </trkpt>
      <trkpt lat="42.91393" lon="-1.81646">
        <ele>517.49</ele>
        <time>2020-05-13T11:39:29Z</time>
      </trkpt>
      <trkpt lat="42.91393" lon="-1.81645">
        <ele>517.464</ele>
        <time>2020-05-13T11:39:09Z</time>
      </trkpt>
      <trkpt lat="42.91392" lon="-1.81644">
        <ele>517.469</ele>
        <time>2020-05-13T11:38:49Z</time>
      </trkpt>
      <trkpt lat="42.91392" lon="-1.81642">
        <ele>517.446</ele>
        <time>2020-05-13T11:38:29Z</time>
      </trkpt>
      <trkpt lat="42.91391" lon="-1.81641">
        <ele>517.481</ele>
        <time>2020-05-13T11:38:09Z</time>
      </trkpt>
      <trkpt lat="42.91391" lon="-1.81639">
        <ele>517.408</ele>
        <time>2020-05-13T11:37:49Z</time>
      </trkpt>
      <trkpt lat="42.91391" lon="-1.81638">
        <ele>520.025</ele>
        <time>2020-05-13T11:37:29Z</time>
      </trkpt>
      <trkpt lat="42.9139" lon="-1.81635">
        <ele>520.005</ele>
        <time>2020-05-13T11:37:09Z</time>
      </trkpt>
      <trkpt lat="42.91389" lon="-1.81633">
        <ele>520.079</ele>
        <time>2020-05-13T11:36:49Z</time>
      </trkpt>
      <trkpt lat="42.91389" lon="-1.81631">
        <ele>520.013</ele>
        <time>2020-05-13T11:36:29Z</time>
      </trkpt>
      <trkpt lat="42.91388" lon="-1.8163">
        <ele>520.045</ele>
        <time>2020-05-13T11:36:09Z</time>
      </trkpt>
      <trkpt lat="42.91388" lon="-1.81629">
        <ele>520.047</ele>
        <time>2020-05-13T11:35:49Z</time>
      </trkpt>
      <trkpt lat="42.91387" lon="-1.81628">
        <ele>520.075</ele>
        <time>2020-05-13T11:35:29Z</time>
      </trkpt>
      <trkpt lat="42.91387" lon="-1.81626">
        <ele>522.069</ele>
        <time>2020-05-13T11:35:09Z</time>
      </trkpt>
      <trkpt lat="42.91385" lon="-1.81622">
        <ele>522.014</ele>
        <time>2020-05-13T11:34:49Z</time>
      </trkpt>
      <trkpt lat="42.91383" lon="-1.81613">
        <ele>524.261</ele>
        <time>2020-05-13T11:34:29Z</time>
      </trkpt>
      <trkpt lat="42.91381" lon="-1.81608">
        <ele>524.296</ele>
        <time>2020-05-13T11:34:09Z</time>
      </trkpt>
      <trkpt lat="42.91378" lon="-1.81603">
        <ele>524.208</ele>
        <time>2020-05-13T11:33:49Z</time>
      </trkpt>
      <trkpt lat="42.91375" lon="-1.81588">
        <ele>525.011</ele>
        <time>2020-05-13T11:33:29Z</time>
      </trkpt>
      <trkpt lat="42.91372" lon="-1.81579">
        <ele>525.083</ele>
        <time>2020-05-13T11:33:09Z</time>
      </trkpt>
      <trkpt lat="42.91369" lon="-1.8157">
        <ele>526.423</ele>
        <time>2020-05-13T11:32:49Z</time>
      </trkpt>
      <trkpt lat="42.91366" lon="-1.8156">
        <ele>525.499</ele>
        <time>2020-05-13T11:32:29Z</time>
      </trkpt>
      <trkpt lat="42.91363" lon="-1.81552">
        <ele>526.241</ele>
        <time>2020-05-13T11:32:09Z</time>
      </trkpt>
      <trkpt lat="42.91361" lon="-1.81545">
        <ele>526.253</ele>
        <time>2020-05-13T11:31:49Z</time>
      </trkpt>
      <trkpt lat="42.91357" lon="-1.81536">
        <ele>525.851</ele>
        <time>2020-05-13T11:31:29Z</time>
      </trkpt>
      <trkpt lat="42.91351" lon="-1.81521">
        <ele>527.075</ele>
        <time>2020-05-13T11:31:09Z</time>
      </trkpt>
      <trkpt lat="42.91342" lon="-1.81493">
        <ele>527.48</ele>
        <time>2020-05-13T11:30:49Z</time>
      </trkpt>
      <trkpt lat="42.91335" lon="-1.81471">
        <ele>528.287</ele>
        <time>2020-05-13T11:30:29Z</time>
      </trkpt>
      <trkpt lat="42.91328" lon="-1.81451">
        <ele>528.532</ele>
        <time>2020-05-13T11:30:09Z</time>
      </trkpt>
      <trkpt lat="42.91321" lon="-1.81429">
        <ele>529.808</ele>
        <time>2020-05-13T11:29:49Z</time>
      </trkpt>
      <trkpt lat="42.91313" lon="-1.81406">
        <ele>531.317</ele>
        <time>2020-05-13T11:29:29Z</time>
      </trkpt>
      <trkpt lat="42.913" lon="-1.81369">
        <ele>532.443</ele>
        <time>2020-05-13T11:29:09Z</time>
      </trkpt>
      <trkpt lat="42.91294" lon="-1.81351">
        <ele>532.882</ele>
        <time>2020-05-13T11:28:49Z</time>
      </trkpt>
      <trkpt lat="42.91288" lon="-1.81334">
        <ele>533.087</ele>
        <time>2020-05-13T11:28:29Z</time>
      </trkpt>
      <trkpt lat="42.91282" lon="-1.81313">
        <ele>533.839</ele>
        <time>2020-05-13T11:28:09Z</time>
      </trkpt>
      <trkpt lat="42.91308" lon="-1.81287">
        <ele>536.171</ele>
        <time>2020-05-13T11:27:49Z</time>
      </trkpt>
      <trkpt lat="42.91318" lon="-1.81273">
        <ele>538.299</ele>
        <time>2020-05-13T11:27:29Z</time>
      </trkpt>
      <trkpt lat="42.91318" lon="-1.81262">
        <ele>539.653</ele>
        <time>2020-05-13T11:27:09Z</time>
      </trkpt>
      <trkpt lat="42.91309" lon="-1.81248">
        <ele>540.638</ele>
        <time>2020-05-13T11:26:49Z</time>
      </trkpt>
      <trkpt lat="42.91302" lon="-1.81232">
        <ele>540.565</ele>
        <time>2020-05-13T11:26:29Z</time>
      </trkpt>
      <trkpt lat="42.91297" lon="-1.81222">
        <ele>541.18</ele>
        <time>2020-05-13T11:26:09Z</time>
      </trkpt>
      <trkpt lat="42.91296" lon="-1.81208">
        <ele>541.808</ele>
        <time>2020-05-13T11:25:49Z</time>
      </trkpt>
      <trkpt lat="42.91296" lon="-1.81208">
        <ele>541.818</ele>
        <time>2020-05-13T11:25:29Z</time>
      </trkpt>
      <trkpt lat="42.91298" lon="-1.81196">
        <ele>541.744</ele>
        <time>2020-05-13T11:25:09Z</time>
      </trkpt>
      <trkpt lat="42.91295" lon="-1.81184">
        <ele>541.963</ele>
        <time>2020-05-13T11:24:49Z</time>
      </trkpt>
      <trkpt lat="42.91284" lon="-1.8117">
        <ele>539.474</ele>
        <time>2020-05-13T11:24:29Z</time>
      </trkpt>
      <trkpt lat="42.91271" lon="-1.81156">
        <ele>538.226</ele>
        <time>2020-05-13T11:24:09Z</time>
      </trkpt>
      <trkpt lat="42.91257" lon="-1.81137">
        <ele>532.758</ele>
        <time>2020-05-13T11:23:49Z</time>
      </trkpt>
      <trkpt lat="42.91243" lon="-1.81123">
        <ele>528.816</ele>
        <time>2020-05-13T11:23:29Z</time>
      </trkpt>
      <trkpt lat="42.91239" lon="-1.81117">
        <ele>528.82</ele>
        <time>2020-05-13T11:23:09Z</time>
      </trkpt>
      <trkpt lat="42.91249" lon="-1.81089">
        <ele>526.445</ele>
        <time>2020-05-13T11:22:49Z</time>
      </trkpt>
      <trkpt lat="42.91255" lon="-1.81073">
        <ele>524.882</ele>
        <time>2020-05-13T11:22:29Z</time>
      </trkpt>
      <trkpt lat="42.91258" lon="-1.8106">
        <ele>525.517</ele>
        <time>2020-05-13T11:22:09Z</time>
      </trkpt>
      <trkpt lat="42.91254" lon="-1.81044">
        <ele>524.608</ele>
        <time>2020-05-13T11:21:49Z</time>
      </trkpt>
      <trkpt lat="42.91249" lon="-1.81022">
        <ele>525.721</ele>
        <time>2020-05-13T11:21:29Z</time>
      </trkpt>
      <trkpt lat="42.91241" lon="-1.80985">
        <ele>525.601</ele>
        <time>2020-05-13T11:21:09Z</time>
      </trkpt>
      <trkpt lat="42.91235" lon="-1.80959">
        <ele>523.339</ele>
        <time>2020-05-13T11:20:49Z</time>
      </trkpt>
      <trkpt lat="42.9123" lon="-1.80932">
        <ele>524.61</ele>
        <time>2020-05-13T11:20:29Z</time>
      </trkpt>
      <trkpt lat="42.91225" lon="-1.80911">
        <ele>521.862</ele>
        <time>2020-05-13T11:20:09Z</time>
      </trkpt>
      <trkpt lat="42.91218" lon="-1.80894">
        <ele>522.194</ele>
        <time>2020-05-13T11:19:49Z</time>
      </trkpt>
      <trkpt lat="42.91213" lon="-1.8088">
        <ele>520.732</ele>
        <time>2020-05-13T11:19:29Z</time>
      </trkpt>
      <trkpt lat="42.91208" lon="-1.80864">
        <ele>519.196</ele>
        <time>2020-05-13T11:19:09Z</time>
      </trkpt>
      <trkpt lat="42.91197" lon="-1.80839">
        <ele>518.151</ele>
        <time>2020-05-13T11:18:49Z</time>
      </trkpt>
      <trkpt lat="42.91179" lon="-1.80787">
        <ele>516.368</ele>
        <time>2020-05-13T11:18:29Z</time>
      </trkpt>
      <trkpt lat="42.91169" lon="-1.80759">
        <ele>514.623</ele>
        <time>2020-05-13T11:18:09Z</time>
      </trkpt>
      <trkpt lat="42.91162" lon="-1.80741">
        <ele>513.508</ele>
        <time>2020-05-13T11:17:49Z</time>
      </trkpt>
      <trkpt lat="42.91154" lon="-1.80737">
        <ele>513.525</ele>
        <time>2020-05-13T11:17:29Z</time>
      </trkpt>
      <trkpt lat="42.91145" lon="-1.80741">
        <ele>511.823</ele>
        <time>2020-05-13T11:17:09Z</time>
      </trkpt>
      <trkpt lat="42.91118" lon="-1.80761">
        <ele>506.197</ele>
        <time>2020-05-13T11:16:49Z</time>
      </trkpt>
      <trkpt lat="42.91112" lon="-1.80763">
        <ele>504.687</ele>
        <time>2020-05-13T11:16:29Z</time>
      </trkpt>
      <trkpt lat="42.91107" lon="-1.80758">
        <ele>503.669</ele>
        <time>2020-05-13T11:16:09Z</time>
      </trkpt>
      <trkpt lat="42.91099" lon="-1.80737">
        <ele>504.311</ele>
        <time>2020-05-13T11:15:49Z</time>
      </trkpt>
      <trkpt lat="42.91091" lon="-1.80718">
        <ele>503.639</ele>
        <time>2020-05-13T11:15:29Z</time>
      </trkpt>
      <trkpt lat="42.91086" lon="-1.80703">
        <ele>502.933</ele>
        <time>2020-05-13T11:15:09Z</time>
      </trkpt>
      <trkpt lat="42.91076" lon="-1.80681">
        <ele>502.258</ele>
        <time>2020-05-13T11:14:49Z</time>
      </trkpt>
      <trkpt lat="42.91064" lon="-1.80651">
        <ele>501.665</ele>
        <time>2020-05-13T11:14:29Z</time>
      </trkpt>
      <trkpt lat="42.91057" lon="-1.80642">
        <ele>501.26</ele>
        <time>2020-05-13T11:14:09Z</time>
      </trkpt>
      <trkpt lat="42.91055" lon="-1.80627">
        <ele>501.608</ele>
        <time>2020-05-13T11:13:49Z</time>
      </trkpt>
      <trkpt lat="42.91052" lon="-1.80618">
        <ele>500.719</ele>
        <time>2020-05-13T11:13:29Z</time>
      </trkpt>
      <trkpt lat="42.9105" lon="-1.80613">
        <ele>500.781</ele>
        <time>2020-05-13T11:13:09Z</time>
      </trkpt>
      <trkpt lat="42.91047" lon="-1.80609">
        <ele>500.767</ele>
        <time>2020-05-13T11:12:49Z</time>
      </trkpt>
      <trkpt lat="42.91046" lon="-1.80606">
        <ele>500.762</ele>
        <time>2020-05-13T11:12:29Z</time>
      </trkpt>
      <trkpt lat="42.91045" lon="-1.80605">
        <ele>500.724</ele>
        <time>2020-05-13T11:12:09Z</time>
      </trkpt>
      <trkpt lat="42.91041" lon="-1.80591">
        <ele>500.976</ele>
        <time>2020-05-13T11:11:49Z</time>
      </trkpt>
      <trkpt lat="42.91039" lon="-1.80585">
        <ele>500.954</ele>
        <time>2020-05-13T11:11:29Z</time>
      </trkpt>
      <trkpt lat="42.91033" lon="-1.80568">
        <ele>499.478</ele>
        <time>2020-05-13T11:11:09Z</time>
      </trkpt>
      <trkpt lat="42.91028" lon="-1.80551">
        <ele>500.353</ele>
        <time>2020-05-13T11:10:49Z</time>
      </trkpt>
      <trkpt lat="42.91021" lon="-1.80528">
        <ele>499.84</ele>
        <time>2020-05-13T11:10:29Z</time>
      </trkpt>
      <trkpt lat="42.91013" lon="-1.80506">
        <ele>498.865</ele>
        <time>2020-05-13T11:10:09Z</time>
      </trkpt>
      <trkpt lat="42.90988" lon="-1.80431">
        <ele>497.208</ele>
        <time>2020-05-13T11:09:49Z</time>
      </trkpt>
      <trkpt lat="42.90985" lon="-1.80423">
        <ele>497.107</ele>
        <time>2020-05-13T11:09:29Z</time>
      </trkpt>
      <trkpt lat="42.90982" lon="-1.80415">
        <ele>497.143</ele>
        <time>2020-05-13T11:09:09Z</time>
      </trkpt>
      <trkpt lat="42.90976" lon="-1.80401">
        <ele>497.013</ele>
        <time>2020-05-13T11:08:49Z</time>
      </trkpt>
      <trkpt lat="42.90969" lon="-1.80387">
        <ele>496.678</ele>
        <time>2020-05-13T11:08:29Z</time>
      </trkpt>
      <trkpt lat="42.90951" lon="-1.80352">
        <ele>495.94</ele>
        <time>2020-05-13T11:08:09Z</time>
      </trkpt>
      <trkpt lat="42.90943" lon="-1.80335">
        <ele>495.352</ele>
        <time>2020-05-13T11:07:49Z</time>
      </trkpt>
      <trkpt lat="42.90934" lon="-1.80318">
        <ele>495.07</ele>
        <time>2020-05-13T11:07:29Z</time>
      </trkpt>
      <trkpt lat="42.90927" lon="-1.80305">
        <ele>494.844</ele>
        <time>2020-05-13T11:07:09Z</time>
      </trkpt>
      <trkpt lat="42.9092" lon="-1.80293">
        <ele>494.589</ele>
        <time>2020-05-13T11:06:49Z</time>
      </trkpt>
      <trkpt lat="42.90907" lon="-1.80268">
        <ele>494.146</ele>
        <time>2020-05-13T11:06:29Z</time>
      </trkpt>
      <trkpt lat="42.90893" lon="-1.80244">
        <ele>493.541</ele>
        <time>2020-05-13T11:06:09Z</time>
      </trkpt>
      <trkpt lat="42.90865" lon="-1.8019">
        <ele>493.208</ele>
        <time>2020-05-13T11:05:49Z</time>
      </trkpt>
      <trkpt lat="42.90836" lon="-1.80137">
        <ele>491.927</ele>
        <time>2020-05-13T11:05:29Z</time>
      </trkpt>
      <trkpt lat="42.90822" lon="-1.80109">
        <ele>491.161</ele>
        <time>2020-05-13T11:05:09Z</time>
      </trkpt>
      <trkpt lat="42.90808" lon="-1.80082">
        <ele>491.777</ele>
        <time>2020-05-13T11:04:49Z</time>
      </trkpt>
      <trkpt lat="42.90772" lon="-1.80015">
        <ele>492.344</ele>
        <time>2020-05-13T11:04:29Z</time>
      </trkpt>
      <trkpt lat="42.90737" lon="-1.79948">
        <ele>489.536</ele>
        <time>2020-05-13T11:04:09Z</time>
      </trkpt>
      <trkpt lat="42.90712" lon="-1.79899">
        <ele>488.218</ele>
        <time>2020-05-13T11:03:49Z</time>
      </trkpt>
      <trkpt lat="42.90705" lon="-1.79886">
        <ele>489.826</ele>
        <time>2020-05-13T11:03:29Z</time>
      </trkpt>
      <trkpt lat="42.90699" lon="-1.79873">
        <ele>488.71</ele>
        <time>2020-05-13T11:03:09Z</time>
      </trkpt>
      <trkpt lat="42.90694" lon="-1.79864">
        <ele>488.745</ele>
        <time>2020-05-13T11:02:49Z</time>
      </trkpt>
      <trkpt lat="42.90689" lon="-1.79855">
        <ele>487.162</ele>
        <time>2020-05-13T11:02:29Z</time>
      </trkpt>
      <trkpt lat="42.90678" lon="-1.79838">
        <ele>487.647</ele>
        <time>2020-05-13T11:02:09Z</time>
      </trkpt>
      <trkpt lat="42.90667" lon="-1.79821">
        <ele>487.508</ele>
        <time>2020-05-13T11:01:49Z</time>
      </trkpt>
      <trkpt lat="42.90647" lon="-1.79793">
        <ele>485.213</ele>
        <time>2020-05-13T11:01:29Z</time>
      </trkpt>
      <trkpt lat="42.90559" lon="-1.79682">
        <ele>482.449</ele>
        <time>2020-05-13T11:01:09Z</time>
      </trkpt>
      <trkpt lat="42.90527" lon="-1.7964">
        <ele>481.437</ele>
        <time>2020-05-13T11:00:49Z</time>
      </trkpt>
      <trkpt lat="42.90499" lon="-1.79605">
        <ele>480.775</ele>
        <time>2020-05-13T11:00:29Z</time>
      </trkpt>
      <trkpt lat="42.90472" lon="-1.7957">
        <ele>479.877</ele>
        <time>2020-05-13T11:00:09Z</time>
      </trkpt>
      <trkpt lat="42.9047" lon="-1.79567">
        <ele>479.859</ele>
        <time>2020-05-13T10:59:49Z</time>
      </trkpt>
      <trkpt lat="42.90469" lon="-1.79566">
        <ele>479.817</ele>
        <time>2020-05-13T10:59:29Z</time>
      </trkpt>
      <trkpt lat="42.90446" lon="-1.79536">
        <ele>479.181</ele>
        <time>2020-05-13T10:59:09Z</time>
      </trkpt>
      <trkpt lat="42.90442" lon="-1.79531">
        <ele>479.196</ele>
        <time>2020-05-13T10:58:49Z</time>
      </trkpt>
      <trkpt lat="42.90438" lon="-1.79526">
        <ele>478.833</ele>
        <time>2020-05-13T10:58:29Z</time>
      </trkpt>
      <trkpt lat="42.90434" lon="-1.79521">
        <ele>478.838</ele>
        <time>2020-05-13T10:58:09Z</time>
      </trkpt>
      <trkpt lat="42.9043" lon="-1.79516">
        <ele>478.808</ele>
        <time>2020-05-13T10:57:49Z</time>
      </trkpt>
      <trkpt lat="42.90424" lon="-1.79509">
        <ele>478.715</ele>
        <time>2020-05-13T10:57:29Z</time>
      </trkpt>
      <trkpt lat="42.9042" lon="-1.79503">
        <ele>478.705</ele>
        <time>2020-05-13T10:57:09Z</time>
      </trkpt>
      <trkpt lat="42.90417" lon="-1.795">
        <ele>478.644</ele>
        <time>2020-05-13T10:56:49Z</time>
      </trkpt>
      <trkpt lat="42.90415" lon="-1.79497">
        <ele>478.642</ele>
        <time>2020-05-13T10:56:29Z</time>
      </trkpt>
      <trkpt lat="42.90413" lon="-1.79494">
        <ele>478.624</ele>
        <time>2020-05-13T10:56:09Z</time>
      </trkpt>
      <trkpt lat="42.9041" lon="-1.79491">
        <ele>473.126</ele>
        <time>2020-05-13T10:55:49Z</time>
      </trkpt>
      <trkpt lat="42.9041" lon="-1.7949">
        <ele>473.144</ele>
        <time>2020-05-13T10:55:29Z</time>
      </trkpt>
      <trkpt lat="42.90409" lon="-1.79489">
        <ele>470.198</ele>
        <time>2020-05-13T10:55:09Z</time>
      </trkpt>
      <trkpt lat="42.90408" lon="-1.79488">
        <ele>470.183</ele>
        <time>2020-05-13T10:54:49Z</time>
      </trkpt>
      <trkpt lat="42.90407" lon="-1.79487">
        <ele>470.18</ele>
        <time>2020-05-13T10:54:29Z</time>
      </trkpt>
      <trkpt lat="42.90406" lon="-1.79485">
        <ele>470.115</ele>
        <time>2020-05-13T10:54:09Z</time>
      </trkpt>
      <trkpt lat="42.90405" lon="-1.79484">
        <ele>470.108</ele>
        <time>2020-05-13T10:53:49Z</time>
      </trkpt>
      <trkpt lat="42.90404" lon="-1.79482">
        <ele>470.105</ele>
        <time>2020-05-13T10:53:29Z</time>
      </trkpt>
      <trkpt lat="42.90401" lon="-1.79479">
        <ele>470.532</ele>
        <time>2020-05-13T10:53:09Z</time>
      </trkpt>
      <trkpt lat="42.904" lon="-1.79478">
        <ele>470.512</ele>
        <time>2020-05-13T10:52:49Z</time>
      </trkpt>
      <trkpt lat="42.90398" lon="-1.79475">
        <ele>469.567</ele>
        <time>2020-05-13T10:52:29Z</time>
      </trkpt>
      <trkpt lat="42.90394" lon="-1.7947">
        <ele>469.589</ele>
        <time>2020-05-13T10:52:09Z</time>
      </trkpt>
      <trkpt lat="42.9039" lon="-1.79465">
        <ele>467.851</ele>
        <time>2020-05-13T10:51:49Z</time>
      </trkpt>
      <trkpt lat="42.90386" lon="-1.79459">
        <ele>467.889</ele>
        <time>2020-05-13T10:51:29Z</time>
      </trkpt>
      <trkpt lat="42.90382" lon="-1.79454">
        <ele>467.383</ele>
        <time>2020-05-13T10:51:09Z</time>
      </trkpt>
      <trkpt lat="42.90377" lon="-1.79448">
        <ele>468.088</ele>
        <time>2020-05-13T10:50:49Z</time>
      </trkpt>
      <trkpt lat="42.90369" lon="-1.79438">
        <ele>467.925</ele>
        <time>2020-05-13T10:50:29Z</time>
      </trkpt>
      <trkpt lat="42.90364" lon="-1.79432">
        <ele>467.69</ele>
        <time>2020-05-13T10:50:09Z</time>
      </trkpt>
      <trkpt lat="42.90339" lon="-1.794">
        <ele>467.708</ele>
        <time>2020-05-13T10:49:49Z</time>
      </trkpt>
      <trkpt lat="42.90315" lon="-1.79369">
        <ele>468.416</ele>
        <time>2020-05-13T10:49:29Z</time>
      </trkpt>
      <trkpt lat="42.90309" lon="-1.79362">
        <ele>478.906</ele>
        <time>2020-05-13T10:49:09Z</time>
      </trkpt>
      <trkpt lat="42.90298" lon="-1.79349">
        <ele>478.764</ele>
        <time>2020-05-13T10:48:49Z</time>
      </trkpt>
      <trkpt lat="42.90251" lon="-1.79292">
        <ele>479.098</ele>
        <time>2020-05-13T10:48:29Z</time>
      </trkpt>
      <trkpt lat="42.9025" lon="-1.7929">
        <ele>479.02</ele>
        <time>2020-05-13T10:48:09Z</time>
      </trkpt>
      <trkpt lat="42.90241" lon="-1.79278">
        <ele>480.652</ele>
        <time>2020-05-13T10:47:49Z</time>
      </trkpt>
      <trkpt lat="42.9022" lon="-1.7925">
        <ele>482.32</ele>
        <time>2020-05-13T10:47:29Z</time>
      </trkpt>
      <trkpt lat="42.90205" lon="-1.79231">
        <ele>483.844</ele>
        <time>2020-05-13T10:47:09Z</time>
      </trkpt>
      <trkpt lat="42.902" lon="-1.79224">
        <ele>487.719</ele>
        <time>2020-05-13T10:46:49Z</time>
      </trkpt>
      <trkpt lat="42.90173" lon="-1.7919">
        <ele>484.576</ele>
        <time>2020-05-13T10:46:29Z</time>
      </trkpt>
      <trkpt lat="42.90146" lon="-1.79155">
        <ele>481.171</ele>
        <time>2020-05-13T10:46:09Z</time>
      </trkpt>
      <trkpt lat="42.90113" lon="-1.79112">
        <ele>481.808</ele>
        <time>2020-05-13T10:45:49Z</time>
      </trkpt>
      <trkpt lat="42.90079" lon="-1.79069">
        <ele>483.714</ele>
        <time>2020-05-13T10:45:29Z</time>
      </trkpt>
      <trkpt lat="42.90044" lon="-1.79025">
        <ele>488.913</ele>
        <time>2020-05-13T10:45:09Z</time>
      </trkpt>
      <trkpt lat="42.90042" lon="-1.79022">
        <ele>488.972</ele>
        <time>2020-05-13T10:44:49Z</time>
      </trkpt>
      <trkpt lat="42.90031" lon="-1.79009">
        <ele>486.944</ele>
        <time>2020-05-13T10:44:29Z</time>
      </trkpt>
      <trkpt lat="42.90019" lon="-1.78996">
        <ele>487.346</ele>
        <time>2020-05-13T10:44:09Z</time>
      </trkpt>
      <trkpt lat="42.90015" lon="-1.7899">
        <ele>486.838</ele>
        <time>2020-05-13T10:43:49Z</time>
      </trkpt>
      <trkpt lat="42.90011" lon="-1.78983">
        <ele>486.826</ele>
        <time>2020-05-13T10:43:29Z</time>
      </trkpt>
      <trkpt lat="42.90005" lon="-1.78973">
        <ele>486.83</ele>
        <time>2020-05-13T10:43:09Z</time>
      </trkpt>
      <trkpt lat="42.90002" lon="-1.78967">
        <ele>488.675</ele>
        <time>2020-05-13T10:42:49Z</time>
      </trkpt>
      <trkpt lat="42.9" lon="-1.78961">
        <ele>488.672</ele>
        <time>2020-05-13T10:42:29Z</time>
      </trkpt>
      <trkpt lat="42.8999" lon="-1.78934">
        <ele>487.427</ele>
        <time>2020-05-13T10:42:09Z</time>
      </trkpt>
      <trkpt lat="42.89983" lon="-1.78916">
        <ele>489.108</ele>
        <time>2020-05-13T10:41:49Z</time>
      </trkpt>
      <trkpt lat="42.89977" lon="-1.78897">
        <ele>488.118</ele>
        <time>2020-05-13T10:41:29Z</time>
      </trkpt>
      <trkpt lat="42.89971" lon="-1.78877">
        <ele>488.417</ele>
        <time>2020-05-13T10:41:09Z</time>
      </trkpt>
      <trkpt lat="42.89965" lon="-1.78856">
        <ele>489.136</ele>
        <time>2020-05-13T10:40:49Z</time>
      </trkpt>
      <trkpt lat="42.89949" lon="-1.78799">
        <ele>490.079</ele>
        <time>2020-05-13T10:40:29Z</time>
      </trkpt>
      <trkpt lat="42.89938" lon="-1.78759">
        <ele>490.571</ele>
        <time>2020-05-13T10:40:09Z</time>
      </trkpt>
      <trkpt lat="42.89933" lon="-1.7874">
        <ele>490.853</ele>
        <time>2020-05-13T10:39:49Z</time>
      </trkpt>
      <trkpt lat="42.89927" lon="-1.78722">
        <ele>491.461</ele>
        <time>2020-05-13T10:39:29Z</time>
      </trkpt>
      <trkpt lat="42.8992" lon="-1.78698">
        <ele>491.415</ele>
        <time>2020-05-13T10:39:09Z</time>
      </trkpt>
      <trkpt lat="42.89913" lon="-1.78674">
        <ele>491.98</ele>
        <time>2020-05-13T10:38:49Z</time>
      </trkpt>
      <trkpt lat="42.8991" lon="-1.78666">
        <ele>492.057</ele>
        <time>2020-05-13T10:38:29Z</time>
      </trkpt>
      <trkpt lat="42.89907" lon="-1.78657">
        <ele>492.022</ele>
        <time>2020-05-13T10:38:09Z</time>
      </trkpt>
      <trkpt lat="42.89903" lon="-1.78645">
        <ele>492.408</ele>
        <time>2020-05-13T10:37:49Z</time>
      </trkpt>
      <trkpt lat="42.89898" lon="-1.78633">
        <ele>492.626</ele>
        <time>2020-05-13T10:37:29Z</time>
      </trkpt>
      <trkpt lat="42.89891" lon="-1.78618">
        <ele>492.96</ele>
        <time>2020-05-13T10:37:09Z</time>
      </trkpt>
      <trkpt lat="42.89882" lon="-1.78599">
        <ele>493.686</ele>
        <time>2020-05-13T10:36:49Z</time>
      </trkpt>
      <trkpt lat="42.89879" lon="-1.78594">
        <ele>493.694</ele>
        <time>2020-05-13T10:36:29Z</time>
      </trkpt>
      <trkpt lat="42.89875" lon="-1.78587">
        <ele>494.386</ele>
        <time>2020-05-13T10:36:09Z</time>
      </trkpt>
      <trkpt lat="42.89874" lon="-1.78585">
        <ele>494.388</ele>
        <time>2020-05-13T10:35:49Z</time>
      </trkpt>
      <trkpt lat="42.89804" lon="-1.78487">
        <ele>495.946</ele>
        <time>2020-05-13T10:35:29Z</time>
      </trkpt>
      <trkpt lat="42.89775" lon="-1.78446">
        <ele>497.22</ele>
        <time>2020-05-13T10:35:09Z</time>
      </trkpt>
      <trkpt lat="42.89678" lon="-1.7831">
        <ele>502.525</ele>
        <time>2020-05-13T10:34:49Z</time>
      </trkpt>
      <trkpt lat="42.89665" lon="-1.78291">
        <ele>501.292</ele>
        <time>2020-05-13T10:34:29Z</time>
      </trkpt>
      <trkpt lat="42.89651" lon="-1.78271">
        <ele>502.177</ele>
        <time>2020-05-13T10:34:09Z</time>
      </trkpt>
      <trkpt lat="42.8965" lon="-1.78269">
        <ele>501.008</ele>
        <time>2020-05-13T10:33:49Z</time>
      </trkpt>
      <trkpt lat="42.89636" lon="-1.78251">
        <ele>501.417</ele>
        <time>2020-05-13T10:33:29Z</time>
      </trkpt>
      <trkpt lat="42.89624" lon="-1.78233">
        <ele>501.77</ele>
        <time>2020-05-13T10:33:09Z</time>
      </trkpt>
      <trkpt lat="42.89612" lon="-1.78217">
        <ele>502.138</ele>
        <time>2020-05-13T10:32:49Z</time>
      </trkpt>
      <trkpt lat="42.89601" lon="-1.78201">
        <ele>502.599</ele>
        <time>2020-05-13T10:32:29Z</time>
      </trkpt>
      <trkpt lat="42.89595" lon="-1.78192">
        <ele>502.721</ele>
        <time>2020-05-13T10:32:09Z</time>
      </trkpt>
      <trkpt lat="42.89588" lon="-1.78183">
        <ele>502.713</ele>
        <time>2020-05-13T10:31:49Z</time>
      </trkpt>
      <trkpt lat="42.89565" lon="-1.78151">
        <ele>504.281</ele>
        <time>2020-05-13T10:31:29Z</time>
      </trkpt>
      <trkpt lat="42.89563" lon="-1.78146">
        <ele>504.225</ele>
        <time>2020-05-13T10:31:09Z</time>
      </trkpt>
      <trkpt lat="42.8956" lon="-1.78141">
        <ele>504.91</ele>
        <time>2020-05-13T10:30:49Z</time>
      </trkpt>
      <trkpt lat="42.89554" lon="-1.7813">
        <ele>505.737</ele>
        <time>2020-05-13T10:30:29Z</time>
      </trkpt>
      <trkpt lat="42.89543" lon="-1.78122">
        <ele>506.062</ele>
        <time>2020-05-13T10:30:09Z</time>
      </trkpt>
      <trkpt lat="42.89539" lon="-1.78118">
        <ele>506.108</ele>
        <time>2020-05-13T10:29:49Z</time>
      </trkpt>
      <trkpt lat="42.89486" lon="-1.78062">
        <ele>505.717</ele>
        <time>2020-05-13T10:29:29Z</time>
      </trkpt>
      <trkpt lat="42.89433" lon="-1.78007">
        <ele>507.489</ele>
        <time>2020-05-13T10:29:09Z</time>
      </trkpt>
      <trkpt lat="42.89393" lon="-1.77966">
        <ele>508.385</ele>
        <time>2020-05-13T10:28:49Z</time>
      </trkpt>
      <trkpt lat="42.89353" lon="-1.77925">
        <ele>509.626</ele>
        <time>2020-05-13T10:28:29Z</time>
      </trkpt>
      <trkpt lat="42.89312" lon="-1.77879">
        <ele>510.988</ele>
        <time>2020-05-13T10:28:09Z</time>
      </trkpt>
      <trkpt lat="42.89305" lon="-1.77871">
        <ele>510.93</ele>
        <time>2020-05-13T10:27:49Z</time>
      </trkpt>
      <trkpt lat="42.89298" lon="-1.77858">
        <ele>511.398</ele>
        <time>2020-05-13T10:27:29Z</time>
      </trkpt>
      <trkpt lat="42.89283" lon="-1.77827">
        <ele>513.352</ele>
        <time>2020-05-13T10:27:09Z</time>
      </trkpt>
      <trkpt lat="42.89275" lon="-1.77812">
        <ele>513.997</ele>
        <time>2020-05-13T10:26:49Z</time>
      </trkpt>
      <trkpt lat="42.89267" lon="-1.77797">
        <ele>514.734</ele>
        <time>2020-05-13T10:26:29Z</time>
      </trkpt>
      <trkpt lat="42.89262" lon="-1.7779">
        <ele>515.319</ele>
        <time>2020-05-13T10:26:09Z</time>
      </trkpt>
      <trkpt lat="42.89257" lon="-1.77783">
        <ele>516.308</ele>
        <time>2020-05-13T10:25:49Z</time>
      </trkpt>
      <trkpt lat="42.89246" lon="-1.77772">
        <ele>517.314</ele>
        <time>2020-05-13T10:25:29Z</time>
      </trkpt>
      <trkpt lat="42.89236" lon="-1.77761">
        <ele>517.304</ele>
        <time>2020-05-13T10:25:09Z</time>
      </trkpt>
      <trkpt lat="42.89227" lon="-1.7775">
        <ele>517.553</ele>
        <time>2020-05-13T10:24:49Z</time>
      </trkpt>
      <trkpt lat="42.89213" lon="-1.77727">
        <ele>518.398</ele>
        <time>2020-05-13T10:24:29Z</time>
      </trkpt>
      <trkpt lat="42.89177" lon="-1.77664">
        <ele>520.37</ele>
        <time>2020-05-13T10:24:09Z</time>
      </trkpt>
      <trkpt lat="42.89167" lon="-1.77648">
        <ele>521.472</ele>
        <time>2020-05-13T10:23:49Z</time>
      </trkpt>
      <trkpt lat="42.89166" lon="-1.77647">
        <ele>520.17</ele>
        <time>2020-05-13T10:23:29Z</time>
      </trkpt>
      <trkpt lat="42.89164" lon="-1.77645">
        <ele>520.174</ele>
        <time>2020-05-13T10:23:09Z</time>
      </trkpt>
      <trkpt lat="42.89163" lon="-1.77644">
        <ele>520.169</ele>
        <time>2020-05-13T10:22:49Z</time>
      </trkpt>
      <trkpt lat="42.89158" lon="-1.77643">
        <ele>520.146</ele>
        <time>2020-05-13T10:22:29Z</time>
      </trkpt>
      <trkpt lat="42.89154" lon="-1.77641">
        <ele>519.671</ele>
        <time>2020-05-13T10:22:09Z</time>
      </trkpt>
      <trkpt lat="42.89153" lon="-1.7764">
        <ele>519.608</ele>
        <time>2020-05-13T10:21:49Z</time>
      </trkpt>
      <trkpt lat="42.89151" lon="-1.77639">
        <ele>520.92</ele>
        <time>2020-05-13T10:21:29Z</time>
      </trkpt>
      <trkpt lat="42.8915" lon="-1.77636">
        <ele>520.928</ele>
        <time>2020-05-13T10:21:09Z</time>
      </trkpt>
      <trkpt lat="42.89147" lon="-1.77626">
        <ele>520.775</ele>
        <time>2020-05-13T10:20:49Z</time>
      </trkpt>
      <trkpt lat="42.89137" lon="-1.77606">
        <ele>522.624</ele>
        <time>2020-05-13T10:20:29Z</time>
      </trkpt>
      <trkpt lat="42.89128" lon="-1.77585">
        <ele>523.566</ele>
        <time>2020-05-13T10:20:09Z</time>
      </trkpt>
      <trkpt lat="42.89125" lon="-1.77578">
        <ele>522.968</ele>
        <time>2020-05-13T10:19:49Z</time>
      </trkpt>
      <trkpt lat="42.89123" lon="-1.77571">
        <ele>522.916</ele>
        <time>2020-05-13T10:19:29Z</time>
      </trkpt>
      <trkpt lat="42.89121" lon="-1.77563">
        <ele>523.68</ele>
        <time>2020-05-13T10:19:09Z</time>
      </trkpt>
      <trkpt lat="42.89119" lon="-1.77555">
        <ele>524.845</ele>
        <time>2020-05-13T10:18:49Z</time>
      </trkpt>
      <trkpt lat="42.89116" lon="-1.77543">
        <ele>524.282</ele>
        <time>2020-05-13T10:18:29Z</time>
      </trkpt>
      <trkpt lat="42.89114" lon="-1.7753">
        <ele>524.437</ele>
        <time>2020-05-13T10:18:09Z</time>
      </trkpt>
      <trkpt lat="42.89112" lon="-1.77517">
        <ele>525.308</ele>
        <time>2020-05-13T10:17:49Z</time>
      </trkpt>
      <trkpt lat="42.8911" lon="-1.77505">
        <ele>525.618</ele>
        <time>2020-05-13T10:17:29Z</time>
      </trkpt>
      <trkpt lat="42.89107" lon="-1.77484">
        <ele>526.117</ele>
        <time>2020-05-13T10:17:09Z</time>
      </trkpt>
      <trkpt lat="42.89104" lon="-1.77469">
        <ele>527.336</ele>
        <time>2020-05-13T10:16:49Z</time>
      </trkpt>
      <trkpt lat="42.89098" lon="-1.77421">
        <ele>529.633</ele>
        <time>2020-05-13T10:16:29Z</time>
      </trkpt>
      <trkpt lat="42.89097" lon="-1.77414">
        <ele>530.715</ele>
        <time>2020-05-13T10:16:09Z</time>
      </trkpt>
      <trkpt lat="42.89095" lon="-1.77398">
        <ele>531.917</ele>
        <time>2020-05-13T10:15:49Z</time>
      </trkpt>
      <trkpt lat="42.89093" lon="-1.77378">
        <ele>535.555</ele>
        <time>2020-05-13T10:15:29Z</time>
      </trkpt>
      <trkpt lat="42.89092" lon="-1.77368">
        <ele>537.859</ele>
        <time>2020-05-13T10:15:09Z</time>
      </trkpt>
      <trkpt lat="42.8909" lon="-1.77362">
        <ele>536.194</ele>
        <time>2020-05-13T10:14:49Z</time>
      </trkpt>
      <trkpt lat="42.89083" lon="-1.77338">
        <ele>538.681</ele>
        <time>2020-05-13T10:14:29Z</time>
      </trkpt>
      <trkpt lat="42.89078" lon="-1.7732">
        <ele>538.656</ele>
        <time>2020-05-13T10:14:09Z</time>
      </trkpt>
      <trkpt lat="42.89067" lon="-1.77291">
        <ele>537.408</ele>
        <time>2020-05-13T10:13:49Z</time>
      </trkpt>
      <trkpt lat="42.89057" lon="-1.77262">
        <ele>536.905</ele>
        <time>2020-05-13T10:13:29Z</time>
      </trkpt>
      <trkpt lat="42.89049" lon="-1.77241">
        <ele>535.141</ele>
        <time>2020-05-13T10:13:09Z</time>
      </trkpt>
      <trkpt lat="42.8904" lon="-1.7722">
        <ele>533.521</ele>
        <time>2020-05-13T10:12:49Z</time>
      </trkpt>
      <trkpt lat="42.89036" lon="-1.77209">
        <ele>534.869</ele>
        <time>2020-05-13T10:12:29Z</time>
      </trkpt>
      <trkpt lat="42.89032" lon="-1.77198">
        <ele>533.051</ele>
        <time>2020-05-13T10:12:09Z</time>
      </trkpt>
      <trkpt lat="42.89025" lon="-1.7718">
        <ele>531.323</ele>
        <time>2020-05-13T10:11:49Z</time>
      </trkpt>
      <trkpt lat="42.88988" lon="-1.77105">
        <ele>526.931</ele>
        <time>2020-05-13T10:11:29Z</time>
      </trkpt>
      <trkpt lat="42.88978" lon="-1.77084">
        <ele>526.175</ele>
        <time>2020-05-13T10:11:09Z</time>
      </trkpt>
      <trkpt lat="42.88969" lon="-1.77068">
        <ele>526.06</ele>
        <time>2020-05-13T10:10:49Z</time>
      </trkpt>
      <trkpt lat="42.88961" lon="-1.77053">
        <ele>525.577</ele>
        <time>2020-05-13T10:10:29Z</time>
      </trkpt>
      <trkpt lat="42.88958" lon="-1.77048">
        <ele>525.542</ele>
        <time>2020-05-13T10:10:09Z</time>
      </trkpt>
      <trkpt lat="42.88955" lon="-1.77042">
        <ele>525.408</ele>
        <time>2020-05-13T10:09:49Z</time>
      </trkpt>
      <trkpt lat="42.88948" lon="-1.77031">
        <ele>523.717</ele>
        <time>2020-05-13T10:09:29Z</time>
      </trkpt>
      <trkpt lat="42.8894" lon="-1.77019">
        <ele>523.143</ele>
        <time>2020-05-13T10:09:09Z</time>
      </trkpt>
      <trkpt lat="42.88936" lon="-1.77009">
        <ele>522.182</ele>
        <time>2020-05-13T10:08:49Z</time>
      </trkpt>
      <trkpt lat="42.88932" lon="-1.76999">
        <ele>521.357</ele>
        <time>2020-05-13T10:08:29Z</time>
      </trkpt>
      <trkpt lat="42.88922" lon="-1.76977">
        <ele>520.729</ele>
        <time>2020-05-13T10:08:09Z</time>
      </trkpt>
      <trkpt lat="42.88919" lon="-1.76973">
        <ele>520.711</ele>
        <time>2020-05-13T10:07:49Z</time>
      </trkpt>
      <trkpt lat="42.88915" lon="-1.76969">
        <ele>519.919</ele>
        <time>2020-05-13T10:07:29Z</time>
      </trkpt>
      <trkpt lat="42.88908" lon="-1.7696">
        <ele>519.983</ele>
        <time>2020-05-13T10:07:09Z</time>
      </trkpt>
      <trkpt lat="42.88904" lon="-1.76951">
        <ele>520.088</ele>
        <time>2020-05-13T10:06:49Z</time>
      </trkpt>
      <trkpt lat="42.88901" lon="-1.76941">
        <ele>520.245</ele>
        <time>2020-05-13T10:06:29Z</time>
      </trkpt>
      <trkpt lat="42.889" lon="-1.76939">
        <ele>520.27</ele>
        <time>2020-05-13T10:06:09Z</time>
      </trkpt>
      <trkpt lat="42.88899" lon="-1.76936">
        <ele>520.208</ele>
        <time>2020-05-13T10:05:49Z</time>
      </trkpt>
      <trkpt lat="42.88894" lon="-1.76928">
        <ele>519.421</ele>
        <time>2020-05-13T10:05:29Z</time>
      </trkpt>
      <trkpt lat="42.88889" lon="-1.76919">
        <ele>518.329</ele>
        <time>2020-05-13T10:05:09Z</time>
      </trkpt>
      <trkpt lat="42.88878" lon="-1.76907">
        <ele>516.966</ele>
        <time>2020-05-13T10:04:49Z</time>
      </trkpt>
      <trkpt lat="42.88862" lon="-1.76891">
        <ele>514.63</ele>
        <time>2020-05-13T10:04:29Z</time>
      </trkpt>
      <trkpt lat="42.88859" lon="-1.76887">
        <ele>517.012</ele>
        <time>2020-05-13T10:04:09Z</time>
      </trkpt>
      <trkpt lat="42.88856" lon="-1.76883">
        <ele>513.964</ele>
        <time>2020-05-13T10:03:49Z</time>
      </trkpt>
      <trkpt lat="42.88854" lon="-1.7688">
        <ele>513.912</ele>
        <time>2020-05-13T10:03:29Z</time>
      </trkpt>
      <trkpt lat="42.88848" lon="-1.7687">
        <ele>513.046</ele>
        <time>2020-05-13T10:03:09Z</time>
      </trkpt>
      <trkpt lat="42.88841" lon="-1.7686">
        <ele>512.621</ele>
        <time>2020-05-13T10:02:49Z</time>
      </trkpt>
      <trkpt lat="42.88834" lon="-1.7685">
        <ele>512.178</ele>
        <time>2020-05-13T10:02:29Z</time>
      </trkpt>
      <trkpt lat="42.88826" lon="-1.7684">
        <ele>512.353</ele>
        <time>2020-05-13T10:02:09Z</time>
      </trkpt>
      <trkpt lat="42.88814" lon="-1.76829">
        <ele>513.508</ele>
        <time>2020-05-13T10:01:49Z</time>
      </trkpt>
      <trkpt lat="42.88808" lon="-1.76824">
        <ele>509.025</ele>
        <time>2020-05-13T10:01:29Z</time>
      </trkpt>
      <trkpt lat="42.88809" lon="-1.7682">
        <ele>509.023</ele>
        <time>2020-05-13T10:01:09Z</time>
      </trkpt>
      <trkpt lat="42.8881" lon="-1.76817">
        <ele>509.097</ele>
        <time>2020-05-13T10:00:49Z</time>
      </trkpt>
      <trkpt lat="42.8881" lon="-1.76815">
        <ele>509.048</ele>
        <time>2020-05-13T10:00:29Z</time>
      </trkpt>
      <trkpt lat="42.88809" lon="-1.76812">
        <ele>510.73</ele>
        <time>2020-05-13T10:00:09Z</time>
      </trkpt>
      <trkpt lat="42.88794" lon="-1.768">
        <ele>511.122</ele>
        <time>2020-05-13T09:59:49Z</time>
      </trkpt>
      <trkpt lat="42.88779" lon="-1.76788">
        <ele>513.09</ele>
        <time>2020-05-13T09:59:29Z</time>
      </trkpt>
      <trkpt lat="42.88747" lon="-1.76763">
        <ele>518.934</ele>
        <time>2020-05-13T09:59:09Z</time>
      </trkpt>
      <trkpt lat="42.88732" lon="-1.76751">
        <ele>522.359</ele>
        <time>2020-05-13T09:58:49Z</time>
      </trkpt>
      <trkpt lat="42.88725" lon="-1.76748">
        <ele>522.366</ele>
        <time>2020-05-13T09:58:29Z</time>
      </trkpt>
      <trkpt lat="42.88714" lon="-1.76742">
        <ele>529.551</ele>
        <time>2020-05-13T09:58:09Z</time>
      </trkpt>
      <trkpt lat="42.88702" lon="-1.7673">
        <ele>518.008</ele>
        <time>2020-05-13T09:57:49Z</time>
      </trkpt>
      <trkpt lat="42.88692" lon="-1.76721">
        <ele>518.327</ele>
        <time>2020-05-13T09:57:29Z</time>
      </trkpt>
      <trkpt lat="42.88671" lon="-1.76706">
        <ele>531.361</ele>
        <time>2020-05-13T09:57:09Z</time>
      </trkpt>
      <trkpt lat="42.88648" lon="-1.76688">
        <ele>527.877</ele>
        <time>2020-05-13T09:56:49Z</time>
      </trkpt>
      <trkpt lat="42.88641" lon="-1.76674">
        <ele>522.775</ele>
        <time>2020-05-13T09:56:29Z</time>
      </trkpt>
      <trkpt lat="42.88642" lon="-1.76667">
        <ele>519.867</ele>
        <time>2020-05-13T09:56:09Z</time>
      </trkpt>
      <trkpt lat="42.88641" lon="-1.76661">
        <ele>519.899</ele>
        <time>2020-05-13T09:55:49Z</time>
      </trkpt>
      <trkpt lat="42.88642" lon="-1.76656">
        <ele>518.537</ele>
        <time>2020-05-13T09:55:29Z</time>
      </trkpt>
      <trkpt lat="42.88645" lon="-1.76643">
        <ele>520.381</ele>
        <time>2020-05-13T09:55:09Z</time>
      </trkpt>
      <trkpt lat="42.88645" lon="-1.76633">
        <ele>515.446</ele>
        <time>2020-05-13T09:54:49Z</time>
      </trkpt>
      <trkpt lat="42.88645" lon="-1.76627">
        <ele>515.423</ele>
        <time>2020-05-13T09:54:29Z</time>
      </trkpt>
      <trkpt lat="42.88645" lon="-1.76619">
        <ele>514.298</ele>
        <time>2020-05-13T09:54:09Z</time>
      </trkpt>
      <trkpt lat="42.88645" lon="-1.76611">
        <ele>514.208</ele>
        <time>2020-05-13T09:53:49Z</time>
      </trkpt>
      <trkpt lat="42.88646" lon="-1.76607">
        <ele>510.915</ele>
        <time>2020-05-13T09:53:29Z</time>
      </trkpt>
      <trkpt lat="42.88644" lon="-1.76601">
        <ele>510.905</ele>
        <time>2020-05-13T09:53:09Z</time>
      </trkpt>
      <trkpt lat="42.88641" lon="-1.76597">
        <ele>507.144</ele>
        <time>2020-05-13T09:52:49Z</time>
      </trkpt>
      <trkpt lat="42.88639" lon="-1.76592">
        <ele>504.582</ele>
        <time>2020-05-13T09:52:29Z</time>
      </trkpt>
      <trkpt lat="42.88635" lon="-1.76588">
        <ele>504.524</ele>
        <time>2020-05-13T09:52:09Z</time>
      </trkpt>
      <trkpt lat="42.8863" lon="-1.76583">
        <ele>498.186</ele>
        <time>2020-05-13T09:51:49Z</time>
      </trkpt>
      <trkpt lat="42.88627" lon="-1.76579">
        <ele>498.144</ele>
        <time>2020-05-13T09:51:29Z</time>
      </trkpt>
      <trkpt lat="42.88627" lon="-1.76575">
        <ele>498.168</ele>
        <time>2020-05-13T09:51:09Z</time>
      </trkpt>
      <trkpt lat="42.88627" lon="-1.76571">
        <ele>497.393</ele>
        <time>2020-05-13T09:50:49Z</time>
      </trkpt>
      <trkpt lat="42.88626" lon="-1.76569">
        <ele>497.31</ele>
        <time>2020-05-13T09:50:29Z</time>
      </trkpt>
      <trkpt lat="42.88626" lon="-1.76567">
        <ele>497.395</ele>
        <time>2020-05-13T09:50:09Z</time>
      </trkpt>
      <trkpt lat="42.88624" lon="-1.76563">
        <ele>497.308</ele>
        <time>2020-05-13T09:49:49Z</time>
      </trkpt>
      <trkpt lat="42.88622" lon="-1.76559">
        <ele>496.509</ele>
        <time>2020-05-13T09:49:29Z</time>
      </trkpt>
      <trkpt lat="42.88622" lon="-1.76557">
        <ele>496.554</ele>
        <time>2020-05-13T09:49:09Z</time>
      </trkpt>
      <trkpt lat="42.8862" lon="-1.76557">
        <ele>496.514</ele>
        <time>2020-05-13T09:48:49Z</time>
      </trkpt>
      <trkpt lat="42.88616" lon="-1.76558">
        <ele>496.599</ele>
        <time>2020-05-13T09:48:29Z</time>
      </trkpt>
      <trkpt lat="42.88613" lon="-1.76559">
        <ele>496.541</ele>
        <time>2020-05-13T09:48:09Z</time>
      </trkpt>
      <trkpt lat="42.88611" lon="-1.76559">
        <ele>496.583</ele>
        <time>2020-05-13T09:47:49Z</time>
      </trkpt>
      <trkpt lat="42.88608" lon="-1.76561">
        <ele>496.831</ele>
        <time>2020-05-13T09:47:29Z</time>
      </trkpt>
      <trkpt lat="42.88606" lon="-1.76563">
        <ele>496.895</ele>
        <time>2020-05-13T09:47:09Z</time>
      </trkpt>
      <trkpt lat="42.88604" lon="-1.76565">
        <ele>498.21</ele>
        <time>2020-05-13T09:46:49Z</time>
      </trkpt>
      <trkpt lat="42.88594" lon="-1.76581">
        <ele>499.737</ele>
        <time>2020-05-13T09:46:29Z</time>
      </trkpt>
      <trkpt lat="42.88584" lon="-1.76596">
        <ele>501.362</ele>
        <time>2020-05-13T09:46:09Z</time>
      </trkpt>
      <trkpt lat="42.88582" lon="-1.76598">
        <ele>501.308</ele>
        <time>2020-05-13T09:45:49Z</time>
      </trkpt>
      <trkpt lat="42.88581" lon="-1.76598">
        <ele>501.026</ele>
        <time>2020-05-13T09:45:29Z</time>
      </trkpt>
      <trkpt lat="42.88579" lon="-1.76599">
        <ele>501.006</ele>
        <time>2020-05-13T09:45:09Z</time>
      </trkpt>
      <trkpt lat="42.88578" lon="-1.76602">
        <ele>502.289</ele>
        <time>2020-05-13T09:44:49Z</time>
      </trkpt>
      <trkpt lat="42.88576" lon="-1.76605">
        <ele>502.264</ele>
        <time>2020-05-13T09:44:29Z</time>
      </trkpt>
      <trkpt lat="42.88564" lon="-1.76616">
        <ele>503.346</ele>
        <time>2020-05-13T09:44:09Z</time>
      </trkpt>
      <trkpt lat="42.8854" lon="-1.76636">
        <ele>506.558</ele>
        <time>2020-05-13T09:43:49Z</time>
      </trkpt>
      <trkpt lat="42.88532" lon="-1.7663">
        <ele>513.376</ele>
        <time>2020-05-13T09:43:29Z</time>
      </trkpt>
      <trkpt lat="42.88522" lon="-1.7662">
        <ele>518.87</ele>
        <time>2020-05-13T09:43:09Z</time>
      </trkpt>
      <trkpt lat="42.88511" lon="-1.76614">
        <ele>522.855</ele>
        <time>2020-05-13T09:42:49Z</time>
      </trkpt>
      <trkpt lat="42.88506" lon="-1.76612">
        <ele>525.042</ele>
        <time>2020-05-13T09:42:29Z</time>
      </trkpt>
      <trkpt lat="42.88495" lon="-1.76604">
        <ele>532.467</ele>
        <time>2020-05-13T09:42:09Z</time>
      </trkpt>
      <trkpt lat="42.88485" lon="-1.76596">
        <ele>537.208</ele>
        <time>2020-05-13T09:41:49Z</time>
      </trkpt>
      <trkpt lat="42.88475" lon="-1.76591">
        <ele>539.107</ele>
        <time>2020-05-13T09:41:29Z</time>
      </trkpt>
      <trkpt lat="42.88465" lon="-1.76586">
        <ele>543.461</ele>
        <time>2020-05-13T09:41:09Z</time>
      </trkpt>
      <trkpt lat="42.88451" lon="-1.76578">
        <ele>538.631</ele>
        <time>2020-05-13T09:40:49Z</time>
      </trkpt>
      <trkpt lat="42.88431" lon="-1.76566">
        <ele>535.18</ele>
        <time>2020-05-13T09:40:29Z</time>
      </trkpt>
      <trkpt lat="42.88422" lon="-1.76562">
        <ele>532.852</ele>
        <time>2020-05-13T09:40:09Z</time>
      </trkpt>
      <trkpt lat="42.88408" lon="-1.76554">
        <ele>529.594</ele>
        <time>2020-05-13T09:39:49Z</time>
      </trkpt>
      <trkpt lat="42.88397" lon="-1.76549">
        <ele>526.312</ele>
        <time>2020-05-13T09:39:29Z</time>
      </trkpt>
      <trkpt lat="42.88388" lon="-1.76544">
        <ele>524.716</ele>
        <time>2020-05-13T09:39:09Z</time>
      </trkpt>
      <trkpt lat="42.8838" lon="-1.76539">
        <ele>526.331</ele>
        <time>2020-05-13T09:38:49Z</time>
      </trkpt>
      <trkpt lat="42.88375" lon="-1.76536">
        <ele>523.548</ele>
        <time>2020-05-13T09:38:29Z</time>
      </trkpt>
      <trkpt lat="42.8835" lon="-1.76525">
        <ele>514.733</ele>
        <time>2020-05-13T09:38:09Z</time>
      </trkpt>
      <trkpt lat="42.8834" lon="-1.76519">
        <ele>511.908</ele>
        <time>2020-05-13T09:37:49Z</time>
      </trkpt>
      <trkpt lat="42.88327" lon="-1.76508">
        <ele>511.327</ele>
        <time>2020-05-13T09:37:29Z</time>
      </trkpt>
      <trkpt lat="42.88315" lon="-1.76497">
        <ele>510.107</ele>
        <time>2020-05-13T09:37:09Z</time>
      </trkpt>
      <trkpt lat="42.88309" lon="-1.76493">
        <ele>512.299</ele>
        <time>2020-05-13T09:36:49Z</time>
      </trkpt>
      <trkpt lat="42.88298" lon="-1.7648">
        <ele>510.584</ele>
        <time>2020-05-13T09:36:29Z</time>
      </trkpt>
      <trkpt lat="42.88294" lon="-1.76465">
        <ele>512.086</ele>
        <time>2020-05-13T09:36:09Z</time>
      </trkpt>
      <trkpt lat="42.8829" lon="-1.76452">
        <ele>512.218</ele>
        <time>2020-05-13T09:35:49Z</time>
      </trkpt>
      <trkpt lat="42.88289" lon="-1.76448">
        <ele>511.196</ele>
        <time>2020-05-13T09:35:29Z</time>
      </trkpt>
      <trkpt lat="42.88287" lon="-1.76447">
        <ele>511.18</ele>
        <time>2020-05-13T09:35:09Z</time>
      </trkpt>
      <trkpt lat="42.88284" lon="-1.76445">
        <ele>511.135</ele>
        <time>2020-05-13T09:34:49Z</time>
      </trkpt>
      <trkpt lat="42.88283" lon="-1.76442">
        <ele>511.292</ele>
        <time>2020-05-13T09:34:29Z</time>
      </trkpt>
      <trkpt lat="42.8828" lon="-1.76439">
        <ele>511.237</ele>
        <time>2020-05-13T09:34:09Z</time>
      </trkpt>
      <trkpt lat="42.88278" lon="-1.76437">
        <ele>510.208</ele>
        <time>2020-05-13T09:33:49Z</time>
      </trkpt>
      <trkpt lat="42.88275" lon="-1.76433">
        <ele>510.21</ele>
        <time>2020-05-13T09:33:29Z</time>
      </trkpt>
      <trkpt lat="42.88273" lon="-1.76432">
        <ele>510.355</ele>
        <time>2020-05-13T09:33:09Z</time>
      </trkpt>
      <trkpt lat="42.8827" lon="-1.7643">
        <ele>509.234</ele>
        <time>2020-05-13T09:32:49Z</time>
      </trkpt>
      <trkpt lat="42.88262" lon="-1.76423">
        <ele>509.213</ele>
        <time>2020-05-13T09:32:29Z</time>
      </trkpt>
      <trkpt lat="42.88255" lon="-1.76418">
        <ele>508.985</ele>
        <time>2020-05-13T09:32:09Z</time>
      </trkpt>
      <trkpt lat="42.88244" lon="-1.76404">
        <ele>508.527</ele>
        <time>2020-05-13T09:31:49Z</time>
      </trkpt>
      <trkpt lat="42.88237" lon="-1.76391">
        <ele>508.145</ele>
        <time>2020-05-13T09:31:29Z</time>
      </trkpt>
      <trkpt lat="42.88227" lon="-1.76371">
        <ele>508.949</ele>
        <time>2020-05-13T09:31:09Z</time>
      </trkpt>
      <trkpt lat="42.88221" lon="-1.76356">
        <ele>509.364</ele>
        <time>2020-05-13T09:30:49Z</time>
      </trkpt>
      <trkpt lat="42.88217" lon="-1.76339">
        <ele>510.391</ele>
        <time>2020-05-13T09:30:29Z</time>
      </trkpt>
      <trkpt lat="42.88215" lon="-1.76312">
        <ele>512.426</ele>
        <time>2020-05-13T09:30:09Z</time>
      </trkpt>
      <trkpt lat="42.88214" lon="-1.76298">
        <ele>514.608</ele>
        <time>2020-05-13T09:29:49Z</time>
      </trkpt>
      <trkpt lat="42.88212" lon="-1.76288">
        <ele>514.614</ele>
        <time>2020-05-13T09:29:29Z</time>
      </trkpt>
      <trkpt lat="42.88211" lon="-1.76288">
        <ele>514.604</ele>
        <time>2020-05-13T09:29:09Z</time>
      </trkpt>
      <trkpt lat="42.88203" lon="-1.76276">
        <ele>514.824</ele>
        <time>2020-05-13T09:28:49Z</time>
      </trkpt>
      <trkpt lat="42.88197" lon="-1.76264">
        <ele>514.55</ele>
        <time>2020-05-13T09:28:29Z</time>
      </trkpt>
      <trkpt lat="42.88192" lon="-1.76251">
        <ele>513.512</ele>
        <time>2020-05-13T09:28:09Z</time>
      </trkpt>
      <trkpt lat="42.88183" lon="-1.76212">
        <ele>513.614</ele>
        <time>2020-05-13T09:27:49Z</time>
      </trkpt>
      <trkpt lat="42.88176" lon="-1.76174">
        <ele>510.142</ele>
        <time>2020-05-13T09:27:29Z</time>
      </trkpt>
      <trkpt lat="42.88168" lon="-1.76127">
        <ele>510.296</ele>
        <time>2020-05-13T09:27:09Z</time>
      </trkpt>
      <trkpt lat="42.88162" lon="-1.76096">
        <ele>512.271</ele>
        <time>2020-05-13T09:26:49Z</time>
      </trkpt>
      <trkpt lat="42.88159" lon="-1.76074">
        <ele>515.298</ele>
        <time>2020-05-13T09:26:29Z</time>
      </trkpt>
      <trkpt lat="42.88156" lon="-1.76053">
        <ele>511.553</ele>
        <time>2020-05-13T09:26:09Z</time>
      </trkpt>
      <trkpt lat="42.88151" lon="-1.76023">
        <ele>515.408</ele>
        <time>2020-05-13T09:25:49Z</time>
      </trkpt>
      <trkpt lat="42.88146" lon="-1.75994">
        <ele>510.326</ele>
        <time>2020-05-13T09:25:29Z</time>
      </trkpt>
      <trkpt lat="42.88143" lon="-1.75961">
        <ele>510.315</ele>
        <time>2020-05-13T09:25:09Z</time>
      </trkpt>
      <trkpt lat="42.88134" lon="-1.75904">
        <ele>510.898</ele>
        <time>2020-05-13T09:24:49Z</time>
      </trkpt>
      <trkpt lat="42.88129" lon="-1.75875">
        <ele>511.22</ele>
        <time>2020-05-13T09:24:29Z</time>
      </trkpt>
      <trkpt lat="42.88125" lon="-1.75846">
        <ele>512.072</ele>
        <time>2020-05-13T09:24:09Z</time>
      </trkpt>
      <trkpt lat="42.88121" lon="-1.75825">
        <ele>512.854</ele>
        <time>2020-05-13T09:23:49Z</time>
      </trkpt>
      <trkpt lat="42.88118" lon="-1.75804">
        <ele>512.542</ele>
        <time>2020-05-13T09:23:29Z</time>
      </trkpt>
      <trkpt lat="42.88115" lon="-1.75778">
        <ele>515.766</ele>
        <time>2020-05-13T09:23:09Z</time>
      </trkpt>
      <trkpt lat="42.88113" lon="-1.75752">
        <ele>516.651</ele>
        <time>2020-05-13T09:22:49Z</time>
      </trkpt>
      <trkpt lat="42.88107" lon="-1.75712">
        <ele>516.738</ele>
        <time>2020-05-13T09:22:29Z</time>
      </trkpt>
      <trkpt lat="42.88104" lon="-1.75688">
        <ele>517.773</ele>
        <time>2020-05-13T09:22:09Z</time>
      </trkpt>
      <trkpt lat="42.881" lon="-1.75673">
        <ele>516.408</ele>
        <time>2020-05-13T09:21:49Z</time>
      </trkpt>
      <trkpt lat="42.88095" lon="-1.75659">
        <ele>516.825</ele>
        <time>2020-05-13T09:21:29Z</time>
      </trkpt>
      <trkpt lat="42.88092" lon="-1.75647">
        <ele>517.523</ele>
        <time>2020-05-13T09:21:09Z</time>
      </trkpt>
      <trkpt lat="42.88088" lon="-1.75636">
        <ele>517.097</ele>
        <time>2020-05-13T09:20:49Z</time>
      </trkpt>
      <trkpt lat="42.88082" lon="-1.75624">
        <ele>515.299</ele>
        <time>2020-05-13T09:20:29Z</time>
      </trkpt>
      <trkpt lat="42.88075" lon="-1.75612">
        <ele>516.971</ele>
        <time>2020-05-13T09:20:09Z</time>
      </trkpt>
      <trkpt lat="42.88064" lon="-1.75593">
        <ele>516.543</ele>
        <time>2020-05-13T09:19:49Z</time>
      </trkpt>
      <trkpt lat="42.88053" lon="-1.75574">
        <ele>516.191</ele>
        <time>2020-05-13T09:19:29Z</time>
      </trkpt>
      <trkpt lat="42.88045" lon="-1.75565">
        <ele>516.135</ele>
        <time>2020-05-13T09:19:09Z</time>
      </trkpt>
      <trkpt lat="42.88036" lon="-1.75556">
        <ele>516.16</ele>
        <time>2020-05-13T09:18:49Z</time>
      </trkpt>
      <trkpt lat="42.88028" lon="-1.75546">
        <ele>515.657</ele>
        <time>2020-05-13T09:18:29Z</time>
      </trkpt>
      <trkpt lat="42.8802" lon="-1.75536">
        <ele>515.322</ele>
        <time>2020-05-13T09:18:09Z</time>
      </trkpt>
      <trkpt lat="42.88009" lon="-1.75519">
        <ele>514.608</ele>
        <time>2020-05-13T09:17:49Z</time>
      </trkpt>
      <trkpt lat="42.87985" lon="-1.75485">
        <ele>514.417</ele>
        <time>2020-05-13T09:17:29Z</time>
      </trkpt>
      <trkpt lat="42.87963" lon="-1.75455">
        <ele>514.489</ele>
        <time>2020-05-13T09:17:09Z</time>
      </trkpt>
      <trkpt lat="42.87931" lon="-1.75412">
        <ele>514.385</ele>
        <time>2020-05-13T09:16:49Z</time>
      </trkpt>
      <trkpt lat="42.87907" lon="-1.75378">
        <ele>514.724</ele>
        <time>2020-05-13T09:16:29Z</time>
      </trkpt>
      <trkpt lat="42.87896" lon="-1.75363">
        <ele>514.866</ele>
        <time>2020-05-13T09:16:09Z</time>
      </trkpt>
      <trkpt lat="42.87885" lon="-1.75349">
        <ele>515.798</ele>
        <time>2020-05-13T09:15:49Z</time>
      </trkpt>
      <trkpt lat="42.87826" lon="-1.75268">
        <ele>518.696</ele>
        <time>2020-05-13T09:15:29Z</time>
      </trkpt>
      <trkpt lat="42.87792" lon="-1.75219">
        <ele>517.23</ele>
        <time>2020-05-13T09:15:09Z</time>
      </trkpt>
      <trkpt lat="42.87776" lon="-1.75188">
        <ele>516.845</ele>
        <time>2020-05-13T09:14:49Z</time>
      </trkpt>
      <trkpt lat="42.8775" lon="-1.7512">
        <ele>516.632</ele>
        <time>2020-05-13T09:14:29Z</time>
      </trkpt>
      <trkpt lat="42.87709" lon="-1.74998">
        <ele>519.537</ele>
        <time>2020-05-13T09:14:09Z</time>
      </trkpt>
      <trkpt lat="42.877" lon="-1.74976">
        <ele>520.508</ele>
        <time>2020-05-13T09:13:49Z</time>
      </trkpt>
      <trkpt lat="42.87696" lon="-1.74962">
        <ele>519.415</ele>
        <time>2020-05-13T09:13:29Z</time>
      </trkpt>
      <trkpt lat="42.87695" lon="-1.74958">
        <ele>519.423</ele>
        <time>2020-05-13T09:13:09Z</time>
      </trkpt>
      <trkpt lat="42.87695" lon="-1.74954">
        <ele>519.433</ele>
        <time>2020-05-13T09:12:49Z</time>
      </trkpt>
      <trkpt lat="42.87695" lon="-1.74954">
        <ele>519.476</ele>
        <time>2020-05-13T09:12:29Z</time>
      </trkpt>
      <trkpt lat="42.87584" lon="-1.74623">
        <ele>521.218</ele>
        <time>2020-05-13T09:12:09Z</time>
      </trkpt>
      <trkpt lat="42.87569" lon="-1.7458">
        <ele>518.59</ele>
        <time>2020-05-13T09:11:49Z</time>
      </trkpt>
      <trkpt lat="42.87555" lon="-1.74552">
        <ele>516.738</ele>
        <time>2020-05-13T09:11:29Z</time>
      </trkpt>
      <trkpt lat="42.87529" lon="-1.74481">
        <ele>515.042</ele>
        <time>2020-05-13T09:11:09Z</time>
      </trkpt>
      <trkpt lat="42.87503" lon="-1.74402">
        <ele>514.537</ele>
        <time>2020-05-13T09:10:49Z</time>
      </trkpt>
      <trkpt lat="42.87487" lon="-1.74357">
        <ele>513.624</ele>
        <time>2020-05-13T09:10:29Z</time>
      </trkpt>
      <trkpt lat="42.8748" lon="-1.74338">
        <ele>514.169</ele>
        <time>2020-05-13T09:10:09Z</time>
      </trkpt>
      <trkpt lat="42.87477" lon="-1.74327">
        <ele>513.108</ele>
        <time>2020-05-13T09:09:49Z</time>
      </trkpt>
      <trkpt lat="42.87476" lon="-1.74323">
        <ele>513.114</ele>
        <time>2020-05-13T09:09:29Z</time>
      </trkpt>
      <trkpt lat="42.87473" lon="-1.74317">
        <ele>510.759</ele>
        <time>2020-05-13T09:09:09Z</time>
      </trkpt>
      <trkpt lat="42.87469" lon="-1.74306">
        <ele>510.756</ele>
        <time>2020-05-13T09:08:49Z</time>
      </trkpt>
      <trkpt lat="42.87463" lon="-1.74308">
        <ele>510</ele>
      </trkpt>
      <trkpt lat="42.8745" lon="-1.74311">
        <ele>509.6</ele>
      </trkpt>
      <trkpt lat="42.87441" lon="-1.74303">
        <ele>509.2</ele>
      </trkpt>
      <trkpt lat="42.87439" lon="-1.74297">
        <ele>508.7</ele>
      </trkpt>
      <trkpt lat="42.8744" lon="-1.74284">
        <ele>508.6</ele>
      </trkpt>
      <trkpt lat="42.87448" lon="-1.74277">
        <ele>509.3</ele>
      </trkpt>
      <trkpt lat="42.87437" lon="-1.74243">
        <ele>508.9</ele>
      </trkpt>
      <trkpt lat="42.87309" lon="-1.73873">
        <ele>511.6</ele>
      </trkpt>
      <trkpt lat="42.87115" lon="-1.73301">
        <ele>513.5</ele>
      </trkpt>
      <trkpt lat="42.8706" lon="-1.7315">
        <ele>510.7</ele>
      </trkpt>
      <trkpt lat="42.87038" lon="-1.731">
        <ele>508</ele>
      </trkpt>
      <trkpt lat="42.86928" lon="-1.72875">
        <ele>489</ele>
      </trkpt>
      <trkpt lat="42.86903" lon="-1.72827">
        <ele>485.4</ele>
      </trkpt>
      <trkpt lat="42.86607" lon="-1.72227">
        <ele>457.2</ele>
      </trkpt>
      <trkpt lat="42.86385" lon="-1.71781">
        <ele>450</ele>
      </trkpt>
      <trkpt lat="42.85895" lon="-1.70792">
        <ele>439.2</ele>
      </trkpt>
      <trkpt lat="42.8584" lon="-1.70685">
        <ele>437.4</ele>
      </trkpt>
      <trkpt lat="42.8571" lon="-1.70418">
        <ele>448.1</ele>
      </trkpt>
      <trkpt lat="42.85395" lon="-1.69787">
        <ele>434.9</ele>
      </trkpt>
      <trkpt lat="42.85388" lon="-1.6979">
        <ele>435</ele>
      </trkpt>
      <trkpt lat="42.85383" lon="-1.6979">
        <ele>434.8</ele>
      </trkpt>
      <trkpt lat="42.85378" lon="-1.69786">
        <ele>434.6</ele>
      </trkpt>
      <trkpt lat="42.85374" lon="-1.6978">
        <ele>434.5</ele>
      </trkpt>
      <trkpt lat="42.85372" lon="-1.6977">
        <ele>434.2</ele>
      </trkpt>
      <trkpt lat="42.85374" lon="-1.69757">
        <ele>434.1</ele>
      </trkpt>
      <trkpt lat="42.85379" lon="-1.69752">
        <ele>434.3</ele>
      </trkpt>
      <trkpt lat="42.85389" lon="-1.69748">
        <ele>434.9</ele>
        <extensions>
          <visugpx:TrkExtension xmlns:visugpx="https://www.visugpx.com/editgpx/">
            <visugpx:node>3</visugpx:node>
            </visugpx:TrkExtension>
        </extensions>
      </trkpt>
      <trkpt lat="42.85379" lon="-1.69752">
        <ele>434.3</ele>
      </trkpt>
      <trkpt lat="42.85346" lon="-1.69683">
        <ele>432.4</ele>
      </trkpt>
      <trkpt lat="42.85281" lon="-1.69556">
        <ele>439.4</ele>
      </trkpt>
      <trkpt lat="42.85204" lon="-1.69399">
        <ele>447.6</ele>
      </trkpt>
      <trkpt lat="42.85133" lon="-1.69259">
        <ele>441.8</ele>
      </trkpt>
      <trkpt lat="42.85117" lon="-1.69231">
        <ele>440.4</ele>
      </trkpt>
      <trkpt lat="42.85066" lon="-1.69158">
        <ele>435.6</ele>
      </trkpt>
      <trkpt lat="42.84889" lon="-1.68926">
        <ele>431.7</ele>
      </trkpt>
      <trkpt lat="42.84864" lon="-1.68898">
        <ele>432</ele>
      </trkpt>
      <trkpt lat="42.84859" lon="-1.68904">
        <ele>432</ele>
      </trkpt>
      <trkpt lat="42.84849" lon="-1.68906">
        <ele>431.7</ele>
      </trkpt>
      <trkpt lat="42.84838" lon="-1.68904">
        <ele>431.5</ele>
      </trkpt>
      <trkpt lat="42.84828" lon="-1.68897">
        <ele>431.8</ele>
      </trkpt>
      <trkpt lat="42.84816" lon="-1.68883">
        <ele>431.9</ele>
      </trkpt>
      <trkpt lat="42.84808" lon="-1.68855">
        <ele>431.1</ele>
      </trkpt>
      <trkpt lat="42.84811" lon="-1.68842">
        <ele>431.1</ele>
      </trkpt>
      <trkpt lat="42.84817" lon="-1.68837">
        <ele>431.1</ele>
      </trkpt>
      <trkpt lat="42.84791" lon="-1.68795">
        <ele>431</ele>
      </trkpt>
      <trkpt lat="42.84567" lon="-1.68495">
        <ele>429.1</ele>
      </trkpt>
      <trkpt lat="42.84558" lon="-1.68502">
        <ele>429.1</ele>
      </trkpt>
      <trkpt lat="42.84553" lon="-1.68503">
        <ele>429.1</ele>
        <extensions>
          <visugpx:TrkExtension xmlns:visugpx="https://www.visugpx.com/editgpx/">
            <visugpx:node>4</visugpx:node>
            </visugpx:TrkExtension>
        </extensions>
      </trkpt>
      <trkpt lat="42.84543" lon="-1.685">
        <ele>429</ele>
      </trkpt>
      <trkpt lat="42.84537" lon="-1.68493">
        <ele>429</ele>
      </trkpt>
      <trkpt lat="42.84535" lon="-1.68484">
        <ele>429</ele>
      </trkpt>
      <trkpt lat="42.84535" lon="-1.68472">
        <ele>429</ele>
      </trkpt>
      <trkpt lat="42.84537" lon="-1.68463">
        <ele>429</ele>
      </trkpt>
      <trkpt lat="42.84526" lon="-1.68451">
        <ele>429</ele>
      </trkpt>
      <trkpt lat="42.84493" lon="-1.68408">
        <ele>427.8</ele>
      </trkpt>
      <trkpt lat="42.84456" lon="-1.68357">
        <ele>427.4</ele>
      </trkpt>
      <trkpt lat="42.84447" lon="-1.68364">
        <ele>427.1</ele>
      </trkpt>
      <trkpt lat="42.84437" lon="-1.68364">
        <ele>427</ele>
      </trkpt>
      <trkpt lat="42.84428" lon="-1.68359">
        <ele>427</ele>
      </trkpt>
      <trkpt lat="42.84422" lon="-1.68348">
        <ele>427.1</ele>
      </trkpt>
      <trkpt lat="42.8442" lon="-1.68331">
        <ele>427.1</ele>
      </trkpt>
      <trkpt lat="42.84421" lon="-1.68322">
        <ele>427.1</ele>
      </trkpt>
      <trkpt lat="42.84424" lon="-1.68314">
        <ele>427.1</ele>
      </trkpt>
      <trkpt lat="42.84328" lon="-1.68186">
        <ele>425.9</ele>
      </trkpt>
      <trkpt lat="42.84275" lon="-1.68119">
        <ele>425</ele>
      </trkpt>
      <trkpt lat="42.84255" lon="-1.68098">
        <ele>425.4</ele>
      </trkpt>
      <trkpt lat="42.84241" lon="-1.68086">
        <ele>425.9</ele>
      </trkpt>
      <trkpt lat="42.84236" lon="-1.68098">
        <ele>425.5</ele>
      </trkpt>
      <trkpt lat="42.84226" lon="-1.68108">
        <ele>425.1</ele>
      </trkpt>
      <trkpt lat="42.84215" lon="-1.6811">
        <ele>425.3</ele>
      </trkpt>
      <trkpt lat="42.842" lon="-1.68102">
        <ele>425.9</ele>
      </trkpt>
      <trkpt lat="42.84195" lon="-1.68093">
        <ele>426</ele>
      </trkpt>
      <trkpt lat="42.84192" lon="-1.68081">
        <ele>426</ele>
      </trkpt>
      <trkpt lat="42.84193" lon="-1.68066">
        <ele>426</ele>
      </trkpt>
      <trkpt lat="42.84196" lon="-1.68056">
        <ele>426</ele>
      </trkpt>
      <trkpt lat="42.84204" lon="-1.68047">
        <ele>426</ele>
      </trkpt>
      <trkpt lat="42.8421" lon="-1.68043">
        <ele>426</ele>
      </trkpt>
      <trkpt lat="42.84205" lon="-1.6803">
        <ele>426</ele>
      </trkpt>
      <trkpt lat="42.84181" lon="-1.67994">
        <ele>426</ele>
      </trkpt>
      <trkpt lat="42.84036" lon="-1.67802">
        <ele>426.7</ele>
      </trkpt>
      <trkpt lat="42.84027" lon="-1.6781">
        <ele>427</ele>
      </trkpt>
      <trkpt lat="42.84019" lon="-1.67811">
        <ele>426.7</ele>
      </trkpt>
      <trkpt lat="42.84009" lon="-1.67807">
        <ele>426.4</ele>
      </trkpt>
      <trkpt lat="42.84004" lon="-1.67802">
        <ele>426.3</ele>
      </trkpt>
      <trkpt lat="42.83998" lon="-1.67786">
        <ele>426.7</ele>
      </trkpt>
      <trkpt lat="42.83999" lon="-1.6777">
        <ele>427</ele>
      </trkpt>
      <trkpt lat="42.84003" lon="-1.67762">
        <ele>427</ele>
      </trkpt>
      <trkpt lat="42.83984" lon="-1.67734">
        <ele>427</ele>
      </trkpt>
      <trkpt lat="42.83884" lon="-1.67598">
        <ele>427</ele>
      </trkpt>
      <trkpt lat="42.83851" lon="-1.67557">
        <ele>427.3</ele>
      </trkpt>
      <trkpt lat="42.83732" lon="-1.67398">
        <ele>429</ele>
      </trkpt>
      <trkpt lat="42.83633" lon="-1.67271">
        <ele>428</ele>
      </trkpt>
      <trkpt lat="42.83631" lon="-1.67274">
        <ele>428</ele>
      </trkpt>
      <trkpt lat="42.83624" lon="-1.67274">
        <ele>428</ele>
      </trkpt>
      <trkpt lat="42.83621" lon="-1.6727">
        <ele>428</ele>
      </trkpt>
      <trkpt lat="42.8362" lon="-1.67265">
        <ele>428</ele>
      </trkpt>
      <trkpt lat="42.83623" lon="-1.67258">
        <ele>428</ele>
      </trkpt>
      <trkpt lat="42.83568" lon="-1.67187">
        <ele>428</ele>
        <extensions>
          <visugpx:TrkExtension xmlns:visugpx="https://www.visugpx.com/editgpx/">
            <visugpx:node>5</visugpx:node>
            </visugpx:TrkExtension>
        </extensions>
      </trkpt>
      <trkpt lat="42.83424" lon="-1.66994">
        <ele>428</ele>
      </trkpt>
      <trkpt lat="42.8339" lon="-1.66952">
        <ele>428</ele>
      </trkpt>
      <trkpt lat="42.8331" lon="-1.66846">
        <ele>427.2</ele>
      </trkpt>
      <trkpt lat="42.83271" lon="-1.66793">
        <ele>426.7</ele>
      </trkpt>
      <trkpt lat="42.83247" lon="-1.66757">
        <ele>427.1</ele>
      </trkpt>
      <trkpt lat="42.83241" lon="-1.66764">
        <ele>427.2</ele>
      </trkpt>
      <trkpt lat="42.83235" lon="-1.66768">
        <ele>427.2</ele>
      </trkpt>
      <trkpt lat="42.8323" lon="-1.66769">
        <ele>427.2</ele>
      </trkpt>
      <trkpt lat="42.83221" lon="-1.66767">
        <ele>427.3</ele>
      </trkpt>
      <trkpt lat="42.83215" lon="-1.66763">
        <ele>427.1</ele>
      </trkpt>
      <trkpt lat="42.83205" lon="-1.66745">
        <ele>426.4</ele>
      </trkpt>
      <trkpt lat="42.83204" lon="-1.66731">
        <ele>426.9</ele>
      </trkpt>
      <trkpt lat="42.83189" lon="-1.66706">
        <ele>426.8</ele>
      </trkpt>
      <trkpt lat="42.83037" lon="-1.66503">
        <ele>424.9</ele>
      </trkpt>
      <trkpt lat="42.82825" lon="-1.66224">
        <ele>418.1</ele>
      </trkpt>
      <trkpt lat="42.82809" lon="-1.66207">
        <ele>418</ele>
      </trkpt>
      <trkpt lat="42.82804" lon="-1.66208">
        <ele>418</ele>
      </trkpt>
      <trkpt lat="42.82794" lon="-1.66204">
        <ele>418</ele>
      </trkpt>
      <trkpt lat="42.82772" lon="-1.66176">
        <ele>418.5</ele>
      </trkpt>
      <trkpt lat="42.82745" lon="-1.66137">
        <ele>418</ele>
      </trkpt>
      <trkpt lat="42.82741" lon="-1.66126">
        <ele>418</ele>
      </trkpt>
      <trkpt lat="42.82742" lon="-1.66116">
        <ele>418</ele>
      </trkpt>
      <trkpt lat="42.82725" lon="-1.6609">
        <ele>417.3</ele>
      </trkpt>
      <trkpt lat="42.82679" lon="-1.66031">
        <ele>417.1</ele>
      </trkpt>
      <trkpt lat="42.82669" lon="-1.66014">
        <ele>417</ele>
      </trkpt>
      <trkpt lat="42.82664" lon="-1.65998">
        <ele>417</ele>
      </trkpt>
      <trkpt lat="42.82654" lon="-1.65981">
        <ele>417</ele>
      </trkpt>
      <trkpt lat="42.82614" lon="-1.65925">
        <ele>419.4</ele>
      </trkpt>
      <trkpt lat="42.82561" lon="-1.65856">
        <ele>418.2</ele>
      </trkpt>
      <trkpt lat="42.82543" lon="-1.65852">
        <ele>417.2</ele>
      </trkpt>
      <trkpt lat="42.82537" lon="-1.65849">
        <ele>416.9</ele>
      </trkpt>
      <trkpt lat="42.82533" lon="-1.65854">
        <ele>416.9</ele>
      </trkpt>
      <trkpt lat="42.82529" lon="-1.65856">
        <ele>416.9</ele>
      </trkpt>
      <trkpt lat="42.82521" lon="-1.65855">
        <ele>416.5</ele>
      </trkpt>
      <trkpt lat="42.82516" lon="-1.65852">
        <ele>416.2</ele>
      </trkpt>
      <trkpt lat="42.82503" lon="-1.65838">
        <ele>415.3</ele>
      </trkpt>
      <trkpt lat="42.82493" lon="-1.65821">
        <ele>414.9</ele>
      </trkpt>
      <trkpt lat="42.82492" lon="-1.65814">
        <ele>414.8</ele>
      </trkpt>
      <trkpt lat="42.82494" lon="-1.65802">
        <ele>414.6</ele>
      </trkpt>
      <trkpt lat="42.82494" lon="-1.65767">
        <ele>412.7</ele>
      </trkpt>
      <trkpt lat="42.82518" lon="-1.65697">
        <ele>413.6</ele>
      </trkpt>
      <trkpt lat="42.82507" lon="-1.6568">
        <ele>413.3</ele>
      </trkpt>
      <trkpt lat="42.82488" lon="-1.65626">
        <ele>411.8</ele>
      </trkpt>
      <trkpt lat="42.82478" lon="-1.65612">
        <ele>412.9</ele>
      </trkpt>
      <trkpt lat="42.82469" lon="-1.6559">
        <ele>412.4</ele>
      </trkpt>
      <trkpt lat="42.82465" lon="-1.65588">
        <ele>411.8</ele>
      </trkpt>
      <trkpt lat="42.82462" lon="-1.65584">
        <ele>411.5</ele>
      </trkpt>
      <trkpt lat="42.82459" lon="-1.65574">
        <ele>411.6</ele>
      </trkpt>
      <trkpt lat="42.82444" lon="-1.65558">
        <ele>411.7</ele>
      </trkpt>
      <trkpt lat="42.82435" lon="-1.6554">
        <ele>411.5</ele>
      </trkpt>
      <trkpt lat="42.82389" lon="-1.65473">
        <ele>411</ele>
      </trkpt>
      <trkpt lat="42.82381" lon="-1.65464">
        <ele>411</ele>
      </trkpt>
      <trkpt lat="42.82319" lon="-1.65414">
        <ele>411</ele>
      </trkpt>
      <trkpt lat="42.82297" lon="-1.654">
        <ele>411.3</ele>
      </trkpt>
      <trkpt lat="42.8229" lon="-1.65412">
        <ele>411.6</ele>
      </trkpt>
      <trkpt lat="42.82278" lon="-1.65418">
        <ele>412</ele>
      </trkpt>
      <trkpt lat="42.82267" lon="-1.65417">
        <ele>412</ele>
      </trkpt>
      <trkpt lat="42.82259" lon="-1.65412">
        <ele>412</ele>
      </trkpt>
      <trkpt lat="42.82252" lon="-1.65403">
        <ele>412</ele>
      </trkpt>
      <trkpt lat="42.8225" lon="-1.65397">
        <ele>412</ele>
      </trkpt>
      <trkpt lat="42.82249" lon="-1.65382">
        <ele>411.7</ele>
      </trkpt>
      <trkpt lat="42.82239" lon="-1.65367">
        <ele>411.1</ele>
      </trkpt>
      <trkpt lat="42.82232" lon="-1.65359">
        <ele>411</ele>
      </trkpt>
      <trkpt lat="42.82177" lon="-1.65309">
        <ele>410.9</ele>
      </trkpt>
      <trkpt lat="42.82151" lon="-1.65281">
        <ele>410.9</ele>
      </trkpt>
      <trkpt lat="42.82124" lon="-1.65247">
        <ele>411</ele>
      </trkpt>
      <trkpt lat="42.82104" lon="-1.65212">
        <ele>410.8</ele>
      </trkpt>
      <trkpt lat="42.8208" lon="-1.65157">
        <ele>410.7</ele>
      </trkpt>
      <trkpt lat="42.82073" lon="-1.65129">
        <ele>410.4</ele>
      </trkpt>
      <trkpt lat="42.8207" lon="-1.65107">
        <ele>411</ele>
      </trkpt>
      <trkpt lat="42.8207" lon="-1.65094">
        <ele>411</ele>
      </trkpt>
      <trkpt lat="42.82075" lon="-1.65054">
        <ele>411</ele>
      </trkpt>
      <trkpt lat="42.82063" lon="-1.65048">
        <ele>411.2</ele>
      </trkpt>
      <trkpt lat="42.82057" lon="-1.65043">
        <ele>411.4</ele>
      </trkpt>
      <trkpt lat="42.8205" lon="-1.65032">
        <ele>411.7</ele>
      </trkpt>
      <trkpt lat="42.82028" lon="-1.64988">
        <ele>411</ele>
      </trkpt>
      <trkpt lat="42.82026" lon="-1.6498">
        <ele>411</ele>
      </trkpt>
      <trkpt lat="42.82027" lon="-1.64974">
        <ele>411</ele>
      </trkpt>
      <trkpt lat="42.82031" lon="-1.64968">
        <ele>411</ele>
      </trkpt>
      <trkpt lat="42.8205" lon="-1.6495">
        <ele>411.6</ele>
      </trkpt>
      <trkpt lat="42.82034" lon="-1.64919">
        <ele>411</ele>
      </trkpt>
      <trkpt lat="42.82014" lon="-1.64904">
        <ele>410.5</ele>
      </trkpt>
      <trkpt lat="42.82011" lon="-1.64887">
        <ele>409.8</ele>
      </trkpt>
      <trkpt lat="42.81956" lon="-1.64858">
        <ele>414.9</ele>
      </trkpt>
      <trkpt lat="42.81957" lon="-1.64835">
        <ele>417.8</ele>
      </trkpt>
      <trkpt lat="42.8196" lon="-1.64818">
        <ele>419.2</ele>
      </trkpt>
      <trkpt lat="42.82013" lon="-1.64624">
        <ele>429.3</ele>
      </trkpt>
      <trkpt lat="42.82007" lon="-1.64613">
        <ele>430.2</ele>
      </trkpt>
      <trkpt lat="42.81945" lon="-1.6459">
        <ele>436.4</ele>
      </trkpt>
      <trkpt lat="42.81931" lon="-1.64582">
        <ele>437.3</ele>
      </trkpt>
      <trkpt lat="42.81901" lon="-1.6455">
        <ele>437.5</ele>
      </trkpt>
      <trkpt lat="42.81893" lon="-1.64539">
        <ele>438</ele>
      </trkpt>
      <trkpt lat="42.8187" lon="-1.64489">
        <ele>439.8</ele>
      </trkpt>
      <trkpt lat="42.81955" lon="-1.6442">
        <ele>441.1</ele>
      </trkpt>
      <trkpt lat="42.81951" lon="-1.64384">
        <ele>441.8</ele>
      </trkpt>
      <trkpt lat="42.81951" lon="-1.64347">
        <ele>443.5</ele>
      </trkpt>
      <trkpt lat="42.81957" lon="-1.64306">
        <ele>444.4</ele>
      </trkpt>
      <trkpt lat="42.81935" lon="-1.64298">
        <ele>443.6</ele>
      </trkpt>
      <trkpt lat="42.81958" lon="-1.64206">
        <ele>447.8</ele>
      </trkpt>
      <trkpt lat="42.81955" lon="-1.64193">
        <ele>448.1</ele>
      </trkpt>
      <trkpt lat="42.81941" lon="-1.64171">
        <ele>448.7</ele>
        <extensions>
          <visugpx:TrkExtension xmlns:visugpx="https://www.visugpx.com/editgpx/">
            <visugpx:node>6</visugpx:node>
            </visugpx:TrkExtension>
        </extensions>
      </trkpt>
      <trkpt lat="42.81947" lon="-1.64299">
        <ele>433.055</ele>
        <time>2021-07-05T14:09:03Z</time>
      </trkpt>
      <trkpt lat="42.81931" lon="-1.64284">
        <ele>433.01</ele>
        <time>2021-07-05T14:09:16Z</time>
      </trkpt>
      <trkpt lat="42.81884" lon="-1.6428">
        <ele>435.008</ele>
        <time>2021-07-05T14:09:32Z</time>
      </trkpt>
      <trkpt lat="42.81882" lon="-1.64266">
        <ele>460.05</ele>
        <time>2021-07-15T22:05:55Z</time>
      </trkpt>
      <trkpt lat="42.8185" lon="-1.64294">
        <ele>441.021</ele>
        <time>2021-07-06T07:13:04Z</time>
      </trkpt>
      <trkpt lat="42.81834" lon="-1.64349">
        <ele>440.077</ele>
        <time>2021-07-06T07:13:24Z</time>
      </trkpt>
      <trkpt lat="42.81848" lon="-1.64366">
        <ele>440.02</ele>
        <time>2021-07-06T07:13:31Z</time>
      </trkpt>
      <trkpt lat="42.81816" lon="-1.64437">
        <ele>450.016</ele>
        <time>2021-07-06T07:13:53Z</time>
      </trkpt>
      <trkpt lat="42.81831" lon="-1.64455">
        <ele>450.095</ele>
        <time>2021-07-06T07:13:58Z</time>
      </trkpt>
      <trkpt lat="42.81834" lon="-1.64527">
        <ele>448.093</ele>
        <time>2021-07-06T07:14:20Z</time>
      </trkpt>
      <trkpt lat="42.81739" lon="-1.64822">
        <ele>448.032</ele>
        <time>2021-07-06T07:15:39Z</time>
      </trkpt>
      <trkpt lat="42.8169" lon="-1.6494">
        <ele>447.031</ele>
        <time>2021-07-06T07:16:25Z</time>
      </trkpt>
      <trkpt lat="42.81457" lon="-1.65283">
        <ele>447.061</ele>
        <time>2021-07-06T07:18:12Z</time>
      </trkpt>
      <trkpt lat="42.81437" lon="-1.65296">
        <ele>447.007</ele>
        <time>2021-07-06T07:18:18Z</time>
      </trkpt>
      <trkpt lat="42.81414" lon="-1.65278">
        <ele>446.008</ele>
        <time>2021-07-06T07:18:30Z</time>
      </trkpt>
      <trkpt lat="42.81303" lon="-1.65399">
        <ele>443.03</ele>
        <time>2021-07-06T07:19:09Z</time>
      </trkpt>
      <trkpt lat="42.81243" lon="-1.65426">
        <ele>442.081</ele>
        <time>2021-07-06T07:19:29Z</time>
      </trkpt>
      <trkpt lat="42.81199" lon="-1.65423">
        <ele>444.057</ele>
        <time>2021-07-06T07:19:41Z</time>
      </trkpt>
      <trkpt lat="42.81164" lon="-1.65403">
        <ele>448.02</ele>
        <time>2021-07-06T07:19:52Z</time>
      </trkpt>
      <trkpt lat="42.81159" lon="-1.65417">
        <ele>447.096</ele>
        <time>2021-07-06T07:19:58Z</time>
      </trkpt>
      <trkpt lat="42.81024" lon="-1.65343">
        <ele>457.035</ele>
        <time>2021-07-06T07:20:40Z</time>
      </trkpt>
      <trkpt lat="42.80983" lon="-1.65292">
        <ele>455.063</ele>
        <time>2021-07-06T07:20:54Z</time>
      </trkpt>
      <trkpt lat="42.80923" lon="-1.65341">
        <ele>450.022</ele>
        <time>2021-07-06T07:21:47Z</time>
      </trkpt>
      <trkpt lat="42.80931" lon="-1.65375">
        <ele>448.069</ele>
        <time>2021-07-06T07:21:55Z</time>
      </trkpt>
      <trkpt lat="42.80912" lon="-1.65391">
        <ele>448.004</ele>
        <time>2021-07-06T07:22:03Z</time>
      </trkpt>
      <trkpt lat="42.80872" lon="-1.65396">
        <ele>448.024</ele>
        <time>2021-07-06T07:22:19Z</time>
      </trkpt>
      <trkpt lat="42.80694" lon="-1.65693">
        <ele>448.008</ele>
        <time>2021-07-06T07:23:23Z</time>
      </trkpt>
      <trkpt lat="42.80635" lon="-1.65822">
        <ele>450.093</ele>
        <time>2021-07-06T07:23:49Z</time>
      </trkpt>
      <trkpt lat="42.80467" lon="-1.66041">
        <ele>434.024</ele>
        <time>2021-07-06T07:24:34Z</time>
      </trkpt>
      <trkpt lat="42.80379" lon="-1.66104">
        <ele>427.07</ele>
        <time>2021-07-06T07:24:57Z</time>
      </trkpt>
      <trkpt lat="42.80218" lon="-1.66253">
        <ele>415.023</ele>
        <time>2021-07-06T07:25:34Z</time>
      </trkpt>
      <trkpt lat="42.80218" lon="-1.66285">
        <ele>414.029</ele>
        <time>2021-07-06T07:25:42Z</time>
      </trkpt>
      <trkpt lat="42.80167" lon="-1.66377">
        <ele>410.088</ele>
        <time>2021-07-06T07:25:59Z</time>
      </trkpt>
      <trkpt lat="42.80138" lon="-1.66516">
        <ele>409.056</ele>
        <time>2021-07-06T07:26:26Z</time>
      </trkpt>
      <trkpt lat="42.80047" lon="-1.66539">
        <ele>409.095</ele>
        <time>2021-07-06T07:28:48Z</time>
      </trkpt>
      <trkpt lat="42.79857" lon="-1.66647">
        <ele>409.019</ele>
        <time>2021-07-06T07:29:33Z</time>
      </trkpt>
      <trkpt lat="42.79795" lon="-1.66703">
        <ele>408.009</ele>
        <time>2021-07-06T07:29:53Z</time>
      </trkpt>
      <trkpt lat="42.79703" lon="-1.66844">
        <ele>409.019</ele>
        <time>2021-07-06T07:30:25Z</time>
      </trkpt>
      <trkpt lat="42.796" lon="-1.66933">
        <ele>412.008</ele>
        <time>2021-07-06T07:31:00Z</time>
      </trkpt>
      <trkpt lat="42.79514" lon="-1.67149">
        <ele>413.048</ele>
        <time>2021-07-06T07:32:16Z</time>
      </trkpt>
      <trkpt lat="42.79413" lon="-1.67277">
        <ele>416.049</ele>
        <time>2021-07-06T07:32:52Z</time>
      </trkpt>
      <trkpt lat="42.79401" lon="-1.67315">
        <ele>416.035</ele>
        <time>2021-07-06T07:33:02Z</time>
      </trkpt>
      <trkpt lat="42.79367" lon="-1.67311">
        <ele>417.058</ele>
        <time>2021-07-06T07:33:13Z</time>
      </trkpt>
      <trkpt lat="42.79224" lon="-1.67383">
        <ele>427.064</ele>
        <time>2021-07-06T07:34:09Z</time>
      </trkpt>
      <trkpt lat="42.79075" lon="-1.67478">
        <ele>439.073</ele>
        <time>2021-07-06T07:35:13Z</time>
      </trkpt>
      <trkpt lat="42.78973" lon="-1.67508">
        <ele>446.011</ele>
        <time>2021-07-06T07:35:46Z</time>
      </trkpt>
      <trkpt lat="42.78846" lon="-1.67521">
        <ele>462.01</ele>
        <time>2021-07-06T07:36:36Z</time>
      </trkpt>
      <trkpt lat="42.78782" lon="-1.67626">
        <ele>465.097</ele>
        <time>2021-07-06T07:37:16Z</time>
      </trkpt>
      <trkpt lat="42.78634" lon="-1.67715">
        <ele>456.023</ele>
        <time>2021-07-06T07:37:55Z</time>
      </trkpt>
      <trkpt lat="42.78595" lon="-1.67843">
        <ele>456.025</ele>
        <time>2021-07-06T07:38:30Z</time>
      </trkpt>
      <trkpt lat="42.78463" lon="-1.67973">
        <ele>444.008</ele>
        <time>2021-07-06T07:39:06Z</time>
      </trkpt>
      <trkpt lat="42.78413" lon="-1.68039">
        <ele>439.046</ele>
        <time>2021-07-06T07:44:37Z</time>
      </trkpt>
      <trkpt lat="42.78278" lon="-1.68142">
        <ele>433.077</ele>
        <time>2021-07-06T07:45:12Z</time>
      </trkpt>
      <trkpt lat="42.78196" lon="-1.6826">
        <ele>434.073</ele>
        <time>2021-07-06T07:45:40Z</time>
      </trkpt>
      <trkpt lat="42.78012" lon="-1.68591">
        <ele>436.066</ele>
        <time>2021-07-06T07:46:47Z</time>
      </trkpt>
      <trkpt lat="42.78013" lon="-1.68616">
        <ele>436.052</ele>
        <time>2021-07-06T07:46:52Z</time>
      </trkpt>
      <trkpt lat="42.77991" lon="-1.68623">
        <ele>436.011</ele>
        <time>2021-07-06T07:46:58Z</time>
      </trkpt>
      <trkpt lat="42.77836" lon="-1.68829">
        <ele>443.089</ele>
        <time>2021-07-06T07:47:55Z</time>
      </trkpt>
      <trkpt lat="42.77817" lon="-1.68979">
        <ele>444.028</ele>
        <time>2021-07-06T07:48:25Z</time>
      </trkpt>
      <trkpt lat="42.77556" lon="-1.69111">
        <ele>454.092</ele>
        <time>2021-07-06T07:50:50Z</time>
      </trkpt>
      <trkpt lat="42.77501" lon="-1.69158">
        <ele>461.073</ele>
        <time>2021-07-06T07:51:28Z</time>
      </trkpt>
      <trkpt lat="42.77324" lon="-1.69386">
        <ele>471.02</ele>
        <time>2021-07-06T07:53:41Z</time>
      </trkpt>
      <trkpt lat="42.77275" lon="-1.6942">
        <ele>474.008</ele>
        <time>2021-07-06T07:54:09Z</time>
      </trkpt>
      <trkpt lat="42.7721" lon="-1.69525">
        <ele>483.076</ele>
        <time>2021-07-06T07:55:07Z</time>
      </trkpt>
      <trkpt lat="42.77144" lon="-1.69673">
        <ele>493.067</ele>
        <time>2021-07-06T07:56:05Z</time>
      </trkpt>
      <trkpt lat="42.77117" lon="-1.69801">
        <ele>497.053</ele>
        <time>2021-07-06T07:56:42Z</time>
      </trkpt>
      <trkpt lat="42.77039" lon="-1.69929">
        <ele>492.046</ele>
        <time>2021-07-06T07:57:15Z</time>
      </trkpt>
      <trkpt lat="42.76889" lon="-1.70071">
        <ele>490.012</ele>
        <time>2021-07-06T07:58:02Z</time>
      </trkpt>
      <trkpt lat="42.76746" lon="-1.70156">
        <ele>493.031</ele>
        <time>2021-07-06T07:59:08Z</time>
      </trkpt>
      <trkpt lat="42.76678" lon="-1.70242">
        <ele>491.019</ele>
        <time>2021-07-06T07:59:33Z</time>
      </trkpt>
      <trkpt lat="42.76532" lon="-1.70514">
        <ele>486.088</ele>
        <time>2021-07-06T08:24:36Z</time>
      </trkpt>
      <trkpt lat="42.7648" lon="-1.70726">
        <ele>491.057</ele>
        <time>2021-07-06T08:25:22Z</time>
      </trkpt>
      <trkpt lat="42.76438" lon="-1.70803">
        <ele>495</ele>
        <time>2021-07-06T08:25:56Z</time>
      </trkpt>
      <trkpt lat="42.76316" lon="-1.7092">
        <ele>496.02</ele>
        <time>2021-07-06T08:26:59Z</time>
      </trkpt>
      <trkpt lat="42.76296" lon="-1.71002">
        <ele>498.008</ele>
        <time>2021-07-15T21:44:53Z</time>
      </trkpt>
      <trkpt lat="42.76447" lon="-1.71018">
        <ele>486.062</ele>
        <time>2021-07-15T21:44:57Z</time>
      </trkpt>
      <trkpt lat="42.76633" lon="-1.71112">
        <ele>480.063</ele>
        <time>2021-07-15T21:45:03Z</time>
      </trkpt>
      <trkpt lat="42.76689" lon="-1.71568">
        <ele>490.039</ele>
        <time>2021-07-15T21:45:04Z</time>
      </trkpt>
      <trkpt lat="42.7669" lon="-1.71663">
        <ele>491.062</ele>
        <time>2021-07-15T21:45:04Z</time>
      </trkpt>
      <trkpt lat="42.7674" lon="-1.72007">
        <ele>487.098</ele>
        <time>2021-07-15T21:45:26Z</time>
      </trkpt>
      <trkpt lat="42.76797" lon="-1.72077">
        <ele>492.017</ele>
        <time>2021-07-15T21:45:27Z</time>
      </trkpt>
      <trkpt lat="42.76771" lon="-1.72159">
        <ele>489.035</ele>
        <time>2021-07-15T21:45:27Z</time>
      </trkpt>
      <trkpt lat="42.76787" lon="-1.72213">
        <ele>489.044</ele>
        <time>2021-07-15T21:45:27Z</time>
      </trkpt>
      <trkpt lat="42.76778" lon="-1.72229">
        <ele>487.011</ele>
        <time>2021-07-15T21:45:27Z</time>
      </trkpt>
      <trkpt lat="42.76809" lon="-1.72255">
        <ele>482.021</ele>
        <time>2021-07-15T21:45:27Z</time>
      </trkpt>
      <trkpt lat="42.76807" lon="-1.72278">
        <ele>480.003</ele>
        <time>2021-07-15T21:45:27Z</time>
      </trkpt>
      <trkpt lat="42.76796" lon="-1.72306">
        <ele>480.008</ele>
        <time>2021-07-15T21:45:27Z</time>
      </trkpt>
      <trkpt lat="42.76546" lon="-1.7259">
        <ele>515.068</ele>
        <time>2021-07-15T21:45:35Z</time>
      </trkpt>
      <trkpt lat="42.76425" lon="-1.72794">
        <ele>523.079</ele>
        <time>2021-07-15T21:45:35Z</time>
      </trkpt>
      <trkpt lat="42.76354" lon="-1.72865">
        <ele>523.035</ele>
        <time>2021-07-15T21:45:35Z</time>
      </trkpt>
      <trkpt lat="42.76318" lon="-1.72946">
        <ele>523.048</ele>
        <time>2021-07-15T21:45:35Z</time>
      </trkpt>
      <trkpt lat="42.76214" lon="-1.73057">
        <ele>532.064</ele>
        <time>2021-07-15T21:45:35Z</time>
      </trkpt>
      <trkpt lat="42.75946" lon="-1.73266">
        <ele>524.023</ele>
        <time>2021-07-15T21:46:02Z</time>
      </trkpt>
      <trkpt lat="42.75862" lon="-1.73359">
        <ele>526.051</ele>
        <time>2021-07-15T21:46:02Z</time>
      </trkpt>
      <trkpt lat="42.7549" lon="-1.74078">
        <ele>516.06</ele>
        <time>2021-07-15T21:46:15Z</time>
      </trkpt>
      <trkpt lat="42.75117" lon="-1.74394">
        <ele>521.084</ele>
        <time>2021-07-06T08:56:55Z</time>
      </trkpt>
      <trkpt lat="42.75071" lon="-1.74489">
        <ele>527.007</ele>
        <time>2021-07-06T08:57:25Z</time>
      </trkpt>
      <trkpt lat="42.7503" lon="-1.74685">
        <ele>542.017</ele>
        <time>2021-07-06T08:58:43Z</time>
      </trkpt>
      <trkpt lat="42.74972" lon="-1.74802">
        <ele>546.008</ele>
        <time>2021-07-06T08:59:33Z</time>
      </trkpt>
      <trkpt lat="42.74912" lon="-1.74866">
        <ele>550.035</ele>
        <time>2021-07-06T09:00:05Z</time>
      </trkpt>
      <trkpt lat="42.74802" lon="-1.74924">
        <ele>554.076</ele>
        <time>2021-07-06T09:00:51Z</time>
      </trkpt>
      <trkpt lat="42.74756" lon="-1.75006">
        <ele>559.032</ele>
        <time>2021-07-06T09:01:24Z</time>
      </trkpt>
      <trkpt lat="42.74754" lon="-1.75166">
        <ele>566.075</ele>
        <time>2021-07-06T09:02:17Z</time>
      </trkpt>
      <trkpt lat="42.74804" lon="-1.75388">
        <ele>577.091</ele>
        <time>2021-07-06T09:03:37Z</time>
      </trkpt>
      <trkpt lat="42.748" lon="-1.7546">
        <ele>580.05</ele>
        <time>2021-07-06T09:04:01Z</time>
      </trkpt>
      <trkpt lat="42.74775" lon="-1.75544">
        <ele>585.068</ele>
        <time>2021-07-06T09:04:28Z</time>
      </trkpt>
      <trkpt lat="42.74661" lon="-1.75684">
        <ele>594.087</ele>
        <time>2021-07-06T09:05:35Z</time>
      </trkpt>
      <trkpt lat="42.74537" lon="-1.75714">
        <ele>605.093</ele>
        <time>2021-07-06T09:06:36Z</time>
      </trkpt>
      <trkpt lat="42.74499" lon="-1.75735">
        <ele>609.065</ele>
        <time>2021-07-06T09:06:57Z</time>
      </trkpt>
      <trkpt lat="42.74334" lon="-1.75933">
        <ele>628.021</ele>
        <time>2021-07-06T09:08:47Z</time>
      </trkpt>
      <trkpt lat="42.74299" lon="-1.76026">
        <ele>635.008</ele>
        <time>2021-07-06T09:09:23Z</time>
      </trkpt>
      <trkpt lat="42.74288" lon="-1.76168">
        <ele>645.026</ele>
        <time>2021-07-06T09:10:15Z</time>
      </trkpt>
      <trkpt lat="42.74255" lon="-1.76329">
        <ele>655.037</ele>
        <time>2021-07-06T09:11:09Z</time>
      </trkpt>
      <trkpt lat="42.74217" lon="-1.76408">
        <ele>661.013</ele>
        <time>2021-07-06T09:11:40Z</time>
      </trkpt>
      <trkpt lat="42.74151" lon="-1.76492">
        <ele>668.086</ele>
        <time>2021-07-06T09:12:21Z</time>
      </trkpt>
      <trkpt lat="42.74115" lon="-1.76518">
        <ele>672.032</ele>
        <time>2021-07-06T09:12:39Z</time>
      </trkpt>
      <trkpt lat="42.74062" lon="-1.76528">
        <ele>676.061</ele>
        <time>2021-07-06T09:12:59Z</time>
      </trkpt>
      <trkpt lat="42.73847" lon="-1.76489">
        <ele>663.089</ele>
        <time>2021-07-06T09:13:52Z</time>
      </trkpt>
      <trkpt lat="42.73655" lon="-1.76386">
        <ele>645.098</ele>
        <time>2021-07-06T09:14:19Z</time>
      </trkpt>
      <trkpt lat="42.73494" lon="-1.76343">
        <ele>631.036</ele>
        <time>2021-07-06T09:14:38Z</time>
      </trkpt>
      <trkpt lat="42.73381" lon="-1.76341">
        <ele>621.017</ele>
        <time>2021-07-06T09:14:51Z</time>
      </trkpt>
      <trkpt lat="42.73286" lon="-1.76348">
        <ele>613.018</ele>
        <time>2021-07-06T09:15:03Z</time>
      </trkpt>
      <trkpt lat="42.73211" lon="-1.76377">
        <ele>606.008</ele>
        <time>2021-07-06T09:15:15Z</time>
      </trkpt>
      <trkpt lat="42.73063" lon="-1.76519">
        <ele>590.01</ele>
        <time>2021-07-06T09:15:36Z</time>
      </trkpt>
      <trkpt lat="42.72874" lon="-1.76551">
        <ele>570.011</ele>
        <time>2021-07-15T21:46:52Z</time>
      </trkpt>
      <trkpt lat="42.72725" lon="-1.76476">
        <ele>557.027</ele>
        <time>2021-07-15T21:46:52Z</time>
      </trkpt>
      <trkpt lat="42.72656" lon="-1.76341">
        <ele>555.03</ele>
        <time>2021-07-15T21:46:53Z</time>
      </trkpt>
      <trkpt lat="42.7261" lon="-1.7635">
        <ele>553.016</ele>
        <time>2021-07-15T21:46:53Z</time>
      </trkpt>
      <trkpt lat="42.72563" lon="-1.7627">
        <ele>557.035</ele>
        <time>2021-07-15T21:46:53Z</time>
      </trkpt>
      <trkpt lat="42.72424" lon="-1.76176">
        <ele>528.093</ele>
        <time>2021-07-15T21:46:53Z</time>
      </trkpt>
      <trkpt lat="42.7238" lon="-1.762">
        <ele>514.092</ele>
        <time>2021-07-15T21:46:53Z</time>
      </trkpt>
      <trkpt lat="42.71942" lon="-1.76205">
        <ele>487.046</ele>
        <time>2021-07-15T21:47:03Z</time>
      </trkpt>
      <trkpt lat="42.7144" lon="-1.75871">
        <ele>479.088</ele>
        <time>2021-07-15T21:47:04Z</time>
      </trkpt>
      <trkpt lat="42.71282" lon="-1.75845">
        <ele>490.016</ele>
        <time>2021-07-15T21:47:04Z</time>
      </trkpt>
      <trkpt lat="42.71179" lon="-1.75874">
        <ele>495.008</ele>
        <time>2021-07-15T21:47:04Z</time>
      </trkpt>
      <trkpt lat="42.71083" lon="-1.75944">
        <ele>500.071</ele>
        <time>2021-07-15T21:47:24Z</time>
      </trkpt>
      <trkpt lat="42.70997" lon="-1.75956">
        <ele>504.062</ele>
        <time>2021-07-15T21:47:24Z</time>
      </trkpt>
      <trkpt lat="42.70899" lon="-1.76102">
        <ele>486.028</ele>
        <time>2021-07-15T21:47:24Z</time>
      </trkpt>
      <trkpt lat="42.70885" lon="-1.76102">
        <ele>486.051</ele>
        <time>2021-07-15T21:47:24Z</time>
      </trkpt>
      <trkpt lat="42.70838" lon="-1.76017">
        <ele>498.017</ele>
        <time>2021-07-15T21:47:25Z</time>
      </trkpt>
      <trkpt lat="42.70774" lon="-1.76077">
        <ele>486.086</ele>
        <time>2021-07-15T21:47:25Z</time>
      </trkpt>
      <trkpt lat="42.70599" lon="-1.76094">
        <ele>477.054</ele>
        <time>2021-07-15T21:47:26Z</time>
      </trkpt>
      <trkpt lat="42.70585" lon="-1.76085">
        <ele>474.033</ele>
        <time>2021-07-15T21:47:26Z</time>
      </trkpt>
      <trkpt lat="42.70573" lon="-1.76028">
        <ele>468.055</ele>
        <time>2021-07-15T21:47:32Z</time>
      </trkpt>
      <trkpt lat="42.70531" lon="-1.75956">
        <ele>463.007</ele>
        <time>2021-07-15T21:47:32Z</time>
      </trkpt>
      <trkpt lat="42.70463" lon="-1.76022">
        <ele>459.017</ele>
        <time>2021-07-15T21:47:32Z</time>
      </trkpt>
      <trkpt lat="42.70334" lon="-1.76045">
        <ele>476.008</ele>
        <time>2021-07-15T21:47:32Z</time>
      </trkpt>
      <trkpt lat="42.70229" lon="-1.7611">
        <ele>481.032</ele>
        <time>2021-07-15T21:47:37Z</time>
      </trkpt>
      <trkpt lat="42.70121" lon="-1.76145">
        <ele>486.043</ele>
        <time>2021-07-15T21:47:37Z</time>
      </trkpt>
      <trkpt lat="42.70012" lon="-1.76288">
        <ele>467.019</ele>
        <time>2021-07-15T21:47:37Z</time>
      </trkpt>
      <trkpt lat="42.699" lon="-1.76334">
        <ele>463.092</ele>
        <time>2021-07-15T21:47:37Z</time>
      </trkpt>
      <trkpt lat="42.69856" lon="-1.76368">
        <ele>466.088</ele>
        <time>2021-07-15T21:47:37Z</time>
      </trkpt>
      <trkpt lat="42.6977" lon="-1.76488">
        <ele>464.067</ele>
        <time>2021-07-15T21:47:37Z</time>
      </trkpt>
      <trkpt lat="42.69514" lon="-1.76762">
        <ele>452.075</ele>
        <time>2021-07-15T21:47:52Z</time>
      </trkpt>
      <trkpt lat="42.69474" lon="-1.76771">
        <ele>452.014</ele>
        <time>2021-07-15T21:47:52Z</time>
      </trkpt>
      <trkpt lat="42.69176" lon="-1.7693">
        <ele>458.012</ele>
        <time>2021-07-15T21:47:58Z</time>
      </trkpt>
      <trkpt lat="42.69066" lon="-1.77029">
        <ele>451.032</ele>
        <time>2021-07-15T21:48:26Z</time>
      </trkpt>
      <trkpt lat="42.69058" lon="-1.77059">
        <ele>451.005</ele>
        <time>2021-07-15T21:48:26Z</time>
      </trkpt>
      <trkpt lat="42.68795" lon="-1.7724">
        <ele>450.008</ele>
        <time>2021-07-15T21:48:41Z</time>
      </trkpt>
      <trkpt lat="42.68765" lon="-1.77317">
        <ele>436.088</ele>
        <time>2021-07-15T21:48:42Z</time>
      </trkpt>
      <trkpt lat="42.68668" lon="-1.77459">
        <ele>419.099</ele>
        <time>2021-07-15T21:48:44Z</time>
      </trkpt>
      <trkpt lat="42.68504" lon="-1.77615">
        <ele>412.055</ele>
        <time>2021-07-15T21:49:00Z</time>
      </trkpt>
      <trkpt lat="42.68267" lon="-1.78012">
        <ele>410.058</ele>
        <time>2021-07-15T21:49:07Z</time>
      </trkpt>
      <trkpt lat="42.68138" lon="-1.78162">
        <ele>411.074</ele>
        <time>2021-07-15T21:49:08Z</time>
      </trkpt>
      <trkpt lat="42.68121" lon="-1.78309">
        <ele>426.053</ele>
        <time>2021-07-15T21:49:08Z</time>
      </trkpt>
      <trkpt lat="42.68128" lon="-1.78432">
        <ele>428.021</ele>
        <time>2021-07-15T21:49:18Z</time>
      </trkpt>
      <trkpt lat="42.68009" lon="-1.785">
        <ele>418.09</ele>
        <time>2021-07-15T21:49:19Z</time>
      </trkpt>
      <trkpt lat="42.68019" lon="-1.78558">
        <ele>417.039</ele>
        <time>2021-07-15T21:49:19Z</time>
      </trkpt>
      <trkpt lat="42.67939" lon="-1.78604">
        <ele>411.001</ele>
        <time>2021-07-15T21:49:19Z</time>
      </trkpt>
      <trkpt lat="42.67933" lon="-1.78674">
        <ele>408.021</ele>
        <time>2021-07-15T21:49:20Z</time>
      </trkpt>
      <trkpt lat="42.67893" lon="-1.78728">
        <ele>406.008</ele>
        <time>2021-07-15T21:49:20Z</time>
      </trkpt>
      <trkpt lat="42.67908" lon="-1.78886">
        <ele>412.04</ele>
        <time>2021-07-15T21:49:38Z</time>
      </trkpt>
      <trkpt lat="42.67939" lon="-1.79021">
        <ele>407.051</ele>
        <time>2021-07-15T21:49:41Z</time>
      </trkpt>
      <trkpt lat="42.67934" lon="-1.79112">
        <ele>404.097</ele>
        <time>2021-07-15T21:49:41Z</time>
      </trkpt>
      <trkpt lat="42.67922" lon="-1.79168">
        <ele>404.02</ele>
        <time>2021-07-15T21:49:42Z</time>
      </trkpt>
      <trkpt lat="42.67844" lon="-1.7933">
        <ele>393.056</ele>
        <time>2021-07-15T21:49:42Z</time>
      </trkpt>
      <trkpt lat="42.67762" lon="-1.79854">
        <ele>363.035</ele>
        <time>2021-07-15T21:49:45Z</time>
      </trkpt>
      <trkpt lat="42.67687" lon="-1.80036">
        <ele>362.093</ele>
        <time>2021-07-15T21:49:51Z</time>
      </trkpt>
      <trkpt lat="42.67683" lon="-1.80087">
        <ele>357.092</ele>
        <time>2021-07-15T21:49:52Z</time>
      </trkpt>
      <trkpt lat="42.67707" lon="-1.80216">
        <ele>357.094</ele>
        <time>2021-07-15T21:49:52Z</time>
      </trkpt>
      <trkpt lat="42.67635" lon="-1.8065">
        <ele>357.057</ele>
        <time>2021-07-15T21:50:37Z</time>
      </trkpt>
      <trkpt lat="42.6757" lon="-1.80721">
        <ele>353.022</ele>
        <time>2021-07-15T21:50:38Z</time>
      </trkpt>
      <trkpt lat="42.67553" lon="-1.8077">
        <ele>353.008</ele>
        <time>2021-07-06T09:30:42Z</time>
      </trkpt>
      <trkpt lat="42.67364" lon="-1.81044">
        <ele>354.016</ele>
        <time>2021-07-06T09:32:20Z</time>
      </trkpt>
      <trkpt lat="42.67323" lon="-1.81034">
        <ele>352.017</ele>
        <time>2021-07-06T09:33:04Z</time>
      </trkpt>
      <trkpt lat="42.67311" lon="-1.81043">
        <ele>352.013</ele>
        <time>2021-07-06T09:33:11Z</time>
      </trkpt>
      <trkpt lat="42.67242" lon="-1.81287">
        <ele>345.096</ele>
        <time>2021-07-06T09:34:56Z</time>
      </trkpt>
      <trkpt lat="42.6716" lon="-1.81778">
        <ele>339.072</ele>
        <time>2021-07-06T10:38:31Z</time>
      </trkpt>
      <trkpt lat="42.67087" lon="-1.81937">
        <ele>329.061</ele>
        <time>2021-07-15T21:51:50Z</time>
      </trkpt>
      <trkpt lat="42.66982" lon="-1.81914">
        <ele>340.099</ele>
        <time>2021-07-15T21:51:50Z</time>
      </trkpt>
      <trkpt lat="42.6697" lon="-1.81926">
        <ele>342.068</ele>
        <time>2021-07-15T21:51:50Z</time>
      </trkpt>
      <trkpt lat="42.6683" lon="-1.82341">
        <ele>352.061</ele>
        <time>2021-07-15T21:52:10Z</time>
      </trkpt>
      <trkpt lat="42.66787" lon="-1.82638">
        <ele>349.021</ele>
        <time>2021-07-15T21:52:18Z</time>
      </trkpt>
      <trkpt lat="42.66807" lon="-1.82691">
        <ele>351.013</ele>
        <time>2021-07-15T21:52:18Z</time>
      </trkpt>
      <trkpt lat="42.66789" lon="-1.82724">
        <ele>350.008</ele>
        <time>2021-07-15T21:52:18Z</time>
      </trkpt>
      <trkpt lat="42.66869" lon="-1.82806">
        <ele>346.063</ele>
        <time>2021-07-15T21:52:19Z</time>
      </trkpt>
      <trkpt lat="42.66944" lon="-1.8283">
        <ele>348.064</ele>
        <time>2021-07-15T21:52:19Z</time>
      </trkpt>
      <trkpt lat="42.66994" lon="-1.82867">
        <ele>356.05</ele>
        <time>2021-07-15T21:52:19Z</time>
      </trkpt>
      <trkpt lat="42.67038" lon="-1.82939">
        <ele>364.033</ele>
        <time>2021-07-15T21:52:20Z</time>
      </trkpt>
      <trkpt lat="42.6704" lon="-1.82984">
        <ele>366.079</ele>
        <time>2021-07-15T21:52:20Z</time>
      </trkpt>
      <trkpt lat="42.66895" lon="-1.83083">
        <ele>390.078</ele>
        <time>2021-07-15T21:52:50Z</time>
      </trkpt>
      <trkpt lat="42.66819" lon="-1.83193">
        <ele>390.076</ele>
        <time>2021-07-15T21:52:50Z</time>
      </trkpt>
      <trkpt lat="42.66715" lon="-1.83437">
        <ele>393.075</ele>
        <time>2021-07-15T21:52:50Z</time>
      </trkpt>
      <trkpt lat="42.66682" lon="-1.83602">
        <ele>396.049</ele>
        <time>2021-07-15T21:52:51Z</time>
      </trkpt>
      <trkpt lat="42.667" lon="-1.83714">
        <ele>399.002</ele>
        <time>2021-07-15T21:52:51Z</time>
      </trkpt>
      <trkpt lat="42.6683" lon="-1.83916">
        <ele>408.022</ele>
        <time>2021-07-15T21:52:51Z</time>
      </trkpt>
      <trkpt lat="42.6685" lon="-1.83956">
        <ele>411.008</ele>
        <time>2021-07-15T21:52:51Z</time>
      </trkpt>
      <trkpt lat="42.66859" lon="-1.84039">
        <ele>417.051</ele>
        <time>2021-07-15T21:52:51Z</time>
      </trkpt>
      <trkpt lat="42.66782" lon="-1.84118">
        <ele>427.032</ele>
        <time>2021-07-15T21:52:51Z</time>
      </trkpt>
      <trkpt lat="42.66758" lon="-1.84188">
        <ele>431.028</ele>
        <time>2021-07-15T21:52:51Z</time>
      </trkpt>
      <trkpt lat="42.66773" lon="-1.84382">
        <ele>434.021</ele>
        <time>2021-07-15T21:52:51Z</time>
      </trkpt>
      <trkpt lat="42.66813" lon="-1.84476">
        <ele>439.027</ele>
        <time>2021-07-15T21:52:51Z</time>
      </trkpt>
      <trkpt lat="42.66905" lon="-1.84621">
        <ele>451.096</ele>
        <time>2021-07-15T21:53:02Z</time>
      </trkpt>
      <trkpt lat="42.66879" lon="-1.84673">
        <ele>464.084</ele>
        <time>2021-07-15T21:53:03Z</time>
      </trkpt>
      <trkpt lat="42.66794" lon="-1.84746">
        <ele>473.053</ele>
        <time>2021-07-15T21:53:03Z</time>
      </trkpt>
      <trkpt lat="42.66767" lon="-1.8481">
        <ele>461.055</ele>
        <time>2021-07-15T21:53:03Z</time>
      </trkpt>
      <trkpt lat="42.66828" lon="-1.85064">
        <ele>493.007</ele>
        <time>2021-07-15T21:53:03Z</time>
      </trkpt>
      <trkpt lat="42.66797" lon="-1.85342">
        <ele>480.017</ele>
        <time>2021-07-15T21:53:30Z</time>
      </trkpt>
      <trkpt lat="42.66814" lon="-1.85432">
        <ele>485.008</ele>
        <time>2021-07-15T21:53:31Z</time>
      </trkpt>
      <trkpt lat="42.66872" lon="-1.85564">
        <ele>477.082</ele>
        <time>2021-07-15T21:53:31Z</time>
      </trkpt>
      <trkpt lat="42.66851" lon="-1.85787">
        <ele>471.083</ele>
        <time>2021-07-15T21:53:31Z</time>
      </trkpt>
      <trkpt lat="42.66895" lon="-1.85853">
        <ele>468.069</ele>
        <time>2021-07-15T21:53:49Z</time>
      </trkpt>
      <trkpt lat="42.66928" lon="-1.8587">
        <ele>472.032</ele>
        <time>2021-07-15T21:53:49Z</time>
      </trkpt>
      <trkpt lat="42.66941" lon="-1.85917">
        <ele>473.088</ele>
        <time>2021-07-15T21:54:09Z</time>
      </trkpt>
      <trkpt lat="42.66925" lon="-1.85954">
        <ele>465.017</ele>
        <time>2021-07-15T21:54:09Z</time>
      </trkpt>
      <trkpt lat="42.66921" lon="-1.86125">
        <ele>454.095</ele>
        <time>2021-07-15T21:54:09Z</time>
      </trkpt>
      <trkpt lat="42.66893" lon="-1.86224">
        <ele>450.034</ele>
        <time>2021-07-15T21:54:09Z</time>
      </trkpt>
      <trkpt lat="42.66883" lon="-1.86375">
        <ele>447.015</ele>
        <time>2021-07-06T11:16:06Z</time>
      </trkpt>
      <trkpt lat="42.66869" lon="-1.86384">
        <ele>447.065</ele>
        <time>2021-07-06T11:16:13Z</time>
      </trkpt>
      <trkpt lat="42.66878" lon="-1.86541">
        <ele>446.011</ele>
        <time>2021-07-06T11:16:50Z</time>
      </trkpt>
      <trkpt lat="42.66905" lon="-1.86746">
        <ele>458.008</ele>
        <time>2021-07-06T11:17:38Z</time>
      </trkpt>
      <trkpt lat="42.66945" lon="-1.86902">
        <ele>454.068</ele>
        <time>2021-07-06T11:18:09Z</time>
      </trkpt>
      <trkpt lat="42.66935" lon="-1.87011">
        <ele>454.099</ele>
        <time>2021-07-06T11:18:32Z</time>
      </trkpt>
      <trkpt lat="42.66997" lon="-1.87154">
        <ele>451.015</ele>
        <time>2021-07-06T11:18:59Z</time>
      </trkpt>
      <trkpt lat="42.67027" lon="-1.87302">
        <ele>451.018</ele>
        <time>2021-07-06T11:19:27Z</time>
      </trkpt>
      <trkpt lat="42.67054" lon="-1.87344">
        <ele>450.044</ele>
        <time>2021-07-06T11:19:36Z</time>
      </trkpt>
      <trkpt lat="42.67121" lon="-1.87654">
        <ele>443.073</ele>
        <time>2021-07-06T11:20:35Z</time>
      </trkpt>
      <trkpt lat="42.67094" lon="-1.87801">
        <ele>442.011</ele>
        <time>2021-07-06T11:21:21Z</time>
      </trkpt>
      <trkpt lat="42.67117" lon="-1.87954">
        <ele>438.01</ele>
        <time>2021-07-06T11:21:44Z</time>
      </trkpt>
      <trkpt lat="42.67201" lon="-1.88102">
        <ele>440.044</ele>
        <time>2021-07-06T11:22:18Z</time>
      </trkpt>
      <trkpt lat="42.67412" lon="-1.88358">
        <ele>450.005</ele>
        <time>2021-07-06T11:23:34Z</time>
      </trkpt>
      <trkpt lat="42.67481" lon="-1.88532">
        <ele>463.015</ele>
        <time>2021-07-06T11:24:26Z</time>
      </trkpt>
      <trkpt lat="42.67571" lon="-1.88919">
        <ele>474.008</ele>
        <time>2021-07-06T11:26:47Z</time>
      </trkpt>
      <trkpt lat="42.67628" lon="-1.88957">
        <ele>470.061</ele>
        <time>2021-07-06T11:27:38Z</time>
      </trkpt>
      <trkpt lat="42.67678" lon="-1.8895">
        <ele>469.022</ele>
        <time>2021-07-06T11:27:50Z</time>
      </trkpt>
      <trkpt lat="42.67771" lon="-1.88964">
        <ele>469.048</ele>
        <time>2021-07-06T11:28:07Z</time>
      </trkpt>
      <trkpt lat="42.67818" lon="-1.89122">
        <ele>468.011</ele>
        <time>2021-07-06T11:28:26Z</time>
      </trkpt>
      <trkpt lat="42.6782" lon="-1.89216">
        <ele>464.097</ele>
        <time>2021-07-06T11:28:39Z</time>
      </trkpt>
      <trkpt lat="42.67775" lon="-1.89554">
        <ele>452.096</ele>
        <time>2021-07-06T11:29:26Z</time>
      </trkpt>
      <trkpt lat="42.67727" lon="-1.89575">
        <ele>453.074</ele>
        <time>2021-07-06T11:29:41Z</time>
      </trkpt>
      <trkpt lat="42.67716" lon="-1.89621">
        <ele>453.083</ele>
        <time>2021-07-06T11:29:58Z</time>
      </trkpt>
      <trkpt lat="42.67736" lon="-1.89657">
        <ele>453.034</ele>
        <time>2021-07-06T11:30:10Z</time>
      </trkpt>
      <trkpt lat="42.67812" lon="-1.89686">
        <ele>453.055</ele>
        <time>2021-07-06T11:30:33Z</time>
      </trkpt>
      <trkpt lat="42.67822" lon="-1.89705">
        <ele>458.01</ele>
        <time>2021-07-06T11:30:38Z</time>
      </trkpt>
      <trkpt lat="42.67781" lon="-1.89815">
        <ele>453.008</ele>
        <time>2021-07-06T11:30:56Z</time>
      </trkpt>
      <trkpt lat="42.67779" lon="-1.90044">
        <ele>456.02</ele>
        <time>2021-07-06T11:31:45Z</time>
      </trkpt>
      <trkpt lat="42.67818" lon="-1.90278">
        <ele>449.021</ele>
        <time>2021-07-06T11:32:20Z</time>
      </trkpt>
      <trkpt lat="42.67823" lon="-1.90413">
        <ele>438.067</ele>
        <time>2021-07-06T11:32:49Z</time>
      </trkpt>
      <trkpt lat="42.67849" lon="-1.90489">
        <ele>434.04</ele>
        <time>2021-07-06T11:33:09Z</time>
      </trkpt>
      <trkpt lat="42.67922" lon="-1.90618">
        <ele>424.046</ele>
        <time>2021-07-06T11:33:43Z</time>
      </trkpt>
      <trkpt lat="42.67904" lon="-1.9085">
        <ele>434.035</ele>
        <time>2021-07-06T11:36:09Z</time>
      </trkpt>
      <trkpt lat="42.67926" lon="-1.91071">
        <ele>443.073</ele>
        <time>2021-07-06T11:38:06Z</time>
      </trkpt>
      <trkpt lat="42.67912" lon="-1.91258">
        <ele>443.022</ele>
        <time>2021-07-06T11:38:47Z</time>
      </trkpt>
      <trkpt lat="42.67941" lon="-1.91308">
        <ele>439.013</ele>
        <time>2021-07-06T11:39:01Z</time>
      </trkpt>
      <trkpt lat="42.6798" lon="-1.91477">
        <ele>432.043</ele>
        <time>2021-07-06T11:41:38Z</time>
      </trkpt>
      <trkpt lat="42.68029" lon="-1.91606">
        <ele>431.007</ele>
        <time>2021-07-06T11:42:09Z</time>
      </trkpt>
      <trkpt lat="42.68039" lon="-1.91756">
        <ele>440.008</ele>
        <time>2021-07-06T11:43:05Z</time>
      </trkpt>
      <trkpt lat="42.6793" lon="-1.91793">
        <ele>434.028</ele>
        <time>2021-07-06T11:43:53Z</time>
      </trkpt>
      <trkpt lat="42.67926" lon="-1.9186">
        <ele>431.049</ele>
        <time>2021-07-06T11:44:03Z</time>
      </trkpt>
      <trkpt lat="42.67905" lon="-1.9192">
        <ele>426.085</ele>
        <time>2021-07-06T11:44:18Z</time>
      </trkpt>
      <trkpt lat="42.67884" lon="-1.91957">
        <ele>425.028</ele>
        <time>2021-07-06T11:44:28Z</time>
      </trkpt>
      <trkpt lat="42.67826" lon="-1.92004">
        <ele>413.014</ele>
        <time>2021-07-06T11:44:47Z</time>
      </trkpt>
      <trkpt lat="42.67821" lon="-1.92037">
        <ele>409.013</ele>
        <time>2021-07-06T11:44:55Z</time>
      </trkpt>
      <trkpt lat="42.67875" lon="-1.9213">
        <ele>400.071</ele>
        <time>2021-07-06T11:45:17Z</time>
      </trkpt>
      <trkpt lat="42.67886" lon="-1.92213">
        <ele>395.02</ele>
        <time>2021-07-06T11:50:22Z</time>
      </trkpt>
      <trkpt lat="42.67845" lon="-1.92226">
        <ele>395.053</ele>
        <time>2021-07-06T11:50:36Z</time>
      </trkpt>
      <trkpt lat="42.67749" lon="-1.92344">
        <ele>390.004</ele>
        <time>2021-07-06T11:51:08Z</time>
      </trkpt>
      <trkpt lat="42.67875" lon="-1.92539">
        <ele>386.014</ele>
        <time>2021-07-06T11:51:38Z</time>
      </trkpt>
      <trkpt lat="42.6792" lon="-1.92675">
        <ele>382.008</ele>
        <time>2021-07-06T11:51:54Z</time>
      </trkpt>
      <trkpt lat="42.67927" lon="-1.92825">
        <ele>381.012</ele>
        <time>2021-07-06T11:52:13Z</time>
      </trkpt>
      <trkpt lat="42.67887" lon="-1.93093">
        <ele>387.043</ele>
        <time>2021-07-06T11:53:12Z</time>
      </trkpt>
      <trkpt lat="42.68063" lon="-1.93295">
        <ele>387.059</ele>
        <time>2021-07-06T11:54:42Z</time>
      </trkpt>
      <trkpt lat="42.68076" lon="-1.93463">
        <ele>386.042</ele>
        <time>2021-07-06T11:55:15Z</time>
      </trkpt>
      <trkpt lat="42.68133" lon="-1.93608">
        <ele>386.068</ele>
        <time>2021-07-06T11:55:43Z</time>
      </trkpt>
      <trkpt lat="42.68093" lon="-1.93717">
        <ele>387.057</ele>
        <time>2021-07-06T11:56:29Z</time>
      </trkpt>
      <trkpt lat="42.67972" lon="-1.93763">
        <ele>397.095</ele>
        <time>2021-07-06T11:57:27Z</time>
      </trkpt>
      <trkpt lat="42.67887" lon="-1.93837">
        <ele>409.024</ele>
        <time>2021-07-06T11:58:16Z</time>
      </trkpt>
      <trkpt lat="42.67853" lon="-1.93845">
        <ele>412.088</ele>
        <time>2021-07-06T11:58:35Z</time>
      </trkpt>
      <trkpt lat="42.67832" lon="-1.93833">
        <ele>410.024</ele>
        <time>2021-07-06T11:58:43Z</time>
      </trkpt>
      <trkpt lat="42.67806" lon="-1.93868">
        <ele>415.026</ele>
        <time>2021-07-06T11:59:02Z</time>
      </trkpt>
      <trkpt lat="42.67775" lon="-1.93853">
        <ele>414.008</ele>
        <time>2021-07-06T11:59:14Z</time>
      </trkpt>
      <trkpt lat="42.6764" lon="-1.94007">
        <ele>413.025</ele>
        <time>2021-07-06T12:00:48Z</time>
      </trkpt>
      <trkpt lat="42.67552" lon="-1.94081">
        <ele>419.056</ele>
        <time>2021-07-06T12:01:32Z</time>
      </trkpt>
      <trkpt lat="42.67519" lon="-1.94183">
        <ele>430.022</ele>
        <time>2021-07-06T12:02:13Z</time>
      </trkpt>
      <trkpt lat="42.67483" lon="-1.94243">
        <ele>435.015</ele>
        <time>2021-07-06T12:02:43Z</time>
      </trkpt>
      <trkpt lat="42.67373" lon="-1.94345">
        <ele>456.061</ele>
        <time>2021-07-06T12:06:40Z</time>
      </trkpt>
      <trkpt lat="42.67128" lon="-1.94727">
        <ele>456.07</ele>
        <time>2021-07-06T12:10:05Z</time>
      </trkpt>
      <trkpt lat="42.67089" lon="-1.94851">
        <ele>459.058</ele>
        <time>2021-07-06T12:10:36Z</time>
      </trkpt>
      <trkpt lat="42.66987" lon="-1.95034">
        <ele>463.027</ele>
        <time>2021-07-06T12:12:06Z</time>
      </trkpt>
      <trkpt lat="42.66965" lon="-1.95045">
        <ele>469.085</ele>
        <time>2021-07-06T12:12:22Z</time>
      </trkpt>
      <trkpt lat="42.6693" lon="-1.95128">
        <ele>475.089</ele>
        <time>2021-07-06T12:13:43Z</time>
      </trkpt>
      <trkpt lat="42.66792" lon="-1.95526">
        <ele>481.017</ele>
        <time>2021-07-06T12:16:55Z</time>
      </trkpt>
      <trkpt lat="42.6666" lon="-1.96083">
        <ele>493.008</ele>
        <time>2021-07-06T12:22:30Z</time>
      </trkpt>
      <trkpt lat="42.66638" lon="-1.96096">
        <ele>493.015</ele>
        <time>2021-07-06T12:22:57Z</time>
      </trkpt>
      <trkpt lat="42.66597" lon="-1.96069">
        <ele>492.086</ele>
        <time>2021-07-06T12:23:14Z</time>
      </trkpt>
      <trkpt lat="42.66573" lon="-1.96088">
        <ele>491.082</ele>
        <time>2021-07-06T12:23:26Z</time>
      </trkpt>
      <trkpt lat="42.66457" lon="-1.96358">
        <ele>478.095</ele>
        <time>2021-07-06T12:25:59Z</time>
      </trkpt>
      <trkpt lat="42.66455" lon="-1.96432">
        <ele>476.011</ele>
        <time>2021-07-06T12:26:11Z</time>
      </trkpt>
      <trkpt lat="42.66472" lon="-1.9651">
        <ele>475.03</ele>
        <time>2021-07-06T12:26:24Z</time>
      </trkpt>
      <trkpt lat="42.66441" lon="-1.9691">
        <ele>463.098</ele>
        <time>2021-07-06T12:27:40Z</time>
      </trkpt>
      <trkpt lat="42.66392" lon="-1.9707">
        <ele>456.067</ele>
        <time>2021-07-06T12:28:05Z</time>
      </trkpt>
      <trkpt lat="42.66377" lon="-1.97533">
        <ele>443.015</ele>
        <time>2021-07-15T21:56:37Z</time>
      </trkpt>
      <trkpt lat="42.66369" lon="-1.97553">
        <ele>442.065</ele>
        <time>2021-07-15T21:56:38Z</time>
      </trkpt>
      <trkpt lat="42.66324" lon="-1.9755">
        <ele>447.011</ele>
        <time>2021-07-06T12:31:09Z</time>
      </trkpt>
      <trkpt lat="42.663" lon="-1.97631">
        <ele>444.008</ele>
        <time>2021-07-06T12:31:23Z</time>
      </trkpt>
      <trkpt lat="42.66373" lon="-1.9797">
        <ele>440.078</ele>
        <time>2021-07-06T12:32:08Z</time>
      </trkpt>
      <trkpt lat="42.6635" lon="-1.98131">
        <ele>436.089</ele>
        <time>2021-07-06T12:32:31Z</time>
      </trkpt>
      <trkpt lat="42.66358" lon="-1.98658">
        <ele>430.085</ele>
        <time>2021-07-06T12:34:06Z</time>
      </trkpt>
      <trkpt lat="42.66294" lon="-1.98749">
        <ele>429.028</ele>
        <time>2021-07-06T12:34:23Z</time>
      </trkpt>
      <trkpt lat="42.66224" lon="-1.98897">
        <ele>427.094</ele>
        <time>2021-07-06T12:34:48Z</time>
      </trkpt>
      <trkpt lat="42.66162" lon="-1.98971">
        <ele>427.043</ele>
        <time>2021-07-06T12:35:03Z</time>
      </trkpt>
      <trkpt lat="42.66125" lon="-1.98992">
        <ele>427.041</ele>
        <time>2021-07-06T12:35:12Z</time>
      </trkpt>
      <trkpt lat="42.66132" lon="-1.99058">
        <ele>427.06</ele>
        <time>2021-07-06T12:35:25Z</time>
      </trkpt>
      <trkpt lat="42.66049" lon="-1.99092">
        <ele>428.077</ele>
        <time>2021-07-06T12:35:45Z</time>
      </trkpt>
      <trkpt lat="42.66011" lon="-1.99134">
        <ele>424.061</ele>
        <time>2021-07-06T12:35:57Z</time>
      </trkpt>
      <trkpt lat="42.65946" lon="-1.99159">
        <ele>420.027</ele>
        <time>2021-07-06T12:36:15Z</time>
      </trkpt>
      <trkpt lat="42.6593" lon="-1.99208">
        <ele>423.008</ele>
        <time>2021-07-06T12:36:37Z</time>
      </trkpt>
      <trkpt lat="42.65897" lon="-1.99221">
        <ele>423.054</ele>
        <time>2021-07-06T12:36:52Z</time>
      </trkpt>
      <trkpt lat="42.65866" lon="-1.99263">
        <ele>425.015</ele>
        <time>2021-07-06T12:37:05Z</time>
      </trkpt>
      <trkpt lat="42.65821" lon="-1.99395">
        <ele>434.091</ele>
        <time>2021-07-06T12:37:49Z</time>
      </trkpt>
      <trkpt lat="42.65848" lon="-1.99465">
        <ele>444.094</ele>
        <time>2021-07-06T12:39:49Z</time>
      </trkpt>
      <trkpt lat="42.65931" lon="-1.99544">
        <ele>445.09</ele>
        <time>2021-07-06T12:40:21Z</time>
      </trkpt>
      <trkpt lat="42.65974" lon="-1.99629">
        <ele>445.029</ele>
        <time>2021-07-06T12:40:38Z</time>
      </trkpt>
      <trkpt lat="42.66062" lon="-1.99922">
        <ele>443.017</ele>
        <time>2021-07-06T12:41:44Z</time>
      </trkpt>
      <trkpt lat="42.66099" lon="-2.002">
        <ele>447.036</ele>
        <time>2021-07-06T12:42:50Z</time>
      </trkpt>
      <trkpt lat="42.66141" lon="-2.00295">
        <ele>451.086</ele>
        <time>2021-07-06T12:43:17Z</time>
      </trkpt>
      <trkpt lat="42.66124" lon="-2.00411">
        <ele>456.06</ele>
        <time>2021-07-06T12:43:46Z</time>
      </trkpt>
      <trkpt lat="42.66121" lon="-2.00581">
        <ele>445.026</ele>
        <time>2021-07-06T12:44:42Z</time>
      </trkpt>
      <trkpt lat="42.66151" lon="-2.0065">
        <ele>436.008</ele>
        <time>2021-07-06T12:45:04Z</time>
      </trkpt>
      <trkpt lat="42.6612" lon="-2.00676">
        <ele>434.025</ele>
        <time>2021-07-06T12:45:30Z</time>
      </trkpt>
      <trkpt lat="42.66116" lon="-2.00753">
        <ele>432.056</ele>
        <time>2021-07-06T12:45:52Z</time>
      </trkpt>
      <trkpt lat="42.65982" lon="-2.00829">
        <ele>417.042</ele>
        <time>2021-07-06T12:46:43Z</time>
      </trkpt>
      <trkpt lat="42.66033" lon="-2.00867">
        <ele>412.065</ele>
        <time>2021-07-06T12:47:01Z</time>
      </trkpt>
      <trkpt lat="42.66069" lon="-2.00923">
        <ele>408.051</ele>
        <time>2021-07-06T12:47:23Z</time>
      </trkpt>
      <trkpt lat="42.66076" lon="-2.01008">
        <ele>413.07</ele>
        <time>2021-07-06T12:47:45Z</time>
      </trkpt>
      <trkpt lat="42.66131" lon="-2.01125">
        <ele>426.058</ele>
        <time>2021-07-06T12:49:41Z</time>
      </trkpt>
      <trkpt lat="42.66228" lon="-2.01189">
        <ele>429.097</ele>
        <time>2021-07-06T12:50:24Z</time>
      </trkpt>
      <trkpt lat="42.66339" lon="-2.01346">
        <ele>430.033</ele>
        <time>2021-07-06T12:51:06Z</time>
      </trkpt>
      <trkpt lat="42.66332" lon="-2.01514">
        <ele>423.023</ele>
        <time>2021-07-06T12:51:35Z</time>
      </trkpt>
      <trkpt lat="42.66299" lon="-2.01625">
        <ele>421.015</ele>
        <time>2021-07-06T12:51:52Z</time>
      </trkpt>
      <trkpt lat="42.66292" lon="-2.01722">
        <ele>420.008</ele>
        <time>2021-07-06T12:52:05Z</time>
      </trkpt>
      <trkpt lat="42.66255" lon="-2.01811">
        <ele>420.02</ele>
        <time>2021-07-06T12:52:20Z</time>
      </trkpt>
      <trkpt lat="42.66258" lon="-2.01894">
        <ele>422.031</ele>
        <time>2021-07-06T12:52:35Z</time>
      </trkpt>
      <trkpt lat="42.66366" lon="-2.02123">
        <ele>426.027</ele>
        <time>2021-07-06T12:53:36Z</time>
      </trkpt>
      <trkpt lat="42.66485" lon="-2.02191">
        <ele>427.02</ele>
        <time>2021-07-06T12:54:03Z</time>
      </trkpt>
      <trkpt lat="42.66558" lon="-2.02189">
        <ele>424.096</ele>
        <time>2021-07-06T12:54:18Z</time>
      </trkpt>
      <trkpt lat="42.66701" lon="-2.02266">
        <ele>423.065</ele>
        <time>2021-07-06T12:54:49Z</time>
      </trkpt>
      <trkpt lat="42.66834" lon="-2.02318">
        <ele>419.083</ele>
        <time>2021-07-06T12:56:14Z</time>
      </trkpt>
      <trkpt lat="42.66884" lon="-2.02362">
        <ele>416.012</ele>
        <time>2021-07-15T21:58:47Z</time>
      </trkpt>
      <trkpt lat="42.66939" lon="-2.02382">
        <ele>421.045</ele>
        <time>2021-07-15T21:58:47Z</time>
      </trkpt>
      <trkpt lat="42.66976" lon="-2.02428">
        <ele>418.047</ele>
        <time>2021-07-15T21:58:48Z</time>
      </trkpt>
      <trkpt lat="42.66986" lon="-2.02666">
        <ele>421.011</ele>
        <time>2021-07-15T21:58:48Z</time>
      </trkpt>
      <trkpt lat="42.66977" lon="-2.02685">
        <ele>424.008</ele>
        <time>2021-07-15T21:58:54Z</time>
      </trkpt>
      <trkpt lat="42.66989" lon="-2.02724">
        <ele>421.071</ele>
        <time>2021-07-15T21:58:54Z</time>
      </trkpt>
      <trkpt lat="42.66942" lon="-2.02929">
        <ele>427.042</ele>
        <time>2021-07-15T21:58:55Z</time>
      </trkpt>
      <trkpt lat="42.6697" lon="-2.02975">
        <ele>419.028</ele>
        <time>2021-07-15T21:59:35Z</time>
      </trkpt>
      <trkpt lat="42.66825" lon="-2.03124">
        <ele>420.051</ele>
        <time>2021-07-07T07:18:47Z</time>
      </trkpt>
      <trkpt lat="42.66659" lon="-2.03213">
        <ele>420.077</ele>
        <time>2021-07-07T07:19:37Z</time>
      </trkpt>
      <trkpt lat="42.66555" lon="-2.03207">
        <ele>420.056</ele>
        <time>2021-07-07T07:20:09Z</time>
      </trkpt>
      <trkpt lat="42.66451" lon="-2.0323">
        <ele>420.084</ele>
        <time>2021-07-07T07:20:40Z</time>
      </trkpt>
      <trkpt lat="42.66427" lon="-2.03245">
        <ele>420.063</ele>
        <time>2021-07-07T07:20:48Z</time>
      </trkpt>
      <trkpt lat="42.66402" lon="-2.03291">
        <ele>420.075</ele>
        <time>2021-07-07T07:21:00Z</time>
      </trkpt>
      <trkpt lat="42.66322" lon="-2.03291">
        <ele>420.028</ele>
        <time>2021-07-07T07:21:25Z</time>
      </trkpt>
      <trkpt lat="42.6619" lon="-2.03352">
        <ele>420.02</ele>
        <time>2021-07-07T07:22:10Z</time>
      </trkpt>
      <trkpt lat="42.6617" lon="-2.03386">
        <ele>420.008</ele>
        <time>2021-07-07T07:22:21Z</time>
      </trkpt>
      <trkpt lat="42.66143" lon="-2.034">
        <ele>420.034</ele>
        <time>2021-07-07T07:22:30Z</time>
      </trkpt>
      <trkpt lat="42.66091" lon="-2.0341">
        <ele>420.075</ele>
        <time>2021-07-07T07:22:48Z</time>
      </trkpt>
      <trkpt lat="42.66062" lon="-2.03393">
        <ele>420.031</ele>
        <time>2021-07-07T07:23:01Z</time>
      </trkpt>
      <trkpt lat="42.65986" lon="-2.03423">
        <ele>420.034</ele>
        <time>2021-07-07T07:23:30Z</time>
      </trkpt>
      <trkpt lat="42.659" lon="-2.0357">
        <ele>420.04</ele>
        <time>2021-07-07T07:24:21Z</time>
      </trkpt>
      <trkpt lat="42.65564" lon="-2.03898">
        <ele>420.059</ele>
        <time>2021-07-07T07:26:25Z</time>
      </trkpt>
      <trkpt lat="42.65395" lon="-2.04157">
        <ele>462.047</ele>
        <time>2021-07-07T07:27:43Z</time>
      </trkpt>
      <trkpt lat="42.6534" lon="-2.0417">
        <ele>460.076</ele>
        <time>2021-07-07T07:29:17Z</time>
      </trkpt>
      <trkpt lat="42.65201" lon="-2.04251">
        <ele>460.012</ele>
        <time>2021-07-07T07:30:36Z</time>
      </trkpt>
      <trkpt lat="42.65152" lon="-2.04298">
        <ele>464.032</ele>
        <time>2021-07-07T07:31:43Z</time>
      </trkpt>
      <trkpt lat="42.6511" lon="-2.04366">
        <ele>464.005</ele>
        <time>2021-07-07T07:33:19Z</time>
      </trkpt>
      <trkpt lat="42.6509" lon="-2.04364">
        <ele>464.008</ele>
        <time>2021-07-07T07:34:51Z</time>
      </trkpt>
      <trkpt lat="42.65057" lon="-2.04385">
        <ele>464.038</ele>
        <time>2021-07-07T07:35:05Z</time>
      </trkpt>
      <trkpt lat="42.64998" lon="-2.04447">
        <ele>464.069</ele>
        <time>2021-07-07T07:35:35Z</time>
      </trkpt>
      <trkpt lat="42.64834" lon="-2.04721">
        <ele>464.015</ele>
        <time>2021-07-07T07:37:21Z</time>
      </trkpt>
      <trkpt lat="42.64745" lon="-2.04771">
        <ele>464.048</ele>
        <time>2021-07-07T07:38:06Z</time>
      </trkpt>
      <trkpt lat="42.6465" lon="-2.04785">
        <ele>464.044</ele>
        <time>2021-07-07T07:38:52Z</time>
      </trkpt>
      <trkpt lat="42.6463" lon="-2.04801">
        <ele>464.023</ele>
        <time>2021-07-07T07:39:03Z</time>
      </trkpt>
      <trkpt lat="42.64649" lon="-2.04855">
        <ele>464.021</ele>
        <time>2021-07-07T07:40:11Z</time>
      </trkpt>
      <trkpt lat="42.64712" lon="-2.05303">
        <ele>464.06</ele>
        <time>2021-07-07T07:41:49Z</time>
      </trkpt>
      <trkpt lat="42.64727" lon="-2.05329">
        <ele>464.016</ele>
        <time>2021-07-07T07:41:57Z</time>
      </trkpt>
      <trkpt lat="42.64697" lon="-2.05574">
        <ele>464.076</ele>
        <time>2021-07-07T07:43:00Z</time>
      </trkpt>
      <trkpt lat="42.64609" lon="-2.05777">
        <ele>464.013</ele>
        <time>2021-07-07T07:43:53Z</time>
      </trkpt>
      <trkpt lat="42.64492" lon="-2.06242">
        <ele>464.008</ele>
        <time>2021-07-07T07:45:40Z</time>
      </trkpt>
      <trkpt lat="42.64397" lon="-2.0646">
        <ele>464.018</ele>
        <time>2021-07-07T07:46:44Z</time>
      </trkpt>
      <trkpt lat="42.64276" lon="-2.06663">
        <ele>464.029</ele>
        <time>2021-07-07T07:47:50Z</time>
      </trkpt>
      <trkpt lat="42.64202" lon="-2.06848">
        <ele>464.095</ele>
        <time>2021-07-07T07:48:41Z</time>
      </trkpt>
      <trkpt lat="42.64188" lon="-2.0705">
        <ele>464.088</ele>
        <time>2021-07-07T07:49:33Z</time>
      </trkpt>
      <trkpt lat="42.64146" lon="-2.07169">
        <ele>464.014</ele>
        <time>2021-07-07T07:49:56Z</time>
      </trkpt>
      <trkpt lat="42.64093" lon="-2.07256">
        <ele>464.013</ele>
        <time>2021-07-07T07:50:32Z</time>
      </trkpt>
      <trkpt lat="42.64088" lon="-2.07319">
        <ele>464.071</ele>
        <time>2021-07-07T07:50:51Z</time>
      </trkpt>
      <trkpt lat="42.64073" lon="-2.07325">
        <ele>464.01</ele>
        <time>2021-07-07T07:50:59Z</time>
      </trkpt>
      <trkpt lat="42.64061" lon="-2.07304">
        <ele>464.074</ele>
        <time>2021-07-07T07:51:12Z</time>
      </trkpt>
      <trkpt lat="42.64015" lon="-2.07285">
        <ele>464.056</ele>
        <time>2021-07-07T07:51:36Z</time>
      </trkpt>
      <trkpt lat="42.63983" lon="-2.07288">
        <ele>464.021</ele>
        <time>2021-07-07T07:51:52Z</time>
      </trkpt>
      <trkpt lat="42.6393" lon="-2.07264">
        <ele>464.008</ele>
        <time>2021-07-07T07:53:03Z</time>
      </trkpt>
      <trkpt lat="42.63921" lon="-2.07274">
        <ele>464.024</ele>
        <time>2021-07-07T07:53:09Z</time>
      </trkpt>
      <trkpt lat="42.63896" lon="-2.07498">
        <ele>464.025</ele>
        <time>2021-07-07T07:55:33Z</time>
      </trkpt>
      <trkpt lat="42.6385" lon="-2.07588">
        <ele>464.011</ele>
        <time>2021-07-07T07:55:45Z</time>
      </trkpt>
      <trkpt lat="42.63799" lon="-2.078">
        <ele>464.024</ele>
        <time>2021-07-07T07:56:12Z</time>
      </trkpt>
      <trkpt lat="42.63805" lon="-2.079">
        <ele>464.04</ele>
        <time>2021-07-07T07:56:34Z</time>
      </trkpt>
      <trkpt lat="42.63784" lon="-2.08026">
        <ele>464.039</ele>
        <time>2021-07-07T07:57:04Z</time>
      </trkpt>
      <trkpt lat="42.63757" lon="-2.08055">
        <ele>464.087</ele>
        <time>2021-07-07T07:57:19Z</time>
      </trkpt>
      <trkpt lat="42.63793" lon="-2.08121">
        <ele>464.096</ele>
        <time>2021-07-07T07:57:48Z</time>
      </trkpt>
      <trkpt lat="42.63844" lon="-2.08162">
        <ele>464.017</ele>
        <time>2021-07-07T07:58:02Z</time>
      </trkpt>
      <trkpt lat="42.63872" lon="-2.08207">
        <ele>464.087</ele>
        <time>2021-07-07T07:58:11Z</time>
      </trkpt>
      <trkpt lat="42.63889" lon="-2.08274">
        <ele>464.015</ele>
        <time>2021-07-07T07:58:23Z</time>
      </trkpt>
      <trkpt lat="42.63871" lon="-2.08372">
        <ele>464.008</ele>
        <time>2021-07-07T07:58:51Z</time>
      </trkpt>
      <trkpt lat="42.63856" lon="-2.08374">
        <ele>464.078</ele>
        <time>2021-07-07T07:58:58Z</time>
      </trkpt>
      <trkpt lat="42.63785" lon="-2.08307">
        <ele>464.099</ele>
        <time>2021-07-07T07:59:41Z</time>
      </trkpt>
      <trkpt lat="42.63725" lon="-2.08322">
        <ele>464.045</ele>
        <time>2021-07-07T08:00:08Z</time>
      </trkpt>
      <trkpt lat="42.63651" lon="-2.08461">
        <ele>464.018</ele>
        <time>2021-07-07T08:00:51Z</time>
      </trkpt>
      <trkpt lat="42.63637" lon="-2.0854">
        <ele>464.074</ele>
        <time>2021-07-07T08:01:15Z</time>
      </trkpt>
      <trkpt lat="42.6358" lon="-2.08635">
        <ele>464.083</ele>
        <time>2021-07-07T08:01:51Z</time>
      </trkpt>
      <trkpt lat="42.63595" lon="-2.08717">
        <ele>464.021</ele>
        <time>2021-07-07T08:03:38Z</time>
      </trkpt>
      <trkpt lat="42.63579" lon="-2.0869">
        <ele>464.04</ele>
        <time>2021-07-07T08:04:04Z</time>
      </trkpt>
      <trkpt lat="42.63549" lon="-2.08722">
        <ele>464.099</ele>
        <time>2021-07-07T08:04:30Z</time>
      </trkpt>
      <trkpt lat="42.63471" lon="-2.0873">
        <ele>504.007</ele>
        <time>2021-07-07T08:04:48Z</time>
      </trkpt>
      <trkpt lat="42.63427" lon="-2.08778">
        <ele>540.027</ele>
        <time>2021-07-07T08:05:32Z</time>
      </trkpt>
      <trkpt lat="42.63432" lon="-2.08756">
        <ele>547.008</ele>
        <time>2021-07-07T08:05:41Z</time>
      </trkpt>
      <trkpt lat="42.63241" lon="-2.08912">
        <ele>548.056</ele>
        <time>2021-07-07T08:06:35Z</time>
      </trkpt>
      <trkpt lat="42.62999" lon="-2.09044">
        <ele>548.057</ele>
        <time>2021-07-07T08:07:28Z</time>
      </trkpt>
      <trkpt lat="42.62655" lon="-2.09604">
        <ele>548.083</ele>
        <time>2021-07-07T08:10:07Z</time>
      </trkpt>
      <trkpt lat="42.62597" lon="-2.09737">
        <ele>548.076</ele>
        <time>2021-07-07T08:10:39Z</time>
      </trkpt>
      <trkpt lat="42.62577" lon="-2.09842">
        <ele>548.082</ele>
        <time>2021-07-07T08:11:02Z</time>
      </trkpt>
      <trkpt lat="42.62534" lon="-2.09894">
        <ele>548.011</ele>
        <time>2021-07-07T08:11:18Z</time>
      </trkpt>
      <trkpt lat="42.62541" lon="-2.09931">
        <ele>548.049</ele>
        <time>2021-07-07T08:11:28Z</time>
      </trkpt>
      <trkpt lat="42.62656" lon="-2.10132">
        <ele>548.038</ele>
        <time>2021-07-07T08:14:25Z</time>
      </trkpt>
      <trkpt lat="42.62461" lon="-2.10274">
        <ele>606.018</ele>
        <time>2021-07-07T08:15:07Z</time>
      </trkpt>
      <trkpt lat="42.62245" lon="-2.10213">
        <ele>606.098</ele>
        <time>2021-07-07T08:15:43Z</time>
      </trkpt>
      <trkpt lat="42.62104" lon="-2.1023">
        <ele>606.017</ele>
        <time>2021-07-07T08:16:12Z</time>
      </trkpt>
      <trkpt lat="42.61943" lon="-2.10448">
        <ele>606.008</ele>
        <time>2021-07-07T08:16:51Z</time>
      </trkpt>
      <trkpt lat="42.61856" lon="-2.10754">
        <ele>606.088</ele>
        <time>2021-07-07T08:17:31Z</time>
      </trkpt>
      <trkpt lat="42.61702" lon="-2.11023">
        <ele>606.089</ele>
        <time>2021-07-07T08:18:10Z</time>
      </trkpt>
      <trkpt lat="42.61521" lon="-2.11262">
        <ele>606.055</ele>
        <time>2021-07-07T08:18:57Z</time>
      </trkpt>
      <trkpt lat="42.61412" lon="-2.11372">
        <ele>606.068</ele>
        <time>2021-07-07T08:19:30Z</time>
      </trkpt>
      <trkpt lat="42.6138" lon="-2.11374">
        <ele>606.044</ele>
        <time>2021-07-07T08:19:37Z</time>
      </trkpt>
      <trkpt lat="42.61295" lon="-2.11333">
        <ele>606.043</ele>
        <time>2021-07-07T08:19:52Z</time>
      </trkpt>
      <trkpt lat="42.61258" lon="-2.11333">
        <ele>606.011</ele>
        <time>2021-07-07T08:19:57Z</time>
      </trkpt>
      <trkpt lat="42.61095" lon="-2.11402">
        <ele>606.02</ele>
        <time>2021-07-07T08:20:30Z</time>
      </trkpt>
      <trkpt lat="42.60922" lon="-2.1145">
        <ele>606.019</ele>
        <time>2021-07-07T08:21:09Z</time>
      </trkpt>
      <trkpt lat="42.60815" lon="-2.11581">
        <ele>606.009</ele>
        <time>2021-07-07T08:21:43Z</time>
      </trkpt>
      <trkpt lat="42.60649" lon="-2.11597">
        <ele>606.019</ele>
        <time>2021-07-07T08:22:24Z</time>
      </trkpt>
      <trkpt lat="42.60504" lon="-2.11627">
        <ele>606.008</ele>
        <time>2021-07-07T08:22:47Z</time>
      </trkpt>
      <trkpt lat="42.60474" lon="-2.11649">
        <ele>606.068</ele>
        <time>2021-07-07T08:22:52Z</time>
      </trkpt>
      <trkpt lat="42.60442" lon="-2.11847">
        <ele>606.069</ele>
        <time>2021-07-07T08:23:21Z</time>
      </trkpt>
      <trkpt lat="42.60368" lon="-2.11961">
        <ele>606.035</ele>
        <time>2021-07-07T08:24:01Z</time>
      </trkpt>
      <trkpt lat="42.60352" lon="-2.12319">
        <ele>511.068</ele>
        <time>2021-07-07T08:25:09Z</time>
      </trkpt>
      <trkpt lat="42.60326" lon="-2.12418">
        <ele>511.034</ele>
        <time>2021-07-07T08:25:28Z</time>
      </trkpt>
      <trkpt lat="42.60307" lon="-2.12453">
        <ele>511.023</ele>
        <time>2021-07-07T08:25:34Z</time>
      </trkpt>
      <trkpt lat="42.60237" lon="-2.12482">
        <ele>515.061</ele>
        <time>2021-07-07T08:25:51Z</time>
      </trkpt>
      <trkpt lat="42.60166" lon="-2.12545">
        <ele>547.09</ele>
        <time>2021-07-07T08:26:04Z</time>
      </trkpt>
      <trkpt lat="42.60051" lon="-2.12676">
        <ele>568.064</ele>
        <time>2021-07-07T08:26:32Z</time>
      </trkpt>
      <trkpt lat="42.60004" lon="-2.13348">
        <ele>568.006</ele>
        <time>2021-07-07T08:28:10Z</time>
      </trkpt>
      <trkpt lat="42.59989" lon="-2.13387">
        <ele>568.016</ele>
        <time>2021-07-07T08:29:01Z</time>
      </trkpt>
      <trkpt lat="42.59991" lon="-2.13487">
        <ele>556.008</ele>
        <time>2021-07-07T08:29:40Z</time>
      </trkpt>
      <trkpt lat="42.59934" lon="-2.13978">
        <ele>508.073</ele>
        <time>2021-07-07T08:30:38Z</time>
      </trkpt>
      <trkpt lat="42.59821" lon="-2.14281">
        <ele>508.074</ele>
        <time>2021-07-07T08:31:24Z</time>
      </trkpt>
      <trkpt lat="42.59785" lon="-2.14448">
        <ele>508.02</ele>
        <time>2021-07-07T08:31:47Z</time>
      </trkpt>
      <trkpt lat="42.59647" lon="-2.14563">
        <ele>508.023</ele>
        <time>2021-07-07T08:33:33Z</time>
      </trkpt>
      <trkpt lat="42.5968" lon="-2.14692">
        <ele>508.059</ele>
        <time>2021-07-07T08:34:19Z</time>
      </trkpt>
      <trkpt lat="42.59687" lon="-2.14829">
        <ele>508.068</ele>
        <time>2021-07-07T08:34:41Z</time>
      </trkpt>
      <trkpt lat="42.59667" lon="-2.14894">
        <ele>508.066</ele>
        <time>2021-07-07T08:34:53Z</time>
      </trkpt>
      <trkpt lat="42.59671" lon="-2.15093">
        <ele>508.095</ele>
        <time>2021-07-07T08:35:32Z</time>
      </trkpt>
      <trkpt lat="42.59642" lon="-2.15154">
        <ele>508.077</ele>
        <time>2021-07-07T08:35:44Z</time>
      </trkpt>
      <trkpt lat="42.59618" lon="-2.15326">
        <ele>508.061</ele>
        <time>2021-07-07T08:36:31Z</time>
      </trkpt>
      <trkpt lat="42.59626" lon="-2.15623">
        <ele>508.027</ele>
        <time>2021-07-07T08:38:06Z</time>
      </trkpt>
      <trkpt lat="42.59608" lon="-2.15639">
        <ele>508.008</ele>
        <time>2021-07-07T08:38:13Z</time>
      </trkpt>
      <trkpt lat="42.59317" lon="-2.15669">
        <ele>508.064</ele>
        <time>2021-07-07T08:39:03Z</time>
      </trkpt>
      <trkpt lat="42.59305" lon="-2.15684">
        <ele>508.035</ele>
        <time>2021-07-07T08:39:07Z</time>
      </trkpt>
      <trkpt lat="42.59288" lon="-2.15904">
        <ele>508.051</ele>
        <time>2021-07-07T08:39:39Z</time>
      </trkpt>
      <trkpt lat="42.59301" lon="-2.16934">
        <ele>508.074</ele>
        <time>2021-07-07T08:42:26Z</time>
      </trkpt>
      <trkpt lat="42.59314" lon="-2.16975">
        <ele>508.08</ele>
        <time>2021-07-07T08:42:34Z</time>
      </trkpt>
      <trkpt lat="42.5936" lon="-2.16998">
        <ele>508.019</ele>
        <time>2021-07-07T08:42:47Z</time>
      </trkpt>
      <trkpt lat="42.59365" lon="-2.17059">
        <ele>508.087</ele>
        <time>2021-07-07T08:42:58Z</time>
      </trkpt>
      <trkpt lat="42.5935" lon="-2.1742">
        <ele>508.026</ele>
        <time>2021-07-07T08:44:00Z</time>
      </trkpt>
      <trkpt lat="42.59266" lon="-2.17699">
        <ele>508.012</ele>
        <time>2021-07-07T08:44:45Z</time>
      </trkpt>
      <trkpt lat="42.59216" lon="-2.17757">
        <ele>508.032</ele>
        <time>2021-07-07T08:45:01Z</time>
      </trkpt>
      <trkpt lat="42.59137" lon="-2.17779">
        <ele>508.005</ele>
        <time>2021-07-07T08:45:25Z</time>
      </trkpt>
      <trkpt lat="42.59089" lon="-2.17896">
        <ele>508.008</ele>
        <time>2021-07-07T08:45:51Z</time>
      </trkpt>
      <trkpt lat="42.59019" lon="-2.17959">
        <ele>508.018</ele>
        <time>2021-07-07T08:46:08Z</time>
      </trkpt>
      <trkpt lat="42.58947" lon="-2.18066">
        <ele>508.079</ele>
        <time>2021-07-07T08:46:36Z</time>
      </trkpt>
      <trkpt lat="42.58841" lon="-2.181">
        <ele>508.015</ele>
        <time>2021-07-07T08:47:07Z</time>
      </trkpt>
      <trkpt lat="42.58646" lon="-2.18203">
        <ele>508.098</ele>
        <time>2021-07-07T08:48:30Z</time>
      </trkpt>
      <trkpt lat="42.5851" lon="-2.18228">
        <ele>508.074</ele>
        <time>2021-07-07T08:49:01Z</time>
      </trkpt>
      <trkpt lat="42.58469" lon="-2.18252">
        <ele>508.033</ele>
        <time>2021-07-07T08:49:12Z</time>
      </trkpt>
      <trkpt lat="42.5844" lon="-2.18312">
        <ele>508.011</ele>
        <time>2021-07-07T08:49:25Z</time>
      </trkpt>
      <trkpt lat="42.5838" lon="-2.18354">
        <ele>508.02</ele>
        <time>2021-07-07T08:49:40Z</time>
      </trkpt>
      <trkpt lat="42.58341" lon="-2.18409">
        <ele>508.042</ele>
        <time>2021-07-07T08:49:52Z</time>
      </trkpt>
      <trkpt lat="42.58139" lon="-2.1873">
        <ele>508.022</ele>
        <time>2021-07-07T08:51:09Z</time>
      </trkpt>
      <trkpt lat="42.58088" lon="-2.18756">
        <ele>508.014</ele>
        <time>2021-07-07T08:51:33Z</time>
      </trkpt>
      <trkpt lat="42.57976" lon="-2.18855">
        <ele>508.008</ele>
        <time>2021-07-07T08:51:53Z</time>
      </trkpt>
      <trkpt lat="42.57923" lon="-2.18864">
        <ele>508.011</ele>
        <time>2021-07-07T08:52:01Z</time>
      </trkpt>
      <trkpt lat="42.57643" lon="-2.19029">
        <ele>508.072</ele>
        <time>2021-07-07T08:52:45Z</time>
      </trkpt>
      <trkpt lat="42.5738" lon="-2.19328">
        <ele>496.088</ele>
        <time>2021-07-07T08:53:55Z</time>
      </trkpt>
      <trkpt lat="42.57331" lon="-2.19345">
        <ele>464.061</ele>
        <time>2021-07-07T08:54:06Z</time>
      </trkpt>
      <trkpt lat="42.57204" lon="-2.19319">
        <ele>423.077</ele>
        <time>2021-07-07T08:54:34Z</time>
      </trkpt>
      <trkpt lat="42.56968" lon="-2.19187">
        <ele>423.086</ele>
        <time>2021-07-07T08:55:46Z</time>
      </trkpt>
      <trkpt lat="42.56921" lon="-2.19224">
        <ele>419.074</ele>
        <time>2021-07-07T08:56:12Z</time>
      </trkpt>
      <trkpt lat="42.56921" lon="-2.19248">
        <ele>415.043</ele>
        <time>2021-07-07T08:57:30Z</time>
      </trkpt>
      <trkpt lat="42.56925" lon="-2.1923">
        <ele>415.057</ele>
        <time>2021-07-07T08:57:58Z</time>
      </trkpt>
      <trkpt lat="42.56935" lon="-2.19249">
        <ele>415</ele>
        <time>2021-07-07T09:01:36Z</time>
      </trkpt>
      <trkpt lat="42.56912" lon="-2.19237">
        <ele>415.02</ele>
        <time>2021-07-07T09:24:20Z</time>
      </trkpt>
      <trkpt lat="42.5691" lon="-2.1925">
        <ele>414.008</ele>
        <time>2021-07-07T09:25:31Z</time>
      </trkpt>
      <trkpt lat="42.56917" lon="-2.19238">
        <ele>415.022</ele>
        <time>2021-07-07T09:25:51Z</time>
      </trkpt>
      <trkpt lat="42.5693" lon="-2.19259">
        <ele>415.023</ele>
        <time>2021-07-07T09:30:57Z</time>
      </trkpt>
      <trkpt lat="42.56912" lon="-2.19235">
        <ele>415.039</ele>
        <time>2021-07-07T09:53:41Z</time>
      </trkpt>
      <trkpt lat="42.56899" lon="-2.19254">
        <ele>415.082</ele>
        <time>2021-07-07T09:57:23Z</time>
      </trkpt>
      <trkpt lat="42.56908" lon="-2.1925">
        <ele>415.068</ele>
        <time>2021-07-07T10:00:29Z</time>
      </trkpt>
      <trkpt lat="42.56891" lon="-2.19341">
        <ele>414.017</ele>
        <time>2021-07-07T10:02:10Z</time>
      </trkpt>
      <trkpt lat="42.56841" lon="-2.19466">
        <ele>414.085</ele>
        <time>2021-07-07T10:02:40Z</time>
      </trkpt>
      <trkpt lat="42.5681" lon="-2.19645">
        <ele>405.044</ele>
        <time>2021-07-07T10:04:25Z</time>
      </trkpt>
      <trkpt lat="42.56727" lon="-2.19887">
        <ele>403.092</ele>
        <time>2021-07-07T10:09:53Z</time>
      </trkpt>
      <trkpt lat="42.56715" lon="-2.19961">
        <ele>403.073</ele>
        <time>2021-07-07T10:10:09Z</time>
      </trkpt>
      <trkpt lat="42.56614" lon="-2.2081">
        <ele>403.02</ele>
        <time>2021-07-07T10:12:09Z</time>
      </trkpt>
      <trkpt lat="42.56506" lon="-2.22321">
        <ele>403.008</ele>
        <time>2021-07-07T10:16:03Z</time>
      </trkpt>
      <trkpt lat="42.56255" lon="-2.23767">
        <ele>454.076</ele>
        <time>2021-07-08T23:42:36Z</time>
      </trkpt>
      <trkpt lat="42.56266" lon="-2.23787">
        <ele>403.097</ele>
        <time>2021-07-07T10:24:51Z</time>
      </trkpt>
      <trkpt lat="42.5636" lon="-2.23693">
        <ele>403.013</ele>
        <time>2021-07-07T10:25:31Z</time>
      </trkpt>
      <trkpt lat="42.56385" lon="-2.2423">
        <ele>403.046</ele>
        <time>2021-07-07T10:27:09Z</time>
      </trkpt>
      <trkpt lat="42.5635" lon="-2.24593">
        <ele>403.072</ele>
        <time>2021-07-07T10:28:10Z</time>
      </trkpt>
      <trkpt lat="42.56374" lon="-2.24787">
        <ele>403.031</ele>
        <time>2021-07-07T10:28:45Z</time>
      </trkpt>
      <trkpt lat="42.56433" lon="-2.2492">
        <ele>403.089</ele>
        <time>2021-07-07T10:29:03Z</time>
      </trkpt>
      <trkpt lat="42.56439" lon="-2.24963">
        <ele>403.068</ele>
        <time>2021-07-07T10:29:09Z</time>
      </trkpt>
      <trkpt lat="42.56409" lon="-2.25097">
        <ele>403.095</ele>
        <time>2021-07-07T10:29:32Z</time>
      </trkpt>
      <trkpt lat="42.56402" lon="-2.25242">
        <ele>403.049</ele>
        <time>2021-07-07T10:29:53Z</time>
      </trkpt>
      <trkpt lat="42.5636" lon="-2.25406">
        <ele>403.023</ele>
        <time>2021-07-07T10:30:14Z</time>
      </trkpt>
      <trkpt lat="42.56383" lon="-2.2549">
        <ele>403.008</ele>
        <time>2021-07-07T10:30:27Z</time>
      </trkpt>
      <trkpt lat="42.56345" lon="-2.25569">
        <ele>403.086</ele>
        <time>2021-07-07T10:30:59Z</time>
      </trkpt>
      <trkpt lat="42.5629" lon="-2.25627">
        <ele>403.077</ele>
        <time>2021-07-07T10:31:21Z</time>
      </trkpt>
      <trkpt lat="42.56296" lon="-2.2573">
        <ele>403.093</ele>
        <time>2021-07-07T10:31:57Z</time>
      </trkpt>
      <trkpt lat="42.56074" lon="-2.25931">
        <ele>403.026</ele>
        <time>2021-07-07T10:33:10Z</time>
      </trkpt>
      <trkpt lat="42.55968" lon="-2.26077">
        <ele>403.032</ele>
        <time>2021-07-07T10:33:42Z</time>
      </trkpt>
      <trkpt lat="42.55893" lon="-2.26204">
        <ele>403.091</ele>
        <time>2021-07-07T10:34:05Z</time>
      </trkpt>
      <trkpt lat="42.55753" lon="-2.26505">
        <ele>403.059</ele>
        <time>2021-07-07T10:35:05Z</time>
      </trkpt>
      <trkpt lat="42.55691" lon="-2.26492">
        <ele>403.038</ele>
        <time>2021-07-07T10:35:23Z</time>
      </trkpt>
      <trkpt lat="42.55647" lon="-2.265">
        <ele>403.034</ele>
        <time>2021-07-07T10:35:35Z</time>
      </trkpt>
      <trkpt lat="42.55546" lon="-2.26619">
        <ele>403.055</ele>
        <time>2021-07-07T10:36:13Z</time>
      </trkpt>
      <trkpt lat="42.55493" lon="-2.26645">
        <ele>403.01</ele>
        <time>2021-07-07T10:36:30Z</time>
      </trkpt>
      <trkpt lat="42.55435" lon="-2.26646">
        <ele>403.008</ele>
        <time>2021-07-07T10:36:49Z</time>
      </trkpt>
      <trkpt lat="42.55366" lon="-2.26591">
        <ele>403.05</ele>
        <time>2021-07-07T10:37:11Z</time>
      </trkpt>
      <trkpt lat="42.55304" lon="-2.26583">
        <ele>403.021</ele>
        <time>2021-07-07T10:37:24Z</time>
      </trkpt>
      <trkpt lat="42.55243" lon="-2.2665">
        <ele>403.087</ele>
        <time>2021-07-07T10:37:38Z</time>
      </trkpt>
      <trkpt lat="42.55229" lon="-2.26682">
        <ele>403.08</ele>
        <time>2021-07-07T10:37:44Z</time>
      </trkpt>
      <trkpt lat="42.55234" lon="-2.26713">
        <ele>403.056</ele>
        <time>2021-07-07T10:37:48Z</time>
      </trkpt>
      <trkpt lat="42.55424" lon="-2.26995">
        <ele>403.045</ele>
        <time>2021-07-07T10:38:25Z</time>
      </trkpt>
      <trkpt lat="42.5544" lon="-2.27066">
        <ele>403.053</ele>
        <time>2021-07-07T10:38:32Z</time>
      </trkpt>
      <trkpt lat="42.55426" lon="-2.27116">
        <ele>403.072</ele>
        <time>2021-07-07T10:38:37Z</time>
      </trkpt>
      <trkpt lat="42.55352" lon="-2.27249">
        <ele>403.082</ele>
        <time>2021-07-07T10:38:59Z</time>
      </trkpt>
      <trkpt lat="42.553" lon="-2.27234">
        <ele>425.043</ele>
        <time>2021-07-07T10:43:20Z</time>
      </trkpt>
      <trkpt lat="42.55338" lon="-2.27246">
        <ele>426.017</ele>
        <time>2021-07-07T10:44:30Z</time>
      </trkpt>
      <trkpt lat="42.55341" lon="-2.27259">
        <ele>426.008</ele>
        <time>2021-07-07T10:44:35Z</time>
      </trkpt>
      <trkpt lat="42.55295" lon="-2.27541">
        <ele>426.095</ele>
        <time>2021-07-07T10:45:43Z</time>
      </trkpt>
      <trkpt lat="42.55266" lon="-2.27638">
        <ele>426.036</ele>
        <time>2021-07-07T10:46:07Z</time>
      </trkpt>
      <trkpt lat="42.55193" lon="-2.27755">
        <ele>426.072</ele>
        <time>2021-07-07T10:46:43Z</time>
      </trkpt>
      <trkpt lat="42.55156" lon="-2.27886">
        <ele>426.085</ele>
        <time>2021-07-07T10:47:14Z</time>
      </trkpt>
      <trkpt lat="42.55157" lon="-2.28062">
        <ele>426.091</ele>
        <time>2021-07-07T10:47:55Z</time>
      </trkpt>
      <trkpt lat="42.55192" lon="-2.28204">
        <ele>426.04</ele>
        <time>2021-07-07T10:48:37Z</time>
      </trkpt>
      <trkpt lat="42.55156" lon="-2.28316">
        <ele>426.058</ele>
        <time>2021-07-07T10:49:14Z</time>
      </trkpt>
      <trkpt lat="42.5503" lon="-2.28491">
        <ele>426.057</ele>
        <time>2021-07-07T10:50:13Z</time>
      </trkpt>
      <trkpt lat="42.54934" lon="-2.28524">
        <ele>426.079</ele>
        <time>2021-07-07T10:50:34Z</time>
      </trkpt>
      <trkpt lat="42.54806" lon="-2.28509">
        <ele>426.005</ele>
        <time>2021-07-07T10:51:00Z</time>
      </trkpt>
      <trkpt lat="42.54781" lon="-2.28535">
        <ele>426.025</ele>
        <time>2021-07-07T10:51:06Z</time>
      </trkpt>
      <trkpt lat="42.54781" lon="-2.28698">
        <ele>426.008</ele>
        <time>2021-07-07T10:51:27Z</time>
      </trkpt>
      <trkpt lat="42.54817" lon="-2.28827">
        <ele>426.064</ele>
        <time>2021-07-07T10:51:44Z</time>
      </trkpt>
      <trkpt lat="42.54782" lon="-2.28936">
        <ele>426.025</ele>
        <time>2021-07-07T10:52:04Z</time>
      </trkpt>
      <trkpt lat="42.54774" lon="-2.2905">
        <ele>426.071</ele>
        <time>2021-07-07T10:52:23Z</time>
      </trkpt>
      <trkpt lat="42.54755" lon="-2.29079">
        <ele>426.064</ele>
        <time>2021-07-07T10:52:28Z</time>
      </trkpt>
      <trkpt lat="42.54723" lon="-2.29078">
        <ele>426.06</ele>
        <time>2021-07-07T10:52:34Z</time>
      </trkpt>
      <trkpt lat="42.54687" lon="-2.29042">
        <ele>426.019</ele>
        <time>2021-07-07T10:52:46Z</time>
      </trkpt>
      <trkpt lat="42.54512" lon="-2.28835">
        <ele>426.017</ele>
        <time>2021-07-07T10:53:53Z</time>
      </trkpt>
      <trkpt lat="42.54486" lon="-2.2884">
        <ele>426.056</ele>
        <time>2021-07-07T10:54:05Z</time>
      </trkpt>
      <trkpt lat="42.54441" lon="-2.29176">
        <ele>426.097</ele>
        <time>2021-07-07T10:55:46Z</time>
      </trkpt>
      <trkpt lat="42.54161" lon="-2.29728">
        <ele>426.023</ele>
        <time>2021-07-07T10:58:04Z</time>
      </trkpt>
      <trkpt lat="42.54168" lon="-2.29808">
        <ele>426.025</ele>
        <time>2021-07-07T10:58:13Z</time>
      </trkpt>
      <trkpt lat="42.5425" lon="-2.29936">
        <ele>426.008</ele>
        <time>2021-07-07T10:58:26Z</time>
      </trkpt>
      <trkpt lat="42.5425" lon="-2.29988">
        <ele>426.096</ele>
        <time>2021-07-07T10:58:30Z</time>
      </trkpt>
      <trkpt lat="42.54213" lon="-2.30013">
        <ele>426.097</ele>
        <time>2021-07-07T10:58:34Z</time>
      </trkpt>
      <trkpt lat="42.54038" lon="-2.30005">
        <ele>426.053</ele>
        <time>2021-07-07T10:59:11Z</time>
      </trkpt>
      <trkpt lat="42.54014" lon="-2.30061">
        <ele>426.036</ele>
        <time>2021-07-07T10:59:20Z</time>
      </trkpt>
      <trkpt lat="42.54039" lon="-2.30185">
        <ele>426.042</ele>
        <time>2021-07-07T10:59:32Z</time>
      </trkpt>
      <trkpt lat="42.5402" lon="-2.30235">
        <ele>426.051</ele>
        <time>2021-07-07T10:59:37Z</time>
      </trkpt>
      <trkpt lat="42.53944" lon="-2.3023">
        <ele>426.019</ele>
        <time>2021-07-07T10:59:54Z</time>
      </trkpt>
      <trkpt lat="42.53885" lon="-2.3016">
        <ele>426.078</ele>
        <time>2021-07-07T11:00:19Z</time>
      </trkpt>
      <trkpt lat="42.5382" lon="-2.30163">
        <ele>426.063</ele>
        <time>2021-07-07T11:00:42Z</time>
      </trkpt>
      <trkpt lat="42.53792" lon="-2.30191">
        <ele>426.044</ele>
        <time>2021-07-07T11:00:54Z</time>
      </trkpt>
      <trkpt lat="42.53751" lon="-2.30309">
        <ele>426.018</ele>
        <time>2021-07-07T11:01:26Z</time>
      </trkpt>
      <trkpt lat="42.53654" lon="-2.30381">
        <ele>426.008</ele>
        <time>2021-07-07T11:01:59Z</time>
      </trkpt>
      <trkpt lat="42.53622" lon="-2.30712">
        <ele>426.033</ele>
        <time>2021-07-07T11:02:44Z</time>
      </trkpt>
      <trkpt lat="42.53489" lon="-2.31095">
        <ele>426.034</ele>
        <time>2021-07-07T11:03:36Z</time>
      </trkpt>
      <trkpt lat="42.53471" lon="-2.31191">
        <ele>426.04</ele>
        <time>2021-07-07T11:03:44Z</time>
      </trkpt>
      <trkpt lat="42.53487" lon="-2.31264">
        <ele>426.053</ele>
        <time>2021-07-07T11:03:50Z</time>
      </trkpt>
      <trkpt lat="42.53585" lon="-2.31439">
        <ele>426.089</ele>
        <time>2021-07-07T11:04:08Z</time>
      </trkpt>
      <trkpt lat="42.53585" lon="-2.31477">
        <ele>426.048</ele>
        <time>2021-07-07T11:04:12Z</time>
      </trkpt>
      <trkpt lat="42.53505" lon="-2.31502">
        <ele>426.056</ele>
        <time>2021-07-07T11:04:21Z</time>
      </trkpt>
      <trkpt lat="42.53485" lon="-2.31499">
        <ele>426.095</ele>
        <time>2021-07-07T11:04:23Z</time>
      </trkpt>
      <trkpt lat="42.53424" lon="-2.31437">
        <ele>426.056</ele>
        <time>2021-07-07T11:04:31Z</time>
      </trkpt>
      <trkpt lat="42.53398" lon="-2.31456">
        <ele>426.059</ele>
        <time>2021-07-07T11:04:35Z</time>
      </trkpt>
      <trkpt lat="42.5341" lon="-2.31542">
        <ele>426.014</ele>
        <time>2021-07-07T11:04:42Z</time>
      </trkpt>
      <trkpt lat="42.53487" lon="-2.31694">
        <ele>426.008</ele>
        <time>2021-07-07T11:04:57Z</time>
      </trkpt>
      <trkpt lat="42.53457" lon="-2.31853">
        <ele>426.032</ele>
        <time>2021-07-07T11:05:09Z</time>
      </trkpt>
      <trkpt lat="42.53376" lon="-2.31947">
        <ele>426.053</ele>
        <time>2021-07-07T11:05:19Z</time>
      </trkpt>
      <trkpt lat="42.53327" lon="-2.32049">
        <ele>426.029</ele>
        <time>2021-07-07T11:05:27Z</time>
      </trkpt>
      <trkpt lat="42.53282" lon="-2.32086">
        <ele>426.012</ele>
        <time>2021-07-07T11:05:32Z</time>
      </trkpt>
      <trkpt lat="42.53242" lon="-2.32102">
        <ele>426.098</ele>
        <time>2021-07-07T11:05:36Z</time>
      </trkpt>
      <trkpt lat="42.53155" lon="-2.32099">
        <ele>426.027</ele>
        <time>2021-07-07T11:05:44Z</time>
      </trkpt>
      <trkpt lat="42.52751" lon="-2.3229">
        <ele>426.065</ele>
        <time>2021-07-07T11:06:36Z</time>
      </trkpt>
      <trkpt lat="42.52625" lon="-2.32516">
        <ele>426.044</ele>
        <time>2021-07-07T11:07:32Z</time>
      </trkpt>
      <trkpt lat="42.52601" lon="-2.3268">
        <ele>426.093</ele>
        <time>2021-07-07T11:08:16Z</time>
      </trkpt>
      <trkpt lat="42.52635" lon="-2.32818">
        <ele>426.065</ele>
        <time>2021-07-07T11:09:01Z</time>
      </trkpt>
      <trkpt lat="42.52624" lon="-2.32942">
        <ele>426.021</ele>
        <time>2021-07-07T11:09:41Z</time>
      </trkpt>
      <trkpt lat="42.52699" lon="-2.33084">
        <ele>426.008</ele>
        <time>2021-07-07T11:10:38Z</time>
      </trkpt>
      <trkpt lat="42.52701" lon="-2.3314">
        <ele>426.066</ele>
        <time>2021-07-07T11:10:58Z</time>
      </trkpt>
      <trkpt lat="42.52692" lon="-2.33165">
        <ele>426.027</ele>
        <time>2021-07-07T11:11:06Z</time>
      </trkpt>
      <trkpt lat="42.52668" lon="-2.33178">
        <ele>426.053</ele>
        <time>2021-07-07T11:11:17Z</time>
      </trkpt>
      <trkpt lat="42.5252" lon="-2.33113">
        <ele>426.066</ele>
        <time>2021-07-07T11:12:15Z</time>
      </trkpt>
      <trkpt lat="42.52491" lon="-2.33119">
        <ele>426.012</ele>
        <time>2021-07-07T11:12:25Z</time>
      </trkpt>
      <trkpt lat="42.52471" lon="-2.33144">
        <ele>426.051</ele>
        <time>2021-07-07T11:12:35Z</time>
      </trkpt>
      <trkpt lat="42.52436" lon="-2.3329">
        <ele>426.029</ele>
        <time>2021-07-07T11:13:05Z</time>
      </trkpt>
      <trkpt lat="42.52431" lon="-2.33401">
        <ele>426.088</ele>
        <time>2021-07-07T11:14:12Z</time>
      </trkpt>
      <trkpt lat="42.52345" lon="-2.33624">
        <ele>426.054</ele>
        <time>2021-07-07T11:15:50Z</time>
      </trkpt>
      <trkpt lat="42.52319" lon="-2.33686">
        <ele>426.056</ele>
        <time>2021-07-07T11:16:08Z</time>
      </trkpt>
      <trkpt lat="42.52285" lon="-2.33717">
        <ele>426.011</ele>
        <time>2021-07-07T11:16:27Z</time>
      </trkpt>
      <trkpt lat="42.52272" lon="-2.33776">
        <ele>426.008</ele>
        <time>2021-07-07T11:16:52Z</time>
      </trkpt>
      <trkpt lat="42.52192" lon="-2.33952">
        <ele>426.012</ele>
        <time>2021-07-07T11:18:30Z</time>
      </trkpt>
      <trkpt lat="42.52112" lon="-2.34065">
        <ele>426.023</ele>
        <time>2021-07-07T11:19:04Z</time>
      </trkpt>
      <trkpt lat="42.51991" lon="-2.3436">
        <ele>426.039</ele>
        <time>2021-07-07T11:19:59Z</time>
      </trkpt>
      <trkpt lat="42.51848" lon="-2.34975">
        <ele>426.052</ele>
        <time>2021-07-07T11:21:22Z</time>
      </trkpt>
      <trkpt lat="42.5177" lon="-2.3515">
        <ele>426.048</ele>
        <time>2021-07-07T11:22:10Z</time>
      </trkpt>
      <trkpt lat="42.51746" lon="-2.35368">
        <ele>426.077</ele>
        <time>2021-07-07T11:22:47Z</time>
      </trkpt>
      <trkpt lat="42.51709" lon="-2.35541">
        <ele>434.035</ele>
        <time>2021-07-07T11:23:33Z</time>
      </trkpt>
      <trkpt lat="42.51713" lon="-2.35606">
        <ele>441.024</ele>
        <time>2021-07-07T11:23:44Z</time>
      </trkpt>
      <trkpt lat="42.51671" lon="-2.3568">
        <ele>441.044</ele>
        <time>2021-07-07T11:24:03Z</time>
      </trkpt>
      <trkpt lat="42.51638" lon="-2.35822">
        <ele>441.005</ele>
        <time>2021-07-07T11:24:28Z</time>
      </trkpt>
      <trkpt lat="42.51623" lon="-2.36015">
        <ele>441.015</ele>
        <time>2021-07-07T11:25:25Z</time>
      </trkpt>
      <trkpt lat="42.51589" lon="-2.36195">
        <ele>441.008</ele>
        <time>2021-07-07T11:26:07Z</time>
      </trkpt>
      <trkpt lat="42.51594" lon="-2.36239">
        <ele>441.091</ele>
        <time>2021-07-07T11:26:18Z</time>
      </trkpt>
      <trkpt lat="42.51564" lon="-2.36356">
        <ele>441.032</ele>
        <time>2021-07-07T11:26:43Z</time>
      </trkpt>
      <trkpt lat="42.51578" lon="-2.36386">
        <ele>441.078</ele>
        <time>2021-07-07T11:26:56Z</time>
      </trkpt>
      <trkpt lat="42.51554" lon="-2.36472">
        <ele>433.031</ele>
        <time>2021-07-07T11:28:59Z</time>
      </trkpt>
      <trkpt lat="42.51553" lon="-2.36704">
        <ele>418.037</ele>
        <time>2021-07-07T11:29:54Z</time>
      </trkpt>
      <trkpt lat="42.51534" lon="-2.36886">
        <ele>420.036</ele>
        <time>2021-07-07T11:31:03Z</time>
      </trkpt>
      <trkpt lat="42.51514" lon="-2.36893">
        <ele>420.064</ele>
        <time>2021-07-07T11:31:12Z</time>
      </trkpt>
      <trkpt lat="42.51548" lon="-2.36936">
        <ele>423.073</ele>
        <time>2021-07-07T11:31:39Z</time>
      </trkpt>
      <trkpt lat="42.51537" lon="-2.37013">
        <ele>423.045</ele>
        <time>2021-07-07T11:32:09Z</time>
      </trkpt>
      <trkpt lat="42.51505" lon="-2.37015">
        <ele>423.047</ele>
        <time>2021-07-07T11:32:31Z</time>
      </trkpt>
      <trkpt lat="42.51513" lon="-2.3712">
        <ele>424.011</ele>
        <time>2021-07-07T11:33:38Z</time>
      </trkpt>
      <trkpt lat="42.51505" lon="-2.3711">
        <ele>424.008</ele>
        <time>2021-07-07T11:33:45Z</time>
      </trkpt>
      <trkpt lat="42.51518" lon="-2.37136">
        <ele>436.031</ele>
        <time>2021-07-07T11:34:50Z</time>
      </trkpt>
      <trkpt lat="42.51504" lon="-2.37183">
        <ele>438.042</ele>
        <time>2021-07-07T11:36:14Z</time>
      </trkpt>
      <trkpt lat="42.51501" lon="-2.37151">
        <ele>438.018</ele>
        <time>2021-07-07T11:36:51Z</time>
      </trkpt>
      <trkpt lat="42.5152" lon="-2.37139">
        <ele>438.051</ele>
        <time>2021-07-07T11:37:15Z</time>
      </trkpt>
      <trkpt lat="42.5149" lon="-2.37137">
        <ele>438.097</ele>
        <time>2021-07-07T11:45:20Z</time>
      </trkpt>
      <trkpt lat="42.51502" lon="-2.37146">
        <ele>438.026</ele>
        <time>2021-07-07T11:51:29Z</time>
      </trkpt>
      <trkpt lat="42.51509" lon="-2.37136">
        <ele>438.094</ele>
        <time>2021-07-07T11:52:42Z</time>
      </trkpt>
      <trkpt lat="42.51496" lon="-2.37128">
        <ele>438.063</ele>
        <time>2021-07-07T12:09:50Z</time>
      </trkpt>
      <trkpt lat="42.51533" lon="-2.37129">
        <ele>438.011</ele>
        <time>2021-07-07T12:12:44Z</time>
      </trkpt>
      <trkpt lat="42.51501" lon="-2.37128">
        <ele>439.021</ele>
        <time>2021-07-07T12:14:45Z</time>
      </trkpt>
      <trkpt lat="42.51505" lon="-2.37144">
        <ele>439.003</ele>
        <time>2021-07-07T12:16:35Z</time>
      </trkpt>
      <trkpt lat="42.515" lon="-2.37128">
        <ele>439.008</ele>
        <time>2021-07-07T12:18:00Z</time>
      </trkpt>
      <trkpt lat="42.51507" lon="-2.37156">
        <ele>438.058</ele>
        <time>2021-07-07T12:22:56Z</time>
      </trkpt>
      <trkpt lat="42.51486" lon="-2.37344">
        <ele>438.069</ele>
        <time>2021-07-07T12:25:23Z</time>
      </trkpt>
      <trkpt lat="42.51528" lon="-2.37374">
        <ele>440.025</ele>
        <time>2021-07-07T12:27:18Z</time>
      </trkpt>
      <trkpt lat="42.5156" lon="-2.37464">
        <ele>440.088</ele>
        <time>2021-07-07T12:27:41Z</time>
      </trkpt>
      <trkpt lat="42.51517" lon="-2.37479">
        <ele>440.094</ele>
        <time>2021-07-07T12:27:59Z</time>
      </trkpt>
      <trkpt lat="42.51527" lon="-2.37575">
        <ele>440.063</ele>
        <time>2021-07-07T12:28:28Z</time>
      </trkpt>
      <trkpt lat="42.51495" lon="-2.37589">
        <ele>440.061</ele>
        <time>2021-07-07T12:28:43Z</time>
      </trkpt>
      <trkpt lat="42.51503" lon="-2.37618">
        <ele>440.05</ele>
        <time>2021-07-07T12:28:48Z</time>
      </trkpt>
      <trkpt lat="42.51487" lon="-2.37665">
        <ele>440.033</ele>
        <time>2021-07-07T12:28:58Z</time>
      </trkpt>
      <trkpt lat="42.51439" lon="-2.37714">
        <ele>435.023</ele>
        <time>2021-07-07T12:29:49Z</time>
      </trkpt>
      <trkpt lat="42.51378" lon="-2.3773">
        <ele>434.015</ele>
        <time>2021-07-07T12:30:03Z</time>
      </trkpt>
      <trkpt lat="42.51348" lon="-2.37724">
        <ele>434.008</ele>
        <time>2021-07-07T12:30:11Z</time>
      </trkpt>
      <trkpt lat="42.51289" lon="-2.37752">
        <ele>434.08</ele>
        <time>2021-07-07T12:30:37Z</time>
      </trkpt>
      <trkpt lat="42.51296" lon="-2.379">
        <ele>434.091</ele>
        <time>2021-07-07T12:31:14Z</time>
      </trkpt>
      <trkpt lat="42.5123" lon="-2.37896">
        <ele>434.087</ele>
        <time>2021-07-07T12:31:32Z</time>
      </trkpt>
      <trkpt lat="42.51165" lon="-2.3795">
        <ele>434.05</ele>
        <time>2021-07-07T12:31:50Z</time>
      </trkpt>
      <trkpt lat="42.51131" lon="-2.37927">
        <ele>434.016</ele>
        <time>2021-07-07T12:32:02Z</time>
      </trkpt>
      <trkpt lat="42.51039" lon="-2.37949">
        <ele>434.075</ele>
        <time>2021-07-07T12:32:28Z</time>
      </trkpt>
      <trkpt lat="42.51008" lon="-2.37989">
        <ele>434.063</ele>
        <time>2021-07-07T12:32:43Z</time>
      </trkpt>
      <trkpt lat="42.50991" lon="-2.38114">
        <ele>434.072</ele>
        <time>2021-07-07T12:33:01Z</time>
      </trkpt>
      <trkpt lat="42.50948" lon="-2.38177">
        <ele>434.095</ele>
        <time>2021-07-07T12:33:27Z</time>
      </trkpt>
      <trkpt lat="42.50826" lon="-2.38281">
        <ele>434.049</ele>
        <time>2021-07-07T12:33:57Z</time>
      </trkpt>
      <trkpt lat="42.50787" lon="-2.38283">
        <ele>434.023</ele>
        <time>2021-07-07T12:34:11Z</time>
      </trkpt>
      <trkpt lat="42.50726" lon="-2.38359">
        <ele>434.008</ele>
        <time>2021-07-07T12:34:39Z</time>
      </trkpt>
      <trkpt lat="42.50544" lon="-2.38427">
        <ele>434.036</ele>
        <time>2021-07-07T12:35:17Z</time>
      </trkpt>
      <trkpt lat="42.50537" lon="-2.38459">
        <ele>434.087</ele>
        <time>2021-07-07T12:35:24Z</time>
      </trkpt>
      <trkpt lat="42.50419" lon="-2.38589">
        <ele>434.093</ele>
        <time>2021-07-07T12:35:51Z</time>
      </trkpt>
      <trkpt lat="42.50336" lon="-2.38674">
        <ele>434.056</ele>
        <time>2021-07-07T12:36:07Z</time>
      </trkpt>
      <trkpt lat="42.50227" lon="-2.38727">
        <ele>434.032</ele>
        <time>2021-07-07T12:36:25Z</time>
      </trkpt>
      <trkpt lat="42.50182" lon="-2.38796">
        <ele>434.091</ele>
        <time>2021-07-07T12:36:37Z</time>
      </trkpt>
      <trkpt lat="42.50137" lon="-2.38801">
        <ele>434.099</ele>
        <time>2021-07-07T12:36:45Z</time>
      </trkpt>
      <trkpt lat="42.50045" lon="-2.38785">
        <ele>434.028</ele>
        <time>2021-07-07T12:37:00Z</time>
      </trkpt>
      <trkpt lat="42.49942" lon="-2.38856">
        <ele>434.069</ele>
        <time>2021-07-07T12:37:20Z</time>
      </trkpt>
      <trkpt lat="42.49834" lon="-2.38884">
        <ele>434.004</ele>
        <time>2021-07-07T12:37:39Z</time>
      </trkpt>
      <trkpt lat="42.49659" lon="-2.38841">
        <ele>434.024</ele>
        <time>2021-07-07T12:38:22Z</time>
      </trkpt>
      <trkpt lat="42.49623" lon="-2.38855">
        <ele>434.008</ele>
        <time>2021-07-07T12:38:34Z</time>
      </trkpt>
      <trkpt lat="42.49605" lon="-2.38992">
        <ele>418.063</ele>
        <time>2021-07-07T12:39:06Z</time>
      </trkpt>
      <trkpt lat="42.4962" lon="-2.39135">
        <ele>387.034</ele>
        <time>2021-07-07T12:39:31Z</time>
      </trkpt>
      <trkpt lat="42.49605" lon="-2.39338">
        <ele>387.09</ele>
        <time>2021-07-07T12:40:10Z</time>
      </trkpt>
      <trkpt lat="42.49594" lon="-2.39405">
        <ele>387.023</ele>
        <time>2021-07-07T12:40:24Z</time>
      </trkpt>
      <trkpt lat="42.49572" lon="-2.39447">
        <ele>387.059</ele>
        <time>2021-07-07T12:40:35Z</time>
      </trkpt>
      <trkpt lat="42.49535" lon="-2.39791">
        <ele>387.048</ele>
        <time>2021-07-07T12:41:54Z</time>
      </trkpt>
      <trkpt lat="42.49483" lon="-2.39968">
        <ele>387.056</ele>
        <time>2021-07-07T12:42:35Z</time>
      </trkpt>
      <trkpt lat="42.49429" lon="-2.40071">
        <ele>387.055</ele>
        <time>2021-07-07T12:43:03Z</time>
      </trkpt>
      <trkpt lat="42.49383" lon="-2.40232">
        <ele>387.033</ele>
        <time>2021-07-07T12:49:22Z</time>
      </trkpt>
      <trkpt lat="42.49323" lon="-2.40365">
        <ele>387.023</ele>
        <time>2021-07-07T12:49:51Z</time>
      </trkpt>
      <trkpt lat="42.49326" lon="-2.40419">
        <ele>387.015</ele>
        <time>2021-07-07T12:50:05Z</time>
      </trkpt>
      <trkpt lat="42.49378" lon="-2.4048">
        <ele>387.008</ele>
        <time>2021-07-07T12:50:34Z</time>
      </trkpt>
      <trkpt lat="42.49407" lon="-2.40442">
        <ele>387.06</ele>
        <time>2021-07-07T12:51:03Z</time>
      </trkpt>
      <trkpt lat="42.49437" lon="-2.40451">
        <ele>387.091</ele>
        <time>2021-07-07T12:51:17Z</time>
      </trkpt>
      <trkpt lat="42.49367" lon="-2.40518">
        <ele>387.097</ele>
        <time>2021-07-07T12:53:36Z</time>
      </trkpt>
      <trkpt lat="42.49339" lon="-2.4058">
        <ele>367.06</ele>
        <time>2021-07-07T12:54:57Z</time>
      </trkpt>
      <trkpt lat="42.49165" lon="-2.41192">
        <ele>342.076</ele>
        <time>2021-07-07T12:57:04Z</time>
      </trkpt>
      <trkpt lat="42.49129" lon="-2.41393">
        <ele>342.085</ele>
        <time>2021-07-07T12:57:40Z</time>
      </trkpt>
      <trkpt lat="42.49089" lon="-2.41469">
        <ele>342.073</ele>
        <time>2021-07-07T12:58:03Z</time>
      </trkpt>
      <trkpt lat="42.48994" lon="-2.41818">
        <ele>363.012</ele>
        <time>2021-07-07T12:59:35Z</time>
      </trkpt>
      <trkpt lat="42.48954" lon="-2.41838">
        <ele>363.027</ele>
        <time>2021-07-07T12:59:51Z</time>
      </trkpt>
      <trkpt lat="42.48918" lon="-2.41894">
        <ele>363.068</ele>
        <time>2021-07-07T13:00:01Z</time>
      </trkpt>
      <trkpt lat="42.48919" lon="-2.41998">
        <ele>363.014</ele>
        <time>2021-07-07T13:00:17Z</time>
      </trkpt>
      <trkpt lat="42.48901" lon="-2.42027">
        <ele>363.008</ele>
        <time>2021-07-07T13:00:27Z</time>
      </trkpt>
      <trkpt lat="42.48856" lon="-2.42225">
        <ele>363.039</ele>
        <time>2021-07-07T13:01:06Z</time>
      </trkpt>
      <trkpt lat="42.48687" lon="-2.4257">
        <ele>377.02</ele>
        <time>2021-07-07T13:02:24Z</time>
      </trkpt>
      <trkpt lat="42.48673" lon="-2.42637">
        <ele>381.076</ele>
        <time>2021-07-07T13:02:37Z</time>
      </trkpt>
      <trkpt lat="42.48666" lon="-2.42626">
        <ele>387.079</ele>
        <time>2021-07-07T13:02:40Z</time>
      </trkpt>
      <trkpt lat="42.48652" lon="-2.4264">
        <ele>389.015</ele>
        <time>2021-07-07T13:02:45Z</time>
      </trkpt>
      <trkpt lat="42.48578" lon="-2.42795">
        <ele>390.084</ele>
        <time>2021-07-07T13:03:45Z</time>
      </trkpt>
      <trkpt lat="42.48497" lon="-2.43118">
        <ele>390.052</ele>
        <time>2021-07-07T13:05:04Z</time>
      </trkpt>
      <trkpt lat="42.48454" lon="-2.4319">
        <ele>390.051</ele>
        <time>2021-07-07T13:05:18Z</time>
      </trkpt>
      <trkpt lat="42.48219" lon="-2.43449">
        <ele>390.074</ele>
        <time>2021-07-07T13:06:13Z</time>
      </trkpt>
      <trkpt lat="42.47999" lon="-2.43559">
        <ele>390.056</ele>
        <time>2021-07-07T13:06:55Z</time>
      </trkpt>
      <trkpt lat="42.47698" lon="-2.43772">
        <ele>390.021</ele>
        <time>2021-07-07T13:08:01Z</time>
      </trkpt>
      <trkpt lat="42.47626" lon="-2.43912">
        <ele>390.008</ele>
        <time>2021-07-07T13:08:32Z</time>
      </trkpt>
      <trkpt lat="42.47504" lon="-2.43956">
        <ele>390.064</ele>
        <time>2021-07-07T13:08:47Z</time>
      </trkpt>
      <trkpt lat="42.47379" lon="-2.43968">
        <ele>390.015</ele>
        <time>2021-07-07T13:09:11Z</time>
      </trkpt>
      <trkpt lat="42.47273" lon="-2.44042">
        <ele>390.011</ele>
        <time>2021-07-07T13:09:46Z</time>
      </trkpt>
      <trkpt lat="42.47263" lon="-2.44026">
        <ele>390.074</ele>
        <time>2021-07-07T13:09:53Z</time>
      </trkpt>
      <trkpt lat="42.47252" lon="-2.44031">
        <ele>390.04</ele>
        <time>2021-07-07T13:09:58Z</time>
      </trkpt>
      <trkpt lat="42.47149" lon="-2.44175">
        <ele>390.039</ele>
        <time>2021-07-07T13:10:39Z</time>
      </trkpt>
      <trkpt lat="42.47086" lon="-2.44416">
        <ele>340.017</ele>
        <time>2021-07-07T13:18:15Z</time>
      </trkpt>
      <trkpt lat="42.46915" lon="-2.44334">
        <ele>340.086</ele>
        <time>2021-07-07T13:19:19Z</time>
      </trkpt>
      <trkpt lat="42.46886" lon="-2.4435">
        <ele>342.057</ele>
        <time>2021-07-07T13:19:45Z</time>
      </trkpt>
      <trkpt lat="42.4685" lon="-2.44326">
        <ele>343</ele>
        <time>2021-07-07T13:20:34Z</time>
      </trkpt>
      <trkpt lat="42.46784" lon="-2.44327">
        <ele>343.02</ele>
        <time>2021-07-07T13:21:00Z</time>
      </trkpt>
      <trkpt lat="42.46757" lon="-2.44389">
        <ele>343.008</ele>
        <time>2021-07-07T13:21:20Z</time>
      </trkpt>
      <trkpt lat="42.46703" lon="-2.44382">
        <ele>343.012</ele>
        <time>2021-07-07T13:21:46Z</time>
      </trkpt>
      <trkpt lat="42.4668" lon="-2.44339">
        <ele>388.043</ele>
        <time>2021-07-08T23:45:16Z</time>
      </trkpt>
      <trkpt lat="42.46643" lon="-2.44318">
        <ele>389.099</ele>
        <time>2021-07-08T23:45:17Z</time>
      </trkpt>
      <trkpt lat="42.46512" lon="-2.44396">
        <ele>398.012</ele>
        <time>2021-07-08T23:45:18Z</time>
      </trkpt>
      <trkpt lat="42.46523" lon="-2.44714">
        <ele>418.018</ele>
        <time>2021-07-08T23:45:30Z</time>
      </trkpt>
      <trkpt lat="42.46506" lon="-2.44901">
        <ele>409.017</ele>
        <time>2021-07-08T23:45:48Z</time>
      </trkpt>
      <trkpt lat="42.46567" lon="-2.45001">
        <ele>411.075</ele>
        <time>2021-07-08T23:46:02Z</time>
      </trkpt>
      <trkpt lat="42.46688" lon="-2.4502">
        <ele>387.094</ele>
        <time>2021-07-08T08:43:26Z</time>
      </trkpt>
      <trkpt lat="42.46719" lon="-2.45053">
        <ele>386.037</ele>
        <time>2021-07-08T08:44:16Z</time>
      </trkpt>
      <trkpt lat="42.46696" lon="-2.45092">
        <ele>386.049</ele>
        <time>2021-07-08T08:44:24Z</time>
      </trkpt>
      <trkpt lat="42.46645" lon="-2.45118">
        <ele>386.013</ele>
        <time>2021-07-08T08:44:37Z</time>
      </trkpt>
      <trkpt lat="42.46602" lon="-2.4517">
        <ele>386.008</ele>
        <time>2021-07-08T08:44:53Z</time>
      </trkpt>
      <trkpt lat="42.46539" lon="-2.45434">
        <ele>404.03</ele>
        <time>2021-07-08T08:45:40Z</time>
      </trkpt>
      <trkpt lat="42.46541" lon="-2.45479">
        <ele>401.011</ele>
        <time>2021-07-08T08:45:47Z</time>
      </trkpt>
      <trkpt lat="42.46519" lon="-2.45528">
        <ele>401.087</ele>
        <time>2021-07-08T08:46:00Z</time>
      </trkpt>
      <trkpt lat="42.46526" lon="-2.45544">
        <ele>404.01</ele>
        <time>2021-07-08T08:47:53Z</time>
      </trkpt>
      <trkpt lat="42.46474" lon="-2.45697">
        <ele>405.016</ele>
        <time>2021-07-08T08:48:57Z</time>
      </trkpt>
      <trkpt lat="42.46351" lon="-2.46232">
        <ele>399.055</ele>
        <time>2021-07-08T08:50:22Z</time>
      </trkpt>
      <trkpt lat="42.46245" lon="-2.46198">
        <ele>399.033</ele>
        <time>2021-07-08T08:50:49Z</time>
      </trkpt>
      <trkpt lat="42.46108" lon="-2.46124">
        <ele>401.092</ele>
        <time>2021-07-08T08:51:27Z</time>
      </trkpt>
      <trkpt lat="42.46097" lon="-2.46164">
        <ele>401.017</ele>
        <time>2021-07-08T08:51:36Z</time>
      </trkpt>
      <trkpt lat="42.46054" lon="-2.46213">
        <ele>401.087</ele>
        <time>2021-07-08T08:51:50Z</time>
      </trkpt>
      <trkpt lat="42.46039" lon="-2.46203">
        <ele>401.015</ele>
        <time>2021-07-08T08:51:58Z</time>
      </trkpt>
      <trkpt lat="42.46019" lon="-2.46234">
        <ele>406.008</ele>
        <time>2021-07-08T08:52:13Z</time>
      </trkpt>
      <trkpt lat="42.45922" lon="-2.46667">
        <ele>410.028</ele>
        <time>2021-07-08T08:54:05Z</time>
      </trkpt>
      <trkpt lat="42.45916" lon="-2.4678">
        <ele>414.099</ele>
        <time>2021-07-08T08:54:32Z</time>
      </trkpt>
      <trkpt lat="42.45882" lon="-2.46811">
        <ele>412.085</ele>
        <time>2021-07-08T08:54:46Z</time>
      </trkpt>
      <trkpt lat="42.4589" lon="-2.46803">
        <ele>413.038</ele>
        <time>2021-07-08T08:54:47Z</time>
      </trkpt>
      <trkpt lat="42.45864" lon="-2.46793">
        <ele>415.084</ele>
        <time>2021-07-08T08:54:56Z</time>
      </trkpt>
      <trkpt lat="42.4584" lon="-2.46804">
        <ele>415.073</ele>
        <time>2021-07-08T08:55:00Z</time>
      </trkpt>
      <trkpt lat="42.4582" lon="-2.46835">
        <ele>416.081</ele>
        <time>2021-07-08T08:55:14Z</time>
      </trkpt>
      <trkpt lat="42.45838" lon="-2.46846">
        <ele>417.06</ele>
        <time>2021-07-08T08:55:20Z</time>
      </trkpt>
      <trkpt lat="42.45826" lon="-2.47037">
        <ele>415.037</ele>
        <time>2021-07-08T08:56:02Z</time>
      </trkpt>
      <trkpt lat="42.45747" lon="-2.47206">
        <ele>410.049</ele>
        <time>2021-07-08T08:56:57Z</time>
      </trkpt>
      <trkpt lat="42.45752" lon="-2.47223">
        <ele>410.013</ele>
        <time>2021-07-08T08:57:03Z</time>
      </trkpt>
      <trkpt lat="42.457" lon="-2.47239">
        <ele>408.008</ele>
        <time>2021-07-08T08:57:22Z</time>
      </trkpt>
      <trkpt lat="42.45686" lon="-2.47303">
        <ele>408.04</ele>
        <time>2021-07-08T08:57:37Z</time>
      </trkpt>
      <trkpt lat="42.45662" lon="-2.47341">
        <ele>408.081</ele>
        <time>2021-07-08T08:57:49Z</time>
      </trkpt>
      <trkpt lat="42.45594" lon="-2.47698">
        <ele>419.027</ele>
        <time>2021-07-08T08:58:58Z</time>
      </trkpt>
      <trkpt lat="42.45566" lon="-2.47751">
        <ele>417.04</ele>
        <time>2021-07-08T08:59:10Z</time>
      </trkpt>
      <trkpt lat="42.45574" lon="-2.47757">
        <ele>416.086</ele>
        <time>2021-07-08T08:59:13Z</time>
      </trkpt>
      <trkpt lat="42.45548" lon="-2.47752">
        <ele>417.045</ele>
        <time>2021-07-08T08:59:16Z</time>
      </trkpt>
      <trkpt lat="42.45523" lon="-2.47769">
        <ele>418.043</ele>
        <time>2021-07-08T08:59:22Z</time>
      </trkpt>
      <trkpt lat="42.45502" lon="-2.47952">
        <ele>416.082</ele>
        <time>2021-07-08T08:59:57Z</time>
      </trkpt>
      <trkpt lat="42.45424" lon="-2.48112">
        <ele>418.036</ele>
        <time>2021-07-08T09:00:31Z</time>
      </trkpt>
      <trkpt lat="42.45352" lon="-2.48313">
        <ele>418.017</ele>
        <time>2021-07-08T09:01:11Z</time>
      </trkpt>
      <trkpt lat="42.45299" lon="-2.48688">
        <ele>419.018</ele>
        <time>2021-07-08T09:02:18Z</time>
      </trkpt>
      <trkpt lat="42.45168" lon="-2.49017">
        <ele>424.008</ele>
        <time>2021-07-08T09:03:20Z</time>
      </trkpt>
      <trkpt lat="42.45062" lon="-2.49411">
        <ele>428.09</ele>
        <time>2021-07-08T09:04:46Z</time>
      </trkpt>
      <trkpt lat="42.44995" lon="-2.49492">
        <ele>430.051</ele>
        <time>2021-07-08T09:05:10Z</time>
      </trkpt>
      <trkpt lat="42.44979" lon="-2.49769">
        <ele>440.047</ele>
        <time>2021-07-08T09:06:08Z</time>
      </trkpt>
      <trkpt lat="42.44927" lon="-2.49824">
        <ele>442.03</ele>
        <time>2021-07-08T09:06:32Z</time>
      </trkpt>
      <trkpt lat="42.44884" lon="-2.49825">
        <ele>440.036</ele>
        <time>2021-07-08T09:06:43Z</time>
      </trkpt>
      <trkpt lat="42.44873" lon="-2.49874">
        <ele>432.085</ele>
        <time>2021-07-08T09:06:53Z</time>
      </trkpt>
      <trkpt lat="42.44832" lon="-2.49921">
        <ele>407.013</ele>
        <time>2021-07-08T09:07:04Z</time>
      </trkpt>
      <trkpt lat="42.44813" lon="-2.49975">
        <ele>407.032</ele>
        <time>2021-07-08T09:07:13Z</time>
      </trkpt>
      <trkpt lat="42.44766" lon="-2.4999">
        <ele>407.024</ele>
        <time>2021-07-08T09:07:30Z</time>
      </trkpt>
      <trkpt lat="42.44715" lon="-2.50061">
        <ele>431.004</ele>
        <time>2021-07-08T09:08:03Z</time>
      </trkpt>
      <trkpt lat="42.44815" lon="-2.50346">
        <ele>439.014</ele>
        <time>2021-07-08T09:13:19Z</time>
      </trkpt>
      <trkpt lat="42.44788" lon="-2.50382">
        <ele>444.008</ele>
        <time>2021-07-08T09:25:13Z</time>
      </trkpt>
      <trkpt lat="42.44753" lon="-2.50377">
        <ele>444.079</ele>
        <time>2021-07-08T09:25:33Z</time>
      </trkpt>
      <trkpt lat="42.44728" lon="-2.50399">
        <ele>442.07</ele>
        <time>2021-07-08T09:25:48Z</time>
      </trkpt>
      <trkpt lat="42.44713" lon="-2.50497">
        <ele>445.086</ele>
        <time>2021-07-08T09:26:29Z</time>
      </trkpt>
      <trkpt lat="42.44676" lon="-2.50536">
        <ele>446.089</ele>
        <time>2021-07-08T09:26:47Z</time>
      </trkpt>
      <trkpt lat="42.44676" lon="-2.50662">
        <ele>441.015</ele>
        <time>2021-07-08T09:27:06Z</time>
      </trkpt>
      <trkpt lat="42.44714" lon="-2.50797">
        <ele>443.054</ele>
        <time>2021-07-08T09:27:38Z</time>
      </trkpt>
      <trkpt lat="42.447" lon="-2.50866">
        <ele>443.052</ele>
        <time>2021-07-08T09:27:51Z</time>
      </trkpt>
      <trkpt lat="42.44609" lon="-2.51074">
        <ele>449.011</ele>
        <time>2021-07-08T09:28:46Z</time>
      </trkpt>
      <trkpt lat="42.44473" lon="-2.51332">
        <ele>445.019</ele>
        <time>2021-07-08T09:29:48Z</time>
      </trkpt>
      <trkpt lat="42.44442" lon="-2.51331">
        <ele>446.009</ele>
        <time>2021-07-08T09:29:56Z</time>
      </trkpt>
      <trkpt lat="42.44413" lon="-2.51218">
        <ele>447.019</ele>
        <time>2021-07-08T09:30:17Z</time>
      </trkpt>
      <trkpt lat="42.44392" lon="-2.51208">
        <ele>447.008</ele>
        <time>2021-07-08T09:30:24Z</time>
      </trkpt>
      <trkpt lat="42.44329" lon="-2.51318">
        <ele>448.098</ele>
        <time>2021-07-08T09:30:50Z</time>
      </trkpt>
      <trkpt lat="42.44278" lon="-2.5133">
        <ele>450.019</ele>
        <time>2021-07-08T09:31:04Z</time>
      </trkpt>
      <trkpt lat="42.44209" lon="-2.51321">
        <ele>449.065</ele>
        <time>2021-07-08T09:31:20Z</time>
      </trkpt>
      <trkpt lat="42.44176" lon="-2.51339">
        <ele>448.058</ele>
        <time>2021-07-08T09:31:28Z</time>
      </trkpt>
      <trkpt lat="42.44136" lon="-2.51338">
        <ele>447.054</ele>
        <time>2021-07-08T09:31:40Z</time>
      </trkpt>
      <trkpt lat="42.44131" lon="-2.51378">
        <ele>448.053</ele>
        <time>2021-07-08T09:31:49Z</time>
      </trkpt>
      <trkpt lat="42.44158" lon="-2.51469">
        <ele>450.031</ele>
        <time>2021-07-08T09:32:09Z</time>
      </trkpt>
      <trkpt lat="42.44149" lon="-2.51483">
        <ele>451.01</ele>
        <time>2021-07-08T09:32:13Z</time>
      </trkpt>
      <trkpt lat="42.44009" lon="-2.51494">
        <ele>453.075</ele>
        <time>2021-07-08T09:32:54Z</time>
      </trkpt>
      <trkpt lat="42.43906" lon="-2.51535">
        <ele>453.028</ele>
        <time>2021-07-08T09:33:29Z</time>
      </trkpt>
      <trkpt lat="42.43871" lon="-2.51514">
        <ele>454.02</ele>
        <time>2021-07-08T09:33:41Z</time>
      </trkpt>
      <trkpt lat="42.43848" lon="-2.51474">
        <ele>456.008</ele>
        <time>2021-07-08T09:34:03Z</time>
      </trkpt>
      <trkpt lat="42.43785" lon="-2.51439">
        <ele>460.024</ele>
        <time>2021-07-08T09:35:22Z</time>
      </trkpt>
      <trkpt lat="42.43736" lon="-2.5153">
        <ele>470.045</ele>
        <time>2021-07-08T09:36:05Z</time>
      </trkpt>
      <trkpt lat="42.43677" lon="-2.51583">
        <ele>478.041</ele>
        <time>2021-07-08T09:36:40Z</time>
      </trkpt>
      <trkpt lat="42.43658" lon="-2.51621">
        <ele>482.094</ele>
        <time>2021-07-08T09:36:57Z</time>
      </trkpt>
      <trkpt lat="42.43662" lon="-2.51645">
        <ele>484.07</ele>
        <time>2021-07-08T09:37:05Z</time>
      </trkpt>
      <trkpt lat="42.43766" lon="-2.5179">
        <ele>488.029</ele>
        <time>2021-07-08T09:38:02Z</time>
      </trkpt>
      <trkpt lat="42.43801" lon="-2.51898">
        <ele>492.027</ele>
        <time>2021-07-08T09:38:35Z</time>
      </trkpt>
      <trkpt lat="42.43913" lon="-2.52125">
        <ele>504.046</ele>
        <time>2021-07-08T09:39:57Z</time>
      </trkpt>
      <trkpt lat="42.43947" lon="-2.52247">
        <ele>510.054</ele>
        <time>2021-07-08T09:40:40Z</time>
      </trkpt>
      <trkpt lat="42.44007" lon="-2.52366">
        <ele>515.056</ele>
        <time>2021-07-08T09:41:22Z</time>
      </trkpt>
      <trkpt lat="42.43956" lon="-2.52908">
        <ele>511.011</ele>
        <time>2021-07-08T09:48:45Z</time>
      </trkpt>
      <trkpt lat="42.4389" lon="-2.53198">
        <ele>511.008</ele>
        <time>2021-07-08T09:49:42Z</time>
      </trkpt>
      <trkpt lat="42.43849" lon="-2.53548">
        <ele>506.032</ele>
        <time>2021-07-08T09:51:19Z</time>
      </trkpt>
      <trkpt lat="42.43759" lon="-2.53825">
        <ele>498.053</ele>
        <time>2021-07-08T23:36:03Z</time>
      </trkpt>
      <trkpt lat="42.43748" lon="-2.53928">
        <ele>502.029</ele>
        <time>2021-07-08T23:36:03Z</time>
      </trkpt>
      <trkpt lat="42.437" lon="-2.54024">
        <ele>493.062</ele>
        <time>2021-07-08T23:36:03Z</time>
      </trkpt>
      <trkpt lat="42.43632" lon="-2.54294">
        <ele>479.018</ele>
        <time>2021-07-08T09:57:53Z</time>
      </trkpt>
      <trkpt lat="42.43554" lon="-2.54812">
        <ele>476.017</ele>
        <time>2021-07-08T09:59:28Z</time>
      </trkpt>
      <trkpt lat="42.43589" lon="-2.54974">
        <ele>476.075</ele>
        <time>2021-07-08T10:00:05Z</time>
      </trkpt>
      <trkpt lat="42.43494" lon="-2.5511">
        <ele>474.034</ele>
        <time>2021-07-08T10:00:42Z</time>
      </trkpt>
      <trkpt lat="42.43287" lon="-2.55842">
        <ele>482.066</ele>
        <time>2021-07-08T10:04:50Z</time>
      </trkpt>
      <trkpt lat="42.43255" lon="-2.55907">
        <ele>487.029</ele>
        <time>2021-07-08T10:05:18Z</time>
      </trkpt>
      <trkpt lat="42.4329" lon="-2.55944">
        <ele>492.021</ele>
        <time>2021-07-08T10:05:44Z</time>
      </trkpt>
      <trkpt lat="42.43177" lon="-2.55932">
        <ele>504.008</ele>
        <time>2021-07-08T23:37:48Z</time>
      </trkpt>
      <trkpt lat="42.43018" lon="-2.55964">
        <ele>514.083</ele>
        <time>2021-07-08T23:37:54Z</time>
      </trkpt>
      <trkpt lat="42.42982" lon="-2.56004">
        <ele>517.094</ele>
        <time>2021-07-08T23:37:57Z</time>
      </trkpt>
      <trkpt lat="42.42955" lon="-2.56071">
        <ele>518.09</ele>
        <time>2021-07-08T23:37:58Z</time>
      </trkpt>
      <trkpt lat="42.42949" lon="-2.56211">
        <ele>515.033</ele>
        <time>2021-07-08T23:38:17Z</time>
      </trkpt>
      <trkpt lat="42.43081" lon="-2.56309">
        <ele>529.019</ele>
        <time>2021-07-08T23:38:25Z</time>
      </trkpt>
      <trkpt lat="42.43061" lon="-2.56552">
        <ele>506.058</ele>
        <time>2021-07-08T10:18:16Z</time>
      </trkpt>
      <trkpt lat="42.43019" lon="-2.56807">
        <ele>510.016</ele>
        <time>2021-07-08T10:21:37Z</time>
      </trkpt>
      <trkpt lat="42.42756" lon="-2.57358">
        <ele>514.025</ele>
        <time>2021-07-08T10:23:20Z</time>
      </trkpt>
      <trkpt lat="42.42683" lon="-2.57482">
        <ele>513.077</ele>
        <time>2021-07-08T10:24:01Z</time>
      </trkpt>
      <trkpt lat="42.42588" lon="-2.57699">
        <ele>521.061</ele>
        <time>2021-07-08T10:25:01Z</time>
      </trkpt>
      <trkpt lat="42.42457" lon="-2.57839">
        <ele>528.027</ele>
        <time>2021-07-08T10:25:51Z</time>
      </trkpt>
      <trkpt lat="42.42215" lon="-2.58003">
        <ele>538.008</ele>
        <time>2021-07-08T10:27:16Z</time>
      </trkpt>
      <trkpt lat="42.42051" lon="-2.5822">
        <ele>548.094</ele>
        <time>2021-07-08T10:28:32Z</time>
      </trkpt>
      <trkpt lat="42.41962" lon="-2.58289">
        <ele>551.025</ele>
        <time>2021-07-08T10:29:04Z</time>
      </trkpt>
      <trkpt lat="42.41874" lon="-2.58459">
        <ele>557.051</ele>
        <time>2021-07-08T10:29:53Z</time>
      </trkpt>
      <trkpt lat="42.41711" lon="-2.58609">
        <ele>565.014</ele>
        <time>2021-07-08T10:31:00Z</time>
      </trkpt>
      <trkpt lat="42.41632" lon="-2.58707">
        <ele>569.06</ele>
        <time>2021-07-08T10:31:34Z</time>
      </trkpt>
      <trkpt lat="42.41499" lon="-2.58779">
        <ele>574.079</ele>
        <time>2021-07-08T10:32:24Z</time>
      </trkpt>
      <trkpt lat="42.41516" lon="-2.5889">
        <ele>573.047</ele>
        <time>2021-07-08T10:34:06Z</time>
      </trkpt>
      <trkpt lat="42.41467" lon="-2.59408">
        <ele>580.036</ele>
        <time>2021-07-08T10:36:16Z</time>
      </trkpt>
      <trkpt lat="42.41486" lon="-2.59463">
        <ele>578.062</ele>
        <time>2021-07-08T10:36:24Z</time>
      </trkpt>
      <trkpt lat="42.41597" lon="-2.59635">
        <ele>568.083</ele>
        <time>2021-07-08T10:37:01Z</time>
      </trkpt>
      <trkpt lat="42.41648" lon="-2.59805">
        <ele>567.011</ele>
        <time>2021-07-08T10:37:45Z</time>
      </trkpt>
      <trkpt lat="42.41656" lon="-2.59814">
        <ele>565.008</ele>
        <time>2021-07-08T10:37:49Z</time>
      </trkpt>
      <trkpt lat="42.41689" lon="-2.598">
        <ele>562.073</ele>
        <time>2021-07-08T10:37:55Z</time>
      </trkpt>
      <trkpt lat="42.41715" lon="-2.59829">
        <ele>563.084</ele>
        <time>2021-07-08T10:38:05Z</time>
      </trkpt>
      <trkpt lat="42.41596" lon="-2.60093">
        <ele>572.08</ele>
        <time>2021-07-08T10:39:16Z</time>
      </trkpt>
      <trkpt lat="42.41323" lon="-2.60849">
        <ele>584.093</ele>
        <time>2021-07-08T10:42:09Z</time>
      </trkpt>
      <trkpt lat="42.41235" lon="-2.61214">
        <ele>593.089</ele>
        <time>2021-07-08T10:43:31Z</time>
      </trkpt>
      <trkpt lat="42.4121" lon="-2.61422">
        <ele>597.088</ele>
        <time>2021-07-08T10:44:17Z</time>
      </trkpt>
      <trkpt lat="42.4121" lon="-2.62225">
        <ele>610.046</ele>
        <time>2021-07-08T10:47:46Z</time>
      </trkpt>
      <trkpt lat="42.41163" lon="-2.62858">
        <ele>615.055</ele>
        <time>2021-07-08T10:52:00Z</time>
      </trkpt>
      <trkpt lat="42.41173" lon="-2.6281">
        <ele>616.075</ele>
        <time>2021-07-08T10:52:12Z</time>
      </trkpt>
      <trkpt lat="42.41213" lon="-2.62813">
        <ele>617.028</ele>
        <time>2021-07-08T10:52:26Z</time>
      </trkpt>
      <trkpt lat="42.41254" lon="-2.62903">
        <ele>617.02</ele>
        <time>2021-07-08T10:52:49Z</time>
      </trkpt>
      <trkpt lat="42.41328" lon="-2.62955">
        <ele>616.008</ele>
        <time>2021-07-08T10:53:05Z</time>
      </trkpt>
      <trkpt lat="42.41387" lon="-2.63074">
        <ele>616.094</ele>
        <time>2021-07-08T10:53:31Z</time>
      </trkpt>
      <trkpt lat="42.41729" lon="-2.63885">
        <ele>640.025</ele>
        <time>2021-07-08T10:57:22Z</time>
      </trkpt>
      <trkpt lat="42.41766" lon="-2.64037">
        <ele>646.081</ele>
        <time>2021-07-08T10:58:09Z</time>
      </trkpt>
      <trkpt lat="42.41773" lon="-2.64169">
        <ele>651.054</ele>
        <time>2021-07-08T10:58:47Z</time>
      </trkpt>
      <trkpt lat="42.41761" lon="-2.64265">
        <ele>654.05</ele>
        <time>2021-07-08T10:59:11Z</time>
      </trkpt>
      <trkpt lat="42.41727" lon="-2.64371">
        <ele>653.049</ele>
        <time>2021-07-08T10:59:33Z</time>
      </trkpt>
      <trkpt lat="42.41502" lon="-2.64832">
        <ele>642.037</ele>
        <time>2021-07-08T11:00:38Z</time>
      </trkpt>
      <trkpt lat="42.41442" lon="-2.649">
        <ele>640.076</ele>
        <time>2021-07-08T11:00:49Z</time>
      </trkpt>
      <trkpt lat="42.41366" lon="-2.64953">
        <ele>637.082</ele>
        <time>2021-07-08T11:01:01Z</time>
      </trkpt>
      <trkpt lat="42.41265" lon="-2.64986">
        <ele>633.043</ele>
        <time>2021-07-08T11:01:15Z</time>
      </trkpt>
      <trkpt lat="42.41148" lon="-2.64989">
        <ele>629.017</ele>
        <time>2021-07-08T11:01:36Z</time>
      </trkpt>
      <trkpt lat="42.41116" lon="-2.65022">
        <ele>628.008</ele>
        <time>2021-07-08T11:01:45Z</time>
      </trkpt>
      <trkpt lat="42.41108" lon="-2.65053">
        <ele>626.085</ele>
        <time>2021-07-08T11:01:51Z</time>
      </trkpt>
      <trkpt lat="42.41126" lon="-2.65085">
        <ele>624.096</ele>
        <time>2021-07-08T11:02:03Z</time>
      </trkpt>
      <trkpt lat="42.41095" lon="-2.65161">
        <ele>621.032</ele>
        <time>2021-07-08T11:02:22Z</time>
      </trkpt>
      <trkpt lat="42.41093" lon="-2.65309">
        <ele>623.065</ele>
        <time>2021-07-08T11:02:50Z</time>
      </trkpt>
      <trkpt lat="42.41067" lon="-2.65386">
        <ele>619.081</ele>
        <time>2021-07-08T11:03:01Z</time>
      </trkpt>
      <trkpt lat="42.41065" lon="-2.65463">
        <ele>619.06</ele>
        <time>2021-07-08T11:03:14Z</time>
      </trkpt>
      <trkpt lat="42.4113" lon="-2.65993">
        <ele>612.088</ele>
        <time>2021-07-08T11:04:54Z</time>
      </trkpt>
      <trkpt lat="42.4114" lon="-2.6634">
        <ele>612.017</ele>
        <time>2021-07-08T11:05:59Z</time>
      </trkpt>
      <trkpt lat="42.41165" lon="-2.66407">
        <ele>608.046</ele>
        <time>2021-07-08T11:06:11Z</time>
      </trkpt>
      <trkpt lat="42.41217" lon="-2.66771">
        <ele>599.088</ele>
        <time>2021-07-08T11:06:58Z</time>
      </trkpt>
      <trkpt lat="42.41326" lon="-2.67147">
        <ele>593.016</ele>
        <time>2021-07-08T11:07:57Z</time>
      </trkpt>
      <trkpt lat="42.41366" lon="-2.67467">
        <ele>579.008</ele>
        <time>2021-07-08T11:08:43Z</time>
      </trkpt>
      <trkpt lat="42.41399" lon="-2.67568">
        <ele>581.041</ele>
        <time>2021-07-08T11:09:03Z</time>
      </trkpt>
      <trkpt lat="42.41468" lon="-2.67688">
        <ele>583.092</ele>
        <time>2021-07-08T11:09:35Z</time>
      </trkpt>
      <trkpt lat="42.41497" lon="-2.67788">
        <ele>586.048</ele>
        <time>2021-07-08T11:10:00Z</time>
      </trkpt>
      <trkpt lat="42.4148" lon="-2.67931">
        <ele>585.011</ele>
        <time>2021-07-08T11:10:29Z</time>
      </trkpt>
      <trkpt lat="42.41445" lon="-2.68068">
        <ele>581.027</ele>
        <time>2021-07-08T11:10:53Z</time>
      </trkpt>
      <trkpt lat="42.41425" lon="-2.68326">
        <ele>577.046</ele>
        <time>2021-07-08T11:11:31Z</time>
      </trkpt>
      <trkpt lat="42.4134" lon="-2.68656">
        <ele>569.094</ele>
        <time>2021-07-08T11:12:22Z</time>
      </trkpt>
      <trkpt lat="42.41341" lon="-2.68918">
        <ele>565.043</ele>
        <time>2021-07-08T11:13:00Z</time>
      </trkpt>
      <trkpt lat="42.41319" lon="-2.69202">
        <ele>561.027</ele>
        <time>2021-07-08T11:13:47Z</time>
      </trkpt>
      <trkpt lat="42.41359" lon="-2.69401">
        <ele>551.068</ele>
        <time>2021-07-08T11:14:15Z</time>
      </trkpt>
      <trkpt lat="42.41414" lon="-2.69491">
        <ele>546.014</ele>
        <time>2021-07-08T11:14:32Z</time>
      </trkpt>
      <trkpt lat="42.41425" lon="-2.69629">
        <ele>543.008</ele>
        <time>2021-07-08T11:15:03Z</time>
      </trkpt>
      <trkpt lat="42.41408" lon="-2.69717">
        <ele>543.039</ele>
        <time>2021-07-08T11:15:20Z</time>
      </trkpt>
      <trkpt lat="42.41447" lon="-2.69821">
        <ele>539.04</ele>
        <time>2021-07-08T11:21:08Z</time>
      </trkpt>
      <trkpt lat="42.41434" lon="-2.69856">
        <ele>539.036</ele>
        <time>2021-07-08T11:22:14Z</time>
      </trkpt>
      <trkpt lat="42.4154" lon="-2.69947">
        <ele>535.019</ele>
        <time>2021-07-08T11:23:11Z</time>
      </trkpt>
      <trkpt lat="42.41594" lon="-2.69957">
        <ele>536.085</ele>
        <time>2021-07-08T11:23:31Z</time>
      </trkpt>
      <trkpt lat="42.41617" lon="-2.69981">
        <ele>536.054</ele>
        <time>2021-07-08T11:23:40Z</time>
      </trkpt>
      <trkpt lat="42.41564" lon="-2.70042">
        <ele>536.022</ele>
        <time>2021-07-08T11:24:00Z</time>
      </trkpt>
      <trkpt lat="42.41535" lon="-2.70259">
        <ele>534.061</ele>
        <time>2021-07-08T11:24:44Z</time>
      </trkpt>
      <trkpt lat="42.41568" lon="-2.70469">
        <ele>534.039</ele>
        <time>2021-07-08T11:25:26Z</time>
      </trkpt>
      <trkpt lat="42.41583" lon="-2.7074">
        <ele>534.001</ele>
        <time>2021-07-08T11:26:11Z</time>
      </trkpt>
      <trkpt lat="42.4161" lon="-2.70948">
        <ele>534.021</ele>
        <time>2021-07-08T11:26:50Z</time>
      </trkpt>
      <trkpt lat="42.41603" lon="-2.70992">
        <ele>534.008</ele>
        <time>2021-07-08T11:26:59Z</time>
      </trkpt>
      <trkpt lat="42.41622" lon="-2.71024">
        <ele>532.07</ele>
        <time>2021-07-08T11:27:09Z</time>
      </trkpt>
      <trkpt lat="42.4172" lon="-2.71491">
        <ele>525.071</ele>
        <time>2021-07-08T11:28:32Z</time>
      </trkpt>
      <trkpt lat="42.41771" lon="-2.71541">
        <ele>524.037</ele>
        <time>2021-07-08T11:28:47Z</time>
      </trkpt>
      <trkpt lat="42.41757" lon="-2.71607">
        <ele>524.04</ele>
        <time>2021-07-08T11:29:02Z</time>
      </trkpt>
      <trkpt lat="42.4179" lon="-2.71713">
        <ele>524.056</ele>
        <time>2021-07-08T11:29:21Z</time>
      </trkpt>
      <trkpt lat="42.41796" lon="-2.71784">
        <ele>523.095</ele>
        <time>2021-07-08T11:29:34Z</time>
      </trkpt>
      <trkpt lat="42.41838" lon="-2.71887">
        <ele>517.083</ele>
        <time>2021-07-08T11:29:53Z</time>
      </trkpt>
      <trkpt lat="42.41861" lon="-2.72074">
        <ele>514.052</ele>
        <time>2021-07-08T11:30:25Z</time>
      </trkpt>
      <trkpt lat="42.41828" lon="-2.72496">
        <ele>510.074</ele>
        <time>2021-07-08T11:32:10Z</time>
      </trkpt>
      <trkpt lat="42.41853" lon="-2.72554">
        <ele>509.056</ele>
        <time>2021-07-08T11:32:25Z</time>
      </trkpt>
      <trkpt lat="42.4179" lon="-2.72852">
        <ele>502.021</ele>
        <time>2021-07-08T11:33:26Z</time>
      </trkpt>
      <trkpt lat="42.41709" lon="-2.7304">
        <ele>495.008</ele>
        <time>2021-07-08T11:34:01Z</time>
      </trkpt>
      <trkpt lat="42.41692" lon="-2.73119">
        <ele>495.084</ele>
        <time>2021-07-08T11:34:18Z</time>
      </trkpt>
      <trkpt lat="42.41733" lon="-2.73209">
        <ele>495.085</ele>
        <time>2021-07-08T11:34:48Z</time>
      </trkpt>
      <trkpt lat="42.41744" lon="-2.73337">
        <ele>494.051</ele>
        <time>2021-07-08T11:38:18Z</time>
      </trkpt>
      <trkpt lat="42.41801" lon="-2.73346">
        <ele>493.094</ele>
        <time>2021-07-08T13:04:54Z</time>
      </trkpt>
      <trkpt lat="42.4185" lon="-2.73468">
        <ele>493.05</ele>
        <time>2021-07-08T13:05:32Z</time>
      </trkpt>
      <trkpt lat="42.41761" lon="-2.73497">
        <ele>494.029</ele>
        <time>2021-07-08T13:05:59Z</time>
      </trkpt>
      <trkpt lat="42.41703" lon="-2.73539">
        <ele>497.067</ele>
        <time>2021-07-08T13:06:32Z</time>
      </trkpt>
      <trkpt lat="42.41648" lon="-2.73523">
        <ele>494.056</ele>
        <time>2021-07-08T13:07:09Z</time>
      </trkpt>
      <trkpt lat="42.4161" lon="-2.73531">
        <ele>494.052</ele>
        <time>2021-07-08T13:07:29Z</time>
      </trkpt>
      <trkpt lat="42.41583" lon="-2.73555">
        <ele>494.053</ele>
        <time>2021-07-08T13:07:40Z</time>
      </trkpt>
      <trkpt lat="42.41593" lon="-2.73773">
        <ele>507.008</ele>
        <time>2021-07-08T13:08:42Z</time>
      </trkpt>
      <trkpt lat="42.41559" lon="-2.73867">
        <ele>513.008</ele>
        <time>2021-07-08T13:09:11Z</time>
      </trkpt>
      <trkpt lat="42.41547" lon="-2.73954">
        <ele>515.022</ele>
        <time>2021-07-08T13:09:35Z</time>
      </trkpt>
      <trkpt lat="42.41463" lon="-2.74089">
        <ele>528.043</ele>
        <time>2021-07-08T13:10:31Z</time>
      </trkpt>
      <trkpt lat="42.41401" lon="-2.74291">
        <ele>547.029</ele>
        <time>2021-07-08T13:12:05Z</time>
      </trkpt>
      <trkpt lat="42.41426" lon="-2.74362">
        <ele>549.012</ele>
        <time>2021-07-08T13:12:42Z</time>
      </trkpt>
      <trkpt lat="42.41445" lon="-2.7457">
        <ele>557.038</ele>
        <time>2021-07-08T13:14:00Z</time>
      </trkpt>
      <trkpt lat="42.4153" lon="-2.74826">
        <ele>546.047</ele>
        <time>2021-07-08T13:15:07Z</time>
      </trkpt>
      <trkpt lat="42.41562" lon="-2.75061">
        <ele>539.015</ele>
        <time>2021-07-08T13:15:58Z</time>
      </trkpt>
      <trkpt lat="42.41635" lon="-2.7517">
        <ele>529.084</ele>
        <time>2021-07-08T13:16:16Z</time>
      </trkpt>
      <trkpt lat="42.41594" lon="-2.75911">
        <ele>530.025</ele>
        <time>2021-07-08T13:18:25Z</time>
      </trkpt>
      <trkpt lat="42.41642" lon="-2.76019">
        <ele>537.026</ele>
        <time>2021-07-08T13:19:04Z</time>
      </trkpt>
      <trkpt lat="42.41694" lon="-2.76259">
        <ele>544.008</ele>
        <time>2021-07-08T13:20:17Z</time>
      </trkpt>
      <trkpt lat="42.41744" lon="-2.76533">
        <ele>548.008</ele>
        <time>2021-07-08T13:21:38Z</time>
      </trkpt>
      <trkpt lat="42.41796" lon="-2.77041">
        <ele>553.099</ele>
        <time>2021-07-08T13:23:23Z</time>
      </trkpt>
      <trkpt lat="42.41936" lon="-2.77585">
        <ele>553.03</ele>
        <time>2021-07-08T13:24:41Z</time>
      </trkpt>
      <trkpt lat="42.41978" lon="-2.77806">
        <ele>556.066</ele>
        <time>2021-07-08T13:25:19Z</time>
      </trkpt>
      <trkpt lat="42.4202" lon="-2.78097">
        <ele>555.039</ele>
        <time>2021-07-08T13:25:58Z</time>
      </trkpt>
      <trkpt lat="42.42022" lon="-2.78303">
        <ele>549.075</ele>
        <time>2021-07-08T13:26:21Z</time>
      </trkpt>
      <trkpt lat="42.42076" lon="-2.78912">
        <ele>552.064</ele>
        <time>2021-07-08T13:27:34Z</time>
      </trkpt>
      <trkpt lat="42.42232" lon="-2.79341">
        <ele>550.022</ele>
        <time>2021-07-08T13:28:34Z</time>
      </trkpt>
      <trkpt lat="42.42337" lon="-2.79872">
        <ele>558.071</ele>
        <time>2021-07-08T13:29:59Z</time>
      </trkpt>
      <trkpt lat="42.42401" lon="-2.80027">
        <ele>556.054</ele>
        <time>2021-07-08T13:30:29Z</time>
      </trkpt>
      <trkpt lat="42.42471" lon="-2.80254">
        <ele>556.056</ele>
        <time>2021-07-08T13:31:03Z</time>
      </trkpt>
      <trkpt lat="42.42583" lon="-2.80374">
        <ele>550.011</ele>
        <time>2021-07-08T13:31:30Z</time>
      </trkpt>
      <trkpt lat="42.42623" lon="-2.8074">
        <ele>548.008</ele>
        <time>2021-07-08T13:32:31Z</time>
      </trkpt>
      <trkpt lat="42.42647" lon="-2.80843">
        <ele>549.022</ele>
        <time>2021-07-08T13:32:52Z</time>
      </trkpt>
      <trkpt lat="42.4272" lon="-2.81087">
        <ele>558.023</ele>
        <time>2021-07-08T13:33:53Z</time>
      </trkpt>
      <trkpt lat="42.4284" lon="-2.81372">
        <ele>567.089</ele>
        <time>2021-07-08T13:38:36Z</time>
      </trkpt>
      <trkpt lat="42.42947" lon="-2.81731">
        <ele>573.052</ele>
        <time>2021-07-08T13:40:15Z</time>
      </trkpt>
      <trkpt lat="42.43034" lon="-2.81861">
        <ele>578.028</ele>
        <time>2021-07-08T13:41:02Z</time>
      </trkpt>
      <trkpt lat="42.43138" lon="-2.81946">
        <ele>568.017</ele>
        <time>2021-07-08T13:41:36Z</time>
      </trkpt>
      <trkpt lat="42.43248" lon="-2.82115">
        <ele>556.025</ele>
        <time>2021-07-08T13:43:06Z</time>
      </trkpt>
      <trkpt lat="42.4332" lon="-2.82072">
        <ele>552.034</ele>
        <time>2021-07-08T13:43:36Z</time>
      </trkpt>
      <trkpt lat="42.43333" lon="-2.82083">
        <ele>552.072</ele>
        <time>2021-07-08T13:43:42Z</time>
      </trkpt>
      <trkpt lat="42.43367" lon="-2.82318">
        <ele>553.013</ele>
        <time>2021-07-08T13:44:29Z</time>
      </trkpt>
      <trkpt lat="42.43415" lon="-2.82873">
        <ele>558.014</ele>
        <time>2021-07-08T13:46:05Z</time>
      </trkpt>
      <trkpt lat="42.43425" lon="-2.83154">
        <ele>559.008</ele>
        <time>2021-07-08T13:46:54Z</time>
      </trkpt>
      <trkpt lat="42.43417" lon="-2.8328">
        <ele>560.084</ele>
        <time>2021-07-08T13:47:19Z</time>
      </trkpt>
      <trkpt lat="42.43362" lon="-2.83407">
        <ele>564.055</ele>
        <time>2021-07-08T13:47:53Z</time>
      </trkpt>
      <trkpt lat="42.43355" lon="-2.83497">
        <ele>564.091</ele>
        <time>2021-07-08T13:48:16Z</time>
      </trkpt>
      <trkpt lat="42.43364" lon="-2.8387">
        <ele>567.024</ele>
        <time>2021-07-08T13:49:42Z</time>
      </trkpt>
      <trkpt lat="42.43404" lon="-2.84005">
        <ele>569.02</ele>
        <time>2021-07-08T13:50:08Z</time>
      </trkpt>
      <trkpt lat="42.43399" lon="-2.84103">
        <ele>570.019</ele>
        <time>2021-07-08T13:50:25Z</time>
      </trkpt>
      <trkpt lat="42.4336" lon="-2.8415">
        <ele>570.087</ele>
        <time>2021-07-08T13:50:38Z</time>
      </trkpt>
      <trkpt lat="42.4334" lon="-2.84211">
        <ele>570.026</ele>
        <time>2021-07-08T13:50:49Z</time>
      </trkpt>
      <trkpt lat="42.43271" lon="-2.84556">
        <ele>573.031</ele>
        <time>2021-07-08T13:51:45Z</time>
      </trkpt>
      <trkpt lat="42.43267" lon="-2.84631">
        <ele>574.061</ele>
        <time>2021-07-08T13:51:58Z</time>
      </trkpt>
      <trkpt lat="42.43295" lon="-2.84842">
        <ele>579.007</ele>
        <time>2021-07-08T13:52:34Z</time>
      </trkpt>
      <trkpt lat="42.43241" lon="-2.84922">
        <ele>580.008</ele>
        <time>2021-07-08T13:52:52Z</time>
      </trkpt>
      <trkpt lat="42.43109" lon="-2.85351">
        <ele>587.02</ele>
        <time>2021-07-08T13:54:09Z</time>
      </trkpt>
      <trkpt lat="42.42739" lon="-2.86027">
        <ele>601.081</ele>
        <time>2021-07-08T13:57:01Z</time>
      </trkpt>
      <trkpt lat="42.42703" lon="-2.86495">
        <ele>611.037</ele>
        <time>2021-07-08T13:58:45Z</time>
      </trkpt>
      <trkpt lat="42.42533" lon="-2.87082">
        <ele>638.08</ele>
        <time>2021-07-08T14:03:00Z</time>
      </trkpt>
      <trkpt lat="42.42501" lon="-2.87339">
        <ele>658.076</ele>
        <time>2021-07-08T14:04:32Z</time>
      </trkpt>
      <trkpt lat="42.42424" lon="-2.87647">
        <ele>678.085</ele>
        <time>2021-07-08T14:05:53Z</time>
      </trkpt>
      <trkpt lat="42.42367" lon="-2.87769">
        <ele>690.073</ele>
        <time>2021-07-08T14:06:33Z</time>
      </trkpt>
      <trkpt lat="42.42258" lon="-2.87927">
        <ele>706.012</ele>
        <time>2021-07-08T14:07:25Z</time>
      </trkpt>
      <trkpt lat="42.41881" lon="-2.88566">
        <ele>726.057</ele>
        <time>2021-07-08T14:10:02Z</time>
      </trkpt>
      <trkpt lat="42.41865" lon="-2.8859">
        <ele>728</ele>
        <time>2021-07-08T14:10:09Z</time>
      </trkpt>
      <trkpt lat="42.41832" lon="-2.88586">
        <ele>728.02</ele>
        <time>2021-07-08T14:10:21Z</time>
      </trkpt>
      <trkpt lat="42.41809" lon="-2.88629">
        <ele>729.008</ele>
        <time>2021-07-08T14:10:34Z</time>
      </trkpt>
      <trkpt lat="42.41784" lon="-2.88645">
        <ele>730.072</ele>
        <time>2021-07-08T14:10:43Z</time>
      </trkpt>
      <trkpt lat="42.41747" lon="-2.88727">
        <ele>732.083</ele>
        <time>2021-07-08T14:11:14Z</time>
      </trkpt>
      <trkpt lat="42.4173" lon="-2.88745">
        <ele>734.089</ele>
        <time>2021-07-08T14:11:30Z</time>
      </trkpt>
      <trkpt lat="42.41761" lon="-2.887">
        <ele>732.082</ele>
        <time>2021-07-08T14:11:54Z</time>
      </trkpt>
      <trkpt lat="42.41574" lon="-2.88999">
        <ele>740.028</ele>
        <time>2021-07-08T14:13:30Z</time>
      </trkpt>
      <trkpt lat="42.41576" lon="-2.89246">
        <ele>740.057</ele>
        <time>2021-07-08T14:14:12Z</time>
      </trkpt>
      <trkpt lat="42.41467" lon="-2.89253">
        <ele>740.085</ele>
        <time>2021-07-08T14:14:38Z</time>
      </trkpt>
      <trkpt lat="42.41443" lon="-2.89267">
        <ele>740.054</ele>
        <time>2021-07-08T14:14:44Z</time>
      </trkpt>
      <trkpt lat="42.41447" lon="-2.89338">
        <ele>740.095</ele>
        <time>2021-07-08T14:14:56Z</time>
      </trkpt>
      <trkpt lat="42.41434" lon="-2.89376">
        <ele>740.049</ele>
        <time>2021-07-08T14:15:03Z</time>
      </trkpt>
      <trkpt lat="42.41361" lon="-2.89489">
        <ele>744.023</ele>
        <time>2021-07-08T14:15:32Z</time>
      </trkpt>
      <trkpt lat="42.41303" lon="-2.89535">
        <ele>749.008</ele>
        <time>2021-07-08T14:15:48Z</time>
      </trkpt>
      <trkpt lat="42.41261" lon="-2.89643">
        <ele>756.056</ele>
        <time>2021-07-08T14:16:21Z</time>
      </trkpt>
      <trkpt lat="42.41341" lon="-2.89629">
        <ele>751.017</ele>
        <time>2021-07-08T14:16:40Z</time>
      </trkpt>
      <trkpt lat="42.41375" lon="-2.8965">
        <ele>748.063</ele>
        <time>2021-07-08T14:16:48Z</time>
      </trkpt>
      <trkpt lat="42.41391" lon="-2.89687">
        <ele>746.076</ele>
        <time>2021-07-08T14:16:55Z</time>
      </trkpt>
      <trkpt lat="42.4143" lon="-2.89713">
        <ele>742.092</ele>
        <time>2021-07-08T14:17:06Z</time>
      </trkpt>
      <trkpt lat="42.41478" lon="-2.89835">
        <ele>737.021</ele>
        <time>2021-07-08T14:17:27Z</time>
      </trkpt>
      <trkpt lat="42.41521" lon="-2.89872">
        <ele>736.079</ele>
        <time>2021-07-08T14:17:37Z</time>
      </trkpt>
      <trkpt lat="42.41615" lon="-2.9054">
        <ele>741.068</ele>
        <time>2021-07-08T14:19:30Z</time>
      </trkpt>
      <trkpt lat="42.41813" lon="-2.91107">
        <ele>727.025</ele>
        <time>2021-07-08T14:23:00Z</time>
      </trkpt>
      <trkpt lat="42.42305" lon="-2.91926">
        <ele>734.026</ele>
        <time>2021-07-08T14:28:27Z</time>
      </trkpt>
      <trkpt lat="42.43393" lon="-2.93165">
        <ele>645.008</ele>
        <time>2021-07-08T14:33:24Z</time>
      </trkpt>
      <trkpt lat="42.43606" lon="-2.93387">
        <ele>643.008</ele>
        <time>2021-07-08T14:34:15Z</time>
      </trkpt>
      <trkpt lat="42.4367" lon="-2.93515">
        <ele>643.059</ele>
        <time>2021-07-08T14:34:37Z</time>
      </trkpt>
      <trkpt lat="42.43768" lon="-2.93871">
        <ele>642.02</ele>
        <time>2021-07-08T14:35:35Z</time>
      </trkpt>
      <trkpt lat="42.4383" lon="-2.93921">
        <ele>641.086</ele>
        <time>2021-07-08T14:36:05Z</time>
      </trkpt>
      <trkpt lat="42.43908" lon="-2.94352">
        <ele>644.069</ele>
        <time>2021-07-08T14:37:17Z</time>
      </trkpt>
      <trkpt lat="42.43937" lon="-2.94384">
        <ele>644.025</ele>
        <time>2021-07-08T14:37:28Z</time>
      </trkpt>
      <trkpt lat="42.43938" lon="-2.94531">
        <ele>644.014</ele>
        <time>2021-07-08T14:37:53Z</time>
      </trkpt>
      <trkpt lat="42.44033" lon="-2.94911">
        <ele>645.032</ele>
        <time>2021-07-08T14:39:01Z</time>
      </trkpt>
      <trkpt lat="42.44067" lon="-2.95115">
        <ele>645.081</ele>
        <time>2021-07-08T14:39:47Z</time>
      </trkpt>
      <trkpt lat="42.44119" lon="-2.95656">
        <ele>639.016</ele>
        <time>2021-07-09T07:40:22Z</time>
      </trkpt>
      <trkpt lat="42.44108" lon="-2.95723">
        <ele>640.076</ele>
        <time>2021-07-09T07:40:47Z</time>
      </trkpt>
      <trkpt lat="42.44117" lon="-2.95858">
        <ele>641.013</ele>
        <time>2021-07-09T07:41:15Z</time>
      </trkpt>
      <trkpt lat="42.44172" lon="-2.95994">
        <ele>641.008</ele>
        <time>2021-07-09T07:41:54Z</time>
      </trkpt>
      <trkpt lat="42.44232" lon="-2.96243">
        <ele>634.018</ele>
        <time>2021-07-09T20:24:00Z</time>
      </trkpt>
      <trkpt lat="42.44246" lon="-2.96243">
        <ele>642.089</ele>
        <time>2021-07-09T07:46:29Z</time>
      </trkpt>
      <trkpt lat="42.44279" lon="-2.96179">
        <ele>642.025</ele>
        <time>2021-07-09T07:46:55Z</time>
      </trkpt>
      <trkpt lat="42.44259" lon="-2.96235">
        <ele>642.078</ele>
        <time>2021-07-09T07:47:11Z</time>
      </trkpt>
      <trkpt lat="42.44275" lon="-2.96286">
        <ele>642.064</ele>
        <time>2021-07-09T07:47:20Z</time>
      </trkpt>
      <trkpt lat="42.44424" lon="-2.96514">
        <ele>642.073</ele>
        <time>2021-07-09T07:48:23Z</time>
      </trkpt>
      <trkpt lat="42.44456" lon="-2.96594">
        <ele>642.091</ele>
        <time>2021-07-09T07:48:42Z</time>
      </trkpt>
      <trkpt lat="42.44583" lon="-2.97137">
        <ele>649.02</ele>
        <time>2021-07-09T07:51:20Z</time>
      </trkpt>
      <trkpt lat="42.44585" lon="-2.97184">
        <ele>649.017</ele>
        <time>2021-07-09T07:51:30Z</time>
      </trkpt>
      <trkpt lat="42.44546" lon="-2.97194">
        <ele>649.087</ele>
        <time>2021-07-09T07:51:43Z</time>
      </trkpt>
      <trkpt lat="42.44535" lon="-2.97243">
        <ele>649.015</ele>
        <time>2021-07-09T07:51:57Z</time>
      </trkpt>
      <trkpt lat="42.44662" lon="-2.97622">
        <ele>649.008</ele>
        <time>2021-07-09T07:53:17Z</time>
      </trkpt>
      <trkpt lat="42.44768" lon="-2.98008">
        <ele>649.048</ele>
        <time>2021-07-09T07:54:37Z</time>
      </trkpt>
      <trkpt lat="42.44796" lon="-2.98064">
        <ele>649.049</ele>
        <time>2021-07-09T07:54:52Z</time>
      </trkpt>
      <trkpt lat="42.44888" lon="-2.98455">
        <ele>649.035</ele>
        <time>2021-07-09T07:56:20Z</time>
      </trkpt>
      <trkpt lat="42.44933" lon="-2.9859">
        <ele>649.098</ele>
        <time>2021-07-09T07:56:53Z</time>
      </trkpt>
      <trkpt lat="42.44956" lon="-2.98585">
        <ele>649.084</ele>
        <time>2021-07-09T07:57:07Z</time>
      </trkpt>
      <trkpt lat="42.44967" lon="-2.98606">
        <ele>649.043</ele>
        <time>2021-07-09T07:57:13Z</time>
      </trkpt>
      <trkpt lat="42.45011" lon="-2.98768">
        <ele>649.071</ele>
        <time>2021-07-09T07:57:51Z</time>
      </trkpt>
      <trkpt lat="42.45073" lon="-2.99324">
        <ele>649.01</ele>
        <time>2021-07-09T08:00:34Z</time>
      </trkpt>
      <trkpt lat="42.45149" lon="-2.9975">
        <ele>649.057</ele>
        <time>2021-07-09T08:02:01Z</time>
      </trkpt>
      <trkpt lat="42.45195" lon="-3.00154">
        <ele>649</ele>
        <time>2021-07-09T08:03:13Z</time>
      </trkpt>
      <trkpt lat="42.4521" lon="-3.00494">
        <ele>649.02</ele>
        <time>2021-07-09T08:04:19Z</time>
      </trkpt>
      <trkpt lat="42.45239" lon="-3.00534">
        <ele>649.008</ele>
        <time>2021-07-09T08:04:32Z</time>
      </trkpt>
      <trkpt lat="42.45238" lon="-3.00571">
        <ele>649.072</ele>
        <time>2021-07-09T08:04:39Z</time>
      </trkpt>
      <trkpt lat="42.45215" lon="-3.00615">
        <ele>649.023</ele>
        <time>2021-07-09T08:04:53Z</time>
      </trkpt>
      <trkpt lat="42.45258" lon="-3.01022">
        <ele>649.029</ele>
        <time>2021-07-09T08:06:59Z</time>
      </trkpt>
      <trkpt lat="42.45303" lon="-3.01675">
        <ele>688.052</ele>
        <time>2021-07-09T08:09:59Z</time>
      </trkpt>
      <trkpt lat="42.45296" lon="-3.0174">
        <ele>688.038</ele>
        <time>2021-07-09T08:10:26Z</time>
      </trkpt>
      <trkpt lat="42.45292" lon="-3.01732">
        <ele>688.067</ele>
        <time>2021-07-09T08:10:33Z</time>
      </trkpt>
      <trkpt lat="42.45278" lon="-3.01754">
        <ele>688.045</ele>
        <time>2021-07-09T08:10:54Z</time>
      </trkpt>
      <trkpt lat="42.45269" lon="-3.01799">
        <ele>688.074</ele>
        <time>2021-07-09T08:11:06Z</time>
      </trkpt>
      <trkpt lat="42.45155" lon="-3.02486">
        <ele>688.095</ele>
        <time>2021-07-09T08:14:16Z</time>
      </trkpt>
      <trkpt lat="42.45136" lon="-3.02499">
        <ele>688.049</ele>
        <time>2021-07-09T08:14:54Z</time>
      </trkpt>
      <trkpt lat="42.45115" lon="-3.02596">
        <ele>721.023</ele>
        <time>2021-07-09T08:15:43Z</time>
      </trkpt>
      <trkpt lat="42.44934" lon="-3.02999">
        <ele>721.008</ele>
        <time>2021-07-09T08:20:45Z</time>
      </trkpt>
      <trkpt lat="42.44917" lon="-3.03016">
        <ele>721.046</ele>
        <time>2021-07-09T08:20:56Z</time>
      </trkpt>
      <trkpt lat="42.44897" lon="-3.02983">
        <ele>721.087</ele>
        <time>2021-07-09T08:21:08Z</time>
      </trkpt>
      <trkpt lat="42.44884" lon="-3.02987">
        <ele>721.013</ele>
        <time>2021-07-09T08:21:17Z</time>
      </trkpt>
      <trkpt lat="42.44899" lon="-3.03061">
        <ele>735.096</ele>
        <time>2021-07-09T08:22:45Z</time>
      </trkpt>
      <trkpt lat="42.44862" lon="-3.03214">
        <ele>736.092</ele>
        <time>2021-07-09T08:23:08Z</time>
      </trkpt>
      <trkpt lat="42.44856" lon="-3.03309">
        <ele>736.081</ele>
        <time>2021-07-09T08:23:23Z</time>
      </trkpt>
      <trkpt lat="42.44882" lon="-3.03297">
        <ele>736.019</ele>
        <time>2021-07-09T08:23:30Z</time>
      </trkpt>
      <trkpt lat="42.44901" lon="-3.0331">
        <ele>736.048</ele>
        <time>2021-07-09T08:23:34Z</time>
      </trkpt>
      <trkpt lat="42.45083" lon="-3.03706">
        <ele>736.098</ele>
        <time>2021-07-09T08:24:49Z</time>
      </trkpt>
      <trkpt lat="42.44873" lon="-3.03928">
        <ele>736.015</ele>
        <time>2021-07-09T08:26:14Z</time>
      </trkpt>
      <trkpt lat="42.44852" lon="-3.04006">
        <ele>736.026</ele>
        <time>2021-07-09T08:26:42Z</time>
      </trkpt>
      <trkpt lat="42.44794" lon="-3.04114">
        <ele>736.008</ele>
        <time>2021-07-09T08:27:28Z</time>
      </trkpt>
      <trkpt lat="42.44669" lon="-3.04332">
        <ele>736.046</ele>
        <time>2021-07-09T08:28:53Z</time>
      </trkpt>
      <trkpt lat="42.44528" lon="-3.04535">
        <ele>736.077</ele>
        <time>2021-07-09T08:30:16Z</time>
      </trkpt>
      <trkpt lat="42.44511" lon="-3.04592">
        <ele>736.023</ele>
        <time>2021-07-09T08:34:47Z</time>
      </trkpt>
      <trkpt lat="42.44495" lon="-3.0459">
        <ele>736.046</ele>
        <time>2021-07-09T08:37:17Z</time>
      </trkpt>
      <trkpt lat="42.44496" lon="-3.04639">
        <ele>744.092</ele>
        <time>2021-07-09T08:37:43Z</time>
      </trkpt>
      <trkpt lat="42.44424" lon="-3.04922">
        <ele>744.061</ele>
        <time>2021-07-09T08:38:40Z</time>
      </trkpt>
      <trkpt lat="42.44319" lon="-3.05223">
        <ele>744.039</ele>
        <time>2021-07-09T08:39:54Z</time>
      </trkpt>
      <trkpt lat="42.44029" lon="-3.05729">
        <ele>744.048</ele>
        <time>2021-07-09T08:41:54Z</time>
      </trkpt>
      <trkpt lat="42.43872" lon="-3.06054">
        <ele>744.022</ele>
        <time>2021-07-09T08:43:09Z</time>
      </trkpt>
      <trkpt lat="42.43812" lon="-3.06209">
        <ele>744.062</ele>
        <time>2021-07-09T08:43:40Z</time>
      </trkpt>
      <trkpt lat="42.43822" lon="-3.06237">
        <ele>744.008</ele>
        <time>2021-07-09T08:43:47Z</time>
      </trkpt>
      <trkpt lat="42.4388" lon="-3.06286">
        <ele>744.008</ele>
        <time>2021-07-09T08:44:08Z</time>
      </trkpt>
      <trkpt lat="42.43889" lon="-3.06317">
        <ele>744.039</ele>
        <time>2021-07-09T08:44:15Z</time>
      </trkpt>
      <trkpt lat="42.43833" lon="-3.06509">
        <ele>744.06</ele>
        <time>2021-07-09T08:45:12Z</time>
      </trkpt>
      <trkpt lat="42.4382" lon="-3.06515">
        <ele>741.046</ele>
        <time>2021-07-09T08:46:48Z</time>
      </trkpt>
      <trkpt lat="42.43835" lon="-3.06517">
        <ele>740.089</ele>
        <time>2021-07-09T08:58:08Z</time>
      </trkpt>
      <trkpt lat="42.43771" lon="-3.06669">
        <ele>740.095</ele>
        <time>2021-07-09T09:01:06Z</time>
      </trkpt>
      <trkpt lat="42.43722" lon="-3.06912">
        <ele>740.094</ele>
        <time>2021-07-09T09:02:14Z</time>
      </trkpt>
      <trkpt lat="42.43725" lon="-3.07284">
        <ele>740.012</ele>
        <time>2021-07-09T09:04:03Z</time>
      </trkpt>
      <trkpt lat="42.43765" lon="-3.07954">
        <ele>740.071</ele>
        <time>2021-07-09T09:06:27Z</time>
      </trkpt>
      <trkpt lat="42.43752" lon="-3.07982">
        <ele>740.025</ele>
        <time>2021-07-09T09:06:34Z</time>
      </trkpt>
      <trkpt lat="42.43703" lon="-3.08022">
        <ele>745.026</ele>
        <time>2021-07-09T09:06:57Z</time>
      </trkpt>
      <trkpt lat="42.43715" lon="-3.08174">
        <ele>746.008</ele>
        <time>2021-07-09T09:07:45Z</time>
      </trkpt>
      <trkpt lat="42.43657" lon="-3.08446">
        <ele>746.008</ele>
        <time>2021-07-09T09:08:48Z</time>
      </trkpt>
      <trkpt lat="42.43644" lon="-3.08571">
        <ele>746.089</ele>
        <time>2021-07-09T09:09:50Z</time>
      </trkpt>
      <trkpt lat="42.4364" lon="-3.08532">
        <ele>754.09</ele>
        <time>2021-07-09T09:10:04Z</time>
      </trkpt>
      <trkpt lat="42.43654" lon="-3.08539">
        <ele>765.036</ele>
        <time>2021-07-09T09:10:19Z</time>
      </trkpt>
      <trkpt lat="42.43657" lon="-3.08524">
        <ele>767.029</ele>
        <time>2021-07-09T09:10:27Z</time>
      </trkpt>
      <trkpt lat="42.43648" lon="-3.08528">
        <ele>769.025</ele>
        <time>2021-07-09T09:17:20Z</time>
      </trkpt>
      <trkpt lat="42.43651" lon="-3.08517">
        <ele>769.014</ele>
        <time>2021-07-09T09:19:11Z</time>
      </trkpt>
      <trkpt lat="42.43636" lon="-3.08634">
        <ele>769.062</ele>
        <time>2021-07-09T09:21:00Z</time>
      </trkpt>
      <trkpt lat="42.43663" lon="-3.08664">
        <ele>769.041</ele>
        <time>2021-07-09T09:21:13Z</time>
      </trkpt>
      <trkpt lat="42.43584" lon="-3.08759">
        <ele>769.063</ele>
        <time>2021-07-09T09:21:38Z</time>
      </trkpt>
      <trkpt lat="42.43523" lon="-3.08863">
        <ele>769.044</ele>
        <time>2021-07-09T09:22:02Z</time>
      </trkpt>
      <trkpt lat="42.43407" lon="-3.09305">
        <ele>769.018</ele>
        <time>2021-07-09T09:23:37Z</time>
      </trkpt>
      <trkpt lat="42.43336" lon="-3.09428">
        <ele>758.008</ele>
        <time>2021-07-09T09:24:23Z</time>
      </trkpt>
      <trkpt lat="42.43165" lon="-3.09584">
        <ele>758.023</ele>
        <time>2021-07-09T09:26:23Z</time>
      </trkpt>
      <trkpt lat="42.43066" lon="-3.09739">
        <ele>758.054</ele>
        <time>2021-07-09T09:27:27Z</time>
      </trkpt>
      <trkpt lat="42.43" lon="-3.09816">
        <ele>758.08</ele>
        <time>2021-07-09T09:28:02Z</time>
      </trkpt>
      <trkpt lat="42.42801" lon="-3.09874">
        <ele>758.033</ele>
        <time>2021-07-09T09:29:28Z</time>
      </trkpt>
      <trkpt lat="42.42746" lon="-3.09915">
        <ele>758.099</ele>
        <time>2021-07-09T09:29:45Z</time>
      </trkpt>
      <trkpt lat="42.42628" lon="-3.10101">
        <ele>758.098</ele>
        <time>2021-07-09T09:30:41Z</time>
      </trkpt>
      <trkpt lat="42.4259" lon="-3.10197">
        <ele>758.066</ele>
        <time>2021-07-09T09:31:05Z</time>
      </trkpt>
      <trkpt lat="42.42619" lon="-3.10343">
        <ele>758.055</ele>
        <time>2021-07-09T09:31:36Z</time>
      </trkpt>
      <trkpt lat="42.42699" lon="-3.10462">
        <ele>758.097</ele>
        <time>2021-07-09T09:31:53Z</time>
      </trkpt>
      <trkpt lat="42.4273" lon="-3.10579">
        <ele>758.023</ele>
        <time>2021-07-09T09:32:04Z</time>
      </trkpt>
      <trkpt lat="42.42732" lon="-3.10664">
        <ele>758.025</ele>
        <time>2021-07-09T09:32:11Z</time>
      </trkpt>
      <trkpt lat="42.42702" lon="-3.10842">
        <ele>758.008</ele>
        <time>2021-07-09T09:32:25Z</time>
      </trkpt>
      <trkpt lat="42.4271" lon="-3.10909">
        <ele>758.056</ele>
        <time>2021-07-09T09:32:30Z</time>
      </trkpt>
      <trkpt lat="42.42814" lon="-3.11051">
        <ele>758.047</ele>
        <time>2021-07-09T09:32:44Z</time>
      </trkpt>
      <trkpt lat="42.43004" lon="-3.11179">
        <ele>758.013</ele>
        <time>2021-07-09T09:33:05Z</time>
      </trkpt>
      <trkpt lat="42.4312" lon="-3.11341">
        <ele>758.056</ele>
        <time>2021-07-09T09:33:38Z</time>
      </trkpt>
      <trkpt lat="42.43044" lon="-3.12271">
        <ele>758.082</ele>
        <time>2021-07-09T09:36:55Z</time>
      </trkpt>
      <trkpt lat="42.43111" lon="-3.12791">
        <ele>758.011</ele>
        <time>2021-07-09T09:38:28Z</time>
      </trkpt>
      <trkpt lat="42.43105" lon="-3.12942">
        <ele>758.089</ele>
        <time>2021-07-09T09:39:17Z</time>
      </trkpt>
      <trkpt lat="42.43051" lon="-3.13099">
        <ele>758.068</ele>
        <time>2021-07-09T09:40:13Z</time>
      </trkpt>
      <trkpt lat="42.42892" lon="-3.13307">
        <ele>758.033</ele>
        <time>2021-07-09T09:41:00Z</time>
      </trkpt>
      <trkpt lat="42.42887" lon="-3.13366">
        <ele>758.023</ele>
        <time>2021-07-09T09:41:06Z</time>
      </trkpt>
      <trkpt lat="42.42821" lon="-3.13568">
        <ele>758.015</ele>
        <time>2021-07-09T09:41:35Z</time>
      </trkpt>
      <trkpt lat="42.42769" lon="-3.13583">
        <ele>758.008</ele>
        <time>2021-07-09T09:41:48Z</time>
      </trkpt>
      <trkpt lat="42.42728" lon="-3.13632">
        <ele>758.06</ele>
        <time>2021-07-09T09:42:04Z</time>
      </trkpt>
      <trkpt lat="42.42714" lon="-3.13839">
        <ele>758.071</ele>
        <time>2021-07-09T09:44:07Z</time>
      </trkpt>
      <trkpt lat="42.42685" lon="-3.13943">
        <ele>758.087</ele>
        <time>2021-07-09T09:44:27Z</time>
      </trkpt>
      <trkpt lat="42.42317" lon="-3.15068">
        <ele>758.07</ele>
        <time>2021-07-09T09:47:50Z</time>
      </trkpt>
      <trkpt lat="42.42253" lon="-3.15216">
        <ele>758.066</ele>
        <time>2021-07-09T09:48:25Z</time>
      </trkpt>
      <trkpt lat="42.42245" lon="-3.15302">
        <ele>758.025</ele>
        <time>2021-07-09T09:48:46Z</time>
      </trkpt>
      <trkpt lat="42.42046" lon="-3.15912">
        <ele>758.043</ele>
        <time>2021-07-09T09:50:46Z</time>
      </trkpt>
      <trkpt lat="42.41589" lon="-3.1772">
        <ele>758.062</ele>
        <time>2021-07-09T09:55:40Z</time>
      </trkpt>
      <trkpt lat="42.41577" lon="-3.17852">
        <ele>758.067</ele>
        <time>2021-07-09T09:55:59Z</time>
      </trkpt>
      <trkpt lat="42.4159" lon="-3.17972">
        <ele>759.081</ele>
        <time>2021-07-09T09:56:22Z</time>
      </trkpt>
      <trkpt lat="42.4163" lon="-3.17995">
        <ele>759.019</ele>
        <time>2021-07-09T09:56:46Z</time>
      </trkpt>
      <trkpt lat="42.41708" lon="-3.18083">
        <ele>759.008</ele>
        <time>2021-07-09T09:57:10Z</time>
      </trkpt>
      <trkpt lat="42.41765" lon="-3.18186">
        <ele>759.053</ele>
        <time>2021-07-09T09:57:29Z</time>
      </trkpt>
      <trkpt lat="42.41859" lon="-3.18628">
        <ele>759.024</ele>
        <time>2021-07-09T09:58:31Z</time>
      </trkpt>
      <trkpt lat="42.41928" lon="-3.18715">
        <ele>767.03</ele>
        <time>2021-07-09T09:58:53Z</time>
      </trkpt>
      <trkpt lat="42.41966" lon="-3.18792">
        <ele>781.013</ele>
        <time>2021-07-09T09:59:09Z</time>
      </trkpt>
      <trkpt lat="42.42052" lon="-3.18823">
        <ele>781.029</ele>
        <time>2021-07-09T09:59:37Z</time>
      </trkpt>
      <trkpt lat="42.42078" lon="-3.18851">
        <ele>781.078</ele>
        <time>2021-07-09T09:59:50Z</time>
      </trkpt>
      <trkpt lat="42.42078" lon="-3.18882">
        <ele>774.026</ele>
        <time>2021-07-09T10:00:54Z</time>
      </trkpt>
      <trkpt lat="42.42074" lon="-3.18855">
        <ele>772.055</ele>
        <time>2021-07-09T10:01:21Z</time>
      </trkpt>
      <trkpt lat="42.4206" lon="-3.18853">
        <ele>771.052</ele>
        <time>2021-07-09T10:03:36Z</time>
      </trkpt>
      <trkpt lat="42.42076" lon="-3.18836">
        <ele>771.053</ele>
        <time>2021-07-09T10:03:57Z</time>
      </trkpt>
      <trkpt lat="42.4209" lon="-3.18865">
        <ele>771.008</ele>
        <time>2021-07-09T10:04:21Z</time>
      </trkpt>
      <trkpt lat="42.42089" lon="-3.18845">
        <ele>772.008</ele>
        <time>2021-07-09T10:05:18Z</time>
      </trkpt>
      <trkpt lat="42.42064" lon="-3.18874">
        <ele>771.062</ele>
        <time>2021-07-09T10:05:53Z</time>
      </trkpt>
      <trkpt lat="42.42065" lon="-3.1886">
        <ele>771.093</ele>
        <time>2021-07-09T10:07:46Z</time>
      </trkpt>
      <trkpt lat="42.42075" lon="-3.18858">
        <ele>771.059</ele>
        <time>2021-07-09T10:08:38Z</time>
      </trkpt>
      <trkpt lat="42.42082" lon="-3.18905">
        <ele>771.082</ele>
        <time>2021-07-09T10:12:11Z</time>
      </trkpt>
      <trkpt lat="42.42149" lon="-3.18903">
        <ele>771.058</ele>
        <time>2021-07-09T10:12:33Z</time>
      </trkpt>
      <trkpt lat="42.42139" lon="-3.1895">
        <ele>768.087</ele>
        <time>2021-07-09T10:12:44Z</time>
      </trkpt>
      <trkpt lat="42.42151" lon="-3.18971">
        <ele>767.055</ele>
        <time>2021-07-09T10:12:56Z</time>
      </trkpt>
      <trkpt lat="42.4207" lon="-3.19144">
        <ele>766.094</ele>
        <time>2021-07-09T10:14:13Z</time>
      </trkpt>
      <trkpt lat="42.42076" lon="-3.19175">
        <ele>766.046</ele>
        <time>2021-07-09T10:14:23Z</time>
      </trkpt>
      <trkpt lat="42.42031" lon="-3.19261">
        <ele>766.088</ele>
        <time>2021-07-09T10:14:45Z</time>
      </trkpt>
      <trkpt lat="42.42001" lon="-3.19372">
        <ele>766.016</ele>
        <time>2021-07-09T10:15:21Z</time>
      </trkpt>
      <trkpt lat="42.41887" lon="-3.19562">
        <ele>766.008</ele>
        <time>2021-07-09T10:16:25Z</time>
      </trkpt>
      <trkpt lat="42.41814" lon="-3.19945">
        <ele>766.051</ele>
        <time>2021-07-09T10:18:05Z</time>
      </trkpt>
      <trkpt lat="42.41769" lon="-3.20089">
        <ele>766.032</ele>
        <time>2021-07-09T10:18:48Z</time>
      </trkpt>
      <trkpt lat="42.41767" lon="-3.20128">
        <ele>766.048</ele>
        <time>2021-07-09T10:19:04Z</time>
      </trkpt>
      <trkpt lat="42.41847" lon="-3.20321">
        <ele>766.071</ele>
        <time>2021-07-09T10:19:53Z</time>
      </trkpt>
      <trkpt lat="42.41853" lon="-3.20418">
        <ele>766.067</ele>
        <time>2021-07-09T10:20:16Z</time>
      </trkpt>
      <trkpt lat="42.41803" lon="-3.20539">
        <ele>766.046</ele>
        <time>2021-07-09T10:20:53Z</time>
      </trkpt>
      <trkpt lat="42.41754" lon="-3.20606">
        <ele>768.054</ele>
        <time>2021-07-09T10:22:29Z</time>
      </trkpt>
      <trkpt lat="42.41752" lon="-3.20579">
        <ele>773.083</ele>
        <time>2021-07-09T10:24:58Z</time>
      </trkpt>
      <trkpt lat="42.4168" lon="-3.20713">
        <ele>773.058</ele>
        <time>2021-07-09T10:25:34Z</time>
      </trkpt>
      <trkpt lat="42.41589" lon="-3.21027">
        <ele>773.052</ele>
        <time>2021-07-09T10:26:43Z</time>
      </trkpt>
      <trkpt lat="42.41504" lon="-3.21174">
        <ele>773.017</ele>
        <time>2021-07-09T10:27:20Z</time>
      </trkpt>
      <trkpt lat="42.41429" lon="-3.21483">
        <ele>773.008</ele>
        <time>2021-07-09T10:28:22Z</time>
      </trkpt>
      <trkpt lat="42.41355" lon="-3.21641">
        <ele>773.052</ele>
        <time>2021-07-09T10:28:53Z</time>
      </trkpt>
      <trkpt lat="42.41284" lon="-3.21868">
        <ele>773.013</ele>
        <time>2021-07-09T10:29:35Z</time>
      </trkpt>
      <trkpt lat="42.41234" lon="-3.22404">
        <ele>773.069</ele>
        <time>2021-07-09T10:31:05Z</time>
      </trkpt>
      <trkpt lat="42.41144" lon="-3.22795">
        <ele>773.012</ele>
        <time>2021-07-09T10:32:09Z</time>
      </trkpt>
      <trkpt lat="42.41124" lon="-3.23036">
        <ele>773.018</ele>
        <time>2021-07-09T10:32:47Z</time>
      </trkpt>
      <trkpt lat="42.41146" lon="-3.23344">
        <ele>773.087</ele>
        <time>2021-07-09T10:33:36Z</time>
      </trkpt>
      <trkpt lat="42.41215" lon="-3.23565">
        <ele>773.025</ele>
        <time>2021-07-09T10:34:17Z</time>
      </trkpt>
      <trkpt lat="42.41289" lon="-3.24235">
        <ele>773.074</ele>
        <time>2021-07-09T10:36:35Z</time>
      </trkpt>
      <trkpt lat="42.41319" lon="-3.24403">
        <ele>773.089</ele>
        <time>2021-07-09T10:38:18Z</time>
      </trkpt>
      <trkpt lat="42.4129" lon="-3.24408">
        <ele>773.006</ele>
        <time>2021-07-09T10:38:44Z</time>
      </trkpt>
      <trkpt lat="42.41254" lon="-3.24454">
        <ele>809.026</ele>
        <time>2021-07-09T10:39:08Z</time>
      </trkpt>
      <trkpt lat="42.41151" lon="-3.24683">
        <ele>818.008</ele>
        <time>2021-07-09T10:40:26Z</time>
      </trkpt>
      <trkpt lat="42.40866" lon="-3.25165">
        <ele>818.065</ele>
        <time>2021-07-09T10:42:28Z</time>
      </trkpt>
      <trkpt lat="42.40649" lon="-3.25413">
        <ele>818.026</ele>
        <time>2021-07-09T10:43:21Z</time>
      </trkpt>
      <trkpt lat="42.40473" lon="-3.25905">
        <ele>818.062</ele>
        <time>2021-07-09T10:44:58Z</time>
      </trkpt>
      <trkpt lat="42.40467" lon="-3.26116">
        <ele>818.025</ele>
        <time>2021-07-09T10:47:02Z</time>
      </trkpt>
      <trkpt lat="42.40442" lon="-3.26192">
        <ele>818.011</ele>
        <time>2021-07-09T10:47:20Z</time>
      </trkpt>
      <trkpt lat="42.40475" lon="-3.26326">
        <ele>818.06</ele>
        <time>2021-07-09T10:47:48Z</time>
      </trkpt>
      <trkpt lat="42.40442" lon="-3.2643">
        <ele>818.058</ele>
        <time>2021-07-09T10:48:11Z</time>
      </trkpt>
      <trkpt lat="42.40459" lon="-3.26566">
        <ele>818.087</ele>
        <time>2021-07-09T10:48:39Z</time>
      </trkpt>
      <trkpt lat="42.40466" lon="-3.27265">
        <ele>818.094</ele>
        <time>2021-07-09T10:51:08Z</time>
      </trkpt>
      <trkpt lat="42.40501" lon="-3.27407">
        <ele>818.057</ele>
        <time>2021-07-09T10:51:28Z</time>
      </trkpt>
      <trkpt lat="42.40504" lon="-3.27581">
        <ele>818.022</ele>
        <time>2021-07-09T10:52:11Z</time>
      </trkpt>
      <trkpt lat="42.40523" lon="-3.27665">
        <ele>818.008</ele>
        <time>2021-07-09T10:52:45Z</time>
      </trkpt>
      <trkpt lat="42.40513" lon="-3.27814">
        <ele>818.026</ele>
        <time>2021-07-09T10:53:27Z</time>
      </trkpt>
      <trkpt lat="42.40532" lon="-3.27854">
        <ele>818.057</ele>
        <time>2021-07-09T10:53:39Z</time>
      </trkpt>
      <trkpt lat="42.40574" lon="-3.28075">
        <ele>818.053</ele>
        <time>2021-07-09T10:54:39Z</time>
      </trkpt>
      <trkpt lat="42.40572" lon="-3.28145">
        <ele>818.076</ele>
        <time>2021-07-09T10:54:54Z</time>
      </trkpt>
      <trkpt lat="42.40639" lon="-3.28196">
        <ele>818.012</ele>
        <time>2021-07-09T10:55:16Z</time>
      </trkpt>
      <trkpt lat="42.40507" lon="-3.28386">
        <ele>818.041</ele>
        <time>2021-07-09T10:55:57Z</time>
      </trkpt>
      <trkpt lat="42.40417" lon="-3.28803">
        <ele>818.089</ele>
        <time>2021-07-09T11:08:19Z</time>
      </trkpt>
      <trkpt lat="42.40431" lon="-3.28936">
        <ele>818.018</ele>
        <time>2021-07-09T11:09:03Z</time>
      </trkpt>
      <trkpt lat="42.40406" lon="-3.29132">
        <ele>818.041</ele>
        <time>2021-07-09T11:09:58Z</time>
      </trkpt>
      <trkpt lat="42.40322" lon="-3.29361">
        <ele>818.081</ele>
        <time>2021-07-09T11:10:56Z</time>
      </trkpt>
      <trkpt lat="42.40144" lon="-3.30093">
        <ele>818.009</ele>
        <time>2021-07-09T11:13:00Z</time>
      </trkpt>
      <trkpt lat="42.39669" lon="-3.30285">
        <ele>818.008</ele>
        <time>2021-07-09T11:14:45Z</time>
      </trkpt>
      <trkpt lat="42.39633" lon="-3.30278">
        <ele>818.041</ele>
        <time>2021-07-09T11:14:53Z</time>
      </trkpt>
      <trkpt lat="42.39575" lon="-3.30217">
        <ele>818.052</ele>
        <time>2021-07-09T11:15:17Z</time>
      </trkpt>
      <trkpt lat="42.39225" lon="-3.30511">
        <ele>818.058</ele>
        <time>2021-07-09T11:16:54Z</time>
      </trkpt>
      <trkpt lat="42.39135" lon="-3.30638">
        <ele>818.061</ele>
        <time>2021-07-09T11:18:02Z</time>
      </trkpt>
      <trkpt lat="42.39101" lon="-3.30663">
        <ele>818.087</ele>
        <time>2021-07-09T11:18:41Z</time>
      </trkpt>
      <trkpt lat="42.39044" lon="-3.30775">
        <ele>850.086</ele>
        <time>2021-07-09T11:19:27Z</time>
      </trkpt>
      <trkpt lat="42.38905" lon="-3.30864">
        <ele>957.074</ele>
        <time>2021-07-09T21:40:08Z</time>
      </trkpt>
      <trkpt lat="42.38887" lon="-3.30917">
        <ele>957.093</ele>
        <time>2021-07-09T21:35:59Z</time>
      </trkpt>
      <trkpt lat="42.38807" lon="-3.3098">
        <ele>962.046</ele>
        <time>2021-07-09T21:36:13Z</time>
      </trkpt>
      <trkpt lat="42.38834" lon="-3.31042">
        <ele>963.088</ele>
        <time>2021-07-09T21:36:14Z</time>
      </trkpt>
      <trkpt lat="42.38769" lon="-3.31125">
        <ele>977.016</ele>
        <time>2021-07-09T21:36:15Z</time>
      </trkpt>
      <trkpt lat="42.3881" lon="-3.31262">
        <ele>990.008</ele>
        <time>2021-07-09T21:36:38Z</time>
      </trkpt>
      <trkpt lat="42.38803" lon="-3.31344">
        <ele>992.021</ele>
        <time>2021-07-09T21:36:38Z</time>
      </trkpt>
      <trkpt lat="42.3886" lon="-3.31581">
        <ele>1017.012</ele>
        <time>2021-07-09T21:41:09Z</time>
      </trkpt>
      <trkpt lat="42.3879" lon="-3.31877">
        <ele>1055.058</ele>
        <time>2021-07-09T21:37:10Z</time>
      </trkpt>
      <trkpt lat="42.38672" lon="-3.32193">
        <ele>1077.041</ele>
        <time>2021-07-09T21:37:10Z</time>
      </trkpt>
      <trkpt lat="42.38636" lon="-3.32251">
        <ele>1075.047</ele>
        <time>2021-07-09T21:37:10Z</time>
      </trkpt>
      <trkpt lat="42.38575" lon="-3.32519">
        <ele>1088.066</ele>
        <time>2021-07-09T21:37:26Z</time>
      </trkpt>
      <trkpt lat="42.38549" lon="-3.32529">
        <ele>1091.094</ele>
        <time>2021-07-09T21:37:26Z</time>
      </trkpt>
      <trkpt lat="42.38479" lon="-3.32502">
        <ele>1101.093</ele>
        <time>2021-07-09T21:37:26Z</time>
      </trkpt>
      <trkpt lat="42.38404" lon="-3.32545">
        <ele>1117.083</ele>
        <time>2021-07-09T21:37:30Z</time>
      </trkpt>
      <trkpt lat="42.38366" lon="-3.32614">
        <ele>1122.025</ele>
        <time>2021-07-09T21:37:30Z</time>
      </trkpt>
      <trkpt lat="42.38287" lon="-3.32691">
        <ele>1133.017</ele>
        <time>2021-07-09T21:37:30Z</time>
      </trkpt>
      <trkpt lat="42.38145" lon="-3.329">
        <ele>1148.008</ele>
        <time>2021-07-09T21:37:32Z</time>
      </trkpt>
      <trkpt lat="42.3801" lon="-3.3301">
        <ele>1151.025</ele>
        <time>2021-07-09T21:37:33Z</time>
      </trkpt>
      <trkpt lat="42.37882" lon="-3.33174">
        <ele>1160.086</ele>
        <time>2021-07-09T21:37:35Z</time>
      </trkpt>
      <trkpt lat="42.37815" lon="-3.3324">
        <ele>1150.062</ele>
        <time>2021-07-09T21:37:35Z</time>
      </trkpt>
      <trkpt lat="42.37627" lon="-3.33542">
        <ele>1143.065</ele>
        <time>2021-07-09T21:37:38Z</time>
      </trkpt>
      <trkpt lat="42.37482" lon="-3.337">
        <ele>1162.091</ele>
        <time>2021-07-09T21:37:38Z</time>
      </trkpt>
      <trkpt lat="42.37313" lon="-3.34133">
        <ele>1157.04</ele>
        <time>2021-07-09T21:38:08Z</time>
      </trkpt>
      <trkpt lat="42.37033" lon="-3.34761">
        <ele>1134.018</ele>
        <time>2021-07-09T21:38:26Z</time>
      </trkpt>
      <trkpt lat="42.36989" lon="-3.34826">
        <ele>1138.087</ele>
        <time>2021-07-09T21:38:26Z</time>
      </trkpt>
      <trkpt lat="42.36901" lon="-3.3488">
        <ele>1134.046</ele>
        <time>2021-07-09T21:38:28Z</time>
      </trkpt>
      <trkpt lat="42.36798" lon="-3.35014">
        <ele>1148.088</ele>
        <time>2021-07-09T21:38:28Z</time>
      </trkpt>
      <trkpt lat="42.36645" lon="-3.35385">
        <ele>1152.016</ele>
        <time>2021-07-09T21:38:31Z</time>
      </trkpt>
      <trkpt lat="42.36595" lon="-3.35821">
        <ele>1149.008</ele>
        <time>2021-07-09T21:38:35Z</time>
      </trkpt>
      <trkpt lat="42.36611" lon="-3.36002">
        <ele>1152.031</ele>
        <time>2021-07-09T21:38:35Z</time>
      </trkpt>
      <trkpt lat="42.36612" lon="-3.36358">
        <ele>1144.022</ele>
        <time>2021-07-09T21:38:35Z</time>
      </trkpt>
      <trkpt lat="42.36638" lon="-3.36559">
        <ele>1142.098</ele>
        <time>2021-07-09T21:38:41Z</time>
      </trkpt>
      <trkpt lat="42.36697" lon="-3.36782">
        <ele>1132.031</ele>
        <time>2021-07-09T21:38:41Z</time>
      </trkpt>
      <trkpt lat="42.36866" lon="-3.37094">
        <ele>1125.047</ele>
        <time>2021-07-09T21:38:41Z</time>
      </trkpt>
      <trkpt lat="42.36908" lon="-3.37343">
        <ele>1126.016</ele>
        <time>2021-07-09T21:38:43Z</time>
      </trkpt>
      <trkpt lat="42.36952" lon="-3.37475">
        <ele>1119.054</ele>
        <time>2021-07-09T21:38:43Z</time>
      </trkpt>
      <trkpt lat="42.36955" lon="-3.3756">
        <ele>1147.093</ele>
        <time>2021-07-09T12:57:56Z</time>
      </trkpt>
      <trkpt lat="42.36977" lon="-3.3759">
        <ele>1147.024</ele>
        <time>2021-07-09T12:58:04Z</time>
      </trkpt>
      <trkpt lat="42.37004" lon="-3.3796">
        <ele>1147.004</ele>
        <time>2021-07-09T12:59:17Z</time>
      </trkpt>
      <trkpt lat="42.37046" lon="-3.38113">
        <ele>1147.014</ele>
        <time>2021-07-09T12:59:47Z</time>
      </trkpt>
      <trkpt lat="42.3718" lon="-3.38451">
        <ele>1147.008</ele>
        <time>2021-07-09T13:00:59Z</time>
      </trkpt>
      <trkpt lat="42.37189" lon="-3.38492">
        <ele>1147.049</ele>
        <time>2021-07-09T13:01:09Z</time>
      </trkpt>
      <trkpt lat="42.37173" lon="-3.38482">
        <ele>1147.08</ele>
        <time>2021-07-09T13:02:11Z</time>
      </trkpt>
      <trkpt lat="42.37195" lon="-3.38509">
        <ele>1147.036</ele>
        <time>2021-07-09T13:02:56Z</time>
      </trkpt>
      <trkpt lat="42.37281" lon="-3.38801">
        <ele>1147.049</ele>
        <time>2021-07-09T13:03:57Z</time>
      </trkpt>
      <trkpt lat="42.37411" lon="-3.39154">
        <ele>1147.095</ele>
        <time>2021-07-09T13:05:05Z</time>
      </trkpt>
      <trkpt lat="42.37429" lon="-3.39426">
        <ele>1147.074</ele>
        <time>2021-07-09T13:05:52Z</time>
      </trkpt>
      <trkpt lat="42.37492" lon="-3.3966">
        <ele>1147.012</ele>
        <time>2021-07-09T13:06:30Z</time>
      </trkpt>
      <trkpt lat="42.37728" lon="-3.41015">
        <ele>1147.061</ele>
        <time>2021-07-09T13:09:19Z</time>
      </trkpt>
      <trkpt lat="42.37721" lon="-3.41291">
        <ele>1147.068</ele>
        <time>2021-07-09T13:09:43Z</time>
      </trkpt>
      <trkpt lat="42.37784" lon="-3.41683">
        <ele>1147.042</ele>
        <time>2021-07-09T13:10:40Z</time>
      </trkpt>
      <trkpt lat="42.37792" lon="-3.41822">
        <ele>1147.026</ele>
        <time>2021-07-09T13:11:04Z</time>
      </trkpt>
      <trkpt lat="42.3776" lon="-3.42053">
        <ele>1147.008</ele>
        <time>2021-07-09T13:12:32Z</time>
      </trkpt>
      <trkpt lat="42.37769" lon="-3.42141">
        <ele>1147.063</ele>
        <time>2021-07-09T13:14:47Z</time>
      </trkpt>
      <trkpt lat="42.3777" lon="-3.42128">
        <ele>1147.044</ele>
        <time>2021-07-09T13:15:25Z</time>
      </trkpt>
      <trkpt lat="42.37761" lon="-3.4221">
        <ele>1147.01</ele>
        <time>2021-07-09T13:16:42Z</time>
      </trkpt>
      <trkpt lat="42.37776" lon="-3.42283">
        <ele>1147.093</ele>
        <time>2021-07-09T13:16:54Z</time>
      </trkpt>
      <trkpt lat="42.37737" lon="-3.42618">
        <ele>1147.039</ele>
        <time>2021-07-09T13:17:41Z</time>
      </trkpt>
      <trkpt lat="42.37743" lon="-3.42928">
        <ele>1147.018</ele>
        <time>2021-07-09T13:18:24Z</time>
      </trkpt>
      <trkpt lat="42.37713" lon="-3.43046">
        <ele>1147.076</ele>
        <time>2021-07-09T13:18:38Z</time>
      </trkpt>
      <trkpt lat="42.37687" lon="-3.43251">
        <ele>1147.025</ele>
        <time>2021-07-09T13:19:06Z</time>
      </trkpt>
      <trkpt lat="42.37651" lon="-3.43332">
        <ele>1147.023</ele>
        <time>2021-07-09T13:19:23Z</time>
      </trkpt>
      <trkpt lat="42.37599" lon="-3.43399">
        <ele>1147.083</ele>
        <time>2021-07-09T13:19:42Z</time>
      </trkpt>
      <trkpt lat="42.37565" lon="-3.43663">
        <ele>1147.011</ele>
        <time>2021-07-09T13:20:25Z</time>
      </trkpt>
      <trkpt lat="42.37585" lon="-3.43749">
        <ele>1147.008</ele>
        <time>2021-07-09T13:20:50Z</time>
      </trkpt>
      <trkpt lat="42.37587" lon="-3.43735">
        <ele>1147.099</ele>
        <time>2021-07-09T13:20:56Z</time>
      </trkpt>
      <trkpt lat="42.3763" lon="-3.44094">
        <ele>1055.01</ele>
        <time>2021-07-09T13:22:23Z</time>
      </trkpt>
      <trkpt lat="42.37598" lon="-3.44136">
        <ele>1027.046</ele>
        <time>2021-07-09T13:22:37Z</time>
      </trkpt>
      <trkpt lat="42.37385" lon="-3.44115">
        <ele>1002.079</ele>
        <time>2021-07-09T13:26:27Z</time>
      </trkpt>
      <trkpt lat="42.37202" lon="-3.44159">
        <ele>1002.045</ele>
        <time>2021-07-09T13:27:40Z</time>
      </trkpt>
      <trkpt lat="42.37083" lon="-3.44243">
        <ele>1002.054</ele>
        <time>2021-07-09T13:28:24Z</time>
      </trkpt>
      <trkpt lat="42.37042" lon="-3.44284">
        <ele>1002.042</ele>
        <time>2021-07-09T13:28:40Z</time>
      </trkpt>
      <trkpt lat="42.3691" lon="-3.44482">
        <ele>1002.041</ele>
        <time>2021-07-09T13:32:31Z</time>
      </trkpt>
      <trkpt lat="42.36769" lon="-3.44604">
        <ele>1002.083</ele>
        <time>2021-07-09T13:33:09Z</time>
      </trkpt>
      <trkpt lat="42.36727" lon="-3.44799">
        <ele>1002.025</ele>
        <time>2021-07-09T13:33:26Z</time>
      </trkpt>
      <trkpt lat="42.36639" lon="-3.44965">
        <ele>1002.017</ele>
        <time>2021-07-09T13:33:42Z</time>
      </trkpt>
      <trkpt lat="42.36491" lon="-3.45101">
        <ele>1002.008</ele>
        <time>2021-07-09T13:34:01Z</time>
      </trkpt>
      <trkpt lat="42.36408" lon="-3.45158">
        <ele>1002.015</ele>
        <time>2021-07-09T13:34:10Z</time>
      </trkpt>
      <trkpt lat="42.36151" lon="-3.45281">
        <ele>1002.056</ele>
        <time>2021-07-09T13:34:34Z</time>
      </trkpt>
      <trkpt lat="42.35936" lon="-3.45685">
        <ele>1002.022</ele>
        <time>2021-07-09T13:35:52Z</time>
      </trkpt>
      <trkpt lat="42.35835" lon="-3.45814">
        <ele>1002.055</ele>
        <time>2021-07-09T13:36:13Z</time>
      </trkpt>
      <trkpt lat="42.35714" lon="-3.46029">
        <ele>1002.031</ele>
        <time>2021-07-09T13:36:56Z</time>
      </trkpt>
      <trkpt lat="42.35684" lon="-3.46151">
        <ele>1002.07</ele>
        <time>2021-07-09T13:37:12Z</time>
      </trkpt>
      <trkpt lat="42.35614" lon="-3.46187">
        <ele>982.058</ele>
        <time>2021-07-09T20:22:14Z</time>
      </trkpt>
      <trkpt lat="42.35724" lon="-3.46291">
        <ele>1002.037</ele>
        <time>2021-07-09T13:39:22Z</time>
      </trkpt>
      <trkpt lat="42.35721" lon="-3.4631">
        <ele>1002.056</ele>
        <time>2021-07-09T13:39:26Z</time>
      </trkpt>
      <trkpt lat="42.35646" lon="-3.46369">
        <ele>975.059</ele>
        <time>2021-07-09T20:21:31Z</time>
      </trkpt>
      <trkpt lat="42.35292" lon="-3.46851">
        <ele>991.014</ele>
        <time>2021-07-09T13:44:46Z</time>
      </trkpt>
      <trkpt lat="42.35141" lon="-3.47001">
        <ele>991.008</ele>
        <time>2021-07-09T13:45:52Z</time>
      </trkpt>
      <trkpt lat="42.35011" lon="-3.47332">
        <ele>991.082</ele>
        <time>2021-07-09T13:46:53Z</time>
      </trkpt>
      <trkpt lat="42.34926" lon="-3.47425">
        <ele>991.063</ele>
        <time>2021-07-09T13:47:18Z</time>
      </trkpt>
      <trkpt lat="42.34881" lon="-3.47598">
        <ele>1009.079</ele>
        <time>2021-07-09T13:48:18Z</time>
      </trkpt>
      <trkpt lat="42.34855" lon="-3.47599">
        <ele>1010.042</ele>
        <time>2021-07-09T13:48:35Z</time>
      </trkpt>
      <trkpt lat="42.34759" lon="-3.48291">
        <ele>1010.088</ele>
        <time>2021-07-09T13:50:33Z</time>
      </trkpt>
      <trkpt lat="42.34673" lon="-3.48583">
        <ele>1009.057</ele>
        <time>2021-07-09T13:51:15Z</time>
      </trkpt>
      <trkpt lat="42.34607" lon="-3.48903">
        <ele>1007.035</ele>
        <time>2021-07-09T13:52:41Z</time>
      </trkpt>
      <trkpt lat="42.34558" lon="-3.48995">
        <ele>1007.084</ele>
        <time>2021-07-09T13:52:54Z</time>
      </trkpt>
      <trkpt lat="42.34207" lon="-3.49934">
        <ele>1007.092</ele>
        <time>2021-07-09T13:54:56Z</time>
      </trkpt>
      <trkpt lat="42.33981" lon="-3.50724">
        <ele>1007.073</ele>
        <time>2021-07-09T13:56:41Z</time>
      </trkpt>
      <trkpt lat="42.33959" lon="-3.50753">
        <ele>1007.02</ele>
        <time>2021-07-09T13:56:48Z</time>
      </trkpt>
      <trkpt lat="42.33923" lon="-3.50757">
        <ele>1007.008</ele>
        <time>2021-07-09T13:56:58Z</time>
      </trkpt>
      <trkpt lat="42.33709" lon="-3.50993">
        <ele>983.076</ele>
        <time>2021-07-09T13:58:10Z</time>
      </trkpt>
      <trkpt lat="42.33637" lon="-3.51206">
        <ele>961.037</ele>
        <time>2021-07-09T13:58:50Z</time>
      </trkpt>
      <trkpt lat="42.33603" lon="-3.51235">
        <ele>961.083</ele>
        <time>2021-07-09T13:59:02Z</time>
      </trkpt>
      <trkpt lat="42.33602" lon="-3.51331">
        <ele>961.036</ele>
        <time>2021-07-09T13:59:20Z</time>
      </trkpt>
      <trkpt lat="42.33207" lon="-3.52714">
        <ele>961.062</ele>
        <time>2021-07-09T14:02:48Z</time>
      </trkpt>
      <trkpt lat="42.33173" lon="-3.53074">
        <ele>961.041</ele>
        <time>2021-07-09T14:03:29Z</time>
      </trkpt>
      <trkpt lat="42.33149" lon="-3.53156">
        <ele>961.019</ele>
        <time>2021-07-09T14:03:44Z</time>
      </trkpt>
      <trkpt lat="42.33171" lon="-3.53204">
        <ele>939.068</ele>
        <time>2021-07-09T14:04:06Z</time>
      </trkpt>
      <trkpt lat="42.33165" lon="-3.53588">
        <ele>930.081</ele>
        <time>2021-07-09T14:08:53Z</time>
      </trkpt>
      <trkpt lat="42.33375" lon="-3.56821">
        <ele>927.061</ele>
        <time>2021-07-09T14:16:30Z</time>
      </trkpt>
      <trkpt lat="42.334" lon="-3.56974">
        <ele>927.017</ele>
        <time>2021-07-09T14:16:49Z</time>
      </trkpt>
      <trkpt lat="42.33422" lon="-3.57011">
        <ele>927.008</ele>
        <time>2021-07-09T14:16:56Z</time>
      </trkpt>
      <trkpt lat="42.33424" lon="-3.57114">
        <ele>927.085</ele>
        <time>2021-07-09T14:17:11Z</time>
      </trkpt>
      <trkpt lat="42.33502" lon="-3.57579">
        <ele>927.096</ele>
        <time>2021-07-09T14:18:08Z</time>
      </trkpt>
      <trkpt lat="42.33766" lon="-3.59063">
        <ele>927.082</ele>
        <time>2021-07-09T14:21:24Z</time>
      </trkpt>
      <trkpt lat="42.33865" lon="-3.59521">
        <ele>927.085</ele>
        <time>2021-07-09T14:22:29Z</time>
      </trkpt>
      <trkpt lat="42.34093" lon="-3.60927">
        <ele>927.041</ele>
        <time>2021-07-09T14:25:45Z</time>
      </trkpt>
      <trkpt lat="42.34293" lon="-3.61983">
        <ele>886.08</ele>
        <time>2021-07-09T14:28:52Z</time>
      </trkpt>
      <trkpt lat="42.34387" lon="-3.62562">
        <ele>884.088</ele>
        <time>2021-07-09T14:30:23Z</time>
      </trkpt>
      <trkpt lat="42.34377" lon="-3.62744">
        <ele>882.067</ele>
        <time>2021-07-09T14:32:59Z</time>
      </trkpt>
      <trkpt lat="42.3432" lon="-3.62719">
        <ele>882.027</ele>
        <time>2021-07-09T14:33:42Z</time>
      </trkpt>
      <trkpt lat="42.34155" lon="-3.62721">
        <ele>883.068</ele>
        <time>2021-07-09T14:34:19Z</time>
      </trkpt>
      <trkpt lat="42.34091" lon="-3.6296">
        <ele>883.014</ele>
        <time>2021-07-09T14:35:03Z</time>
      </trkpt>
      <trkpt lat="42.34042" lon="-3.62957">
        <ele>880.008</ele>
        <time>2021-07-09T14:35:26Z</time>
      </trkpt>
      <trkpt lat="42.33998" lon="-3.62994">
        <ele>880.039</ele>
        <time>2021-07-09T14:35:44Z</time>
      </trkpt>
      <trkpt lat="42.33941" lon="-3.63004">
        <ele>880.05</ele>
        <time>2021-07-09T14:36:00Z</time>
      </trkpt>
      <trkpt lat="42.3393" lon="-3.63022">
        <ele>880.036</ele>
        <time>2021-07-09T14:36:05Z</time>
      </trkpt>
      <trkpt lat="42.33992" lon="-3.63309">
        <ele>880.099</ele>
        <time>2021-07-09T14:39:35Z</time>
      </trkpt>
      <trkpt lat="42.34092" lon="-3.63543">
        <ele>880.015</ele>
        <time>2021-07-09T14:40:26Z</time>
      </trkpt>
      <trkpt lat="42.34141" lon="-3.636">
        <ele>880.064</ele>
        <time>2021-07-09T14:40:45Z</time>
      </trkpt>
      <trkpt lat="42.34125" lon="-3.6368">
        <ele>880.042</ele>
        <time>2021-07-09T14:41:16Z</time>
      </trkpt>
      <trkpt lat="42.34099" lon="-3.63698">
        <ele>880.061</ele>
        <time>2021-07-09T14:41:28Z</time>
      </trkpt>
      <trkpt lat="42.34106" lon="-3.63775">
        <ele>880.061</ele>
        <time>2021-07-09T14:41:45Z</time>
      </trkpt>
      <trkpt lat="42.34195" lon="-3.64109">
        <ele>880.021</ele>
        <time>2021-07-09T14:42:51Z</time>
      </trkpt>
      <trkpt lat="42.34191" lon="-3.64254">
        <ele>880.013</ele>
        <time>2021-07-09T14:43:24Z</time>
      </trkpt>
      <trkpt lat="42.34225" lon="-3.64324">
        <ele>880.008</ele>
        <time>2021-07-09T14:43:44Z</time>
      </trkpt>
      <trkpt lat="42.34142" lon="-3.64491">
        <ele>880.073</ele>
        <time>2021-07-09T14:44:31Z</time>
      </trkpt>
      <trkpt lat="42.34157" lon="-3.64679">
        <ele>893.014</ele>
        <time>2021-07-09T14:45:10Z</time>
      </trkpt>
      <trkpt lat="42.34146" lon="-3.6491">
        <ele>894.02</ele>
        <time>2021-07-09T14:46:05Z</time>
      </trkpt>
      <trkpt lat="42.34168" lon="-3.65122">
        <ele>876.023</ele>
        <time>2021-07-09T14:46:52Z</time>
      </trkpt>
      <trkpt lat="42.3424" lon="-3.65514">
        <ele>871.039</ele>
        <time>2021-07-09T14:47:52Z</time>
      </trkpt>
      <trkpt lat="42.34239" lon="-3.65794">
        <ele>871.088</ele>
        <time>2021-07-09T14:48:38Z</time>
      </trkpt>
      <trkpt lat="42.34289" lon="-3.65944">
        <ele>871.096</ele>
        <time>2021-07-09T14:48:59Z</time>
      </trkpt>
      <trkpt lat="42.34281" lon="-3.66128">
        <ele>870.075</ele>
        <time>2021-07-09T14:49:26Z</time>
      </trkpt>
      <trkpt lat="42.34254" lon="-3.6625">
        <ele>869.092</ele>
        <time>2021-07-09T14:49:47Z</time>
      </trkpt>
      <trkpt lat="42.34281" lon="-3.66432">
        <ele>869.073</ele>
        <time>2021-07-09T14:50:21Z</time>
      </trkpt>
      <trkpt lat="42.34341" lon="-3.66554">
        <ele>869.02</ele>
        <time>2021-07-09T14:50:43Z</time>
      </trkpt>
      <trkpt lat="42.34376" lon="-3.66568">
        <ele>869.008</ele>
        <time>2021-07-09T14:50:53Z</time>
      </trkpt>
      <trkpt lat="42.34415" lon="-3.66813">
        <ele>869.066</ele>
        <time>2021-07-09T14:51:28Z</time>
      </trkpt>
      <trkpt lat="42.34384" lon="-3.67113">
        <ele>869.097</ele>
        <time>2021-07-09T14:52:10Z</time>
      </trkpt>
      <trkpt lat="42.34349" lon="-3.67212">
        <ele>869.033</ele>
        <time>2021-07-09T14:52:31Z</time>
      </trkpt>
      <trkpt lat="42.34354" lon="-3.67304">
        <ele>869.076</ele>
        <time>2021-07-09T14:52:45Z</time>
      </trkpt>
      <trkpt lat="42.34334" lon="-3.67507">
        <ele>869.022</ele>
        <time>2021-07-09T14:53:17Z</time>
      </trkpt>
      <trkpt lat="42.34309" lon="-3.67559">
        <ele>869.011</ele>
        <time>2021-07-09T14:53:24Z</time>
      </trkpt>
      <trkpt lat="42.34266" lon="-3.67581">
        <ele>869.049</ele>
        <time>2021-07-09T14:53:36Z</time>
      </trkpt>
      <trkpt lat="42.34226" lon="-3.67821">
        <ele>863.078</ele>
        <time>2021-07-09T14:54:43Z</time>
      </trkpt>
      <trkpt lat="42.34232" lon="-3.67862">
        <ele>862.098</ele>
        <time>2021-07-09T14:55:00Z</time>
      </trkpt>
      <trkpt lat="42.34172" lon="-3.683">
        <ele>861.015</ele>
        <time>2021-07-09T14:56:21Z</time>
      </trkpt>
      <trkpt lat="42.34135" lon="-3.68488">
        <ele>861.026</ele>
        <time>2021-07-09T14:56:50Z</time>
      </trkpt>
      <trkpt lat="42.34124" lon="-3.6874">
        <ele>861.008</ele>
        <time>2021-07-09T14:57:27Z</time>
      </trkpt>
      <trkpt lat="42.3406" lon="-3.69332">
        <ele>856.086</ele>
        <time>2021-07-09T14:59:01Z</time>
      </trkpt>
      <trkpt lat="42.34034" lon="-3.69417">
        <ele>856.097</ele>
        <time>2021-07-09T14:59:14Z</time>
      </trkpt>
      <trkpt lat="42.34054" lon="-3.6949">
        <ele>856.063</ele>
        <time>2021-07-09T14:59:31Z</time>
      </trkpt>
      <trkpt lat="42.3397" lon="-3.69882">
        <ele>856.076</ele>
        <time>2021-07-09T15:00:35Z</time>
      </trkpt>
      <trkpt lat="42.33984" lon="-3.6991">
        <ele>856.012</ele>
        <time>2021-07-09T15:00:48Z</time>
      </trkpt>
      <trkpt lat="42.33922" lon="-3.70302">
        <ele>853.051</ele>
        <time>2021-07-09T15:02:14Z</time>
      </trkpt>
      <trkpt lat="42.3388" lon="-3.70399">
        <ele>849.099</ele>
        <time>2021-07-10T07:01:29Z</time>
      </trkpt>
      <trkpt lat="42.33786" lon="-3.70518">
        <ele>845.058</ele>
        <time>2021-07-10T07:02:06Z</time>
      </trkpt>
      <trkpt lat="42.33739" lon="-3.70603">
        <ele>847.092</ele>
        <time>2021-07-10T07:02:28Z</time>
      </trkpt>
      <trkpt lat="42.33691" lon="-3.70736">
        <ele>848.073</ele>
        <time>2021-07-10T07:02:56Z</time>
      </trkpt>
      <trkpt lat="42.33674" lon="-3.70878">
        <ele>851.02</ele>
        <time>2021-07-10T07:03:32Z</time>
      </trkpt>
      <trkpt lat="42.33703" lon="-3.7101">
        <ele>848.008</ele>
        <time>2021-07-10T07:03:51Z</time>
        <extensions>
          <visugpx:TrkExtension xmlns:visugpx="https://www.visugpx.com/editgpx/">
            <visugpx:node>7</visugpx:node>
            </visugpx:TrkExtension>
        </extensions>
      </trkpt>
      <trkpt lat="42.33369" lon="-3.70688">
        <ele>854.7</ele>
      </trkpt>
      <trkpt lat="42.33369" lon="-3.70688">
        <ele>854.7</ele>
      </trkpt>
      <trkpt lat="42.33367" lon="-3.70702">
        <ele>854.8</ele>
      </trkpt>
      <trkpt lat="42.33366" lon="-3.70702">
        <ele>854.8</ele>
      </trkpt>
      <trkpt lat="42.33371" lon="-3.70665">
        <ele>854.7</ele>
      </trkpt>
      <trkpt lat="42.33373" lon="-3.70629">
        <ele>855.3</ele>
      </trkpt>
      <trkpt lat="42.33371" lon="-3.70585">
        <ele>855.3</ele>
      </trkpt>
      <trkpt lat="42.33368" lon="-3.70552">
        <ele>855.5</ele>
      </trkpt>
      <trkpt lat="42.33354" lon="-3.70473">
        <ele>855.3</ele>
      </trkpt>
      <trkpt lat="42.33343" lon="-3.70431">
        <ele>855</ele>
      </trkpt>
      <trkpt lat="42.33338" lon="-3.70422">
        <ele>855</ele>
      </trkpt>
      <trkpt lat="42.33336" lon="-3.70417">
        <ele>855</ele>
      </trkpt>
      <trkpt lat="42.33335" lon="-3.70416">
        <ele>855</ele>
      </trkpt>
      <trkpt lat="42.33332" lon="-3.70406">
        <ele>855</ele>
      </trkpt>
      <trkpt lat="42.33331" lon="-3.70404">
        <ele>855.1</ele>
      </trkpt>
      <trkpt lat="42.33329" lon="-3.70398">
        <ele>855.2</ele>
      </trkpt>
      <trkpt lat="42.33321" lon="-3.70373">
        <ele>855.8</ele>
      </trkpt>
      <trkpt lat="42.33318" lon="-3.70374">
        <ele>855.8</ele>
      </trkpt>
      <trkpt lat="42.33317" lon="-3.70375">
        <ele>855.8</ele>
      </trkpt>
      <trkpt lat="42.33315" lon="-3.70376">
        <ele>855.8</ele>
      </trkpt>
      <trkpt lat="42.33313" lon="-3.70379">
        <ele>855.8</ele>
      </trkpt>
      <trkpt lat="42.33312" lon="-3.70384">
        <ele>855.8</ele>
      </trkpt>
      <trkpt lat="42.3331" lon="-3.70383">
        <ele>855.9</ele>
      </trkpt>
      <trkpt lat="42.33307" lon="-3.70382">
        <ele>856</ele>
      </trkpt>
      <trkpt lat="42.33308" lon="-3.70375">
        <ele>856</ele>
      </trkpt>
      <trkpt lat="42.333" lon="-3.70356">
        <ele>856.4</ele>
      </trkpt>
      <trkpt lat="42.33295" lon="-3.70349">
        <ele>856.6</ele>
      </trkpt>
      <trkpt lat="42.33292" lon="-3.70339">
        <ele>856.6</ele>
      </trkpt>
      <trkpt lat="42.33283" lon="-3.70329">
        <ele>856.8</ele>
      </trkpt>
      <trkpt lat="42.33285" lon="-3.70326">
        <ele>856.7</ele>
      </trkpt>
      <trkpt lat="42.33289" lon="-3.70321">
        <ele>856.6</ele>
      </trkpt>
      <trkpt lat="42.3329" lon="-3.70317">
        <ele>856.6</ele>
      </trkpt>
      <trkpt lat="42.33245" lon="-3.70258">
        <ele>857.7</ele>
      </trkpt>
      <trkpt lat="42.33227" lon="-3.70235">
        <ele>857.6</ele>
      </trkpt>
      <trkpt lat="42.33204" lon="-3.70212">
        <ele>858</ele>
        <extensions>
          <visugpx:TrkExtension xmlns:visugpx="https://www.visugpx.com/editgpx/">
            <visugpx:node>1</visugpx:node>
            </visugpx:TrkExtension>
        </extensions>
      </trkpt>
      <trkpt lat="42.33186" lon="-3.70193">
        <ele>858</ele>
      </trkpt>
      <trkpt lat="42.33161" lon="-3.70172">
        <ele>858.2</ele>
      </trkpt>
      <trkpt lat="42.33135" lon="-3.70154">
        <ele>859</ele>
      </trkpt>
      <trkpt lat="42.33102" lon="-3.70138">
        <ele>859.3</ele>
      </trkpt>
      <trkpt lat="42.3307" lon="-3.7012">
        <ele>860</ele>
      </trkpt>
      <trkpt lat="42.33066" lon="-3.70118">
        <ele>860</ele>
      </trkpt>
      <trkpt lat="42.33062" lon="-3.70116">
        <ele>860</ele>
      </trkpt>
      <trkpt lat="42.33058" lon="-3.70114">
        <ele>860</ele>
      </trkpt>
      <trkpt lat="42.33053" lon="-3.70112">
        <ele>860.1</ele>
      </trkpt>
      <trkpt lat="42.33039" lon="-3.70106">
        <ele>860.5</ele>
      </trkpt>
      <trkpt lat="42.33022" lon="-3.70102">
        <ele>860.7</ele>
      </trkpt>
      <trkpt lat="42.32996" lon="-3.70102">
        <ele>861.1</ele>
      </trkpt>
      <trkpt lat="42.3297" lon="-3.70111">
        <ele>862</ele>
      </trkpt>
      <trkpt lat="42.32967" lon="-3.70112">
        <ele>862</ele>
      </trkpt>
      <trkpt lat="42.32964" lon="-3.70112">
        <ele>862</ele>
      </trkpt>
      <trkpt lat="42.32927" lon="-3.70095">
        <ele>862.6</ele>
      </trkpt>
      <trkpt lat="42.32908" lon="-3.70095">
        <ele>863.4</ele>
      </trkpt>
      <trkpt lat="42.32904" lon="-3.70093">
        <ele>863.5</ele>
      </trkpt>
      <trkpt lat="42.329" lon="-3.7009">
        <ele>863.4</ele>
      </trkpt>
      <trkpt lat="42.32896" lon="-3.70086">
        <ele>863.2</ele>
      </trkpt>
      <trkpt lat="42.32895" lon="-3.70085">
        <ele>863.1</ele>
      </trkpt>
      <trkpt lat="42.32889" lon="-3.70078">
        <ele>863</ele>
      </trkpt>
      <trkpt lat="42.32884" lon="-3.70075">
        <ele>863.2</ele>
      </trkpt>
      <trkpt lat="42.32856" lon="-3.70066">
        <ele>864.2</ele>
      </trkpt>
      <trkpt lat="42.32849" lon="-3.7006">
        <ele>864.4</ele>
      </trkpt>
      <trkpt lat="42.32833" lon="-3.70041">
        <ele>864</ele>
      </trkpt>
      <trkpt lat="42.32826" lon="-3.70035">
        <ele>863.6</ele>
      </trkpt>
      <trkpt lat="42.32821" lon="-3.70034">
        <ele>863.5</ele>
      </trkpt>
      <trkpt lat="42.32786" lon="-3.70039">
        <ele>864.5</ele>
      </trkpt>
      <trkpt lat="42.32765" lon="-3.70039">
        <ele>864.6</ele>
      </trkpt>
      <trkpt lat="42.32744" lon="-3.70031">
        <ele>863.5</ele>
      </trkpt>
      <trkpt lat="42.32611" lon="-3.69996">
        <ele>864.1</ele>
      </trkpt>
      <trkpt lat="42.32569" lon="-3.69985">
        <ele>863.6</ele>
      </trkpt>
      <trkpt lat="42.32535" lon="-3.69973">
        <ele>862.8</ele>
        <extensions>
          <visugpx:TrkExtension xmlns:visugpx="https://www.visugpx.com/editgpx/">
            <visugpx:node>2</visugpx:node>
            </visugpx:TrkExtension>
        </extensions>
      </trkpt>
      <trkpt lat="42.32491" lon="-3.69959">
        <ele>863.2</ele>
      </trkpt>
      <trkpt lat="42.32467" lon="-3.69956">
        <ele>863.5</ele>
      </trkpt>
      <trkpt lat="42.32473" lon="-3.69951">
        <ele>863.2</ele>
      </trkpt>
      <trkpt lat="42.32479" lon="-3.69943">
        <ele>862.7</ele>
      </trkpt>
      <trkpt lat="42.32417" lon="-3.69919">
        <ele>862.2</ele>
      </trkpt>
      <trkpt lat="42.32352" lon="-3.69889">
        <ele>863.7</ele>
      </trkpt>
      <trkpt lat="42.32324" lon="-3.6986">
        <ele>863.6</ele>
      </trkpt>
      <trkpt lat="42.32309" lon="-3.69848">
        <ele>863.9</ele>
      </trkpt>
      <trkpt lat="42.32298" lon="-3.69841">
        <ele>863.7</ele>
      </trkpt>
      <trkpt lat="42.32281" lon="-3.69834">
        <ele>863.9</ele>
      </trkpt>
      <trkpt lat="42.32254" lon="-3.69827">
        <ele>864.6</ele>
      </trkpt>
      <trkpt lat="42.32173" lon="-3.69801">
        <ele>865.4</ele>
      </trkpt>
      <trkpt lat="42.32151" lon="-3.69793">
        <ele>865.9</ele>
      </trkpt>
      <trkpt lat="42.3214" lon="-3.69792">
        <ele>866</ele>
      </trkpt>
      <trkpt lat="42.32132" lon="-3.69794">
        <ele>866.4</ele>
      </trkpt>
      <trkpt lat="42.3213" lon="-3.69797">
        <ele>866.6</ele>
      </trkpt>
      <trkpt lat="42.32128" lon="-3.69802">
        <ele>866.8</ele>
      </trkpt>
      <trkpt lat="42.32127" lon="-3.69805">
        <ele>867</ele>
      </trkpt>
      <trkpt lat="42.32104" lon="-3.69795">
        <ele>867.4</ele>
      </trkpt>
      <trkpt lat="42.32087" lon="-3.69786">
        <ele>868.1</ele>
      </trkpt>
      <trkpt lat="42.32058" lon="-3.69762">
        <ele>868.3</ele>
      </trkpt>
      <trkpt lat="42.32034" lon="-3.69738">
        <ele>868.3</ele>
      </trkpt>
      <trkpt lat="42.32011" lon="-3.6971">
        <ele>868.6</ele>
      </trkpt>
      <trkpt lat="42.31989" lon="-3.6968">
        <ele>869.1</ele>
      </trkpt>
      <trkpt lat="42.31975" lon="-3.69655">
        <ele>869.8</ele>
      </trkpt>
      <trkpt lat="42.31944" lon="-3.69544">
        <ele>871</ele>
      </trkpt>
      <trkpt lat="42.31929" lon="-3.69474">
        <ele>872.7</ele>
        <extensions>
          <visugpx:TrkExtension xmlns:visugpx="https://www.visugpx.com/editgpx/">
            <visugpx:node>3</visugpx:node>
            </visugpx:TrkExtension>
        </extensions>
      </trkpt>
      <trkpt lat="42.31919" lon="-3.69425">
        <ele>871.9</ele>
      </trkpt>
      <trkpt lat="42.31901" lon="-3.69356">
        <ele>877</ele>
      </trkpt>
      <trkpt lat="42.31906" lon="-3.69352">
        <ele>876.6</ele>
      </trkpt>
      <trkpt lat="42.3189" lon="-3.69313">
        <ele>876</ele>
      </trkpt>
      <trkpt lat="42.31872" lon="-3.69278">
        <ele>877.2</ele>
      </trkpt>
      <trkpt lat="42.31843" lon="-3.6924">
        <ele>876.1</ele>
      </trkpt>
      <trkpt lat="42.31807" lon="-3.69204">
        <ele>873.6</ele>
      </trkpt>
      <trkpt lat="42.31778" lon="-3.69182">
        <ele>872.6</ele>
      </trkpt>
      <trkpt lat="42.31694" lon="-3.69126">
        <ele>874.6</ele>
      </trkpt>
      <trkpt lat="42.31676" lon="-3.6911">
        <ele>873.6</ele>
      </trkpt>
      <trkpt lat="42.31649" lon="-3.69083">
        <ele>873.6</ele>
      </trkpt>
      <trkpt lat="42.31626" lon="-3.69056">
        <ele>873.5</ele>
      </trkpt>
      <trkpt lat="42.31611" lon="-3.69034">
        <ele>873.2</ele>
      </trkpt>
      <trkpt lat="42.31584" lon="-3.68987">
        <ele>873.5</ele>
      </trkpt>
      <trkpt lat="42.31566" lon="-3.68946">
        <ele>873.3</ele>
      </trkpt>
      <trkpt lat="42.31548" lon="-3.68885">
        <ele>873.5</ele>
      </trkpt>
      <trkpt lat="42.31539" lon="-3.68843">
        <ele>873.3</ele>
      </trkpt>
      <trkpt lat="42.31512" lon="-3.68666">
        <ele>875.7</ele>
      </trkpt>
      <trkpt lat="42.31503" lon="-3.68625">
        <ele>877.2</ele>
      </trkpt>
      <trkpt lat="42.31493" lon="-3.6859">
        <ele>878.3</ele>
      </trkpt>
      <trkpt lat="42.31478" lon="-3.68546">
        <ele>878.3</ele>
      </trkpt>
      <trkpt lat="42.31464" lon="-3.68513">
        <ele>878.5</ele>
      </trkpt>
      <trkpt lat="42.31446" lon="-3.68479">
        <ele>879.2</ele>
      </trkpt>
      <trkpt lat="42.31412" lon="-3.68419">
        <ele>879.1</ele>
      </trkpt>
      <trkpt lat="42.31235" lon="-3.68126">
        <ele>879.3</ele>
      </trkpt>
      <trkpt lat="42.31182" lon="-3.68043">
        <ele>880</ele>
      </trkpt>
      <trkpt lat="42.31153" lon="-3.68008">
        <ele>879.8</ele>
      </trkpt>
      <trkpt lat="42.31137" lon="-3.67993">
        <ele>879.9</ele>
      </trkpt>
      <trkpt lat="42.31107" lon="-3.67971">
        <ele>881.1</ele>
        <extensions>
          <visugpx:TrkExtension xmlns:visugpx="https://www.visugpx.com/editgpx/">
            <visugpx:node>4</visugpx:node>
            </visugpx:TrkExtension>
        </extensions>
      </trkpt>
      <trkpt lat="42.31096" lon="-3.67962">
        <ele>880.8</ele>
      </trkpt>
      <trkpt lat="42.31075" lon="-3.67951">
        <ele>880.8</ele>
      </trkpt>
      <trkpt lat="42.31044" lon="-3.67939">
        <ele>881.2</ele>
      </trkpt>
      <trkpt lat="42.30927" lon="-3.67909">
        <ele>882.2</ele>
      </trkpt>
      <trkpt lat="42.30888" lon="-3.67894">
        <ele>882.4</ele>
      </trkpt>
      <trkpt lat="42.3087" lon="-3.67884">
        <ele>882.5</ele>
      </trkpt>
      <trkpt lat="42.30849" lon="-3.67869">
        <ele>882.6</ele>
      </trkpt>
      <trkpt lat="42.30809" lon="-3.67829">
        <ele>882.9</ele>
      </trkpt>
      <trkpt lat="42.30795" lon="-3.67812">
        <ele>883.5</ele>
      </trkpt>
      <trkpt lat="42.30773" lon="-3.67778">
        <ele>884.2</ele>
      </trkpt>
      <trkpt lat="42.3075" lon="-3.67736">
        <ele>884.5</ele>
      </trkpt>
      <trkpt lat="42.30543" lon="-3.67356">
        <ele>887.7</ele>
      </trkpt>
      <trkpt lat="42.30521" lon="-3.67318">
        <ele>887.6</ele>
      </trkpt>
      <trkpt lat="42.3049" lon="-3.67274">
        <ele>888.3</ele>
      </trkpt>
      <trkpt lat="42.30448" lon="-3.67227">
        <ele>889.8</ele>
      </trkpt>
      <trkpt lat="42.30429" lon="-3.6721">
        <ele>890.1</ele>
        <extensions>
          <visugpx:TrkExtension xmlns:visugpx="https://www.visugpx.com/editgpx/">
            <visugpx:node>5</visugpx:node>
            </visugpx:TrkExtension>
        </extensions>
      </trkpt>
      <trkpt lat="42.30405" lon="-3.67189">
        <ele>891</ele>
      </trkpt>
      <trkpt lat="42.30363" lon="-3.67161">
        <ele>891.9</ele>
      </trkpt>
      <trkpt lat="42.30241" lon="-3.67095">
        <ele>891.6</ele>
      </trkpt>
      <trkpt lat="42.30242" lon="-3.67091">
        <ele>891.4</ele>
        <extensions>
          <visugpx:TrkExtension xmlns:visugpx="https://www.visugpx.com/editgpx/">
            <visugpx:node>6</visugpx:node>
            </visugpx:TrkExtension>
        </extensions>
      </trkpt>
      <trkpt lat="42.30241" lon="-3.67095">
        <ele>891.6</ele>
      </trkpt>
      <trkpt lat="42.30179" lon="-3.6706">
        <ele>890.5</ele>
      </trkpt>
      <trkpt lat="42.30152" lon="-3.67046">
        <ele>890.2</ele>
        <extensions>
          <visugpx:TrkExtension xmlns:visugpx="https://www.visugpx.com/editgpx/">
            <visugpx:node>7</visugpx:node>
            </visugpx:TrkExtension>
        </extensions>
      </trkpt>
      <trkpt lat="42.30123" lon="-3.6703">
        <ele>891</ele>
      </trkpt>
      <trkpt lat="42.3009" lon="-3.67008">
        <ele>890.8</ele>
      </trkpt>
      <trkpt lat="42.30058" lon="-3.66983">
        <ele>890.4</ele>
      </trkpt>
      <trkpt lat="42.30026" lon="-3.66952">
        <ele>891</ele>
      </trkpt>
      <trkpt lat="42.29991" lon="-3.6691">
        <ele>891.8</ele>
        <extensions>
          <visugpx:TrkExtension xmlns:visugpx="https://www.visugpx.com/editgpx/">
            <visugpx:node>8</visugpx:node>
            </visugpx:TrkExtension>
        </extensions>
      </trkpt>
      <trkpt lat="42.29917" lon="-3.66823">
        <ele>893</ele>
      </trkpt>
      <trkpt lat="42.29878" lon="-3.66779">
        <ele>895.6</ele>
      </trkpt>
      <trkpt lat="42.29856" lon="-3.66761">
        <ele>898.1</ele>
      </trkpt>
      <trkpt lat="42.29837" lon="-3.66747">
        <ele>897.1</ele>
      </trkpt>
      <trkpt lat="42.29819" lon="-3.66738">
        <ele>896.8</ele>
      </trkpt>
      <trkpt lat="42.29782" lon="-3.66723">
        <ele>896</ele>
      </trkpt>
      <trkpt lat="42.29754" lon="-3.66717">
        <ele>896.9</ele>
      </trkpt>
      <trkpt lat="42.29735" lon="-3.66717">
        <ele>897</ele>
        <extensions>
          <visugpx:TrkExtension xmlns:visugpx="https://www.visugpx.com/editgpx/">
            <visugpx:node>9</visugpx:node>
            </visugpx:TrkExtension>
        </extensions>
      </trkpt>
      <trkpt lat="42.29714" lon="-3.66716">
        <ele>897.3</ele>
      </trkpt>
      <trkpt lat="42.29678" lon="-3.66721">
        <ele>898</ele>
      </trkpt>
      <trkpt lat="42.29609" lon="-3.66735">
        <ele>899.5</ele>
        <extensions>
          <visugpx:TrkExtension xmlns:visugpx="https://www.visugpx.com/editgpx/">
            <visugpx:node>10</visugpx:node>
            </visugpx:TrkExtension>
        </extensions>
      </trkpt>
      <trkpt lat="42.29502" lon="-3.66758">
        <ele>901.3</ele>
      </trkpt>
      <trkpt lat="42.29393" lon="-3.66777">
        <ele>902.9</ele>
      </trkpt>
      <trkpt lat="42.29339" lon="-3.66781">
        <ele>903.8</ele>
      </trkpt>
      <trkpt lat="42.29313" lon="-3.66779">
        <ele>904</ele>
      </trkpt>
      <trkpt lat="42.29289" lon="-3.66775">
        <ele>904.8</ele>
      </trkpt>
      <trkpt lat="42.29285" lon="-3.66774">
        <ele>905</ele>
        <extensions>
          <visugpx:TrkExtension xmlns:visugpx="https://www.visugpx.com/editgpx/">
            <visugpx:node>11</visugpx:node>
            </visugpx:TrkExtension>
        </extensions>
      </trkpt>
      <trkpt lat="42.29265" lon="-3.66768">
        <ele>905.4</ele>
      </trkpt>
      <trkpt lat="42.29236" lon="-3.66756">
        <ele>905.8</ele>
      </trkpt>
      <trkpt lat="42.29208" lon="-3.66742">
        <ele>905.8</ele>
      </trkpt>
      <trkpt lat="42.29171" lon="-3.66718">
        <ele>906</ele>
      </trkpt>
      <trkpt lat="42.29098" lon="-3.66657">
        <ele>907.8</ele>
      </trkpt>
      <trkpt lat="42.29044" lon="-3.6661">
        <ele>908.8</ele>
        <extensions>
          <visugpx:TrkExtension xmlns:visugpx="https://www.visugpx.com/editgpx/">
            <visugpx:node>12</visugpx:node>
            </visugpx:TrkExtension>
        </extensions>
      </trkpt>
      <trkpt lat="42.28919" lon="-3.66504">
        <ele>911.1</ele>
      </trkpt>
      <trkpt lat="42.28885" lon="-3.66479">
        <ele>911.7</ele>
      </trkpt>
      <trkpt lat="42.2884" lon="-3.6645">
        <ele>912.9</ele>
      </trkpt>
      <trkpt lat="42.28744" lon="-3.66406">
        <ele>915.6</ele>
      </trkpt>
      <trkpt lat="42.28583" lon="-3.6634">
        <ele>919</ele>
      </trkpt>
      <trkpt lat="42.28537" lon="-3.66323">
        <ele>919.7</ele>
      </trkpt>
      <trkpt lat="42.28482" lon="-3.66311">
        <ele>920.1</ele>
      </trkpt>
      <trkpt lat="42.28459" lon="-3.66309">
        <ele>920.5</ele>
      </trkpt>
      <trkpt lat="42.28447" lon="-3.6631">
        <ele>920.9</ele>
        <extensions>
          <visugpx:TrkExtension xmlns:visugpx="https://www.visugpx.com/editgpx/">
            <visugpx:node>13</visugpx:node>
            </visugpx:TrkExtension>
        </extensions>
      </trkpt>
      <trkpt lat="42.28412" lon="-3.66311">
        <ele>921.2</ele>
      </trkpt>
      <trkpt lat="42.28302" lon="-3.66353">
        <ele>923.1</ele>
      </trkpt>
      <trkpt lat="42.28249" lon="-3.66379">
        <ele>924.4</ele>
      </trkpt>
      <trkpt lat="42.28186" lon="-3.66409">
        <ele>925.6</ele>
      </trkpt>
      <trkpt lat="42.28163" lon="-3.66419">
        <ele>926.5</ele>
      </trkpt>
      <trkpt lat="42.2782" lon="-3.66587">
        <ele>934.7</ele>
        <extensions>
          <visugpx:TrkExtension xmlns:visugpx="https://www.visugpx.com/editgpx/">
            <visugpx:node>14</visugpx:node>
            </visugpx:TrkExtension>
        </extensions>
      </trkpt>
      <trkpt lat="42.27808" lon="-3.66592">
        <ele>939</ele>
      </trkpt>
      <trkpt lat="42.27436" lon="-3.66775">
        <ele>955.7</ele>
      </trkpt>
      <trkpt lat="42.27308" lon="-3.66834">
        <ele>923</ele>
      </trkpt>
      <trkpt lat="42.27253" lon="-3.6686">
        <ele>919.7</ele>
        <extensions>
          <visugpx:TrkExtension xmlns:visugpx="https://www.visugpx.com/editgpx/">
            <visugpx:node>15</visugpx:node>
            </visugpx:TrkExtension>
        </extensions>
      </trkpt>
      <trkpt lat="42.27229" lon="-3.66871">
        <ele>917.8</ele>
      </trkpt>
      <trkpt lat="42.27188" lon="-3.66884">
        <ele>916.2</ele>
      </trkpt>
      <trkpt lat="42.27143" lon="-3.66891">
        <ele>914.6</ele>
      </trkpt>
      <trkpt lat="42.27107" lon="-3.66893">
        <ele>914</ele>
      </trkpt>
      <trkpt lat="42.27057" lon="-3.66888">
        <ele>914</ele>
      </trkpt>
      <trkpt lat="42.27027" lon="-3.66883">
        <ele>912.9</ele>
      </trkpt>
      <trkpt lat="42.27" lon="-3.66874">
        <ele>911.1</ele>
      </trkpt>
      <trkpt lat="42.26968" lon="-3.66862">
        <ele>911.7</ele>
      </trkpt>
      <trkpt lat="42.26929" lon="-3.66842">
        <ele>911.8</ele>
      </trkpt>
      <trkpt lat="42.26881" lon="-3.66798">
        <ele>912.7</ele>
      </trkpt>
      <trkpt lat="42.26862" lon="-3.66778">
        <ele>911.2</ele>
      </trkpt>
      <trkpt lat="42.26847" lon="-3.66758">
        <ele>913.8</ele>
      </trkpt>
      <trkpt lat="42.26831" lon="-3.66732">
        <ele>913</ele>
      </trkpt>
      <trkpt lat="42.26816" lon="-3.66698">
        <ele>914.1</ele>
      </trkpt>
      <trkpt lat="42.26804" lon="-3.66669">
        <ele>911.1</ele>
      </trkpt>
      <trkpt lat="42.26794" lon="-3.66636">
        <ele>911.2</ele>
      </trkpt>
      <trkpt lat="42.26787" lon="-3.66608">
        <ele>911</ele>
      </trkpt>
      <trkpt lat="42.26783" lon="-3.66577">
        <ele>909.7</ele>
      </trkpt>
      <trkpt lat="42.2678" lon="-3.6655">
        <ele>906.9</ele>
      </trkpt>
      <trkpt lat="42.2678" lon="-3.66521">
        <ele>905.6</ele>
      </trkpt>
      <trkpt lat="42.26782" lon="-3.66471">
        <ele>904.4</ele>
      </trkpt>
      <trkpt lat="42.268" lon="-3.66296">
        <ele>905.3</ele>
      </trkpt>
      <trkpt lat="42.26802" lon="-3.66244">
        <ele>903.7</ele>
      </trkpt>
      <trkpt lat="42.268" lon="-3.66179">
        <ele>903.9</ele>
      </trkpt>
      <trkpt lat="42.26797" lon="-3.66137">
        <ele>907.8</ele>
      </trkpt>
      <trkpt lat="42.26795" lon="-3.66124">
        <ele>909.2</ele>
        <extensions>
          <visugpx:TrkExtension xmlns:visugpx="https://www.visugpx.com/editgpx/">
            <visugpx:node>16</visugpx:node>
            </visugpx:TrkExtension>
        </extensions>
      </trkpt>
      <trkpt lat="42.26792" lon="-3.66103">
        <ele>910.5</ele>
      </trkpt>
      <trkpt lat="42.26771" lon="-3.66011">
        <ele>904.4</ele>
      </trkpt>
      <trkpt lat="42.2676" lon="-3.65976">
        <ele>901.7</ele>
      </trkpt>
      <trkpt lat="42.26733" lon="-3.65903">
        <ele>897</ele>
      </trkpt>
      <trkpt lat="42.26648" lon="-3.6569">
        <ele>895</ele>
      </trkpt>
      <trkpt lat="42.2663" lon="-3.65648">
        <ele>896.9</ele>
      </trkpt>
      <trkpt lat="42.26617" lon="-3.65622">
        <ele>897.1</ele>
      </trkpt>
      <trkpt lat="42.26595" lon="-3.65589">
        <ele>899.1</ele>
      </trkpt>
      <trkpt lat="42.26581" lon="-3.65571">
        <ele>899.3</ele>
        <extensions>
          <visugpx:TrkExtension xmlns:visugpx="https://www.visugpx.com/editgpx/">
            <visugpx:node>17</visugpx:node>
            </visugpx:TrkExtension>
        </extensions>
      </trkpt>
      <trkpt lat="42.26578" lon="-3.65568">
        <ele>899.8</ele>
      </trkpt>
      <trkpt lat="42.26554" lon="-3.65542">
        <ele>899.9</ele>
      </trkpt>
      <trkpt lat="42.26535" lon="-3.65526">
        <ele>897.2</ele>
      </trkpt>
      <trkpt lat="42.26514" lon="-3.65512">
        <ele>896.7</ele>
      </trkpt>
      <trkpt lat="42.26488" lon="-3.65498">
        <ele>892.2</ele>
      </trkpt>
      <trkpt lat="42.26446" lon="-3.65484">
        <ele>889.5</ele>
      </trkpt>
      <trkpt lat="42.26426" lon="-3.65481">
        <ele>887.8</ele>
      </trkpt>
      <trkpt lat="42.26387" lon="-3.65481">
        <ele>886.3</ele>
      </trkpt>
      <trkpt lat="42.2637" lon="-3.65483">
        <ele>885.4</ele>
      </trkpt>
      <trkpt lat="42.26328" lon="-3.65495">
        <ele>885.7</ele>
      </trkpt>
      <trkpt lat="42.26302" lon="-3.65507">
        <ele>884.1</ele>
      </trkpt>
      <trkpt lat="42.26283" lon="-3.65518">
        <ele>883.6</ele>
      </trkpt>
      <trkpt lat="42.26267" lon="-3.6553">
        <ele>883.8</ele>
      </trkpt>
      <trkpt lat="42.26251" lon="-3.65543">
        <ele>882.6</ele>
      </trkpt>
      <trkpt lat="42.26222" lon="-3.65576">
        <ele>884</ele>
      </trkpt>
      <trkpt lat="42.26214" lon="-3.65586">
        <ele>885</ele>
      </trkpt>
      <trkpt lat="42.26194" lon="-3.65613">
        <ele>886.1</ele>
      </trkpt>
      <trkpt lat="42.26181" lon="-3.65636">
        <ele>889.6</ele>
      </trkpt>
      <trkpt lat="42.26158" lon="-3.6569">
        <ele>888.7</ele>
      </trkpt>
      <trkpt lat="42.26147" lon="-3.65725">
        <ele>886.6</ele>
      </trkpt>
      <trkpt lat="42.26129" lon="-3.65793">
        <ele>886.2</ele>
      </trkpt>
      <trkpt lat="42.26123" lon="-3.65832">
        <ele>884.4</ele>
        <extensions>
          <visugpx:TrkExtension xmlns:visugpx="https://www.visugpx.com/editgpx/">
            <visugpx:node>18</visugpx:node>
            </visugpx:TrkExtension>
        </extensions>
      </trkpt>
      <trkpt lat="42.26118" lon="-3.65864">
        <ele>881.5</ele>
      </trkpt>
      <trkpt lat="42.26109" lon="-3.65941">
        <ele>880.3</ele>
      </trkpt>
      <trkpt lat="42.26085" lon="-3.66178">
        <ele>877.8</ele>
      </trkpt>
      <trkpt lat="42.26053" lon="-3.66493">
        <ele>877.8</ele>
      </trkpt>
      <trkpt lat="42.2604" lon="-3.66605">
        <ele>877.9</ele>
      </trkpt>
      <trkpt lat="42.26033" lon="-3.66642">
        <ele>878.5</ele>
      </trkpt>
      <trkpt lat="42.26025" lon="-3.66679">
        <ele>879.2</ele>
      </trkpt>
      <trkpt lat="42.26003" lon="-3.66741">
        <ele>878.4</ele>
      </trkpt>
      <trkpt lat="42.2599" lon="-3.6677">
        <ele>878.4</ele>
      </trkpt>
      <trkpt lat="42.25968" lon="-3.66805">
        <ele>879.3</ele>
      </trkpt>
      <trkpt lat="42.25941" lon="-3.66843">
        <ele>879.3</ele>
      </trkpt>
      <trkpt lat="42.25926" lon="-3.66859">
        <ele>878.8</ele>
        <extensions>
          <visugpx:TrkExtension xmlns:visugpx="https://www.visugpx.com/editgpx/">
            <visugpx:node>19</visugpx:node>
            </visugpx:TrkExtension>
        </extensions>
      </trkpt>
      <trkpt lat="42.2591" lon="-3.66875">
        <ele>878</ele>
      </trkpt>
      <trkpt lat="42.25888" lon="-3.66895">
        <ele>879.1</ele>
      </trkpt>
      <trkpt lat="42.25843" lon="-3.66922">
        <ele>881.2</ele>
      </trkpt>
      <trkpt lat="42.25816" lon="-3.66934">
        <ele>884.7</ele>
      </trkpt>
      <trkpt lat="42.25791" lon="-3.66941">
        <ele>884.2</ele>
      </trkpt>
      <trkpt lat="42.25768" lon="-3.66946">
        <ele>882.5</ele>
      </trkpt>
      <trkpt lat="42.25715" lon="-3.6695">
        <ele>881.5</ele>
      </trkpt>
      <trkpt lat="42.2542" lon="-3.66956">
        <ele>890.3</ele>
      </trkpt>
      <trkpt lat="42.2528" lon="-3.66961">
        <ele>884.9</ele>
      </trkpt>
      <trkpt lat="42.24957" lon="-3.66971">
        <ele>878</ele>
        <extensions>
          <visugpx:TrkExtension xmlns:visugpx="https://www.visugpx.com/editgpx/">
            <visugpx:node>20</visugpx:node>
            </visugpx:TrkExtension>
        </extensions>
      </trkpt>
      <trkpt lat="42.24931" lon="-3.66972">
        <ele>878.5</ele>
      </trkpt>
      <trkpt lat="42.24874" lon="-3.66978">
        <ele>876.4</ele>
      </trkpt>
      <trkpt lat="42.24727" lon="-3.67004">
        <ele>873.9</ele>
      </trkpt>
      <trkpt lat="42.24682" lon="-3.67009">
        <ele>873.5</ele>
      </trkpt>
      <trkpt lat="42.24644" lon="-3.67009">
        <ele>873.7</ele>
      </trkpt>
      <trkpt lat="42.2462" lon="-3.67007">
        <ele>873</ele>
      </trkpt>
      <trkpt lat="42.24554" lon="-3.66996">
        <ele>871.8</ele>
      </trkpt>
      <trkpt lat="42.24525" lon="-3.66987">
        <ele>872.2</ele>
      </trkpt>
      <trkpt lat="42.24462" lon="-3.66963">
        <ele>870.8</ele>
      </trkpt>
      <trkpt lat="42.24181" lon="-3.66826">
        <ele>870.8</ele>
        <extensions>
          <visugpx:TrkExtension xmlns:visugpx="https://www.visugpx.com/editgpx/">
            <visugpx:node>21</visugpx:node>
            </visugpx:TrkExtension>
        </extensions>
      </trkpt>
      <trkpt lat="42.24134" lon="-3.66802">
        <ele>871</ele>
      </trkpt>
      <trkpt lat="42.24067" lon="-3.66771">
        <ele>872.5</ele>
      </trkpt>
      <trkpt lat="42.23999" lon="-3.66736">
        <ele>874.4</ele>
      </trkpt>
      <trkpt lat="42.23971" lon="-3.6672">
        <ele>873.2</ele>
      </trkpt>
      <trkpt lat="42.23946" lon="-3.66701">
        <ele>873.4</ele>
      </trkpt>
      <trkpt lat="42.23914" lon="-3.66666">
        <ele>872.8</ele>
      </trkpt>
      <trkpt lat="42.23792" lon="-3.66519">
        <ele>874</ele>
      </trkpt>
      <trkpt lat="42.23754" lon="-3.66478">
        <ele>874</ele>
      </trkpt>
      <trkpt lat="42.23691" lon="-3.66423">
        <ele>874.8</ele>
      </trkpt>
      <trkpt lat="42.23658" lon="-3.66398">
        <ele>875.4</ele>
      </trkpt>
      <trkpt lat="42.23595" lon="-3.66355">
        <ele>875.7</ele>
      </trkpt>
      <trkpt lat="42.23534" lon="-3.66311">
        <ele>876.6</ele>
      </trkpt>
      <trkpt lat="42.23497" lon="-3.66281">
        <ele>877</ele>
      </trkpt>
      <trkpt lat="42.23459" lon="-3.66246">
        <ele>876.6</ele>
      </trkpt>
      <trkpt lat="42.23426" lon="-3.66211">
        <ele>876.9</ele>
      </trkpt>
      <trkpt lat="42.23394" lon="-3.66173">
        <ele>877.1</ele>
      </trkpt>
      <trkpt lat="42.23337" lon="-3.66099">
        <ele>877</ele>
        <extensions>
          <visugpx:TrkExtension xmlns:visugpx="https://www.visugpx.com/editgpx/">
            <visugpx:node>22</visugpx:node>
            </visugpx:TrkExtension>
        </extensions>
      </trkpt>
      <trkpt lat="42.23335" lon="-3.66096">
        <ele>877</ele>
      </trkpt>
      <trkpt lat="42.23163" lon="-3.65869">
        <ele>878.2</ele>
      </trkpt>
      <trkpt lat="42.23062" lon="-3.65733">
        <ele>877.6</ele>
      </trkpt>
      <trkpt lat="42.23028" lon="-3.65678">
        <ele>877.6</ele>
      </trkpt>
      <trkpt lat="42.22984" lon="-3.65595">
        <ele>877.7</ele>
      </trkpt>
      <trkpt lat="42.22964" lon="-3.65546">
        <ele>877.7</ele>
      </trkpt>
      <trkpt lat="42.22942" lon="-3.65489">
        <ele>877.6</ele>
      </trkpt>
      <trkpt lat="42.2293" lon="-3.65451">
        <ele>877</ele>
      </trkpt>
      <trkpt lat="42.22918" lon="-3.65409">
        <ele>879.2</ele>
      </trkpt>
      <trkpt lat="42.22903" lon="-3.65349">
        <ele>878</ele>
      </trkpt>
      <trkpt lat="42.2289" lon="-3.65273">
        <ele>879</ele>
      </trkpt>
      <trkpt lat="42.22878" lon="-3.6515">
        <ele>879</ele>
      </trkpt>
      <trkpt lat="42.22875" lon="-3.65093">
        <ele>879.7</ele>
      </trkpt>
      <trkpt lat="42.22867" lon="-3.64909">
        <ele>881.2</ele>
      </trkpt>
      <trkpt lat="42.22865" lon="-3.6483">
        <ele>881.9</ele>
      </trkpt>
      <trkpt lat="42.22854" lon="-3.64756">
        <ele>881.6</ele>
      </trkpt>
      <trkpt lat="42.22865" lon="-3.64753">
        <ele>882.1</ele>
      </trkpt>
      <trkpt lat="42.22872" lon="-3.6465">
        <ele>882.1</ele>
      </trkpt>
      <trkpt lat="42.22877" lon="-3.64606">
        <ele>882.5</ele>
        <extensions>
          <visugpx:TrkExtension xmlns:visugpx="https://www.visugpx.com/editgpx/">
            <visugpx:node>23</visugpx:node>
            </visugpx:TrkExtension>
        </extensions>
      </trkpt>
      <trkpt lat="42.22879" lon="-3.64593">
        <ele>882.2</ele>
      </trkpt>
      <trkpt lat="42.22884" lon="-3.64528">
        <ele>882.8</ele>
      </trkpt>
      <trkpt lat="42.22924" lon="-3.64094">
        <ele>883</ele>
      </trkpt>
      <trkpt lat="42.22937" lon="-3.63972">
        <ele>883.5</ele>
      </trkpt>
      <trkpt lat="42.22939" lon="-3.63947">
        <ele>883.8</ele>
      </trkpt>
      <trkpt lat="42.22968" lon="-3.63631">
        <ele>885.1</ele>
      </trkpt>
      <trkpt lat="42.23022" lon="-3.63061">
        <ele>887</ele>
      </trkpt>
      <trkpt lat="42.23037" lon="-3.62902">
        <ele>888</ele>
      </trkpt>
      <trkpt lat="42.23079" lon="-3.62451">
        <ele>890</ele>
      </trkpt>
      <trkpt lat="42.23101" lon="-3.62233">
        <ele>890.4</ele>
      </trkpt>
      <trkpt lat="42.2315" lon="-3.617">
        <ele>893</ele>
      </trkpt>
      <trkpt lat="42.23167" lon="-3.61527">
        <ele>895</ele>
      </trkpt>
      <trkpt lat="42.23178" lon="-3.61372">
        <ele>893.8</ele>
      </trkpt>
      <trkpt lat="42.23177" lon="-3.61261">
        <ele>895.4</ele>
      </trkpt>
      <trkpt lat="42.23176" lon="-3.61229">
        <ele>896.2</ele>
        <extensions>
          <visugpx:TrkExtension xmlns:visugpx="https://www.visugpx.com/editgpx/">
            <visugpx:node>24</visugpx:node>
            </visugpx:TrkExtension>
        </extensions>
      </trkpt>
      <trkpt lat="42.23175" lon="-3.61214">
        <ele>896.6</ele>
      </trkpt>
      <trkpt lat="42.23162" lon="-3.61097">
        <ele>899.9</ele>
      </trkpt>
      <trkpt lat="42.23131" lon="-3.60901">
        <ele>900</ele>
      </trkpt>
      <trkpt lat="42.23121" lon="-3.60847">
        <ele>900.9</ele>
      </trkpt>
      <trkpt lat="42.23109" lon="-3.60803">
        <ele>901</ele>
      </trkpt>
      <trkpt lat="42.23099" lon="-3.60775">
        <ele>900.2</ele>
      </trkpt>
      <trkpt lat="42.23085" lon="-3.60744">
        <ele>900.6</ele>
      </trkpt>
      <trkpt lat="42.23068" lon="-3.60713">
        <ele>901.2</ele>
      </trkpt>
      <trkpt lat="42.23046" lon="-3.6068">
        <ele>901.5</ele>
      </trkpt>
      <trkpt lat="42.22992" lon="-3.60615">
        <ele>902.8</ele>
        <extensions>
          <visugpx:TrkExtension xmlns:visugpx="https://www.visugpx.com/editgpx/">
            <visugpx:node>25</visugpx:node>
            </visugpx:TrkExtension>
        </extensions>
      </trkpt>
      <trkpt lat="42.22962" lon="-3.60579">
        <ele>903.8</ele>
      </trkpt>
      <trkpt lat="42.22932" lon="-3.60541">
        <ele>904.6</ele>
      </trkpt>
      <trkpt lat="42.22912" lon="-3.60515">
        <ele>904.2</ele>
      </trkpt>
      <trkpt lat="42.22899" lon="-3.60495">
        <ele>904.3</ele>
      </trkpt>
      <trkpt lat="42.22878" lon="-3.60455">
        <ele>906.1</ele>
      </trkpt>
      <trkpt lat="42.22833" lon="-3.60358">
        <ele>909.2</ele>
      </trkpt>
      <trkpt lat="42.22654" lon="-3.59954">
        <ele>914.7</ele>
      </trkpt>
      <trkpt lat="42.22574" lon="-3.59777">
        <ele>914</ele>
      </trkpt>
      <trkpt lat="42.22564" lon="-3.59754">
        <ele>914.3</ele>
        <extensions>
          <visugpx:TrkExtension xmlns:visugpx="https://www.visugpx.com/editgpx/">
            <visugpx:node>26</visugpx:node>
            </visugpx:TrkExtension>
        </extensions>
      </trkpt>
      <trkpt lat="42.22458" lon="-3.5951">
        <ele>912.4</ele>
      </trkpt>
      <trkpt lat="42.22399" lon="-3.5938">
        <ele>907.7</ele>
      </trkpt>
      <trkpt lat="42.22384" lon="-3.5934">
        <ele>908.2</ele>
      </trkpt>
      <trkpt lat="42.22369" lon="-3.59293">
        <ele>907.4</ele>
      </trkpt>
      <trkpt lat="42.22358" lon="-3.59238">
        <ele>908</ele>
      </trkpt>
      <trkpt lat="42.22354" lon="-3.59197">
        <ele>907.3</ele>
      </trkpt>
      <trkpt lat="42.22354" lon="-3.59135">
        <ele>907.4</ele>
      </trkpt>
      <trkpt lat="42.2236" lon="-3.59084">
        <ele>907.2</ele>
      </trkpt>
      <trkpt lat="42.22375" lon="-3.59005">
        <ele>908.3</ele>
      </trkpt>
      <trkpt lat="42.22391" lon="-3.58918">
        <ele>908</ele>
      </trkpt>
      <trkpt lat="42.22415" lon="-3.58803">
        <ele>909.1</ele>
      </trkpt>
      <trkpt lat="42.22437" lon="-3.58724">
        <ele>909.2</ele>
      </trkpt>
      <trkpt lat="42.22448" lon="-3.58698">
        <ele>909</ele>
      </trkpt>
      <trkpt lat="42.22461" lon="-3.58669">
        <ele>909.4</ele>
      </trkpt>
      <trkpt lat="42.22476" lon="-3.58641">
        <ele>909.8</ele>
      </trkpt>
      <trkpt lat="42.22579" lon="-3.58486">
        <ele>912.3</ele>
        <extensions>
          <visugpx:TrkExtension xmlns:visugpx="https://www.visugpx.com/editgpx/">
            <visugpx:node>27</visugpx:node>
            </visugpx:TrkExtension>
        </extensions>
      </trkpt>
      <trkpt lat="42.22602" lon="-3.58451">
        <ele>913.3</ele>
      </trkpt>
      <trkpt lat="42.22615" lon="-3.58427">
        <ele>912.9</ele>
      </trkpt>
      <trkpt lat="42.22632" lon="-3.5839">
        <ele>913.4</ele>
      </trkpt>
      <trkpt lat="42.22644" lon="-3.58359">
        <ele>912.8</ele>
      </trkpt>
      <trkpt lat="42.22657" lon="-3.58305">
        <ele>912.4</ele>
      </trkpt>
      <trkpt lat="42.22665" lon="-3.58242">
        <ele>913.1</ele>
      </trkpt>
      <trkpt lat="42.22667" lon="-3.58001">
        <ele>915</ele>
      </trkpt>
      <trkpt lat="42.22668" lon="-3.57564">
        <ele>916</ele>
      </trkpt>
      <trkpt lat="42.22668" lon="-3.57541">
        <ele>916</ele>
      </trkpt>
      <trkpt lat="42.22665" lon="-3.57493">
        <ele>916.6</ele>
      </trkpt>
      <trkpt lat="42.22661" lon="-3.57469">
        <ele>915.8</ele>
        <extensions>
          <visugpx:TrkExtension xmlns:visugpx="https://www.visugpx.com/editgpx/">
            <visugpx:node>28</visugpx:node>
            </visugpx:TrkExtension>
        </extensions>
      </trkpt>
      <trkpt lat="42.22654" lon="-3.57431">
        <ele>915.5</ele>
      </trkpt>
      <trkpt lat="42.2264" lon="-3.57381">
        <ele>916</ele>
      </trkpt>
      <trkpt lat="42.22608" lon="-3.57294">
        <ele>916.5</ele>
      </trkpt>
      <trkpt lat="42.2257" lon="-3.57199">
        <ele>916.5</ele>
      </trkpt>
      <trkpt lat="42.22411" lon="-3.56783">
        <ele>918.8</ele>
      </trkpt>
      <trkpt lat="42.22074" lon="-3.55906">
        <ele>924</ele>
        <extensions>
          <visugpx:TrkExtension xmlns:visugpx="https://www.visugpx.com/editgpx/">
            <visugpx:node>29</visugpx:node>
            </visugpx:TrkExtension>
        </extensions>
      </trkpt>
      <trkpt lat="42.21718" lon="-3.55024">
        <ele>929.1</ele>
      </trkpt>
      <trkpt lat="42.2165" lon="-3.5485">
        <ele>930.7</ele>
      </trkpt>
      <trkpt lat="42.21593" lon="-3.54662">
        <ele>932.1</ele>
      </trkpt>
      <trkpt lat="42.21513" lon="-3.54485">
        <ele>933.8</ele>
      </trkpt>
      <trkpt lat="42.2144" lon="-3.54356">
        <ele>934.7</ele>
      </trkpt>
      <trkpt lat="42.21187" lon="-3.54154">
        <ele>937</ele>
      </trkpt>
      <trkpt lat="42.20929" lon="-3.54021">
        <ele>941.6</ele>
      </trkpt>
      <trkpt lat="42.20679" lon="-3.53901">
        <ele>945</ele>
      </trkpt>
      <trkpt lat="42.2051" lon="-3.53862">
        <ele>946.1</ele>
      </trkpt>
      <trkpt lat="42.20215" lon="-3.53854">
        <ele>947.1</ele>
      </trkpt>
      <trkpt lat="42.19994" lon="-3.53841">
        <ele>947.9</ele>
      </trkpt>
      <trkpt lat="42.19921" lon="-3.53806">
        <ele>949.2</ele>
      </trkpt>
      <trkpt lat="42.19616" lon="-3.53558">
        <ele>952.1</ele>
      </trkpt>
      <trkpt lat="42.19548" lon="-3.53499">
        <ele>954.3</ele>
      </trkpt>
      <trkpt lat="42.19379" lon="-3.5327">
        <ele>955</ele>
      </trkpt>
      <trkpt lat="42.193" lon="-3.53176">
        <ele>955.7</ele>
      </trkpt>
      <trkpt lat="42.19068" lon="-3.53046">
        <ele>957.9</ele>
      </trkpt>
      <trkpt lat="42.18866" lon="-3.52884">
        <ele>959.6</ele>
      </trkpt>
      <trkpt lat="42.18765" lon="-3.52822">
        <ele>960.8</ele>
      </trkpt>
      <trkpt lat="42.18556" lon="-3.52785">
        <ele>962.5</ele>
      </trkpt>
      <trkpt lat="42.18444" lon="-3.52741">
        <ele>963</ele>
      </trkpt>
      <trkpt lat="42.18386" lon="-3.527">
        <ele>962.8</ele>
      </trkpt>
      <trkpt lat="42.18282" lon="-3.52529">
        <ele>965.1</ele>
      </trkpt>
      <trkpt lat="42.18001" lon="-3.52051">
        <ele>969.2</ele>
      </trkpt>
      <trkpt lat="42.17932" lon="-3.51947">
        <ele>970.9</ele>
      </trkpt>
      <trkpt lat="42.17792" lon="-3.51818">
        <ele>971.6</ele>
      </trkpt>
      <trkpt lat="42.17578" lon="-3.51707">
        <ele>972.5</ele>
      </trkpt>
      <trkpt lat="42.17342" lon="-3.5159">
        <ele>975</ele>
      </trkpt>
      <trkpt lat="42.17164" lon="-3.51554">
        <ele>979.4</ele>
      </trkpt>
      <trkpt lat="42.1702" lon="-3.51525">
        <ele>979.9</ele>
      </trkpt>
      <trkpt lat="42.16899" lon="-3.51405">
        <ele>982.4</ele>
      </trkpt>
      <trkpt lat="42.16837" lon="-3.51206">
        <ele>985.1</ele>
      </trkpt>
      <trkpt lat="42.16785" lon="-3.50963">
        <ele>985.8</ele>
      </trkpt>
      <trkpt lat="42.16594" lon="-3.50523">
        <ele>989.6</ele>
      </trkpt>
      <trkpt lat="42.16446" lon="-3.50168">
        <ele>994</ele>
      </trkpt>
      <trkpt lat="42.1635" lon="-3.49804">
        <ele>999.5</ele>
      </trkpt>
      <trkpt lat="42.16192" lon="-3.49234">
        <ele>1006.4</ele>
      </trkpt>
      <trkpt lat="42.16094" lon="-3.49022">
        <ele>1010.2</ele>
      </trkpt>
      <trkpt lat="42.15994" lon="-3.48862">
        <ele>1015</ele>
      </trkpt>
      <trkpt lat="42.1582" lon="-3.48621">
        <ele>1016.4</ele>
      </trkpt>
      <trkpt lat="42.157" lon="-3.48418">
        <ele>1021</ele>
      </trkpt>
      <trkpt lat="42.15611" lon="-3.48109">
        <ele>1021</ele>
      </trkpt>
      <trkpt lat="42.15529" lon="-3.47846">
        <ele>1023.5</ele>
      </trkpt>
      <trkpt lat="42.15486" lon="-3.47731">
        <ele>1025.3</ele>
      </trkpt>
      <trkpt lat="42.15327" lon="-3.47483">
        <ele>1031.2</ele>
      </trkpt>
      <trkpt lat="42.15246" lon="-3.47353">
        <ele>1031.2</ele>
      </trkpt>
      <trkpt lat="42.15163" lon="-3.46985">
        <ele>1025.2</ele>
      </trkpt>
      <trkpt lat="42.15113" lon="-3.46529">
        <ele>1019</ele>
      </trkpt>
      <trkpt lat="42.1505" lon="-3.4608">
        <ele>1013.7</ele>
      </trkpt>
      <trkpt lat="42.14989" lon="-3.45855">
        <ele>1012.9</ele>
      </trkpt>
      <trkpt lat="42.14908" lon="-3.45679">
        <ele>1008.7</ele>
      </trkpt>
      <trkpt lat="42.14808" lon="-3.45519">
        <ele>1009.1</ele>
      </trkpt>
      <trkpt lat="42.14638" lon="-3.45311">
        <ele>1003</ele>
      </trkpt>
      <trkpt lat="42.14514" lon="-3.45179">
        <ele>998.3</ele>
      </trkpt>
      <trkpt lat="42.14389" lon="-3.45076">
        <ele>996.6</ele>
      </trkpt>
      <trkpt lat="42.14113" lon="-3.44886">
        <ele>991.3</ele>
      </trkpt>
      <trkpt lat="42.13915" lon="-3.44751">
        <ele>987.9</ele>
      </trkpt>
      <trkpt lat="42.13789" lon="-3.44565">
        <ele>984</ele>
      </trkpt>
      <trkpt lat="42.13682" lon="-3.44264">
        <ele>979.8</ele>
      </trkpt>
      <trkpt lat="42.13601" lon="-3.44141">
        <ele>979</ele>
      </trkpt>
      <trkpt lat="42.13493" lon="-3.44022">
        <ele>977.7</ele>
      </trkpt>
      <trkpt lat="42.1326" lon="-3.43829">
        <ele>973.4</ele>
      </trkpt>
      <trkpt lat="42.13047" lon="-3.43644">
        <ele>971.6</ele>
      </trkpt>
      <trkpt lat="42.12929" lon="-3.43545">
        <ele>970.9</ele>
      </trkpt>
      <trkpt lat="42.1284" lon="-3.4344">
        <ele>970.3</ele>
      </trkpt>
      <trkpt lat="42.12672" lon="-3.43183">
        <ele>966.5</ele>
      </trkpt>
      <trkpt lat="42.12523" lon="-3.42796">
        <ele>963.5</ele>
      </trkpt>
      <trkpt lat="42.12435" lon="-3.42579">
        <ele>963.5</ele>
      </trkpt>
      <trkpt lat="42.12378" lon="-3.4249">
        <ele>963.3</ele>
      </trkpt>
      <trkpt lat="42.12304" lon="-3.42411">
        <ele>963</ele>
      </trkpt>
      <trkpt lat="42.12237" lon="-3.42357">
        <ele>962.6</ele>
      </trkpt>
      <trkpt lat="42.12103" lon="-3.42219">
        <ele>961.4</ele>
      </trkpt>
      <trkpt lat="42.12064" lon="-3.42176">
        <ele>960.8</ele>
      </trkpt>
      <trkpt lat="42.11975" lon="-3.42049">
        <ele>959.1</ele>
      </trkpt>
      <trkpt lat="42.11908" lon="-3.41956">
        <ele>957.7</ele>
      </trkpt>
      <trkpt lat="42.11851" lon="-3.41879">
        <ele>957.4</ele>
      </trkpt>
      <trkpt lat="42.11798" lon="-3.41825">
        <ele>956.5</ele>
      </trkpt>
      <trkpt lat="42.11619" lon="-3.4175">
        <ele>954</ele>
      </trkpt>
      <trkpt lat="42.11416" lon="-3.41679">
        <ele>952</ele>
      </trkpt>
      <trkpt lat="42.11109" lon="-3.41544">
        <ele>952.6</ele>
      </trkpt>
      <trkpt lat="42.10886" lon="-3.41388">
        <ele>951.8</ele>
      </trkpt>
      <trkpt lat="42.10669" lon="-3.41157">
        <ele>952.6</ele>
      </trkpt>
      <trkpt lat="42.10406" lon="-3.40861">
        <ele>955.3</ele>
      </trkpt>
      <trkpt lat="42.10361" lon="-3.40771">
        <ele>956.2</ele>
      </trkpt>
      <trkpt lat="42.1029" lon="-3.40511">
        <ele>953.9</ele>
      </trkpt>
      <trkpt lat="42.10244" lon="-3.4042">
        <ele>955.5</ele>
      </trkpt>
      <trkpt lat="42.1018" lon="-3.40352">
        <ele>955.8</ele>
      </trkpt>
      <trkpt lat="42.10097" lon="-3.40305">
        <ele>958.6</ele>
      </trkpt>
      <trkpt lat="42.09872" lon="-3.4024">
        <ele>958.6</ele>
      </trkpt>
      <trkpt lat="42.09712" lon="-3.40178">
        <ele>958.2</ele>
      </trkpt>
      <trkpt lat="42.09633" lon="-3.40118">
        <ele>959.9</ele>
      </trkpt>
      <trkpt lat="42.09566" lon="-3.40039">
        <ele>963.7</ele>
      </trkpt>
      <trkpt lat="42.09512" lon="-3.39939">
        <ele>960.7</ele>
      </trkpt>
      <trkpt lat="42.09467" lon="-3.39793">
        <ele>964.7</ele>
      </trkpt>
      <trkpt lat="42.09284" lon="-3.39051">
        <ele>971.1</ele>
      </trkpt>
      <trkpt lat="42.09223" lon="-3.3881">
        <ele>973.2</ele>
      </trkpt>
      <trkpt lat="42.09191" lon="-3.3871">
        <ele>972.9</ele>
      </trkpt>
      <trkpt lat="42.09104" lon="-3.38565">
        <ele>965.9</ele>
      </trkpt>
      <trkpt lat="42.0897" lon="-3.38359">
        <ele>967.3</ele>
      </trkpt>
      <trkpt lat="42.08912" lon="-3.38303">
        <ele>966.9</ele>
      </trkpt>
      <trkpt lat="42.08822" lon="-3.38262">
        <ele>966.9</ele>
      </trkpt>
      <trkpt lat="42.0867" lon="-3.38266">
        <ele>962.4</ele>
      </trkpt>
      <trkpt lat="42.08188" lon="-3.3831">
        <ele>955</ele>
      </trkpt>
      <trkpt lat="42.07752" lon="-3.38349">
        <ele>949.5</ele>
      </trkpt>
      <trkpt lat="42.07517" lon="-3.38361">
        <ele>948.7</ele>
      </trkpt>
      <trkpt lat="42.07441" lon="-3.38342">
        <ele>946.6</ele>
      </trkpt>
      <trkpt lat="42.07377" lon="-3.38308">
        <ele>947.3</ele>
      </trkpt>
      <trkpt lat="42.0731" lon="-3.3826">
        <ele>947.3</ele>
      </trkpt>
      <trkpt lat="42.07179" lon="-3.38143">
        <ele>945.3</ele>
      </trkpt>
      <trkpt lat="42.07153" lon="-3.38308">
        <ele>941</ele>
      </trkpt>
      <trkpt lat="42.07113" lon="-3.38405">
        <ele>941</ele>
      </trkpt>
      <trkpt lat="42.07077" lon="-3.38469">
        <ele>940</ele>
      </trkpt>
      <trkpt lat="42.06983" lon="-3.38514">
        <ele>939.3</ele>
      </trkpt>
      <trkpt lat="42.0683" lon="-3.38602">
        <ele>938.5</ele>
      </trkpt>
      <trkpt lat="42.0661" lon="-3.38928">
        <ele>935.8</ele>
      </trkpt>
      <trkpt lat="42.06419" lon="-3.39239">
        <ele>934.5</ele>
      </trkpt>
      <trkpt lat="42.06127" lon="-3.39557">
        <ele>932.7</ele>
      </trkpt>
      <trkpt lat="42.06158" lon="-3.3973">
        <ele>926.2</ele>
      </trkpt>
      <trkpt lat="42.06155" lon="-3.3982">
        <ele>924.3</ele>
      </trkpt>
      <trkpt lat="42.06159" lon="-3.39871">
        <ele>924.7</ele>
      </trkpt>
      <trkpt lat="42.06169" lon="-3.39911">
        <ele>924.2</ele>
      </trkpt>
      <trkpt lat="42.06193" lon="-3.39955">
        <ele>924.6</ele>
      </trkpt>
      <trkpt lat="42.06223" lon="-3.3995">
        <ele>924.8</ele>
      </trkpt>
      <trkpt lat="42.06238" lon="-3.39984">
        <ele>924</ele>
      </trkpt>
      <trkpt lat="42.0626" lon="-3.39997">
        <ele>924.3</ele>
      </trkpt>
      <trkpt lat="42.06311" lon="-3.40078">
        <ele>925.2</ele>
      </trkpt>
      <trkpt lat="42.06377" lon="-3.40135">
        <ele>929</ele>
      </trkpt>
      <trkpt lat="42.06479" lon="-3.40486">
        <ele>927.3</ele>
      </trkpt>
      <trkpt lat="42.06526" lon="-3.40851">
        <ele>924.9</ele>
      </trkpt>
      <trkpt lat="42.06489" lon="-3.41679">
        <ele>922.2</ele>
      </trkpt>
      <trkpt lat="42.06601" lon="-3.41971">
        <ele>922</ele>
      </trkpt>
      <trkpt lat="42.06672" lon="-3.42068">
        <ele>923.1</ele>
      </trkpt>
      <trkpt lat="42.06862" lon="-3.42181">
        <ele>924</ele>
      </trkpt>
      <trkpt lat="42.06892" lon="-3.42235">
        <ele>926.6</ele>
      </trkpt>
      <trkpt lat="42.06854" lon="-3.42342">
        <ele>929.2</ele>
      </trkpt>
      <trkpt lat="42.0679" lon="-3.42428">
        <ele>929.7</ele>
      </trkpt>
      <trkpt lat="42.06025" lon="-3.42894">
        <ele>919.5</ele>
      </trkpt>
      <trkpt lat="42.0572" lon="-3.42962">
        <ele>919.2</ele>
      </trkpt>
      <trkpt lat="42.05439" lon="-3.43271">
        <ele>929.2</ele>
      </trkpt>
      <trkpt lat="42.0498" lon="-3.44267">
        <ele>931.1</ele>
      </trkpt>
      <trkpt lat="42.0456" lon="-3.44507">
        <ele>913.1</ele>
      </trkpt>
      <trkpt lat="42.04815" lon="-3.46653">
        <ele>911.5</ele>
      </trkpt>
      <trkpt lat="42.04369" lon="-3.46876">
        <ele>909</ele>
      </trkpt>
      <trkpt lat="42.04241" lon="-3.47511">
        <ele>968.1</ele>
      </trkpt>
      <trkpt lat="42.03642" lon="-3.48112">
        <ele>905.7</ele>
      </trkpt>
      <trkpt lat="42.04241" lon="-3.49451">
        <ele>926.1</ele>
      </trkpt>
      <trkpt lat="42.04955" lon="-3.49142">
        <ele>929.8</ele>
      </trkpt>
      <trkpt lat="42.05363" lon="-3.5055">
        <ele>896.8</ele>
      </trkpt>
      <trkpt lat="42.05974" lon="-3.51511">
        <ele>896.1</ele>
      </trkpt>
      <trkpt lat="42.05936" lon="-3.52284">
        <ele>895</ele>
      </trkpt>
      <trkpt lat="42.05872" lon="-3.52146">
        <ele>890</ele>
        <extensions>
          <visugpx:TrkExtension xmlns:visugpx="https://www.visugpx.com/editgpx/">
            <visugpx:node>30</visugpx:node>
            </visugpx:TrkExtension>
        </extensions>
      </trkpt>
      <trkpt lat="42.05906" lon="-3.52345">
        <ele>892</ele>
      </trkpt>
      <trkpt lat="42.05895" lon="-3.52317">
        <ele>890</ele>
      </trkpt>
      <trkpt lat="42.05894" lon="-3.52315">
        <ele>889</ele>
      </trkpt>
      <trkpt lat="42.05898" lon="-3.52295">
        <ele>891</ele>
      </trkpt>
      <trkpt lat="42.05905" lon="-3.52272">
        <ele>893</ele>
      </trkpt>
      <trkpt lat="42.05902" lon="-3.52245">
        <ele>894</ele>
      </trkpt>
      <trkpt lat="42.0589" lon="-3.52229">
        <ele>893</ele>
      </trkpt>
      <trkpt lat="42.0585" lon="-3.52187">
        <ele>891</ele>
      </trkpt>
      <trkpt lat="42.05814" lon="-3.52166">
        <ele>887</ele>
      </trkpt>
      <trkpt lat="42.05807" lon="-3.52146">
        <ele>886</ele>
      </trkpt>
      <trkpt lat="42.05807" lon="-3.52146">
        <ele>886</ele>
      </trkpt>
      <trkpt lat="42.05806" lon="-3.52107">
        <ele>885</ele>
      </trkpt>
      <trkpt lat="42.05797" lon="-3.52094">
        <ele>883</ele>
      </trkpt>
      <trkpt lat="42.05729" lon="-3.52069">
        <ele>880</ele>
      </trkpt>
      <trkpt lat="42.05635" lon="-3.51955">
        <ele>885</ele>
      </trkpt>
      <trkpt lat="42.05601" lon="-3.51915">
        <ele>887</ele>
      </trkpt>
      <trkpt lat="42.05575" lon="-3.51898">
        <ele>889</ele>
      </trkpt>
      <trkpt lat="42.05549" lon="-3.51895">
        <ele>891</ele>
      </trkpt>
      <trkpt lat="42.05498" lon="-3.51915">
        <ele>894</ele>
      </trkpt>
      <trkpt lat="42.05434" lon="-3.51936">
        <ele>900</ele>
      </trkpt>
      <trkpt lat="42.05371" lon="-3.51952">
        <ele>902</ele>
      </trkpt>
      <trkpt lat="42.05254" lon="-3.51967">
        <ele>903</ele>
      </trkpt>
      <trkpt lat="42.05198" lon="-3.5197">
        <ele>904</ele>
      </trkpt>
      <trkpt lat="42.05152" lon="-3.51964">
        <ele>911</ele>
      </trkpt>
      <trkpt lat="42.05078" lon="-3.51957">
        <ele>917</ele>
      </trkpt>
      <trkpt lat="42.04993" lon="-3.5196">
        <ele>918</ele>
      </trkpt>
      <trkpt lat="42.04914" lon="-3.51977">
        <ele>920</ele>
      </trkpt>
      <trkpt lat="42.048" lon="-3.52023">
        <ele>923</ele>
      </trkpt>
      <trkpt lat="42.04736" lon="-3.52056">
        <ele>933</ele>
      </trkpt>
      <trkpt lat="42.04689" lon="-3.52086">
        <ele>938</ele>
      </trkpt>
      <trkpt lat="42.04659" lon="-3.52098">
        <ele>942</ele>
      </trkpt>
      <trkpt lat="42.04632" lon="-3.521">
        <ele>944</ele>
      </trkpt>
      <trkpt lat="42.04587" lon="-3.5209">
        <ele>943</ele>
      </trkpt>
      <trkpt lat="42.04544" lon="-3.52078">
        <ele>950</ele>
      </trkpt>
      <trkpt lat="42.04505" lon="-3.5207">
        <ele>954</ele>
      </trkpt>
      <trkpt lat="42.04478" lon="-3.5207">
        <ele>958</ele>
      </trkpt>
      <trkpt lat="42.0443" lon="-3.52087">
        <ele>964</ele>
      </trkpt>
      <trkpt lat="42.04367" lon="-3.52109">
        <ele>971</ele>
      </trkpt>
      <trkpt lat="42.0432" lon="-3.5212">
        <ele>974</ele>
      </trkpt>
      <trkpt lat="42.04276" lon="-3.5212">
        <ele>975</ele>
      </trkpt>
      <trkpt lat="42.04234" lon="-3.52113">
        <ele>977</ele>
      </trkpt>
      <trkpt lat="42.04152" lon="-3.52081">
        <ele>971</ele>
      </trkpt>
      <trkpt lat="42.04117" lon="-3.5207">
        <ele>970</ele>
      </trkpt>
      <trkpt lat="42.04035" lon="-3.52062">
        <ele>971</ele>
      </trkpt>
      <trkpt lat="42.03957" lon="-3.52054">
        <ele>971</ele>
      </trkpt>
      <trkpt lat="42.0392" lon="-3.52052">
        <ele>972</ele>
      </trkpt>
      <trkpt lat="42.03868" lon="-3.52056">
        <ele>972</ele>
      </trkpt>
      <trkpt lat="42.03744" lon="-3.52079">
        <ele>970</ele>
      </trkpt>
      <trkpt lat="42.03622" lon="-3.52101">
        <ele>966</ele>
      </trkpt>
      <trkpt lat="42.03574" lon="-3.5211">
        <ele>966</ele>
      </trkpt>
      <trkpt lat="42.03553" lon="-3.52118">
        <ele>967</ele>
      </trkpt>
      <trkpt lat="42.03539" lon="-3.52127">
        <ele>968</ele>
      </trkpt>
      <trkpt lat="42.03528" lon="-3.52136">
        <ele>968</ele>
      </trkpt>
      <trkpt lat="42.03512" lon="-3.52157">
        <ele>970</ele>
      </trkpt>
      <trkpt lat="42.03492" lon="-3.52195">
        <ele>971</ele>
      </trkpt>
      <trkpt lat="42.03477" lon="-3.52215">
        <ele>970</ele>
      </trkpt>
      <trkpt lat="42.03459" lon="-3.52228">
        <ele>970</ele>
      </trkpt>
      <trkpt lat="42.03436" lon="-3.52232">
        <ele>967</ele>
      </trkpt>
      <trkpt lat="42.03414" lon="-3.52225">
        <ele>962</ele>
      </trkpt>
      <trkpt lat="42.03397" lon="-3.52214">
        <ele>957</ele>
      </trkpt>
      <trkpt lat="42.03382" lon="-3.52194">
        <ele>953</ele>
      </trkpt>
      <trkpt lat="42.03371" lon="-3.52156">
        <ele>956</ele>
      </trkpt>
      <trkpt lat="42.0337" lon="-3.52129">
        <ele>958</ele>
      </trkpt>
      <trkpt lat="42.03377" lon="-3.52065">
        <ele>956</ele>
      </trkpt>
      <trkpt lat="42.03373" lon="-3.52029">
        <ele>950</ele>
      </trkpt>
      <trkpt lat="42.03358" lon="-3.5199">
        <ele>946</ele>
      </trkpt>
      <trkpt lat="42.03333" lon="-3.51958">
        <ele>949</ele>
      </trkpt>
      <trkpt lat="42.03301" lon="-3.51934">
        <ele>952</ele>
      </trkpt>
      <trkpt lat="42.03267" lon="-3.51914">
        <ele>952</ele>
      </trkpt>
      <trkpt lat="42.03245" lon="-3.51893">
        <ele>950</ele>
      </trkpt>
      <trkpt lat="42.03228" lon="-3.51868">
        <ele>948</ele>
      </trkpt>
      <trkpt lat="42.03215" lon="-3.51829">
        <ele>946</ele>
      </trkpt>
      <trkpt lat="42.03208" lon="-3.51767">
        <ele>941</ele>
      </trkpt>
      <trkpt lat="42.03197" lon="-3.51654">
        <ele>935</ele>
      </trkpt>
      <trkpt lat="42.03189" lon="-3.51608">
        <ele>932</ele>
      </trkpt>
      <trkpt lat="42.0317" lon="-3.5156">
        <ele>934</ele>
      </trkpt>
      <trkpt lat="42.03123" lon="-3.51472">
        <ele>931</ele>
      </trkpt>
      <trkpt lat="42.03059" lon="-3.51348">
        <ele>922</ele>
      </trkpt>
      <trkpt lat="42.03022" lon="-3.51277">
        <ele>919</ele>
      </trkpt>
      <trkpt lat="42.02993" lon="-3.51234">
        <ele>918</ele>
      </trkpt>
      <trkpt lat="42.02966" lon="-3.51204">
        <ele>915</ele>
      </trkpt>
      <trkpt lat="42.02892" lon="-3.5114">
        <ele>909</ele>
      </trkpt>
      <trkpt lat="42.02834" lon="-3.51094">
        <ele>911</ele>
      </trkpt>
      <trkpt lat="42.02804" lon="-3.51076">
        <ele>913</ele>
      </trkpt>
      <trkpt lat="42.02766" lon="-3.51062">
        <ele>914</ele>
      </trkpt>
      <trkpt lat="42.02728" lon="-3.51055">
        <ele>916</ele>
      </trkpt>
      <trkpt lat="42.02686" lon="-3.51057">
        <ele>917</ele>
      </trkpt>
      <trkpt lat="42.02649" lon="-3.51071">
        <ele>917</ele>
      </trkpt>
      <trkpt lat="42.02548" lon="-3.51136">
        <ele>916</ele>
      </trkpt>
      <trkpt lat="42.02438" lon="-3.51207">
        <ele>923</ele>
      </trkpt>
      <trkpt lat="42.02309" lon="-3.5129">
        <ele>921</ele>
      </trkpt>
      <trkpt lat="42.02259" lon="-3.51324">
        <ele>919</ele>
      </trkpt>
      <trkpt lat="42.02201" lon="-3.51361">
        <ele>920</ele>
      </trkpt>
      <trkpt lat="42.02163" lon="-3.51381">
        <ele>926</ele>
      </trkpt>
      <trkpt lat="42.02127" lon="-3.51381">
        <ele>930</ele>
      </trkpt>
      <trkpt lat="42.02095" lon="-3.51361">
        <ele>930</ele>
      </trkpt>
      <trkpt lat="42.02045" lon="-3.51305">
        <ele>928</ele>
      </trkpt>
      <trkpt lat="42.02005" lon="-3.51264">
        <ele>932</ele>
      </trkpt>
      <trkpt lat="42.01984" lon="-3.51253">
        <ele>934</ele>
      </trkpt>
      <trkpt lat="42.01956" lon="-3.51254">
        <ele>936</ele>
      </trkpt>
      <trkpt lat="42.01895" lon="-3.51273">
        <ele>948</ele>
      </trkpt>
      <trkpt lat="42.01785" lon="-3.51313">
        <ele>962</ele>
      </trkpt>
      <trkpt lat="42.01673" lon="-3.51358">
        <ele>977</ele>
      </trkpt>
      <trkpt lat="42.01624" lon="-3.5138">
        <ele>978</ele>
      </trkpt>
      <trkpt lat="42.01597" lon="-3.51388">
        <ele>979</ele>
      </trkpt>
      <trkpt lat="42.01579" lon="-3.51388">
        <ele>978</ele>
      </trkpt>
      <trkpt lat="42.01561" lon="-3.51379">
        <ele>976</ele>
      </trkpt>
      <trkpt lat="42.0154" lon="-3.5137">
        <ele>975</ele>
      </trkpt>
      <trkpt lat="42.01527" lon="-3.51366">
        <ele>974</ele>
      </trkpt>
      <trkpt lat="42.01514" lon="-3.51369">
        <ele>975</ele>
      </trkpt>
      <trkpt lat="42.01499" lon="-3.51379">
        <ele>978</ele>
      </trkpt>
      <trkpt lat="42.01477" lon="-3.51401">
        <ele>985</ele>
      </trkpt>
      <trkpt lat="42.01442" lon="-3.5144">
        <ele>995</ele>
      </trkpt>
      <trkpt lat="42.01423" lon="-3.5146">
        <ele>998</ele>
      </trkpt>
      <trkpt lat="42.01404" lon="-3.51471">
        <ele>999</ele>
      </trkpt>
      <trkpt lat="42.01388" lon="-3.51475">
        <ele>999</ele>
      </trkpt>
      <trkpt lat="42.01356" lon="-3.51479">
        <ele>997</ele>
      </trkpt>
      <trkpt lat="42.01324" lon="-3.51486">
        <ele>996</ele>
      </trkpt>
      <trkpt lat="42.01296" lon="-3.515">
        <ele>998</ele>
      </trkpt>
      <trkpt lat="42.01271" lon="-3.51508">
        <ele>998</ele>
      </trkpt>
      <trkpt lat="42.01249" lon="-3.51521">
        <ele>1002</ele>
      </trkpt>
      <trkpt lat="42.01236" lon="-3.51542">
        <ele>1009</ele>
      </trkpt>
      <trkpt lat="42.01223" lon="-3.51564">
        <ele>1015</ele>
      </trkpt>
      <trkpt lat="42.01209" lon="-3.51581">
        <ele>1020</ele>
      </trkpt>
      <trkpt lat="42.01193" lon="-3.51587">
        <ele>1020</ele>
      </trkpt>
      <trkpt lat="42.01163" lon="-3.51587">
        <ele>1015</ele>
      </trkpt>
      <trkpt lat="42.0111" lon="-3.51587">
        <ele>1005</ele>
      </trkpt>
      <trkpt lat="42.01067" lon="-3.51585">
        <ele>1003</ele>
      </trkpt>
      <trkpt lat="42.01034" lon="-3.51577">
        <ele>1001</ele>
      </trkpt>
      <trkpt lat="42.0102" lon="-3.51568">
        <ele>999</ele>
      </trkpt>
      <trkpt lat="42.01006" lon="-3.51546">
        <ele>995</ele>
      </trkpt>
      <trkpt lat="42.00974" lon="-3.51503">
        <ele>994</ele>
      </trkpt>
      <trkpt lat="42.00951" lon="-3.51481">
        <ele>994</ele>
      </trkpt>
      <trkpt lat="42.0093" lon="-3.51468">
        <ele>994</ele>
      </trkpt>
      <trkpt lat="42.00902" lon="-3.5145">
        <ele>995</ele>
      </trkpt>
      <trkpt lat="42.00878" lon="-3.51425">
        <ele>997</ele>
      </trkpt>
      <trkpt lat="42.0083" lon="-3.51372">
        <ele>1001</ele>
      </trkpt>
      <trkpt lat="42.00779" lon="-3.51322">
        <ele>1010</ele>
      </trkpt>
      <trkpt lat="42.00743" lon="-3.51293">
        <ele>1014</ele>
      </trkpt>
      <trkpt lat="42.00711" lon="-3.5127">
        <ele>1017</ele>
      </trkpt>
      <trkpt lat="42.00699" lon="-3.51256">
        <ele>1021</ele>
      </trkpt>
      <trkpt lat="42.00693" lon="-3.51237">
        <ele>1024</ele>
      </trkpt>
      <trkpt lat="42.00691" lon="-3.51198">
        <ele>1031</ele>
      </trkpt>
      <trkpt lat="42.00684" lon="-3.51175">
        <ele>1033</ele>
      </trkpt>
      <trkpt lat="42.00668" lon="-3.51156">
        <ele>1031</ele>
      </trkpt>
      <trkpt lat="42.00643" lon="-3.51145">
        <ele>1031</ele>
      </trkpt>
      <trkpt lat="42.00619" lon="-3.51128">
        <ele>1035</ele>
      </trkpt>
      <trkpt lat="42.006" lon="-3.51106">
        <ele>1036</ele>
      </trkpt>
      <trkpt lat="42.00573" lon="-3.51045">
        <ele>1042</ele>
      </trkpt>
      <trkpt lat="42.00532" lon="-3.5095">
        <ele>1048</ele>
      </trkpt>
      <trkpt lat="42.00487" lon="-3.50878">
        <ele>1049</ele>
      </trkpt>
      <trkpt lat="42.00427" lon="-3.50805">
        <ele>1054</ele>
      </trkpt>
      <trkpt lat="42.00301" lon="-3.50657">
        <ele>1062</ele>
      </trkpt>
      <trkpt lat="42.00237" lon="-3.50585">
        <ele>1066</ele>
      </trkpt>
      <trkpt lat="42.00167" lon="-3.50535">
        <ele>1072</ele>
      </trkpt>
      <trkpt lat="42.00058" lon="-3.50457">
        <ele>1081</ele>
      </trkpt>
      <trkpt lat="41.99964" lon="-3.50394">
        <ele>1085</ele>
      </trkpt>
      <trkpt lat="41.99907" lon="-3.50361">
        <ele>1085</ele>
      </trkpt>
      <trkpt lat="41.99869" lon="-3.50352">
        <ele>1084</ele>
      </trkpt>
      <trkpt lat="41.99837" lon="-3.50354">
        <ele>1083</ele>
      </trkpt>
      <trkpt lat="41.99788" lon="-3.50368">
        <ele>1080</ele>
      </trkpt>
      <trkpt lat="41.99744" lon="-3.50372">
        <ele>1073</ele>
      </trkpt>
      <trkpt lat="41.99703" lon="-3.50363">
        <ele>1070</ele>
      </trkpt>
      <trkpt lat="41.99664" lon="-3.5034">
        <ele>1077</ele>
      </trkpt>
      <trkpt lat="41.99622" lon="-3.50302">
        <ele>1074</ele>
      </trkpt>
      <trkpt lat="41.99596" lon="-3.50277">
        <ele>1070</ele>
      </trkpt>
      <trkpt lat="41.99581" lon="-3.50253">
        <ele>1068</ele>
      </trkpt>
      <trkpt lat="41.99569" lon="-3.5022">
        <ele>1068</ele>
      </trkpt>
      <trkpt lat="41.99555" lon="-3.50192">
        <ele>1067</ele>
      </trkpt>
      <trkpt lat="41.99524" lon="-3.50136">
        <ele>1065</ele>
      </trkpt>
      <trkpt lat="41.99512" lon="-3.50109">
        <ele>1064</ele>
      </trkpt>
      <trkpt lat="41.99501" lon="-3.50073">
        <ele>1063</ele>
      </trkpt>
      <trkpt lat="41.99496" lon="-3.50047">
        <ele>1063</ele>
      </trkpt>
      <trkpt lat="41.99497" lon="-3.5002">
        <ele>1064</ele>
      </trkpt>
      <trkpt lat="41.99498" lon="-3.49995">
        <ele>1064</ele>
      </trkpt>
      <trkpt lat="41.99496" lon="-3.49972">
        <ele>1062</ele>
      </trkpt>
      <trkpt lat="41.9948" lon="-3.49911">
        <ele>1055</ele>
      </trkpt>
      <trkpt lat="41.99476" lon="-3.49878">
        <ele>1054</ele>
      </trkpt>
      <trkpt lat="41.99474" lon="-3.49845">
        <ele>1057</ele>
      </trkpt>
      <trkpt lat="41.99465" lon="-3.49804">
        <ele>1058</ele>
      </trkpt>
      <trkpt lat="41.99463" lon="-3.4977">
        <ele>1059</ele>
      </trkpt>
      <trkpt lat="41.99468" lon="-3.49736">
        <ele>1062</ele>
      </trkpt>
      <trkpt lat="41.99478" lon="-3.49703">
        <ele>1063</ele>
      </trkpt>
      <trkpt lat="41.9948" lon="-3.49673">
        <ele>1059</ele>
      </trkpt>
      <trkpt lat="41.99487" lon="-3.49609">
        <ele>1058</ele>
      </trkpt>
      <trkpt lat="41.99476" lon="-3.49566">
        <ele>1056</ele>
      </trkpt>
      <trkpt lat="41.99454" lon="-3.49555">
        <ele>1048</ele>
      </trkpt>
      <trkpt lat="41.99436" lon="-3.49558">
        <ele>1043</ele>
      </trkpt>
      <trkpt lat="41.99421" lon="-3.49571">
        <ele>1039</ele>
      </trkpt>
      <trkpt lat="41.99411" lon="-3.49593">
        <ele>1037</ele>
      </trkpt>
      <trkpt lat="41.99403" lon="-3.49637">
        <ele>1037</ele>
      </trkpt>
      <trkpt lat="41.99393" lon="-3.49673">
        <ele>1035</ele>
      </trkpt>
      <trkpt lat="41.99378" lon="-3.49702">
        <ele>1030</ele>
      </trkpt>
      <trkpt lat="41.99352" lon="-3.49723">
        <ele>1020</ele>
      </trkpt>
      <trkpt lat="41.99326" lon="-3.49738">
        <ele>1013</ele>
      </trkpt>
      <trkpt lat="41.99295" lon="-3.49744">
        <ele>1005</ele>
      </trkpt>
      <trkpt lat="41.99262" lon="-3.49748">
        <ele>1002</ele>
      </trkpt>
      <trkpt lat="41.99241" lon="-3.49743">
        <ele>1002</ele>
      </trkpt>
      <trkpt lat="41.99222" lon="-3.49731">
        <ele>1001</ele>
      </trkpt>
      <trkpt lat="41.99209" lon="-3.49715">
        <ele>1000</ele>
      </trkpt>
      <trkpt lat="41.99195" lon="-3.49689">
        <ele>1002</ele>
      </trkpt>
      <trkpt lat="41.99164" lon="-3.49613">
        <ele>1013</ele>
      </trkpt>
      <trkpt lat="41.99146" lon="-3.49578">
        <ele>1012</ele>
      </trkpt>
      <trkpt lat="41.99128" lon="-3.49558">
        <ele>1009</ele>
      </trkpt>
      <trkpt lat="41.99072" lon="-3.49517">
        <ele>1003</ele>
      </trkpt>
      <trkpt lat="41.99034" lon="-3.49494">
        <ele>998</ele>
      </trkpt>
      <trkpt lat="41.99" lon="-3.49479">
        <ele>995</ele>
      </trkpt>
      <trkpt lat="41.98984" lon="-3.49464">
        <ele>996</ele>
      </trkpt>
      <trkpt lat="41.98956" lon="-3.49429">
        <ele>993</ele>
      </trkpt>
      <trkpt lat="41.98914" lon="-3.49373">
        <ele>986</ele>
      </trkpt>
      <trkpt lat="41.98878" lon="-3.49332">
        <ele>984</ele>
      </trkpt>
      <trkpt lat="41.98846" lon="-3.49316">
        <ele>980</ele>
      </trkpt>
      <trkpt lat="41.98804" lon="-3.49313">
        <ele>977</ele>
      </trkpt>
      <trkpt lat="41.9873" lon="-3.49314">
        <ele>970</ele>
      </trkpt>
      <trkpt lat="41.98702" lon="-3.4932">
        <ele>968</ele>
      </trkpt>
      <trkpt lat="41.9868" lon="-3.49334">
        <ele>969</ele>
      </trkpt>
      <trkpt lat="41.98659" lon="-3.49357">
        <ele>971</ele>
      </trkpt>
      <trkpt lat="41.98641" lon="-3.49378">
        <ele>974</ele>
      </trkpt>
      <trkpt lat="41.9862" lon="-3.49395">
        <ele>976</ele>
      </trkpt>
      <trkpt lat="41.98584" lon="-3.49413">
        <ele>976</ele>
      </trkpt>
      <trkpt lat="41.98495" lon="-3.49456">
        <ele>966</ele>
      </trkpt>
      <trkpt lat="41.98396" lon="-3.49505">
        <ele>958</ele>
      </trkpt>
      <trkpt lat="41.98322" lon="-3.49541">
        <ele>954</ele>
      </trkpt>
      <trkpt lat="41.9828" lon="-3.49551">
        <ele>951</ele>
      </trkpt>
      <trkpt lat="41.98242" lon="-3.49564">
        <ele>949</ele>
      </trkpt>
      <trkpt lat="41.9819" lon="-3.496">
        <ele>947</ele>
      </trkpt>
      <trkpt lat="41.98116" lon="-3.49647">
        <ele>942</ele>
      </trkpt>
      <trkpt lat="41.98075" lon="-3.49668">
        <ele>942</ele>
      </trkpt>
      <trkpt lat="41.98042" lon="-3.49677">
        <ele>944</ele>
      </trkpt>
      <trkpt lat="41.98013" lon="-3.49672">
        <ele>946</ele>
      </trkpt>
      <trkpt lat="41.97986" lon="-3.49654">
        <ele>949</ele>
      </trkpt>
      <trkpt lat="41.97959" lon="-3.49623">
        <ele>954</ele>
      </trkpt>
      <trkpt lat="41.97928" lon="-3.49573">
        <ele>958</ele>
      </trkpt>
      <trkpt lat="41.97914" lon="-3.49534">
        <ele>959</ele>
      </trkpt>
      <trkpt lat="41.97908" lon="-3.49512">
        <ele>959</ele>
      </trkpt>
      <trkpt lat="41.97904" lon="-3.4949">
        <ele>960</ele>
      </trkpt>
      <trkpt lat="41.9787" lon="-3.49275">
        <ele>967</ele>
      </trkpt>
      <trkpt lat="41.97853" lon="-3.49205">
        <ele>969</ele>
      </trkpt>
      <trkpt lat="41.97828" lon="-3.49123">
        <ele>965</ele>
      </trkpt>
      <trkpt lat="41.9779" lon="-3.48994">
        <ele>966</ele>
      </trkpt>
      <trkpt lat="41.97746" lon="-3.48805">
        <ele>966</ele>
      </trkpt>
      <trkpt lat="41.97721" lon="-3.48686">
        <ele>963</ele>
      </trkpt>
      <trkpt lat="41.97712" lon="-3.4852">
        <ele>952</ele>
      </trkpt>
      <trkpt lat="41.97705" lon="-3.48248">
        <ele>968</ele>
      </trkpt>
      <trkpt lat="41.97699" lon="-3.48089">
        <ele>976</ele>
      </trkpt>
      <trkpt lat="41.97685" lon="-3.48005">
        <ele>970</ele>
      </trkpt>
      <trkpt lat="41.9766" lon="-3.47913">
        <ele>966</ele>
      </trkpt>
      <trkpt lat="41.97608" lon="-3.47731">
        <ele>971</ele>
      </trkpt>
      <trkpt lat="41.97547" lon="-3.47515">
        <ele>961</ele>
      </trkpt>
      <trkpt lat="41.9751" lon="-3.47375">
        <ele>973</ele>
      </trkpt>
      <trkpt lat="41.97497" lon="-3.47319">
        <ele>974</ele>
      </trkpt>
      <trkpt lat="41.97489" lon="-3.4725">
        <ele>976</ele>
      </trkpt>
      <trkpt lat="41.97478" lon="-3.47147">
        <ele>979</ele>
      </trkpt>
      <trkpt lat="41.97461" lon="-3.46987">
        <ele>978</ele>
      </trkpt>
      <trkpt lat="41.9745" lon="-3.46881">
        <ele>974</ele>
      </trkpt>
      <trkpt lat="41.9744" lon="-3.46822">
        <ele>968</ele>
      </trkpt>
      <trkpt lat="41.97426" lon="-3.46778">
        <ele>967</ele>
      </trkpt>
      <trkpt lat="41.97377" lon="-3.46658">
        <ele>975</ele>
      </trkpt>
      <trkpt lat="41.97301" lon="-3.46478">
        <ele>976</ele>
      </trkpt>
      <trkpt lat="41.97243" lon="-3.46338">
        <ele>973</ele>
      </trkpt>
      <trkpt lat="41.97195" lon="-3.4622">
        <ele>971</ele>
      </trkpt>
      <trkpt lat="41.97106" lon="-3.46007">
        <ele>971</ele>
      </trkpt>
      <trkpt lat="41.97034" lon="-3.4584">
        <ele>974</ele>
      </trkpt>
      <trkpt lat="41.97008" lon="-3.45762">
        <ele>977</ele>
      </trkpt>
      <trkpt lat="41.96999" lon="-3.45717">
        <ele>978</ele>
      </trkpt>
      <trkpt lat="41.96998" lon="-3.45673">
        <ele>978</ele>
      </trkpt>
      <trkpt lat="41.97001" lon="-3.4559">
        <ele>974</ele>
      </trkpt>
      <trkpt lat="41.97007" lon="-3.45441">
        <ele>975</ele>
      </trkpt>
      <trkpt lat="41.97011" lon="-3.45358">
        <ele>975</ele>
      </trkpt>
      <trkpt lat="41.97004" lon="-3.45298">
        <ele>978</ele>
      </trkpt>
      <trkpt lat="41.96985" lon="-3.4519">
        <ele>980</ele>
      </trkpt>
      <trkpt lat="41.96956" lon="-3.45043">
        <ele>983</ele>
      </trkpt>
      <trkpt lat="41.96905" lon="-3.44784">
        <ele>991</ele>
      </trkpt>
      <trkpt lat="41.96857" lon="-3.44539">
        <ele>988</ele>
      </trkpt>
      <trkpt lat="41.96815" lon="-3.44334">
        <ele>983</ele>
      </trkpt>
      <trkpt lat="41.96768" lon="-3.44095">
        <ele>999</ele>
      </trkpt>
      <trkpt lat="41.96726" lon="-3.43881">
        <ele>998</ele>
      </trkpt>
      <trkpt lat="41.96706" lon="-3.43784">
        <ele>1002</ele>
      </trkpt>
      <trkpt lat="41.96681" lon="-3.43683">
        <ele>1002</ele>
      </trkpt>
      <trkpt lat="41.96627" lon="-3.43473">
        <ele>1003</ele>
      </trkpt>
      <trkpt lat="41.96592" lon="-3.4334">
        <ele>1008</ele>
      </trkpt>
      <trkpt lat="41.96571" lon="-3.43256">
        <ele>1009</ele>
      </trkpt>
      <trkpt lat="41.96518" lon="-3.43045">
        <ele>1018</ele>
      </trkpt>
      <trkpt lat="41.96485" lon="-3.42978">
        <ele>1020</ele>
      </trkpt>
      <trkpt lat="41.96449" lon="-3.42932">
        <ele>1018</ele>
      </trkpt>
      <trkpt lat="41.96389" lon="-3.42848">
        <ele>1014</ele>
      </trkpt>
      <trkpt lat="41.96344" lon="-3.42788">
        <ele>1010</ele>
      </trkpt>
      <trkpt lat="41.96321" lon="-3.42753">
        <ele>1008</ele>
      </trkpt>
      <trkpt lat="41.96309" lon="-3.42726">
        <ele>1007</ele>
      </trkpt>
      <trkpt lat="41.963" lon="-3.42697">
        <ele>1004</ele>
      </trkpt>
      <trkpt lat="41.96293" lon="-3.42664">
        <ele>1001</ele>
      </trkpt>
      <trkpt lat="41.96287" lon="-3.42631">
        <ele>998</ele>
      </trkpt>
      <trkpt lat="41.9628" lon="-3.42617">
        <ele>998</ele>
      </trkpt>
      <trkpt lat="41.96274" lon="-3.42611">
        <ele>998</ele>
      </trkpt>
      <trkpt lat="41.96269" lon="-3.42603">
        <ele>997</ele>
      </trkpt>
      <trkpt lat="41.96269" lon="-3.42591">
        <ele>997</ele>
      </trkpt>
      <trkpt lat="41.96272" lon="-3.42574">
        <ele>997</ele>
      </trkpt>
      <trkpt lat="41.96271" lon="-3.42548">
        <ele>997</ele>
      </trkpt>
      <trkpt lat="41.96267" lon="-3.42527">
        <ele>996</ele>
      </trkpt>
      <trkpt lat="41.96265" lon="-3.42502">
        <ele>995</ele>
      </trkpt>
      <trkpt lat="41.96263" lon="-3.42466">
        <ele>994</ele>
      </trkpt>
      <trkpt lat="41.9626" lon="-3.42388">
        <ele>991</ele>
      </trkpt>
      <trkpt lat="41.96257" lon="-3.42311">
        <ele>994</ele>
      </trkpt>
      <trkpt lat="41.96253" lon="-3.4222">
        <ele>997</ele>
      </trkpt>
      <trkpt lat="41.96251" lon="-3.42187">
        <ele>998</ele>
      </trkpt>
      <trkpt lat="41.96246" lon="-3.42169">
        <ele>999</ele>
      </trkpt>
      <trkpt lat="41.96231" lon="-3.42127">
        <ele>999</ele>
      </trkpt>
      <trkpt lat="41.96227" lon="-3.42109">
        <ele>999</ele>
      </trkpt>
      <trkpt lat="41.96226" lon="-3.421">
        <ele>1000</ele>
      </trkpt>
      <trkpt lat="41.96225" lon="-3.42082">
        <ele>1001</ele>
      </trkpt>
      <trkpt lat="41.9623" lon="-3.42057">
        <ele>1005</ele>
      </trkpt>
      <trkpt lat="41.96238" lon="-3.42029">
        <ele>1010</ele>
      </trkpt>
      <trkpt lat="41.9624" lon="-3.42012">
        <ele>1012</ele>
      </trkpt>
      <trkpt lat="41.96239" lon="-3.41997">
        <ele>1013</ele>
      </trkpt>
      <trkpt lat="41.96239" lon="-3.41981">
        <ele>1013</ele>
      </trkpt>
      <trkpt lat="41.96241" lon="-3.41985">
        <ele>1014</ele>
      </trkpt>
      <trkpt lat="41.96242" lon="-3.42007">
        <ele>1013</ele>
      </trkpt>
      <trkpt lat="41.96241" lon="-3.42024">
        <ele>1011</ele>
      </trkpt>
      <trkpt lat="41.96237" lon="-3.42043">
        <ele>1008</ele>
      </trkpt>
      <trkpt lat="41.9623" lon="-3.42071">
        <ele>1004</ele>
      </trkpt>
      <trkpt lat="41.96228" lon="-3.42089">
        <ele>1001</ele>
      </trkpt>
      <trkpt lat="41.9623" lon="-3.42109">
        <ele>1000</ele>
      </trkpt>
      <trkpt lat="41.96236" lon="-3.4213">
        <ele>999</ele>
      </trkpt>
      <trkpt lat="41.96247" lon="-3.4216">
        <ele>999</ele>
      </trkpt>
      <trkpt lat="41.96253" lon="-3.42179">
        <ele>999</ele>
      </trkpt>
      <trkpt lat="41.96255" lon="-3.422">
        <ele>998</ele>
      </trkpt>
      <trkpt lat="41.96259" lon="-3.42293">
        <ele>995</ele>
      </trkpt>
      <trkpt lat="41.96262" lon="-3.42393">
        <ele>991</ele>
      </trkpt>
      <trkpt lat="41.96267" lon="-3.4248">
        <ele>994</ele>
      </trkpt>
      <trkpt lat="41.96269" lon="-3.42517">
        <ele>997</ele>
      </trkpt>
      <trkpt lat="41.96271" lon="-3.42536">
        <ele>997</ele>
      </trkpt>
      <trkpt lat="41.96275" lon="-3.42559">
        <ele>997</ele>
      </trkpt>
      <trkpt lat="41.9628" lon="-3.42568">
        <ele>997</ele>
      </trkpt>
      <trkpt lat="41.96286" lon="-3.42575">
        <ele>997</ele>
      </trkpt>
      <trkpt lat="41.9629" lon="-3.42578">
        <ele>998</ele>
      </trkpt>
      <trkpt lat="41.96294" lon="-3.42582">
        <ele>998</ele>
      </trkpt>
      <trkpt lat="41.96297" lon="-3.42593">
        <ele>998</ele>
      </trkpt>
      <trkpt lat="41.96296" lon="-3.42603">
        <ele>999</ele>
      </trkpt>
      <trkpt lat="41.96291" lon="-3.42612">
        <ele>999</ele>
      </trkpt>
      <trkpt lat="41.96285" lon="-3.42615">
        <ele>998</ele>
      </trkpt>
      <trkpt lat="41.96277" lon="-3.42613">
        <ele>998</ele>
      </trkpt>
      <trkpt lat="41.96267" lon="-3.42615">
        <ele>998</ele>
      </trkpt>
      <trkpt lat="41.96261" lon="-3.42618">
        <ele>997</ele>
      </trkpt>
      <trkpt lat="41.96254" lon="-3.42625">
        <ele>997</ele>
      </trkpt>
      <trkpt lat="41.96142" lon="-3.42733">
        <ele>993</ele>
      </trkpt>
      <trkpt lat="41.95931" lon="-3.4307">
        <ele>991</ele>
      </trkpt>
      <trkpt lat="41.959" lon="-3.43138">
        <ele>989</ele>
      </trkpt>
      <trkpt lat="41.95885" lon="-3.43189">
        <ele>990</ele>
      </trkpt>
      <trkpt lat="41.95876" lon="-3.43243">
        <ele>991</ele>
      </trkpt>
      <trkpt lat="41.95872" lon="-3.43346">
        <ele>992</ele>
      </trkpt>
      <trkpt lat="41.95868" lon="-3.43509">
        <ele>992</ele>
      </trkpt>
      <trkpt lat="41.95858" lon="-3.43642">
        <ele>991</ele>
      </trkpt>
      <trkpt lat="41.9585" lon="-3.43698">
        <ele>989</ele>
      </trkpt>
      <trkpt lat="41.95821" lon="-3.43787">
        <ele>985</ele>
      </trkpt>
      <trkpt lat="41.95767" lon="-3.43932">
        <ele>977</ele>
      </trkpt>
      <trkpt lat="41.95727" lon="-3.44027">
        <ele>973</ele>
      </trkpt>
      <trkpt lat="41.95688" lon="-3.44105">
        <ele>976</ele>
      </trkpt>
      <trkpt lat="41.95617" lon="-3.44237">
        <ele>976</ele>
      </trkpt>
      <trkpt lat="41.95579" lon="-3.44304">
        <ele>976</ele>
      </trkpt>
      <trkpt lat="41.95558" lon="-3.44337">
        <ele>977</ele>
      </trkpt>
      <trkpt lat="41.95551" lon="-3.44354">
        <ele>977</ele>
      </trkpt>
      <trkpt lat="41.95545" lon="-3.44376">
        <ele>978</ele>
      </trkpt>
      <trkpt lat="41.95537" lon="-3.44397">
        <ele>978</ele>
      </trkpt>
      <trkpt lat="41.95529" lon="-3.4441">
        <ele>978</ele>
      </trkpt>
      <trkpt lat="41.95513" lon="-3.44426">
        <ele>978</ele>
      </trkpt>
      <trkpt lat="41.95499" lon="-3.44432">
        <ele>978</ele>
      </trkpt>
      <trkpt lat="41.95484" lon="-3.44433">
        <ele>976</ele>
      </trkpt>
      <trkpt lat="41.95467" lon="-3.44428">
        <ele>976</ele>
      </trkpt>
      <trkpt lat="41.95449" lon="-3.44421">
        <ele>977</ele>
      </trkpt>
      <trkpt lat="41.95433" lon="-3.44417">
        <ele>978</ele>
      </trkpt>
      <trkpt lat="41.95421" lon="-3.44416">
        <ele>978</ele>
      </trkpt>
      <trkpt lat="41.95411" lon="-3.44421">
        <ele>978</ele>
      </trkpt>
      <trkpt lat="41.95397" lon="-3.44437">
        <ele>979</ele>
      </trkpt>
      <trkpt lat="41.9537" lon="-3.4448">
        <ele>981</ele>
      </trkpt>
      <trkpt lat="41.95361" lon="-3.44496">
        <ele>982</ele>
      </trkpt>
      <trkpt lat="41.95351" lon="-3.44506">
        <ele>983</ele>
      </trkpt>
      <trkpt lat="41.95343" lon="-3.44512">
        <ele>983</ele>
      </trkpt>
      <trkpt lat="41.95335" lon="-3.44513">
        <ele>983</ele>
      </trkpt>
      <trkpt lat="41.95323" lon="-3.44508">
        <ele>982</ele>
      </trkpt>
      <trkpt lat="41.9531" lon="-3.44498">
        <ele>981</ele>
      </trkpt>
      <trkpt lat="41.95266" lon="-3.44453">
        <ele>979</ele>
      </trkpt>
      <trkpt lat="41.95237" lon="-3.44426">
        <ele>982</ele>
      </trkpt>
      <trkpt lat="41.95216" lon="-3.44413">
        <ele>984</ele>
      </trkpt>
      <trkpt lat="41.95195" lon="-3.44404">
        <ele>986</ele>
      </trkpt>
      <trkpt lat="41.95082" lon="-3.44338">
        <ele>997</ele>
      </trkpt>
      <trkpt lat="41.94982" lon="-3.44278">
        <ele>1001</ele>
      </trkpt>
      <trkpt lat="41.94968" lon="-3.44269">
        <ele>1002</ele>
      </trkpt>
      <trkpt lat="41.94952" lon="-3.44265">
        <ele>1003</ele>
      </trkpt>
      <trkpt lat="41.94926" lon="-3.44267">
        <ele>1004</ele>
      </trkpt>
      <trkpt lat="41.94902" lon="-3.44279">
        <ele>1010</ele>
      </trkpt>
      <trkpt lat="41.94868" lon="-3.443">
        <ele>1020</ele>
      </trkpt>
      <trkpt lat="41.94849" lon="-3.44318">
        <ele>1027</ele>
      </trkpt>
      <trkpt lat="41.94798" lon="-3.4438">
        <ele>1031</ele>
      </trkpt>
      <trkpt lat="41.94745" lon="-3.44451">
        <ele>1019</ele>
      </trkpt>
      <trkpt lat="41.94711" lon="-3.44514">
        <ele>1016</ele>
      </trkpt>
      <trkpt lat="41.9468" lon="-3.44559">
        <ele>1019</ele>
      </trkpt>
      <trkpt lat="41.94653" lon="-3.44598">
        <ele>1024</ele>
      </trkpt>
      <trkpt lat="41.94641" lon="-3.44619">
        <ele>1026</ele>
      </trkpt>
      <trkpt lat="41.94633" lon="-3.44641">
        <ele>1027</ele>
      </trkpt>
      <trkpt lat="41.94621" lon="-3.4468">
        <ele>1028</ele>
      </trkpt>
      <trkpt lat="41.94619" lon="-3.44696">
        <ele>1029</ele>
      </trkpt>
      <trkpt lat="41.9462" lon="-3.44711">
        <ele>1031</ele>
      </trkpt>
      <trkpt lat="41.94629" lon="-3.44724">
        <ele>1033</ele>
      </trkpt>
      <trkpt lat="41.94637" lon="-3.4473">
        <ele>1033</ele>
      </trkpt>
      <trkpt lat="41.94646" lon="-3.44734">
        <ele>1033</ele>
      </trkpt>
      <trkpt lat="41.94655" lon="-3.44734">
        <ele>1032</ele>
      </trkpt>
      <trkpt lat="41.94688" lon="-3.44734">
        <ele>1026</ele>
      </trkpt>
      <trkpt lat="41.94707" lon="-3.44743">
        <ele>1024</ele>
      </trkpt>
      <trkpt lat="41.94717" lon="-3.44762">
        <ele>1026</ele>
      </trkpt>
      <trkpt lat="41.94716" lon="-3.4479">
        <ele>1027</ele>
      </trkpt>
      <trkpt lat="41.94706" lon="-3.448">
        <ele>1026</ele>
      </trkpt>
      <trkpt lat="41.94689" lon="-3.44807">
        <ele>1030</ele>
      </trkpt>
      <trkpt lat="41.94672" lon="-3.44809">
        <ele>1033</ele>
      </trkpt>
      <trkpt lat="41.94652" lon="-3.44819">
        <ele>1038</ele>
      </trkpt>
      <trkpt lat="41.94633" lon="-3.4483">
        <ele>1042</ele>
      </trkpt>
      <trkpt lat="41.94613" lon="-3.44852">
        <ele>1047</ele>
      </trkpt>
      <trkpt lat="41.9459" lon="-3.44885">
        <ele>1052</ele>
      </trkpt>
      <trkpt lat="41.94569" lon="-3.44917">
        <ele>1057</ele>
      </trkpt>
      <trkpt lat="41.94537" lon="-3.44948">
        <ele>1063</ele>
      </trkpt>
      <trkpt lat="41.94524" lon="-3.4496">
        <ele>1066</ele>
      </trkpt>
      <trkpt lat="41.94497" lon="-3.44997">
        <ele>1072</ele>
      </trkpt>
      <trkpt lat="41.94475" lon="-3.45019">
        <ele>1076</ele>
      </trkpt>
      <trkpt lat="41.94444" lon="-3.45048">
        <ele>1079</ele>
      </trkpt>
      <trkpt lat="41.94403" lon="-3.45077">
        <ele>1082</ele>
      </trkpt>
      <trkpt lat="41.94352" lon="-3.45115">
        <ele>1082</ele>
      </trkpt>
      <trkpt lat="41.94338" lon="-3.4513">
        <ele>1083</ele>
      </trkpt>
      <trkpt lat="41.9432" lon="-3.45148">
        <ele>1084</ele>
      </trkpt>
      <trkpt lat="41.94292" lon="-3.45178">
        <ele>1088</ele>
      </trkpt>
      <trkpt lat="41.9427" lon="-3.45205">
        <ele>1092</ele>
      </trkpt>
      <trkpt lat="41.94246" lon="-3.4522">
        <ele>1092</ele>
      </trkpt>
      <trkpt lat="41.94219" lon="-3.45235">
        <ele>1091</ele>
      </trkpt>
      <trkpt lat="41.94189" lon="-3.45249">
        <ele>1091</ele>
      </trkpt>
      <trkpt lat="41.94171" lon="-3.45254">
        <ele>1091</ele>
      </trkpt>
      <trkpt lat="41.94155" lon="-3.45257">
        <ele>1090</ele>
      </trkpt>
      <trkpt lat="41.94119" lon="-3.45258">
        <ele>1087</ele>
      </trkpt>
      <trkpt lat="41.94093" lon="-3.45261">
        <ele>1087</ele>
      </trkpt>
      <trkpt lat="41.94066" lon="-3.45266">
        <ele>1088</ele>
      </trkpt>
      <trkpt lat="41.94046" lon="-3.45278">
        <ele>1088</ele>
      </trkpt>
      <trkpt lat="41.93999" lon="-3.45309">
        <ele>1091</ele>
      </trkpt>
      <trkpt lat="41.93968" lon="-3.45336">
        <ele>1093</ele>
      </trkpt>
      <trkpt lat="41.93951" lon="-3.45352">
        <ele>1095</ele>
      </trkpt>
      <trkpt lat="41.93937" lon="-3.45371">
        <ele>1098</ele>
      </trkpt>
      <trkpt lat="41.93918" lon="-3.45402">
        <ele>1100</ele>
      </trkpt>
      <trkpt lat="41.93869" lon="-3.45479">
        <ele>1116</ele>
      </trkpt>
      <trkpt lat="41.93816" lon="-3.45548">
        <ele>1125</ele>
      </trkpt>
      <trkpt lat="41.93786" lon="-3.45587">
        <ele>1128</ele>
      </trkpt>
      <trkpt lat="41.93766" lon="-3.45609">
        <ele>1129</ele>
      </trkpt>
      <trkpt lat="41.93685" lon="-3.45694">
        <ele>1130</ele>
      </trkpt>
      <trkpt lat="41.9361" lon="-3.4574">
        <ele>1125</ele>
      </trkpt>
      <trkpt lat="41.93574" lon="-3.45761">
        <ele>1126</ele>
      </trkpt>
      <trkpt lat="41.93556" lon="-3.45771">
        <ele>1128</ele>
      </trkpt>
      <trkpt lat="41.93535" lon="-3.45776">
        <ele>1130</ele>
      </trkpt>
      <trkpt lat="41.93509" lon="-3.45778">
        <ele>1132</ele>
      </trkpt>
      <trkpt lat="41.93486" lon="-3.45775">
        <ele>1132</ele>
      </trkpt>
      <trkpt lat="41.93472" lon="-3.45771">
        <ele>1130</ele>
      </trkpt>
      <trkpt lat="41.93464" lon="-3.45767">
        <ele>1129</ele>
      </trkpt>
      <trkpt lat="41.93379" lon="-3.45711">
        <ele>1121</ele>
      </trkpt>
      <trkpt lat="41.93275" lon="-3.45646">
        <ele>1129</ele>
      </trkpt>
      <trkpt lat="41.93199" lon="-3.45546">
        <ele>1118</ele>
      </trkpt>
      <trkpt lat="41.93175" lon="-3.45524">
        <ele>1119</ele>
      </trkpt>
      <trkpt lat="41.93157" lon="-3.45515">
        <ele>1122</ele>
      </trkpt>
      <trkpt lat="41.93137" lon="-3.45513">
        <ele>1125</ele>
      </trkpt>
      <trkpt lat="41.93111" lon="-3.45519">
        <ele>1130</ele>
      </trkpt>
      <trkpt lat="41.93097" lon="-3.4552">
        <ele>1132</ele>
      </trkpt>
      <trkpt lat="41.93072" lon="-3.45513">
        <ele>1132</ele>
      </trkpt>
      <trkpt lat="41.93056" lon="-3.45501">
        <ele>1130</ele>
      </trkpt>
      <trkpt lat="41.92979" lon="-3.45407">
        <ele>1129</ele>
      </trkpt>
      <trkpt lat="41.92902" lon="-3.45335">
        <ele>1146</ele>
      </trkpt>
      <trkpt lat="41.92728" lon="-3.45231">
        <ele>1150</ele>
      </trkpt>
      <trkpt lat="41.92671" lon="-3.45207">
        <ele>1145</ele>
      </trkpt>
      <trkpt lat="41.9264" lon="-3.45212">
        <ele>1144</ele>
      </trkpt>
      <trkpt lat="41.92597" lon="-3.45237">
        <ele>1144</ele>
      </trkpt>
      <trkpt lat="41.92542" lon="-3.45287">
        <ele>1142</ele>
      </trkpt>
      <trkpt lat="41.92514" lon="-3.45317">
        <ele>1140</ele>
      </trkpt>
      <trkpt lat="41.92496" lon="-3.45364">
        <ele>1142</ele>
      </trkpt>
      <trkpt lat="41.92349" lon="-3.45816">
        <ele>1133</ele>
      </trkpt>
      <trkpt lat="41.92296" lon="-3.45997">
        <ele>1130</ele>
      </trkpt>
      <trkpt lat="41.92218" lon="-3.46187">
        <ele>1132</ele>
      </trkpt>
      <trkpt lat="41.91945" lon="-3.46381">
        <ele>1113</ele>
      </trkpt>
      <trkpt lat="41.917" lon="-3.46522">
        <ele>1110</ele>
      </trkpt>
      <trkpt lat="41.91677" lon="-3.46539">
        <ele>1109</ele>
      </trkpt>
      <trkpt lat="41.91658" lon="-3.46556">
        <ele>1111</ele>
      </trkpt>
      <trkpt lat="41.9164" lon="-3.46598">
        <ele>1112</ele>
      </trkpt>
      <trkpt lat="41.916" lon="-3.46665">
        <ele>1116</ele>
      </trkpt>
      <trkpt lat="41.91561" lon="-3.46704">
        <ele>1117</ele>
      </trkpt>
      <trkpt lat="41.91534" lon="-3.46726">
        <ele>1116</ele>
      </trkpt>
      <trkpt lat="41.9151" lon="-3.46734">
        <ele>1114</ele>
      </trkpt>
      <trkpt lat="41.9148" lon="-3.46739">
        <ele>1110</ele>
      </trkpt>
      <trkpt lat="41.91454" lon="-3.46737">
        <ele>1106</ele>
      </trkpt>
      <trkpt lat="41.91415" lon="-3.46724">
        <ele>1101</ele>
      </trkpt>
      <trkpt lat="41.91373" lon="-3.46708">
        <ele>1099</ele>
      </trkpt>
      <trkpt lat="41.91353" lon="-3.46701">
        <ele>1100</ele>
      </trkpt>
      <trkpt lat="41.91336" lon="-3.46699">
        <ele>1100</ele>
      </trkpt>
      <trkpt lat="41.91324" lon="-3.46702">
        <ele>1100</ele>
      </trkpt>
      <trkpt lat="41.91308" lon="-3.46711">
        <ele>1099</ele>
      </trkpt>
      <trkpt lat="41.91286" lon="-3.46725">
        <ele>1098</ele>
      </trkpt>
      <trkpt lat="41.91262" lon="-3.46742">
        <ele>1098</ele>
      </trkpt>
      <trkpt lat="41.91245" lon="-3.4675">
        <ele>1098</ele>
      </trkpt>
      <trkpt lat="41.91216" lon="-3.46758">
        <ele>1099</ele>
      </trkpt>
      <trkpt lat="41.91164" lon="-3.46773">
        <ele>1103</ele>
      </trkpt>
      <trkpt lat="41.91127" lon="-3.46777">
        <ele>1106</ele>
      </trkpt>
      <trkpt lat="41.91061" lon="-3.4678">
        <ele>1111</ele>
      </trkpt>
      <trkpt lat="41.91016" lon="-3.46783">
        <ele>1109</ele>
      </trkpt>
      <trkpt lat="41.90994" lon="-3.46782">
        <ele>1107</ele>
      </trkpt>
      <trkpt lat="41.90915" lon="-3.46758">
        <ele>1102</ele>
      </trkpt>
      <trkpt lat="41.90729" lon="-3.46699">
        <ele>1097</ele>
      </trkpt>
      <trkpt lat="41.9071" lon="-3.46696">
        <ele>1097</ele>
      </trkpt>
      <trkpt lat="41.9069" lon="-3.46696">
        <ele>1097</ele>
      </trkpt>
      <trkpt lat="41.90662" lon="-3.46702">
        <ele>1095</ele>
      </trkpt>
      <trkpt lat="41.90631" lon="-3.4671">
        <ele>1095</ele>
      </trkpt>
      <trkpt lat="41.90611" lon="-3.46712">
        <ele>1095</ele>
      </trkpt>
      <trkpt lat="41.90581" lon="-3.46708">
        <ele>1095</ele>
      </trkpt>
      <trkpt lat="41.90448" lon="-3.46681">
        <ele>1086</ele>
      </trkpt>
      <trkpt lat="41.90423" lon="-3.46679">
        <ele>1084</ele>
      </trkpt>
      <trkpt lat="41.90404" lon="-3.4668">
        <ele>1082</ele>
      </trkpt>
      <trkpt lat="41.90375" lon="-3.4669">
        <ele>1081</ele>
      </trkpt>
      <trkpt lat="41.90339" lon="-3.46703">
        <ele>1081</ele>
      </trkpt>
      <trkpt lat="41.90316" lon="-3.46711">
        <ele>1081</ele>
      </trkpt>
      <trkpt lat="41.90295" lon="-3.46713">
        <ele>1081</ele>
      </trkpt>
      <trkpt lat="41.90263" lon="-3.46712">
        <ele>1079</ele>
      </trkpt>
      <trkpt lat="41.90228" lon="-3.46711">
        <ele>1077</ele>
      </trkpt>
      <trkpt lat="41.90171" lon="-3.4671">
        <ele>1072</ele>
      </trkpt>
      <trkpt lat="41.90085" lon="-3.46715">
        <ele>1064</ele>
      </trkpt>
      <trkpt lat="41.90062" lon="-3.46712">
        <ele>1063</ele>
      </trkpt>
      <trkpt lat="41.90041" lon="-3.46708">
        <ele>1061</ele>
      </trkpt>
      <trkpt lat="41.90011" lon="-3.46701">
        <ele>1060</ele>
      </trkpt>
      <trkpt lat="41.89983" lon="-3.46694">
        <ele>1059</ele>
      </trkpt>
      <trkpt lat="41.89966" lon="-3.46695">
        <ele>1059</ele>
      </trkpt>
      <trkpt lat="41.89934" lon="-3.46704">
        <ele>1058</ele>
      </trkpt>
      <trkpt lat="41.89891" lon="-3.46717">
        <ele>1052</ele>
      </trkpt>
      <trkpt lat="41.89811" lon="-3.46752">
        <ele>1042</ele>
      </trkpt>
      <trkpt lat="41.89796" lon="-3.46794">
        <ele>1041</ele>
      </trkpt>
      <trkpt lat="41.89771" lon="-3.46943">
        <ele>1038</ele>
      </trkpt>
      <trkpt lat="41.89747" lon="-3.46992">
        <ele>1038</ele>
      </trkpt>
      <trkpt lat="41.89692" lon="-3.47021">
        <ele>1035</ele>
      </trkpt>
      <trkpt lat="41.89625" lon="-3.47059">
        <ele>1032</ele>
      </trkpt>
      <trkpt lat="41.89595" lon="-3.47067">
        <ele>1031</ele>
      </trkpt>
      <trkpt lat="41.89467" lon="-3.47066">
        <ele>1027</ele>
      </trkpt>
      <trkpt lat="41.89269" lon="-3.47064">
        <ele>1030</ele>
      </trkpt>
      <trkpt lat="41.89064" lon="-3.47062">
        <ele>1021</ele>
      </trkpt>
      <trkpt lat="41.8904" lon="-3.47059">
        <ele>1022</ele>
      </trkpt>
      <trkpt lat="41.89014" lon="-3.47052">
        <ele>1022</ele>
      </trkpt>
      <trkpt lat="41.88973" lon="-3.47029">
        <ele>1020</ele>
      </trkpt>
      <trkpt lat="41.88829" lon="-3.46958">
        <ele>1015</ele>
      </trkpt>
      <trkpt lat="41.8874" lon="-3.4694">
        <ele>1014</ele>
      </trkpt>
      <trkpt lat="41.8846" lon="-3.46906">
        <ele>1014</ele>
      </trkpt>
      <trkpt lat="41.88314" lon="-3.46943">
        <ele>1028</ele>
      </trkpt>
      <trkpt lat="41.88172" lon="-3.46969">
        <ele>1033</ele>
      </trkpt>
      <trkpt lat="41.87947" lon="-3.46949">
        <ele>1034</ele>
      </trkpt>
      <trkpt lat="41.87204" lon="-3.46858">
        <ele>1027</ele>
      </trkpt>
      <trkpt lat="41.86816" lon="-3.47053">
        <ele>1024</ele>
      </trkpt>
      <trkpt lat="41.86374" lon="-3.47089">
        <ele>1012</ele>
      </trkpt>
      <trkpt lat="41.85937" lon="-3.47116">
        <ele>1010</ele>
      </trkpt>
      <trkpt lat="41.85891" lon="-3.47114">
        <ele>1013</ele>
      </trkpt>
      <trkpt lat="41.85845" lon="-3.47105">
        <ele>1013</ele>
      </trkpt>
      <trkpt lat="41.85587" lon="-3.47049">
        <ele>990</ele>
      </trkpt>
      <trkpt lat="41.85508" lon="-3.47034">
        <ele>991</ele>
      </trkpt>
      <trkpt lat="41.85482" lon="-3.47036">
        <ele>991</ele>
      </trkpt>
      <trkpt lat="41.85249" lon="-3.47077">
        <ele>971</ele>
      </trkpt>
      <trkpt lat="41.84984" lon="-3.47125">
        <ele>964</ele>
      </trkpt>
      <trkpt lat="41.84712" lon="-3.47175">
        <ele>965</ele>
      </trkpt>
      <trkpt lat="41.84428" lon="-3.47225">
        <ele>965</ele>
      </trkpt>
      <trkpt lat="41.84308" lon="-3.47247">
        <ele>960</ele>
      </trkpt>
      <trkpt lat="41.84266" lon="-3.47261">
        <ele>961</ele>
      </trkpt>
      <trkpt lat="41.8409" lon="-3.47324">
        <ele>958</ele>
      </trkpt>
      <trkpt lat="41.83954" lon="-3.47453">
        <ele>957</ele>
      </trkpt>
      <trkpt lat="41.83746" lon="-3.47578">
        <ele>947</ele>
      </trkpt>
      <trkpt lat="41.83695" lon="-3.47606">
        <ele>948</ele>
      </trkpt>
      <trkpt lat="41.83661" lon="-3.47631">
        <ele>948</ele>
      </trkpt>
      <trkpt lat="41.83509" lon="-3.47797">
        <ele>947</ele>
      </trkpt>
      <trkpt lat="41.83442" lon="-3.47858">
        <ele>949</ele>
      </trkpt>
      <trkpt lat="41.8337" lon="-3.47917">
        <ele>950</ele>
      </trkpt>
      <trkpt lat="41.83295" lon="-3.47972">
        <ele>950</ele>
      </trkpt>
      <trkpt lat="41.83195" lon="-3.48043">
        <ele>944</ele>
      </trkpt>
      <trkpt lat="41.83179" lon="-3.48057">
        <ele>947</ele>
      </trkpt>
      <trkpt lat="41.83111" lon="-3.4816">
        <ele>952</ele>
      </trkpt>
      <trkpt lat="41.82848" lon="-3.48554">
        <ele>945</ele>
      </trkpt>
      <trkpt lat="41.82804" lon="-3.48599">
        <ele>947</ele>
      </trkpt>
      <trkpt lat="41.8276" lon="-3.48646">
        <ele>948</ele>
      </trkpt>
      <trkpt lat="41.82708" lon="-3.48675">
        <ele>952</ele>
      </trkpt>
      <trkpt lat="41.82667" lon="-3.48691">
        <ele>954</ele>
      </trkpt>
      <trkpt lat="41.82625" lon="-3.48706">
        <ele>956</ele>
      </trkpt>
      <trkpt lat="41.82574" lon="-3.48732">
        <ele>955</ele>
      </trkpt>
      <trkpt lat="41.8255" lon="-3.48731">
        <ele>955</ele>
      </trkpt>
      <trkpt lat="41.82462" lon="-3.48675">
        <ele>951</ele>
      </trkpt>
      <trkpt lat="41.82459" lon="-3.48644">
        <ele>952</ele>
      </trkpt>
      <trkpt lat="41.82392" lon="-3.48617">
        <ele>944</ele>
      </trkpt>
      <trkpt lat="41.82337" lon="-3.48571">
        <ele>943</ele>
      </trkpt>
      <trkpt lat="41.82304" lon="-3.4854">
        <ele>946</ele>
      </trkpt>
      <trkpt lat="41.82284" lon="-3.48494">
        <ele>950</ele>
      </trkpt>
      <trkpt lat="41.82256" lon="-3.4846">
        <ele>953</ele>
      </trkpt>
      <trkpt lat="41.82214" lon="-3.48419">
        <ele>957</ele>
      </trkpt>
      <trkpt lat="41.82154" lon="-3.48382">
        <ele>953</ele>
      </trkpt>
      <trkpt lat="41.82056" lon="-3.48276">
        <ele>959</ele>
      </trkpt>
      <trkpt lat="41.82039" lon="-3.48249">
        <ele>959</ele>
      </trkpt>
      <trkpt lat="41.8203" lon="-3.48212">
        <ele>960</ele>
      </trkpt>
      <trkpt lat="41.82005" lon="-3.4816">
        <ele>960</ele>
      </trkpt>
      <trkpt lat="41.81996" lon="-3.4813">
        <ele>961</ele>
      </trkpt>
      <trkpt lat="41.81987" lon="-3.48048">
        <ele>968</ele>
      </trkpt>
      <trkpt lat="41.81978" lon="-3.48017">
        <ele>968</ele>
      </trkpt>
      <trkpt lat="41.81966" lon="-3.47971">
        <ele>969</ele>
      </trkpt>
      <trkpt lat="41.81961" lon="-3.4793">
        <ele>972</ele>
      </trkpt>
      <trkpt lat="41.8196" lon="-3.47809">
        <ele>962</ele>
      </trkpt>
      <trkpt lat="41.8194" lon="-3.47715">
        <ele>960</ele>
      </trkpt>
      <trkpt lat="41.81894" lon="-3.47653">
        <ele>958</ele>
      </trkpt>
      <trkpt lat="41.81878" lon="-3.47614">
        <ele>958</ele>
      </trkpt>
      <trkpt lat="41.81858" lon="-3.47513">
        <ele>957</ele>
      </trkpt>
      <trkpt lat="41.81845" lon="-3.47459">
        <ele>954</ele>
      </trkpt>
      <trkpt lat="41.81825" lon="-3.47412">
        <ele>952</ele>
      </trkpt>
      <trkpt lat="41.81716" lon="-3.47222">
        <ele>949</ele>
      </trkpt>
      <trkpt lat="41.81647" lon="-3.47055">
        <ele>950</ele>
      </trkpt>
      <trkpt lat="41.81599" lon="-3.47016">
        <ele>949</ele>
      </trkpt>
      <trkpt lat="41.81512" lon="-3.46891">
        <ele>949</ele>
      </trkpt>
      <trkpt lat="41.81458" lon="-3.46797">
        <ele>948</ele>
      </trkpt>
      <trkpt lat="41.81425" lon="-3.46688">
        <ele>947</ele>
      </trkpt>
      <trkpt lat="41.814" lon="-3.466">
        <ele>945</ele>
      </trkpt>
      <trkpt lat="41.81401" lon="-3.46569">
        <ele>946</ele>
      </trkpt>
      <trkpt lat="41.81456" lon="-3.46426">
        <ele>947</ele>
      </trkpt>
      <trkpt lat="41.81517" lon="-3.46268">
        <ele>947</ele>
      </trkpt>
      <trkpt lat="41.81536" lon="-3.46163">
        <ele>937</ele>
      </trkpt>
      <trkpt lat="41.8155" lon="-3.46082">
        <ele>932</ele>
      </trkpt>
      <trkpt lat="41.81565" lon="-3.46021">
        <ele>931</ele>
      </trkpt>
      <trkpt lat="41.816" lon="-3.4593">
        <ele>932</ele>
      </trkpt>
      <trkpt lat="41.81623" lon="-3.45872">
        <ele>935</ele>
      </trkpt>
      <trkpt lat="41.81624" lon="-3.45845">
        <ele>936</ele>
      </trkpt>
      <trkpt lat="41.81594" lon="-3.45785">
        <ele>935</ele>
      </trkpt>
      <trkpt lat="41.81538" lon="-3.45674">
        <ele>934</ele>
      </trkpt>
      <trkpt lat="41.81367" lon="-3.45461">
        <ele>926</ele>
      </trkpt>
      <trkpt lat="41.81346" lon="-3.4543">
        <ele>929</ele>
      </trkpt>
      <trkpt lat="41.81337" lon="-3.45406">
        <ele>930</ele>
      </trkpt>
      <trkpt lat="41.81336" lon="-3.45325">
        <ele>936</ele>
      </trkpt>
      <trkpt lat="41.81344" lon="-3.45255">
        <ele>939</ele>
      </trkpt>
      <trkpt lat="41.81376" lon="-3.45091">
        <ele>929</ele>
      </trkpt>
      <trkpt lat="41.81423" lon="-3.4485">
        <ele>937</ele>
      </trkpt>
      <trkpt lat="41.81459" lon="-3.44734">
        <ele>930</ele>
      </trkpt>
      <trkpt lat="41.81469" lon="-3.44695">
        <ele>930</ele>
      </trkpt>
      <trkpt lat="41.81473" lon="-3.44649">
        <ele>930</ele>
      </trkpt>
      <trkpt lat="41.81471" lon="-3.44574">
        <ele>929</ele>
      </trkpt>
      <trkpt lat="41.8147" lon="-3.44555">
        <ele>928</ele>
      </trkpt>
      <trkpt lat="41.81459" lon="-3.44536">
        <ele>927</ele>
      </trkpt>
      <trkpt lat="41.814" lon="-3.44475">
        <ele>922</ele>
      </trkpt>
      <trkpt lat="41.81254" lon="-3.44311">
        <ele>924</ele>
      </trkpt>
      <trkpt lat="41.80889" lon="-3.44107">
        <ele>934</ele>
      </trkpt>
      <trkpt lat="41.80517" lon="-3.43904">
        <ele>961</ele>
      </trkpt>
      <trkpt lat="41.80462" lon="-3.43871">
        <ele>964</ele>
      </trkpt>
      <trkpt lat="41.80374" lon="-3.43803">
        <ele>952</ele>
      </trkpt>
      <trkpt lat="41.80339" lon="-3.43765">
        <ele>946</ele>
      </trkpt>
      <trkpt lat="41.80264" lon="-3.4367">
        <ele>937</ele>
      </trkpt>
      <trkpt lat="41.80216" lon="-3.43622">
        <ele>935</ele>
      </trkpt>
      <trkpt lat="41.80181" lon="-3.43594">
        <ele>932</ele>
      </trkpt>
      <trkpt lat="41.80085" lon="-3.43523">
        <ele>926</ele>
      </trkpt>
      <trkpt lat="41.79966" lon="-3.4347">
        <ele>924</ele>
      </trkpt>
      <trkpt lat="41.79928" lon="-3.43448">
        <ele>924</ele>
      </trkpt>
      <trkpt lat="41.79906" lon="-3.43442">
        <ele>923</ele>
      </trkpt>
      <trkpt lat="41.79888" lon="-3.43441">
        <ele>922</ele>
      </trkpt>
      <trkpt lat="41.79851" lon="-3.43456">
        <ele>920</ele>
      </trkpt>
      <trkpt lat="41.7984" lon="-3.43456">
        <ele>919</ele>
      </trkpt>
      <trkpt lat="41.79829" lon="-3.43437">
        <ele>915</ele>
      </trkpt>
      <trkpt lat="41.7984" lon="-3.43395">
        <ele>915</ele>
      </trkpt>
      <trkpt lat="41.79855" lon="-3.43361">
        <ele>917</ele>
      </trkpt>
      <trkpt lat="41.79856" lon="-3.43316">
        <ele>916</ele>
      </trkpt>
      <trkpt lat="41.79848" lon="-3.43258">
        <ele>912</ele>
      </trkpt>
      <trkpt lat="41.79818" lon="-3.43156">
        <ele>911</ele>
      </trkpt>
      <trkpt lat="41.79794" lon="-3.43072">
        <ele>912</ele>
      </trkpt>
      <trkpt lat="41.79781" lon="-3.43035">
        <ele>912</ele>
      </trkpt>
      <trkpt lat="41.79763" lon="-3.43007">
        <ele>911</ele>
      </trkpt>
      <trkpt lat="41.79733" lon="-3.42934">
        <ele>909</ele>
      </trkpt>
      <trkpt lat="41.79724" lon="-3.42915">
        <ele>909</ele>
      </trkpt>
      <trkpt lat="41.79722" lon="-3.42899">
        <ele>909</ele>
      </trkpt>
      <trkpt lat="41.79718" lon="-3.42855">
        <ele>909</ele>
      </trkpt>
      <trkpt lat="41.79704" lon="-3.428">
        <ele>910</ele>
      </trkpt>
      <trkpt lat="41.79691" lon="-3.42749">
        <ele>911</ele>
      </trkpt>
      <trkpt lat="41.79693" lon="-3.42688">
        <ele>914</ele>
      </trkpt>
      <trkpt lat="41.79736" lon="-3.42542">
        <ele>916</ele>
      </trkpt>
      <trkpt lat="41.79749" lon="-3.42484">
        <ele>914</ele>
      </trkpt>
      <trkpt lat="41.79751" lon="-3.42418">
        <ele>915</ele>
      </trkpt>
      <trkpt lat="41.79741" lon="-3.42287">
        <ele>920</ele>
      </trkpt>
      <trkpt lat="41.79722" lon="-3.42175">
        <ele>928</ele>
      </trkpt>
      <trkpt lat="41.79709" lon="-3.42105">
        <ele>931</ele>
      </trkpt>
      <trkpt lat="41.79695" lon="-3.41986">
        <ele>936</ele>
      </trkpt>
      <trkpt lat="41.7968" lon="-3.41902">
        <ele>939</ele>
      </trkpt>
      <trkpt lat="41.79665" lon="-3.41847">
        <ele>941</ele>
      </trkpt>
      <trkpt lat="41.79641" lon="-3.41809">
        <ele>942</ele>
      </trkpt>
      <trkpt lat="41.79622" lon="-3.41776">
        <ele>941</ele>
      </trkpt>
      <trkpt lat="41.7961" lon="-3.41734">
        <ele>942</ele>
      </trkpt>
      <trkpt lat="41.79601" lon="-3.41672">
        <ele>944</ele>
      </trkpt>
      <trkpt lat="41.79593" lon="-3.41619">
        <ele>946</ele>
      </trkpt>
      <trkpt lat="41.79571" lon="-3.41487">
        <ele>946</ele>
      </trkpt>
      <trkpt lat="41.79542" lon="-3.41406">
        <ele>952</ele>
      </trkpt>
      <trkpt lat="41.79523" lon="-3.41353">
        <ele>954</ele>
      </trkpt>
      <trkpt lat="41.79509" lon="-3.41281">
        <ele>960</ele>
      </trkpt>
      <trkpt lat="41.79503" lon="-3.41231">
        <ele>962</ele>
      </trkpt>
      <trkpt lat="41.79501" lon="-3.41168">
        <ele>963</ele>
      </trkpt>
      <trkpt lat="41.79505" lon="-3.4103">
        <ele>967</ele>
      </trkpt>
      <trkpt lat="41.79505" lon="-3.40948">
        <ele>973</ele>
      </trkpt>
      <trkpt lat="41.79502" lon="-3.40921">
        <ele>974</ele>
      </trkpt>
      <trkpt lat="41.79483" lon="-3.40838">
        <ele>975</ele>
      </trkpt>
      <trkpt lat="41.79464" lon="-3.40739">
        <ele>976</ele>
      </trkpt>
      <trkpt lat="41.79458" lon="-3.40679">
        <ele>977</ele>
      </trkpt>
      <trkpt lat="41.79434" lon="-3.40462">
        <ele>973</ele>
      </trkpt>
      <trkpt lat="41.79401" lon="-3.40301">
        <ele>970</ele>
      </trkpt>
      <trkpt lat="41.79372" lon="-3.40155">
        <ele>967</ele>
      </trkpt>
      <trkpt lat="41.79341" lon="-3.39847">
        <ele>966</ele>
      </trkpt>
      <trkpt lat="41.79314" lon="-3.39613">
        <ele>965</ele>
      </trkpt>
      <trkpt lat="41.79314" lon="-3.39547">
        <ele>960</ele>
      </trkpt>
      <trkpt lat="41.7932" lon="-3.39451">
        <ele>954</ele>
      </trkpt>
      <trkpt lat="41.79321" lon="-3.39329">
        <ele>948</ele>
      </trkpt>
      <trkpt lat="41.79317" lon="-3.39147">
        <ele>942</ele>
      </trkpt>
      <trkpt lat="41.79314" lon="-3.39067">
        <ele>939</ele>
      </trkpt>
      <trkpt lat="41.79304" lon="-3.39">
        <ele>935</ele>
      </trkpt>
      <trkpt lat="41.79279" lon="-3.38877">
        <ele>935</ele>
      </trkpt>
      <trkpt lat="41.79237" lon="-3.3867">
        <ele>937</ele>
      </trkpt>
      <trkpt lat="41.79225" lon="-3.3859">
        <ele>940</ele>
      </trkpt>
      <trkpt lat="41.79228" lon="-3.38517">
        <ele>941</ele>
      </trkpt>
      <trkpt lat="41.7923" lon="-3.38465">
        <ele>942</ele>
      </trkpt>
      <trkpt lat="41.79233" lon="-3.38398">
        <ele>943</ele>
      </trkpt>
      <trkpt lat="41.79229" lon="-3.38338">
        <ele>944</ele>
      </trkpt>
      <trkpt lat="41.79213" lon="-3.38203">
        <ele>946</ele>
      </trkpt>
      <trkpt lat="41.79187" lon="-3.38005">
        <ele>949</ele>
      </trkpt>
      <trkpt lat="41.79165" lon="-3.37834">
        <ele>951</ele>
      </trkpt>
      <trkpt lat="41.79156" lon="-3.37751">
        <ele>952</ele>
      </trkpt>
      <trkpt lat="41.79152" lon="-3.37697">
        <ele>953</ele>
      </trkpt>
      <trkpt lat="41.79152" lon="-3.37658">
        <ele>953</ele>
      </trkpt>
      <trkpt lat="41.79158" lon="-3.3757">
        <ele>955</ele>
      </trkpt>
      <trkpt lat="41.7916" lon="-3.37509">
        <ele>957</ele>
      </trkpt>
      <trkpt lat="41.79153" lon="-3.37416">
        <ele>961</ele>
      </trkpt>
      <trkpt lat="41.79141" lon="-3.3726">
        <ele>967</ele>
      </trkpt>
      <trkpt lat="41.79134" lon="-3.37225">
        <ele>965</ele>
      </trkpt>
      <trkpt lat="41.79117" lon="-3.37186">
        <ele>963</ele>
      </trkpt>
      <trkpt lat="41.79076" lon="-3.37149">
        <ele>963</ele>
      </trkpt>
      <trkpt lat="41.79031" lon="-3.37099">
        <ele>965</ele>
      </trkpt>
      <trkpt lat="41.78964" lon="-3.3702">
        <ele>968</ele>
      </trkpt>
      <trkpt lat="41.7895" lon="-3.36999">
        <ele>968</ele>
      </trkpt>
      <trkpt lat="41.78917" lon="-3.36965">
        <ele>967</ele>
      </trkpt>
      <trkpt lat="41.78914" lon="-3.36941">
        <ele>966</ele>
      </trkpt>
      <trkpt lat="41.78915" lon="-3.36792">
        <ele>955</ele>
      </trkpt>
      <trkpt lat="41.78912" lon="-3.3678">
        <ele>955</ele>
      </trkpt>
      <trkpt lat="41.78859" lon="-3.36763">
        <ele>955</ele>
      </trkpt>
      <trkpt lat="41.78803" lon="-3.36689">
        <ele>953</ele>
      </trkpt>
      <trkpt lat="41.78736" lon="-3.36598">
        <ele>954</ele>
      </trkpt>
      <trkpt lat="41.78653" lon="-3.36494">
        <ele>951</ele>
      </trkpt>
      <trkpt lat="41.78609" lon="-3.36449">
        <ele>948</ele>
      </trkpt>
      <trkpt lat="41.78546" lon="-3.36398">
        <ele>947</ele>
      </trkpt>
      <trkpt lat="41.78518" lon="-3.36379">
        <ele>948</ele>
      </trkpt>
      <trkpt lat="41.78489" lon="-3.3637">
        <ele>951</ele>
      </trkpt>
      <trkpt lat="41.78447" lon="-3.36362">
        <ele>950</ele>
      </trkpt>
      <trkpt lat="41.78426" lon="-3.36354">
        <ele>948</ele>
      </trkpt>
      <trkpt lat="41.78408" lon="-3.36336">
        <ele>944</ele>
      </trkpt>
      <trkpt lat="41.78387" lon="-3.36309">
        <ele>941</ele>
      </trkpt>
      <trkpt lat="41.78367" lon="-3.36284">
        <ele>940</ele>
      </trkpt>
      <trkpt lat="41.78326" lon="-3.36246">
        <ele>949</ele>
      </trkpt>
      <trkpt lat="41.78272" lon="-3.36201">
        <ele>953</ele>
      </trkpt>
      <trkpt lat="41.78236" lon="-3.3617">
        <ele>952</ele>
      </trkpt>
      <trkpt lat="41.78075" lon="-3.36079">
        <ele>929</ele>
      </trkpt>
      <trkpt lat="41.78047" lon="-3.3608">
        <ele>932</ele>
      </trkpt>
      <trkpt lat="41.78006" lon="-3.36095">
        <ele>934</ele>
      </trkpt>
      <trkpt lat="41.77963" lon="-3.36114">
        <ele>935</ele>
      </trkpt>
      <trkpt lat="41.77928" lon="-3.36125">
        <ele>933</ele>
      </trkpt>
      <trkpt lat="41.77906" lon="-3.36126">
        <ele>932</ele>
      </trkpt>
      <trkpt lat="41.77873" lon="-3.36112">
        <ele>929</ele>
      </trkpt>
      <trkpt lat="41.77767" lon="-3.36058">
        <ele>916</ele>
      </trkpt>
      <trkpt lat="41.77699" lon="-3.36019">
        <ele>910</ele>
      </trkpt>
      <trkpt lat="41.7769" lon="-3.3602">
        <ele>910</ele>
      </trkpt>
      <trkpt lat="41.77554" lon="-3.36108">
        <ele>911</ele>
      </trkpt>
      <trkpt lat="41.77475" lon="-3.36156">
        <ele>910</ele>
      </trkpt>
      <trkpt lat="41.77374" lon="-3.36203">
        <ele>911</ele>
      </trkpt>
      <trkpt lat="41.77198" lon="-3.36276">
        <ele>916</ele>
      </trkpt>
      <trkpt lat="41.77125" lon="-3.36306">
        <ele>916</ele>
      </trkpt>
      <trkpt lat="41.77059" lon="-3.36344">
        <ele>916</ele>
      </trkpt>
      <trkpt lat="41.77014" lon="-3.36396">
        <ele>917</ele>
      </trkpt>
      <trkpt lat="41.76988" lon="-3.36447">
        <ele>917</ele>
      </trkpt>
      <trkpt lat="41.76975" lon="-3.365">
        <ele>918</ele>
      </trkpt>
      <trkpt lat="41.76968" lon="-3.36608">
        <ele>917</ele>
      </trkpt>
      <trkpt lat="41.7694" lon="-3.3708">
        <ele>921</ele>
      </trkpt>
      <trkpt lat="41.76926" lon="-3.37319">
        <ele>927</ele>
      </trkpt>
      <trkpt lat="41.76921" lon="-3.37367">
        <ele>929</ele>
      </trkpt>
      <trkpt lat="41.76893" lon="-3.37486">
        <ele>925</ele>
      </trkpt>
      <trkpt lat="41.768" lon="-3.37924">
        <ele>916</ele>
      </trkpt>
      <trkpt lat="41.76646" lon="-3.38602">
        <ele>917</ele>
      </trkpt>
      <trkpt lat="41.76616" lon="-3.3874">
        <ele>918</ele>
      </trkpt>
      <trkpt lat="41.76586" lon="-3.38847">
        <ele>918</ele>
      </trkpt>
      <trkpt lat="41.76533" lon="-3.39016">
        <ele>916</ele>
      </trkpt>
      <trkpt lat="41.76482" lon="-3.39173">
        <ele>918</ele>
      </trkpt>
      <trkpt lat="41.76304" lon="-3.39545">
        <ele>914</ele>
      </trkpt>
      <trkpt lat="41.76225" lon="-3.39681">
        <ele>912</ele>
      </trkpt>
      <trkpt lat="41.76149" lon="-3.39807">
        <ele>917</ele>
      </trkpt>
      <trkpt lat="41.76096" lon="-3.39934">
        <ele>915</ele>
      </trkpt>
      <trkpt lat="41.76028" lon="-3.40099">
        <ele>907</ele>
      </trkpt>
      <trkpt lat="41.75979" lon="-3.40222">
        <ele>907</ele>
      </trkpt>
      <trkpt lat="41.75918" lon="-3.4037">
        <ele>915</ele>
      </trkpt>
      <trkpt lat="41.75848" lon="-3.40541">
        <ele>911</ele>
      </trkpt>
      <trkpt lat="41.75829" lon="-3.40573">
        <ele>913</ele>
      </trkpt>
      <trkpt lat="41.75742" lon="-3.40697">
        <ele>909</ele>
      </trkpt>
      <trkpt lat="41.75632" lon="-3.40861">
        <ele>909</ele>
      </trkpt>
      <trkpt lat="41.75561" lon="-3.4098">
        <ele>903</ele>
      </trkpt>
      <trkpt lat="41.75527" lon="-3.41028">
        <ele>900</ele>
      </trkpt>
      <trkpt lat="41.7531" lon="-3.41277">
        <ele>897</ele>
      </trkpt>
      <trkpt lat="41.75231" lon="-3.4137">
        <ele>895</ele>
      </trkpt>
      <trkpt lat="41.75181" lon="-3.41434">
        <ele>897</ele>
      </trkpt>
      <trkpt lat="41.75134" lon="-3.41502">
        <ele>896</ele>
      </trkpt>
      <trkpt lat="41.75097" lon="-3.41554">
        <ele>893</ele>
      </trkpt>
      <trkpt lat="41.75051" lon="-3.41604">
        <ele>888</ele>
      </trkpt>
      <trkpt lat="41.74943" lon="-3.41716">
        <ele>890</ele>
      </trkpt>
      <trkpt lat="41.74851" lon="-3.41813">
        <ele>892</ele>
      </trkpt>
      <trkpt lat="41.74773" lon="-3.41893">
        <ele>897</ele>
      </trkpt>
      <trkpt lat="41.74258" lon="-3.4243">
        <ele>879</ele>
      </trkpt>
      <trkpt lat="41.74186" lon="-3.42506">
        <ele>877</ele>
      </trkpt>
      <trkpt lat="41.74118" lon="-3.42576">
        <ele>875</ele>
      </trkpt>
      <trkpt lat="41.74082" lon="-3.42605">
        <ele>877</ele>
      </trkpt>
      <trkpt lat="41.74005" lon="-3.42659">
        <ele>879</ele>
      </trkpt>
      <trkpt lat="41.73796" lon="-3.42797">
        <ele>879</ele>
      </trkpt>
      <trkpt lat="41.73647" lon="-3.42906">
        <ele>875</ele>
      </trkpt>
      <trkpt lat="41.73454" lon="-3.43046">
        <ele>870</ele>
      </trkpt>
      <trkpt lat="41.73423" lon="-3.43065">
        <ele>872</ele>
      </trkpt>
      <trkpt lat="41.73391" lon="-3.43076">
        <ele>873</ele>
      </trkpt>
      <trkpt lat="41.73318" lon="-3.43088">
        <ele>874</ele>
      </trkpt>
      <trkpt lat="41.73141" lon="-3.43114">
        <ele>873</ele>
      </trkpt>
      <trkpt lat="41.72932" lon="-3.43145">
        <ele>870</ele>
      </trkpt>
      <trkpt lat="41.72757" lon="-3.43172">
        <ele>871</ele>
      </trkpt>
      <trkpt lat="41.72699" lon="-3.43192">
        <ele>869</ele>
      </trkpt>
      <trkpt lat="41.72542" lon="-3.43289">
        <ele>875</ele>
      </trkpt>
      <trkpt lat="41.72139" lon="-3.43561">
        <ele>870</ele>
      </trkpt>
      <trkpt lat="41.71894" lon="-3.43724">
        <ele>871</ele>
      </trkpt>
      <trkpt lat="41.71801" lon="-3.43788">
        <ele>861</ele>
      </trkpt>
      <trkpt lat="41.71634" lon="-3.43899">
        <ele>860</ele>
      </trkpt>
      <trkpt lat="41.71489" lon="-3.44002">
        <ele>866</ele>
      </trkpt>
      <trkpt lat="41.71304" lon="-3.44173">
        <ele>855</ele>
      </trkpt>
      <trkpt lat="41.71079" lon="-3.44388">
        <ele>855</ele>
      </trkpt>
      <trkpt lat="41.70953" lon="-3.44477">
        <ele>855</ele>
      </trkpt>
      <trkpt lat="41.70765" lon="-3.446">
        <ele>853</ele>
      </trkpt>
      <trkpt lat="41.70628" lon="-3.44691">
        <ele>857</ele>
      </trkpt>
      <trkpt lat="41.70509" lon="-3.44761">
        <ele>858</ele>
      </trkpt>
      <trkpt lat="41.70445" lon="-3.44775">
        <ele>855</ele>
      </trkpt>
      <trkpt lat="41.70356" lon="-3.44779">
        <ele>859</ele>
      </trkpt>
      <trkpt lat="41.7029" lon="-3.44781">
        <ele>859</ele>
      </trkpt>
      <trkpt lat="41.7023" lon="-3.44799">
        <ele>860</ele>
      </trkpt>
      <trkpt lat="41.70173" lon="-3.4483">
        <ele>869</ele>
      </trkpt>
      <trkpt lat="41.70119" lon="-3.44877">
        <ele>865</ele>
      </trkpt>
      <trkpt lat="41.6997" lon="-3.45054">
        <ele>855</ele>
      </trkpt>
      <trkpt lat="41.698" lon="-3.45252">
        <ele>858</ele>
      </trkpt>
      <trkpt lat="41.69605" lon="-3.45486">
        <ele>858</ele>
      </trkpt>
      <trkpt lat="41.69552" lon="-3.45591">
        <ele>855</ele>
      </trkpt>
      <trkpt lat="41.69486" lon="-3.45773">
        <ele>853</ele>
      </trkpt>
      <trkpt lat="41.69438" lon="-3.45845">
        <ele>854</ele>
      </trkpt>
      <trkpt lat="41.69229" lon="-3.46037">
        <ele>858</ele>
      </trkpt>
      <trkpt lat="41.69079" lon="-3.46179">
        <ele>859</ele>
      </trkpt>
      <trkpt lat="41.69039" lon="-3.46221">
        <ele>859</ele>
      </trkpt>
      <trkpt lat="41.68991" lon="-3.46296">
        <ele>860</ele>
      </trkpt>
      <trkpt lat="41.68941" lon="-3.46396">
        <ele>860</ele>
      </trkpt>
      <trkpt lat="41.68915" lon="-3.46494">
        <ele>860</ele>
      </trkpt>
      <trkpt lat="41.68903" lon="-3.46608">
        <ele>856</ele>
      </trkpt>
      <trkpt lat="41.68895" lon="-3.46803">
        <ele>857</ele>
      </trkpt>
      <trkpt lat="41.68906" lon="-3.46918">
        <ele>859</ele>
      </trkpt>
      <trkpt lat="41.68941" lon="-3.47174">
        <ele>857</ele>
      </trkpt>
      <trkpt lat="41.68982" lon="-3.47436">
        <ele>858</ele>
      </trkpt>
      <trkpt lat="41.68987" lon="-3.47513">
        <ele>857</ele>
      </trkpt>
      <trkpt lat="41.68964" lon="-3.47728">
        <ele>861</ele>
      </trkpt>
      <trkpt lat="41.68961" lon="-3.47706">
        <ele>860</ele>
      </trkpt>
      <trkpt lat="41.68961" lon="-3.47724">
        <ele>861</ele>
      </trkpt>
      <trkpt lat="41.68961" lon="-3.47724">
        <ele>861</ele>
      </trkpt>
      <trkpt lat="41.6898" lon="-3.47517">
        <ele>856</ele>
      </trkpt>
      <trkpt lat="41.6898" lon="-3.47474">
        <ele>857</ele>
      </trkpt>
      <trkpt lat="41.68947" lon="-3.47242">
        <ele>858</ele>
      </trkpt>
      <trkpt lat="41.68905" lon="-3.46946">
        <ele>859</ele>
      </trkpt>
      <trkpt lat="41.68891" lon="-3.46803">
        <ele>857</ele>
      </trkpt>
      <trkpt lat="41.68895" lon="-3.46672">
        <ele>853</ele>
      </trkpt>
      <trkpt lat="41.68897" lon="-3.46613">
        <ele>855</ele>
      </trkpt>
      <trkpt lat="41.6887" lon="-3.46529">
        <ele>857</ele>
      </trkpt>
      <trkpt lat="41.6883" lon="-3.46402">
        <ele>857</ele>
      </trkpt>
      <trkpt lat="41.68808" lon="-3.46295">
        <ele>855</ele>
      </trkpt>
      <trkpt lat="41.68789" lon="-3.46109">
        <ele>852</ele>
      </trkpt>
      <trkpt lat="41.68771" lon="-3.45975">
        <ele>851</ele>
      </trkpt>
      <trkpt lat="41.68728" lon="-3.45784">
        <ele>854</ele>
      </trkpt>
      <trkpt lat="41.68696" lon="-3.45651">
        <ele>854</ele>
      </trkpt>
      <trkpt lat="41.68686" lon="-3.45599">
        <ele>852</ele>
      </trkpt>
      <trkpt lat="41.68688" lon="-3.45537">
        <ele>854</ele>
      </trkpt>
      <trkpt lat="41.68693" lon="-3.45468">
        <ele>856</ele>
      </trkpt>
      <trkpt lat="41.68708" lon="-3.45354">
        <ele>859</ele>
      </trkpt>
      <trkpt lat="41.68713" lon="-3.45251">
        <ele>858</ele>
      </trkpt>
      <trkpt lat="41.68717" lon="-3.45101">
        <ele>857</ele>
      </trkpt>
      <trkpt lat="41.68701" lon="-3.44923">
        <ele>856</ele>
      </trkpt>
      <trkpt lat="41.68694" lon="-3.44824">
        <ele>851</ele>
      </trkpt>
      <trkpt lat="41.68685" lon="-3.44677">
        <ele>850</ele>
      </trkpt>
      <trkpt lat="41.68679" lon="-3.44507">
        <ele>853</ele>
      </trkpt>
      <trkpt lat="41.68674" lon="-3.44448">
        <ele>855</ele>
      </trkpt>
      <trkpt lat="41.68656" lon="-3.44364">
        <ele>854</ele>
      </trkpt>
      <trkpt lat="41.68649" lon="-3.4429">
        <ele>852</ele>
      </trkpt>
      <trkpt lat="41.68644" lon="-3.44067">
        <ele>858</ele>
      </trkpt>
      <trkpt lat="41.6864" lon="-3.43978">
        <ele>858</ele>
      </trkpt>
      <trkpt lat="41.68625" lon="-3.43874">
        <ele>857</ele>
      </trkpt>
      <trkpt lat="41.68606" lon="-3.43761">
        <ele>855</ele>
      </trkpt>
      <trkpt lat="41.68577" lon="-3.43657">
        <ele>860</ele>
      </trkpt>
      <trkpt lat="41.68549" lon="-3.43559">
        <ele>861</ele>
      </trkpt>
      <trkpt lat="41.68517" lon="-3.43505">
        <ele>858</ele>
      </trkpt>
      <trkpt lat="41.68436" lon="-3.43386">
        <ele>858</ele>
      </trkpt>
      <trkpt lat="41.68405" lon="-3.43297">
        <ele>866</ele>
      </trkpt>
      <trkpt lat="41.68383" lon="-3.43212">
        <ele>872</ele>
      </trkpt>
      <trkpt lat="41.6838" lon="-3.43127">
        <ele>875</ele>
      </trkpt>
      <trkpt lat="41.68385" lon="-3.43031">
        <ele>876</ele>
      </trkpt>
      <trkpt lat="41.68405" lon="-3.42957">
        <ele>875</ele>
      </trkpt>
      <trkpt lat="41.68423" lon="-3.42899">
        <ele>871</ele>
      </trkpt>
      <trkpt lat="41.68452" lon="-3.42865">
        <ele>872</ele>
      </trkpt>
      <trkpt lat="41.68528" lon="-3.42791">
        <ele>877</ele>
      </trkpt>
      <trkpt lat="41.68595" lon="-3.42689">
        <ele>881</ele>
      </trkpt>
      <trkpt lat="41.68643" lon="-3.42531">
        <ele>877</ele>
      </trkpt>
      <trkpt lat="41.68681" lon="-3.42395">
        <ele>867</ele>
      </trkpt>
      <trkpt lat="41.68741" lon="-3.42266">
        <ele>875</ele>
      </trkpt>
      <trkpt lat="41.68879" lon="-3.42064">
        <ele>870</ele>
      </trkpt>
      <trkpt lat="41.68919" lon="-3.42002">
        <ele>879</ele>
      </trkpt>
      <trkpt lat="41.68946" lon="-3.41909">
        <ele>878</ele>
      </trkpt>
      <trkpt lat="41.6898" lon="-3.4179">
        <ele>875</ele>
      </trkpt>
      <trkpt lat="41.69007" lon="-3.4161">
        <ele>878</ele>
      </trkpt>
      <trkpt lat="41.69025" lon="-3.41357">
        <ele>870</ele>
      </trkpt>
      <trkpt lat="41.69033" lon="-3.41157">
        <ele>873</ele>
      </trkpt>
      <trkpt lat="41.69046" lon="-3.41085">
        <ele>872</ele>
      </trkpt>
      <trkpt lat="41.69076" lon="-3.40973">
        <ele>871</ele>
      </trkpt>
      <trkpt lat="41.69102" lon="-3.40894">
        <ele>871</ele>
      </trkpt>
      <trkpt lat="41.69161" lon="-3.4075">
        <ele>874</ele>
      </trkpt>
      <trkpt lat="41.69306" lon="-3.40518">
        <ele>879</ele>
      </trkpt>
      <trkpt lat="41.69493" lon="-3.40275">
        <ele>879</ele>
      </trkpt>
      <trkpt lat="41.69678" lon="-3.40117">
        <ele>880</ele>
      </trkpt>
      <trkpt lat="41.6975" lon="-3.40019">
        <ele>877</ele>
      </trkpt>
      <trkpt lat="41.69919" lon="-3.39751">
        <ele>880</ele>
      </trkpt>
      <trkpt lat="41.69987" lon="-3.39639">
        <ele>879</ele>
      </trkpt>
      <trkpt lat="41.70097" lon="-3.39488">
        <ele>877</ele>
      </trkpt>
      <trkpt lat="41.70214" lon="-3.39372">
        <ele>876</ele>
      </trkpt>
      <trkpt lat="41.70314" lon="-3.39302">
        <ele>878</ele>
      </trkpt>
      <trkpt lat="41.70461" lon="-3.39198">
        <ele>878</ele>
      </trkpt>
      <trkpt lat="41.70511" lon="-3.39152">
        <ele>879</ele>
      </trkpt>
      <trkpt lat="41.70714" lon="-3.38951">
        <ele>885</ele>
      </trkpt>
      <trkpt lat="41.70893" lon="-3.38762">
        <ele>886</ele>
      </trkpt>
      <trkpt lat="41.70907" lon="-3.38731">
        <ele>890</ele>
      </trkpt>
      <trkpt lat="41.7092" lon="-3.38666">
        <ele>895</ele>
      </trkpt>
      <trkpt lat="41.70988" lon="-3.38253">
        <ele>889</ele>
      </trkpt>
      <trkpt lat="41.70985" lon="-3.38096">
        <ele>889</ele>
      </trkpt>
      <trkpt lat="41.70984" lon="-3.38014">
        <ele>889</ele>
      </trkpt>
      <trkpt lat="41.71003" lon="-3.37929">
        <ele>889</ele>
      </trkpt>
      <trkpt lat="41.71044" lon="-3.37776">
        <ele>892</ele>
      </trkpt>
      <trkpt lat="41.71082" lon="-3.37594">
        <ele>895</ele>
      </trkpt>
      <trkpt lat="41.71171" lon="-3.37378">
        <ele>897</ele>
      </trkpt>
      <trkpt lat="41.71206" lon="-3.37304">
        <ele>896</ele>
      </trkpt>
      <trkpt lat="41.71272" lon="-3.3721">
        <ele>897</ele>
      </trkpt>
      <trkpt lat="41.71389" lon="-3.37044">
        <ele>901</ele>
      </trkpt>
      <trkpt lat="41.71506" lon="-3.36913">
        <ele>901</ele>
      </trkpt>
      <trkpt lat="41.71558" lon="-3.36872">
        <ele>901</ele>
      </trkpt>
      <trkpt lat="41.71574" lon="-3.36855">
        <ele>901</ele>
      </trkpt>
      <trkpt lat="41.71592" lon="-3.36816">
        <ele>903</ele>
      </trkpt>
      <trkpt lat="41.71612" lon="-3.36786">
        <ele>904</ele>
      </trkpt>
      <trkpt lat="41.71628" lon="-3.3677">
        <ele>904</ele>
      </trkpt>
      <trkpt lat="41.71644" lon="-3.36747">
        <ele>904</ele>
      </trkpt>
      <trkpt lat="41.71649" lon="-3.36732">
        <ele>903</ele>
      </trkpt>
      <trkpt lat="41.71655" lon="-3.36703">
        <ele>903</ele>
      </trkpt>
      <trkpt lat="41.71659" lon="-3.36691">
        <ele>903</ele>
      </trkpt>
      <trkpt lat="41.7168" lon="-3.36648">
        <ele>902</ele>
      </trkpt>
      <trkpt lat="41.71692" lon="-3.36617">
        <ele>902</ele>
      </trkpt>
      <trkpt lat="41.71718" lon="-3.36509">
        <ele>904</ele>
      </trkpt>
      <trkpt lat="41.71742" lon="-3.3642">
        <ele>902</ele>
      </trkpt>
      <trkpt lat="41.71751" lon="-3.36394">
        <ele>901</ele>
      </trkpt>
      <trkpt lat="41.71775" lon="-3.36361">
        <ele>901</ele>
      </trkpt>
      <trkpt lat="41.71789" lon="-3.36338">
        <ele>902</ele>
      </trkpt>
      <trkpt lat="41.71817" lon="-3.36286">
        <ele>907</ele>
      </trkpt>
      <trkpt lat="41.71857" lon="-3.36198">
        <ele>915</ele>
      </trkpt>
      <trkpt lat="41.71864" lon="-3.36176">
        <ele>916</ele>
      </trkpt>
      <trkpt lat="41.71869" lon="-3.36142">
        <ele>913</ele>
      </trkpt>
      <trkpt lat="41.7187" lon="-3.36006">
        <ele>915</ele>
      </trkpt>
      <trkpt lat="41.71875" lon="-3.35842">
        <ele>915</ele>
      </trkpt>
      <trkpt lat="41.71883" lon="-3.35654">
        <ele>919</ele>
      </trkpt>
      <trkpt lat="41.71894" lon="-3.35384">
        <ele>917</ele>
      </trkpt>
      <trkpt lat="41.71915" lon="-3.34858">
        <ele>916</ele>
      </trkpt>
      <trkpt lat="41.71925" lon="-3.34559">
        <ele>907</ele>
      </trkpt>
      <trkpt lat="41.71918" lon="-3.34489">
        <ele>909</ele>
      </trkpt>
      <trkpt lat="41.71925" lon="-3.34445">
        <ele>912</ele>
      </trkpt>
      <trkpt lat="41.71958" lon="-3.34397">
        <ele>917</ele>
      </trkpt>
      <trkpt lat="41.7197" lon="-3.34359">
        <ele>921</ele>
      </trkpt>
      <trkpt lat="41.71966" lon="-3.34313">
        <ele>922</ele>
      </trkpt>
      <trkpt lat="41.71976" lon="-3.34257">
        <ele>920</ele>
      </trkpt>
      <trkpt lat="41.71983" lon="-3.34207">
        <ele>918</ele>
      </trkpt>
      <trkpt lat="41.71986" lon="-3.34034">
        <ele>917</ele>
      </trkpt>
      <trkpt lat="41.7199" lon="-3.339">
        <ele>920</ele>
      </trkpt>
      <trkpt lat="41.72" lon="-3.33837">
        <ele>918</ele>
      </trkpt>
      <trkpt lat="41.7203" lon="-3.33765">
        <ele>914</ele>
      </trkpt>
      <trkpt lat="41.72075" lon="-3.33687">
        <ele>909</ele>
      </trkpt>
      <trkpt lat="41.721" lon="-3.33635">
        <ele>911</ele>
      </trkpt>
      <trkpt lat="41.72118" lon="-3.33569">
        <ele>916</ele>
      </trkpt>
      <trkpt lat="41.72155" lon="-3.33373">
        <ele>918</ele>
      </trkpt>
      <trkpt lat="41.72206" lon="-3.33089">
        <ele>920</ele>
      </trkpt>
      <trkpt lat="41.72271" lon="-3.32782">
        <ele>915</ele>
      </trkpt>
      <trkpt lat="41.72283" lon="-3.32731">
        <ele>918</ele>
      </trkpt>
      <trkpt lat="41.72281" lon="-3.32669">
        <ele>920</ele>
      </trkpt>
      <trkpt lat="41.72268" lon="-3.32392">
        <ele>921</ele>
      </trkpt>
      <trkpt lat="41.72278" lon="-3.32116">
        <ele>925</ele>
      </trkpt>
      <trkpt lat="41.7227" lon="-3.31913">
        <ele>923</ele>
      </trkpt>
      <trkpt lat="41.72263" lon="-3.31787">
        <ele>922</ele>
      </trkpt>
      <trkpt lat="41.72266" lon="-3.31738">
        <ele>922</ele>
      </trkpt>
      <trkpt lat="41.72286" lon="-3.31642">
        <ele>922</ele>
      </trkpt>
      <trkpt lat="41.723" lon="-3.31531">
        <ele>924</ele>
      </trkpt>
      <trkpt lat="41.72304" lon="-3.31414">
        <ele>926</ele>
      </trkpt>
      <trkpt lat="41.72327" lon="-3.31229">
        <ele>927</ele>
      </trkpt>
      <trkpt lat="41.72336" lon="-3.31094">
        <ele>924</ele>
      </trkpt>
      <trkpt lat="41.72375" lon="-3.30967">
        <ele>921</ele>
      </trkpt>
      <trkpt lat="41.72415" lon="-3.30844">
        <ele>925</ele>
      </trkpt>
      <trkpt lat="41.72418" lon="-3.30804">
        <ele>926</ele>
      </trkpt>
      <trkpt lat="41.72414" lon="-3.3068">
        <ele>925</ele>
      </trkpt>
      <trkpt lat="41.72424" lon="-3.30645">
        <ele>926</ele>
      </trkpt>
      <trkpt lat="41.72448" lon="-3.30586">
        <ele>925</ele>
      </trkpt>
      <trkpt lat="41.72483" lon="-3.30525">
        <ele>926</ele>
      </trkpt>
      <trkpt lat="41.72494" lon="-3.30497">
        <ele>926</ele>
      </trkpt>
      <trkpt lat="41.72515" lon="-3.30472">
        <ele>926</ele>
      </trkpt>
      <trkpt lat="41.72513" lon="-3.30465">
        <ele>925</ele>
      </trkpt>
      <trkpt lat="41.72491" lon="-3.30453">
        <ele>923</ele>
      </trkpt>
      <trkpt lat="41.72474" lon="-3.30429">
        <ele>921</ele>
      </trkpt>
      <trkpt lat="41.72469" lon="-3.30415">
        <ele>920</ele>
      </trkpt>
      <trkpt lat="41.72468" lon="-3.30398">
        <ele>920</ele>
      </trkpt>
      <trkpt lat="41.72475" lon="-3.30378">
        <ele>920</ele>
      </trkpt>
      <trkpt lat="41.72474" lon="-3.30371">
        <ele>920</ele>
      </trkpt>
      <trkpt lat="41.72448" lon="-3.3037">
        <ele>919</ele>
      </trkpt>
      <trkpt lat="41.72411" lon="-3.30366">
        <ele>918</ele>
      </trkpt>
      <trkpt lat="41.72385" lon="-3.30362">
        <ele>917</ele>
      </trkpt>
      <trkpt lat="41.72372" lon="-3.30355">
        <ele>917</ele>
      </trkpt>
      <trkpt lat="41.72321" lon="-3.30314">
        <ele>918</ele>
      </trkpt>
      <trkpt lat="41.72285" lon="-3.30286">
        <ele>919</ele>
      </trkpt>
      <trkpt lat="41.7225" lon="-3.30273">
        <ele>920</ele>
      </trkpt>
      <trkpt lat="41.72207" lon="-3.30274">
        <ele>921</ele>
      </trkpt>
      <trkpt lat="41.72161" lon="-3.30273">
        <ele>923</ele>
      </trkpt>
      <trkpt lat="41.72126" lon="-3.30263">
        <ele>924</ele>
      </trkpt>
      <trkpt lat="41.72066" lon="-3.30225">
        <ele>925</ele>
      </trkpt>
      <trkpt lat="41.71999" lon="-3.30178">
        <ele>927</ele>
      </trkpt>
      <trkpt lat="41.71909" lon="-3.3012">
        <ele>930</ele>
      </trkpt>
      <trkpt lat="41.71664" lon="-3.29976">
        <ele>933</ele>
      </trkpt>
      <trkpt lat="41.71571" lon="-3.2988">
        <ele>938</ele>
      </trkpt>
      <trkpt lat="41.71414" lon="-3.29744">
        <ele>944</ele>
      </trkpt>
      <trkpt lat="41.71345" lon="-3.29665">
        <ele>951</ele>
      </trkpt>
      <trkpt lat="41.71282" lon="-3.29616">
        <ele>948</ele>
      </trkpt>
      <trkpt lat="41.71238" lon="-3.296">
        <ele>947</ele>
      </trkpt>
      <trkpt lat="41.71133" lon="-3.29578">
        <ele>953</ele>
      </trkpt>
      <trkpt lat="41.711" lon="-3.29568">
        <ele>954</ele>
      </trkpt>
      <trkpt lat="41.71078" lon="-3.29556">
        <ele>954</ele>
      </trkpt>
      <trkpt lat="41.70987" lon="-3.29459">
        <ele>957</ele>
      </trkpt>
      <trkpt lat="41.70911" lon="-3.29407">
        <ele>960</ele>
      </trkpt>
      <trkpt lat="41.70771" lon="-3.29314">
        <ele>968</ele>
      </trkpt>
      <trkpt lat="41.70733" lon="-3.2928">
        <ele>976</ele>
      </trkpt>
      <trkpt lat="41.70683" lon="-3.29214">
        <ele>982</ele>
      </trkpt>
      <trkpt lat="41.70637" lon="-3.29151">
        <ele>987</ele>
      </trkpt>
      <trkpt lat="41.70586" lon="-3.29097">
        <ele>988</ele>
      </trkpt>
      <trkpt lat="41.70541" lon="-3.29055">
        <ele>984</ele>
      </trkpt>
      <trkpt lat="41.70492" lon="-3.29021">
        <ele>981</ele>
      </trkpt>
      <trkpt lat="41.70327" lon="-3.28959">
        <ele>960</ele>
      </trkpt>
      <trkpt lat="41.70198" lon="-3.28888">
        <ele>961</ele>
      </trkpt>
      <trkpt lat="41.70078" lon="-3.28797">
        <ele>973</ele>
      </trkpt>
      <trkpt lat="41.70021" lon="-3.2876">
        <ele>977</ele>
      </trkpt>
      <trkpt lat="41.69979" lon="-3.28745">
        <ele>976</ele>
      </trkpt>
      <trkpt lat="41.69942" lon="-3.28736">
        <ele>972</ele>
      </trkpt>
      <trkpt lat="41.69922" lon="-3.28726">
        <ele>970</ele>
      </trkpt>
      <trkpt lat="41.69907" lon="-3.28711">
        <ele>967</ele>
      </trkpt>
      <trkpt lat="41.69892" lon="-3.28693">
        <ele>965</ele>
      </trkpt>
      <trkpt lat="41.69873" lon="-3.28664">
        <ele>962</ele>
      </trkpt>
      <trkpt lat="41.69837" lon="-3.2862">
        <ele>959</ele>
      </trkpt>
      <trkpt lat="41.69789" lon="-3.28568">
        <ele>956</ele>
      </trkpt>
      <trkpt lat="41.69767" lon="-3.28529">
        <ele>956</ele>
      </trkpt>
      <trkpt lat="41.6975" lon="-3.28491">
        <ele>956</ele>
      </trkpt>
      <trkpt lat="41.69717" lon="-3.28445">
        <ele>956</ele>
      </trkpt>
      <trkpt lat="41.69699" lon="-3.2841">
        <ele>955</ele>
      </trkpt>
      <trkpt lat="41.69686" lon="-3.28351">
        <ele>953</ele>
      </trkpt>
      <trkpt lat="41.69685" lon="-3.28287">
        <ele>948</ele>
      </trkpt>
      <trkpt lat="41.69688" lon="-3.28244">
        <ele>945</ele>
      </trkpt>
      <trkpt lat="41.69695" lon="-3.28191">
        <ele>941</ele>
      </trkpt>
      <trkpt lat="41.69697" lon="-3.2815">
        <ele>938</ele>
      </trkpt>
      <trkpt lat="41.69691" lon="-3.28122">
        <ele>938</ele>
      </trkpt>
      <trkpt lat="41.69677" lon="-3.28096">
        <ele>939</ele>
      </trkpt>
      <trkpt lat="41.69659" lon="-3.2808">
        <ele>937</ele>
      </trkpt>
      <trkpt lat="41.69626" lon="-3.28067">
        <ele>938</ele>
      </trkpt>
      <trkpt lat="41.69586" lon="-3.28063">
        <ele>942</ele>
      </trkpt>
      <trkpt lat="41.69498" lon="-3.2807">
        <ele>949</ele>
      </trkpt>
      <trkpt lat="41.69435" lon="-3.2808">
        <ele>953</ele>
      </trkpt>
      <trkpt lat="41.69397" lon="-3.28075">
        <ele>955</ele>
      </trkpt>
      <trkpt lat="41.69345" lon="-3.28059">
        <ele>958</ele>
      </trkpt>
      <trkpt lat="41.69318" lon="-3.28028">
        <ele>961</ele>
      </trkpt>
      <trkpt lat="41.69293" lon="-3.27981">
        <ele>961</ele>
      </trkpt>
      <trkpt lat="41.69276" lon="-3.27954">
        <ele>960</ele>
      </trkpt>
      <trkpt lat="41.69234" lon="-3.27905">
        <ele>960</ele>
      </trkpt>
      <trkpt lat="41.6894" lon="-3.27599">
        <ele>940</ele>
      </trkpt>
      <trkpt lat="41.68826" lon="-3.27501">
        <ele>938</ele>
      </trkpt>
      <trkpt lat="41.68632" lon="-3.27326">
        <ele>929</ele>
      </trkpt>
      <trkpt lat="41.6856" lon="-3.27285">
        <ele>928</ele>
      </trkpt>
      <trkpt lat="41.68507" lon="-3.27257">
        <ele>927</ele>
      </trkpt>
      <trkpt lat="41.68475" lon="-3.27224">
        <ele>927</ele>
      </trkpt>
      <trkpt lat="41.68453" lon="-3.27181">
        <ele>925</ele>
      </trkpt>
      <trkpt lat="41.68436" lon="-3.27086">
        <ele>927</ele>
      </trkpt>
      <trkpt lat="41.68405" lon="-3.26844">
        <ele>929</ele>
      </trkpt>
      <trkpt lat="41.68404" lon="-3.2679">
        <ele>929</ele>
      </trkpt>
      <trkpt lat="41.68406" lon="-3.26667">
        <ele>926</ele>
      </trkpt>
      <trkpt lat="41.68406" lon="-3.26352">
        <ele>929</ele>
      </trkpt>
      <trkpt lat="41.68407" lon="-3.26035">
        <ele>936</ele>
      </trkpt>
      <trkpt lat="41.68408" lon="-3.25867">
        <ele>939</ele>
      </trkpt>
      <trkpt lat="41.68406" lon="-3.2577">
        <ele>939</ele>
      </trkpt>
      <trkpt lat="41.68395" lon="-3.25716">
        <ele>938</ele>
      </trkpt>
      <trkpt lat="41.68373" lon="-3.25649">
        <ele>938</ele>
      </trkpt>
      <trkpt lat="41.6827" lon="-3.25348">
        <ele>932</ele>
      </trkpt>
      <trkpt lat="41.68147" lon="-3.24983">
        <ele>933</ele>
      </trkpt>
      <trkpt lat="41.68087" lon="-3.2481">
        <ele>938</ele>
      </trkpt>
      <trkpt lat="41.68048" lon="-3.24694">
        <ele>941</ele>
      </trkpt>
      <trkpt lat="41.68039" lon="-3.24629">
        <ele>946</ele>
      </trkpt>
      <trkpt lat="41.68035" lon="-3.24545">
        <ele>953</ele>
      </trkpt>
      <trkpt lat="41.6803" lon="-3.24396">
        <ele>955</ele>
      </trkpt>
      <trkpt lat="41.68024" lon="-3.24313">
        <ele>954</ele>
      </trkpt>
      <trkpt lat="41.68012" lon="-3.24264">
        <ele>955</ele>
      </trkpt>
      <trkpt lat="41.6799" lon="-3.24203">
        <ele>954</ele>
      </trkpt>
      <trkpt lat="41.67957" lon="-3.24141">
        <ele>954</ele>
      </trkpt>
      <trkpt lat="41.67915" lon="-3.24061">
        <ele>955</ele>
      </trkpt>
      <trkpt lat="41.67862" lon="-3.23966">
        <ele>956</ele>
      </trkpt>
      <trkpt lat="41.6781" lon="-3.23876">
        <ele>958</ele>
      </trkpt>
      <trkpt lat="41.67774" lon="-3.23826">
        <ele>959</ele>
      </trkpt>
      <trkpt lat="41.67708" lon="-3.23756">
        <ele>963</ele>
      </trkpt>
      <trkpt lat="41.67569" lon="-3.23612">
        <ele>976</ele>
      </trkpt>
      <trkpt lat="41.67489" lon="-3.23497">
        <ele>977</ele>
      </trkpt>
      <trkpt lat="41.67432" lon="-3.23353">
        <ele>972</ele>
      </trkpt>
      <trkpt lat="41.67381" lon="-3.23252">
        <ele>962</ele>
      </trkpt>
      <trkpt lat="41.67331" lon="-3.23191">
        <ele>956</ele>
      </trkpt>
      <trkpt lat="41.67302" lon="-3.23118">
        <ele>951</ele>
      </trkpt>
      <trkpt lat="41.67266" lon="-3.22973">
        <ele>953</ele>
      </trkpt>
      <trkpt lat="41.67237" lon="-3.22917">
        <ele>953</ele>
      </trkpt>
      <trkpt lat="41.67132" lon="-3.22776">
        <ele>940</ele>
      </trkpt>
      <trkpt lat="41.66845" lon="-3.22388">
        <ele>933</ele>
      </trkpt>
      <trkpt lat="41.66457" lon="-3.22035">
        <ele>923</ele>
      </trkpt>
      <trkpt lat="41.6639" lon="-3.21864">
        <ele>923</ele>
      </trkpt>
      <trkpt lat="41.66308" lon="-3.21604">
        <ele>934</ele>
      </trkpt>
      <trkpt lat="41.66232" lon="-3.21434">
        <ele>933</ele>
      </trkpt>
      <trkpt lat="41.66186" lon="-3.21385">
        <ele>921</ele>
      </trkpt>
      <trkpt lat="41.65946" lon="-3.21294">
        <ele>929</ele>
      </trkpt>
      <trkpt lat="41.65669" lon="-3.21252">
        <ele>921</ele>
      </trkpt>
      <trkpt lat="41.65586" lon="-3.21185">
        <ele>919</ele>
      </trkpt>
      <trkpt lat="41.65432" lon="-3.21062">
        <ele>912</ele>
      </trkpt>
      <trkpt lat="41.65076" lon="-3.20957">
        <ele>903</ele>
      </trkpt>
      <trkpt lat="41.64997" lon="-3.20961">
        <ele>901</ele>
      </trkpt>
      <trkpt lat="41.64877" lon="-3.21">
        <ele>903</ele>
      </trkpt>
      <trkpt lat="41.64716" lon="-3.21145">
        <ele>916</ele>
      </trkpt>
      <trkpt lat="41.64671" lon="-3.21182">
        <ele>922</ele>
      </trkpt>
      <trkpt lat="41.64611" lon="-3.21186">
        <ele>930</ele>
      </trkpt>
      <trkpt lat="41.64528" lon="-3.21144">
        <ele>938</ele>
      </trkpt>
      <trkpt lat="41.64433" lon="-3.21049">
        <ele>937</ele>
      </trkpt>
      <trkpt lat="41.64303" lon="-3.20938">
        <ele>933</ele>
      </trkpt>
      <trkpt lat="41.64196" lon="-3.20887">
        <ele>935</ele>
      </trkpt>
      <trkpt lat="41.64077" lon="-3.20887">
        <ele>932</ele>
      </trkpt>
      <trkpt lat="41.639" lon="-3.20916">
        <ele>915</ele>
      </trkpt>
      <trkpt lat="41.63668" lon="-3.20971">
        <ele>912</ele>
      </trkpt>
      <trkpt lat="41.63473" lon="-3.21035">
        <ele>916</ele>
      </trkpt>
      <trkpt lat="41.63381" lon="-3.21083">
        <ele>921</ele>
      </trkpt>
      <trkpt lat="41.63274" lon="-3.21202">
        <ele>927</ele>
      </trkpt>
      <trkpt lat="41.63144" lon="-3.21356">
        <ele>932</ele>
      </trkpt>
      <trkpt lat="41.63024" lon="-3.21476">
        <ele>933</ele>
      </trkpt>
      <trkpt lat="41.629" lon="-3.21533">
        <ele>935</ele>
      </trkpt>
      <trkpt lat="41.62709" lon="-3.21634">
        <ele>934</ele>
      </trkpt>
      <trkpt lat="41.62436" lon="-3.21776">
        <ele>949</ele>
      </trkpt>
      <trkpt lat="41.62346" lon="-3.21822">
        <ele>946</ele>
      </trkpt>
      <trkpt lat="41.62273" lon="-3.21847">
        <ele>946</ele>
      </trkpt>
      <trkpt lat="41.6221" lon="-3.21844">
        <ele>948</ele>
      </trkpt>
      <trkpt lat="41.62133" lon="-3.21832">
        <ele>949</ele>
      </trkpt>
      <trkpt lat="41.61774" lon="-3.21831">
        <ele>942</ele>
      </trkpt>
      <trkpt lat="41.61679" lon="-3.21852">
        <ele>940</ele>
      </trkpt>
      <trkpt lat="41.61442" lon="-3.21842">
        <ele>934</ele>
      </trkpt>
      <trkpt lat="41.61364" lon="-3.21825">
        <ele>935</ele>
      </trkpt>
      <trkpt lat="41.61281" lon="-3.21749">
        <ele>932</ele>
      </trkpt>
      <trkpt lat="41.6118" lon="-3.21653">
        <ele>926</ele>
      </trkpt>
      <trkpt lat="41.61118" lon="-3.21622">
        <ele>923</ele>
      </trkpt>
      <trkpt lat="41.61004" lon="-3.21605">
        <ele>919</ele>
      </trkpt>
      <trkpt lat="41.6091" lon="-3.21586">
        <ele>919</ele>
      </trkpt>
      <trkpt lat="41.60815" lon="-3.21546">
        <ele>921</ele>
      </trkpt>
      <trkpt lat="41.60703" lon="-3.21483">
        <ele>914</ele>
      </trkpt>
      <trkpt lat="41.60637" lon="-3.2142">
        <ele>907</ele>
      </trkpt>
      <trkpt lat="41.60564" lon="-3.21387">
        <ele>903</ele>
      </trkpt>
      <trkpt lat="41.6038" lon="-3.21334">
        <ele>894</ele>
      </trkpt>
      <trkpt lat="41.60323" lon="-3.21309">
        <ele>894</ele>
      </trkpt>
      <trkpt lat="41.60211" lon="-3.21211">
        <ele>894</ele>
      </trkpt>
      <trkpt lat="41.60146" lon="-3.21158">
        <ele>897</ele>
      </trkpt>
      <trkpt lat="41.59981" lon="-3.21101">
        <ele>904</ele>
      </trkpt>
      <trkpt lat="41.59897" lon="-3.21057">
        <ele>906</ele>
      </trkpt>
      <trkpt lat="41.59826" lon="-3.21048">
        <ele>904</ele>
      </trkpt>
      <trkpt lat="41.5973" lon="-3.21048">
        <ele>901</ele>
      </trkpt>
      <trkpt lat="41.59625" lon="-3.21033">
        <ele>895</ele>
      </trkpt>
      <trkpt lat="41.59545" lon="-3.2102">
        <ele>893</ele>
      </trkpt>
      <trkpt lat="41.59472" lon="-3.21038">
        <ele>893</ele>
      </trkpt>
      <trkpt lat="41.5914" lon="-3.21166">
        <ele>884</ele>
      </trkpt>
      <trkpt lat="41.58984" lon="-3.21245">
        <ele>885</ele>
      </trkpt>
      <trkpt lat="41.58925" lon="-3.21272">
        <ele>883</ele>
      </trkpt>
      <trkpt lat="41.58864" lon="-3.21273">
        <ele>881</ele>
      </trkpt>
      <trkpt lat="41.58786" lon="-3.21261">
        <ele>875</ele>
      </trkpt>
      <trkpt lat="41.58709" lon="-3.21248">
        <ele>871</ele>
      </trkpt>
      <trkpt lat="41.58548" lon="-3.21223">
        <ele>869</ele>
      </trkpt>
      <trkpt lat="41.58469" lon="-3.21193">
        <ele>868</ele>
      </trkpt>
      <trkpt lat="41.58054" lon="-3.20937">
        <ele>883</ele>
      </trkpt>
      <trkpt lat="41.57963" lon="-3.20887">
        <ele>890</ele>
      </trkpt>
      <trkpt lat="41.5787" lon="-3.20865">
        <ele>881</ele>
      </trkpt>
      <trkpt lat="41.57742" lon="-3.20837">
        <ele>874</ele>
      </trkpt>
      <trkpt lat="41.57627" lon="-3.20817">
        <ele>868</ele>
      </trkpt>
      <trkpt lat="41.57615" lon="-3.20842">
        <ele>866</ele>
      </trkpt>
      <trkpt lat="41.57568" lon="-3.20959">
        <ele>861</ele>
      </trkpt>
      <trkpt lat="41.57543" lon="-3.20973">
        <ele>859</ele>
      </trkpt>
      <trkpt lat="41.57476" lon="-3.20963">
        <ele>859</ele>
      </trkpt>
      <trkpt lat="41.57452" lon="-3.20915">
        <ele>859</ele>
      </trkpt>
      <trkpt lat="41.574" lon="-3.20614">
        <ele>865</ele>
      </trkpt>
      <trkpt lat="41.57346" lon="-3.20509">
        <ele>861</ele>
      </trkpt>
      <trkpt lat="41.57347" lon="-3.20509">
        <ele>861</ele>
      </trkpt>
      <trkpt lat="41.57165" lon="-3.20614">
        <ele>857</ele>
      </trkpt>
      <trkpt lat="41.57137" lon="-3.20642">
        <ele>857</ele>
      </trkpt>
      <trkpt lat="41.57121" lon="-3.20682">
        <ele>857</ele>
      </trkpt>
      <trkpt lat="41.57122" lon="-3.20835">
        <ele>855</ele>
      </trkpt>
      <trkpt lat="41.57126" lon="-3.21053">
        <ele>852</ele>
      </trkpt>
      <trkpt lat="41.57124" lon="-3.21138">
        <ele>851</ele>
      </trkpt>
      <trkpt lat="41.57117" lon="-3.21195">
        <ele>850</ele>
      </trkpt>
      <trkpt lat="41.57101" lon="-3.21277">
        <ele>850</ele>
      </trkpt>
      <trkpt lat="41.57061" lon="-3.21462">
        <ele>851</ele>
      </trkpt>
      <trkpt lat="41.57095" lon="-3.21285">
        <ele>850</ele>
      </trkpt>
      <trkpt lat="41.57112" lon="-3.21195">
        <ele>850</ele>
      </trkpt>
      <trkpt lat="41.5712" lon="-3.21123">
        <ele>851</ele>
      </trkpt>
      <trkpt lat="41.5712" lon="-3.20993">
        <ele>853</ele>
      </trkpt>
      <trkpt lat="41.57116" lon="-3.20749">
        <ele>857</ele>
      </trkpt>
      <trkpt lat="41.57116" lon="-3.20685">
        <ele>857</ele>
      </trkpt>
      <trkpt lat="41.57122" lon="-3.20656">
        <ele>857</ele>
      </trkpt>
      <trkpt lat="41.57134" lon="-3.20631">
        <ele>857</ele>
      </trkpt>
      <trkpt lat="41.57157" lon="-3.20615">
        <ele>857</ele>
      </trkpt>
      <trkpt lat="41.57343" lon="-3.20504">
        <ele>861</ele>
      </trkpt>
      <trkpt lat="41.57299" lon="-3.20412">
        <ele>859</ele>
      </trkpt>
      <trkpt lat="41.57296" lon="-3.20411">
        <ele>859</ele>
      </trkpt>
      <trkpt lat="41.57272" lon="-3.2">
        <ele>872</ele>
      </trkpt>
      <trkpt lat="41.5673" lon="-3.18859">
        <ele>875</ele>
      </trkpt>
      <trkpt lat="41.56645" lon="-3.18685">
        <ele>879</ele>
      </trkpt>
      <trkpt lat="41.56574" lon="-3.18584">
        <ele>875</ele>
      </trkpt>
      <trkpt lat="41.5654" lon="-3.18517">
        <ele>873</ele>
      </trkpt>
      <trkpt lat="41.56525" lon="-3.18436">
        <ele>875</ele>
      </trkpt>
      <trkpt lat="41.5653" lon="-3.18354">
        <ele>878</ele>
      </trkpt>
      <trkpt lat="41.56576" lon="-3.18194">
        <ele>877</ele>
      </trkpt>
      <trkpt lat="41.56641" lon="-3.17946">
        <ele>880</ele>
      </trkpt>
      <trkpt lat="41.56675" lon="-3.17799">
        <ele>879</ele>
      </trkpt>
      <trkpt lat="41.56779" lon="-3.17528">
        <ele>894</ele>
      </trkpt>
      <trkpt lat="41.56841" lon="-3.1709">
        <ele>896</ele>
      </trkpt>
      <trkpt lat="41.56853" lon="-3.16717">
        <ele>911</ele>
      </trkpt>
      <trkpt lat="41.56865" lon="-3.16509">
        <ele>911</ele>
      </trkpt>
      <trkpt lat="41.56875" lon="-3.16251">
        <ele>909</ele>
      </trkpt>
      <trkpt lat="41.56864" lon="-3.16121">
        <ele>904</ele>
      </trkpt>
      <trkpt lat="41.56853" lon="-3.15965">
        <ele>916</ele>
      </trkpt>
      <trkpt lat="41.56858" lon="-3.15768">
        <ele>912</ele>
      </trkpt>
      <trkpt lat="41.56882" lon="-3.15598">
        <ele>919</ele>
      </trkpt>
      <trkpt lat="41.56919" lon="-3.15393">
        <ele>915</ele>
      </trkpt>
      <trkpt lat="41.56983" lon="-3.15212">
        <ele>907</ele>
      </trkpt>
      <trkpt lat="41.57012" lon="-3.15104">
        <ele>913</ele>
      </trkpt>
      <trkpt lat="41.5703" lon="-3.14957">
        <ele>917</ele>
      </trkpt>
      <trkpt lat="41.57066" lon="-3.14813">
        <ele>919</ele>
      </trkpt>
      <trkpt lat="41.57111" lon="-3.14695">
        <ele>914</ele>
      </trkpt>
      <trkpt lat="41.57168" lon="-3.14562">
        <ele>920</ele>
      </trkpt>
      <trkpt lat="41.57199" lon="-3.14397">
        <ele>919</ele>
      </trkpt>
      <trkpt lat="41.57232" lon="-3.14058">
        <ele>910</ele>
      </trkpt>
      <trkpt lat="41.5725" lon="-3.13858">
        <ele>909.4</ele>
      </trkpt>
      <trkpt lat="41.57215" lon="-3.13844">
        <ele>907.4</ele>
      </trkpt>
      <trkpt lat="41.57179" lon="-3.13824">
        <ele>905.3</ele>
      </trkpt>
      <trkpt lat="41.57157" lon="-3.13809">
        <ele>904</ele>
      </trkpt>
      <trkpt lat="41.57133" lon="-3.1379">
        <ele>903.3</ele>
      </trkpt>
      <trkpt lat="41.57119" lon="-3.13782">
        <ele>903</ele>
      </trkpt>
      <trkpt lat="41.57102" lon="-3.13777">
        <ele>902.5</ele>
      </trkpt>
      <trkpt lat="41.57079" lon="-3.13774">
        <ele>901.5</ele>
      </trkpt>
      <trkpt lat="41.57041" lon="-3.13777">
        <ele>901.2</ele>
      </trkpt>
      <trkpt lat="41.57004" lon="-3.1378">
        <ele>901.3</ele>
      </trkpt>
      <trkpt lat="41.56985" lon="-3.1378">
        <ele>901.3</ele>
      </trkpt>
      <trkpt lat="41.56947" lon="-3.13774">
        <ele>899.7</ele>
      </trkpt>
      <trkpt lat="41.56917" lon="-3.13768">
        <ele>898.3</ele>
      </trkpt>
      <trkpt lat="41.56897" lon="-3.13757">
        <ele>897.4</ele>
      </trkpt>
      <trkpt lat="41.56859" lon="-3.13732">
        <ele>895.7</ele>
      </trkpt>
      <trkpt lat="41.56833" lon="-3.13716">
        <ele>894.6</ele>
      </trkpt>
      <trkpt lat="41.56815" lon="-3.13709">
        <ele>893.9</ele>
      </trkpt>
      <trkpt lat="41.56787" lon="-3.13706">
        <ele>893.2</ele>
      </trkpt>
      <trkpt lat="41.5675" lon="-3.13708">
        <ele>892.9</ele>
      </trkpt>
      <trkpt lat="41.56737" lon="-3.13708">
        <ele>892.4</ele>
      </trkpt>
      <trkpt lat="41.56729" lon="-3.13709">
        <ele>892.1</ele>
      </trkpt>
      <trkpt lat="41.56721" lon="-3.13694">
        <ele>892.8</ele>
      </trkpt>
      <trkpt lat="41.56717" lon="-3.13679">
        <ele>893.8</ele>
      </trkpt>
      <trkpt lat="41.56708" lon="-3.13654">
        <ele>896.6</ele>
      </trkpt>
      <trkpt lat="41.56688" lon="-3.1361">
        <ele>900.3</ele>
      </trkpt>
      <trkpt lat="41.56682" lon="-3.13591">
        <ele>901.1</ele>
      </trkpt>
      <trkpt lat="41.56678" lon="-3.13576">
        <ele>902.1</ele>
      </trkpt>
      <trkpt lat="41.56678" lon="-3.13555">
        <ele>903.2</ele>
      </trkpt>
      <trkpt lat="41.5668" lon="-3.13544">
        <ele>903.6</ele>
      </trkpt>
      <trkpt lat="41.56687" lon="-3.13535">
        <ele>903.8</ele>
      </trkpt>
      <trkpt lat="41.5669" lon="-3.13523">
        <ele>904</ele>
      </trkpt>
      <trkpt lat="41.56691" lon="-3.13502">
        <ele>904.7</ele>
      </trkpt>
      <trkpt lat="41.56692" lon="-3.13464">
        <ele>905.9</ele>
      </trkpt>
      <trkpt lat="41.56697" lon="-3.13443">
        <ele>906.4</ele>
      </trkpt>
      <trkpt lat="41.56709" lon="-3.13424">
        <ele>907.1</ele>
      </trkpt>
      <trkpt lat="41.56734" lon="-3.13402">
        <ele>906.5</ele>
      </trkpt>
      <trkpt lat="41.56775" lon="-3.13374">
        <ele>902</ele>
      </trkpt>
      <trkpt lat="41.56817" lon="-3.13349">
        <ele>900</ele>
      </trkpt>
      <trkpt lat="41.56843" lon="-3.13334">
        <ele>900</ele>
      </trkpt>
      <trkpt lat="41.56856" lon="-3.13317">
        <ele>900</ele>
      </trkpt>
      <trkpt lat="41.56872" lon="-3.13288">
        <ele>899.7</ele>
      </trkpt>
      <trkpt lat="41.56905" lon="-3.13218">
        <ele>899.2</ele>
      </trkpt>
      <trkpt lat="41.56941" lon="-3.13147">
        <ele>898.5</ele>
      </trkpt>
      <trkpt lat="41.57009" lon="-3.13019">
        <ele>900.7</ele>
      </trkpt>
      <trkpt lat="41.57024" lon="-3.12991">
        <ele>901</ele>
      </trkpt>
      <trkpt lat="41.57101" lon="-3.1285">
        <ele>903.3</ele>
      </trkpt>
      <trkpt lat="41.57161" lon="-3.12741">
        <ele>906.6</ele>
      </trkpt>
      <trkpt lat="41.57203" lon="-3.1266">
        <ele>908.1</ele>
      </trkpt>
      <trkpt lat="41.57233" lon="-3.12588">
        <ele>908.8</ele>
      </trkpt>
      <trkpt lat="41.57257" lon="-3.12518">
        <ele>910.5</ele>
      </trkpt>
      <trkpt lat="41.57278" lon="-3.12438">
        <ele>911.9</ele>
      </trkpt>
      <trkpt lat="41.57304" lon="-3.12321">
        <ele>913.5</ele>
      </trkpt>
      <trkpt lat="41.5734" lon="-3.12199">
        <ele>909</ele>
      </trkpt>
      <trkpt lat="41.57396" lon="-3.12028">
        <ele>914.9</ele>
      </trkpt>
      <trkpt lat="41.57449" lon="-3.1187">
        <ele>910.7</ele>
      </trkpt>
      <trkpt lat="41.57492" lon="-3.11753">
        <ele>911.8</ele>
      </trkpt>
      <trkpt lat="41.57531" lon="-3.11655">
        <ele>912.9</ele>
      </trkpt>
      <trkpt lat="41.5756" lon="-3.11593">
        <ele>912.8</ele>
      </trkpt>
      <trkpt lat="41.57572" lon="-3.11556">
        <ele>912.1</ele>
      </trkpt>
      <trkpt lat="41.57576" lon="-3.1153">
        <ele>912</ele>
      </trkpt>
      <trkpt lat="41.57576" lon="-3.11503">
        <ele>912</ele>
      </trkpt>
      <trkpt lat="41.5757" lon="-3.11466">
        <ele>912.2</ele>
      </trkpt>
      <trkpt lat="41.57564" lon="-3.11431">
        <ele>913</ele>
      </trkpt>
      <trkpt lat="41.57565" lon="-3.11408">
        <ele>913</ele>
      </trkpt>
      <trkpt lat="41.57574" lon="-3.11388">
        <ele>912.9</ele>
      </trkpt>
      <trkpt lat="41.57585" lon="-3.11376">
        <ele>912.9</ele>
      </trkpt>
      <trkpt lat="41.57598" lon="-3.11366">
        <ele>913.5</ele>
      </trkpt>
      <trkpt lat="41.57602" lon="-3.11359">
        <ele>913.6</ele>
      </trkpt>
      <trkpt lat="41.57603" lon="-3.1134">
        <ele>913.6</ele>
      </trkpt>
      <trkpt lat="41.57611" lon="-3.11322">
        <ele>913.3</ele>
      </trkpt>
      <trkpt lat="41.5762" lon="-3.11316">
        <ele>913.5</ele>
      </trkpt>
      <trkpt lat="41.57627" lon="-3.11299">
        <ele>913.8</ele>
      </trkpt>
      <trkpt lat="41.57656" lon="-3.1106">
        <ele>916</ele>
      </trkpt>
      <trkpt lat="41.57688" lon="-3.10781">
        <ele>923</ele>
      </trkpt>
      <trkpt lat="41.57692" lon="-3.10652">
        <ele>926</ele>
      </trkpt>
      <trkpt lat="41.5767" lon="-3.10388">
        <ele>930</ele>
      </trkpt>
      <trkpt lat="41.57658" lon="-3.10048">
        <ele>937</ele>
      </trkpt>
      <trkpt lat="41.57647" lon="-3.09702">
        <ele>958</ele>
      </trkpt>
      <trkpt lat="41.57653" lon="-3.09627">
        <ele>954</ele>
      </trkpt>
      <trkpt lat="41.57685" lon="-3.09541">
        <ele>955</ele>
      </trkpt>
      <trkpt lat="41.57736" lon="-3.09434">
        <ele>952</ele>
      </trkpt>
      <trkpt lat="41.57825" lon="-3.09333">
        <ele>948</ele>
      </trkpt>
      <trkpt lat="41.5799" lon="-3.09185">
        <ele>936</ele>
      </trkpt>
      <trkpt lat="41.5821" lon="-3.09003">
        <ele>920</ele>
      </trkpt>
      <trkpt lat="41.58269" lon="-3.08932">
        <ele>922</ele>
      </trkpt>
      <trkpt lat="41.58323" lon="-3.08827">
        <ele>918</ele>
      </trkpt>
      <trkpt lat="41.5839" lon="-3.08624">
        <ele>909</ele>
      </trkpt>
      <trkpt lat="41.58522" lon="-3.08227">
        <ele>891</ele>
      </trkpt>
      <trkpt lat="41.58593" lon="-3.08021">
        <ele>894</ele>
      </trkpt>
      <trkpt lat="41.58655" lon="-3.07904">
        <ele>899</ele>
      </trkpt>
      <trkpt lat="41.58779" lon="-3.07638">
        <ele>895</ele>
      </trkpt>
      <trkpt lat="41.58799" lon="-3.07546">
        <ele>895</ele>
      </trkpt>
      <trkpt lat="41.58803" lon="-3.07367">
        <ele>895</ele>
      </trkpt>
      <trkpt lat="41.58791" lon="-3.07275">
        <ele>893</ele>
      </trkpt>
      <trkpt lat="41.58786" lon="-3.07209">
        <ele>892</ele>
      </trkpt>
      <trkpt lat="41.58768" lon="-3.06966">
        <ele>892</ele>
      </trkpt>
      <trkpt lat="41.58768" lon="-3.06926">
        <ele>892</ele>
      </trkpt>
      <trkpt lat="41.58768" lon="-3.06867">
        <ele>892</ele>
      </trkpt>
      <trkpt lat="41.58766" lon="-3.0684">
        <ele>892</ele>
      </trkpt>
      <trkpt lat="41.58766" lon="-3.06797">
        <ele>893</ele>
      </trkpt>
      <trkpt lat="41.58766" lon="-3.0675">
        <ele>893</ele>
      </trkpt>
      <trkpt lat="41.58765" lon="-3.06697">
        <ele>894</ele>
      </trkpt>
      <trkpt lat="41.58765" lon="-3.06673">
        <ele>894</ele>
      </trkpt>
      <trkpt lat="41.58762" lon="-3.06662">
        <ele>895</ele>
      </trkpt>
      <trkpt lat="41.58758" lon="-3.06658">
        <ele>894</ele>
      </trkpt>
      <trkpt lat="41.58758" lon="-3.06658">
        <ele>894</ele>
      </trkpt>
      <trkpt lat="41.58751" lon="-3.0666">
        <ele>894</ele>
      </trkpt>
      <trkpt lat="41.58751" lon="-3.0666">
        <ele>894</ele>
      </trkpt>
      <trkpt lat="41.58734" lon="-3.06701">
        <ele>893</ele>
      </trkpt>
      <trkpt lat="41.5871" lon="-3.06755">
        <ele>892</ele>
      </trkpt>
      <trkpt lat="41.58682" lon="-3.06799">
        <ele>893</ele>
      </trkpt>
      <trkpt lat="41.58646" lon="-3.06855">
        <ele>896</ele>
      </trkpt>
      <trkpt lat="41.58621" lon="-3.06893">
        <ele>896</ele>
      </trkpt>
      <trkpt lat="41.58591" lon="-3.06941">
        <ele>896</ele>
      </trkpt>
      <trkpt lat="41.58559" lon="-3.06985">
        <ele>897</ele>
      </trkpt>
      <trkpt lat="41.58519" lon="-3.07025">
        <ele>897</ele>
      </trkpt>
      <trkpt lat="41.58485" lon="-3.0706">
        <ele>897</ele>
      </trkpt>
      <trkpt lat="41.58425" lon="-3.07133">
        <ele>896</ele>
      </trkpt>
      <trkpt lat="41.58375" lon="-3.07206">
        <ele>895</ele>
      </trkpt>
      <trkpt lat="41.58315" lon="-3.07298">
        <ele>892</ele>
      </trkpt>
      <trkpt lat="41.58284" lon="-3.07348">
        <ele>894</ele>
      </trkpt>
      <trkpt lat="41.58264" lon="-3.07383">
        <ele>895</ele>
      </trkpt>
      <trkpt lat="41.58257" lon="-3.07398">
        <ele>895</ele>
      </trkpt>
      <trkpt lat="41.58233" lon="-3.07443">
        <ele>896</ele>
      </trkpt>
      <trkpt lat="41.58208" lon="-3.07494">
        <ele>896</ele>
      </trkpt>
      <trkpt lat="41.58195" lon="-3.0753">
        <ele>897</ele>
      </trkpt>
      <trkpt lat="41.58165" lon="-3.07599">
        <ele>895</ele>
      </trkpt>
      <trkpt lat="41.58151" lon="-3.07626">
        <ele>894</ele>
      </trkpt>
      <trkpt lat="41.58133" lon="-3.07639">
        <ele>893</ele>
      </trkpt>
      <trkpt lat="41.58112" lon="-3.07647">
        <ele>893</ele>
      </trkpt>
      <trkpt lat="41.58098" lon="-3.07652">
        <ele>892</ele>
      </trkpt>
      <trkpt lat="41.5809" lon="-3.07665">
        <ele>891</ele>
      </trkpt>
      <trkpt lat="41.58089" lon="-3.07687">
        <ele>891</ele>
      </trkpt>
      <trkpt lat="41.58084" lon="-3.07717">
        <ele>891</ele>
      </trkpt>
      <trkpt lat="41.58069" lon="-3.07767">
        <ele>892</ele>
      </trkpt>
      <trkpt lat="41.58052" lon="-3.07809">
        <ele>894</ele>
      </trkpt>
      <trkpt lat="41.58017" lon="-3.07889">
        <ele>898</ele>
      </trkpt>
      <trkpt lat="41.58004" lon="-3.07929">
        <ele>899</ele>
      </trkpt>
      <trkpt lat="41.57998" lon="-3.07976">
        <ele>898</ele>
      </trkpt>
      <trkpt lat="41.57989" lon="-3.08037">
        <ele>896</ele>
      </trkpt>
      <trkpt lat="41.57982" lon="-3.08089">
        <ele>894</ele>
      </trkpt>
      <trkpt lat="41.57973" lon="-3.08119">
        <ele>892</ele>
      </trkpt>
      <trkpt lat="41.57955" lon="-3.08146">
        <ele>890</ele>
      </trkpt>
      <trkpt lat="41.57932" lon="-3.08176">
        <ele>889</ele>
      </trkpt>
      <trkpt lat="41.57898" lon="-3.08209">
        <ele>888</ele>
      </trkpt>
      <trkpt lat="41.57846" lon="-3.08243">
        <ele>888</ele>
      </trkpt>
      <trkpt lat="41.5776" lon="-3.08295">
        <ele>888</ele>
      </trkpt>
      <trkpt lat="41.57731" lon="-3.08312">
        <ele>889</ele>
      </trkpt>
      <trkpt lat="41.57702" lon="-3.08326">
        <ele>889</ele>
      </trkpt>
      <trkpt lat="41.57674" lon="-3.0833">
        <ele>891</ele>
      </trkpt>
      <trkpt lat="41.5759" lon="-3.08318">
        <ele>898</ele>
      </trkpt>
      <trkpt lat="41.5753" lon="-3.08313">
        <ele>899</ele>
      </trkpt>
      <trkpt lat="41.575" lon="-3.08309">
        <ele>898</ele>
      </trkpt>
      <trkpt lat="41.57466" lon="-3.08296">
        <ele>899</ele>
      </trkpt>
      <trkpt lat="41.57445" lon="-3.08291">
        <ele>898</ele>
      </trkpt>
      <trkpt lat="41.57422" lon="-3.08293">
        <ele>897</ele>
      </trkpt>
      <trkpt lat="41.57372" lon="-3.08308">
        <ele>893</ele>
      </trkpt>
      <trkpt lat="41.5733" lon="-3.08326">
        <ele>891</ele>
      </trkpt>
      <trkpt lat="41.57286" lon="-3.08354">
        <ele>889</ele>
      </trkpt>
      <trkpt lat="41.57256" lon="-3.08379">
        <ele>889</ele>
      </trkpt>
      <trkpt lat="41.57239" lon="-3.08399">
        <ele>888</ele>
      </trkpt>
      <trkpt lat="41.57219" lon="-3.08432">
        <ele>886</ele>
      </trkpt>
      <trkpt lat="41.57199" lon="-3.08484">
        <ele>884</ele>
      </trkpt>
      <trkpt lat="41.57183" lon="-3.08516">
        <ele>884</ele>
      </trkpt>
      <trkpt lat="41.57172" lon="-3.08536">
        <ele>885</ele>
      </trkpt>
      <trkpt lat="41.57151" lon="-3.08555">
        <ele>885</ele>
      </trkpt>
      <trkpt lat="41.57111" lon="-3.08582">
        <ele>884</ele>
      </trkpt>
      <trkpt lat="41.57041" lon="-3.08629">
        <ele>884</ele>
      </trkpt>
      <trkpt lat="41.56961" lon="-3.08685">
        <ele>884</ele>
      </trkpt>
      <trkpt lat="41.56927" lon="-3.08706">
        <ele>884</ele>
      </trkpt>
      <trkpt lat="41.56913" lon="-3.08716">
        <ele>884</ele>
      </trkpt>
      <trkpt lat="41.56904" lon="-3.08721">
        <ele>884</ele>
      </trkpt>
      <trkpt lat="41.56905" lon="-3.08742">
        <ele>885</ele>
      </trkpt>
      <trkpt lat="41.56908" lon="-3.08792">
        <ele>890</ele>
      </trkpt>
      <trkpt lat="41.56878" lon="-3.08799">
        <ele>889</ele>
      </trkpt>
      <trkpt lat="41.56826" lon="-3.08818">
        <ele>887</ele>
      </trkpt>
      <trkpt lat="41.56716" lon="-3.08918">
        <ele>887</ele>
      </trkpt>
      <trkpt lat="41.56667" lon="-3.08947">
        <ele>887</ele>
      </trkpt>
      <trkpt lat="41.56329" lon="-3.0906">
        <ele>882</ele>
      </trkpt>
      <trkpt lat="41.55861" lon="-3.09216">
        <ele>891</ele>
      </trkpt>
      <trkpt lat="41.55587" lon="-3.09308">
        <ele>890</ele>
      </trkpt>
      <trkpt lat="41.55431" lon="-3.09362">
        <ele>896</ele>
      </trkpt>
      <trkpt lat="41.55387" lon="-3.09368">
        <ele>896</ele>
      </trkpt>
      <trkpt lat="41.55269" lon="-3.09351">
        <ele>894</ele>
      </trkpt>
      <trkpt lat="41.55148" lon="-3.09329">
        <ele>890</ele>
      </trkpt>
      <trkpt lat="41.55116" lon="-3.09329">
        <ele>890</ele>
      </trkpt>
      <trkpt lat="41.55003" lon="-3.09357">
        <ele>893</ele>
      </trkpt>
      <trkpt lat="41.54904" lon="-3.09382">
        <ele>897</ele>
      </trkpt>
      <trkpt lat="41.54865" lon="-3.09395">
        <ele>898</ele>
      </trkpt>
      <trkpt lat="41.54764" lon="-3.09449">
        <ele>900</ele>
      </trkpt>
      <trkpt lat="41.54689" lon="-3.0949">
        <ele>900</ele>
      </trkpt>
      <trkpt lat="41.54544" lon="-3.09571">
        <ele>913</ele>
      </trkpt>
      <trkpt lat="41.54433" lon="-3.09634">
        <ele>900</ele>
      </trkpt>
      <trkpt lat="41.54352" lon="-3.0971">
        <ele>896</ele>
      </trkpt>
      <trkpt lat="41.54225" lon="-3.09828">
        <ele>889</ele>
      </trkpt>
      <trkpt lat="41.54114" lon="-3.09938">
        <ele>884</ele>
      </trkpt>
      <trkpt lat="41.54007" lon="-3.10043">
        <ele>880</ele>
      </trkpt>
      <trkpt lat="41.5393" lon="-3.10116">
        <ele>878</ele>
      </trkpt>
      <trkpt lat="41.53852" lon="-3.10165">
        <ele>877</ele>
      </trkpt>
      <trkpt lat="41.53727" lon="-3.10229">
        <ele>876</ele>
      </trkpt>
      <trkpt lat="41.5373" lon="-3.10258">
        <ele>876</ele>
      </trkpt>
      <trkpt lat="41.53871" lon="-3.10394">
        <ele>874</ele>
      </trkpt>
      <trkpt lat="41.53882" lon="-3.10409">
        <ele>875</ele>
      </trkpt>
      <trkpt lat="41.53869" lon="-3.10436">
        <ele>874</ele>
      </trkpt>
      <trkpt lat="41.53849" lon="-3.10464">
        <ele>874</ele>
      </trkpt>
      <trkpt lat="41.53793" lon="-3.10491">
        <ele>873</ele>
      </trkpt>
      <trkpt lat="41.53768" lon="-3.10504">
        <ele>873</ele>
      </trkpt>
      <trkpt lat="41.53735" lon="-3.10541">
        <ele>873</ele>
      </trkpt>
      <trkpt lat="41.53719" lon="-3.10528">
        <ele>873</ele>
      </trkpt>
      <trkpt lat="41.536" lon="-3.10413">
        <ele>873</ele>
      </trkpt>
      <trkpt lat="41.53567" lon="-3.10342">
        <ele>874</ele>
      </trkpt>
      <trkpt lat="41.53537" lon="-3.10305">
        <ele>875</ele>
      </trkpt>
      <trkpt lat="41.53411" lon="-3.1023">
        <ele>875</ele>
      </trkpt>
      <trkpt lat="41.53262" lon="-3.10088">
        <ele>875</ele>
      </trkpt>
      <trkpt lat="41.53037" lon="-3.0988">
        <ele>878</ele>
      </trkpt>
      <trkpt lat="41.53" lon="-3.09858">
        <ele>879</ele>
      </trkpt>
      <trkpt lat="41.52897" lon="-3.09861">
        <ele>879</ele>
      </trkpt>
      <trkpt lat="41.5278" lon="-3.09863">
        <ele>878</ele>
      </trkpt>
      <trkpt lat="41.52278" lon="-3.09882">
        <ele>875</ele>
      </trkpt>
      <trkpt lat="41.51598" lon="-3.09905">
        <ele>869</ele>
      </trkpt>
      <trkpt lat="41.51289" lon="-3.09916">
        <ele>866</ele>
      </trkpt>
      <trkpt lat="41.50579" lon="-3.0994">
        <ele>860</ele>
      </trkpt>
      <trkpt lat="41.50447" lon="-3.09945">
        <ele>857</ele>
      </trkpt>
      <trkpt lat="41.50432" lon="-3.09933">
        <ele>858</ele>
      </trkpt>
      <trkpt lat="41.50426" lon="-3.09897">
        <ele>859</ele>
      </trkpt>
      <trkpt lat="41.50417" lon="-3.09842">
        <ele>860</ele>
      </trkpt>
      <trkpt lat="41.50423" lon="-3.09796">
        <ele>859</ele>
      </trkpt>
      <trkpt lat="41.50422" lon="-3.09766">
        <ele>860</ele>
      </trkpt>
      <trkpt lat="41.50417" lon="-3.09745">
        <ele>861</ele>
      </trkpt>
      <trkpt lat="41.50406" lon="-3.09732">
        <ele>861</ele>
      </trkpt>
      <trkpt lat="41.50385" lon="-3.09735">
        <ele>864</ele>
      </trkpt>
      <trkpt lat="41.50336" lon="-3.09756">
        <ele>870</ele>
      </trkpt>
      <trkpt lat="41.50301" lon="-3.0977">
        <ele>874</ele>
      </trkpt>
      <trkpt lat="41.50227" lon="-3.09777">
        <ele>876</ele>
      </trkpt>
      <trkpt lat="41.5016" lon="-3.09788">
        <ele>872</ele>
      </trkpt>
      <trkpt lat="41.50121" lon="-3.09812">
        <ele>875</ele>
      </trkpt>
      <trkpt lat="41.50059" lon="-3.09847">
        <ele>880</ele>
      </trkpt>
      <trkpt lat="41.49938" lon="-3.09894">
        <ele>880</ele>
      </trkpt>
      <trkpt lat="41.49813" lon="-3.09925">
        <ele>883</ele>
      </trkpt>
      <trkpt lat="41.49714" lon="-3.09947">
        <ele>886</ele>
      </trkpt>
      <trkpt lat="41.49696" lon="-3.09861">
        <ele>886</ele>
      </trkpt>
      <trkpt lat="41.49676" lon="-3.0978">
        <ele>892</ele>
      </trkpt>
      <trkpt lat="41.4964" lon="-3.09732">
        <ele>897</ele>
      </trkpt>
      <trkpt lat="41.496" lon="-3.097">
        <ele>901</ele>
      </trkpt>
      <trkpt lat="41.49561" lon="-3.09679">
        <ele>905</ele>
      </trkpt>
      <trkpt lat="41.49553" lon="-3.09646">
        <ele>911</ele>
      </trkpt>
      <trkpt lat="41.49562" lon="-3.09606">
        <ele>916</ele>
      </trkpt>
      <trkpt lat="41.49586" lon="-3.09577">
        <ele>921</ele>
      </trkpt>
      <trkpt lat="41.49634" lon="-3.09548">
        <ele>923</ele>
      </trkpt>
      <trkpt lat="41.49724" lon="-3.09504">
        <ele>912</ele>
      </trkpt>
      <trkpt lat="41.49758" lon="-3.09462">
        <ele>913</ele>
      </trkpt>
      <trkpt lat="41.49777" lon="-3.09399">
        <ele>920</ele>
      </trkpt>
      <trkpt lat="41.49794" lon="-3.09345">
        <ele>934</ele>
      </trkpt>
      <trkpt lat="41.49826" lon="-3.09306">
        <ele>944</ele>
      </trkpt>
      <trkpt lat="41.49877" lon="-3.09287">
        <ele>941</ele>
      </trkpt>
      <trkpt lat="41.49923" lon="-3.09271">
        <ele>927</ele>
      </trkpt>
      <trkpt lat="41.49942" lon="-3.09255">
        <ele>919</ele>
      </trkpt>
      <trkpt lat="41.49956" lon="-3.09236">
        <ele>915</ele>
      </trkpt>
      <trkpt lat="41.4996" lon="-3.09196">
        <ele>916</ele>
      </trkpt>
      <trkpt lat="41.49953" lon="-3.09166">
        <ele>921</ele>
      </trkpt>
      <trkpt lat="41.49944" lon="-3.09144">
        <ele>926</ele>
      </trkpt>
      <trkpt lat="41.49927" lon="-3.09131">
        <ele>933</ele>
      </trkpt>
      <trkpt lat="41.49914" lon="-3.09115">
        <ele>940</ele>
      </trkpt>
      <trkpt lat="41.49912" lon="-3.09094">
        <ele>944</ele>
      </trkpt>
      <trkpt lat="41.49931" lon="-3.09065">
        <ele>947</ele>
      </trkpt>
      <trkpt lat="41.49946" lon="-3.09038">
        <ele>948</ele>
      </trkpt>
      <trkpt lat="41.49947" lon="-3.0901">
        <ele>946</ele>
      </trkpt>
      <trkpt lat="41.49932" lon="-3.08998">
        <ele>944</ele>
      </trkpt>
      <trkpt lat="41.49906" lon="-3.08997">
        <ele>946</ele>
      </trkpt>
      <trkpt lat="41.49888" lon="-3.08979">
        <ele>944</ele>
      </trkpt>
      <trkpt lat="41.49874" lon="-3.08942">
        <ele>940</ele>
      </trkpt>
      <trkpt lat="41.49856" lon="-3.08864">
        <ele>952</ele>
      </trkpt>
      <trkpt lat="41.49856" lon="-3.08826">
        <ele>957</ele>
      </trkpt>
      <trkpt lat="41.4987" lon="-3.0881">
        <ele>955</ele>
      </trkpt>
      <trkpt lat="41.49889" lon="-3.08809">
        <ele>951</ele>
      </trkpt>
      <trkpt lat="41.4991" lon="-3.0881">
        <ele>946</ele>
      </trkpt>
      <trkpt lat="41.49922" lon="-3.08798">
        <ele>943</ele>
      </trkpt>
      <trkpt lat="41.49919" lon="-3.08774">
        <ele>942</ele>
      </trkpt>
      <trkpt lat="41.49897" lon="-3.08757">
        <ele>945</ele>
      </trkpt>
      <trkpt lat="41.49857" lon="-3.08739">
        <ele>952</ele>
      </trkpt>
      <trkpt lat="41.49822" lon="-3.08724">
        <ele>958</ele>
      </trkpt>
      <trkpt lat="41.49812" lon="-3.08709">
        <ele>961</ele>
      </trkpt>
      <trkpt lat="41.49812" lon="-3.08684">
        <ele>962</ele>
      </trkpt>
      <trkpt lat="41.4982" lon="-3.08661">
        <ele>961</ele>
      </trkpt>
      <trkpt lat="41.49817" lon="-3.08638">
        <ele>966</ele>
      </trkpt>
      <trkpt lat="41.49787" lon="-3.08576">
        <ele>977</ele>
      </trkpt>
      <trkpt lat="41.49748" lon="-3.08421">
        <ele>986</ele>
      </trkpt>
      <trkpt lat="41.4974" lon="-3.0836">
        <ele>983</ele>
      </trkpt>
      <trkpt lat="41.49752" lon="-3.08301">
        <ele>981</ele>
      </trkpt>
      <trkpt lat="41.49764" lon="-3.08211">
        <ele>979</ele>
      </trkpt>
      <trkpt lat="41.49764" lon="-3.08141">
        <ele>975</ele>
      </trkpt>
      <trkpt lat="41.49775" lon="-3.08092">
        <ele>974</ele>
      </trkpt>
      <trkpt lat="41.49796" lon="-3.0806">
        <ele>977</ele>
      </trkpt>
      <trkpt lat="41.498" lon="-3.08019">
        <ele>977</ele>
      </trkpt>
      <trkpt lat="41.49792" lon="-3.07965">
        <ele>972</ele>
      </trkpt>
      <trkpt lat="41.49796" lon="-3.07902">
        <ele>967</ele>
      </trkpt>
      <trkpt lat="41.49825" lon="-3.07777">
        <ele>955</ele>
      </trkpt>
      <trkpt lat="41.49845" lon="-3.07617">
        <ele>955</ele>
      </trkpt>
      <trkpt lat="41.49865" lon="-3.07396">
        <ele>938</ele>
      </trkpt>
      <trkpt lat="41.49917" lon="-3.07138">
        <ele>922</ele>
      </trkpt>
      <trkpt lat="41.49932" lon="-3.07045">
        <ele>920</ele>
      </trkpt>
      <trkpt lat="41.49935" lon="-3.07006">
        <ele>919</ele>
      </trkpt>
      <trkpt lat="41.49901" lon="-3.06947">
        <ele>925</ele>
      </trkpt>
      <trkpt lat="41.49877" lon="-3.06894">
        <ele>931</ele>
      </trkpt>
      <trkpt lat="41.49851" lon="-3.06834">
        <ele>938</ele>
      </trkpt>
      <trkpt lat="41.49792" lon="-3.06776">
        <ele>937</ele>
      </trkpt>
      <trkpt lat="41.49718" lon="-3.06685">
        <ele>936</ele>
      </trkpt>
      <trkpt lat="41.49706" lon="-3.06655">
        <ele>939</ele>
      </trkpt>
      <trkpt lat="41.49663" lon="-3.06521">
        <ele>936</ele>
      </trkpt>
      <trkpt lat="41.49664" lon="-3.06449">
        <ele>932</ele>
      </trkpt>
      <trkpt lat="41.49695" lon="-3.06204">
        <ele>917</ele>
      </trkpt>
      <trkpt lat="41.49721" lon="-3.05983">
        <ele>915</ele>
      </trkpt>
      <trkpt lat="41.49728" lon="-3.05892">
        <ele>908</ele>
      </trkpt>
      <trkpt lat="41.4972" lon="-3.05847">
        <ele>910</ele>
      </trkpt>
      <trkpt lat="41.49629" lon="-3.05726">
        <ele>896</ele>
      </trkpt>
      <trkpt lat="41.49573" lon="-3.05655">
        <ele>898</ele>
      </trkpt>
      <trkpt lat="41.49515" lon="-3.05477">
        <ele>902</ele>
      </trkpt>
      <trkpt lat="41.49512" lon="-3.05387">
        <ele>904</ele>
      </trkpt>
      <trkpt lat="41.49474" lon="-3.0542">
        <ele>904</ele>
      </trkpt>
      <trkpt lat="41.49449" lon="-3.05426">
        <ele>905</ele>
      </trkpt>
      <trkpt lat="41.49383" lon="-3.05435">
        <ele>905</ele>
      </trkpt>
      <trkpt lat="41.49279" lon="-3.05447">
        <ele>907</ele>
      </trkpt>
      <trkpt lat="41.49247" lon="-3.05439">
        <ele>911</ele>
      </trkpt>
      <trkpt lat="41.4918" lon="-3.05414">
        <ele>916</ele>
      </trkpt>
      <trkpt lat="41.49092" lon="-3.05377">
        <ele>920</ele>
      </trkpt>
      <trkpt lat="41.49024" lon="-3.05342">
        <ele>927</ele>
      </trkpt>
      <trkpt lat="41.48978" lon="-3.05303">
        <ele>935</ele>
      </trkpt>
      <trkpt lat="41.48917" lon="-3.05226">
        <ele>942</ele>
      </trkpt>
      <trkpt lat="41.48869" lon="-3.05154">
        <ele>945</ele>
      </trkpt>
      <trkpt lat="41.48819" lon="-3.0505">
        <ele>949</ele>
      </trkpt>
      <trkpt lat="41.48784" lon="-3.04967">
        <ele>953</ele>
      </trkpt>
      <trkpt lat="41.4873" lon="-3.04854">
        <ele>954</ele>
      </trkpt>
      <trkpt lat="41.48695" lon="-3.04763">
        <ele>955</ele>
      </trkpt>
      <trkpt lat="41.48682" lon="-3.04676">
        <ele>959</ele>
      </trkpt>
      <trkpt lat="41.48673" lon="-3.04615">
        <ele>958</ele>
      </trkpt>
      <trkpt lat="41.48648" lon="-3.04544">
        <ele>956</ele>
      </trkpt>
      <trkpt lat="41.4861" lon="-3.0448">
        <ele>951</ele>
      </trkpt>
      <trkpt lat="41.48531" lon="-3.04408">
        <ele>956</ele>
      </trkpt>
      <trkpt lat="41.48474" lon="-3.04368">
        <ele>959</ele>
      </trkpt>
      <trkpt lat="41.48448" lon="-3.04336">
        <ele>956</ele>
      </trkpt>
      <trkpt lat="41.48439" lon="-3.04306">
        <ele>952</ele>
      </trkpt>
      <trkpt lat="41.48437" lon="-3.04275">
        <ele>948</ele>
      </trkpt>
      <trkpt lat="41.48424" lon="-3.04255">
        <ele>943</ele>
      </trkpt>
      <trkpt lat="41.48403" lon="-3.04223">
        <ele>934</ele>
      </trkpt>
      <trkpt lat="41.48401" lon="-3.04186">
        <ele>930</ele>
      </trkpt>
      <trkpt lat="41.48415" lon="-3.04095">
        <ele>921</ele>
      </trkpt>
      <trkpt lat="41.4844" lon="-3.0396">
        <ele>913</ele>
      </trkpt>
      <trkpt lat="41.48532" lon="-3.03604">
        <ele>911</ele>
      </trkpt>
      <trkpt lat="41.48535" lon="-3.03531">
        <ele>906</ele>
      </trkpt>
      <trkpt lat="41.48536" lon="-3.03441">
        <ele>902</ele>
      </trkpt>
      <trkpt lat="41.48547" lon="-3.03322">
        <ele>899</ele>
      </trkpt>
      <trkpt lat="41.48535" lon="-3.03182">
        <ele>892</ele>
      </trkpt>
      <trkpt lat="41.48531" lon="-3.03138">
        <ele>891</ele>
      </trkpt>
      <trkpt lat="41.48536" lon="-3.031">
        <ele>891</ele>
      </trkpt>
      <trkpt lat="41.48544" lon="-3.03046">
        <ele>892</ele>
      </trkpt>
      <trkpt lat="41.48543" lon="-3.03009">
        <ele>891</ele>
      </trkpt>
      <trkpt lat="41.48529" lon="-3.02946">
        <ele>886</ele>
      </trkpt>
      <trkpt lat="41.48521" lon="-3.02887">
        <ele>883</ele>
      </trkpt>
      <trkpt lat="41.48508" lon="-3.02844">
        <ele>880</ele>
      </trkpt>
      <trkpt lat="41.48471" lon="-3.02803">
        <ele>878</ele>
      </trkpt>
      <trkpt lat="41.48379" lon="-3.02714">
        <ele>876</ele>
      </trkpt>
      <trkpt lat="41.48349" lon="-3.02658">
        <ele>877</ele>
      </trkpt>
      <trkpt lat="41.48315" lon="-3.02594">
        <ele>878</ele>
      </trkpt>
      <trkpt lat="41.48277" lon="-3.02558">
        <ele>877</ele>
      </trkpt>
      <trkpt lat="41.48255" lon="-3.02517">
        <ele>877</ele>
      </trkpt>
      <trkpt lat="41.48247" lon="-3.02455">
        <ele>876</ele>
      </trkpt>
      <trkpt lat="41.48262" lon="-3.02349">
        <ele>877</ele>
      </trkpt>
      <trkpt lat="41.48312" lon="-3.02073">
        <ele>877</ele>
      </trkpt>
      <trkpt lat="41.48317" lon="-3.01998">
        <ele>877</ele>
      </trkpt>
      <trkpt lat="41.48315" lon="-3.01908">
        <ele>876</ele>
      </trkpt>
      <trkpt lat="41.48321" lon="-3.01842">
        <ele>875</ele>
      </trkpt>
      <trkpt lat="41.48357" lon="-3.01708">
        <ele>878</ele>
      </trkpt>
      <trkpt lat="41.48376" lon="-3.01637">
        <ele>880</ele>
      </trkpt>
      <trkpt lat="41.48424" lon="-3.01565">
        <ele>880</ele>
      </trkpt>
      <trkpt lat="41.48504" lon="-3.0146">
        <ele>879</ele>
      </trkpt>
      <trkpt lat="41.48537" lon="-3.01373">
        <ele>879</ele>
      </trkpt>
      <trkpt lat="41.48572" lon="-3.0127">
        <ele>878</ele>
      </trkpt>
      <trkpt lat="41.4861" lon="-3.01066">
        <ele>876</ele>
      </trkpt>
      <trkpt lat="41.48613" lon="-3.00755">
        <ele>875</ele>
      </trkpt>
      <trkpt lat="41.48616" lon="-3.00616">
        <ele>875</ele>
      </trkpt>
      <trkpt lat="41.48632" lon="-3.006">
        <ele>873</ele>
      </trkpt>
      <trkpt lat="41.48662" lon="-3.00622">
        <ele>873</ele>
      </trkpt>
      <trkpt lat="41.48712" lon="-3.00639">
        <ele>877</ele>
      </trkpt>
      <trkpt lat="41.48781" lon="-3.00657">
        <ele>885</ele>
      </trkpt>
      <trkpt lat="41.48807" lon="-3.00657">
        <ele>888</ele>
      </trkpt>
      <trkpt lat="41.48814" lon="-3.00636">
        <ele>889</ele>
      </trkpt>
      <trkpt lat="41.48855" lon="-3.00183">
        <ele>896</ele>
      </trkpt>
      <trkpt lat="41.48875" lon="-2.99975">
        <ele>900</ele>
      </trkpt>
      <trkpt lat="41.48901" lon="-2.99796">
        <ele>904</ele>
      </trkpt>
      <trkpt lat="41.48948" lon="-2.99531">
        <ele>895</ele>
      </trkpt>
      <trkpt lat="41.48996" lon="-2.99453">
        <ele>896</ele>
      </trkpt>
      <trkpt lat="41.49052" lon="-2.99363">
        <ele>889</ele>
      </trkpt>
      <trkpt lat="41.49226" lon="-2.99283">
        <ele>892</ele>
      </trkpt>
      <trkpt lat="41.49444" lon="-2.99183">
        <ele>898</ele>
      </trkpt>
      <trkpt lat="41.49664" lon="-2.99096">
        <ele>910</ele>
      </trkpt>
      <trkpt lat="41.49723" lon="-2.99096">
        <ele>908</ele>
      </trkpt>
      <trkpt lat="41.49783" lon="-2.99124">
        <ele>907</ele>
      </trkpt>
      <trkpt lat="41.499" lon="-2.99201">
        <ele>909</ele>
      </trkpt>
      <trkpt lat="41.49963" lon="-2.99288">
        <ele>911</ele>
      </trkpt>
      <trkpt lat="41.50004" lon="-2.99408">
        <ele>915</ele>
      </trkpt>
      <trkpt lat="41.50061" lon="-2.99675">
        <ele>916</ele>
      </trkpt>
      <trkpt lat="41.50096" lon="-2.99852">
        <ele>918</ele>
      </trkpt>
      <trkpt lat="41.50122" lon="-2.99948">
        <ele>920</ele>
      </trkpt>
      <trkpt lat="41.50156" lon="-3.00027">
        <ele>922</ele>
      </trkpt>
      <trkpt lat="41.50228" lon="-3.00185">
        <ele>924</ele>
      </trkpt>
      <trkpt lat="41.50213" lon="-3.002">
        <ele>921</ele>
      </trkpt>
      <trkpt lat="41.50181" lon="-3.00181">
        <ele>921</ele>
      </trkpt>
      <trkpt lat="41.50144" lon="-3.00149">
        <ele>921</ele>
      </trkpt>
      <trkpt lat="41.50109" lon="-3.00136">
        <ele>920</ele>
      </trkpt>
      <trkpt lat="41.50048" lon="-3.00121">
        <ele>921</ele>
      </trkpt>
      <trkpt lat="41.49984" lon="-3.00114">
        <ele>924</ele>
      </trkpt>
      <trkpt lat="41.49933" lon="-3.00112">
        <ele>927</ele>
      </trkpt>
      <trkpt lat="41.49884" lon="-3.0009">
        <ele>930</ele>
      </trkpt>
      <trkpt lat="41.49824" lon="-3.00067">
        <ele>934</ele>
      </trkpt>
      <trkpt lat="41.49788" lon="-3.0006">
        <ele>936</ele>
      </trkpt>
      <trkpt lat="41.49766" lon="-3.00065">
        <ele>937</ele>
      </trkpt>
      <trkpt lat="41.49736" lon="-3.00076">
        <ele>938</ele>
      </trkpt>
      <trkpt lat="41.4971" lon="-3.00105">
        <ele>942</ele>
      </trkpt>
      <trkpt lat="41.49664" lon="-3.00189">
        <ele>947</ele>
      </trkpt>
      <trkpt lat="41.49629" lon="-3.00235">
        <ele>949</ele>
      </trkpt>
      <trkpt lat="41.49587" lon="-3.00261">
        <ele>948</ele>
      </trkpt>
      <trkpt lat="41.49562" lon="-3.00277">
        <ele>949</ele>
      </trkpt>
      <trkpt lat="41.49506" lon="-3.00275">
        <ele>947</ele>
      </trkpt>
      <trkpt lat="41.49448" lon="-3.00277">
        <ele>949</ele>
      </trkpt>
      <trkpt lat="41.4939" lon="-3.00297">
        <ele>955</ele>
      </trkpt>
      <trkpt lat="41.49356" lon="-3.00309">
        <ele>953</ele>
      </trkpt>
      <trkpt lat="41.49321" lon="-3.003">
        <ele>950</ele>
      </trkpt>
      <trkpt lat="41.49208" lon="-3.00357">
        <ele>954</ele>
      </trkpt>
      <trkpt lat="41.49182" lon="-3.00492">
        <ele>957</ele>
      </trkpt>
      <trkpt lat="41.49191" lon="-3.00496">
        <ele>958</ele>
      </trkpt>
      <trkpt lat="41.49212" lon="-3.00362">
        <ele>954</ele>
      </trkpt>
      <trkpt lat="41.49321" lon="-3.00309">
        <ele>950</ele>
      </trkpt>
      <trkpt lat="41.49356" lon="-3.00318">
        <ele>954</ele>
      </trkpt>
      <trkpt lat="41.49448" lon="-3.00286">
        <ele>950</ele>
      </trkpt>
      <trkpt lat="41.4952" lon="-3.00283">
        <ele>948</ele>
      </trkpt>
      <trkpt lat="41.49569" lon="-3.00285">
        <ele>950</ele>
      </trkpt>
      <trkpt lat="41.49631" lon="-3.00245">
        <ele>949</ele>
      </trkpt>
      <trkpt lat="41.4967" lon="-3.00194">
        <ele>946</ele>
      </trkpt>
      <trkpt lat="41.49699" lon="-3.00146">
        <ele>944</ele>
      </trkpt>
      <trkpt lat="41.49733" lon="-3.00093">
        <ele>939</ele>
      </trkpt>
      <trkpt lat="41.49768" lon="-3.00072">
        <ele>936</ele>
      </trkpt>
      <trkpt lat="41.49794" lon="-3.0007">
        <ele>935</ele>
      </trkpt>
      <trkpt lat="41.49826" lon="-3.00077">
        <ele>933</ele>
      </trkpt>
      <trkpt lat="41.49871" lon="-3.00095">
        <ele>931</ele>
      </trkpt>
      <trkpt lat="41.49925" lon="-3.0012">
        <ele>927</ele>
      </trkpt>
      <trkpt lat="41.49984" lon="-3.00124">
        <ele>924</ele>
      </trkpt>
      <trkpt lat="41.50099" lon="-3.00139">
        <ele>919</ele>
      </trkpt>
      <trkpt lat="41.50138" lon="-3.00151">
        <ele>921</ele>
      </trkpt>
      <trkpt lat="41.5017" lon="-3.00181">
        <ele>920</ele>
      </trkpt>
      <trkpt lat="41.50194" lon="-3.00204">
        <ele>920</ele>
      </trkpt>
      <trkpt lat="41.50228" lon="-3.00213">
        <ele>921</ele>
      </trkpt>
      <trkpt lat="41.50239" lon="-3.00194">
        <ele>923</ele>
      </trkpt>
      <trkpt lat="41.5018" lon="-3.00057">
        <ele>921</ele>
      </trkpt>
      <trkpt lat="41.50126" lon="-2.99931">
        <ele>920</ele>
      </trkpt>
      <trkpt lat="41.5007" lon="-2.99686">
        <ele>916</ele>
      </trkpt>
      <trkpt lat="41.50011" lon="-2.99406">
        <ele>914</ele>
      </trkpt>
      <trkpt lat="41.49972" lon="-2.99284">
        <ele>911</ele>
      </trkpt>
      <trkpt lat="41.49904" lon="-2.99191">
        <ele>908</ele>
      </trkpt>
      <trkpt lat="41.49786" lon="-2.99113">
        <ele>907</ele>
      </trkpt>
      <trkpt lat="41.4969" lon="-2.9908">
        <ele>908</ele>
      </trkpt>
      <trkpt lat="41.49755" lon="-2.98984">
        <ele>902</ele>
      </trkpt>
      <trkpt lat="41.49904" lon="-2.98738">
        <ele>898</ele>
      </trkpt>
      <trkpt lat="41.49959" lon="-2.98633">
        <ele>898</ele>
      </trkpt>
      <trkpt lat="41.50051" lon="-2.9835">
        <ele>900</ele>
      </trkpt>
      <trkpt lat="41.50101" lon="-2.98195">
        <ele>902</ele>
      </trkpt>
      <trkpt lat="41.50112" lon="-2.98163">
        <ele>902</ele>
      </trkpt>
      <trkpt lat="41.50159" lon="-2.98129">
        <ele>903</ele>
      </trkpt>
      <trkpt lat="41.50385" lon="-2.9797">
        <ele>908</ele>
      </trkpt>
      <trkpt lat="41.50469" lon="-2.97965">
        <ele>911</ele>
      </trkpt>
      <trkpt lat="41.50668" lon="-2.9797">
        <ele>923</ele>
      </trkpt>
      <trkpt lat="41.50723" lon="-2.9796">
        <ele>927</ele>
      </trkpt>
      <trkpt lat="41.50749" lon="-2.97925">
        <ele>928</ele>
      </trkpt>
      <trkpt lat="41.50742" lon="-2.97877">
        <ele>926</ele>
      </trkpt>
      <trkpt lat="41.50762" lon="-2.97761">
        <ele>930</ele>
      </trkpt>
      <trkpt lat="41.50782" lon="-2.97697">
        <ele>932</ele>
      </trkpt>
      <trkpt lat="41.50772" lon="-2.97652">
        <ele>932</ele>
      </trkpt>
      <trkpt lat="41.5074" lon="-2.97608">
        <ele>931</ele>
      </trkpt>
      <trkpt lat="41.50704" lon="-2.97536">
        <ele>931</ele>
      </trkpt>
      <trkpt lat="41.50691" lon="-2.97462">
        <ele>930</ele>
      </trkpt>
      <trkpt lat="41.50716" lon="-2.97324">
        <ele>931</ele>
      </trkpt>
      <trkpt lat="41.50717" lon="-2.97232">
        <ele>931</ele>
      </trkpt>
      <trkpt lat="41.50705" lon="-2.97106">
        <ele>928</ele>
      </trkpt>
      <trkpt lat="41.50686" lon="-2.97019">
        <ele>924</ele>
      </trkpt>
      <trkpt lat="41.5063" lon="-2.96889">
        <ele>918</ele>
      </trkpt>
      <trkpt lat="41.5058" lon="-2.96703">
        <ele>923</ele>
      </trkpt>
      <trkpt lat="41.50506" lon="-2.96455">
        <ele>933</ele>
      </trkpt>
      <trkpt lat="41.50461" lon="-2.96343">
        <ele>930</ele>
      </trkpt>
      <trkpt lat="41.50419" lon="-2.96207">
        <ele>925</ele>
      </trkpt>
      <trkpt lat="41.50399" lon="-2.96107">
        <ele>923</ele>
      </trkpt>
      <trkpt lat="41.50395" lon="-2.95991">
        <ele>920</ele>
      </trkpt>
      <trkpt lat="41.50395" lon="-2.95742">
        <ele>916</ele>
      </trkpt>
      <trkpt lat="41.50395" lon="-2.95554">
        <ele>916</ele>
      </trkpt>
      <trkpt lat="41.50405" lon="-2.9539">
        <ele>916</ele>
      </trkpt>
      <trkpt lat="41.50421" lon="-2.95309">
        <ele>915</ele>
      </trkpt>
      <trkpt lat="41.50477" lon="-2.95107">
        <ele>911</ele>
      </trkpt>
      <trkpt lat="41.50497" lon="-2.9507">
        <ele>910</ele>
      </trkpt>
      <trkpt lat="41.50535" lon="-2.95014">
        <ele>907</ele>
      </trkpt>
      <trkpt lat="41.50569" lon="-2.94936">
        <ele>908</ele>
      </trkpt>
      <trkpt lat="41.50623" lon="-2.9478">
        <ele>910</ele>
      </trkpt>
      <trkpt lat="41.50708" lon="-2.94474">
        <ele>906</ele>
      </trkpt>
      <trkpt lat="41.5074" lon="-2.94385">
        <ele>907</ele>
      </trkpt>
      <trkpt lat="41.50776" lon="-2.94302">
        <ele>911</ele>
      </trkpt>
      <trkpt lat="41.50788" lon="-2.94243">
        <ele>913</ele>
      </trkpt>
      <trkpt lat="41.50803" lon="-2.94123">
        <ele>915</ele>
      </trkpt>
      <trkpt lat="41.50802" lon="-2.94054">
        <ele>915</ele>
      </trkpt>
      <trkpt lat="41.50799" lon="-2.93987">
        <ele>915</ele>
      </trkpt>
      <trkpt lat="41.50809" lon="-2.93899">
        <ele>914</ele>
      </trkpt>
      <trkpt lat="41.50823" lon="-2.93813">
        <ele>914</ele>
      </trkpt>
      <trkpt lat="41.50881" lon="-2.93661">
        <ele>920</ele>
      </trkpt>
      <trkpt lat="41.50953" lon="-2.93498">
        <ele>929</ele>
      </trkpt>
      <trkpt lat="41.50986" lon="-2.93406">
        <ele>928</ele>
      </trkpt>
      <trkpt lat="41.51014" lon="-2.9328">
        <ele>920</ele>
      </trkpt>
      <trkpt lat="41.51052" lon="-2.93055">
        <ele>914</ele>
      </trkpt>
      <trkpt lat="41.51069" lon="-2.92864">
        <ele>912</ele>
      </trkpt>
      <trkpt lat="41.51054" lon="-2.92701">
        <ele>911</ele>
      </trkpt>
      <trkpt lat="41.51046" lon="-2.9259">
        <ele>910</ele>
      </trkpt>
      <trkpt lat="41.51065" lon="-2.92483">
        <ele>908</ele>
      </trkpt>
      <trkpt lat="41.51108" lon="-2.92389">
        <ele>910</ele>
      </trkpt>
      <trkpt lat="41.51161" lon="-2.92322">
        <ele>912</ele>
      </trkpt>
      <trkpt lat="41.51096" lon="-2.92152">
        <ele>912</ele>
      </trkpt>
      <trkpt lat="41.51058" lon="-2.91991">
        <ele>912</ele>
      </trkpt>
      <trkpt lat="41.51027" lon="-2.91846">
        <ele>911</ele>
      </trkpt>
      <trkpt lat="41.50976" lon="-2.91606">
        <ele>909</ele>
      </trkpt>
      <trkpt lat="41.50835" lon="-2.90938">
        <ele>891</ele>
      </trkpt>
      <trkpt lat="41.50741" lon="-2.90601">
        <ele>889</ele>
      </trkpt>
      <trkpt lat="41.5064" lon="-2.90344">
        <ele>884</ele>
      </trkpt>
      <trkpt lat="41.50515" lon="-2.90031">
        <ele>881</ele>
      </trkpt>
      <trkpt lat="41.50492" lon="-2.89961">
        <ele>884</ele>
      </trkpt>
      <trkpt lat="41.50474" lon="-2.89882">
        <ele>886</ele>
      </trkpt>
      <trkpt lat="41.50447" lon="-2.89747">
        <ele>885</ele>
      </trkpt>
      <trkpt lat="41.50442" lon="-2.89669">
        <ele>885</ele>
      </trkpt>
      <trkpt lat="41.50445" lon="-2.89584">
        <ele>885</ele>
      </trkpt>
      <trkpt lat="41.50464" lon="-2.89467">
        <ele>883</ele>
      </trkpt>
      <trkpt lat="41.50473" lon="-2.89395">
        <ele>882</ele>
      </trkpt>
      <trkpt lat="41.50468" lon="-2.89333">
        <ele>880</ele>
      </trkpt>
      <trkpt lat="41.5046" lon="-2.89261">
        <ele>878</ele>
      </trkpt>
      <trkpt lat="41.50423" lon="-2.89055">
        <ele>876</ele>
      </trkpt>
      <trkpt lat="41.50398" lon="-2.8897">
        <ele>875</ele>
      </trkpt>
      <trkpt lat="41.50358" lon="-2.88919">
        <ele>874</ele>
      </trkpt>
      <trkpt lat="41.50274" lon="-2.8883">
        <ele>873</ele>
      </trkpt>
      <trkpt lat="41.50171" lon="-2.88727">
        <ele>872</ele>
      </trkpt>
      <trkpt lat="41.50155" lon="-2.88727">
        <ele>871</ele>
      </trkpt>
      <trkpt lat="41.5013" lon="-2.88771">
        <ele>870</ele>
      </trkpt>
      <trkpt lat="41.50129" lon="-2.88804">
        <ele>870</ele>
      </trkpt>
      <trkpt lat="41.50138" lon="-2.8885">
        <ele>870</ele>
      </trkpt>
      <trkpt lat="41.50148" lon="-2.88891">
        <ele>870</ele>
      </trkpt>
      <trkpt lat="41.50148" lon="-2.88916">
        <ele>870</ele>
      </trkpt>
      <trkpt lat="41.50132" lon="-2.88948">
        <ele>870</ele>
      </trkpt>
      <trkpt lat="41.50124" lon="-2.89026">
        <ele>871</ele>
      </trkpt>
      <trkpt lat="41.50101" lon="-2.89166">
        <ele>872</ele>
      </trkpt>
      <trkpt lat="41.50088" lon="-2.89187">
        <ele>872</ele>
      </trkpt>
      <trkpt lat="41.50054" lon="-2.89201">
        <ele>872</ele>
      </trkpt>
      <trkpt lat="41.50017" lon="-2.89206">
        <ele>872</ele>
      </trkpt>
      <trkpt lat="41.49974" lon="-2.89203">
        <ele>871</ele>
      </trkpt>
      <trkpt lat="41.49915" lon="-2.89192">
        <ele>870</ele>
      </trkpt>
      <trkpt lat="41.49839" lon="-2.89188">
        <ele>870</ele>
      </trkpt>
      <trkpt lat="41.49811" lon="-2.89184">
        <ele>870</ele>
      </trkpt>
      <trkpt lat="41.49799" lon="-2.89166">
        <ele>870</ele>
      </trkpt>
      <trkpt lat="41.49799" lon="-2.89126">
        <ele>870</ele>
      </trkpt>
      <trkpt lat="41.49799" lon="-2.89074">
        <ele>870</ele>
      </trkpt>
      <trkpt lat="41.49797" lon="-2.89042">
        <ele>870</ele>
      </trkpt>
      <trkpt lat="41.49775" lon="-2.88993">
        <ele>870</ele>
      </trkpt>
      <trkpt lat="41.49756" lon="-2.88965">
        <ele>871</ele>
      </trkpt>
      <trkpt lat="41.49743" lon="-2.88953">
        <ele>871</ele>
      </trkpt>
      <trkpt lat="41.49699" lon="-2.88986">
        <ele>872</ele>
      </trkpt>
      <trkpt lat="41.4944" lon="-2.89198">
        <ele>876</ele>
      </trkpt>
      <trkpt lat="41.49275" lon="-2.89331">
        <ele>888</ele>
      </trkpt>
      <trkpt lat="41.49139" lon="-2.89443">
        <ele>891</ele>
      </trkpt>
      <trkpt lat="41.49101" lon="-2.89472">
        <ele>889</ele>
      </trkpt>
      <trkpt lat="41.4906" lon="-2.89476">
        <ele>891</ele>
      </trkpt>
      <trkpt lat="41.48887" lon="-2.89444">
        <ele>884</ele>
      </trkpt>
      <trkpt lat="41.48785" lon="-2.89424">
        <ele>889</ele>
      </trkpt>
      <trkpt lat="41.48735" lon="-2.89396">
        <ele>892</ele>
      </trkpt>
      <trkpt lat="41.48667" lon="-2.8935">
        <ele>896</ele>
      </trkpt>
      <trkpt lat="41.48616" lon="-2.89342">
        <ele>898</ele>
      </trkpt>
      <trkpt lat="41.48534" lon="-2.89342">
        <ele>899</ele>
      </trkpt>
      <trkpt lat="41.48506" lon="-2.89333">
        <ele>900</ele>
      </trkpt>
      <trkpt lat="41.48357" lon="-2.89209">
        <ele>917</ele>
      </trkpt>
      <trkpt lat="41.48293" lon="-2.89152">
        <ele>921</ele>
      </trkpt>
      <trkpt lat="41.48269" lon="-2.89143">
        <ele>919</ele>
      </trkpt>
      <trkpt lat="41.48225" lon="-2.89149">
        <ele>915</ele>
      </trkpt>
      <trkpt lat="41.48158" lon="-2.89178">
        <ele>911</ele>
      </trkpt>
      <trkpt lat="41.48123" lon="-2.89212">
        <ele>908</ele>
      </trkpt>
      <trkpt lat="41.48056" lon="-2.89272">
        <ele>903</ele>
      </trkpt>
      <trkpt lat="41.47987" lon="-2.89302">
        <ele>900</ele>
      </trkpt>
      <trkpt lat="41.47873" lon="-2.89353">
        <ele>898</ele>
      </trkpt>
      <trkpt lat="41.47767" lon="-2.89406">
        <ele>898</ele>
      </trkpt>
      <trkpt lat="41.4739" lon="-2.89682">
        <ele>893</ele>
      </trkpt>
      <trkpt lat="41.47291" lon="-2.89755">
        <ele>895</ele>
      </trkpt>
      <trkpt lat="41.47261" lon="-2.89778">
        <ele>896</ele>
      </trkpt>
      <trkpt lat="41.47221" lon="-2.89789">
        <ele>897</ele>
      </trkpt>
      <trkpt lat="41.47197" lon="-2.89788">
        <ele>898</ele>
      </trkpt>
      <trkpt lat="41.47163" lon="-2.89658">
        <ele>901</ele>
      </trkpt>
      <trkpt lat="41.47122" lon="-2.895">
        <ele>907</ele>
      </trkpt>
      <trkpt lat="41.47088" lon="-2.89349">
        <ele>913</ele>
      </trkpt>
      <trkpt lat="41.47063" lon="-2.89272">
        <ele>916</ele>
      </trkpt>
      <trkpt lat="41.47012" lon="-2.89125">
        <ele>929</ele>
      </trkpt>
      <trkpt lat="41.4699" lon="-2.89039">
        <ele>930</ele>
      </trkpt>
      <trkpt lat="41.46976" lon="-2.88883">
        <ele>927</ele>
      </trkpt>
      <trkpt lat="41.46969" lon="-2.88701">
        <ele>928</ele>
      </trkpt>
      <trkpt lat="41.46971" lon="-2.8863">
        <ele>928</ele>
      </trkpt>
      <trkpt lat="41.4699" lon="-2.88551">
        <ele>932</ele>
      </trkpt>
      <trkpt lat="41.47001" lon="-2.88462">
        <ele>931</ele>
      </trkpt>
      <trkpt lat="41.46998" lon="-2.88343">
        <ele>931</ele>
      </trkpt>
      <trkpt lat="41.46989" lon="-2.882">
        <ele>935</ele>
      </trkpt>
      <trkpt lat="41.46989" lon="-2.88083">
        <ele>937</ele>
      </trkpt>
      <trkpt lat="41.46997" lon="-2.87902">
        <ele>946</ele>
      </trkpt>
      <trkpt lat="41.4699" lon="-2.87826">
        <ele>950</ele>
      </trkpt>
      <trkpt lat="41.46961" lon="-2.87629">
        <ele>954</ele>
      </trkpt>
      <trkpt lat="41.46941" lon="-2.87523">
        <ele>959</ele>
      </trkpt>
      <trkpt lat="41.46916" lon="-2.87413">
        <ele>967</ele>
      </trkpt>
      <trkpt lat="41.46873" lon="-2.87215">
        <ele>963</ele>
      </trkpt>
      <trkpt lat="41.46879" lon="-2.87177">
        <ele>962</ele>
      </trkpt>
      <trkpt lat="41.46891" lon="-2.87114">
        <ele>961</ele>
      </trkpt>
      <trkpt lat="41.46913" lon="-2.87022">
        <ele>959</ele>
      </trkpt>
      <trkpt lat="41.46923" lon="-2.86921">
        <ele>956</ele>
      </trkpt>
      <trkpt lat="41.46909" lon="-2.8676">
        <ele>947</ele>
      </trkpt>
      <trkpt lat="41.46875" lon="-2.86627">
        <ele>947</ele>
      </trkpt>
      <trkpt lat="41.46875" lon="-2.86572">
        <ele>946</ele>
      </trkpt>
      <trkpt lat="41.46881" lon="-2.86507">
        <ele>942</ele>
      </trkpt>
      <trkpt lat="41.46871" lon="-2.86463">
        <ele>941</ele>
      </trkpt>
      <trkpt lat="41.46816" lon="-2.86355">
        <ele>937</ele>
      </trkpt>
      <trkpt lat="41.46751" lon="-2.86244">
        <ele>931</ele>
      </trkpt>
      <trkpt lat="41.46714" lon="-2.86272">
        <ele>931</ele>
      </trkpt>
      <trkpt lat="41.46675" lon="-2.86285">
        <ele>931</ele>
      </trkpt>
      <trkpt lat="41.46632" lon="-2.86291">
        <ele>930</ele>
      </trkpt>
      <trkpt lat="41.46609" lon="-2.86295">
        <ele>931</ele>
      </trkpt>
      <trkpt lat="41.46609" lon="-2.86297">
        <ele>931</ele>
      </trkpt>
      <trkpt lat="41.46609" lon="-2.86297">
        <ele>931</ele>
      </trkpt>
      <trkpt lat="41.46567" lon="-2.863">
        <ele>932</ele>
      </trkpt>
      <trkpt lat="41.465" lon="-2.86286">
        <ele>931</ele>
      </trkpt>
      <trkpt lat="41.46463" lon="-2.86268">
        <ele>929</ele>
      </trkpt>
      <trkpt lat="41.46412" lon="-2.86238">
        <ele>930</ele>
      </trkpt>
      <trkpt lat="41.46397" lon="-2.86281">
        <ele>931</ele>
      </trkpt>
      <trkpt lat="41.46371" lon="-2.86351">
        <ele>931</ele>
      </trkpt>
      <trkpt lat="41.46306" lon="-2.86465">
        <ele>937</ele>
      </trkpt>
      <trkpt lat="41.46265" lon="-2.86518">
        <ele>941</ele>
      </trkpt>
      <trkpt lat="41.46215" lon="-2.86572">
        <ele>944</ele>
      </trkpt>
      <trkpt lat="41.46131" lon="-2.86685">
        <ele>950</ele>
      </trkpt>
      <trkpt lat="41.46071" lon="-2.86786">
        <ele>952</ele>
      </trkpt>
      <trkpt lat="41.45995" lon="-2.86913">
        <ele>962</ele>
      </trkpt>
      <trkpt lat="41.45903" lon="-2.87036">
        <ele>970</ele>
      </trkpt>
      <trkpt lat="41.45769" lon="-2.8719">
        <ele>952</ele>
      </trkpt>
      <trkpt lat="41.45641" lon="-2.87337">
        <ele>942</ele>
      </trkpt>
      <trkpt lat="41.45546" lon="-2.87447">
        <ele>936</ele>
      </trkpt>
      <trkpt lat="41.45399" lon="-2.87617">
        <ele>930</ele>
      </trkpt>
      <trkpt lat="41.45315" lon="-2.87714">
        <ele>926</ele>
      </trkpt>
      <trkpt lat="41.45269" lon="-2.87744">
        <ele>925</ele>
      </trkpt>
      <trkpt lat="41.45219" lon="-2.87757">
        <ele>926</ele>
      </trkpt>
      <trkpt lat="41.45176" lon="-2.87753">
        <ele>928</ele>
      </trkpt>
      <trkpt lat="41.45054" lon="-2.87718">
        <ele>935</ele>
      </trkpt>
      <trkpt lat="41.45011" lon="-2.87742">
        <ele>938</ele>
      </trkpt>
      <trkpt lat="41.4495" lon="-2.87795">
        <ele>944</ele>
      </trkpt>
      <trkpt lat="41.44911" lon="-2.87813">
        <ele>947</ele>
      </trkpt>
      <trkpt lat="41.44844" lon="-2.87827">
        <ele>949</ele>
      </trkpt>
      <trkpt lat="41.44722" lon="-2.87838">
        <ele>955</ele>
      </trkpt>
      <trkpt lat="41.4461" lon="-2.87849">
        <ele>971</ele>
      </trkpt>
      <trkpt lat="41.44532" lon="-2.87893">
        <ele>977</ele>
      </trkpt>
      <trkpt lat="41.44411" lon="-2.87959">
        <ele>971</ele>
      </trkpt>
      <trkpt lat="41.44279" lon="-2.88029">
        <ele>980</ele>
      </trkpt>
      <trkpt lat="41.44245" lon="-2.88038">
        <ele>983</ele>
      </trkpt>
      <trkpt lat="41.44206" lon="-2.88022">
        <ele>986</ele>
      </trkpt>
      <trkpt lat="41.44164" lon="-2.87996">
        <ele>990</ele>
      </trkpt>
      <trkpt lat="41.44127" lon="-2.87984">
        <ele>994</ele>
      </trkpt>
      <trkpt lat="41.44093" lon="-2.87987">
        <ele>998</ele>
      </trkpt>
      <trkpt lat="41.44023" lon="-2.88016">
        <ele>1006</ele>
      </trkpt>
      <trkpt lat="41.44" lon="-2.88031">
        <ele>1009</ele>
      </trkpt>
      <trkpt lat="41.43943" lon="-2.88082">
        <ele>1017</ele>
      </trkpt>
      <trkpt lat="41.4391" lon="-2.88102">
        <ele>1020</ele>
      </trkpt>
      <trkpt lat="41.43878" lon="-2.88116">
        <ele>1021</ele>
      </trkpt>
      <trkpt lat="41.43839" lon="-2.88119">
        <ele>1023</ele>
      </trkpt>
      <trkpt lat="41.43779" lon="-2.88106">
        <ele>1024</ele>
      </trkpt>
      <trkpt lat="41.4371" lon="-2.88097">
        <ele>1025</ele>
      </trkpt>
      <trkpt lat="41.43561" lon="-2.88078">
        <ele>1034</ele>
      </trkpt>
      <trkpt lat="41.43485" lon="-2.88076">
        <ele>1039</ele>
      </trkpt>
      <trkpt lat="41.43236" lon="-2.88109">
        <ele>1049</ele>
      </trkpt>
      <trkpt lat="41.43172" lon="-2.88127">
        <ele>1051</ele>
      </trkpt>
      <trkpt lat="41.43048" lon="-2.88177">
        <ele>1049</ele>
      </trkpt>
      <trkpt lat="41.42913" lon="-2.88226">
        <ele>1047</ele>
      </trkpt>
      <trkpt lat="41.4286" lon="-2.8825">
        <ele>1045</ele>
      </trkpt>
      <trkpt lat="41.42826" lon="-2.88289">
        <ele>1047</ele>
      </trkpt>
      <trkpt lat="41.4277" lon="-2.88369">
        <ele>1039</ele>
      </trkpt>
      <trkpt lat="41.42661" lon="-2.88495">
        <ele>1024</ele>
      </trkpt>
      <trkpt lat="41.42606" lon="-2.88547">
        <ele>1022</ele>
      </trkpt>
      <trkpt lat="41.42562" lon="-2.88571">
        <ele>1023</ele>
      </trkpt>
      <trkpt lat="41.4244" lon="-2.88612">
        <ele>1018</ele>
      </trkpt>
      <trkpt lat="41.42339" lon="-2.88657">
        <ele>1011</ele>
      </trkpt>
      <trkpt lat="41.42298" lon="-2.88685">
        <ele>1011</ele>
      </trkpt>
      <trkpt lat="41.42271" lon="-2.88726">
        <ele>1012</ele>
      </trkpt>
      <trkpt lat="41.42239" lon="-2.88762">
        <ele>1014</ele>
      </trkpt>
      <trkpt lat="41.42192" lon="-2.88795">
        <ele>1015</ele>
      </trkpt>
      <trkpt lat="41.42105" lon="-2.88838">
        <ele>1019</ele>
      </trkpt>
      <trkpt lat="41.42075" lon="-2.88842">
        <ele>1020</ele>
      </trkpt>
      <trkpt lat="41.4205" lon="-2.88864">
        <ele>1020</ele>
      </trkpt>
      <trkpt lat="41.42022" lon="-2.88908">
        <ele>1019</ele>
      </trkpt>
      <trkpt lat="41.41995" lon="-2.88956">
        <ele>1018</ele>
      </trkpt>
      <trkpt lat="41.4197" lon="-2.88969">
        <ele>1018</ele>
      </trkpt>
      <trkpt lat="41.4195" lon="-2.88977">
        <ele>1018</ele>
      </trkpt>
      <trkpt lat="41.41954" lon="-2.89065">
        <ele>1021</ele>
      </trkpt>
      <trkpt lat="41.4196" lon="-2.89196">
        <ele>1023</ele>
      </trkpt>
      <trkpt lat="41.41973" lon="-2.89241">
        <ele>1024</ele>
      </trkpt>
      <trkpt lat="41.41995" lon="-2.89296">
        <ele>1025</ele>
      </trkpt>
      <trkpt lat="41.42028" lon="-2.89361">
        <ele>1029</ele>
      </trkpt>
      <trkpt lat="41.42125" lon="-2.89568">
        <ele>1037</ele>
      </trkpt>
      <trkpt lat="41.42223" lon="-2.89778">
        <ele>1050</ele>
      </trkpt>
      <trkpt lat="41.42243" lon="-2.89828">
        <ele>1053</ele>
      </trkpt>
      <trkpt lat="41.42256" lon="-2.89884">
        <ele>1055</ele>
      </trkpt>
      <trkpt lat="41.42293" lon="-2.90113">
        <ele>1059</ele>
      </trkpt>
      <trkpt lat="41.42323" lon="-2.90321">
        <ele>1076</ele>
      </trkpt>
      <trkpt lat="41.42325" lon="-2.90358">
        <ele>1079</ele>
      </trkpt>
      <trkpt lat="41.42319" lon="-2.90386">
        <ele>1079</ele>
      </trkpt>
      <trkpt lat="41.42297" lon="-2.90428">
        <ele>1079</ele>
      </trkpt>
      <trkpt lat="41.42272" lon="-2.9047">
        <ele>1071</ele>
      </trkpt>
      <trkpt lat="41.4226" lon="-2.90495">
        <ele>1068</ele>
      </trkpt>
      <trkpt lat="41.42255" lon="-2.90517">
        <ele>1067</ele>
      </trkpt>
      <trkpt lat="41.42254" lon="-2.90541">
        <ele>1066</ele>
      </trkpt>
      <trkpt lat="41.42259" lon="-2.90581">
        <ele>1064</ele>
      </trkpt>
      <trkpt lat="41.42266" lon="-2.90646">
        <ele>1056</ele>
      </trkpt>
      <trkpt lat="41.42258" lon="-2.90709">
        <ele>1056</ele>
      </trkpt>
      <trkpt lat="41.42227" lon="-2.90803">
        <ele>1063</ele>
      </trkpt>
      <trkpt lat="41.42214" lon="-2.90839">
        <ele>1067</ele>
      </trkpt>
      <trkpt lat="41.4219" lon="-2.90868">
        <ele>1070</ele>
      </trkpt>
      <trkpt lat="41.42157" lon="-2.90885">
        <ele>1069</ele>
      </trkpt>
      <trkpt lat="41.42115" lon="-2.90896">
        <ele>1068</ele>
      </trkpt>
      <trkpt lat="41.42083" lon="-2.90899">
        <ele>1067</ele>
      </trkpt>
      <trkpt lat="41.42046" lon="-2.90892">
        <ele>1064</ele>
      </trkpt>
      <trkpt lat="41.42029" lon="-2.90893">
        <ele>1064</ele>
      </trkpt>
      <trkpt lat="41.42017" lon="-2.90896">
        <ele>1064</ele>
      </trkpt>
      <trkpt lat="41.42" lon="-2.9092">
        <ele>1066</ele>
      </trkpt>
      <trkpt lat="41.41958" lon="-2.91002">
        <ele>1078</ele>
      </trkpt>
      <trkpt lat="41.41904" lon="-2.91096">
        <ele>1086</ele>
      </trkpt>
      <trkpt lat="41.41884" lon="-2.91153">
        <ele>1086</ele>
      </trkpt>
      <trkpt lat="41.41877" lon="-2.91192">
        <ele>1086</ele>
      </trkpt>
      <trkpt lat="41.4188" lon="-2.91238">
        <ele>1086</ele>
      </trkpt>
      <trkpt lat="41.4189" lon="-2.91297">
        <ele>1084</ele>
      </trkpt>
      <trkpt lat="41.41899" lon="-2.91357">
        <ele>1081</ele>
      </trkpt>
      <trkpt lat="41.41902" lon="-2.91401">
        <ele>1080</ele>
      </trkpt>
      <trkpt lat="41.41903" lon="-2.91516">
        <ele>1077</ele>
      </trkpt>
      <trkpt lat="41.41908" lon="-2.91563">
        <ele>1076</ele>
      </trkpt>
      <trkpt lat="41.41921" lon="-2.91641">
        <ele>1078</ele>
      </trkpt>
      <trkpt lat="41.41933" lon="-2.91728">
        <ele>1080</ele>
      </trkpt>
      <trkpt lat="41.41957" lon="-2.91874">
        <ele>1093</ele>
      </trkpt>
      <trkpt lat="41.41986" lon="-2.92046">
        <ele>1089</ele>
      </trkpt>
      <trkpt lat="41.41991" lon="-2.92084">
        <ele>1088</ele>
      </trkpt>
      <trkpt lat="41.41988" lon="-2.92107">
        <ele>1088</ele>
      </trkpt>
      <trkpt lat="41.41966" lon="-2.92149">
        <ele>1087</ele>
      </trkpt>
      <trkpt lat="41.41924" lon="-2.92209">
        <ele>1086</ele>
      </trkpt>
      <trkpt lat="41.41912" lon="-2.92243">
        <ele>1088</ele>
      </trkpt>
      <trkpt lat="41.41907" lon="-2.92303">
        <ele>1092</ele>
      </trkpt>
      <trkpt lat="41.41891" lon="-2.92688">
        <ele>1105</ele>
      </trkpt>
      <trkpt lat="41.41885" lon="-2.9286">
        <ele>1105</ele>
      </trkpt>
      <trkpt lat="41.41851" lon="-2.92982">
        <ele>1105</ele>
      </trkpt>
      <trkpt lat="41.41828" lon="-2.93048">
        <ele>1103</ele>
      </trkpt>
      <trkpt lat="41.41812" lon="-2.93072">
        <ele>1103</ele>
      </trkpt>
      <trkpt lat="41.41783" lon="-2.93102">
        <ele>1101</ele>
      </trkpt>
      <trkpt lat="41.41767" lon="-2.93132">
        <ele>1101</ele>
      </trkpt>
      <trkpt lat="41.41729" lon="-2.93224">
        <ele>1100</ele>
      </trkpt>
      <trkpt lat="41.41714" lon="-2.93271">
        <ele>1100</ele>
      </trkpt>
      <trkpt lat="41.41709" lon="-2.93315">
        <ele>1100</ele>
      </trkpt>
      <trkpt lat="41.41702" lon="-2.93358">
        <ele>1102</ele>
      </trkpt>
      <trkpt lat="41.41677" lon="-2.93444">
        <ele>1106</ele>
      </trkpt>
      <trkpt lat="41.41663" lon="-2.93524">
        <ele>1109</ele>
      </trkpt>
      <trkpt lat="41.41651" lon="-2.93546">
        <ele>1109</ele>
      </trkpt>
      <trkpt lat="41.41592" lon="-2.93623">
        <ele>1104</ele>
      </trkpt>
      <trkpt lat="41.41447" lon="-2.93787">
        <ele>1092</ele>
      </trkpt>
      <trkpt lat="41.41318" lon="-2.9394">
        <ele>1088</ele>
      </trkpt>
      <trkpt lat="41.4107" lon="-2.94226">
        <ele>1090</ele>
      </trkpt>
      <trkpt lat="41.40998" lon="-2.94319">
        <ele>1093</ele>
      </trkpt>
      <trkpt lat="41.40955" lon="-2.94393">
        <ele>1093</ele>
      </trkpt>
      <trkpt lat="41.40889" lon="-2.94512">
        <ele>1091</ele>
      </trkpt>
      <trkpt lat="41.4085" lon="-2.94552">
        <ele>1093</ele>
      </trkpt>
      <trkpt lat="41.40818" lon="-2.94564">
        <ele>1093</ele>
      </trkpt>
      <trkpt lat="41.40777" lon="-2.94566">
        <ele>1094</ele>
      </trkpt>
      <trkpt lat="41.40736" lon="-2.94557">
        <ele>1094</ele>
      </trkpt>
      <trkpt lat="41.40708" lon="-2.94534">
        <ele>1094</ele>
      </trkpt>
      <trkpt lat="41.40662" lon="-2.9448">
        <ele>1094</ele>
      </trkpt>
      <trkpt lat="41.40641" lon="-2.94466">
        <ele>1094</ele>
      </trkpt>
      <trkpt lat="41.40623" lon="-2.94471">
        <ele>1096</ele>
      </trkpt>
      <trkpt lat="41.40607" lon="-2.94504">
        <ele>1099</ele>
      </trkpt>
      <trkpt lat="41.40595" lon="-2.94537">
        <ele>1103</ele>
      </trkpt>
      <trkpt lat="41.40566" lon="-2.94681">
        <ele>1111</ele>
      </trkpt>
      <trkpt lat="41.40529" lon="-2.94845">
        <ele>1109</ele>
      </trkpt>
      <trkpt lat="41.40516" lon="-2.94903">
        <ele>1109</ele>
      </trkpt>
      <trkpt lat="41.40505" lon="-2.94922">
        <ele>1107</ele>
      </trkpt>
      <trkpt lat="41.40481" lon="-2.94933">
        <ele>1105</ele>
      </trkpt>
      <trkpt lat="41.40388" lon="-2.9495">
        <ele>1097</ele>
      </trkpt>
      <trkpt lat="41.40353" lon="-2.94957">
        <ele>1097</ele>
      </trkpt>
      <trkpt lat="41.40337" lon="-2.94969">
        <ele>1097</ele>
      </trkpt>
      <trkpt lat="41.40311" lon="-2.95029">
        <ele>1100</ele>
      </trkpt>
      <trkpt lat="41.40271" lon="-2.95115">
        <ele>1102</ele>
      </trkpt>
      <trkpt lat="41.40238" lon="-2.95151">
        <ele>1102</ele>
      </trkpt>
      <trkpt lat="41.40147" lon="-2.9518">
        <ele>1105</ele>
      </trkpt>
      <trkpt lat="41.40079" lon="-2.95167">
        <ele>1109</ele>
      </trkpt>
      <trkpt lat="41.40004" lon="-2.95166">
        <ele>1113</ele>
      </trkpt>
      <trkpt lat="41.39948" lon="-2.95173">
        <ele>1117</ele>
      </trkpt>
      <trkpt lat="41.3989" lon="-2.95159">
        <ele>1120</ele>
      </trkpt>
      <trkpt lat="41.39855" lon="-2.95143">
        <ele>1122</ele>
      </trkpt>
      <trkpt lat="41.39831" lon="-2.95136">
        <ele>1124</ele>
      </trkpt>
      <trkpt lat="41.398" lon="-2.9514">
        <ele>1124</ele>
      </trkpt>
      <trkpt lat="41.39794" lon="-2.95175">
        <ele>1123</ele>
      </trkpt>
      <trkpt lat="41.39776" lon="-2.95205">
        <ele>1122</ele>
      </trkpt>
      <trkpt lat="41.39727" lon="-2.95259">
        <ele>1121</ele>
      </trkpt>
      <trkpt lat="41.39714" lon="-2.95278">
        <ele>1120</ele>
      </trkpt>
      <trkpt lat="41.39709" lon="-2.95386">
        <ele>1118</ele>
      </trkpt>
      <trkpt lat="41.39701" lon="-2.95467">
        <ele>1119</ele>
      </trkpt>
      <trkpt lat="41.39686" lon="-2.95506">
        <ele>1120</ele>
      </trkpt>
      <trkpt lat="41.39694" lon="-2.95548">
        <ele>1122</ele>
      </trkpt>
      <trkpt lat="41.39726" lon="-2.95632">
        <ele>1128</ele>
      </trkpt>
      <trkpt lat="41.39748" lon="-2.95648">
        <ele>1129</ele>
      </trkpt>
      <trkpt lat="41.39803" lon="-2.9566">
        <ele>1127</ele>
      </trkpt>
      <trkpt lat="41.39998" lon="-2.957">
        <ele>1115</ele>
      </trkpt>
      <trkpt lat="41.40024" lon="-2.95711">
        <ele>1114</ele>
      </trkpt>
      <trkpt lat="41.40045" lon="-2.95734">
        <ele>1114</ele>
      </trkpt>
      <trkpt lat="41.40144" lon="-2.95895">
        <ele>1117</ele>
      </trkpt>
      <trkpt lat="41.4022" lon="-2.96015">
        <ele>1115</ele>
      </trkpt>
      <trkpt lat="41.40224" lon="-2.96053">
        <ele>1116</ele>
      </trkpt>
      <trkpt lat="41.40216" lon="-2.96116">
        <ele>1119</ele>
      </trkpt>
      <trkpt lat="41.40201" lon="-2.96212">
        <ele>1124</ele>
      </trkpt>
      <trkpt lat="41.40161" lon="-2.96517">
        <ele>1132</ele>
      </trkpt>
      <trkpt lat="41.40071" lon="-2.96856">
        <ele>1137</ele>
      </trkpt>
      <trkpt lat="41.39967" lon="-2.97204">
        <ele>1144</ele>
      </trkpt>
      <trkpt lat="41.39951" lon="-2.97345">
        <ele>1153</ele>
      </trkpt>
      <trkpt lat="41.39953" lon="-2.97628">
        <ele>1159</ele>
      </trkpt>
      <trkpt lat="41.39991" lon="-2.97728">
        <ele>1154</ele>
      </trkpt>
      <trkpt lat="41.40046" lon="-2.97853">
        <ele>1150</ele>
      </trkpt>
      <trkpt lat="41.40321" lon="-2.98308">
        <ele>1143</ele>
      </trkpt>
      <trkpt lat="41.40355" lon="-2.98368">
        <ele>1142</ele>
      </trkpt>
      <trkpt lat="41.40375" lon="-2.98419">
        <ele>1141</ele>
      </trkpt>
      <trkpt lat="41.40397" lon="-2.98621">
        <ele>1142</ele>
      </trkpt>
      <trkpt lat="41.40405" lon="-2.98735">
        <ele>1147</ele>
      </trkpt>
      <trkpt lat="41.404" lon="-2.98802">
        <ele>1150</ele>
      </trkpt>
      <trkpt lat="41.40348" lon="-2.99059">
        <ele>1140</ele>
      </trkpt>
      <trkpt lat="41.40285" lon="-2.99358">
        <ele>1153</ele>
      </trkpt>
      <trkpt lat="41.40228" lon="-2.99605">
        <ele>1144</ele>
      </trkpt>
      <trkpt lat="41.40147" lon="-2.99886">
        <ele>1136</ele>
      </trkpt>
      <trkpt lat="41.40098" lon="-2.99909">
        <ele>1136</ele>
      </trkpt>
      <trkpt lat="41.4004" lon="-2.99914">
        <ele>1140</ele>
      </trkpt>
      <trkpt lat="41.39981" lon="-2.99885">
        <ele>1142</ele>
      </trkpt>
      <trkpt lat="41.39844" lon="-2.99794">
        <ele>1145</ele>
      </trkpt>
      <trkpt lat="41.39593" lon="-2.99623">
        <ele>1159</ele>
      </trkpt>
      <trkpt lat="41.39433" lon="-2.99466">
        <ele>1164</ele>
      </trkpt>
      <trkpt lat="41.3933" lon="-2.99358">
        <ele>1162</ele>
      </trkpt>
      <trkpt lat="41.39284" lon="-2.99327">
        <ele>1163</ele>
      </trkpt>
      <trkpt lat="41.39228" lon="-2.99314">
        <ele>1163</ele>
      </trkpt>
      <trkpt lat="41.39124" lon="-2.99307">
        <ele>1167</ele>
      </trkpt>
      <trkpt lat="41.39031" lon="-2.99297">
        <ele>1171</ele>
      </trkpt>
      <trkpt lat="41.38966" lon="-2.99266">
        <ele>1169</ele>
      </trkpt>
      <trkpt lat="41.38634" lon="-2.98946">
        <ele>1187</ele>
      </trkpt>
      <trkpt lat="41.38401" lon="-2.98708">
        <ele>1188</ele>
      </trkpt>
      <trkpt lat="41.38275" lon="-2.98638">
        <ele>1194</ele>
      </trkpt>
      <trkpt lat="41.37945" lon="-2.98479">
        <ele>1197</ele>
      </trkpt>
      <trkpt lat="41.37641" lon="-2.98339">
        <ele>1212</ele>
      </trkpt>
      <trkpt lat="41.37469" lon="-2.98145">
        <ele>1215</ele>
      </trkpt>
      <trkpt lat="41.37408" lon="-2.98084">
        <ele>1218</ele>
      </trkpt>
      <trkpt lat="41.37339" lon="-2.98033">
        <ele>1231</ele>
      </trkpt>
      <trkpt lat="41.37157" lon="-2.97933">
        <ele>1218</ele>
      </trkpt>
      <trkpt lat="41.36942" lon="-2.97812">
        <ele>1205</ele>
      </trkpt>
      <trkpt lat="41.36621" lon="-2.97633">
        <ele>1185</ele>
      </trkpt>
      <trkpt lat="41.36423" lon="-2.97518">
        <ele>1191</ele>
      </trkpt>
      <trkpt lat="41.36368" lon="-2.97485">
        <ele>1194</ele>
      </trkpt>
      <trkpt lat="41.36341" lon="-2.97444">
        <ele>1198</ele>
      </trkpt>
      <trkpt lat="41.36295" lon="-2.97312">
        <ele>1206</ele>
      </trkpt>
      <trkpt lat="41.36213" lon="-2.9705">
        <ele>1209</ele>
      </trkpt>
      <trkpt lat="41.36192" lon="-2.97006">
        <ele>1209</ele>
      </trkpt>
      <trkpt lat="41.36111" lon="-2.96963">
        <ele>1213</ele>
      </trkpt>
      <trkpt lat="41.36065" lon="-2.96973">
        <ele>1216</ele>
      </trkpt>
      <trkpt lat="41.36024" lon="-2.96995">
        <ele>1221</ele>
      </trkpt>
      <trkpt lat="41.35991" lon="-2.97046">
        <ele>1229</ele>
      </trkpt>
      <trkpt lat="41.35922" lon="-2.97129">
        <ele>1234</ele>
      </trkpt>
      <trkpt lat="41.35873" lon="-2.97183">
        <ele>1235</ele>
      </trkpt>
      <trkpt lat="41.35814" lon="-2.972">
        <ele>1242</ele>
      </trkpt>
      <trkpt lat="41.35733" lon="-2.9719">
        <ele>1249</ele>
      </trkpt>
      <trkpt lat="41.35659" lon="-2.97193">
        <ele>1253</ele>
      </trkpt>
      <trkpt lat="41.3557" lon="-2.97248">
        <ele>1259</ele>
      </trkpt>
      <trkpt lat="41.35447" lon="-2.97378">
        <ele>1263</ele>
      </trkpt>
      <trkpt lat="41.35357" lon="-2.97477">
        <ele>1282</ele>
      </trkpt>
      <trkpt lat="41.35307" lon="-2.97506">
        <ele>1287</ele>
      </trkpt>
      <trkpt lat="41.35237" lon="-2.97519">
        <ele>1286</ele>
      </trkpt>
      <trkpt lat="41.35049" lon="-2.97544">
        <ele>1279</ele>
      </trkpt>
      <trkpt lat="41.34844" lon="-2.97568">
        <ele>1286</ele>
      </trkpt>
      <trkpt lat="41.34727" lon="-2.97596">
        <ele>1290</ele>
      </trkpt>
      <trkpt lat="41.34571" lon="-2.97661">
        <ele>1291</ele>
      </trkpt>
      <trkpt lat="41.342" lon="-2.97817">
        <ele>1285</ele>
      </trkpt>
      <trkpt lat="41.33979" lon="-2.97974">
        <ele>1277</ele>
      </trkpt>
      <trkpt lat="41.33517" lon="-2.98346">
        <ele>1269</ele>
      </trkpt>
      <trkpt lat="41.33288" lon="-2.98509">
        <ele>1259</ele>
      </trkpt>
      <trkpt lat="41.33265" lon="-2.98547">
        <ele>1253</ele>
      </trkpt>
      <trkpt lat="41.3325" lon="-2.98596">
        <ele>1249</ele>
      </trkpt>
      <trkpt lat="41.33229" lon="-2.98621">
        <ele>1248</ele>
      </trkpt>
      <trkpt lat="41.33175" lon="-2.98646">
        <ele>1245</ele>
      </trkpt>
      <trkpt lat="41.33152" lon="-2.98674">
        <ele>1241</ele>
      </trkpt>
      <trkpt lat="41.33135" lon="-2.98704">
        <ele>1239</ele>
      </trkpt>
      <trkpt lat="41.33108" lon="-2.98729">
        <ele>1239</ele>
      </trkpt>
      <trkpt lat="41.33087" lon="-2.98737">
        <ele>1238</ele>
      </trkpt>
      <trkpt lat="41.33072" lon="-2.98737">
        <ele>1237</ele>
      </trkpt>
      <trkpt lat="41.33014" lon="-2.98689">
        <ele>1237</ele>
      </trkpt>
      <trkpt lat="41.32968" lon="-2.98647">
        <ele>1231</ele>
      </trkpt>
      <trkpt lat="41.32909" lon="-2.98602">
        <ele>1226</ele>
      </trkpt>
      <trkpt lat="41.3286" lon="-2.98576">
        <ele>1222</ele>
      </trkpt>
      <trkpt lat="41.32736" lon="-2.98554">
        <ele>1212</ele>
      </trkpt>
      <trkpt lat="41.32582" lon="-2.98535">
        <ele>1210</ele>
      </trkpt>
      <trkpt lat="41.32276" lon="-2.98494">
        <ele>1210</ele>
      </trkpt>
      <trkpt lat="41.32096" lon="-2.98469">
        <ele>1210</ele>
      </trkpt>
      <trkpt lat="41.31426" lon="-2.98389">
        <ele>1217</ele>
      </trkpt>
      <trkpt lat="41.31405" lon="-2.9837">
        <ele>1217</ele>
      </trkpt>
      <trkpt lat="41.3134" lon="-2.98282">
        <ele>1218</ele>
      </trkpt>
      <trkpt lat="41.31296" lon="-2.98213">
        <ele>1222</ele>
      </trkpt>
      <trkpt lat="41.3129" lon="-2.98166">
        <ele>1225</ele>
      </trkpt>
      <trkpt lat="41.31281" lon="-2.98098">
        <ele>1231</ele>
      </trkpt>
      <trkpt lat="41.31253" lon="-2.98048">
        <ele>1234</ele>
      </trkpt>
      <trkpt lat="41.31216" lon="-2.98011">
        <ele>1238</ele>
      </trkpt>
      <trkpt lat="41.31163" lon="-2.97991">
        <ele>1240</ele>
      </trkpt>
      <trkpt lat="41.31098" lon="-2.97969">
        <ele>1243</ele>
      </trkpt>
      <trkpt lat="41.31072" lon="-2.97952">
        <ele>1246</ele>
      </trkpt>
      <trkpt lat="41.31063" lon="-2.979">
        <ele>1248</ele>
      </trkpt>
      <trkpt lat="41.31055" lon="-2.97851">
        <ele>1249</ele>
      </trkpt>
      <trkpt lat="41.31036" lon="-2.9778">
        <ele>1255</ele>
      </trkpt>
      <trkpt lat="41.31052" lon="-2.97728">
        <ele>1257</ele>
      </trkpt>
      <trkpt lat="41.3105" lon="-2.97691">
        <ele>1260</ele>
      </trkpt>
      <trkpt lat="41.3104" lon="-2.97635">
        <ele>1264</ele>
      </trkpt>
      <trkpt lat="41.31046" lon="-2.97591">
        <ele>1267</ele>
      </trkpt>
      <trkpt lat="41.31056" lon="-2.97542">
        <ele>1269</ele>
      </trkpt>
      <trkpt lat="41.31057" lon="-2.97504">
        <ele>1271</ele>
      </trkpt>
      <trkpt lat="41.31051" lon="-2.9744">
        <ele>1276</ele>
      </trkpt>
      <trkpt lat="41.31043" lon="-2.9739">
        <ele>1277</ele>
      </trkpt>
      <trkpt lat="41.31037" lon="-2.97366">
        <ele>1279</ele>
      </trkpt>
      <trkpt lat="41.31025" lon="-2.97341">
        <ele>1282</ele>
      </trkpt>
      <trkpt lat="41.30999" lon="-2.97332">
        <ele>1286</ele>
      </trkpt>
      <trkpt lat="41.30951" lon="-2.9735">
        <ele>1291</ele>
      </trkpt>
      <trkpt lat="41.30564" lon="-2.97532">
        <ele>1304</ele>
      </trkpt>
      <trkpt lat="41.30181" lon="-2.97713">
        <ele>1307</ele>
      </trkpt>
      <trkpt lat="41.30128" lon="-2.97731">
        <ele>1307</ele>
      </trkpt>
      <trkpt lat="41.30084" lon="-2.97736">
        <ele>1308</ele>
      </trkpt>
      <trkpt lat="41.30033" lon="-2.97733">
        <ele>1310</ele>
      </trkpt>
      <trkpt lat="41.2988" lon="-2.97701">
        <ele>1318</ele>
      </trkpt>
      <trkpt lat="41.29704" lon="-2.97666">
        <ele>1324</ele>
      </trkpt>
      <trkpt lat="41.29573" lon="-2.97655">
        <ele>1329</ele>
      </trkpt>
      <trkpt lat="41.29157" lon="-2.97634">
        <ele>1342</ele>
      </trkpt>
      <trkpt lat="41.29085" lon="-2.97634">
        <ele>1348</ele>
      </trkpt>
      <trkpt lat="41.2904" lon="-2.97649">
        <ele>1351</ele>
      </trkpt>
      <trkpt lat="41.28981" lon="-2.97695">
        <ele>1353</ele>
      </trkpt>
      <trkpt lat="41.28905" lon="-2.97764">
        <ele>1356</ele>
      </trkpt>
      <trkpt lat="41.28883" lon="-2.97787">
        <ele>1356</ele>
      </trkpt>
      <trkpt lat="41.28866" lon="-2.97814">
        <ele>1356</ele>
      </trkpt>
      <trkpt lat="41.28841" lon="-2.9783">
        <ele>1356</ele>
      </trkpt>
      <trkpt lat="41.28818" lon="-2.97837">
        <ele>1355</ele>
      </trkpt>
      <trkpt lat="41.28795" lon="-2.97833">
        <ele>1355</ele>
      </trkpt>
      <trkpt lat="41.28765" lon="-2.97811">
        <ele>1354</ele>
      </trkpt>
      <trkpt lat="41.28743" lon="-2.97792">
        <ele>1356</ele>
      </trkpt>
      <trkpt lat="41.28724" lon="-2.97748">
        <ele>1358</ele>
      </trkpt>
      <trkpt lat="41.2871" lon="-2.97718">
        <ele>1360</ele>
      </trkpt>
      <trkpt lat="41.28695" lon="-2.97701">
        <ele>1361</ele>
      </trkpt>
      <trkpt lat="41.28672" lon="-2.977">
        <ele>1365</ele>
      </trkpt>
      <trkpt lat="41.28648" lon="-2.97716">
        <ele>1370</ele>
      </trkpt>
      <trkpt lat="41.28625" lon="-2.97723">
        <ele>1370</ele>
      </trkpt>
      <trkpt lat="41.28608" lon="-2.97719">
        <ele>1369</ele>
      </trkpt>
      <trkpt lat="41.28588" lon="-2.97694">
        <ele>1368</ele>
      </trkpt>
      <trkpt lat="41.28571" lon="-2.97672">
        <ele>1368</ele>
      </trkpt>
      <trkpt lat="41.28532" lon="-2.97655">
        <ele>1372</ele>
      </trkpt>
      <trkpt lat="41.28449" lon="-2.97631">
        <ele>1373</ele>
      </trkpt>
      <trkpt lat="41.28372" lon="-2.9762">
        <ele>1370</ele>
      </trkpt>
      <trkpt lat="41.28323" lon="-2.97629">
        <ele>1367</ele>
      </trkpt>
      <trkpt lat="41.28296" lon="-2.97624">
        <ele>1366</ele>
      </trkpt>
      <trkpt lat="41.28252" lon="-2.97596">
        <ele>1366</ele>
      </trkpt>
      <trkpt lat="41.28213" lon="-2.97564">
        <ele>1366</ele>
      </trkpt>
      <trkpt lat="41.28165" lon="-2.97536">
        <ele>1362</ele>
      </trkpt>
      <trkpt lat="41.28101" lon="-2.97486">
        <ele>1358</ele>
      </trkpt>
      <trkpt lat="41.28074" lon="-2.97464">
        <ele>1356</ele>
      </trkpt>
      <trkpt lat="41.28034" lon="-2.97458">
        <ele>1351</ele>
      </trkpt>
      <trkpt lat="41.27996" lon="-2.97447">
        <ele>1349</ele>
      </trkpt>
      <trkpt lat="41.27976" lon="-2.97432">
        <ele>1347</ele>
      </trkpt>
      <trkpt lat="41.27965" lon="-2.97399">
        <ele>1347</ele>
      </trkpt>
      <trkpt lat="41.27955" lon="-2.97347">
        <ele>1346</ele>
      </trkpt>
      <trkpt lat="41.27957" lon="-2.97312">
        <ele>1346</ele>
      </trkpt>
      <trkpt lat="41.27953" lon="-2.9729">
        <ele>1345</ele>
      </trkpt>
      <trkpt lat="41.27935" lon="-2.97258">
        <ele>1341</ele>
      </trkpt>
      <trkpt lat="41.27912" lon="-2.97212">
        <ele>1340</ele>
      </trkpt>
      <trkpt lat="41.27899" lon="-2.97201">
        <ele>1339</ele>
      </trkpt>
      <trkpt lat="41.27888" lon="-2.97201">
        <ele>1338</ele>
      </trkpt>
      <trkpt lat="41.27888" lon="-2.97217">
        <ele>1336</ele>
      </trkpt>
      <trkpt lat="41.27907" lon="-2.97256">
        <ele>1336</ele>
      </trkpt>
      <trkpt lat="41.27907" lon="-2.97282">
        <ele>1333</ele>
      </trkpt>
      <trkpt lat="41.27914" lon="-2.97307">
        <ele>1333</ele>
      </trkpt>
      <trkpt lat="41.27911" lon="-2.97335">
        <ele>1331</ele>
      </trkpt>
      <trkpt lat="41.27901" lon="-2.97359">
        <ele>1329</ele>
      </trkpt>
      <trkpt lat="41.2791" lon="-2.97396">
        <ele>1331</ele>
      </trkpt>
      <trkpt lat="41.27916" lon="-2.97425">
        <ele>1331</ele>
      </trkpt>
      <trkpt lat="41.2793" lon="-2.97482">
        <ele>1328</ele>
      </trkpt>
      <trkpt lat="41.27951" lon="-2.97578">
        <ele>1318</ele>
      </trkpt>
      <trkpt lat="41.27972" lon="-2.97647">
        <ele>1311</ele>
      </trkpt>
      <trkpt lat="41.28011" lon="-2.97731">
        <ele>1304</ele>
      </trkpt>
      <trkpt lat="41.28026" lon="-2.97766">
        <ele>1304</ele>
      </trkpt>
      <trkpt lat="41.28026" lon="-2.97797">
        <ele>1303</ele>
      </trkpt>
      <trkpt lat="41.28018" lon="-2.97826">
        <ele>1303</ele>
      </trkpt>
      <trkpt lat="41.28007" lon="-2.9784">
        <ele>1302</ele>
      </trkpt>
      <trkpt lat="41.27989" lon="-2.97843">
        <ele>1301</ele>
      </trkpt>
      <trkpt lat="41.27951" lon="-2.97824">
        <ele>1298</ele>
      </trkpt>
      <trkpt lat="41.27912" lon="-2.97798">
        <ele>1298</ele>
      </trkpt>
      <trkpt lat="41.27889" lon="-2.97764">
        <ele>1296</ele>
      </trkpt>
      <trkpt lat="41.2786" lon="-2.97714">
        <ele>1292</ele>
      </trkpt>
      <trkpt lat="41.2782" lon="-2.97637">
        <ele>1288</ele>
      </trkpt>
      <trkpt lat="41.27791" lon="-2.97552">
        <ele>1281</ele>
      </trkpt>
      <trkpt lat="41.27766" lon="-2.97491">
        <ele>1274</ele>
      </trkpt>
      <trkpt lat="41.27748" lon="-2.97456">
        <ele>1270</ele>
      </trkpt>
      <trkpt lat="41.27729" lon="-2.97454">
        <ele>1270</ele>
      </trkpt>
      <trkpt lat="41.27711" lon="-2.97447">
        <ele>1271</ele>
      </trkpt>
      <trkpt lat="41.27687" lon="-2.97413">
        <ele>1267</ele>
      </trkpt>
      <trkpt lat="41.27655" lon="-2.97369">
        <ele>1261</ele>
      </trkpt>
      <trkpt lat="41.27613" lon="-2.97336">
        <ele>1259</ele>
      </trkpt>
      <trkpt lat="41.27573" lon="-2.97307">
        <ele>1255</ele>
      </trkpt>
      <trkpt lat="41.27542" lon="-2.97299">
        <ele>1255</ele>
      </trkpt>
      <trkpt lat="41.27511" lon="-2.97306">
        <ele>1259</ele>
      </trkpt>
      <trkpt lat="41.27467" lon="-2.97327">
        <ele>1260</ele>
      </trkpt>
      <trkpt lat="41.27427" lon="-2.97336">
        <ele>1258</ele>
      </trkpt>
      <trkpt lat="41.27373" lon="-2.97333">
        <ele>1249</ele>
      </trkpt>
      <trkpt lat="41.27349" lon="-2.97334">
        <ele>1249</ele>
      </trkpt>
      <trkpt lat="41.27334" lon="-2.97358">
        <ele>1252</ele>
      </trkpt>
      <trkpt lat="41.2732" lon="-2.97407">
        <ele>1253</ele>
      </trkpt>
      <trkpt lat="41.27295" lon="-2.97455">
        <ele>1249</ele>
      </trkpt>
      <trkpt lat="41.27275" lon="-2.97467">
        <ele>1245</ele>
      </trkpt>
      <trkpt lat="41.2725" lon="-2.97476">
        <ele>1242</ele>
      </trkpt>
      <trkpt lat="41.27231" lon="-2.97486">
        <ele>1241</ele>
      </trkpt>
      <trkpt lat="41.27196" lon="-2.97525">
        <ele>1243</ele>
      </trkpt>
      <trkpt lat="41.27175" lon="-2.97553">
        <ele>1243</ele>
      </trkpt>
      <trkpt lat="41.27163" lon="-2.97557">
        <ele>1241</ele>
      </trkpt>
      <trkpt lat="41.27151" lon="-2.97547">
        <ele>1235</ele>
      </trkpt>
      <trkpt lat="41.27159" lon="-2.97509">
        <ele>1230</ele>
      </trkpt>
      <trkpt lat="41.27184" lon="-2.97451">
        <ele>1223</ele>
      </trkpt>
      <trkpt lat="41.27195" lon="-2.97398">
        <ele>1218</ele>
      </trkpt>
      <trkpt lat="41.27201" lon="-2.9736">
        <ele>1213</ele>
      </trkpt>
      <trkpt lat="41.27186" lon="-2.97303">
        <ele>1210</ele>
      </trkpt>
      <trkpt lat="41.27182" lon="-2.97268">
        <ele>1207</ele>
      </trkpt>
      <trkpt lat="41.27164" lon="-2.97239">
        <ele>1208</ele>
      </trkpt>
      <trkpt lat="41.27112" lon="-2.97163">
        <ele>1206</ele>
      </trkpt>
      <trkpt lat="41.2704" lon="-2.97063">
        <ele>1200</ele>
      </trkpt>
      <trkpt lat="41.27002" lon="-2.97011">
        <ele>1196</ele>
      </trkpt>
      <trkpt lat="41.26984" lon="-2.9698">
        <ele>1193</ele>
      </trkpt>
      <trkpt lat="41.26966" lon="-2.96968">
        <ele>1193</ele>
      </trkpt>
      <trkpt lat="41.26946" lon="-2.96968">
        <ele>1195</ele>
      </trkpt>
      <trkpt lat="41.26934" lon="-2.96956">
        <ele>1192</ele>
      </trkpt>
      <trkpt lat="41.26942" lon="-2.96941">
        <ele>1189</ele>
      </trkpt>
      <trkpt lat="41.26971" lon="-2.96943">
        <ele>1187</ele>
      </trkpt>
      <trkpt lat="41.27013" lon="-2.96966">
        <ele>1186</ele>
      </trkpt>
      <trkpt lat="41.27031" lon="-2.96976">
        <ele>1185</ele>
      </trkpt>
      <trkpt lat="41.27088" lon="-2.96984">
        <ele>1180</ele>
      </trkpt>
      <trkpt lat="41.27099" lon="-2.96998">
        <ele>1179</ele>
      </trkpt>
      <trkpt lat="41.27107" lon="-2.9702">
        <ele>1181</ele>
      </trkpt>
      <trkpt lat="41.27121" lon="-2.97018">
        <ele>1181</ele>
      </trkpt>
      <trkpt lat="41.27143" lon="-2.97004">
        <ele>1187</ele>
      </trkpt>
      <trkpt lat="41.2715" lon="-2.96981">
        <ele>1189</ele>
      </trkpt>
      <trkpt lat="41.27136" lon="-2.9694">
        <ele>1189</ele>
      </trkpt>
      <trkpt lat="41.27102" lon="-2.96868">
        <ele>1183</ele>
      </trkpt>
      <trkpt lat="41.27073" lon="-2.96817">
        <ele>1182</ele>
      </trkpt>
      <trkpt lat="41.27014" lon="-2.96754">
        <ele>1174</ele>
      </trkpt>
      <trkpt lat="41.26941" lon="-2.96684">
        <ele>1165</ele>
      </trkpt>
      <trkpt lat="41.26874" lon="-2.96629">
        <ele>1162</ele>
      </trkpt>
      <trkpt lat="41.26796" lon="-2.96559">
        <ele>1157</ele>
      </trkpt>
      <trkpt lat="41.26715" lon="-2.96489">
        <ele>1151</ele>
      </trkpt>
      <trkpt lat="41.26684" lon="-2.96442">
        <ele>1151</ele>
      </trkpt>
      <trkpt lat="41.26648" lon="-2.96381">
        <ele>1149</ele>
      </trkpt>
      <trkpt lat="41.26591" lon="-2.96254">
        <ele>1147</ele>
      </trkpt>
      <trkpt lat="41.26618" lon="-2.96175">
        <ele>1149</ele>
      </trkpt>
      <trkpt lat="41.26635" lon="-2.9608">
        <ele>1150</ele>
      </trkpt>
      <trkpt lat="41.26658" lon="-2.9598">
        <ele>1154</ele>
      </trkpt>
      <trkpt lat="41.26677" lon="-2.95895">
        <ele>1155</ele>
      </trkpt>
      <trkpt lat="41.26689" lon="-2.95753">
        <ele>1151</ele>
      </trkpt>
      <trkpt lat="41.26711" lon="-2.95526">
        <ele>1142</ele>
      </trkpt>
      <trkpt lat="41.2677" lon="-2.9494">
        <ele>1129</ele>
      </trkpt>
      <trkpt lat="41.26787" lon="-2.94876">
        <ele>1128</ele>
      </trkpt>
      <trkpt lat="41.26841" lon="-2.94738">
        <ele>1126</ele>
      </trkpt>
      <trkpt lat="41.2692" lon="-2.94611">
        <ele>1125</ele>
      </trkpt>
      <trkpt lat="41.27082" lon="-2.94361">
        <ele>1117</ele>
      </trkpt>
      <trkpt lat="41.27353" lon="-2.93937">
        <ele>1110</ele>
      </trkpt>
      <trkpt lat="41.2747" lon="-2.93607">
        <ele>1099</ele>
      </trkpt>
      <trkpt lat="41.27619" lon="-2.93236">
        <ele>1098</ele>
      </trkpt>
      <trkpt lat="41.27808" lon="-2.92811">
        <ele>1100</ele>
      </trkpt>
      <trkpt lat="41.2798" lon="-2.92352">
        <ele>1109</ele>
      </trkpt>
      <trkpt lat="41.2803" lon="-2.92254">
        <ele>1116</ele>
      </trkpt>
      <trkpt lat="41.2808" lon="-2.92183">
        <ele>1116</ele>
      </trkpt>
      <trkpt lat="41.28145" lon="-2.92143">
        <ele>1117</ele>
      </trkpt>
      <trkpt lat="41.28232" lon="-2.92103">
        <ele>1121</ele>
      </trkpt>
      <trkpt lat="41.28282" lon="-2.9206">
        <ele>1123</ele>
      </trkpt>
      <trkpt lat="41.28393" lon="-2.91897">
        <ele>1127</ele>
      </trkpt>
      <trkpt lat="41.28531" lon="-2.91637">
        <ele>1136</ele>
      </trkpt>
      <trkpt lat="41.28543" lon="-2.91597">
        <ele>1139</ele>
      </trkpt>
      <trkpt lat="41.28537" lon="-2.91552">
        <ele>1140</ele>
      </trkpt>
      <trkpt lat="41.2853" lon="-2.91522">
        <ele>1141</ele>
      </trkpt>
      <trkpt lat="41.28516" lon="-2.91512">
        <ele>1138</ele>
      </trkpt>
      <trkpt lat="41.28477" lon="-2.91508">
        <ele>1134</ele>
      </trkpt>
      <trkpt lat="41.28444" lon="-2.91488">
        <ele>1132</ele>
      </trkpt>
      <trkpt lat="41.28402" lon="-2.91461">
        <ele>1130</ele>
      </trkpt>
      <trkpt lat="41.28363" lon="-2.91393">
        <ele>1128</ele>
      </trkpt>
      <trkpt lat="41.28284" lon="-2.91321">
        <ele>1118</ele>
      </trkpt>
      <trkpt lat="41.28235" lon="-2.91276">
        <ele>1115</ele>
      </trkpt>
      <trkpt lat="41.28205" lon="-2.91242">
        <ele>1114</ele>
      </trkpt>
      <trkpt lat="41.28108" lon="-2.91095">
        <ele>1110</ele>
      </trkpt>
      <trkpt lat="41.28062" lon="-2.91022">
        <ele>1107</ele>
      </trkpt>
      <trkpt lat="41.27978" lon="-2.90935">
        <ele>1104</ele>
      </trkpt>
      <trkpt lat="41.27935" lon="-2.90891">
        <ele>1101</ele>
      </trkpt>
      <trkpt lat="41.27923" lon="-2.90874">
        <ele>1100</ele>
      </trkpt>
      <trkpt lat="41.27912" lon="-2.90843">
        <ele>1100</ele>
      </trkpt>
      <trkpt lat="41.2789" lon="-2.90814">
        <ele>1100</ele>
      </trkpt>
      <trkpt lat="41.27842" lon="-2.90743">
        <ele>1100</ele>
      </trkpt>
      <trkpt lat="41.27827" lon="-2.90704">
        <ele>1100</ele>
      </trkpt>
      <trkpt lat="41.27787" lon="-2.90617">
        <ele>1100</ele>
      </trkpt>
      <trkpt lat="41.27714" lon="-2.90486">
        <ele>1100</ele>
      </trkpt>
      <trkpt lat="41.27696" lon="-2.90452">
        <ele>1100</ele>
      </trkpt>
      <trkpt lat="41.27656" lon="-2.90345">
        <ele>1100</ele>
      </trkpt>
      <trkpt lat="41.27625" lon="-2.90254">
        <ele>1100</ele>
      </trkpt>
      <trkpt lat="41.27609" lon="-2.90167">
        <ele>1100</ele>
      </trkpt>
      <trkpt lat="41.27601" lon="-2.90099">
        <ele>1100</ele>
      </trkpt>
      <trkpt lat="41.27596" lon="-2.9001">
        <ele>1100</ele>
      </trkpt>
      <trkpt lat="41.27588" lon="-2.89896">
        <ele>1100</ele>
      </trkpt>
      <trkpt lat="41.27587" lon="-2.89877">
        <ele>1100</ele>
      </trkpt>
      <trkpt lat="41.27573" lon="-2.89857">
        <ele>1100</ele>
      </trkpt>
      <trkpt lat="41.2755" lon="-2.89818">
        <ele>1099</ele>
      </trkpt>
      <trkpt lat="41.27526" lon="-2.89761">
        <ele>1100</ele>
      </trkpt>
      <trkpt lat="41.27503" lon="-2.89669">
        <ele>1100</ele>
      </trkpt>
      <trkpt lat="41.275" lon="-2.89637">
        <ele>1100</ele>
      </trkpt>
      <trkpt lat="41.27517" lon="-2.89578">
        <ele>1101</ele>
      </trkpt>
      <trkpt lat="41.27467" lon="-2.89563">
        <ele>1101</ele>
      </trkpt>
      <trkpt lat="41.27407" lon="-2.89556">
        <ele>1100</ele>
      </trkpt>
      <trkpt lat="41.27364" lon="-2.8955">
        <ele>1100</ele>
      </trkpt>
      <trkpt lat="41.27326" lon="-2.8953">
        <ele>1100</ele>
      </trkpt>
      <trkpt lat="41.27242" lon="-2.89447">
        <ele>1107</ele>
      </trkpt>
      <trkpt lat="41.2722" lon="-2.89419">
        <ele>1109</ele>
      </trkpt>
      <trkpt lat="41.27213" lon="-2.89385">
        <ele>1109</ele>
      </trkpt>
      <trkpt lat="41.27206" lon="-2.89347">
        <ele>1110</ele>
      </trkpt>
      <trkpt lat="41.27201" lon="-2.89285">
        <ele>1110</ele>
      </trkpt>
      <trkpt lat="41.27195" lon="-2.8924">
        <ele>1110</ele>
      </trkpt>
      <trkpt lat="41.27187" lon="-2.89218">
        <ele>1110</ele>
      </trkpt>
      <trkpt lat="41.27145" lon="-2.8916">
        <ele>1110</ele>
      </trkpt>
      <trkpt lat="41.271" lon="-2.89095">
        <ele>1110</ele>
      </trkpt>
      <trkpt lat="41.27071" lon="-2.89047">
        <ele>1112</ele>
      </trkpt>
      <trkpt lat="41.27025" lon="-2.88954">
        <ele>1118</ele>
      </trkpt>
      <trkpt lat="41.26967" lon="-2.88841">
        <ele>1119</ele>
      </trkpt>
      <trkpt lat="41.26794" lon="-2.88496">
        <ele>1128</ele>
      </trkpt>
      <trkpt lat="41.26609" lon="-2.8813">
        <ele>1134</ele>
      </trkpt>
      <trkpt lat="41.26506" lon="-2.8793">
        <ele>1139</ele>
      </trkpt>
      <trkpt lat="41.26289" lon="-2.87501">
        <ele>1150</ele>
      </trkpt>
      <trkpt lat="41.26179" lon="-2.87281">
        <ele>1158</ele>
      </trkpt>
      <trkpt lat="41.26157" lon="-2.87238">
        <ele>1159</ele>
      </trkpt>
      <trkpt lat="41.26149" lon="-2.87206">
        <ele>1160</ele>
      </trkpt>
      <trkpt lat="41.26137" lon="-2.87151">
        <ele>1161</ele>
      </trkpt>
      <trkpt lat="41.26125" lon="-2.87117">
        <ele>1161</ele>
      </trkpt>
      <trkpt lat="41.26103" lon="-2.8707">
        <ele>1160</ele>
      </trkpt>
      <trkpt lat="41.26091" lon="-2.87048">
        <ele>1159</ele>
      </trkpt>
      <trkpt lat="41.26053" lon="-2.86998">
        <ele>1158</ele>
      </trkpt>
      <trkpt lat="41.25969" lon="-2.86884">
        <ele>1158</ele>
      </trkpt>
      <trkpt lat="41.25889" lon="-2.86787">
        <ele>1160</ele>
      </trkpt>
      <trkpt lat="41.25795" lon="-2.8668">
        <ele>1166</ele>
      </trkpt>
      <trkpt lat="41.25729" lon="-2.86606">
        <ele>1168</ele>
      </trkpt>
      <trkpt lat="41.25716" lon="-2.8659">
        <ele>1168</ele>
      </trkpt>
      <trkpt lat="41.25703" lon="-2.86548">
        <ele>1167</ele>
      </trkpt>
      <trkpt lat="41.25618" lon="-2.8631">
        <ele>1159</ele>
      </trkpt>
      <trkpt lat="41.25559" lon="-2.86145">
        <ele>1153</ele>
      </trkpt>
      <trkpt lat="41.2554" lon="-2.86115">
        <ele>1151</ele>
      </trkpt>
      <trkpt lat="41.25503" lon="-2.86081">
        <ele>1149</ele>
      </trkpt>
      <trkpt lat="41.25433" lon="-2.86046">
        <ele>1149</ele>
      </trkpt>
      <trkpt lat="41.25387" lon="-2.86018">
        <ele>1150</ele>
      </trkpt>
      <trkpt lat="41.25243" lon="-2.85898">
        <ele>1150</ele>
      </trkpt>
      <trkpt lat="41.25157" lon="-2.8583">
        <ele>1150</ele>
      </trkpt>
      <trkpt lat="41.25102" lon="-2.85786">
        <ele>1149</ele>
      </trkpt>
      <trkpt lat="41.25073" lon="-2.85759">
        <ele>1148</ele>
      </trkpt>
      <trkpt lat="41.24977" lon="-2.85753">
        <ele>1149</ele>
      </trkpt>
      <trkpt lat="41.24789" lon="-2.85756">
        <ele>1152</ele>
      </trkpt>
      <trkpt lat="41.24725" lon="-2.85758">
        <ele>1154</ele>
      </trkpt>
      <trkpt lat="41.24708" lon="-2.85765">
        <ele>1156</ele>
      </trkpt>
      <trkpt lat="41.24681" lon="-2.85784">
        <ele>1157</ele>
      </trkpt>
      <trkpt lat="41.24643" lon="-2.85817">
        <ele>1158</ele>
      </trkpt>
      <trkpt lat="41.24626" lon="-2.85828">
        <ele>1159</ele>
      </trkpt>
      <trkpt lat="41.24608" lon="-2.85829">
        <ele>1159</ele>
      </trkpt>
      <trkpt lat="41.24574" lon="-2.8582">
        <ele>1159</ele>
      </trkpt>
      <trkpt lat="41.24467" lon="-2.8579">
        <ele>1158</ele>
      </trkpt>
      <trkpt lat="41.24433" lon="-2.85779">
        <ele>1158</ele>
      </trkpt>
      <trkpt lat="41.24413" lon="-2.8577">
        <ele>1158</ele>
      </trkpt>
      <trkpt lat="41.24357" lon="-2.85738">
        <ele>1158</ele>
      </trkpt>
      <trkpt lat="41.24243" lon="-2.85667">
        <ele>1156</ele>
      </trkpt>
      <trkpt lat="41.24218" lon="-2.85652">
        <ele>1157</ele>
      </trkpt>
      <trkpt lat="41.24196" lon="-2.85649">
        <ele>1159</ele>
      </trkpt>
      <trkpt lat="41.24153" lon="-2.85652">
        <ele>1158</ele>
      </trkpt>
      <trkpt lat="41.24101" lon="-2.85657">
        <ele>1151</ele>
      </trkpt>
      <trkpt lat="41.23933" lon="-2.85668">
        <ele>1146</ele>
      </trkpt>
      <trkpt lat="41.23802" lon="-2.85678">
        <ele>1140</ele>
      </trkpt>
      <trkpt lat="41.23708" lon="-2.85708">
        <ele>1131</ele>
      </trkpt>
      <trkpt lat="41.23651" lon="-2.85728">
        <ele>1133</ele>
      </trkpt>
      <trkpt lat="41.23562" lon="-2.8576">
        <ele>1138</ele>
      </trkpt>
      <trkpt lat="41.23359" lon="-2.859">
        <ele>1135</ele>
      </trkpt>
      <trkpt lat="41.23257" lon="-2.85926">
        <ele>1129</ele>
      </trkpt>
      <trkpt lat="41.23166" lon="-2.85947">
        <ele>1122</ele>
      </trkpt>
      <trkpt lat="41.23147" lon="-2.85954">
        <ele>1121</ele>
      </trkpt>
      <trkpt lat="41.23137" lon="-2.85965">
        <ele>1121</ele>
      </trkpt>
      <trkpt lat="41.2313" lon="-2.85987">
        <ele>1120</ele>
      </trkpt>
      <trkpt lat="41.23123" lon="-2.86006">
        <ele>1120</ele>
      </trkpt>
      <trkpt lat="41.23106" lon="-2.86022">
        <ele>1120</ele>
      </trkpt>
      <trkpt lat="41.23086" lon="-2.86035">
        <ele>1120</ele>
      </trkpt>
      <trkpt lat="41.23068" lon="-2.86057">
        <ele>1119</ele>
      </trkpt>
      <trkpt lat="41.23061" lon="-2.8608">
        <ele>1118</ele>
      </trkpt>
      <trkpt lat="41.23057" lon="-2.86109">
        <ele>1111</ele>
      </trkpt>
      <trkpt lat="41.23061" lon="-2.86132">
        <ele>1109</ele>
      </trkpt>
      <trkpt lat="41.23072" lon="-2.86148">
        <ele>1111</ele>
      </trkpt>
      <trkpt lat="41.23077" lon="-2.86175">
        <ele>1109</ele>
      </trkpt>
      <trkpt lat="41.23071" lon="-2.86207">
        <ele>1108</ele>
      </trkpt>
      <trkpt lat="41.23049" lon="-2.86243">
        <ele>1107</ele>
      </trkpt>
      <trkpt lat="41.22996" lon="-2.86314">
        <ele>1115</ele>
      </trkpt>
      <trkpt lat="41.22919" lon="-2.864">
        <ele>1123</ele>
      </trkpt>
      <trkpt lat="41.22875" lon="-2.86454">
        <ele>1124</ele>
      </trkpt>
      <trkpt lat="41.2285" lon="-2.86497">
        <ele>1125</ele>
      </trkpt>
      <trkpt lat="41.22803" lon="-2.86623">
        <ele>1123</ele>
      </trkpt>
      <trkpt lat="41.22786" lon="-2.86666">
        <ele>1122</ele>
      </trkpt>
      <trkpt lat="41.22768" lon="-2.86685">
        <ele>1121</ele>
      </trkpt>
      <trkpt lat="41.22666" lon="-2.86731">
        <ele>1123</ele>
      </trkpt>
      <trkpt lat="41.22481" lon="-2.86812">
        <ele>1127</ele>
      </trkpt>
      <trkpt lat="41.22361" lon="-2.86859">
        <ele>1127</ele>
      </trkpt>
      <trkpt lat="41.22336" lon="-2.86871">
        <ele>1124</ele>
      </trkpt>
      <trkpt lat="41.22319" lon="-2.86892">
        <ele>1121</ele>
      </trkpt>
      <trkpt lat="41.22293" lon="-2.86936">
        <ele>1121</ele>
      </trkpt>
      <trkpt lat="41.22234" lon="-2.87041">
        <ele>1126</ele>
      </trkpt>
      <trkpt lat="41.22169" lon="-2.87157">
        <ele>1120</ele>
      </trkpt>
      <trkpt lat="41.22142" lon="-2.87198">
        <ele>1120</ele>
      </trkpt>
      <trkpt lat="41.22089" lon="-2.87245">
        <ele>1121</ele>
      </trkpt>
      <trkpt lat="41.22068" lon="-2.87287">
        <ele>1122</ele>
      </trkpt>
      <trkpt lat="41.22049" lon="-2.87324">
        <ele>1122</ele>
      </trkpt>
      <trkpt lat="41.22029" lon="-2.87345">
        <ele>1121</ele>
      </trkpt>
      <trkpt lat="41.2201" lon="-2.87356">
        <ele>1120</ele>
      </trkpt>
      <trkpt lat="41.22004" lon="-2.87375">
        <ele>1120</ele>
      </trkpt>
      <trkpt lat="41.21989" lon="-2.87431">
        <ele>1124</ele>
      </trkpt>
      <trkpt lat="41.21968" lon="-2.87509">
        <ele>1130</ele>
      </trkpt>
      <trkpt lat="41.21949" lon="-2.87539">
        <ele>1130</ele>
      </trkpt>
      <trkpt lat="41.21926" lon="-2.87585">
        <ele>1134</ele>
      </trkpt>
      <trkpt lat="41.21916" lon="-2.87606">
        <ele>1137</ele>
      </trkpt>
      <trkpt lat="41.21899" lon="-2.87655">
        <ele>1140</ele>
      </trkpt>
      <trkpt lat="41.21885" lon="-2.87685">
        <ele>1140</ele>
      </trkpt>
      <trkpt lat="41.21858" lon="-2.8769">
        <ele>1142</ele>
      </trkpt>
      <trkpt lat="41.21824" lon="-2.87684">
        <ele>1146</ele>
      </trkpt>
      <trkpt lat="41.21789" lon="-2.87672">
        <ele>1145</ele>
      </trkpt>
      <trkpt lat="41.217" lon="-2.87644">
        <ele>1142</ele>
      </trkpt>
      <trkpt lat="41.21669" lon="-2.8764">
        <ele>1142</ele>
      </trkpt>
      <trkpt lat="41.21647" lon="-2.87629">
        <ele>1141</ele>
      </trkpt>
      <trkpt lat="41.21634" lon="-2.87602">
        <ele>1140</ele>
      </trkpt>
      <trkpt lat="41.2162" lon="-2.87578">
        <ele>1140</ele>
      </trkpt>
      <trkpt lat="41.21566" lon="-2.87521">
        <ele>1146</ele>
      </trkpt>
      <trkpt lat="41.21539" lon="-2.87502">
        <ele>1148</ele>
      </trkpt>
      <trkpt lat="41.21522" lon="-2.875">
        <ele>1149</ele>
      </trkpt>
      <trkpt lat="41.2151" lon="-2.87505">
        <ele>1150</ele>
      </trkpt>
      <trkpt lat="41.21475" lon="-2.87539">
        <ele>1152</ele>
      </trkpt>
      <trkpt lat="41.21419" lon="-2.87572">
        <ele>1155</ele>
      </trkpt>
      <trkpt lat="41.21342" lon="-2.87603">
        <ele>1156</ele>
      </trkpt>
      <trkpt lat="41.21307" lon="-2.87614">
        <ele>1155</ele>
      </trkpt>
      <trkpt lat="41.21288" lon="-2.87631">
        <ele>1154</ele>
      </trkpt>
      <trkpt lat="41.21241" lon="-2.87706">
        <ele>1154</ele>
      </trkpt>
      <trkpt lat="41.21212" lon="-2.87722">
        <ele>1151</ele>
      </trkpt>
      <trkpt lat="41.21178" lon="-2.87787">
        <ele>1149</ele>
      </trkpt>
      <trkpt lat="41.2111" lon="-2.87915">
        <ele>1140</ele>
      </trkpt>
      <trkpt lat="41.21085" lon="-2.87944">
        <ele>1142</ele>
      </trkpt>
      <trkpt lat="41.21067" lon="-2.87971">
        <ele>1143</ele>
      </trkpt>
      <trkpt lat="41.21053" lon="-2.88014">
        <ele>1144</ele>
      </trkpt>
      <trkpt lat="41.21036" lon="-2.88041">
        <ele>1145</ele>
      </trkpt>
      <trkpt lat="41.2101" lon="-2.88058">
        <ele>1148</ele>
      </trkpt>
      <trkpt lat="41.20977" lon="-2.88051">
        <ele>1150</ele>
      </trkpt>
      <trkpt lat="41.20942" lon="-2.88026">
        <ele>1155</ele>
      </trkpt>
      <trkpt lat="41.20902" lon="-2.87996">
        <ele>1157</ele>
      </trkpt>
      <trkpt lat="41.20854" lon="-2.87977">
        <ele>1158</ele>
      </trkpt>
      <trkpt lat="41.20765" lon="-2.87919">
        <ele>1150</ele>
      </trkpt>
      <trkpt lat="41.20725" lon="-2.87883">
        <ele>1152</ele>
      </trkpt>
      <trkpt lat="41.20681" lon="-2.87851">
        <ele>1155</ele>
      </trkpt>
      <trkpt lat="41.20632" lon="-2.87819">
        <ele>1158</ele>
      </trkpt>
      <trkpt lat="41.20603" lon="-2.87792">
        <ele>1160</ele>
      </trkpt>
      <trkpt lat="41.20562" lon="-2.87767">
        <ele>1166</ele>
      </trkpt>
      <trkpt lat="41.20502" lon="-2.87745">
        <ele>1171</ele>
      </trkpt>
      <trkpt lat="41.20473" lon="-2.87749">
        <ele>1176</ele>
      </trkpt>
      <trkpt lat="41.20437" lon="-2.87759">
        <ele>1182</ele>
      </trkpt>
      <trkpt lat="41.20413" lon="-2.87748">
        <ele>1181</ele>
      </trkpt>
      <trkpt lat="41.20392" lon="-2.87723">
        <ele>1175</ele>
      </trkpt>
      <trkpt lat="41.20364" lon="-2.87719">
        <ele>1181</ele>
      </trkpt>
      <trkpt lat="41.2034" lon="-2.87714">
        <ele>1184</ele>
      </trkpt>
      <trkpt lat="41.20319" lon="-2.87698">
        <ele>1180</ele>
      </trkpt>
      <trkpt lat="41.20296" lon="-2.87668">
        <ele>1175</ele>
      </trkpt>
      <trkpt lat="41.20264" lon="-2.87652">
        <ele>1178</ele>
      </trkpt>
      <trkpt lat="41.20238" lon="-2.8764">
        <ele>1177</ele>
      </trkpt>
      <trkpt lat="41.2022" lon="-2.87618">
        <ele>1174</ele>
      </trkpt>
      <trkpt lat="41.20213" lon="-2.87583">
        <ele>1169</ele>
      </trkpt>
      <trkpt lat="41.20224" lon="-2.87541">
        <ele>1155</ele>
      </trkpt>
      <trkpt lat="41.20251" lon="-2.87503">
        <ele>1152</ele>
      </trkpt>
      <trkpt lat="41.20258" lon="-2.87482">
        <ele>1155</ele>
      </trkpt>
      <trkpt lat="41.20251" lon="-2.87454">
        <ele>1159</ele>
      </trkpt>
      <trkpt lat="41.20227" lon="-2.87403">
        <ele>1161</ele>
      </trkpt>
      <trkpt lat="41.20215" lon="-2.87349">
        <ele>1157</ele>
      </trkpt>
      <trkpt lat="41.20149" lon="-2.87241">
        <ele>1156</ele>
      </trkpt>
      <trkpt lat="41.20106" lon="-2.87165">
        <ele>1152</ele>
      </trkpt>
      <trkpt lat="41.20099" lon="-2.8711">
        <ele>1148</ele>
      </trkpt>
      <trkpt lat="41.20077" lon="-2.87102">
        <ele>1151</ele>
      </trkpt>
      <trkpt lat="41.2003" lon="-2.87089">
        <ele>1157</ele>
      </trkpt>
      <trkpt lat="41.20015" lon="-2.87074">
        <ele>1157</ele>
        <extensions>
          <visugpx:TrkExtension xmlns:visugpx="https://www.visugpx.com/editgpx/">
            <visugpx:node>31</visugpx:node>
            </visugpx:TrkExtension>
        </extensions>
      </trkpt>
      <trkpt lat="41.20008" lon="-2.87042">
        <ele>1156.4</ele>
      </trkpt>
      <trkpt lat="41.20004" lon="-2.87022">
        <ele>1154.4</ele>
      </trkpt>
      <trkpt lat="41.19996" lon="-2.87">
        <ele>1152.1</ele>
      </trkpt>
      <trkpt lat="41.19983" lon="-2.86982">
        <ele>1150.9</ele>
      </trkpt>
      <trkpt lat="41.19961" lon="-2.86923">
        <ele>1146.2</ele>
      </trkpt>
      <trkpt lat="41.19952" lon="-2.86913">
        <ele>1144.8</ele>
      </trkpt>
      <trkpt lat="41.19946" lon="-2.86911">
        <ele>1144.4</ele>
      </trkpt>
      <trkpt lat="41.19903" lon="-2.86909">
        <ele>1140.6</ele>
      </trkpt>
      <trkpt lat="41.19881" lon="-2.869">
        <ele>1136.8</ele>
      </trkpt>
      <trkpt lat="41.19849" lon="-2.86898">
        <ele>1133.2</ele>
      </trkpt>
      <trkpt lat="41.19847" lon="-2.86907">
        <ele>1133.4</ele>
      </trkpt>
      <trkpt lat="41.19814" lon="-2.86927">
        <ele>1130.8</ele>
      </trkpt>
      <trkpt lat="41.19781" lon="-2.86939">
        <ele>1129.9</ele>
      </trkpt>
      <trkpt lat="41.19776" lon="-2.86931">
        <ele>1129.4</ele>
      </trkpt>
      <trkpt lat="41.1977" lon="-2.86927">
        <ele>1129</ele>
      </trkpt>
      <trkpt lat="41.19753" lon="-2.86934">
        <ele>1128.2</ele>
      </trkpt>
      <trkpt lat="41.19683" lon="-2.86984">
        <ele>1122.7</ele>
      </trkpt>
      <trkpt lat="41.19581" lon="-2.87019">
        <ele>1113.8</ele>
      </trkpt>
      <trkpt lat="41.19571" lon="-2.87022">
        <ele>1112.8</ele>
      </trkpt>
      <trkpt lat="41.19553" lon="-2.87023">
        <ele>1111</ele>
      </trkpt>
      <trkpt lat="41.19529" lon="-2.87017">
        <ele>1109.1</ele>
      </trkpt>
      <trkpt lat="41.19509" lon="-2.87004">
        <ele>1107.7</ele>
      </trkpt>
      <trkpt lat="41.19437" lon="-2.86936">
        <ele>1106.4</ele>
      </trkpt>
      <trkpt lat="41.19425" lon="-2.86941">
        <ele>1106.3</ele>
      </trkpt>
      <trkpt lat="41.19421" lon="-2.86928">
        <ele>1106.5</ele>
      </trkpt>
      <trkpt lat="41.19415" lon="-2.86916">
        <ele>1107</ele>
      </trkpt>
      <trkpt lat="41.19381" lon="-2.86872">
        <ele>1108</ele>
      </trkpt>
      <trkpt lat="41.1936" lon="-2.8687">
        <ele>1107.4</ele>
      </trkpt>
      <trkpt lat="41.19182" lon="-2.86712">
        <ele>1106.8</ele>
      </trkpt>
      <trkpt lat="41.19201" lon="-2.86543">
        <ele>1103.9</ele>
      </trkpt>
      <trkpt lat="41.19204" lon="-2.86491">
        <ele>1103</ele>
      </trkpt>
      <trkpt lat="41.19204" lon="-2.86454">
        <ele>1102.3</ele>
      </trkpt>
      <trkpt lat="41.192" lon="-2.86399">
        <ele>1102</ele>
      </trkpt>
      <trkpt lat="41.19194" lon="-2.86354">
        <ele>1101.7</ele>
      </trkpt>
      <trkpt lat="41.19185" lon="-2.8631">
        <ele>1100.1</ele>
      </trkpt>
      <trkpt lat="41.19172" lon="-2.86262">
        <ele>1100</ele>
      </trkpt>
      <trkpt lat="41.18601" lon="-2.84384">
        <ele>1108</ele>
      </trkpt>
      <trkpt lat="41.18583" lon="-2.84332">
        <ele>1107.9</ele>
      </trkpt>
      <trkpt lat="41.1857" lon="-2.84301">
        <ele>1105.8</ele>
      </trkpt>
      <trkpt lat="41.1855" lon="-2.8426">
        <ele>1105.5</ele>
      </trkpt>
      <trkpt lat="41.18418" lon="-2.84049">
        <ele>1100</ele>
      </trkpt>
      <trkpt lat="41.18401" lon="-2.8402">
        <ele>1099.3</ele>
      </trkpt>
      <trkpt lat="41.1837" lon="-2.83961">
        <ele>1098.5</ele>
      </trkpt>
      <trkpt lat="41.18323" lon="-2.83863">
        <ele>1094.9</ele>
      </trkpt>
      <trkpt lat="41.18165" lon="-2.83515">
        <ele>1077.5</ele>
      </trkpt>
      <trkpt lat="41.18127" lon="-2.83445">
        <ele>1074.6</ele>
      </trkpt>
      <trkpt lat="41.181" lon="-2.83406">
        <ele>1073.4</ele>
      </trkpt>
      <trkpt lat="41.18074" lon="-2.83375">
        <ele>1072.5</ele>
      </trkpt>
      <trkpt lat="41.18053" lon="-2.83353">
        <ele>1071.7</ele>
      </trkpt>
      <trkpt lat="41.1803" lon="-2.83332">
        <ele>1071.8</ele>
      </trkpt>
      <trkpt lat="41.17931" lon="-2.83246">
        <ele>1068.5</ele>
      </trkpt>
      <trkpt lat="41.17867" lon="-2.83193">
        <ele>1067.3</ele>
      </trkpt>
      <trkpt lat="41.17854" lon="-2.83184">
        <ele>1067.1</ele>
      </trkpt>
      <trkpt lat="41.17822" lon="-2.83171">
        <ele>1066.4</ele>
      </trkpt>
      <trkpt lat="41.17804" lon="-2.83161">
        <ele>1066.3</ele>
      </trkpt>
      <trkpt lat="41.17597" lon="-2.83106">
        <ele>1058.1</ele>
      </trkpt>
      <trkpt lat="41.17534" lon="-2.83087">
        <ele>1056</ele>
      </trkpt>
      <trkpt lat="41.17522" lon="-2.83082">
        <ele>1055.9</ele>
      </trkpt>
      <trkpt lat="41.17491" lon="-2.83063">
        <ele>1054.7</ele>
      </trkpt>
      <trkpt lat="41.17446" lon="-2.83023">
        <ele>1053.3</ele>
      </trkpt>
      <trkpt lat="41.17245" lon="-2.82826">
        <ele>1050.2</ele>
      </trkpt>
      <trkpt lat="41.17151" lon="-2.8274">
        <ele>1048.9</ele>
      </trkpt>
      <trkpt lat="41.17033" lon="-2.82639">
        <ele>1045.8</ele>
      </trkpt>
      <trkpt lat="41.16959" lon="-2.8258">
        <ele>1045.7</ele>
      </trkpt>
      <trkpt lat="41.16925" lon="-2.82557">
        <ele>1045</ele>
      </trkpt>
      <trkpt lat="41.16904" lon="-2.82545">
        <ele>1045.1</ele>
      </trkpt>
      <trkpt lat="41.1687" lon="-2.82529">
        <ele>1044</ele>
      </trkpt>
      <trkpt lat="41.16765" lon="-2.82486">
        <ele>1043.2</ele>
      </trkpt>
      <trkpt lat="41.16728" lon="-2.82466">
        <ele>1042.4</ele>
      </trkpt>
      <trkpt lat="41.16666" lon="-2.82428">
        <ele>1041.9</ele>
      </trkpt>
      <trkpt lat="41.16637" lon="-2.82415">
        <ele>1041.8</ele>
      </trkpt>
      <trkpt lat="41.16315" lon="-2.82295">
        <ele>1038.1</ele>
      </trkpt>
      <trkpt lat="41.16282" lon="-2.8229">
        <ele>1039.2</ele>
      </trkpt>
      <trkpt lat="41.16264" lon="-2.82289">
        <ele>1039.6</ele>
      </trkpt>
      <trkpt lat="41.16257" lon="-2.82287">
        <ele>1039.6</ele>
      </trkpt>
      <trkpt lat="41.16252" lon="-2.82285">
        <ele>1039.5</ele>
      </trkpt>
      <trkpt lat="41.16247" lon="-2.8228">
        <ele>1039.1</ele>
      </trkpt>
      <trkpt lat="41.16243" lon="-2.82272">
        <ele>1038.6</ele>
      </trkpt>
      <trkpt lat="41.16235" lon="-2.82207">
        <ele>1035.2</ele>
      </trkpt>
      <trkpt lat="41.16128" lon="-2.81636">
        <ele>1039</ele>
      </trkpt>
      <trkpt lat="41.1612" lon="-2.81587">
        <ele>1040.5</ele>
      </trkpt>
      <trkpt lat="41.16116" lon="-2.81549">
        <ele>1040.9</ele>
      </trkpt>
      <trkpt lat="41.16115" lon="-2.81507">
        <ele>1041.7</ele>
      </trkpt>
      <trkpt lat="41.16117" lon="-2.8148">
        <ele>1042.3</ele>
      </trkpt>
      <trkpt lat="41.16121" lon="-2.81455">
        <ele>1044</ele>
      </trkpt>
      <trkpt lat="41.16128" lon="-2.81423">
        <ele>1044.9</ele>
      </trkpt>
      <trkpt lat="41.16141" lon="-2.81384">
        <ele>1043.6</ele>
      </trkpt>
      <trkpt lat="41.16158" lon="-2.81348">
        <ele>1044.7</ele>
      </trkpt>
      <trkpt lat="41.16179" lon="-2.81315">
        <ele>1043.3</ele>
      </trkpt>
      <trkpt lat="41.16202" lon="-2.81287">
        <ele>1042.8</ele>
      </trkpt>
      <trkpt lat="41.16308" lon="-2.81185">
        <ele>1036.7</ele>
      </trkpt>
      <trkpt lat="41.16345" lon="-2.81147">
        <ele>1034.6</ele>
      </trkpt>
      <trkpt lat="41.16357" lon="-2.81132">
        <ele>1033.8</ele>
      </trkpt>
      <trkpt lat="41.16382" lon="-2.81095">
        <ele>1031.9</ele>
      </trkpt>
      <trkpt lat="41.16469" lon="-2.8093">
        <ele>1024.6</ele>
      </trkpt>
      <trkpt lat="41.16478" lon="-2.8091">
        <ele>1023.9</ele>
      </trkpt>
      <trkpt lat="41.16495" lon="-2.80864">
        <ele>1023.4</ele>
      </trkpt>
      <trkpt lat="41.16512" lon="-2.80794">
        <ele>1018.8</ele>
      </trkpt>
      <trkpt lat="41.16627" lon="-2.80262">
        <ele>995.5</ele>
      </trkpt>
      <trkpt lat="41.16642" lon="-2.8018">
        <ele>990.2</ele>
      </trkpt>
      <trkpt lat="41.16651" lon="-2.80099">
        <ele>984.1</ele>
      </trkpt>
      <trkpt lat="41.16667" lon="-2.79768">
        <ele>974.6</ele>
      </trkpt>
      <trkpt lat="41.16671" lon="-2.7967">
        <ele>970.8</ele>
      </trkpt>
      <trkpt lat="41.16671" lon="-2.7963">
        <ele>969.4</ele>
      </trkpt>
      <trkpt lat="41.16666" lon="-2.79543">
        <ele>966.6</ele>
      </trkpt>
      <trkpt lat="41.16642" lon="-2.79235">
        <ele>955.7</ele>
      </trkpt>
      <trkpt lat="41.16633" lon="-2.79176">
        <ele>955.2</ele>
      </trkpt>
      <trkpt lat="41.16623" lon="-2.79133">
        <ele>952.7</ele>
      </trkpt>
      <trkpt lat="41.16532" lon="-2.7884">
        <ele>944.9</ele>
      </trkpt>
      <trkpt lat="41.16435" lon="-2.78539">
        <ele>940.9</ele>
      </trkpt>
      <trkpt lat="41.16355" lon="-2.78337">
        <ele>932.5</ele>
      </trkpt>
      <trkpt lat="41.16264" lon="-2.78118">
        <ele>928.6</ele>
      </trkpt>
      <trkpt lat="41.16242" lon="-2.78072">
        <ele>928.5</ele>
      </trkpt>
      <trkpt lat="41.16221" lon="-2.78036">
        <ele>928.1</ele>
      </trkpt>
      <trkpt lat="41.16196" lon="-2.77999">
        <ele>927.9</ele>
      </trkpt>
      <trkpt lat="41.16167" lon="-2.77964">
        <ele>927.7</ele>
      </trkpt>
      <trkpt lat="41.16112" lon="-2.77907">
        <ele>927.3</ele>
      </trkpt>
      <trkpt lat="41.16054" lon="-2.77852">
        <ele>928.2</ele>
      </trkpt>
      <trkpt lat="41.16002" lon="-2.7781">
        <ele>927.9</ele>
      </trkpt>
      <trkpt lat="41.15841" lon="-2.77695">
        <ele>928.4</ele>
      </trkpt>
      <trkpt lat="41.15821" lon="-2.77681">
        <ele>929.1</ele>
      </trkpt>
      <trkpt lat="41.15804" lon="-2.77692">
        <ele>926.3</ele>
      </trkpt>
      <trkpt lat="41.15784" lon="-2.77696">
        <ele>925.8</ele>
      </trkpt>
      <trkpt lat="41.15761" lon="-2.77704">
        <ele>923.8</ele>
      </trkpt>
      <trkpt lat="41.15745" lon="-2.77704">
        <ele>922.9</ele>
      </trkpt>
      <trkpt lat="41.15734" lon="-2.77702">
        <ele>922.8</ele>
      </trkpt>
      <trkpt lat="41.1569" lon="-2.7766">
        <ele>923.1</ele>
      </trkpt>
      <trkpt lat="41.15651" lon="-2.77618">
        <ele>924.1</ele>
      </trkpt>
      <trkpt lat="41.15605" lon="-2.77605">
        <ele>922.9</ele>
      </trkpt>
      <trkpt lat="41.15586" lon="-2.77591">
        <ele>922.8</ele>
      </trkpt>
      <trkpt lat="41.15556" lon="-2.77549">
        <ele>922.8</ele>
      </trkpt>
      <trkpt lat="41.15492" lon="-2.77449">
        <ele>927</ele>
      </trkpt>
      <trkpt lat="41.15479" lon="-2.77421">
        <ele>927.5</ele>
      </trkpt>
      <trkpt lat="41.1547" lon="-2.77408">
        <ele>927.4</ele>
      </trkpt>
      <trkpt lat="41.15456" lon="-2.77395">
        <ele>926.9</ele>
      </trkpt>
      <trkpt lat="41.15402" lon="-2.77363">
        <ele>925.4</ele>
      </trkpt>
      <trkpt lat="41.15343" lon="-2.77325">
        <ele>925.4</ele>
      </trkpt>
      <trkpt lat="41.15196" lon="-2.77235">
        <ele>929</ele>
      </trkpt>
      <trkpt lat="41.15185" lon="-2.77231">
        <ele>928.9</ele>
      </trkpt>
      <trkpt lat="41.15173" lon="-2.77229">
        <ele>928.1</ele>
      </trkpt>
      <trkpt lat="41.1512" lon="-2.7723">
        <ele>923.8</ele>
      </trkpt>
      <trkpt lat="41.15099" lon="-2.77221">
        <ele>923.7</ele>
      </trkpt>
      <trkpt lat="41.15056" lon="-2.77199">
        <ele>924.7</ele>
      </trkpt>
      <trkpt lat="41.15003" lon="-2.77176">
        <ele>927.4</ele>
      </trkpt>
      <trkpt lat="41.14966" lon="-2.77156">
        <ele>926.4</ele>
      </trkpt>
      <trkpt lat="41.1487" lon="-2.77091">
        <ele>920.4</ele>
      </trkpt>
      <trkpt lat="41.14847" lon="-2.77061">
        <ele>919.9</ele>
      </trkpt>
      <trkpt lat="41.14767" lon="-2.76913">
        <ele>920.3</ele>
      </trkpt>
      <trkpt lat="41.14753" lon="-2.76895">
        <ele>920.6</ele>
      </trkpt>
      <trkpt lat="41.14723" lon="-2.7687">
        <ele>922</ele>
      </trkpt>
      <trkpt lat="41.1469" lon="-2.76839">
        <ele>922.1</ele>
      </trkpt>
      <trkpt lat="41.14673" lon="-2.7682">
        <ele>921.3</ele>
      </trkpt>
      <trkpt lat="41.14663" lon="-2.76806">
        <ele>920.9</ele>
      </trkpt>
      <trkpt lat="41.14641" lon="-2.76834">
        <ele>919.1</ele>
      </trkpt>
      <trkpt lat="41.14627" lon="-2.76847">
        <ele>918.5</ele>
      </trkpt>
      <trkpt lat="41.14603" lon="-2.76863">
        <ele>917.7</ele>
      </trkpt>
      <trkpt lat="41.14585" lon="-2.76872">
        <ele>917</ele>
      </trkpt>
      <trkpt lat="41.14568" lon="-2.76874">
        <ele>916.7</ele>
      </trkpt>
      <trkpt lat="41.14168" lon="-2.76748">
        <ele>914.1</ele>
      </trkpt>
      <trkpt lat="41.14146" lon="-2.76745">
        <ele>914.2</ele>
      </trkpt>
      <trkpt lat="41.14132" lon="-2.76747">
        <ele>914.1</ele>
      </trkpt>
      <trkpt lat="41.1412" lon="-2.76754">
        <ele>914</ele>
      </trkpt>
      <trkpt lat="41.14105" lon="-2.76771">
        <ele>914</ele>
      </trkpt>
      <trkpt lat="41.13929" lon="-2.77008">
        <ele>913.3</ele>
      </trkpt>
      <trkpt lat="41.13917" lon="-2.77022">
        <ele>913</ele>
      </trkpt>
      <trkpt lat="41.13908" lon="-2.77027">
        <ele>913</ele>
      </trkpt>
      <trkpt lat="41.13878" lon="-2.77029">
        <ele>913</ele>
      </trkpt>
      <trkpt lat="41.13855" lon="-2.77034">
        <ele>913</ele>
      </trkpt>
      <trkpt lat="41.1383" lon="-2.77046">
        <ele>913</ele>
      </trkpt>
      <trkpt lat="41.1381" lon="-2.77061">
        <ele>913</ele>
      </trkpt>
      <trkpt lat="41.13758" lon="-2.77122">
        <ele>913</ele>
      </trkpt>
      <trkpt lat="41.13745" lon="-2.77135">
        <ele>913</ele>
      </trkpt>
      <trkpt lat="41.13644" lon="-2.77206">
        <ele>912.1</ele>
      </trkpt>
      <trkpt lat="41.1361" lon="-2.77239">
        <ele>912</ele>
      </trkpt>
      <trkpt lat="41.13594" lon="-2.77258">
        <ele>912</ele>
      </trkpt>
      <trkpt lat="41.13542" lon="-2.77329">
        <ele>912</ele>
      </trkpt>
      <trkpt lat="41.13526" lon="-2.77345">
        <ele>912</ele>
      </trkpt>
      <trkpt lat="41.13398" lon="-2.77454">
        <ele>912</ele>
      </trkpt>
      <trkpt lat="41.13373" lon="-2.77473">
        <ele>912</ele>
      </trkpt>
      <trkpt lat="41.13323" lon="-2.77505">
        <ele>912.8</ele>
      </trkpt>
      <trkpt lat="41.13275" lon="-2.7754">
        <ele>914.1</ele>
      </trkpt>
      <trkpt lat="41.13252" lon="-2.77552">
        <ele>913.1</ele>
      </trkpt>
      <trkpt lat="41.13239" lon="-2.77551">
        <ele>912.5</ele>
      </trkpt>
      <trkpt lat="41.13217" lon="-2.7754">
        <ele>911.1</ele>
      </trkpt>
      <trkpt lat="41.1321" lon="-2.77533">
        <ele>910.1</ele>
      </trkpt>
      <trkpt lat="41.13201" lon="-2.77511">
        <ele>910.3</ele>
      </trkpt>
      <trkpt lat="41.13212" lon="-2.77503">
        <ele>910.9</ele>
      </trkpt>
      <trkpt lat="41.13249" lon="-2.77494">
        <ele>911.8</ele>
      </trkpt>
      <trkpt lat="41.13259" lon="-2.77488">
        <ele>912.3</ele>
      </trkpt>
      <trkpt lat="41.13282" lon="-2.77462">
        <ele>911.9</ele>
      </trkpt>
      <trkpt lat="41.13361" lon="-2.7739">
        <ele>912.9</ele>
      </trkpt>
      <trkpt lat="41.13392" lon="-2.77343">
        <ele>917.8</ele>
      </trkpt>
      <trkpt lat="41.13417" lon="-2.7729">
        <ele>915.6</ele>
      </trkpt>
      <trkpt lat="41.1345" lon="-2.77237">
        <ele>914</ele>
      </trkpt>
      <trkpt lat="41.13454" lon="-2.77205">
        <ele>914.4</ele>
      </trkpt>
      <trkpt lat="41.13494" lon="-2.77052">
        <ele>913.7</ele>
      </trkpt>
      <trkpt lat="41.13503" lon="-2.77003">
        <ele>912.9</ele>
      </trkpt>
      <trkpt lat="41.13494" lon="-2.76971">
        <ele>914.8</ele>
      </trkpt>
      <trkpt lat="41.13491" lon="-2.76826">
        <ele>920.2</ele>
      </trkpt>
      <trkpt lat="41.13487" lon="-2.7679">
        <ele>922.4</ele>
      </trkpt>
      <trkpt lat="41.13478" lon="-2.76755">
        <ele>924.4</ele>
      </trkpt>
      <trkpt lat="41.13452" lon="-2.76692">
        <ele>929.5</ele>
      </trkpt>
      <trkpt lat="41.13449" lon="-2.76674">
        <ele>931.4</ele>
      </trkpt>
      <trkpt lat="41.13462" lon="-2.76632">
        <ele>933.8</ele>
      </trkpt>
      <trkpt lat="41.1345" lon="-2.76548">
        <ele>934.9</ele>
      </trkpt>
      <trkpt lat="41.13445" lon="-2.7644">
        <ele>934.6</ele>
      </trkpt>
      <trkpt lat="41.13439" lon="-2.76404">
        <ele>934</ele>
      </trkpt>
      <trkpt lat="41.13439" lon="-2.76368">
        <ele>934.4</ele>
      </trkpt>
      <trkpt lat="41.13449" lon="-2.76331">
        <ele>935.8</ele>
      </trkpt>
      <trkpt lat="41.13477" lon="-2.7627">
        <ele>936</ele>
      </trkpt>
      <trkpt lat="41.13485" lon="-2.76241">
        <ele>933.6</ele>
      </trkpt>
      <trkpt lat="41.13501" lon="-2.76093">
        <ele>932.6</ele>
      </trkpt>
      <trkpt lat="41.13502" lon="-2.76027">
        <ele>937</ele>
      </trkpt>
      <trkpt lat="41.13494" lon="-2.7596">
        <ele>939.2</ele>
      </trkpt>
      <trkpt lat="41.13483" lon="-2.75909">
        <ele>938.8</ele>
      </trkpt>
      <trkpt lat="41.1346" lon="-2.75865">
        <ele>938.5</ele>
      </trkpt>
      <trkpt lat="41.13432" lon="-2.75827">
        <ele>939.7</ele>
      </trkpt>
      <trkpt lat="41.13413" lon="-2.75808">
        <ele>940.7</ele>
      </trkpt>
      <trkpt lat="41.13401" lon="-2.75784">
        <ele>942.2</ele>
      </trkpt>
      <trkpt lat="41.13305" lon="-2.75545">
        <ele>949.8</ele>
      </trkpt>
      <trkpt lat="41.13259" lon="-2.75401">
        <ele>958.4</ele>
      </trkpt>
      <trkpt lat="41.13243" lon="-2.75322">
        <ele>960.7</ele>
      </trkpt>
      <trkpt lat="41.13222" lon="-2.75159">
        <ele>966</ele>
      </trkpt>
      <trkpt lat="41.13213" lon="-2.75119">
        <ele>965.7</ele>
      </trkpt>
      <trkpt lat="41.13195" lon="-2.75066">
        <ele>964.4</ele>
      </trkpt>
      <trkpt lat="41.13165" lon="-2.75008">
        <ele>964.8</ele>
      </trkpt>
      <trkpt lat="41.13146" lon="-2.7498">
        <ele>965.7</ele>
      </trkpt>
      <trkpt lat="41.13112" lon="-2.74944">
        <ele>965.9</ele>
      </trkpt>
      <trkpt lat="41.13081" lon="-2.74919">
        <ele>965.3</ele>
      </trkpt>
      <trkpt lat="41.12988" lon="-2.7477">
        <ele>967.9</ele>
      </trkpt>
      <trkpt lat="41.12942" lon="-2.74713">
        <ele>968.5</ele>
      </trkpt>
      <trkpt lat="41.12827" lon="-2.74514">
        <ele>979.7</ele>
      </trkpt>
      <trkpt lat="41.12771" lon="-2.74427">
        <ele>988.2</ele>
      </trkpt>
      <trkpt lat="41.12759" lon="-2.74402">
        <ele>987.9</ele>
      </trkpt>
      <trkpt lat="41.12752" lon="-2.7437">
        <ele>984.8</ele>
      </trkpt>
      <trkpt lat="41.12728" lon="-2.74313">
        <ele>986.3</ele>
      </trkpt>
      <trkpt lat="41.1272" lon="-2.74299">
        <ele>986.7</ele>
      </trkpt>
      <trkpt lat="41.12703" lon="-2.74275">
        <ele>987.1</ele>
      </trkpt>
      <trkpt lat="41.12681" lon="-2.74211">
        <ele>983.6</ele>
      </trkpt>
      <trkpt lat="41.12668" lon="-2.7415">
        <ele>983</ele>
      </trkpt>
      <trkpt lat="41.12666" lon="-2.74133">
        <ele>983</ele>
      </trkpt>
      <trkpt lat="41.12656" lon="-2.74097">
        <ele>984.4</ele>
      </trkpt>
      <trkpt lat="41.12651" lon="-2.74072">
        <ele>984.7</ele>
      </trkpt>
      <trkpt lat="41.12647" lon="-2.74036">
        <ele>983.2</ele>
      </trkpt>
      <trkpt lat="41.12619" lon="-2.73955">
        <ele>979.6</ele>
      </trkpt>
      <trkpt lat="41.12613" lon="-2.7393">
        <ele>979.1</ele>
      </trkpt>
      <trkpt lat="41.12589" lon="-2.73852">
        <ele>978.5</ele>
      </trkpt>
      <trkpt lat="41.1258" lon="-2.73809">
        <ele>978.7</ele>
      </trkpt>
      <trkpt lat="41.12573" lon="-2.73795">
        <ele>977.8</ele>
      </trkpt>
      <trkpt lat="41.12566" lon="-2.73788">
        <ele>977.6</ele>
      </trkpt>
      <trkpt lat="41.12556" lon="-2.73782">
        <ele>977.7</ele>
      </trkpt>
      <trkpt lat="41.12536" lon="-2.73776">
        <ele>975.8</ele>
      </trkpt>
      <trkpt lat="41.1252" lon="-2.73769">
        <ele>974.7</ele>
      </trkpt>
      <trkpt lat="41.1251" lon="-2.7376">
        <ele>974.4</ele>
      </trkpt>
      <trkpt lat="41.12498" lon="-2.73742">
        <ele>973.9</ele>
      </trkpt>
      <trkpt lat="41.12486" lon="-2.73719">
        <ele>972.9</ele>
      </trkpt>
      <trkpt lat="41.12474" lon="-2.7369">
        <ele>974.2</ele>
      </trkpt>
      <trkpt lat="41.12458" lon="-2.73635">
        <ele>974.6</ele>
      </trkpt>
      <trkpt lat="41.12436" lon="-2.73571">
        <ele>976.9</ele>
      </trkpt>
      <trkpt lat="41.12394" lon="-2.73467">
        <ele>973.7</ele>
      </trkpt>
      <trkpt lat="41.12366" lon="-2.73404">
        <ele>975.4</ele>
      </trkpt>
      <trkpt lat="41.12331" lon="-2.73315">
        <ele>976.5</ele>
      </trkpt>
      <trkpt lat="41.12317" lon="-2.73292">
        <ele>975.2</ele>
      </trkpt>
      <trkpt lat="41.12299" lon="-2.73269">
        <ele>972.5</ele>
      </trkpt>
      <trkpt lat="41.12251" lon="-2.73227">
        <ele>965.7</ele>
      </trkpt>
      <trkpt lat="41.12208" lon="-2.73182">
        <ele>959.3</ele>
      </trkpt>
      <trkpt lat="41.12186" lon="-2.73163">
        <ele>956.9</ele>
      </trkpt>
      <trkpt lat="41.12092" lon="-2.731">
        <ele>943.4</ele>
      </trkpt>
      <trkpt lat="41.12078" lon="-2.73089">
        <ele>940.8</ele>
      </trkpt>
      <trkpt lat="41.12066" lon="-2.73075">
        <ele>938.5</ele>
      </trkpt>
      <trkpt lat="41.12005" lon="-2.72971">
        <ele>929.1</ele>
      </trkpt>
      <trkpt lat="41.11991" lon="-2.72941">
        <ele>927.1</ele>
      </trkpt>
      <trkpt lat="41.11979" lon="-2.72911">
        <ele>925</ele>
      </trkpt>
      <trkpt lat="41.1194" lon="-2.728">
        <ele>921.5</ele>
      </trkpt>
      <trkpt lat="41.11978" lon="-2.72681">
        <ele>920</ele>
      </trkpt>
      <trkpt lat="41.12002" lon="-2.72522">
        <ele>919.9</ele>
      </trkpt>
      <trkpt lat="41.12" lon="-2.72517">
        <ele>920</ele>
      </trkpt>
      <trkpt lat="41.1198" lon="-2.72513">
        <ele>921.1</ele>
      </trkpt>
      <trkpt lat="41.11972" lon="-2.72509">
        <ele>921.7</ele>
      </trkpt>
      <trkpt lat="41.11964" lon="-2.72501">
        <ele>922.9</ele>
      </trkpt>
      <trkpt lat="41.11944" lon="-2.72455">
        <ele>925</ele>
      </trkpt>
      <trkpt lat="41.11938" lon="-2.72439">
        <ele>925.4</ele>
      </trkpt>
      <trkpt lat="41.11937" lon="-2.72427">
        <ele>925.7</ele>
      </trkpt>
      <trkpt lat="41.11931" lon="-2.72421">
        <ele>925.9</ele>
      </trkpt>
      <trkpt lat="41.11906" lon="-2.7236">
        <ele>926.2</ele>
      </trkpt>
      <trkpt lat="41.11871" lon="-2.72266">
        <ele>923.7</ele>
      </trkpt>
      <trkpt lat="41.11843" lon="-2.72142">
        <ele>921.9</ele>
      </trkpt>
      <trkpt lat="41.11818" lon="-2.7209">
        <ele>921.9</ele>
      </trkpt>
      <trkpt lat="41.11793" lon="-2.72043">
        <ele>922.2</ele>
      </trkpt>
      <trkpt lat="41.11743" lon="-2.71978">
        <ele>926</ele>
      </trkpt>
      <trkpt lat="41.11701" lon="-2.71914">
        <ele>929.2</ele>
      </trkpt>
      <trkpt lat="41.11654" lon="-2.71853">
        <ele>934.2</ele>
      </trkpt>
      <trkpt lat="41.11617" lon="-2.71793">
        <ele>936.1</ele>
      </trkpt>
      <trkpt lat="41.11578" lon="-2.71705">
        <ele>935.5</ele>
      </trkpt>
      <trkpt lat="41.1156" lon="-2.71653">
        <ele>934.3</ele>
      </trkpt>
      <trkpt lat="41.11546" lon="-2.71597">
        <ele>933.5</ele>
      </trkpt>
      <trkpt lat="41.11533" lon="-2.71567">
        <ele>933.7</ele>
      </trkpt>
      <trkpt lat="41.11492" lon="-2.71489">
        <ele>936.4</ele>
      </trkpt>
      <trkpt lat="41.11422" lon="-2.71383">
        <ele>937.8</ele>
      </trkpt>
      <trkpt lat="41.11403" lon="-2.71362">
        <ele>938.5</ele>
      </trkpt>
      <trkpt lat="41.11336" lon="-2.71306">
        <ele>939.1</ele>
      </trkpt>
      <trkpt lat="41.11296" lon="-2.71265">
        <ele>939</ele>
      </trkpt>
      <trkpt lat="41.11288" lon="-2.71251">
        <ele>938.7</ele>
      </trkpt>
      <trkpt lat="41.11271" lon="-2.71194">
        <ele>938.5</ele>
      </trkpt>
      <trkpt lat="41.11252" lon="-2.7115">
        <ele>938.8</ele>
      </trkpt>
      <trkpt lat="41.11225" lon="-2.71069">
        <ele>939.2</ele>
      </trkpt>
      <trkpt lat="41.11216" lon="-2.71053">
        <ele>940</ele>
      </trkpt>
      <trkpt lat="41.11155" lon="-2.70982">
        <ele>941</ele>
      </trkpt>
      <trkpt lat="41.111" lon="-2.70882">
        <ele>935.8</ele>
      </trkpt>
      <trkpt lat="41.11049" lon="-2.70823">
        <ele>932.5</ele>
      </trkpt>
      <trkpt lat="41.10929" lon="-2.70638">
        <ele>927.3</ele>
      </trkpt>
      <trkpt lat="41.10921" lon="-2.70614">
        <ele>926.5</ele>
      </trkpt>
      <trkpt lat="41.10913" lon="-2.7057">
        <ele>925.7</ele>
      </trkpt>
      <trkpt lat="41.10867" lon="-2.70387">
        <ele>925</ele>
      </trkpt>
      <trkpt lat="41.10773" lon="-2.7014">
        <ele>926</ele>
      </trkpt>
      <trkpt lat="41.10741" lon="-2.70021">
        <ele>926.5</ele>
      </trkpt>
      <trkpt lat="41.10676" lon="-2.69995">
        <ele>926.3</ele>
      </trkpt>
      <trkpt lat="41.10629" lon="-2.70009">
        <ele>926</ele>
      </trkpt>
      <trkpt lat="41.10621" lon="-2.70009">
        <ele>926</ele>
      </trkpt>
      <trkpt lat="41.10608" lon="-2.7">
        <ele>926.1</ele>
      </trkpt>
      <trkpt lat="41.10484" lon="-2.69899">
        <ele>928.6</ele>
      </trkpt>
      <trkpt lat="41.10447" lon="-2.69862">
        <ele>929.1</ele>
      </trkpt>
      <trkpt lat="41.10376" lon="-2.69775">
        <ele>929.1</ele>
      </trkpt>
      <trkpt lat="41.10325" lon="-2.69739">
        <ele>930</ele>
      </trkpt>
      <trkpt lat="41.10301" lon="-2.69715">
        <ele>930.2</ele>
      </trkpt>
      <trkpt lat="41.10242" lon="-2.69645">
        <ele>931</ele>
      </trkpt>
      <trkpt lat="41.10029" lon="-2.69321">
        <ele>938</ele>
      </trkpt>
      <trkpt lat="41.09966" lon="-2.69209">
        <ele>938.3</ele>
      </trkpt>
      <trkpt lat="41.09887" lon="-2.69031">
        <ele>940</ele>
      </trkpt>
      <trkpt lat="41.0978" lon="-2.68876">
        <ele>944</ele>
      </trkpt>
      <trkpt lat="41.09758" lon="-2.6885">
        <ele>944.8</ele>
      </trkpt>
      <trkpt lat="41.09718" lon="-2.68814">
        <ele>946</ele>
      </trkpt>
      <trkpt lat="41.09674" lon="-2.68764">
        <ele>946.6</ele>
      </trkpt>
      <trkpt lat="41.09654" lon="-2.68738">
        <ele>946.5</ele>
      </trkpt>
      <trkpt lat="41.09638" lon="-2.68712">
        <ele>946.3</ele>
      </trkpt>
      <trkpt lat="41.09622" lon="-2.68678">
        <ele>945.8</ele>
      </trkpt>
      <trkpt lat="41.09605" lon="-2.6865">
        <ele>945.8</ele>
      </trkpt>
      <trkpt lat="41.0957" lon="-2.68603">
        <ele>945.9</ele>
      </trkpt>
      <trkpt lat="41.09553" lon="-2.68567">
        <ele>945</ele>
      </trkpt>
      <trkpt lat="41.09537" lon="-2.68544">
        <ele>945.4</ele>
      </trkpt>
      <trkpt lat="41.09499" lon="-2.68503">
        <ele>945.9</ele>
      </trkpt>
      <trkpt lat="41.09468" lon="-2.68474">
        <ele>946.7</ele>
      </trkpt>
      <trkpt lat="41.09434" lon="-2.68451">
        <ele>947.5</ele>
      </trkpt>
      <trkpt lat="41.09413" lon="-2.68421">
        <ele>949.3</ele>
      </trkpt>
      <trkpt lat="41.09375" lon="-2.68309">
        <ele>948</ele>
      </trkpt>
      <trkpt lat="41.09366" lon="-2.68292">
        <ele>948.2</ele>
      </trkpt>
      <trkpt lat="41.09352" lon="-2.68277">
        <ele>948.7</ele>
      </trkpt>
      <trkpt lat="41.09293" lon="-2.68237">
        <ele>949.5</ele>
      </trkpt>
      <trkpt lat="41.09256" lon="-2.68206">
        <ele>950.2</ele>
      </trkpt>
      <trkpt lat="41.09219" lon="-2.6817">
        <ele>951.3</ele>
      </trkpt>
      <trkpt lat="41.09162" lon="-2.68103">
        <ele>952.4</ele>
      </trkpt>
      <trkpt lat="41.09136" lon="-2.68085">
        <ele>952.7</ele>
      </trkpt>
      <trkpt lat="41.09111" lon="-2.68056">
        <ele>953</ele>
      </trkpt>
      <trkpt lat="41.09103" lon="-2.68036">
        <ele>953.2</ele>
      </trkpt>
      <trkpt lat="41.09093" lon="-2.67987">
        <ele>953.3</ele>
      </trkpt>
      <trkpt lat="41.09044" lon="-2.67904">
        <ele>953</ele>
      </trkpt>
      <trkpt lat="41.09005" lon="-2.67829">
        <ele>953.5</ele>
      </trkpt>
      <trkpt lat="41.08989" lon="-2.67781">
        <ele>954.1</ele>
      </trkpt>
      <trkpt lat="41.08978" lon="-2.6773">
        <ele>953.8</ele>
      </trkpt>
      <trkpt lat="41.08957" lon="-2.67678">
        <ele>954</ele>
      </trkpt>
      <trkpt lat="41.0891" lon="-2.67579">
        <ele>955</ele>
      </trkpt>
      <trkpt lat="41.08899" lon="-2.67531">
        <ele>956.2</ele>
      </trkpt>
      <trkpt lat="41.08889" lon="-2.67507">
        <ele>956.7</ele>
      </trkpt>
      <trkpt lat="41.08877" lon="-2.67488">
        <ele>957.3</ele>
      </trkpt>
      <trkpt lat="41.08876" lon="-2.67481">
        <ele>957.6</ele>
      </trkpt>
      <trkpt lat="41.07879" lon="-2.6652">
        <ele>978.7</ele>
      </trkpt>
      <trkpt lat="41.07866" lon="-2.66529">
        <ele>977.9</ele>
      </trkpt>
      <trkpt lat="41.07838" lon="-2.66526">
        <ele>978.2</ele>
      </trkpt>
      <trkpt lat="41.07798" lon="-2.66518">
        <ele>980.2</ele>
      </trkpt>
      <trkpt lat="41.07785" lon="-2.66514">
        <ele>980.9</ele>
      </trkpt>
      <trkpt lat="41.07772" lon="-2.66507">
        <ele>981.1</ele>
      </trkpt>
      <trkpt lat="41.07761" lon="-2.66498">
        <ele>980.9</ele>
      </trkpt>
      <trkpt lat="41.07724" lon="-2.66474">
        <ele>981.9</ele>
      </trkpt>
      <trkpt lat="41.07686" lon="-2.66455">
        <ele>982.1</ele>
      </trkpt>
      <trkpt lat="41.07624" lon="-2.66417">
        <ele>983</ele>
      </trkpt>
      <trkpt lat="41.07585" lon="-2.66398">
        <ele>983.7</ele>
      </trkpt>
      <trkpt lat="41.0755" lon="-2.66372">
        <ele>984.6</ele>
      </trkpt>
      <trkpt lat="41.0741" lon="-2.66259">
        <ele>988.4</ele>
      </trkpt>
      <trkpt lat="41.07386" lon="-2.66244">
        <ele>989.2</ele>
      </trkpt>
      <trkpt lat="41.07359" lon="-2.66235">
        <ele>990.1</ele>
      </trkpt>
      <trkpt lat="41.07319" lon="-2.66227">
        <ele>991.2</ele>
      </trkpt>
      <trkpt lat="41.07278" lon="-2.66224">
        <ele>992.9</ele>
      </trkpt>
      <trkpt lat="41.07211" lon="-2.66215">
        <ele>997.3</ele>
      </trkpt>
      <trkpt lat="41.07171" lon="-2.66203">
        <ele>1000.2</ele>
      </trkpt>
      <trkpt lat="41.0713" lon="-2.66203">
        <ele>1002.9</ele>
      </trkpt>
      <trkpt lat="41.07103" lon="-2.66206">
        <ele>1004.5</ele>
      </trkpt>
      <trkpt lat="41.07049" lon="-2.66207">
        <ele>1009</ele>
      </trkpt>
      <trkpt lat="41.07036" lon="-2.66202">
        <ele>1010.1</ele>
      </trkpt>
      <trkpt lat="41.06999" lon="-2.6618">
        <ele>1014.1</ele>
      </trkpt>
      <trkpt lat="41.06986" lon="-2.66174">
        <ele>1015.2</ele>
      </trkpt>
      <trkpt lat="41.06959" lon="-2.66166">
        <ele>1017.1</ele>
      </trkpt>
      <trkpt lat="41.06932" lon="-2.66162">
        <ele>1020</ele>
      </trkpt>
      <trkpt lat="41.06919" lon="-2.66158">
        <ele>1021.7</ele>
      </trkpt>
      <trkpt lat="41.0687" lon="-2.66126">
        <ele>1032.3</ele>
      </trkpt>
      <trkpt lat="41.06857" lon="-2.6612">
        <ele>1034.1</ele>
      </trkpt>
      <trkpt lat="41.06802" lon="-2.66107">
        <ele>1038.2</ele>
      </trkpt>
      <trkpt lat="41.0676" lon="-2.6608">
        <ele>1034.7</ele>
      </trkpt>
      <trkpt lat="41.06734" lon="-2.66067">
        <ele>1031</ele>
      </trkpt>
      <trkpt lat="41.06722" lon="-2.66058">
        <ele>1027.3</ele>
      </trkpt>
      <trkpt lat="41.06714" lon="-2.66045">
        <ele>1025.8</ele>
      </trkpt>
      <trkpt lat="41.06695" lon="-2.65998">
        <ele>1019.2</ele>
      </trkpt>
      <trkpt lat="41.0668" lon="-2.65968">
        <ele>1015.4</ele>
      </trkpt>
      <trkpt lat="41.06629" lon="-2.65884">
        <ele>1004.4</ele>
      </trkpt>
      <trkpt lat="41.06574" lon="-2.65805">
        <ele>996</ele>
      </trkpt>
      <trkpt lat="41.06567" lon="-2.65789">
        <ele>994.9</ele>
      </trkpt>
      <trkpt lat="41.06554" lon="-2.65738">
        <ele>987.6</ele>
      </trkpt>
      <trkpt lat="41.06546" lon="-2.65667">
        <ele>982.3</ele>
      </trkpt>
      <trkpt lat="41.06533" lon="-2.65613">
        <ele>979.4</ele>
      </trkpt>
      <trkpt lat="41.06524" lon="-2.65597">
        <ele>978.3</ele>
      </trkpt>
      <trkpt lat="41.0652" lon="-2.65569">
        <ele>976.9</ele>
      </trkpt>
      <trkpt lat="41.06545" lon="-2.65528">
        <ele>976.3</ele>
      </trkpt>
      <trkpt lat="41.06546" lon="-2.65515">
        <ele>976.2</ele>
      </trkpt>
      <trkpt lat="41.06477" lon="-2.65427">
        <ele>975.4</ele>
      </trkpt>
      <trkpt lat="41.0646" lon="-2.654">
        <ele>974.4</ele>
      </trkpt>
      <trkpt lat="41.06457" lon="-2.65389">
        <ele>974</ele>
      </trkpt>
      <trkpt lat="41.06448" lon="-2.65232">
        <ele>975</ele>
      </trkpt>
      <trkpt lat="41.06439" lon="-2.65216">
        <ele>974.8</ele>
      </trkpt>
      <trkpt lat="41.06411" lon="-2.65202">
        <ele>974.7</ele>
      </trkpt>
      <trkpt lat="41.06404" lon="-2.6519">
        <ele>974.9</ele>
      </trkpt>
      <trkpt lat="41.06399" lon="-2.65187">
        <ele>974.9</ele>
      </trkpt>
      <trkpt lat="41.06402" lon="-2.65158">
        <ele>974.7</ele>
      </trkpt>
      <trkpt lat="41.06401" lon="-2.65139">
        <ele>975</ele>
      </trkpt>
      <trkpt lat="41.06397" lon="-2.65124">
        <ele>975</ele>
      </trkpt>
      <trkpt lat="41.06384" lon="-2.65089">
        <ele>975.1</ele>
      </trkpt>
      <trkpt lat="41.06371" lon="-2.65039">
        <ele>977.2</ele>
      </trkpt>
      <trkpt lat="41.06363" lon="-2.6502">
        <ele>978</ele>
      </trkpt>
      <trkpt lat="41.06357" lon="-2.65012">
        <ele>978.3</ele>
      </trkpt>
      <trkpt lat="41.06328" lon="-2.64993">
        <ele>981.4</ele>
      </trkpt>
      <trkpt lat="41.06319" lon="-2.64983">
        <ele>982.6</ele>
      </trkpt>
      <trkpt lat="41.06311" lon="-2.64971">
        <ele>984</ele>
      </trkpt>
      <trkpt lat="41.06302" lon="-2.64952">
        <ele>985.4</ele>
      </trkpt>
      <trkpt lat="41.06283" lon="-2.6493">
        <ele>987.1</ele>
      </trkpt>
      <trkpt lat="41.06269" lon="-2.64893">
        <ele>989.2</ele>
      </trkpt>
      <trkpt lat="41.06264" lon="-2.64874">
        <ele>990.3</ele>
      </trkpt>
      <trkpt lat="41.06266" lon="-2.64837">
        <ele>991.1</ele>
      </trkpt>
      <trkpt lat="41.0629" lon="-2.64739">
        <ele>994</ele>
      </trkpt>
      <trkpt lat="41.06262" lon="-2.64735">
        <ele>995.4</ele>
      </trkpt>
      <trkpt lat="41.06226" lon="-2.64725">
        <ele>997.6</ele>
      </trkpt>
      <trkpt lat="41.06209" lon="-2.64717">
        <ele>998.5</ele>
      </trkpt>
      <trkpt lat="41.06174" lon="-2.64695">
        <ele>1000.7</ele>
      </trkpt>
      <trkpt lat="41.06175" lon="-2.6468">
        <ele>1000.7</ele>
      </trkpt>
      <trkpt lat="41.06172" lon="-2.64668">
        <ele>1000.8</ele>
      </trkpt>
      <trkpt lat="41.06154" lon="-2.64628">
        <ele>1001.2</ele>
      </trkpt>
      <trkpt lat="41.06094" lon="-2.64482">
        <ele>1002.4</ele>
      </trkpt>
      <trkpt lat="41.06079" lon="-2.6445">
        <ele>1003.6</ele>
      </trkpt>
      <trkpt lat="41.06064" lon="-2.64426">
        <ele>1003.6</ele>
      </trkpt>
      <trkpt lat="41.06049" lon="-2.64409">
        <ele>1003.5</ele>
      </trkpt>
      <trkpt lat="41.06032" lon="-2.64395">
        <ele>1003.9</ele>
      </trkpt>
      <trkpt lat="41.05838" lon="-2.64255">
        <ele>1015.3</ele>
      </trkpt>
      <trkpt lat="41.05814" lon="-2.64239">
        <ele>1017.4</ele>
      </trkpt>
      <trkpt lat="41.05795" lon="-2.64229">
        <ele>1017.9</ele>
      </trkpt>
      <trkpt lat="41.05728" lon="-2.64206">
        <ele>1021.6</ele>
      </trkpt>
      <trkpt lat="41.05307" lon="-2.64088">
        <ele>1035.5</ele>
      </trkpt>
      <trkpt lat="41.05289" lon="-2.64082">
        <ele>1036.5</ele>
      </trkpt>
      <trkpt lat="41.05263" lon="-2.6407">
        <ele>1036.8</ele>
      </trkpt>
      <trkpt lat="41.05241" lon="-2.64054">
        <ele>1038.6</ele>
      </trkpt>
      <trkpt lat="41.05224" lon="-2.64036">
        <ele>1039.9</ele>
      </trkpt>
      <trkpt lat="41.05216" lon="-2.64025">
        <ele>1041.5</ele>
      </trkpt>
      <trkpt lat="41.05197" lon="-2.63987">
        <ele>1043.3</ele>
      </trkpt>
      <trkpt lat="41.05187" lon="-2.63955">
        <ele>1044.7</ele>
      </trkpt>
      <trkpt lat="41.05181" lon="-2.63915">
        <ele>1045.4</ele>
      </trkpt>
      <trkpt lat="41.0517" lon="-2.63794">
        <ele>1047.5</ele>
      </trkpt>
      <trkpt lat="41.05121" lon="-2.63237">
        <ele>1063.5</ele>
      </trkpt>
      <trkpt lat="41.05116" lon="-2.63164">
        <ele>1066.3</ele>
      </trkpt>
      <trkpt lat="41.05105" lon="-2.62357">
        <ele>1076.7</ele>
      </trkpt>
      <trkpt lat="41.05108" lon="-2.62291">
        <ele>1077.7</ele>
      </trkpt>
      <trkpt lat="41.05113" lon="-2.62259">
        <ele>1078.5</ele>
      </trkpt>
      <trkpt lat="41.05123" lon="-2.62216">
        <ele>1078.9</ele>
      </trkpt>
      <trkpt lat="41.05153" lon="-2.62104">
        <ele>1082.1</ele>
      </trkpt>
      <trkpt lat="41.05161" lon="-2.62068">
        <ele>1083.3</ele>
      </trkpt>
      <trkpt lat="41.0517" lon="-2.62016">
        <ele>1084.1</ele>
      </trkpt>
      <trkpt lat="41.05238" lon="-2.61558">
        <ele>1091.3</ele>
      </trkpt>
      <trkpt lat="41.05331" lon="-2.60849">
        <ele>1100.3</ele>
      </trkpt>
      <trkpt lat="41.05341" lon="-2.60795">
        <ele>1100.1</ele>
      </trkpt>
      <trkpt lat="41.05355" lon="-2.60747">
        <ele>1100.5</ele>
      </trkpt>
      <trkpt lat="41.05405" lon="-2.60602">
        <ele>1103.5</ele>
      </trkpt>
      <trkpt lat="41.05427" lon="-2.60522">
        <ele>1104.4</ele>
      </trkpt>
      <trkpt lat="41.05437" lon="-2.60466">
        <ele>1105.3</ele>
      </trkpt>
      <trkpt lat="41.05451" lon="-2.60333">
        <ele>1107.1</ele>
      </trkpt>
      <trkpt lat="41.05457" lon="-2.60301">
        <ele>1107.4</ele>
      </trkpt>
      <trkpt lat="41.05462" lon="-2.60283">
        <ele>1107.3</ele>
      </trkpt>
      <trkpt lat="41.05477" lon="-2.60239">
        <ele>1109.4</ele>
      </trkpt>
      <trkpt lat="41.05637" lon="-2.5981">
        <ele>1119.1</ele>
      </trkpt>
      <trkpt lat="41.05652" lon="-2.59766">
        <ele>1120.9</ele>
      </trkpt>
      <trkpt lat="41.05661" lon="-2.59727">
        <ele>1122.1</ele>
      </trkpt>
      <trkpt lat="41.05793" lon="-2.58486">
        <ele>1113.3</ele>
      </trkpt>
      <trkpt lat="41.05801" lon="-2.58424">
        <ele>1112.9</ele>
      </trkpt>
      <trkpt lat="41.05808" lon="-2.58387">
        <ele>1112.3</ele>
      </trkpt>
      <trkpt lat="41.05866" lon="-2.5814">
        <ele>1107</ele>
      </trkpt>
      <trkpt lat="41.059" lon="-2.57986">
        <ele>1106.7</ele>
      </trkpt>
      <trkpt lat="41.05982" lon="-2.57639">
        <ele>1114.8</ele>
      </trkpt>
      <trkpt lat="41.06223" lon="-2.56583">
        <ele>1114</ele>
      </trkpt>
      <trkpt lat="41.06239" lon="-2.56518">
        <ele>1114.6</ele>
      </trkpt>
      <trkpt lat="41.0625" lon="-2.56482">
        <ele>1115.6</ele>
      </trkpt>
      <trkpt lat="41.0626" lon="-2.56456">
        <ele>1116.4</ele>
      </trkpt>
      <trkpt lat="41.06282" lon="-2.56407">
        <ele>1117.2</ele>
      </trkpt>
      <trkpt lat="41.06734" lon="-2.55449">
        <ele>1129.5</ele>
      </trkpt>
      <trkpt lat="41.07017" lon="-2.54895">
        <ele>1117.1</ele>
      </trkpt>
      <trkpt lat="41.07035" lon="-2.54854">
        <ele>1116.7</ele>
      </trkpt>
      <trkpt lat="41.07043" lon="-2.5483">
        <ele>1116.9</ele>
      </trkpt>
      <trkpt lat="41.07048" lon="-2.54804">
        <ele>1115.7</ele>
      </trkpt>
      <trkpt lat="41.07049" lon="-2.54775">
        <ele>1115.5</ele>
      </trkpt>
      <trkpt lat="41.07046" lon="-2.54736">
        <ele>1114.2</ele>
      </trkpt>
      <trkpt lat="41.07035" lon="-2.54662">
        <ele>1113.1</ele>
      </trkpt>
      <trkpt lat="41.06956" lon="-2.54155">
        <ele>1105.8</ele>
      </trkpt>
      <trkpt lat="41.06943" lon="-2.54085">
        <ele>1104.9</ele>
      </trkpt>
      <trkpt lat="41.06925" lon="-2.54017">
        <ele>1102.9</ele>
      </trkpt>
      <trkpt lat="41.06808" lon="-2.53638">
        <ele>1097.7</ele>
      </trkpt>
      <trkpt lat="41.06784" lon="-2.53564">
        <ele>1096.2</ele>
      </trkpt>
      <trkpt lat="41.06768" lon="-2.53521">
        <ele>1095.8</ele>
      </trkpt>
      <trkpt lat="41.06749" lon="-2.53478">
        <ele>1096.1</ele>
      </trkpt>
      <trkpt lat="41.06726" lon="-2.53435">
        <ele>1095.5</ele>
      </trkpt>
      <trkpt lat="41.06444" lon="-2.5293">
        <ele>1091</ele>
      </trkpt>
      <trkpt lat="41.06059" lon="-2.52235">
        <ele>1098.9</ele>
      </trkpt>
      <trkpt lat="41.06036" lon="-2.52191">
        <ele>1100.7</ele>
      </trkpt>
      <trkpt lat="41.06023" lon="-2.52156">
        <ele>1100.3</ele>
      </trkpt>
      <trkpt lat="41.06012" lon="-2.52112">
        <ele>1100</ele>
      </trkpt>
      <trkpt lat="41.06009" lon="-2.52093">
        <ele>1101.3</ele>
      </trkpt>
      <trkpt lat="41.06006" lon="-2.52052">
        <ele>1104.3</ele>
      </trkpt>
      <trkpt lat="41.06007" lon="-2.52006">
        <ele>1107.5</ele>
      </trkpt>
      <trkpt lat="41.06017" lon="-2.5194">
        <ele>1102.6</ele>
      </trkpt>
      <trkpt lat="41.06041" lon="-2.51833">
        <ele>1114.2</ele>
      </trkpt>
      <trkpt lat="41.06048" lon="-2.51781">
        <ele>1113.1</ele>
      </trkpt>
      <trkpt lat="41.06053" lon="-2.51713">
        <ele>1111.5</ele>
      </trkpt>
      <trkpt lat="41.06053" lon="-2.51686">
        <ele>1111.6</ele>
      </trkpt>
      <trkpt lat="41.06051" lon="-2.5166">
        <ele>1111.7</ele>
      </trkpt>
      <trkpt lat="41.06044" lon="-2.51612">
        <ele>1107.7</ele>
      </trkpt>
      <trkpt lat="41.06038" lon="-2.51587">
        <ele>1107.5</ele>
      </trkpt>
      <trkpt lat="41.06023" lon="-2.51543">
        <ele>1111.1</ele>
      </trkpt>
      <trkpt lat="41.06004" lon="-2.51502">
        <ele>1111.2</ele>
      </trkpt>
      <trkpt lat="41.05979" lon="-2.5146">
        <ele>1111.6</ele>
      </trkpt>
      <trkpt lat="41.05944" lon="-2.51419">
        <ele>1115.2</ele>
      </trkpt>
      <trkpt lat="41.05911" lon="-2.51389">
        <ele>1119</ele>
      </trkpt>
      <trkpt lat="41.05893" lon="-2.51375">
        <ele>1120.1</ele>
      </trkpt>
      <trkpt lat="41.05866" lon="-2.51356">
        <ele>1118.8</ele>
      </trkpt>
      <trkpt lat="41.05829" lon="-2.51333">
        <ele>1121.6</ele>
      </trkpt>
      <trkpt lat="41.05801" lon="-2.51319">
        <ele>1123.8</ele>
      </trkpt>
      <trkpt lat="41.05775" lon="-2.51309">
        <ele>1124.9</ele>
      </trkpt>
      <trkpt lat="41.05715" lon="-2.51291">
        <ele>1119.4</ele>
      </trkpt>
      <trkpt lat="41.05656" lon="-2.51267">
        <ele>1123.2</ele>
      </trkpt>
      <trkpt lat="41.05637" lon="-2.51255">
        <ele>1122.7</ele>
      </trkpt>
      <trkpt lat="41.05615" lon="-2.51237">
        <ele>1123.3</ele>
      </trkpt>
      <trkpt lat="41.05591" lon="-2.51208">
        <ele>1122.1</ele>
      </trkpt>
      <trkpt lat="41.05569" lon="-2.51174">
        <ele>1122.1</ele>
      </trkpt>
      <trkpt lat="41.0555" lon="-2.5114">
        <ele>1122.1</ele>
      </trkpt>
      <trkpt lat="41.05535" lon="-2.51109">
        <ele>1124.7</ele>
      </trkpt>
      <trkpt lat="41.05523" lon="-2.5107">
        <ele>1125.8</ele>
      </trkpt>
      <trkpt lat="41.05514" lon="-2.5101">
        <ele>1125.6</ele>
      </trkpt>
      <trkpt lat="41.05512" lon="-2.50966">
        <ele>1120.5</ele>
      </trkpt>
      <trkpt lat="41.05515" lon="-2.50917">
        <ele>1126.3</ele>
      </trkpt>
      <trkpt lat="41.05522" lon="-2.50877">
        <ele>1124.4</ele>
      </trkpt>
      <trkpt lat="41.05533" lon="-2.50838">
        <ele>1124.1</ele>
      </trkpt>
      <trkpt lat="41.05548" lon="-2.50799">
        <ele>1126.2</ele>
      </trkpt>
      <trkpt lat="41.05611" lon="-2.50669">
        <ele>1126.8</ele>
      </trkpt>
      <trkpt lat="41.05634" lon="-2.50614">
        <ele>1128.8</ele>
      </trkpt>
      <trkpt lat="41.05646" lon="-2.50568">
        <ele>1127</ele>
      </trkpt>
      <trkpt lat="41.05654" lon="-2.50515">
        <ele>1130.7</ele>
      </trkpt>
      <trkpt lat="41.05655" lon="-2.50488">
        <ele>1130.2</ele>
      </trkpt>
      <trkpt lat="41.05652" lon="-2.5045">
        <ele>1127.6</ele>
      </trkpt>
      <trkpt lat="41.05627" lon="-2.50269">
        <ele>1131.8</ele>
      </trkpt>
      <trkpt lat="41.05601" lon="-2.50062">
        <ele>1134.5</ele>
      </trkpt>
      <trkpt lat="41.05595" lon="-2.49983">
        <ele>1133.5</ele>
      </trkpt>
      <trkpt lat="41.05595" lon="-2.49952">
        <ele>1133.3</ele>
      </trkpt>
      <trkpt lat="41.05598" lon="-2.49918">
        <ele>1132</ele>
      </trkpt>
      <trkpt lat="41.05609" lon="-2.49871">
        <ele>1133.5</ele>
      </trkpt>
      <trkpt lat="41.05628" lon="-2.4982">
        <ele>1134.5</ele>
      </trkpt>
      <trkpt lat="41.05637" lon="-2.498">
        <ele>1134.4</ele>
      </trkpt>
      <trkpt lat="41.05686" lon="-2.49702">
        <ele>1138.1</ele>
      </trkpt>
      <trkpt lat="41.05699" lon="-2.49664">
        <ele>1136</ele>
      </trkpt>
      <trkpt lat="41.05705" lon="-2.49638">
        <ele>1138.1</ele>
      </trkpt>
      <trkpt lat="41.0571" lon="-2.49598">
        <ele>1137.9</ele>
      </trkpt>
      <trkpt lat="41.0571" lon="-2.49529">
        <ele>1136.7</ele>
      </trkpt>
      <trkpt lat="41.05707" lon="-2.49503">
        <ele>1137.6</ele>
      </trkpt>
      <trkpt lat="41.05702" lon="-2.49478">
        <ele>1135.7</ele>
      </trkpt>
      <trkpt lat="41.05688" lon="-2.49432">
        <ele>1136.2</ele>
      </trkpt>
      <trkpt lat="41.05681" lon="-2.49415">
        <ele>1135.9</ele>
      </trkpt>
      <trkpt lat="41.05673" lon="-2.49399">
        <ele>1135.4</ele>
      </trkpt>
      <trkpt lat="41.05655" lon="-2.49371">
        <ele>1135.3</ele>
      </trkpt>
      <trkpt lat="41.05528" lon="-2.492">
        <ele>1136</ele>
      </trkpt>
      <trkpt lat="41.05496" lon="-2.4916">
        <ele>1136.9</ele>
      </trkpt>
      <trkpt lat="41.05473" lon="-2.49137">
        <ele>1136.9</ele>
      </trkpt>
      <trkpt lat="41.05392" lon="-2.49084">
        <ele>1136.9</ele>
      </trkpt>
      <trkpt lat="41.04921" lon="-2.48787">
        <ele>1140.3</ele>
      </trkpt>
      <trkpt lat="41.04873" lon="-2.48754">
        <ele>1140.2</ele>
      </trkpt>
      <trkpt lat="41.04838" lon="-2.48724">
        <ele>1140.8</ele>
      </trkpt>
      <trkpt lat="41.04408" lon="-2.48326">
        <ele>1145.5</ele>
      </trkpt>
      <trkpt lat="41.04272" lon="-2.48202">
        <ele>1153.6</ele>
      </trkpt>
      <trkpt lat="41.04243" lon="-2.48175">
        <ele>1156.5</ele>
      </trkpt>
      <trkpt lat="41.04218" lon="-2.48149">
        <ele>1158.5</ele>
      </trkpt>
      <trkpt lat="41.04201" lon="-2.48127">
        <ele>1160.3</ele>
      </trkpt>
      <trkpt lat="41.04176" lon="-2.48086">
        <ele>1162.1</ele>
      </trkpt>
      <trkpt lat="41.03824" lon="-2.47441">
        <ele>1180.3</ele>
      </trkpt>
      <trkpt lat="41.03781" lon="-2.47357">
        <ele>1182.8</ele>
      </trkpt>
      <trkpt lat="41.03764" lon="-2.47312">
        <ele>1185</ele>
      </trkpt>
      <trkpt lat="41.03679" lon="-2.47022">
        <ele>1192.3</ele>
      </trkpt>
      <trkpt lat="41.03666" lon="-2.46987">
        <ele>1194.5</ele>
      </trkpt>
      <trkpt lat="41.03662" lon="-2.46867">
        <ele>1196.3</ele>
      </trkpt>
      <trkpt lat="41.03658" lon="-2.46644">
        <ele>1197.4</ele>
      </trkpt>
      <trkpt lat="41.0366" lon="-2.46593">
        <ele>1196.3</ele>
      </trkpt>
      <trkpt lat="41.03853" lon="-2.45424">
        <ele>1200.5</ele>
      </trkpt>
      <trkpt lat="41.03853" lon="-2.45391">
        <ele>1202.2</ele>
      </trkpt>
      <trkpt lat="41.03851" lon="-2.45363">
        <ele>1203</ele>
      </trkpt>
      <trkpt lat="41.03845" lon="-2.4534">
        <ele>1203.3</ele>
      </trkpt>
      <trkpt lat="41.03841" lon="-2.45333">
        <ele>1203.3</ele>
      </trkpt>
      <trkpt lat="41.03823" lon="-2.4531">
        <ele>1204</ele>
      </trkpt>
      <trkpt lat="41.03784" lon="-2.45295">
        <ele>1203.7</ele>
      </trkpt>
      <trkpt lat="41.03772" lon="-2.45288">
        <ele>1203.6</ele>
      </trkpt>
      <trkpt lat="41.0376" lon="-2.45278">
        <ele>1204.9</ele>
      </trkpt>
      <trkpt lat="41.03751" lon="-2.45269">
        <ele>1205.3</ele>
      </trkpt>
      <trkpt lat="41.03744" lon="-2.45259">
        <ele>1203.8</ele>
      </trkpt>
      <trkpt lat="41.03728" lon="-2.45231">
        <ele>1204.3</ele>
      </trkpt>
      <trkpt lat="41.0372" lon="-2.45209">
        <ele>1203.7</ele>
      </trkpt>
      <trkpt lat="41.03715" lon="-2.45183">
        <ele>1201.1</ele>
      </trkpt>
      <trkpt lat="41.03713" lon="-2.45165">
        <ele>1201.7</ele>
      </trkpt>
      <trkpt lat="41.03716" lon="-2.45126">
        <ele>1202.2</ele>
      </trkpt>
      <trkpt lat="41.03724" lon="-2.45095">
        <ele>1202.1</ele>
      </trkpt>
      <trkpt lat="41.03736" lon="-2.45065">
        <ele>1199.5</ele>
      </trkpt>
      <trkpt lat="41.03763" lon="-2.45017">
        <ele>1196.7</ele>
      </trkpt>
      <trkpt lat="41.03821" lon="-2.44917">
        <ele>1195</ele>
      </trkpt>
      <trkpt lat="41.03855" lon="-2.44862">
        <ele>1197.5</ele>
      </trkpt>
      <trkpt lat="41.03875" lon="-2.44834">
        <ele>1199.5</ele>
      </trkpt>
      <trkpt lat="41.03897" lon="-2.44808">
        <ele>1201.5</ele>
      </trkpt>
      <trkpt lat="41.03922" lon="-2.44783">
        <ele>1202.2</ele>
      </trkpt>
      <trkpt lat="41.03939" lon="-2.4476">
        <ele>1201.6</ele>
      </trkpt>
      <trkpt lat="41.03946" lon="-2.44743">
        <ele>1201</ele>
      </trkpt>
      <trkpt lat="41.03947" lon="-2.44731">
        <ele>1201</ele>
      </trkpt>
      <trkpt lat="41.0395" lon="-2.44722">
        <ele>1201</ele>
      </trkpt>
      <trkpt lat="41.03954" lon="-2.44714">
        <ele>1201.3</ele>
      </trkpt>
      <trkpt lat="41.0396" lon="-2.44709">
        <ele>1201.2</ele>
      </trkpt>
      <trkpt lat="41.03968" lon="-2.44683">
        <ele>1200.5</ele>
      </trkpt>
      <trkpt lat="41.03972" lon="-2.44664">
        <ele>1199.9</ele>
      </trkpt>
      <trkpt lat="41.03979" lon="-2.44608">
        <ele>1204.3</ele>
      </trkpt>
      <trkpt lat="41.03986" lon="-2.44572">
        <ele>1201.9</ele>
      </trkpt>
      <trkpt lat="41.04002" lon="-2.44503">
        <ele>1197.2</ele>
      </trkpt>
      <trkpt lat="41.04031" lon="-2.44402">
        <ele>1196.1</ele>
      </trkpt>
      <trkpt lat="41.04047" lon="-2.44318">
        <ele>1195.4</ele>
      </trkpt>
      <trkpt lat="41.0416" lon="-2.43667">
        <ele>1189.5</ele>
      </trkpt>
      <trkpt lat="41.04268" lon="-2.43067">
        <ele>1192.4</ele>
      </trkpt>
      <trkpt lat="41.04295" lon="-2.42911">
        <ele>1187.8</ele>
      </trkpt>
      <trkpt lat="41.04301" lon="-2.42856">
        <ele>1186.7</ele>
      </trkpt>
      <trkpt lat="41.04301" lon="-2.42815">
        <ele>1185.2</ele>
      </trkpt>
      <trkpt lat="41.04298" lon="-2.42781">
        <ele>1183.8</ele>
      </trkpt>
      <trkpt lat="41.04291" lon="-2.42738">
        <ele>1182.6</ele>
      </trkpt>
      <trkpt lat="41.04274" lon="-2.42678">
        <ele>1182</ele>
      </trkpt>
      <trkpt lat="41.04211" lon="-2.42517">
        <ele>1184</ele>
      </trkpt>
      <trkpt lat="41.04189" lon="-2.42455">
        <ele>1182</ele>
      </trkpt>
      <trkpt lat="41.04151" lon="-2.42326">
        <ele>1179.1</ele>
      </trkpt>
      <trkpt lat="41.04118" lon="-2.42189">
        <ele>1167.6</ele>
      </trkpt>
      <trkpt lat="41.04107" lon="-2.42149">
        <ele>1166.7</ele>
      </trkpt>
      <trkpt lat="41.04092" lon="-2.42106">
        <ele>1162.2</ele>
      </trkpt>
      <trkpt lat="41.04063" lon="-2.42046">
        <ele>1159</ele>
      </trkpt>
      <trkpt lat="41.04034" lon="-2.41991">
        <ele>1157.7</ele>
      </trkpt>
      <trkpt lat="41.04008" lon="-2.41935">
        <ele>1153</ele>
      </trkpt>
      <trkpt lat="41.03991" lon="-2.41874">
        <ele>1150.8</ele>
      </trkpt>
      <trkpt lat="41.03983" lon="-2.41823">
        <ele>1148.6</ele>
      </trkpt>
      <trkpt lat="41.0398" lon="-2.41787">
        <ele>1147.2</ele>
      </trkpt>
      <trkpt lat="41.03979" lon="-2.41749">
        <ele>1145.2</ele>
      </trkpt>
      <trkpt lat="41.03981" lon="-2.41701">
        <ele>1144.4</ele>
      </trkpt>
      <trkpt lat="41.03993" lon="-2.41599">
        <ele>1140.3</ele>
      </trkpt>
      <trkpt lat="41.03998" lon="-2.41528">
        <ele>1137.2</ele>
      </trkpt>
      <trkpt lat="41.03999" lon="-2.41443">
        <ele>1134.9</ele>
      </trkpt>
      <trkpt lat="41.03996" lon="-2.41408">
        <ele>1133.7</ele>
      </trkpt>
      <trkpt lat="41.03982" lon="-2.41316">
        <ele>1130.9</ele>
      </trkpt>
      <trkpt lat="41.03963" lon="-2.41212">
        <ele>1129.7</ele>
      </trkpt>
      <trkpt lat="41.03954" lon="-2.41142">
        <ele>1129</ele>
      </trkpt>
      <trkpt lat="41.03952" lon="-2.41062">
        <ele>1130.1</ele>
      </trkpt>
      <trkpt lat="41.03961" lon="-2.41006">
        <ele>1126.6</ele>
      </trkpt>
      <trkpt lat="41.03967" lon="-2.40977">
        <ele>1125.4</ele>
      </trkpt>
      <trkpt lat="41.03978" lon="-2.40942">
        <ele>1122</ele>
      </trkpt>
      <trkpt lat="41.03988" lon="-2.40918">
        <ele>1119.9</ele>
      </trkpt>
      <trkpt lat="41.04012" lon="-2.40871">
        <ele>1118.3</ele>
      </trkpt>
      <trkpt lat="41.04042" lon="-2.40819">
        <ele>1116.7</ele>
      </trkpt>
      <trkpt lat="41.04124" lon="-2.40685">
        <ele>1112.9</ele>
      </trkpt>
      <trkpt lat="41.04146" lon="-2.40652">
        <ele>1111.7</ele>
      </trkpt>
      <trkpt lat="41.04223" lon="-2.40523">
        <ele>1109.8</ele>
      </trkpt>
      <trkpt lat="41.04438" lon="-2.40173">
        <ele>1105</ele>
      </trkpt>
      <trkpt lat="41.04504" lon="-2.40062">
        <ele>1104.9</ele>
      </trkpt>
      <trkpt lat="41.04655" lon="-2.39819">
        <ele>1099.1</ele>
      </trkpt>
      <trkpt lat="41.04971" lon="-2.39299">
        <ele>1098.7</ele>
      </trkpt>
      <trkpt lat="41.05006" lon="-2.39236">
        <ele>1100.3</ele>
      </trkpt>
      <trkpt lat="41.05058" lon="-2.39132">
        <ele>1104.1</ele>
      </trkpt>
      <trkpt lat="41.05073" lon="-2.39105">
        <ele>1105.5</ele>
      </trkpt>
      <trkpt lat="41.05107" lon="-2.39054">
        <ele>1108.7</ele>
      </trkpt>
      <trkpt lat="41.05174" lon="-2.38969">
        <ele>1112.1</ele>
      </trkpt>
      <trkpt lat="41.05243" lon="-2.38886">
        <ele>1116.3</ele>
      </trkpt>
      <trkpt lat="41.05339" lon="-2.38762">
        <ele>1125</ele>
      </trkpt>
      <trkpt lat="41.05362" lon="-2.38727">
        <ele>1126.8</ele>
      </trkpt>
      <trkpt lat="41.05378" lon="-2.38693">
        <ele>1129.5</ele>
      </trkpt>
      <trkpt lat="41.05385" lon="-2.38673">
        <ele>1130</ele>
      </trkpt>
      <trkpt lat="41.05402" lon="-2.38598">
        <ele>1132.3</ele>
      </trkpt>
      <trkpt lat="41.05412" lon="-2.38504">
        <ele>1137.8</ele>
      </trkpt>
      <trkpt lat="41.05422" lon="-2.38365">
        <ele>1141.7</ele>
      </trkpt>
      <trkpt lat="41.05433" lon="-2.38146">
        <ele>1152.2</ele>
      </trkpt>
      <trkpt lat="41.05433" lon="-2.3803">
        <ele>1153.2</ele>
      </trkpt>
      <trkpt lat="41.05427" lon="-2.37898">
        <ele>1158.5</ele>
      </trkpt>
      <trkpt lat="41.05418" lon="-2.37802">
        <ele>1160.9</ele>
      </trkpt>
      <trkpt lat="41.05412" lon="-2.37763">
        <ele>1162.7</ele>
      </trkpt>
      <trkpt lat="41.054" lon="-2.37723">
        <ele>1162.5</ele>
      </trkpt>
      <trkpt lat="41.05385" lon="-2.37685">
        <ele>1163.8</ele>
      </trkpt>
      <trkpt lat="41.05365" lon="-2.37649">
        <ele>1164.5</ele>
      </trkpt>
      <trkpt lat="41.05346" lon="-2.3762">
        <ele>1165.5</ele>
      </trkpt>
      <trkpt lat="41.05317" lon="-2.37586">
        <ele>1167.4</ele>
      </trkpt>
      <trkpt lat="41.05298" lon="-2.37567">
        <ele>1168</ele>
      </trkpt>
      <trkpt lat="41.05275" lon="-2.37552">
        <ele>1169.7</ele>
      </trkpt>
      <trkpt lat="41.05248" lon="-2.37537">
        <ele>1170.9</ele>
      </trkpt>
      <trkpt lat="41.05203" lon="-2.37517">
        <ele>1173.1</ele>
      </trkpt>
      <trkpt lat="41.05131" lon="-2.37489">
        <ele>1175.4</ele>
      </trkpt>
      <trkpt lat="41.05101" lon="-2.3747">
        <ele>1177.2</ele>
      </trkpt>
      <trkpt lat="41.05075" lon="-2.3745">
        <ele>1178</ele>
      </trkpt>
      <trkpt lat="41.05055" lon="-2.37424">
        <ele>1180</ele>
      </trkpt>
      <trkpt lat="41.05034" lon="-2.37393">
        <ele>1181.2</ele>
      </trkpt>
      <trkpt lat="41.05009" lon="-2.37335">
        <ele>1183.7</ele>
      </trkpt>
      <trkpt lat="41.04999" lon="-2.37307">
        <ele>1185.1</ele>
      </trkpt>
      <trkpt lat="41.04902" lon="-2.37023">
        <ele>1197.1</ele>
      </trkpt>
      <trkpt lat="41.04848" lon="-2.36859">
        <ele>1205.4</ele>
      </trkpt>
      <trkpt lat="41.0483" lon="-2.36789">
        <ele>1209</ele>
      </trkpt>
      <trkpt lat="41.04814" lon="-2.3671">
        <ele>1210.1</ele>
      </trkpt>
      <trkpt lat="41.04807" lon="-2.36665">
        <ele>1212</ele>
      </trkpt>
      <trkpt lat="41.04803" lon="-2.36619">
        <ele>1213.9</ele>
      </trkpt>
      <trkpt lat="41.04803" lon="-2.36567">
        <ele>1216</ele>
      </trkpt>
      <trkpt lat="41.04808" lon="-2.36504">
        <ele>1217.7</ele>
      </trkpt>
      <trkpt lat="41.04812" lon="-2.36479">
        <ele>1218.5</ele>
      </trkpt>
      <trkpt lat="41.04822" lon="-2.36437">
        <ele>1219.7</ele>
      </trkpt>
      <trkpt lat="41.04832" lon="-2.36404">
        <ele>1221</ele>
      </trkpt>
      <trkpt lat="41.04865" lon="-2.36322">
        <ele>1222.5</ele>
      </trkpt>
      <trkpt lat="41.04903" lon="-2.36245">
        <ele>1222.4</ele>
      </trkpt>
      <trkpt lat="41.04927" lon="-2.3619">
        <ele>1221.8</ele>
      </trkpt>
      <trkpt lat="41.04944" lon="-2.36131">
        <ele>1221.9</ele>
      </trkpt>
      <trkpt lat="41.0495" lon="-2.361">
        <ele>1221.3</ele>
      </trkpt>
      <trkpt lat="41.04957" lon="-2.36037">
        <ele>1219.5</ele>
      </trkpt>
      <trkpt lat="41.04985" lon="-2.33749">
        <ele>1228</ele>
      </trkpt>
      <trkpt lat="41.04989" lon="-2.33216">
        <ele>1230.4</ele>
      </trkpt>
      <trkpt lat="41.04987" lon="-2.33144">
        <ele>1230.1</ele>
      </trkpt>
      <trkpt lat="41.04947" lon="-2.3243">
        <ele>1217.6</ele>
      </trkpt>
      <trkpt lat="41.04897" lon="-2.31585">
        <ele>1226</ele>
      </trkpt>
      <trkpt lat="41.04876" lon="-2.31257">
        <ele>1225.7</ele>
      </trkpt>
      <trkpt lat="41.04858" lon="-2.31121">
        <ele>1224.4</ele>
      </trkpt>
      <trkpt lat="41.0484" lon="-2.31028">
        <ele>1222.8</ele>
      </trkpt>
      <trkpt lat="41.04794" lon="-2.30831">
        <ele>1219.9</ele>
      </trkpt>
      <trkpt lat="41.04782" lon="-2.30737">
        <ele>1218.7</ele>
      </trkpt>
      <trkpt lat="41.04779" lon="-2.30681">
        <ele>1218</ele>
      </trkpt>
      <trkpt lat="41.04773" lon="-2.30388">
        <ele>1221.8</ele>
      </trkpt>
      <trkpt lat="41.04767" lon="-2.29736">
        <ele>1222.8</ele>
      </trkpt>
      <trkpt lat="41.04756" lon="-2.29173">
        <ele>1227.8</ele>
      </trkpt>
      <trkpt lat="41.04751" lon="-2.2906">
        <ele>1230.8</ele>
      </trkpt>
      <trkpt lat="41.04733" lon="-2.28761">
        <ele>1234</ele>
      </trkpt>
      <trkpt lat="41.04731" lon="-2.28703">
        <ele>1234.7</ele>
      </trkpt>
      <trkpt lat="41.04685" lon="-2.27861">
        <ele>1238</ele>
      </trkpt>
      <trkpt lat="41.04671" lon="-2.27549">
        <ele>1243.6</ele>
      </trkpt>
      <trkpt lat="41.04654" lon="-2.27277">
        <ele>1246.5</ele>
      </trkpt>
      <trkpt lat="41.04635" lon="-2.26906">
        <ele>1251.8</ele>
      </trkpt>
      <trkpt lat="41.04627" lon="-2.26782">
        <ele>1248.4</ele>
      </trkpt>
      <trkpt lat="41.0462" lon="-2.26708">
        <ele>1250.7</ele>
      </trkpt>
      <trkpt lat="41.04607" lon="-2.26628">
        <ele>1252.9</ele>
      </trkpt>
      <trkpt lat="41.04538" lon="-2.2633">
        <ele>1249.6</ele>
      </trkpt>
      <trkpt lat="41.04533" lon="-2.26302">
        <ele>1249.6</ele>
      </trkpt>
      <trkpt lat="41.0453" lon="-2.26265">
        <ele>1249.3</ele>
      </trkpt>
      <trkpt lat="41.0453" lon="-2.26231">
        <ele>1248.8</ele>
      </trkpt>
      <trkpt lat="41.04533" lon="-2.26175">
        <ele>1248.1</ele>
      </trkpt>
      <trkpt lat="41.04563" lon="-2.25894">
        <ele>1255.1</ele>
      </trkpt>
      <trkpt lat="41.04563" lon="-2.25871">
        <ele>1255.9</ele>
      </trkpt>
      <trkpt lat="41.04559" lon="-2.25812">
        <ele>1257.8</ele>
      </trkpt>
      <trkpt lat="41.0456" lon="-2.25795">
        <ele>1258.4</ele>
      </trkpt>
      <trkpt lat="41.04564" lon="-2.25776">
        <ele>1259.4</ele>
      </trkpt>
      <trkpt lat="41.04583" lon="-2.25715">
        <ele>1263.3</ele>
      </trkpt>
      <trkpt lat="41.04605" lon="-2.25655">
        <ele>1265.8</ele>
      </trkpt>
      <trkpt lat="41.04618" lon="-2.25626">
        <ele>1267.2</ele>
      </trkpt>
      <trkpt lat="41.04632" lon="-2.25578">
        <ele>1269.2</ele>
      </trkpt>
      <trkpt lat="41.04647" lon="-2.25508">
        <ele>1272.2</ele>
      </trkpt>
      <trkpt lat="41.04657" lon="-2.25399">
        <ele>1274</ele>
      </trkpt>
      <trkpt lat="41.04659" lon="-2.25364">
        <ele>1274</ele>
      </trkpt>
      <trkpt lat="41.0466" lon="-2.25292">
        <ele>1275.5</ele>
      </trkpt>
      <trkpt lat="41.0465" lon="-2.25199">
        <ele>1278.2</ele>
      </trkpt>
      <trkpt lat="41.04638" lon="-2.2513">
        <ele>1281</ele>
      </trkpt>
      <trkpt lat="41.04623" lon="-2.25022">
        <ele>1283.6</ele>
      </trkpt>
      <trkpt lat="41.04622" lon="-2.24945">
        <ele>1283</ele>
      </trkpt>
      <trkpt lat="41.04616" lon="-2.24869">
        <ele>1281.6</ele>
      </trkpt>
      <trkpt lat="41.0462" lon="-2.24801">
        <ele>1281.5</ele>
      </trkpt>
      <trkpt lat="41.04624" lon="-2.24781">
        <ele>1282.3</ele>
      </trkpt>
      <trkpt lat="41.04637" lon="-2.2474">
        <ele>1281.6</ele>
      </trkpt>
      <trkpt lat="41.04667" lon="-2.24669">
        <ele>1277.2</ele>
      </trkpt>
      <trkpt lat="41.04712" lon="-2.24552">
        <ele>1271.8</ele>
      </trkpt>
      <trkpt lat="41.04732" lon="-2.24494">
        <ele>1272</ele>
      </trkpt>
      <trkpt lat="41.04743" lon="-2.24455">
        <ele>1272.8</ele>
      </trkpt>
      <trkpt lat="41.0475" lon="-2.24412">
        <ele>1274.2</ele>
      </trkpt>
      <trkpt lat="41.04756" lon="-2.24352">
        <ele>1275.2</ele>
      </trkpt>
      <trkpt lat="41.04757" lon="-2.24287">
        <ele>1276.4</ele>
      </trkpt>
      <trkpt lat="41.0476" lon="-2.24257">
        <ele>1277.5</ele>
      </trkpt>
      <trkpt lat="41.04732" lon="-2.23842">
        <ele>1277.6</ele>
      </trkpt>
      <trkpt lat="41.04729" lon="-2.23731">
        <ele>1280.5</ele>
      </trkpt>
      <trkpt lat="41.0473" lon="-2.2362">
        <ele>1279.6</ele>
      </trkpt>
      <trkpt lat="41.04747" lon="-2.23143">
        <ele>1274.1</ele>
      </trkpt>
      <trkpt lat="41.04754" lon="-2.23074">
        <ele>1273.2</ele>
      </trkpt>
      <trkpt lat="41.04779" lon="-2.22944">
        <ele>1269.1</ele>
      </trkpt>
      <trkpt lat="41.0479" lon="-2.22876">
        <ele>1266.5</ele>
      </trkpt>
      <trkpt lat="41.04793" lon="-2.22834">
        <ele>1265</ele>
      </trkpt>
      <trkpt lat="41.04792" lon="-2.228">
        <ele>1263.3</ele>
      </trkpt>
      <trkpt lat="41.04783" lon="-2.22748">
        <ele>1263</ele>
      </trkpt>
      <trkpt lat="41.0477" lon="-2.22694">
        <ele>1262.5</ele>
      </trkpt>
      <trkpt lat="41.04741" lon="-2.22604">
        <ele>1262.6</ele>
      </trkpt>
      <trkpt lat="41.04733" lon="-2.22563">
        <ele>1263.2</ele>
      </trkpt>
      <trkpt lat="41.04728" lon="-2.22508">
        <ele>1262.6</ele>
      </trkpt>
      <trkpt lat="41.04741" lon="-2.21097">
        <ele>1249.5</ele>
      </trkpt>
      <trkpt lat="41.04753" lon="-2.21012">
        <ele>1247.6</ele>
      </trkpt>
      <trkpt lat="41.04791" lon="-2.20884">
        <ele>1242.1</ele>
      </trkpt>
      <trkpt lat="41.04816" lon="-2.20826">
        <ele>1242.4</ele>
      </trkpt>
      <trkpt lat="41.04842" lon="-2.20786">
        <ele>1243.5</ele>
      </trkpt>
      <trkpt lat="41.04852" lon="-2.20766">
        <ele>1243.7</ele>
      </trkpt>
      <trkpt lat="41.04866" lon="-2.20719">
        <ele>1243</ele>
      </trkpt>
      <trkpt lat="41.04866" lon="-2.20698">
        <ele>1243</ele>
      </trkpt>
      <trkpt lat="41.04863" lon="-2.2068">
        <ele>1243</ele>
      </trkpt>
      <trkpt lat="41.04835" lon="-2.20583">
        <ele>1243.9</ele>
      </trkpt>
      <trkpt lat="41.04822" lon="-2.20547">
        <ele>1244</ele>
      </trkpt>
      <trkpt lat="41.04808" lon="-2.20515">
        <ele>1244</ele>
      </trkpt>
      <trkpt lat="41.04787" lon="-2.20477">
        <ele>1244</ele>
      </trkpt>
      <trkpt lat="41.04756" lon="-2.20436">
        <ele>1244</ele>
      </trkpt>
      <trkpt lat="41.04717" lon="-2.2039">
        <ele>1244.2</ele>
      </trkpt>
      <trkpt lat="41.0469" lon="-2.20355">
        <ele>1245</ele>
      </trkpt>
      <trkpt lat="41.04682" lon="-2.20347">
        <ele>1245</ele>
      </trkpt>
      <trkpt lat="41.04636" lon="-2.2031">
        <ele>1245.9</ele>
      </trkpt>
      <trkpt lat="41.04587" lon="-2.20263">
        <ele>1245.9</ele>
      </trkpt>
      <trkpt lat="41.0383" lon="-2.19599">
        <ele>1258.9</ele>
      </trkpt>
      <trkpt lat="41.03791" lon="-2.19564">
        <ele>1260</ele>
      </trkpt>
      <trkpt lat="41.03762" lon="-2.19535">
        <ele>1260.9</ele>
      </trkpt>
      <trkpt lat="41.03282" lon="-2.18995">
        <ele>1254</ele>
      </trkpt>
      <trkpt lat="41.03259" lon="-2.18967">
        <ele>1253.9</ele>
      </trkpt>
      <trkpt lat="41.03192" lon="-2.18893">
        <ele>1254.1</ele>
      </trkpt>
      <trkpt lat="41.03096" lon="-2.18782">
        <ele>1254.2</ele>
      </trkpt>
      <trkpt lat="41.03009" lon="-2.18686">
        <ele>1253.4</ele>
      </trkpt>
      <trkpt lat="41.02988" lon="-2.18667">
        <ele>1253</ele>
      </trkpt>
      <trkpt lat="41.02971" lon="-2.18654">
        <ele>1253</ele>
      </trkpt>
      <trkpt lat="41.02936" lon="-2.18634">
        <ele>1252.9</ele>
      </trkpt>
      <trkpt lat="41.02897" lon="-2.18622">
        <ele>1253</ele>
      </trkpt>
      <trkpt lat="41.02878" lon="-2.18619">
        <ele>1252.7</ele>
      </trkpt>
      <trkpt lat="41.02837" lon="-2.18618">
        <ele>1252.2</ele>
      </trkpt>
      <trkpt lat="41.02814" lon="-2.1862">
        <ele>1251.8</ele>
      </trkpt>
      <trkpt lat="41.02747" lon="-2.1863">
        <ele>1251.4</ele>
      </trkpt>
      <trkpt lat="41.02724" lon="-2.18635">
        <ele>1251.7</ele>
      </trkpt>
      <trkpt lat="41.027" lon="-2.18642">
        <ele>1252.3</ele>
      </trkpt>
      <trkpt lat="41.02678" lon="-2.18651">
        <ele>1252.2</ele>
      </trkpt>
      <trkpt lat="41.02646" lon="-2.18668">
        <ele>1252.2</ele>
      </trkpt>
      <trkpt lat="41.0261" lon="-2.18692">
        <ele>1251.8</ele>
      </trkpt>
      <trkpt lat="41.02536" lon="-2.1875">
        <ele>1251</ele>
      </trkpt>
      <trkpt lat="41.02479" lon="-2.18779">
        <ele>1250.4</ele>
      </trkpt>
      <trkpt lat="41.02447" lon="-2.18786">
        <ele>1251.8</ele>
      </trkpt>
      <trkpt lat="41.02417" lon="-2.18786">
        <ele>1251</ele>
      </trkpt>
      <trkpt lat="41.0239" lon="-2.18783">
        <ele>1249.7</ele>
      </trkpt>
      <trkpt lat="41.02364" lon="-2.18775">
        <ele>1250</ele>
      </trkpt>
      <trkpt lat="41.02337" lon="-2.18763">
        <ele>1247.8</ele>
      </trkpt>
      <trkpt lat="41.02297" lon="-2.18736">
        <ele>1248.8</ele>
      </trkpt>
      <trkpt lat="41.02275" lon="-2.18714">
        <ele>1250.3</ele>
      </trkpt>
      <trkpt lat="41.02255" lon="-2.18686">
        <ele>1249.6</ele>
      </trkpt>
      <trkpt lat="41.02237" lon="-2.18655">
        <ele>1249.4</ele>
      </trkpt>
      <trkpt lat="41.02227" lon="-2.18634">
        <ele>1249.5</ele>
      </trkpt>
      <trkpt lat="41.02211" lon="-2.18587">
        <ele>1250.1</ele>
      </trkpt>
      <trkpt lat="41.02204" lon="-2.18556">
        <ele>1250.7</ele>
      </trkpt>
      <trkpt lat="41.02187" lon="-2.18441">
        <ele>1251.8</ele>
      </trkpt>
      <trkpt lat="41.0218" lon="-2.18403">
        <ele>1252.2</ele>
      </trkpt>
      <trkpt lat="41.0217" lon="-2.18363">
        <ele>1252.9</ele>
      </trkpt>
      <trkpt lat="41.02153" lon="-2.18326">
        <ele>1254</ele>
      </trkpt>
      <trkpt lat="41.02135" lon="-2.18295">
        <ele>1254.1</ele>
      </trkpt>
      <trkpt lat="41.02115" lon="-2.18266">
        <ele>1254.9</ele>
      </trkpt>
      <trkpt lat="41.01945" lon="-2.18046">
        <ele>1254.6</ele>
      </trkpt>
      <trkpt lat="41.01889" lon="-2.17981">
        <ele>1255</ele>
      </trkpt>
      <trkpt lat="41.01859" lon="-2.17957">
        <ele>1256.7</ele>
      </trkpt>
      <trkpt lat="41.01841" lon="-2.17946">
        <ele>1256.3</ele>
      </trkpt>
      <trkpt lat="41.01738" lon="-2.17893">
        <ele>1257.3</ele>
      </trkpt>
      <trkpt lat="41.01681" lon="-2.17861">
        <ele>1258</ele>
      </trkpt>
      <trkpt lat="41.01663" lon="-2.17849">
        <ele>1259.9</ele>
      </trkpt>
      <trkpt lat="41.0165" lon="-2.17838">
        <ele>1260.1</ele>
      </trkpt>
      <trkpt lat="41.01636" lon="-2.17823">
        <ele>1259.9</ele>
      </trkpt>
      <trkpt lat="41.01607" lon="-2.17782">
        <ele>1259.7</ele>
      </trkpt>
      <trkpt lat="41.01524" lon="-2.17643">
        <ele>1262</ele>
      </trkpt>
      <trkpt lat="41.01359" lon="-2.17405">
        <ele>1269.4</ele>
      </trkpt>
      <trkpt lat="41.01315" lon="-2.17337">
        <ele>1271.2</ele>
      </trkpt>
      <trkpt lat="41.01052" lon="-2.16896">
        <ele>1284.7</ele>
      </trkpt>
      <trkpt lat="41.01009" lon="-2.16829">
        <ele>1288.7</ele>
      </trkpt>
      <trkpt lat="41.00976" lon="-2.16799">
        <ele>1291</ele>
      </trkpt>
      <trkpt lat="41.00947" lon="-2.16778">
        <ele>1292</ele>
      </trkpt>
      <trkpt lat="41.00866" lon="-2.16735">
        <ele>1293.8</ele>
      </trkpt>
      <trkpt lat="41.00812" lon="-2.16703">
        <ele>1293.5</ele>
      </trkpt>
      <trkpt lat="41.00795" lon="-2.16691">
        <ele>1292.2</ele>
      </trkpt>
      <trkpt lat="41.00777" lon="-2.16676">
        <ele>1291</ele>
      </trkpt>
      <trkpt lat="41.00752" lon="-2.16645">
        <ele>1289.7</ele>
      </trkpt>
      <trkpt lat="41.0074" lon="-2.16624">
        <ele>1290.5</ele>
      </trkpt>
      <trkpt lat="41.0073" lon="-2.16601">
        <ele>1289.1</ele>
      </trkpt>
      <trkpt lat="41.00719" lon="-2.16564">
        <ele>1285.2</ele>
      </trkpt>
      <trkpt lat="41.00715" lon="-2.16533">
        <ele>1283</ele>
      </trkpt>
      <trkpt lat="41.00713" lon="-2.16499">
        <ele>1281</ele>
      </trkpt>
      <trkpt lat="41.00714" lon="-2.16398">
        <ele>1277.4</ele>
      </trkpt>
      <trkpt lat="41.00713" lon="-2.16376">
        <ele>1276.7</ele>
      </trkpt>
      <trkpt lat="41.00709" lon="-2.16341">
        <ele>1274.1</ele>
      </trkpt>
      <trkpt lat="41.00698" lon="-2.16293">
        <ele>1273.4</ele>
      </trkpt>
      <trkpt lat="41.00592" lon="-2.15968">
        <ele>1259.6</ele>
      </trkpt>
      <trkpt lat="41.00572" lon="-2.15917">
        <ele>1257.3</ele>
      </trkpt>
      <trkpt lat="41.00553" lon="-2.15883">
        <ele>1253.4</ele>
      </trkpt>
      <trkpt lat="41.0053" lon="-2.15851">
        <ele>1250.9</ele>
      </trkpt>
      <trkpt lat="41.00502" lon="-2.15823">
        <ele>1249</ele>
      </trkpt>
      <trkpt lat="41.00471" lon="-2.15802">
        <ele>1249.1</ele>
      </trkpt>
      <trkpt lat="41.00426" lon="-2.1578">
        <ele>1246.3</ele>
      </trkpt>
      <trkpt lat="41.00196" lon="-2.1568">
        <ele>1233.8</ele>
      </trkpt>
      <trkpt lat="41.00138" lon="-2.15651">
        <ele>1231</ele>
      </trkpt>
      <trkpt lat="41.0011" lon="-2.15634">
        <ele>1229</ele>
      </trkpt>
      <trkpt lat="41.00058" lon="-2.15597">
        <ele>1224.3</ele>
      </trkpt>
      <trkpt lat="40.99938" lon="-2.1549">
        <ele>1218.5</ele>
      </trkpt>
      <trkpt lat="40.99918" lon="-2.15475">
        <ele>1217.7</ele>
      </trkpt>
      <trkpt lat="40.99872" lon="-2.15446">
        <ele>1215.2</ele>
      </trkpt>
      <trkpt lat="40.99846" lon="-2.15432">
        <ele>1214.1</ele>
      </trkpt>
      <trkpt lat="40.99673" lon="-2.15345">
        <ele>1203.6</ele>
      </trkpt>
      <trkpt lat="40.99642" lon="-2.15327">
        <ele>1203.4</ele>
      </trkpt>
      <trkpt lat="40.99606" lon="-2.15299">
        <ele>1200.4</ele>
      </trkpt>
      <trkpt lat="40.99578" lon="-2.15269">
        <ele>1198.4</ele>
      </trkpt>
      <trkpt lat="40.99547" lon="-2.15221">
        <ele>1194.8</ele>
      </trkpt>
      <trkpt lat="40.99515" lon="-2.15157">
        <ele>1192.6</ele>
      </trkpt>
      <trkpt lat="40.99474" lon="-2.15063">
        <ele>1191.1</ele>
      </trkpt>
      <trkpt lat="40.99403" lon="-2.1493">
        <ele>1189.3</ele>
      </trkpt>
      <trkpt lat="40.99349" lon="-2.14842">
        <ele>1188.1</ele>
      </trkpt>
      <trkpt lat="40.99316" lon="-2.14795">
        <ele>1187</ele>
      </trkpt>
      <trkpt lat="40.99258" lon="-2.14723">
        <ele>1189.3</ele>
      </trkpt>
      <trkpt lat="40.99215" lon="-2.14666">
        <ele>1189.5</ele>
      </trkpt>
      <trkpt lat="40.98959" lon="-2.14372">
        <ele>1181.1</ele>
      </trkpt>
      <trkpt lat="40.98903" lon="-2.14304">
        <ele>1178.9</ele>
      </trkpt>
      <trkpt lat="40.98856" lon="-2.14242">
        <ele>1179.4</ele>
      </trkpt>
      <trkpt lat="40.98818" lon="-2.14184">
        <ele>1179.3</ele>
      </trkpt>
      <trkpt lat="40.9879" lon="-2.14134">
        <ele>1180.4</ele>
      </trkpt>
      <trkpt lat="40.98663" lon="-2.13862">
        <ele>1184.2</ele>
      </trkpt>
      <trkpt lat="40.9865" lon="-2.13836">
        <ele>1184.3</ele>
      </trkpt>
      <trkpt lat="40.98611" lon="-2.13773">
        <ele>1185.2</ele>
      </trkpt>
      <trkpt lat="40.98447" lon="-2.13562">
        <ele>1184.7</ele>
      </trkpt>
      <trkpt lat="40.98231" lon="-2.13293">
        <ele>1186.4</ele>
      </trkpt>
      <trkpt lat="40.9821" lon="-2.13264">
        <ele>1185.7</ele>
      </trkpt>
      <trkpt lat="40.98192" lon="-2.13235">
        <ele>1185.4</ele>
      </trkpt>
      <trkpt lat="40.98139" lon="-2.1313">
        <ele>1185</ele>
      </trkpt>
      <trkpt lat="40.98123" lon="-2.13103">
        <ele>1186.2</ele>
      </trkpt>
      <trkpt lat="40.98099" lon="-2.13074">
        <ele>1186.7</ele>
      </trkpt>
      <trkpt lat="40.9807" lon="-2.1305">
        <ele>1186.5</ele>
      </trkpt>
      <trkpt lat="40.98053" lon="-2.13041">
        <ele>1186.2</ele>
      </trkpt>
      <trkpt lat="40.98014" lon="-2.13025">
        <ele>1187.6</ele>
      </trkpt>
      <trkpt lat="40.97876" lon="-2.12979">
        <ele>1193.6</ele>
      </trkpt>
      <trkpt lat="40.97853" lon="-2.12973">
        <ele>1193.2</ele>
      </trkpt>
      <trkpt lat="40.9782" lon="-2.12968">
        <ele>1192.9</ele>
      </trkpt>
      <trkpt lat="40.97787" lon="-2.12967">
        <ele>1193.5</ele>
      </trkpt>
      <trkpt lat="40.97759" lon="-2.12974">
        <ele>1193.3</ele>
      </trkpt>
      <trkpt lat="40.97731" lon="-2.12984">
        <ele>1191.4</ele>
      </trkpt>
      <trkpt lat="40.97626" lon="-2.13039">
        <ele>1191</ele>
      </trkpt>
      <trkpt lat="40.97556" lon="-2.13087">
        <ele>1188.7</ele>
      </trkpt>
      <trkpt lat="40.97529" lon="-2.13109">
        <ele>1188.7</ele>
      </trkpt>
      <trkpt lat="40.97407" lon="-2.13242">
        <ele>1187.9</ele>
      </trkpt>
      <trkpt lat="40.97382" lon="-2.13266">
        <ele>1187.9</ele>
      </trkpt>
      <trkpt lat="40.97373" lon="-2.13274">
        <ele>1188</ele>
      </trkpt>
      <trkpt lat="40.97343" lon="-2.13295">
        <ele>1188.4</ele>
      </trkpt>
      <trkpt lat="40.9731" lon="-2.13311">
        <ele>1187.7</ele>
      </trkpt>
      <trkpt lat="40.97271" lon="-2.13318">
        <ele>1186.7</ele>
      </trkpt>
      <trkpt lat="40.97253" lon="-2.13318">
        <ele>1186.1</ele>
      </trkpt>
      <trkpt lat="40.97234" lon="-2.13316">
        <ele>1185.2</ele>
      </trkpt>
      <trkpt lat="40.972" lon="-2.13308">
        <ele>1184.1</ele>
      </trkpt>
      <trkpt lat="40.97176" lon="-2.13299">
        <ele>1182.7</ele>
      </trkpt>
      <trkpt lat="40.97157" lon="-2.13288">
        <ele>1181.5</ele>
      </trkpt>
      <trkpt lat="40.97112" lon="-2.13248">
        <ele>1180</ele>
      </trkpt>
      <trkpt lat="40.97083" lon="-2.13212">
        <ele>1178</ele>
      </trkpt>
      <trkpt lat="40.97044" lon="-2.13153">
        <ele>1175.7</ele>
      </trkpt>
      <trkpt lat="40.97015" lon="-2.13102">
        <ele>1174.5</ele>
      </trkpt>
      <trkpt lat="40.96994" lon="-2.13061">
        <ele>1173.4</ele>
      </trkpt>
      <trkpt lat="40.96909" lon="-2.1282">
        <ele>1170</ele>
      </trkpt>
      <trkpt lat="40.96421" lon="-2.117">
        <ele>1179</ele>
      </trkpt>
      <trkpt lat="40.96173" lon="-2.11137">
        <ele>1188.2</ele>
      </trkpt>
      <trkpt lat="40.96138" lon="-2.1105">
        <ele>1188.9</ele>
      </trkpt>
      <trkpt lat="40.96064" lon="-2.10831">
        <ele>1188.4</ele>
      </trkpt>
      <trkpt lat="40.96029" lon="-2.10735">
        <ele>1189.7</ele>
      </trkpt>
      <trkpt lat="40.96005" lon="-2.1068">
        <ele>1190</ele>
      </trkpt>
      <trkpt lat="40.9594" lon="-2.10559">
        <ele>1192.6</ele>
      </trkpt>
      <trkpt lat="40.95818" lon="-2.10355">
        <ele>1197.6</ele>
      </trkpt>
      <trkpt lat="40.95661" lon="-2.10102">
        <ele>1200.1</ele>
      </trkpt>
      <trkpt lat="40.95471" lon="-2.09788">
        <ele>1205</ele>
      </trkpt>
      <trkpt lat="40.9537" lon="-2.09631">
        <ele>1207</ele>
      </trkpt>
      <trkpt lat="40.95217" lon="-2.09411">
        <ele>1211.2</ele>
      </trkpt>
      <trkpt lat="40.9509" lon="-2.09233">
        <ele>1215.1</ele>
      </trkpt>
      <trkpt lat="40.94951" lon="-2.09042">
        <ele>1219.4</ele>
      </trkpt>
      <trkpt lat="40.94876" lon="-2.08936">
        <ele>1222.8</ele>
      </trkpt>
      <trkpt lat="40.94857" lon="-2.08906">
        <ele>1224.2</ele>
      </trkpt>
      <trkpt lat="40.94835" lon="-2.08862">
        <ele>1227</ele>
      </trkpt>
      <trkpt lat="40.94732" lon="-2.08619">
        <ele>1236</ele>
      </trkpt>
      <trkpt lat="40.94709" lon="-2.08575">
        <ele>1237.9</ele>
      </trkpt>
      <trkpt lat="40.94486" lon="-2.08231">
        <ele>1255.8</ele>
      </trkpt>
      <trkpt lat="40.9435" lon="-2.08028">
        <ele>1260.4</ele>
      </trkpt>
      <trkpt lat="40.94314" lon="-2.07978">
        <ele>1259.4</ele>
      </trkpt>
      <trkpt lat="40.94188" lon="-2.07809">
        <ele>1253.8</ele>
      </trkpt>
      <trkpt lat="40.94004" lon="-2.07567">
        <ele>1253.1</ele>
      </trkpt>
      <trkpt lat="40.93947" lon="-2.07489">
        <ele>1251.6</ele>
      </trkpt>
      <trkpt lat="40.9384" lon="-2.0735">
        <ele>1246.6</ele>
      </trkpt>
      <trkpt lat="40.93769" lon="-2.07248">
        <ele>1247.8</ele>
      </trkpt>
      <trkpt lat="40.93747" lon="-2.07211">
        <ele>1247.4</ele>
      </trkpt>
      <trkpt lat="40.9372" lon="-2.07161">
        <ele>1246</ele>
      </trkpt>
      <trkpt lat="40.93673" lon="-2.07069">
        <ele>1244.7</ele>
      </trkpt>
      <trkpt lat="40.93515" lon="-2.06753">
        <ele>1244</ele>
      </trkpt>
      <trkpt lat="40.93461" lon="-2.0664">
        <ele>1244.6</ele>
      </trkpt>
      <trkpt lat="40.93422" lon="-2.06547">
        <ele>1241.6</ele>
      </trkpt>
      <trkpt lat="40.93375" lon="-2.06415">
        <ele>1239.6</ele>
      </trkpt>
      <trkpt lat="40.93283" lon="-2.06167">
        <ele>1239.4</ele>
      </trkpt>
      <trkpt lat="40.93238" lon="-2.06037">
        <ele>1240</ele>
      </trkpt>
      <trkpt lat="40.93139" lon="-2.05766">
        <ele>1243.4</ele>
      </trkpt>
      <trkpt lat="40.92983" lon="-2.05328">
        <ele>1246.7</ele>
      </trkpt>
      <trkpt lat="40.92714" lon="-2.04512">
        <ele>1239.7</ele>
      </trkpt>
      <trkpt lat="40.92707" lon="-2.04487">
        <ele>1239.7</ele>
      </trkpt>
      <trkpt lat="40.9266" lon="-2.04351">
        <ele>1239.8</ele>
      </trkpt>
      <trkpt lat="40.92647" lon="-2.04318">
        <ele>1239.3</ele>
      </trkpt>
      <trkpt lat="40.92603" lon="-2.04218">
        <ele>1237.1</ele>
      </trkpt>
      <trkpt lat="40.92524" lon="-2.04048">
        <ele>1227.5</ele>
      </trkpt>
      <trkpt lat="40.92493" lon="-2.03968">
        <ele>1226.7</ele>
      </trkpt>
      <trkpt lat="40.92468" lon="-2.03892">
        <ele>1224.2</ele>
      </trkpt>
      <trkpt lat="40.92427" lon="-2.03743">
        <ele>1223.4</ele>
      </trkpt>
      <trkpt lat="40.92409" lon="-2.03651">
        <ele>1223.6</ele>
      </trkpt>
      <trkpt lat="40.92402" lon="-2.03583">
        <ele>1224.7</ele>
      </trkpt>
      <trkpt lat="40.92398" lon="-2.03499">
        <ele>1220.7</ele>
      </trkpt>
      <trkpt lat="40.92389" lon="-2.0338">
        <ele>1221.3</ele>
      </trkpt>
      <trkpt lat="40.92344" lon="-2.03151">
        <ele>1216.3</ele>
      </trkpt>
      <trkpt lat="40.92325" lon="-2.03063">
        <ele>1212.8</ele>
      </trkpt>
      <trkpt lat="40.92307" lon="-2.02988">
        <ele>1211.3</ele>
      </trkpt>
      <trkpt lat="40.92266" lon="-2.02847">
        <ele>1207</ele>
      </trkpt>
      <trkpt lat="40.91717" lon="-2.01286">
        <ele>1169.4</ele>
      </trkpt>
      <trkpt lat="40.91682" lon="-2.01173">
        <ele>1166.2</ele>
      </trkpt>
      <trkpt lat="40.91589" lon="-2.00896">
        <ele>1160.8</ele>
      </trkpt>
      <trkpt lat="40.91517" lon="-2.00672">
        <ele>1151.8</ele>
      </trkpt>
      <trkpt lat="40.91436" lon="-2.00397">
        <ele>1141.5</ele>
      </trkpt>
      <trkpt lat="40.91415" lon="-2.00344">
        <ele>1140</ele>
      </trkpt>
      <trkpt lat="40.91393" lon="-2.00298">
        <ele>1138.8</ele>
      </trkpt>
      <trkpt lat="40.91365" lon="-2.00253">
        <ele>1137.9</ele>
      </trkpt>
      <trkpt lat="40.91298" lon="-2.00156">
        <ele>1135.6</ele>
      </trkpt>
      <trkpt lat="40.91246" lon="-2.00065">
        <ele>1131.4</ele>
      </trkpt>
      <trkpt lat="40.91106" lon="-1.99783">
        <ele>1114.6</ele>
      </trkpt>
      <trkpt lat="40.91057" lon="-1.99681">
        <ele>1114.7</ele>
      </trkpt>
      <trkpt lat="40.91021" lon="-1.99613">
        <ele>1113.7</ele>
      </trkpt>
      <trkpt lat="40.90967" lon="-1.99531">
        <ele>1113.2</ele>
      </trkpt>
      <trkpt lat="40.90836" lon="-1.9936">
        <ele>1111.4</ele>
      </trkpt>
      <trkpt lat="40.90775" lon="-1.99273">
        <ele>1111.1</ele>
      </trkpt>
      <trkpt lat="40.90712" lon="-1.99171">
        <ele>1109.1</ele>
      </trkpt>
      <trkpt lat="40.90467" lon="-1.98757">
        <ele>1102.4</ele>
      </trkpt>
      <trkpt lat="40.90415" lon="-1.98664">
        <ele>1103</ele>
      </trkpt>
      <trkpt lat="40.90385" lon="-1.98618">
        <ele>1102.7</ele>
      </trkpt>
      <trkpt lat="40.90351" lon="-1.9855">
        <ele>1102.5</ele>
      </trkpt>
      <trkpt lat="40.90331" lon="-1.98506">
        <ele>1102.7</ele>
      </trkpt>
      <trkpt lat="40.90245" lon="-1.98288">
        <ele>1100.7</ele>
      </trkpt>
      <trkpt lat="40.90203" lon="-1.98176">
        <ele>1101.1</ele>
      </trkpt>
      <trkpt lat="40.90177" lon="-1.98114">
        <ele>1099.6</ele>
      </trkpt>
      <trkpt lat="40.90144" lon="-1.98053">
        <ele>1097.8</ele>
      </trkpt>
      <trkpt lat="40.90099" lon="-1.97977">
        <ele>1094.9</ele>
      </trkpt>
      <trkpt lat="40.89911" lon="-1.97668">
        <ele>1090.5</ele>
      </trkpt>
      <trkpt lat="40.89869" lon="-1.9761">
        <ele>1089.6</ele>
      </trkpt>
      <trkpt lat="40.89821" lon="-1.97552">
        <ele>1088.2</ele>
      </trkpt>
      <trkpt lat="40.89716" lon="-1.97434">
        <ele>1086.9</ele>
      </trkpt>
      <trkpt lat="40.89498" lon="-1.97184">
        <ele>1082</ele>
      </trkpt>
      <trkpt lat="40.89167" lon="-1.96815">
        <ele>1078</ele>
      </trkpt>
      <trkpt lat="40.89134" lon="-1.96772">
        <ele>1078.2</ele>
      </trkpt>
      <trkpt lat="40.89104" lon="-1.96727">
        <ele>1076.9</ele>
      </trkpt>
      <trkpt lat="40.88905" lon="-1.96366">
        <ele>1074</ele>
      </trkpt>
      <trkpt lat="40.88845" lon="-1.96253">
        <ele>1074.2</ele>
      </trkpt>
      <trkpt lat="40.88779" lon="-1.96136">
        <ele>1073.1</ele>
      </trkpt>
      <trkpt lat="40.88707" lon="-1.95998">
        <ele>1072.5</ele>
      </trkpt>
      <trkpt lat="40.88692" lon="-1.95956">
        <ele>1071.6</ele>
      </trkpt>
      <trkpt lat="40.88676" lon="-1.95898">
        <ele>1071</ele>
      </trkpt>
      <trkpt lat="40.88627" lon="-1.95701">
        <ele>1067.9</ele>
      </trkpt>
      <trkpt lat="40.88564" lon="-1.95463">
        <ele>1068.5</ele>
      </trkpt>
      <trkpt lat="40.88541" lon="-1.95392">
        <ele>1068.3</ele>
      </trkpt>
      <trkpt lat="40.88531" lon="-1.95368">
        <ele>1068.8</ele>
      </trkpt>
      <trkpt lat="40.8851" lon="-1.95329">
        <ele>1068.1</ele>
      </trkpt>
      <trkpt lat="40.88494" lon="-1.95307">
        <ele>1067.3</ele>
      </trkpt>
      <trkpt lat="40.8846" lon="-1.95268">
        <ele>1066.2</ele>
      </trkpt>
      <trkpt lat="40.8828" lon="-1.95097">
        <ele>1063.3</ele>
      </trkpt>
      <trkpt lat="40.88189" lon="-1.95006">
        <ele>1060.5</ele>
      </trkpt>
      <trkpt lat="40.88017" lon="-1.94823">
        <ele>1057.8</ele>
      </trkpt>
      <trkpt lat="40.8796" lon="-1.9477">
        <ele>1055.6</ele>
      </trkpt>
      <trkpt lat="40.87941" lon="-1.94756">
        <ele>1054.7</ele>
      </trkpt>
      <trkpt lat="40.87339" lon="-1.9437">
        <ele>1048.7</ele>
      </trkpt>
      <trkpt lat="40.87011" lon="-1.94167">
        <ele>1047.4</ele>
      </trkpt>
      <trkpt lat="40.86952" lon="-1.94129">
        <ele>1048</ele>
      </trkpt>
      <trkpt lat="40.86842" lon="-1.94046">
        <ele>1048.1</ele>
      </trkpt>
      <trkpt lat="40.86683" lon="-1.9392">
        <ele>1047.5</ele>
      </trkpt>
      <trkpt lat="40.86581" lon="-1.93834">
        <ele>1046.7</ele>
      </trkpt>
      <trkpt lat="40.86573" lon="-1.93822">
        <ele>1046.8</ele>
      </trkpt>
      <trkpt lat="40.86564" lon="-1.93803">
        <ele>1046.6</ele>
      </trkpt>
      <trkpt lat="40.86534" lon="-1.93723">
        <ele>1045.6</ele>
      </trkpt>
      <trkpt lat="40.86347" lon="-1.93192">
        <ele>1050.6</ele>
      </trkpt>
      <trkpt lat="40.86276" lon="-1.9298">
        <ele>1057.9</ele>
      </trkpt>
      <trkpt lat="40.86252" lon="-1.92918">
        <ele>1060</ele>
      </trkpt>
      <trkpt lat="40.86232" lon="-1.92876">
        <ele>1062.4</ele>
      </trkpt>
      <trkpt lat="40.86206" lon="-1.92834">
        <ele>1061.9</ele>
      </trkpt>
      <trkpt lat="40.86178" lon="-1.928">
        <ele>1061</ele>
      </trkpt>
      <trkpt lat="40.85942" lon="-1.92527">
        <ele>1046.7</ele>
      </trkpt>
      <trkpt lat="40.85928" lon="-1.92506">
        <ele>1046.2</ele>
      </trkpt>
      <trkpt lat="40.85897" lon="-1.92452">
        <ele>1044.9</ele>
      </trkpt>
      <trkpt lat="40.85883" lon="-1.92416">
        <ele>1042.6</ele>
      </trkpt>
      <trkpt lat="40.85869" lon="-1.92373">
        <ele>1041.6</ele>
      </trkpt>
      <trkpt lat="40.85814" lon="-1.92141">
        <ele>1038.3</ele>
      </trkpt>
      <trkpt lat="40.85718" lon="-1.91722">
        <ele>1039</ele>
      </trkpt>
      <trkpt lat="40.85663" lon="-1.91469">
        <ele>1040.8</ele>
      </trkpt>
      <trkpt lat="40.85589" lon="-1.91153">
        <ele>1044</ele>
      </trkpt>
      <trkpt lat="40.85531" lon="-1.9088">
        <ele>1045</ele>
      </trkpt>
      <trkpt lat="40.85459" lon="-1.90571">
        <ele>1047</ele>
      </trkpt>
      <trkpt lat="40.85397" lon="-1.90288">
        <ele>1051.6</ele>
      </trkpt>
      <trkpt lat="40.85371" lon="-1.90183">
        <ele>1053</ele>
      </trkpt>
      <trkpt lat="40.8536" lon="-1.90148">
        <ele>1053.7</ele>
      </trkpt>
      <trkpt lat="40.8535" lon="-1.90123">
        <ele>1053.6</ele>
      </trkpt>
      <trkpt lat="40.85339" lon="-1.90097">
        <ele>1053.7</ele>
      </trkpt>
      <trkpt lat="40.85331" lon="-1.90083">
        <ele>1053.9</ele>
      </trkpt>
      <trkpt lat="40.85267" lon="-1.89988">
        <ele>1052.7</ele>
      </trkpt>
      <trkpt lat="40.84981" lon="-1.89596">
        <ele>1056</ele>
      </trkpt>
      <trkpt lat="40.84934" lon="-1.8954">
        <ele>1056.2</ele>
      </trkpt>
      <trkpt lat="40.84912" lon="-1.89505">
        <ele>1054.1</ele>
      </trkpt>
      <trkpt lat="40.84898" lon="-1.89471">
        <ele>1056.7</ele>
      </trkpt>
      <trkpt lat="40.84886" lon="-1.8943">
        <ele>1054.5</ele>
      </trkpt>
      <trkpt lat="40.84873" lon="-1.89366">
        <ele>1055.5</ele>
      </trkpt>
      <trkpt lat="40.84855" lon="-1.89254">
        <ele>1054.6</ele>
      </trkpt>
      <trkpt lat="40.84819" lon="-1.89153">
        <ele>1057.7</ele>
      </trkpt>
      <trkpt lat="40.84749" lon="-1.88991">
        <ele>1062</ele>
      </trkpt>
      <trkpt lat="40.84739" lon="-1.88979">
        <ele>1062.7</ele>
      </trkpt>
      <trkpt lat="40.84726" lon="-1.8897">
        <ele>1064.7</ele>
      </trkpt>
      <trkpt lat="40.84715" lon="-1.88966">
        <ele>1065.5</ele>
      </trkpt>
      <trkpt lat="40.84698" lon="-1.88966">
        <ele>1066.3</ele>
      </trkpt>
      <trkpt lat="40.84684" lon="-1.88972">
        <ele>1066.8</ele>
      </trkpt>
      <trkpt lat="40.84663" lon="-1.88986">
        <ele>1067.9</ele>
      </trkpt>
      <trkpt lat="40.84651" lon="-1.88997">
        <ele>1068.4</ele>
      </trkpt>
      <trkpt lat="40.84614" lon="-1.89037">
        <ele>1070.4</ele>
      </trkpt>
      <trkpt lat="40.84589" lon="-1.8906">
        <ele>1072.9</ele>
      </trkpt>
      <trkpt lat="40.84575" lon="-1.89068">
        <ele>1073.9</ele>
      </trkpt>
      <trkpt lat="40.84554" lon="-1.89072">
        <ele>1075</ele>
      </trkpt>
      <trkpt lat="40.84544" lon="-1.89072">
        <ele>1073.7</ele>
      </trkpt>
      <trkpt lat="40.84525" lon="-1.89069">
        <ele>1072.2</ele>
      </trkpt>
      <trkpt lat="40.8449" lon="-1.89057">
        <ele>1075.7</ele>
      </trkpt>
      <trkpt lat="40.84478" lon="-1.8905">
        <ele>1077</ele>
      </trkpt>
      <trkpt lat="40.84467" lon="-1.8904">
        <ele>1077.7</ele>
      </trkpt>
      <trkpt lat="40.84459" lon="-1.89028">
        <ele>1077.7</ele>
      </trkpt>
      <trkpt lat="40.84454" lon="-1.89015">
        <ele>1078.1</ele>
      </trkpt>
      <trkpt lat="40.84448" lon="-1.88987">
        <ele>1079.4</ele>
      </trkpt>
      <trkpt lat="40.84447" lon="-1.8897">
        <ele>1081.1</ele>
      </trkpt>
      <trkpt lat="40.84449" lon="-1.88952">
        <ele>1082.3</ele>
      </trkpt>
      <trkpt lat="40.84458" lon="-1.88917">
        <ele>1080.9</ele>
      </trkpt>
      <trkpt lat="40.8449" lon="-1.88825">
        <ele>1084.4</ele>
      </trkpt>
      <trkpt lat="40.84493" lon="-1.88804">
        <ele>1083.7</ele>
      </trkpt>
      <trkpt lat="40.84488" lon="-1.88751">
        <ele>1084</ele>
      </trkpt>
      <trkpt lat="40.84482" lon="-1.88716">
        <ele>1084.5</ele>
      </trkpt>
      <trkpt lat="40.84472" lon="-1.88674">
        <ele>1082.7</ele>
      </trkpt>
      <trkpt lat="40.8445" lon="-1.88602">
        <ele>1081.7</ele>
      </trkpt>
      <trkpt lat="40.84445" lon="-1.88571">
        <ele>1079.2</ele>
      </trkpt>
      <trkpt lat="40.84445" lon="-1.88558">
        <ele>1079.2</ele>
      </trkpt>
      <trkpt lat="40.84448" lon="-1.88546">
        <ele>1079.4</ele>
      </trkpt>
      <trkpt lat="40.84458" lon="-1.88524">
        <ele>1078.1</ele>
      </trkpt>
      <trkpt lat="40.8449" lon="-1.88485">
        <ele>1076.3</ele>
      </trkpt>
      <trkpt lat="40.84496" lon="-1.88473">
        <ele>1075.5</ele>
      </trkpt>
      <trkpt lat="40.84499" lon="-1.88459">
        <ele>1075.4</ele>
      </trkpt>
      <trkpt lat="40.84497" lon="-1.88441">
        <ele>1074.7</ele>
      </trkpt>
      <trkpt lat="40.84479" lon="-1.88381">
        <ele>1073.3</ele>
      </trkpt>
      <trkpt lat="40.8447" lon="-1.88337">
        <ele>1072.8</ele>
      </trkpt>
      <trkpt lat="40.84461" lon="-1.88302">
        <ele>1072.6</ele>
      </trkpt>
      <trkpt lat="40.84452" lon="-1.88284">
        <ele>1072.3</ele>
      </trkpt>
      <trkpt lat="40.84441" lon="-1.88269">
        <ele>1071.7</ele>
      </trkpt>
      <trkpt lat="40.84432" lon="-1.88261">
        <ele>1070.9</ele>
      </trkpt>
      <trkpt lat="40.84405" lon="-1.88246">
        <ele>1069.3</ele>
      </trkpt>
      <trkpt lat="40.84355" lon="-1.88223">
        <ele>1067.5</ele>
      </trkpt>
      <trkpt lat="40.84299" lon="-1.88182">
        <ele>1065</ele>
      </trkpt>
      <trkpt lat="40.84261" lon="-1.88128">
        <ele>1063.5</ele>
      </trkpt>
      <trkpt lat="40.8424" lon="-1.8808">
        <ele>1061.8</ele>
      </trkpt>
      <trkpt lat="40.84231" lon="-1.88048">
        <ele>1062.4</ele>
      </trkpt>
      <trkpt lat="40.84219" lon="-1.87981">
        <ele>1061.9</ele>
      </trkpt>
      <trkpt lat="40.84141" lon="-1.87491">
        <ele>1064.9</ele>
      </trkpt>
      <trkpt lat="40.84096" lon="-1.8723">
        <ele>1067.3</ele>
      </trkpt>
      <trkpt lat="40.84042" lon="-1.86891">
        <ele>1070</ele>
      </trkpt>
      <trkpt lat="40.84033" lon="-1.86848">
        <ele>1071.1</ele>
      </trkpt>
      <trkpt lat="40.84024" lon="-1.86817">
        <ele>1070.3</ele>
      </trkpt>
      <trkpt lat="40.83993" lon="-1.86737">
        <ele>1069.7</ele>
      </trkpt>
      <trkpt lat="40.83973" lon="-1.86698">
        <ele>1070.8</ele>
      </trkpt>
      <trkpt lat="40.8394" lon="-1.86626">
        <ele>1070.8</ele>
      </trkpt>
      <trkpt lat="40.83879" lon="-1.86482">
        <ele>1072.6</ele>
      </trkpt>
      <trkpt lat="40.83864" lon="-1.8644">
        <ele>1073</ele>
      </trkpt>
      <trkpt lat="40.83842" lon="-1.86354">
        <ele>1074.5</ele>
      </trkpt>
      <trkpt lat="40.83808" lon="-1.86191">
        <ele>1075.2</ele>
      </trkpt>
      <trkpt lat="40.83798" lon="-1.86134">
        <ele>1076.7</ele>
      </trkpt>
      <trkpt lat="40.83791" lon="-1.86089">
        <ele>1077.7</ele>
      </trkpt>
      <trkpt lat="40.83784" lon="-1.86009">
        <ele>1076.6</ele>
      </trkpt>
      <trkpt lat="40.83741" lon="-1.84874">
        <ele>1093.6</ele>
      </trkpt>
      <trkpt lat="40.83737" lon="-1.8481">
        <ele>1091</ele>
      </trkpt>
      <trkpt lat="40.83723" lon="-1.84705">
        <ele>1093.9</ele>
      </trkpt>
      <trkpt lat="40.83533" lon="-1.8351">
        <ele>1105.1</ele>
      </trkpt>
      <trkpt lat="40.83475" lon="-1.83198">
        <ele>1115.4</ele>
      </trkpt>
      <trkpt lat="40.83379" lon="-1.82738">
        <ele>1131.5</ele>
      </trkpt>
      <trkpt lat="40.83275" lon="-1.82219">
        <ele>1143.1</ele>
      </trkpt>
      <trkpt lat="40.83194" lon="-1.81839">
        <ele>1145</ele>
      </trkpt>
      <trkpt lat="40.83026" lon="-1.81016">
        <ele>1172.9</ele>
      </trkpt>
      <trkpt lat="40.83009" lon="-1.80908">
        <ele>1173</ele>
      </trkpt>
      <trkpt lat="40.82975" lon="-1.80622">
        <ele>1171</ele>
      </trkpt>
      <trkpt lat="40.82967" lon="-1.80539">
        <ele>1169.1</ele>
      </trkpt>
      <trkpt lat="40.82873" lon="-1.79719">
        <ele>1167.2</ele>
      </trkpt>
      <trkpt lat="40.82861" lon="-1.79575">
        <ele>1166</ele>
      </trkpt>
      <trkpt lat="40.82856" lon="-1.79465">
        <ele>1165.9</ele>
      </trkpt>
      <trkpt lat="40.82853" lon="-1.79313">
        <ele>1167</ele>
      </trkpt>
      <trkpt lat="40.82849" lon="-1.79015">
        <ele>1171.6</ele>
      </trkpt>
      <trkpt lat="40.82846" lon="-1.78594">
        <ele>1177</ele>
      </trkpt>
      <trkpt lat="40.82841" lon="-1.78378">
        <ele>1181.8</ele>
      </trkpt>
      <trkpt lat="40.82838" lon="-1.78343">
        <ele>1182.3</ele>
      </trkpt>
      <trkpt lat="40.82834" lon="-1.78318">
        <ele>1182.6</ele>
      </trkpt>
      <trkpt lat="40.82823" lon="-1.78274">
        <ele>1186.7</ele>
      </trkpt>
      <trkpt lat="40.82807" lon="-1.78232">
        <ele>1185.9</ele>
      </trkpt>
      <trkpt lat="40.8279" lon="-1.78198">
        <ele>1185.8</ele>
      </trkpt>
      <trkpt lat="40.82703" lon="-1.78042">
        <ele>1188.3</ele>
      </trkpt>
      <trkpt lat="40.82659" lon="-1.77967">
        <ele>1190.9</ele>
      </trkpt>
      <trkpt lat="40.8264" lon="-1.7794">
        <ele>1190.8</ele>
      </trkpt>
      <trkpt lat="40.82627" lon="-1.77923">
        <ele>1191.2</ele>
      </trkpt>
      <trkpt lat="40.82594" lon="-1.7789">
        <ele>1192.3</ele>
      </trkpt>
      <trkpt lat="40.82451" lon="-1.77763">
        <ele>1196.8</ele>
      </trkpt>
      <trkpt lat="40.82416" lon="-1.7773">
        <ele>1198.3</ele>
      </trkpt>
      <trkpt lat="40.8239" lon="-1.77701">
        <ele>1198.5</ele>
      </trkpt>
      <trkpt lat="40.82359" lon="-1.77658">
        <ele>1198.3</ele>
      </trkpt>
      <trkpt lat="40.82324" lon="-1.77601">
        <ele>1196.2</ele>
      </trkpt>
      <trkpt lat="40.82248" lon="-1.77463">
        <ele>1190.1</ele>
      </trkpt>
      <trkpt lat="40.82096" lon="-1.77179">
        <ele>1178</ele>
      </trkpt>
      <trkpt lat="40.82059" lon="-1.77104">
        <ele>1177.2</ele>
      </trkpt>
      <trkpt lat="40.82042" lon="-1.77054">
        <ele>1177.1</ele>
      </trkpt>
      <trkpt lat="40.82029" lon="-1.77002">
        <ele>1181.8</ele>
      </trkpt>
      <trkpt lat="40.82021" lon="-1.76956">
        <ele>1180.3</ele>
      </trkpt>
      <trkpt lat="40.82016" lon="-1.76901">
        <ele>1179.5</ele>
      </trkpt>
      <trkpt lat="40.82018" lon="-1.76822">
        <ele>1187.8</ele>
      </trkpt>
      <trkpt lat="40.82033" lon="-1.76736">
        <ele>1190.1</ele>
      </trkpt>
      <trkpt lat="40.82044" lon="-1.7669">
        <ele>1189.8</ele>
      </trkpt>
      <trkpt lat="40.82075" lon="-1.76591">
        <ele>1181.6</ele>
      </trkpt>
      <trkpt lat="40.82095" lon="-1.76505">
        <ele>1178.4</ele>
      </trkpt>
      <trkpt lat="40.82102" lon="-1.76449">
        <ele>1180.9</ele>
      </trkpt>
      <trkpt lat="40.82102" lon="-1.76389">
        <ele>1182.9</ele>
      </trkpt>
      <trkpt lat="40.82099" lon="-1.76341">
        <ele>1181.2</ele>
      </trkpt>
      <trkpt lat="40.82093" lon="-1.76293">
        <ele>1181</ele>
      </trkpt>
      <trkpt lat="40.82045" lon="-1.76025">
        <ele>1188.5</ele>
      </trkpt>
      <trkpt lat="40.82027" lon="-1.75936">
        <ele>1189.3</ele>
      </trkpt>
      <trkpt lat="40.8201" lon="-1.75881">
        <ele>1191.4</ele>
      </trkpt>
      <trkpt lat="40.81994" lon="-1.75848">
        <ele>1192.2</ele>
      </trkpt>
      <trkpt lat="40.81959" lon="-1.7579">
        <ele>1193.9</ele>
      </trkpt>
      <trkpt lat="40.81886" lon="-1.75676">
        <ele>1196.1</ele>
      </trkpt>
      <trkpt lat="40.81803" lon="-1.75551">
        <ele>1200</ele>
      </trkpt>
      <trkpt lat="40.81787" lon="-1.75522">
        <ele>1200</ele>
      </trkpt>
      <trkpt lat="40.81699" lon="-1.75377">
        <ele>1197.6</ele>
      </trkpt>
      <trkpt lat="40.81426" lon="-1.74915">
        <ele>1200.7</ele>
      </trkpt>
      <trkpt lat="40.8134" lon="-1.74765">
        <ele>1203.9</ele>
      </trkpt>
      <trkpt lat="40.81328" lon="-1.7474">
        <ele>1204.6</ele>
      </trkpt>
      <trkpt lat="40.81308" lon="-1.74686">
        <ele>1205.6</ele>
      </trkpt>
      <trkpt lat="40.8127" lon="-1.74547">
        <ele>1208</ele>
      </trkpt>
      <trkpt lat="40.81063" lon="-1.73725">
        <ele>1222.4</ele>
      </trkpt>
      <trkpt lat="40.81001" lon="-1.73467">
        <ele>1227.2</ele>
      </trkpt>
      <trkpt lat="40.80914" lon="-1.73145">
        <ele>1234.1</ele>
      </trkpt>
      <trkpt lat="40.80906" lon="-1.73121">
        <ele>1234.4</ele>
      </trkpt>
      <trkpt lat="40.8089" lon="-1.73086">
        <ele>1234.1</ele>
      </trkpt>
      <trkpt lat="40.8087" lon="-1.73046">
        <ele>1233.3</ele>
      </trkpt>
      <trkpt lat="40.80834" lon="-1.72981">
        <ele>1231.6</ele>
      </trkpt>
      <trkpt lat="40.8002" lon="-1.71579">
        <ele>1203.5</ele>
      </trkpt>
      <trkpt lat="40.79896" lon="-1.71362">
        <ele>1199.5</ele>
      </trkpt>
      <trkpt lat="40.79761" lon="-1.71116">
        <ele>1194.9</ele>
      </trkpt>
      <trkpt lat="40.79688" lon="-1.70969">
        <ele>1194.7</ele>
      </trkpt>
      <trkpt lat="40.79592" lon="-1.70735">
        <ele>1188.8</ele>
      </trkpt>
      <trkpt lat="40.79506" lon="-1.7052">
        <ele>1187.8</ele>
      </trkpt>
      <trkpt lat="40.79487" lon="-1.70465">
        <ele>1187.6</ele>
      </trkpt>
      <trkpt lat="40.79477" lon="-1.70428">
        <ele>1188.2</ele>
      </trkpt>
      <trkpt lat="40.79469" lon="-1.70377">
        <ele>1187.5</ele>
      </trkpt>
      <trkpt lat="40.79454" lon="-1.70172">
        <ele>1186.8</ele>
      </trkpt>
      <trkpt lat="40.79453" lon="-1.70115">
        <ele>1187.6</ele>
      </trkpt>
      <trkpt lat="40.79455" lon="-1.7009">
        <ele>1187.3</ele>
      </trkpt>
      <trkpt lat="40.79467" lon="-1.70032">
        <ele>1185.2</ele>
      </trkpt>
      <trkpt lat="40.79521" lon="-1.69863">
        <ele>1184.5</ele>
      </trkpt>
      <trkpt lat="40.79533" lon="-1.69817">
        <ele>1185.5</ele>
      </trkpt>
      <trkpt lat="40.79538" lon="-1.69788">
        <ele>1186.7</ele>
      </trkpt>
      <trkpt lat="40.79541" lon="-1.6976">
        <ele>1188</ele>
      </trkpt>
      <trkpt lat="40.7954" lon="-1.69706">
        <ele>1189.3</ele>
      </trkpt>
      <trkpt lat="40.79527" lon="-1.69623">
        <ele>1191.6</ele>
      </trkpt>
      <trkpt lat="40.79506" lon="-1.69566">
        <ele>1192.6</ele>
      </trkpt>
      <trkpt lat="40.79472" lon="-1.69483">
        <ele>1195.6</ele>
      </trkpt>
      <trkpt lat="40.79221" lon="-1.6889">
        <ele>1210.1</ele>
      </trkpt>
      <trkpt lat="40.79162" lon="-1.68755">
        <ele>1214.2</ele>
      </trkpt>
      <trkpt lat="40.79133" lon="-1.68702">
        <ele>1214.6</ele>
      </trkpt>
      <trkpt lat="40.78844" lon="-1.68272">
        <ele>1216.7</ele>
      </trkpt>
      <trkpt lat="40.78817" lon="-1.68223">
        <ele>1217.8</ele>
      </trkpt>
      <trkpt lat="40.78807" lon="-1.68199">
        <ele>1218.9</ele>
      </trkpt>
      <trkpt lat="40.78791" lon="-1.68148">
        <ele>1221.6</ele>
      </trkpt>
      <trkpt lat="40.78682" lon="-1.67697">
        <ele>1239.9</ele>
      </trkpt>
      <trkpt lat="40.78663" lon="-1.67593">
        <ele>1241.7</ele>
      </trkpt>
      <trkpt lat="40.78628" lon="-1.67336">
        <ele>1247.1</ele>
      </trkpt>
      <trkpt lat="40.78617" lon="-1.67281">
        <ele>1249.2</ele>
      </trkpt>
      <trkpt lat="40.78603" lon="-1.67237">
        <ele>1251.2</ele>
      </trkpt>
      <trkpt lat="40.78528" lon="-1.67032">
        <ele>1258.9</ele>
      </trkpt>
      <trkpt lat="40.78517" lon="-1.66998">
        <ele>1260.6</ele>
      </trkpt>
      <trkpt lat="40.78508" lon="-1.6695">
        <ele>1261.2</ele>
      </trkpt>
      <trkpt lat="40.78505" lon="-1.66901">
        <ele>1262</ele>
      </trkpt>
      <trkpt lat="40.78507" lon="-1.66836">
        <ele>1261.6</ele>
      </trkpt>
      <trkpt lat="40.78542" lon="-1.66367">
        <ele>1251.2</ele>
      </trkpt>
      <trkpt lat="40.78598" lon="-1.65657">
        <ele>1258.5</ele>
      </trkpt>
      <trkpt lat="40.78614" lon="-1.65431">
        <ele>1268.6</ele>
      </trkpt>
      <trkpt lat="40.78614" lon="-1.65366">
        <ele>1269.9</ele>
      </trkpt>
      <trkpt lat="40.78612" lon="-1.65338">
        <ele>1270</ele>
      </trkpt>
      <trkpt lat="40.7859" lon="-1.65147">
        <ele>1266.3</ele>
      </trkpt>
      <trkpt lat="40.78525" lon="-1.64604">
        <ele>1274.8</ele>
      </trkpt>
      <trkpt lat="40.78495" lon="-1.64417">
        <ele>1271.6</ele>
      </trkpt>
      <trkpt lat="40.78471" lon="-1.64283">
        <ele>1271</ele>
      </trkpt>
      <trkpt lat="40.78465" lon="-1.6427">
        <ele>1270.8</ele>
      </trkpt>
      <trkpt lat="40.78451" lon="-1.64193">
        <ele>1272</ele>
      </trkpt>
      <trkpt lat="40.78443" lon="-1.6418">
        <ele>1272.5</ele>
      </trkpt>
      <trkpt lat="40.78437" lon="-1.64173">
        <ele>1272.6</ele>
      </trkpt>
      <trkpt lat="40.78429" lon="-1.64167">
        <ele>1272.4</ele>
      </trkpt>
      <trkpt lat="40.78416" lon="-1.6416">
        <ele>1272.3</ele>
      </trkpt>
      <trkpt lat="40.78394" lon="-1.64165">
        <ele>1272.8</ele>
      </trkpt>
      <trkpt lat="40.78308" lon="-1.64204">
        <ele>1271.7</ele>
      </trkpt>
      <trkpt lat="40.78231" lon="-1.64244">
        <ele>1270.5</ele>
      </trkpt>
      <trkpt lat="40.78199" lon="-1.64259">
        <ele>1270</ele>
      </trkpt>
      <trkpt lat="40.78177" lon="-1.64268">
        <ele>1269.8</ele>
      </trkpt>
      <trkpt lat="40.78147" lon="-1.64277">
        <ele>1269.3</ele>
      </trkpt>
      <trkpt lat="40.78121" lon="-1.6428">
        <ele>1268.9</ele>
      </trkpt>
      <trkpt lat="40.78086" lon="-1.64279">
        <ele>1268.1</ele>
      </trkpt>
      <trkpt lat="40.78066" lon="-1.64275">
        <ele>1267.9</ele>
      </trkpt>
      <trkpt lat="40.78037" lon="-1.64266">
        <ele>1267.2</ele>
      </trkpt>
      <trkpt lat="40.78009" lon="-1.64253">
        <ele>1266.3</ele>
      </trkpt>
      <trkpt lat="40.77975" lon="-1.64232">
        <ele>1265</ele>
      </trkpt>
      <trkpt lat="40.76754" lon="-1.63395">
        <ele>1270.1</ele>
      </trkpt>
      <trkpt lat="40.76721" lon="-1.63375">
        <ele>1270.5</ele>
      </trkpt>
      <trkpt lat="40.76702" lon="-1.63366">
        <ele>1270.8</ele>
      </trkpt>
      <trkpt lat="40.76588" lon="-1.63327">
        <ele>1272</ele>
      </trkpt>
      <trkpt lat="40.76548" lon="-1.63308">
        <ele>1272.9</ele>
      </trkpt>
      <trkpt lat="40.76499" lon="-1.63276">
        <ele>1274</ele>
      </trkpt>
      <trkpt lat="40.76475" lon="-1.63258">
        <ele>1274.5</ele>
      </trkpt>
      <trkpt lat="40.76354" lon="-1.63161">
        <ele>1275.3</ele>
      </trkpt>
      <trkpt lat="40.7631" lon="-1.63133">
        <ele>1274.4</ele>
      </trkpt>
      <trkpt lat="40.76292" lon="-1.63124">
        <ele>1273.3</ele>
      </trkpt>
      <trkpt lat="40.76255" lon="-1.63112">
        <ele>1271.9</ele>
      </trkpt>
      <trkpt lat="40.76214" lon="-1.63107">
        <ele>1270.5</ele>
      </trkpt>
      <trkpt lat="40.7619" lon="-1.63108">
        <ele>1269.8</ele>
      </trkpt>
      <trkpt lat="40.76151" lon="-1.63115">
        <ele>1268.8</ele>
      </trkpt>
      <trkpt lat="40.76132" lon="-1.63121">
        <ele>1267.9</ele>
      </trkpt>
      <trkpt lat="40.76063" lon="-1.63153">
        <ele>1266.7</ele>
      </trkpt>
      <trkpt lat="40.76021" lon="-1.63169">
        <ele>1264.9</ele>
      </trkpt>
      <trkpt lat="40.75981" lon="-1.63178">
        <ele>1264.6</ele>
      </trkpt>
      <trkpt lat="40.75961" lon="-1.6318">
        <ele>1264.3</ele>
      </trkpt>
      <trkpt lat="40.75928" lon="-1.6318">
        <ele>1263.7</ele>
      </trkpt>
      <trkpt lat="40.75901" lon="-1.63177">
        <ele>1262.7</ele>
      </trkpt>
      <trkpt lat="40.75858" lon="-1.63166">
        <ele>1260</ele>
      </trkpt>
      <trkpt lat="40.75822" lon="-1.6315">
        <ele>1259.7</ele>
      </trkpt>
      <trkpt lat="40.75805" lon="-1.6314">
        <ele>1259.9</ele>
      </trkpt>
      <trkpt lat="40.75764" lon="-1.63111">
        <ele>1259</ele>
      </trkpt>
      <trkpt lat="40.74549" lon="-1.62152">
        <ele>1272.1</ele>
      </trkpt>
      <trkpt lat="40.74507" lon="-1.62122">
        <ele>1271.9</ele>
      </trkpt>
      <trkpt lat="40.74474" lon="-1.62102">
        <ele>1269.4</ele>
      </trkpt>
      <trkpt lat="40.74434" lon="-1.62082">
        <ele>1268.1</ele>
      </trkpt>
      <trkpt lat="40.74411" lon="-1.62072">
        <ele>1265.5</ele>
      </trkpt>
      <trkpt lat="40.74382" lon="-1.62062">
        <ele>1265.4</ele>
      </trkpt>
      <trkpt lat="40.74328" lon="-1.62048">
        <ele>1263.7</ele>
      </trkpt>
      <trkpt lat="40.74273" lon="-1.62041">
        <ele>1261.3</ele>
      </trkpt>
      <trkpt lat="40.74245" lon="-1.6204">
        <ele>1262.9</ele>
      </trkpt>
      <trkpt lat="40.74189" lon="-1.62043">
        <ele>1264.2</ele>
      </trkpt>
      <trkpt lat="40.74135" lon="-1.62053">
        <ele>1260.3</ele>
      </trkpt>
      <trkpt lat="40.74088" lon="-1.62067">
        <ele>1259.3</ele>
      </trkpt>
      <trkpt lat="40.73984" lon="-1.62109">
        <ele>1250.1</ele>
      </trkpt>
      <trkpt lat="40.73938" lon="-1.6212">
        <ele>1246.7</ele>
      </trkpt>
      <trkpt lat="40.73921" lon="-1.62122">
        <ele>1245</ele>
      </trkpt>
      <trkpt lat="40.73903" lon="-1.62122">
        <ele>1244.1</ele>
      </trkpt>
      <trkpt lat="40.73864" lon="-1.62118">
        <ele>1243.1</ele>
      </trkpt>
      <trkpt lat="40.73844" lon="-1.62113">
        <ele>1242.4</ele>
      </trkpt>
      <trkpt lat="40.7381" lon="-1.62102">
        <ele>1239.9</ele>
      </trkpt>
      <trkpt lat="40.73656" lon="-1.62046">
        <ele>1235.4</ele>
      </trkpt>
      <trkpt lat="40.73629" lon="-1.62038">
        <ele>1236.1</ele>
      </trkpt>
      <trkpt lat="40.73599" lon="-1.62033">
        <ele>1237.1</ele>
      </trkpt>
      <trkpt lat="40.73579" lon="-1.62032">
        <ele>1237.9</ele>
      </trkpt>
      <trkpt lat="40.73537" lon="-1.62035">
        <ele>1239.9</ele>
      </trkpt>
      <trkpt lat="40.73492" lon="-1.62049">
        <ele>1240.5</ele>
      </trkpt>
      <trkpt lat="40.73455" lon="-1.62069">
        <ele>1239.8</ele>
      </trkpt>
      <trkpt lat="40.73067" lon="-1.62347">
        <ele>1236.5</ele>
      </trkpt>
      <trkpt lat="40.73027" lon="-1.62371">
        <ele>1237</ele>
      </trkpt>
      <trkpt lat="40.72999" lon="-1.62384">
        <ele>1237.8</ele>
      </trkpt>
      <trkpt lat="40.72982" lon="-1.6239">
        <ele>1238</ele>
      </trkpt>
      <trkpt lat="40.72933" lon="-1.62403">
        <ele>1237.2</ele>
      </trkpt>
      <trkpt lat="40.72887" lon="-1.62407">
        <ele>1237.7</ele>
      </trkpt>
      <trkpt lat="40.72786" lon="-1.62409">
        <ele>1238.7</ele>
      </trkpt>
      <trkpt lat="40.72717" lon="-1.62407">
        <ele>1239.7</ele>
      </trkpt>
      <trkpt lat="40.72695" lon="-1.62404">
        <ele>1239.5</ele>
      </trkpt>
      <trkpt lat="40.72648" lon="-1.62393">
        <ele>1240.7</ele>
      </trkpt>
      <trkpt lat="40.72624" lon="-1.62385">
        <ele>1240.9</ele>
      </trkpt>
      <trkpt lat="40.72585" lon="-1.62368">
        <ele>1241</ele>
      </trkpt>
      <trkpt lat="40.7256" lon="-1.62355">
        <ele>1240.8</ele>
      </trkpt>
      <trkpt lat="40.72483" lon="-1.62306">
        <ele>1241.6</ele>
      </trkpt>
      <trkpt lat="40.71968" lon="-1.61965">
        <ele>1249.2</ele>
      </trkpt>
      <trkpt lat="40.70948" lon="-1.61233">
        <ele>1264</ele>
      </trkpt>
      <trkpt lat="40.70908" lon="-1.61204">
        <ele>1264.5</ele>
      </trkpt>
      <trkpt lat="40.7084" lon="-1.6115">
        <ele>1265.5</ele>
      </trkpt>
      <trkpt lat="40.70802" lon="-1.61116">
        <ele>1266</ele>
      </trkpt>
      <trkpt lat="40.70655" lon="-1.60967">
        <ele>1267.3</ele>
      </trkpt>
      <trkpt lat="40.70383" lon="-1.60688">
        <ele>1275.2</ele>
      </trkpt>
      <trkpt lat="40.7033" lon="-1.60632">
        <ele>1275.9</ele>
      </trkpt>
      <trkpt lat="40.70292" lon="-1.60588">
        <ele>1275</ele>
      </trkpt>
      <trkpt lat="40.7026" lon="-1.60546">
        <ele>1274.9</ele>
      </trkpt>
      <trkpt lat="40.70227" lon="-1.60495">
        <ele>1274.6</ele>
      </trkpt>
      <trkpt lat="40.70212" lon="-1.60469">
        <ele>1275.2</ele>
      </trkpt>
      <trkpt lat="40.70131" lon="-1.60308">
        <ele>1277.6</ele>
      </trkpt>
      <trkpt lat="40.70101" lon="-1.60256">
        <ele>1278.8</ele>
      </trkpt>
      <trkpt lat="40.70069" lon="-1.60209">
        <ele>1279.8</ele>
      </trkpt>
      <trkpt lat="40.70023" lon="-1.60153">
        <ele>1281.1</ele>
      </trkpt>
      <trkpt lat="40.69995" lon="-1.60124">
        <ele>1281.3</ele>
      </trkpt>
      <trkpt lat="40.69973" lon="-1.60104">
        <ele>1281.7</ele>
      </trkpt>
      <trkpt lat="40.69918" lon="-1.60061">
        <ele>1283.1</ele>
      </trkpt>
      <trkpt lat="40.69874" lon="-1.60033">
        <ele>1283.4</ele>
      </trkpt>
      <trkpt lat="40.69751" lon="-1.59961">
        <ele>1284.6</ele>
      </trkpt>
      <trkpt lat="40.69726" lon="-1.59943">
        <ele>1285.6</ele>
      </trkpt>
      <trkpt lat="40.69694" lon="-1.59916">
        <ele>1287</ele>
      </trkpt>
      <trkpt lat="40.69666" lon="-1.59887">
        <ele>1286.9</ele>
      </trkpt>
      <trkpt lat="40.69627" lon="-1.59836">
        <ele>1287.4</ele>
      </trkpt>
      <trkpt lat="40.69605" lon="-1.59802">
        <ele>1289.4</ele>
      </trkpt>
      <trkpt lat="40.69565" lon="-1.59733">
        <ele>1290.2</ele>
      </trkpt>
      <trkpt lat="40.69522" lon="-1.59667">
        <ele>1291.4</ele>
      </trkpt>
      <trkpt lat="40.6951" lon="-1.59652">
        <ele>1291.6</ele>
      </trkpt>
      <trkpt lat="40.6948" lon="-1.5962">
        <ele>1293</ele>
      </trkpt>
      <trkpt lat="40.6945" lon="-1.59595">
        <ele>1294.8</ele>
      </trkpt>
      <trkpt lat="40.69423" lon="-1.59575">
        <ele>1295.5</ele>
      </trkpt>
      <trkpt lat="40.6939" lon="-1.59557">
        <ele>1296.2</ele>
      </trkpt>
      <trkpt lat="40.69322" lon="-1.5953">
        <ele>1297.2</ele>
      </trkpt>
      <trkpt lat="40.68896" lon="-1.59371">
        <ele>1313</ele>
      </trkpt>
      <trkpt lat="40.68782" lon="-1.59331">
        <ele>1316.8</ele>
      </trkpt>
      <trkpt lat="40.68743" lon="-1.59321">
        <ele>1318.9</ele>
      </trkpt>
      <trkpt lat="40.68699" lon="-1.59313">
        <ele>1321.2</ele>
      </trkpt>
      <trkpt lat="40.68605" lon="-1.5931">
        <ele>1323.7</ele>
      </trkpt>
      <trkpt lat="40.68557" lon="-1.59306">
        <ele>1325.9</ele>
      </trkpt>
      <trkpt lat="40.6852" lon="-1.593">
        <ele>1326.7</ele>
      </trkpt>
      <trkpt lat="40.68484" lon="-1.59289">
        <ele>1327.5</ele>
      </trkpt>
      <trkpt lat="40.68444" lon="-1.59272">
        <ele>1329.8</ele>
      </trkpt>
      <trkpt lat="40.68219" lon="-1.59154">
        <ele>1333.6</ele>
      </trkpt>
      <trkpt lat="40.68164" lon="-1.59129">
        <ele>1333.3</ele>
      </trkpt>
      <trkpt lat="40.68123" lon="-1.59115">
        <ele>1333.6</ele>
      </trkpt>
      <trkpt lat="40.67825" lon="-1.59034">
        <ele>1333.8</ele>
      </trkpt>
      <trkpt lat="40.67771" lon="-1.59015">
        <ele>1334.4</ele>
      </trkpt>
      <trkpt lat="40.6775" lon="-1.59005">
        <ele>1333.4</ele>
      </trkpt>
      <trkpt lat="40.67722" lon="-1.58989">
        <ele>1333</ele>
      </trkpt>
      <trkpt lat="40.67674" lon="-1.58956">
        <ele>1331.6</ele>
      </trkpt>
      <trkpt lat="40.67297" lon="-1.58672">
        <ele>1344.6</ele>
      </trkpt>
      <trkpt lat="40.67265" lon="-1.5865">
        <ele>1346</ele>
      </trkpt>
      <trkpt lat="40.67214" lon="-1.58621">
        <ele>1347.1</ele>
      </trkpt>
      <trkpt lat="40.67221" lon="-1.58596">
        <ele>1347.5</ele>
      </trkpt>
      <trkpt lat="40.6722" lon="-1.58581">
        <ele>1347.8</ele>
      </trkpt>
      <trkpt lat="40.67216" lon="-1.5857">
        <ele>1347.3</ele>
      </trkpt>
      <trkpt lat="40.67209" lon="-1.58561">
        <ele>1347.2</ele>
      </trkpt>
      <trkpt lat="40.67196" lon="-1.58551">
        <ele>1347.6</ele>
      </trkpt>
      <trkpt lat="40.67144" lon="-1.58523">
        <ele>1348.9</ele>
      </trkpt>
      <trkpt lat="40.67131" lon="-1.58515">
        <ele>1350.1</ele>
      </trkpt>
      <trkpt lat="40.67115" lon="-1.58502">
        <ele>1350.9</ele>
      </trkpt>
      <trkpt lat="40.67104" lon="-1.58487">
        <ele>1351.1</ele>
      </trkpt>
      <trkpt lat="40.671" lon="-1.58478">
        <ele>1351.3</ele>
      </trkpt>
      <trkpt lat="40.67091" lon="-1.58439">
        <ele>1351.4</ele>
      </trkpt>
      <trkpt lat="40.67075" lon="-1.58242">
        <ele>1349.1</ele>
      </trkpt>
      <trkpt lat="40.67057" lon="-1.58106">
        <ele>1346.7</ele>
      </trkpt>
      <trkpt lat="40.67052" lon="-1.58057">
        <ele>1346.1</ele>
      </trkpt>
      <trkpt lat="40.67051" lon="-1.57965">
        <ele>1347.3</ele>
      </trkpt>
      <trkpt lat="40.67029" lon="-1.57716">
        <ele>1346.9</ele>
      </trkpt>
      <trkpt lat="40.67018" lon="-1.57482">
        <ele>1344.4</ele>
      </trkpt>
      <trkpt lat="40.67014" lon="-1.57426">
        <ele>1343.2</ele>
      </trkpt>
      <trkpt lat="40.66968" lon="-1.57113">
        <ele>1343.9</ele>
      </trkpt>
      <trkpt lat="40.66948" lon="-1.56958">
        <ele>1346.4</ele>
      </trkpt>
      <trkpt lat="40.66933" lon="-1.56897">
        <ele>1347.7</ele>
      </trkpt>
      <trkpt lat="40.66899" lon="-1.56783">
        <ele>1350.6</ele>
      </trkpt>
      <trkpt lat="40.66891" lon="-1.56758">
        <ele>1351.6</ele>
      </trkpt>
      <trkpt lat="40.66879" lon="-1.5673">
        <ele>1352.3</ele>
      </trkpt>
      <trkpt lat="40.668" lon="-1.56588">
        <ele>1352.8</ele>
      </trkpt>
      <trkpt lat="40.66633" lon="-1.56327">
        <ele>1347</ele>
      </trkpt>
      <trkpt lat="40.66612" lon="-1.56288">
        <ele>1346.7</ele>
      </trkpt>
      <trkpt lat="40.66558" lon="-1.56172">
        <ele>1345.7</ele>
      </trkpt>
      <trkpt lat="40.66545" lon="-1.56134">
        <ele>1346.9</ele>
      </trkpt>
      <trkpt lat="40.66528" lon="-1.56076">
        <ele>1349.5</ele>
      </trkpt>
      <trkpt lat="40.66493" lon="-1.55931">
        <ele>1357</ele>
      </trkpt>
      <trkpt lat="40.66483" lon="-1.55897">
        <ele>1359.2</ele>
      </trkpt>
      <trkpt lat="40.66469" lon="-1.55857">
        <ele>1360.2</ele>
      </trkpt>
      <trkpt lat="40.66406" lon="-1.55701">
        <ele>1361.9</ele>
      </trkpt>
      <trkpt lat="40.66357" lon="-1.55546">
        <ele>1362</ele>
      </trkpt>
      <trkpt lat="40.65967" lon="-1.5462">
        <ele>1371.5</ele>
      </trkpt>
      <trkpt lat="40.65948" lon="-1.54571">
        <ele>1371.1</ele>
      </trkpt>
      <trkpt lat="40.65939" lon="-1.54539">
        <ele>1371.4</ele>
      </trkpt>
      <trkpt lat="40.65927" lon="-1.54486">
        <ele>1371.4</ele>
      </trkpt>
      <trkpt lat="40.65813" lon="-1.5395">
        <ele>1364</ele>
      </trkpt>
      <trkpt lat="40.65784" lon="-1.53949">
        <ele>1364</ele>
      </trkpt>
      <trkpt lat="40.65771" lon="-1.53947">
        <ele>1364.2</ele>
      </trkpt>
      <trkpt lat="40.65729" lon="-1.53938">
        <ele>1365.1</ele>
      </trkpt>
      <trkpt lat="40.65685" lon="-1.53926">
        <ele>1366.4</ele>
      </trkpt>
      <trkpt lat="40.65578" lon="-1.53895">
        <ele>1369.6</ele>
      </trkpt>
      <trkpt lat="40.65557" lon="-1.53886">
        <ele>1370.1</ele>
      </trkpt>
      <trkpt lat="40.65539" lon="-1.53871">
        <ele>1370.6</ele>
      </trkpt>
      <trkpt lat="40.65263" lon="-1.53484">
        <ele>1382</ele>
      </trkpt>
      <trkpt lat="40.65231" lon="-1.53434">
        <ele>1383.4</ele>
      </trkpt>
      <trkpt lat="40.65076" lon="-1.53173">
        <ele>1390.5</ele>
      </trkpt>
      <trkpt lat="40.65" lon="-1.53038">
        <ele>1392.6</ele>
      </trkpt>
      <trkpt lat="40.64987" lon="-1.53018">
        <ele>1392.6</ele>
      </trkpt>
      <trkpt lat="40.64968" lon="-1.52999">
        <ele>1392.9</ele>
      </trkpt>
      <trkpt lat="40.64875" lon="-1.52936">
        <ele>1394.8</ele>
      </trkpt>
      <trkpt lat="40.64847" lon="-1.52914">
        <ele>1394.6</ele>
      </trkpt>
      <trkpt lat="40.64829" lon="-1.52892">
        <ele>1394.7</ele>
      </trkpt>
      <trkpt lat="40.64709" lon="-1.52721">
        <ele>1394.1</ele>
      </trkpt>
      <trkpt lat="40.64694" lon="-1.52695">
        <ele>1393.9</ele>
      </trkpt>
      <trkpt lat="40.64642" lon="-1.52588">
        <ele>1391.2</ele>
      </trkpt>
      <trkpt lat="40.64627" lon="-1.52549">
        <ele>1390.3</ele>
      </trkpt>
      <trkpt lat="40.64599" lon="-1.52456">
        <ele>1388.9</ele>
      </trkpt>
      <trkpt lat="40.64584" lon="-1.52413">
        <ele>1388</ele>
      </trkpt>
      <trkpt lat="40.64569" lon="-1.52382">
        <ele>1387.1</ele>
      </trkpt>
      <trkpt lat="40.64497" lon="-1.52263">
        <ele>1383.7</ele>
      </trkpt>
      <trkpt lat="40.64489" lon="-1.52243">
        <ele>1383.3</ele>
      </trkpt>
      <trkpt lat="40.64481" lon="-1.52117">
        <ele>1386.8</ele>
      </trkpt>
      <trkpt lat="40.64483" lon="-1.52067">
        <ele>1387.7</ele>
      </trkpt>
      <trkpt lat="40.64482" lon="-1.5204">
        <ele>1388.3</ele>
      </trkpt>
      <trkpt lat="40.64463" lon="-1.51939">
        <ele>1388.1</ele>
      </trkpt>
      <trkpt lat="40.64458" lon="-1.51927">
        <ele>1389.2</ele>
      </trkpt>
      <trkpt lat="40.64443" lon="-1.51908">
        <ele>1388.7</ele>
      </trkpt>
      <trkpt lat="40.6439" lon="-1.51865">
        <ele>1384.8</ele>
      </trkpt>
      <trkpt lat="40.6432" lon="-1.51813">
        <ele>1379.2</ele>
      </trkpt>
      <trkpt lat="40.64301" lon="-1.51801">
        <ele>1377.1</ele>
      </trkpt>
      <trkpt lat="40.6427" lon="-1.51788">
        <ele>1375</ele>
      </trkpt>
      <trkpt lat="40.64251" lon="-1.51787">
        <ele>1374.4</ele>
      </trkpt>
      <trkpt lat="40.64213" lon="-1.51793">
        <ele>1371.6</ele>
      </trkpt>
      <trkpt lat="40.64196" lon="-1.5179">
        <ele>1370.1</ele>
      </trkpt>
      <trkpt lat="40.64188" lon="-1.51783">
        <ele>1369.5</ele>
      </trkpt>
      <trkpt lat="40.64182" lon="-1.51776">
        <ele>1369.2</ele>
      </trkpt>
      <trkpt lat="40.64147" lon="-1.5171">
        <ele>1367.4</ele>
      </trkpt>
      <trkpt lat="40.64123" lon="-1.51673">
        <ele>1367.2</ele>
      </trkpt>
      <trkpt lat="40.64117" lon="-1.51659">
        <ele>1367.3</ele>
      </trkpt>
      <trkpt lat="40.64111" lon="-1.51635">
        <ele>1367</ele>
      </trkpt>
      <trkpt lat="40.64099" lon="-1.516">
        <ele>1366.6</ele>
      </trkpt>
      <trkpt lat="40.64094" lon="-1.51591">
        <ele>1366.4</ele>
      </trkpt>
      <trkpt lat="40.6409" lon="-1.51589">
        <ele>1366.2</ele>
      </trkpt>
      <trkpt lat="40.64074" lon="-1.5159">
        <ele>1365.9</ele>
      </trkpt>
      <trkpt lat="40.6406" lon="-1.51582">
        <ele>1366</ele>
      </trkpt>
      <trkpt lat="40.64021" lon="-1.51537">
        <ele>1365.7</ele>
      </trkpt>
      <trkpt lat="40.63998" lon="-1.51517">
        <ele>1366</ele>
      </trkpt>
      <trkpt lat="40.63972" lon="-1.51498">
        <ele>1366</ele>
      </trkpt>
      <trkpt lat="40.63919" lon="-1.51443">
        <ele>1366</ele>
      </trkpt>
      <trkpt lat="40.63893" lon="-1.5142">
        <ele>1365.9</ele>
      </trkpt>
      <trkpt lat="40.63877" lon="-1.51415">
        <ele>1365.5</ele>
      </trkpt>
      <trkpt lat="40.6387" lon="-1.51415">
        <ele>1365.3</ele>
      </trkpt>
      <trkpt lat="40.63852" lon="-1.51421">
        <ele>1364.6</ele>
      </trkpt>
      <trkpt lat="40.63785" lon="-1.51449">
        <ele>1363.8</ele>
      </trkpt>
      <trkpt lat="40.63752" lon="-1.51459">
        <ele>1363</ele>
      </trkpt>
      <trkpt lat="40.63737" lon="-1.5146">
        <ele>1362.8</ele>
      </trkpt>
      <trkpt lat="40.63717" lon="-1.51458">
        <ele>1362.5</ele>
      </trkpt>
      <trkpt lat="40.63696" lon="-1.51454">
        <ele>1362.6</ele>
      </trkpt>
      <trkpt lat="40.63674" lon="-1.51447">
        <ele>1362.9</ele>
      </trkpt>
      <trkpt lat="40.63653" lon="-1.51438">
        <ele>1362.5</ele>
      </trkpt>
      <trkpt lat="40.6357" lon="-1.51395">
        <ele>1362.4</ele>
      </trkpt>
      <trkpt lat="40.63466" lon="-1.51338">
        <ele>1363</ele>
      </trkpt>
      <trkpt lat="40.63222" lon="-1.51191">
        <ele>1363</ele>
      </trkpt>
      <trkpt lat="40.63178" lon="-1.51155">
        <ele>1362.7</ele>
      </trkpt>
      <trkpt lat="40.63092" lon="-1.51078">
        <ele>1362.3</ele>
      </trkpt>
      <trkpt lat="40.63062" lon="-1.51056">
        <ele>1362</ele>
      </trkpt>
      <trkpt lat="40.63047" lon="-1.51048">
        <ele>1361.8</ele>
      </trkpt>
      <trkpt lat="40.63029" lon="-1.51041">
        <ele>1361.5</ele>
      </trkpt>
      <trkpt lat="40.6295" lon="-1.51018">
        <ele>1361.4</ele>
      </trkpt>
      <trkpt lat="40.62658" lon="-1.50935">
        <ele>1361.5</ele>
      </trkpt>
      <trkpt lat="40.62624" lon="-1.50927">
        <ele>1361.3</ele>
      </trkpt>
      <trkpt lat="40.62548" lon="-1.50916">
        <ele>1362</ele>
      </trkpt>
      <trkpt lat="40.62374" lon="-1.50896">
        <ele>1363.1</ele>
      </trkpt>
      <trkpt lat="40.62304" lon="-1.50896">
        <ele>1363.3</ele>
      </trkpt>
      <trkpt lat="40.62272" lon="-1.50894">
        <ele>1364</ele>
      </trkpt>
      <trkpt lat="40.62251" lon="-1.50891">
        <ele>1364.1</ele>
      </trkpt>
      <trkpt lat="40.62225" lon="-1.50883">
        <ele>1364</ele>
      </trkpt>
      <trkpt lat="40.61954" lon="-1.50776">
        <ele>1369.6</ele>
      </trkpt>
      <trkpt lat="40.61919" lon="-1.50759">
        <ele>1369.3</ele>
      </trkpt>
      <trkpt lat="40.61899" lon="-1.50745">
        <ele>1368.9</ele>
      </trkpt>
      <trkpt lat="40.61873" lon="-1.5072">
        <ele>1368.9</ele>
      </trkpt>
      <trkpt lat="40.61782" lon="-1.50628">
        <ele>1370.4</ele>
      </trkpt>
      <trkpt lat="40.61768" lon="-1.50612">
        <ele>1370.4</ele>
      </trkpt>
      <trkpt lat="40.61753" lon="-1.50594">
        <ele>1370.3</ele>
      </trkpt>
      <trkpt lat="40.61626" lon="-1.50415">
        <ele>1371.3</ele>
      </trkpt>
      <trkpt lat="40.61589" lon="-1.50369">
        <ele>1372</ele>
      </trkpt>
      <trkpt lat="40.6157" lon="-1.50352">
        <ele>1372.3</ele>
      </trkpt>
      <trkpt lat="40.61551" lon="-1.50338">
        <ele>1372.5</ele>
      </trkpt>
      <trkpt lat="40.61528" lon="-1.50324">
        <ele>1372.3</ele>
      </trkpt>
      <trkpt lat="40.60959" lon="-1.50017">
        <ele>1376.9</ele>
      </trkpt>
      <trkpt lat="40.60877" lon="-1.4997">
        <ele>1380</ele>
      </trkpt>
      <trkpt lat="40.6086" lon="-1.49956">
        <ele>1380</ele>
      </trkpt>
      <trkpt lat="40.60842" lon="-1.49935">
        <ele>1380.8</ele>
      </trkpt>
      <trkpt lat="40.60607" lon="-1.49619">
        <ele>1399.3</ele>
      </trkpt>
      <trkpt lat="40.60594" lon="-1.49599">
        <ele>1400.2</ele>
      </trkpt>
      <trkpt lat="40.60576" lon="-1.49562">
        <ele>1401.5</ele>
      </trkpt>
      <trkpt lat="40.60538" lon="-1.49461">
        <ele>1402.6</ele>
      </trkpt>
      <trkpt lat="40.60517" lon="-1.49422">
        <ele>1402.6</ele>
      </trkpt>
      <trkpt lat="40.60505" lon="-1.49409">
        <ele>1402.5</ele>
      </trkpt>
      <trkpt lat="40.60491" lon="-1.49397">
        <ele>1402.6</ele>
      </trkpt>
      <trkpt lat="40.60471" lon="-1.49385">
        <ele>1402.9</ele>
      </trkpt>
      <trkpt lat="40.60415" lon="-1.49358">
        <ele>1401.9</ele>
      </trkpt>
      <trkpt lat="40.60363" lon="-1.49335">
        <ele>1400.1</ele>
      </trkpt>
      <trkpt lat="40.60334" lon="-1.49325">
        <ele>1399.3</ele>
      </trkpt>
      <trkpt lat="40.60059" lon="-1.49247">
        <ele>1394.9</ele>
      </trkpt>
      <trkpt lat="40.60027" lon="-1.49241">
        <ele>1394.3</ele>
      </trkpt>
      <trkpt lat="40.60001" lon="-1.49243">
        <ele>1393.1</ele>
      </trkpt>
      <trkpt lat="40.59988" lon="-1.49247">
        <ele>1392.5</ele>
      </trkpt>
      <trkpt lat="40.5997" lon="-1.49256">
        <ele>1391.8</ele>
      </trkpt>
      <trkpt lat="40.59916" lon="-1.49291">
        <ele>1388.9</ele>
      </trkpt>
      <trkpt lat="40.59898" lon="-1.49299">
        <ele>1388.9</ele>
      </trkpt>
      <trkpt lat="40.59883" lon="-1.49303">
        <ele>1388.6</ele>
      </trkpt>
      <trkpt lat="40.59852" lon="-1.49306">
        <ele>1387.7</ele>
      </trkpt>
      <trkpt lat="40.59811" lon="-1.49307">
        <ele>1387.1</ele>
      </trkpt>
      <trkpt lat="40.5975" lon="-1.49308">
        <ele>1387.1</ele>
      </trkpt>
      <trkpt lat="40.59734" lon="-1.49306">
        <ele>1387</ele>
      </trkpt>
      <trkpt lat="40.59716" lon="-1.49302">
        <ele>1387.1</ele>
      </trkpt>
      <trkpt lat="40.59699" lon="-1.49295">
        <ele>1387.1</ele>
      </trkpt>
      <trkpt lat="40.59681" lon="-1.49285">
        <ele>1387.5</ele>
      </trkpt>
      <trkpt lat="40.59646" lon="-1.49261">
        <ele>1389.2</ele>
      </trkpt>
      <trkpt lat="40.59615" lon="-1.49243">
        <ele>1390.5</ele>
      </trkpt>
      <trkpt lat="40.59597" lon="-1.49235">
        <ele>1391</ele>
      </trkpt>
      <trkpt lat="40.59575" lon="-1.49229">
        <ele>1391.2</ele>
      </trkpt>
      <trkpt lat="40.59409" lon="-1.49201">
        <ele>1394.6</ele>
      </trkpt>
      <trkpt lat="40.59101" lon="-1.49144">
        <ele>1396.6</ele>
      </trkpt>
      <trkpt lat="40.59064" lon="-1.49135">
        <ele>1394.6</ele>
      </trkpt>
      <trkpt lat="40.59036" lon="-1.49124">
        <ele>1392.3</ele>
      </trkpt>
      <trkpt lat="40.59013" lon="-1.49112">
        <ele>1391.4</ele>
      </trkpt>
      <trkpt lat="40.58991" lon="-1.49098">
        <ele>1389.7</ele>
      </trkpt>
      <trkpt lat="40.58886" lon="-1.49016">
        <ele>1395.6</ele>
      </trkpt>
      <trkpt lat="40.58852" lon="-1.48997">
        <ele>1396.9</ele>
      </trkpt>
      <trkpt lat="40.5877" lon="-1.48966">
        <ele>1399.1</ele>
      </trkpt>
      <trkpt lat="40.5873" lon="-1.48956">
        <ele>1400</ele>
      </trkpt>
      <trkpt lat="40.58173" lon="-1.48874">
        <ele>1406.5</ele>
      </trkpt>
      <trkpt lat="40.58125" lon="-1.48866">
        <ele>1407</ele>
      </trkpt>
      <trkpt lat="40.5811" lon="-1.48862">
        <ele>1407</ele>
      </trkpt>
      <trkpt lat="40.5809" lon="-1.48853">
        <ele>1406.9</ele>
      </trkpt>
      <trkpt lat="40.5804" lon="-1.48816">
        <ele>1408.3</ele>
      </trkpt>
      <trkpt lat="40.57815" lon="-1.48633">
        <ele>1413.7</ele>
      </trkpt>
      <trkpt lat="40.57721" lon="-1.48545">
        <ele>1417.7</ele>
      </trkpt>
      <trkpt lat="40.57619" lon="-1.48453">
        <ele>1420.9</ele>
      </trkpt>
      <trkpt lat="40.57536" lon="-1.48362">
        <ele>1420.7</ele>
      </trkpt>
      <trkpt lat="40.5751" lon="-1.48337">
        <ele>1420.8</ele>
      </trkpt>
      <trkpt lat="40.57284" lon="-1.48161">
        <ele>1416</ele>
      </trkpt>
      <trkpt lat="40.57221" lon="-1.48108">
        <ele>1414.9</ele>
      </trkpt>
      <trkpt lat="40.57028" lon="-1.4791">
        <ele>1414.8</ele>
      </trkpt>
      <trkpt lat="40.56991" lon="-1.47878">
        <ele>1414.5</ele>
      </trkpt>
      <trkpt lat="40.56928" lon="-1.47832">
        <ele>1415</ele>
      </trkpt>
      <trkpt lat="40.56832" lon="-1.47768">
        <ele>1414.6</ele>
      </trkpt>
      <trkpt lat="40.56801" lon="-1.47744">
        <ele>1414</ele>
      </trkpt>
      <trkpt lat="40.56768" lon="-1.47712">
        <ele>1414</ele>
      </trkpt>
      <trkpt lat="40.56693" lon="-1.47632">
        <ele>1412.8</ele>
      </trkpt>
      <trkpt lat="40.56455" lon="-1.47322">
        <ele>1410.2</ele>
      </trkpt>
      <trkpt lat="40.56328" lon="-1.47149">
        <ele>1407.5</ele>
      </trkpt>
      <trkpt lat="40.56314" lon="-1.47139">
        <ele>1407.7</ele>
      </trkpt>
      <trkpt lat="40.56301" lon="-1.47132">
        <ele>1407.8</ele>
      </trkpt>
      <trkpt lat="40.56296" lon="-1.47127">
        <ele>1407.6</ele>
      </trkpt>
      <trkpt lat="40.56304" lon="-1.4705">
        <ele>1406.8</ele>
      </trkpt>
      <trkpt lat="40.56307" lon="-1.47002">
        <ele>1405.9</ele>
      </trkpt>
      <trkpt lat="40.56298" lon="-1.46948">
        <ele>1405</ele>
      </trkpt>
      <trkpt lat="40.56294" lon="-1.46933">
        <ele>1404.6</ele>
      </trkpt>
      <trkpt lat="40.56284" lon="-1.46903">
        <ele>1403.9</ele>
      </trkpt>
      <trkpt lat="40.56256" lon="-1.46834">
        <ele>1403</ele>
      </trkpt>
      <trkpt lat="40.56248" lon="-1.46809">
        <ele>1402.1</ele>
      </trkpt>
      <trkpt lat="40.56241" lon="-1.46765">
        <ele>1401.3</ele>
      </trkpt>
      <trkpt lat="40.56241" lon="-1.46725">
        <ele>1401</ele>
      </trkpt>
      <trkpt lat="40.56243" lon="-1.4671">
        <ele>1401.2</ele>
      </trkpt>
      <trkpt lat="40.56248" lon="-1.46691">
        <ele>1401.7</ele>
      </trkpt>
      <trkpt lat="40.56262" lon="-1.46652">
        <ele>1400.7</ele>
      </trkpt>
      <trkpt lat="40.56339" lon="-1.46505">
        <ele>1403</ele>
      </trkpt>
      <trkpt lat="40.56359" lon="-1.46472">
        <ele>1403.1</ele>
      </trkpt>
      <trkpt lat="40.56368" lon="-1.46449">
        <ele>1403</ele>
      </trkpt>
      <trkpt lat="40.56375" lon="-1.46427">
        <ele>1403.3</ele>
      </trkpt>
      <trkpt lat="40.56379" lon="-1.46407">
        <ele>1403.2</ele>
      </trkpt>
      <trkpt lat="40.56382" lon="-1.46384">
        <ele>1403</ele>
      </trkpt>
      <trkpt lat="40.56383" lon="-1.46357">
        <ele>1403</ele>
      </trkpt>
      <trkpt lat="40.56381" lon="-1.46327">
        <ele>1403</ele>
      </trkpt>
      <trkpt lat="40.56377" lon="-1.463">
        <ele>1402.8</ele>
      </trkpt>
      <trkpt lat="40.56337" lon="-1.46123">
        <ele>1399.9</ele>
      </trkpt>
      <trkpt lat="40.56329" lon="-1.46079">
        <ele>1399.8</ele>
      </trkpt>
      <trkpt lat="40.56323" lon="-1.46033">
        <ele>1399</ele>
      </trkpt>
      <trkpt lat="40.56294" lon="-1.45546">
        <ele>1392.9</ele>
      </trkpt>
      <trkpt lat="40.56296" lon="-1.45506">
        <ele>1390.9</ele>
      </trkpt>
      <trkpt lat="40.56301" lon="-1.45469">
        <ele>1389.3</ele>
      </trkpt>
      <trkpt lat="40.56309" lon="-1.45442">
        <ele>1388.4</ele>
      </trkpt>
      <trkpt lat="40.5632" lon="-1.45416">
        <ele>1386.4</ele>
      </trkpt>
      <trkpt lat="40.56333" lon="-1.45393">
        <ele>1385.9</ele>
      </trkpt>
      <trkpt lat="40.56346" lon="-1.45375">
        <ele>1384.9</ele>
      </trkpt>
      <trkpt lat="40.56379" lon="-1.45337">
        <ele>1382.1</ele>
      </trkpt>
      <trkpt lat="40.56413" lon="-1.45302">
        <ele>1379.7</ele>
      </trkpt>
      <trkpt lat="40.56449" lon="-1.45268">
        <ele>1376.5</ele>
      </trkpt>
      <trkpt lat="40.5652" lon="-1.45207">
        <ele>1371.1</ele>
      </trkpt>
      <trkpt lat="40.56543" lon="-1.45182">
        <ele>1370</ele>
      </trkpt>
      <trkpt lat="40.56557" lon="-1.45163">
        <ele>1368.9</ele>
      </trkpt>
      <trkpt lat="40.56574" lon="-1.45133">
        <ele>1367.3</ele>
      </trkpt>
      <trkpt lat="40.56581" lon="-1.45116">
        <ele>1365.7</ele>
      </trkpt>
      <trkpt lat="40.56589" lon="-1.45092">
        <ele>1364.2</ele>
      </trkpt>
      <trkpt lat="40.56594" lon="-1.45069">
        <ele>1363.1</ele>
      </trkpt>
      <trkpt lat="40.56597" lon="-1.45043">
        <ele>1361.8</ele>
      </trkpt>
      <trkpt lat="40.566" lon="-1.44881">
        <ele>1350.7</ele>
      </trkpt>
      <trkpt lat="40.566" lon="-1.44787">
        <ele>1347.5</ele>
      </trkpt>
      <trkpt lat="40.56597" lon="-1.44704">
        <ele>1345.7</ele>
      </trkpt>
      <trkpt lat="40.56583" lon="-1.44548">
        <ele>1340.7</ele>
      </trkpt>
      <trkpt lat="40.56534" lon="-1.44096">
        <ele>1341.7</ele>
      </trkpt>
      <trkpt lat="40.56534" lon="-1.44069">
        <ele>1342.1</ele>
      </trkpt>
      <trkpt lat="40.56539" lon="-1.44028">
        <ele>1341.8</ele>
      </trkpt>
      <trkpt lat="40.56561" lon="-1.43933">
        <ele>1342.4</ele>
      </trkpt>
      <trkpt lat="40.56567" lon="-1.43897">
        <ele>1343.1</ele>
      </trkpt>
      <trkpt lat="40.56569" lon="-1.43848">
        <ele>1345.8</ele>
      </trkpt>
      <trkpt lat="40.56563" lon="-1.43804">
        <ele>1345.4</ele>
      </trkpt>
      <trkpt lat="40.56549" lon="-1.43759">
        <ele>1346.5</ele>
      </trkpt>
      <trkpt lat="40.56506" lon="-1.43642">
        <ele>1347.7</ele>
      </trkpt>
      <trkpt lat="40.56496" lon="-1.43603">
        <ele>1348.3</ele>
      </trkpt>
      <trkpt lat="40.56492" lon="-1.43574">
        <ele>1348.7</ele>
      </trkpt>
      <trkpt lat="40.5649" lon="-1.43535">
        <ele>1349.6</ele>
      </trkpt>
      <trkpt lat="40.5649" lon="-1.43508">
        <ele>1349.7</ele>
      </trkpt>
      <trkpt lat="40.56493" lon="-1.4348">
        <ele>1350.2</ele>
      </trkpt>
      <trkpt lat="40.56507" lon="-1.43413">
        <ele>1352.7</ele>
      </trkpt>
      <trkpt lat="40.5652" lon="-1.43365">
        <ele>1354.1</ele>
      </trkpt>
      <trkpt lat="40.56534" lon="-1.43304">
        <ele>1355.8</ele>
      </trkpt>
      <trkpt lat="40.56544" lon="-1.43246">
        <ele>1356.9</ele>
      </trkpt>
      <trkpt lat="40.56551" lon="-1.43177">
        <ele>1358.5</ele>
      </trkpt>
      <trkpt lat="40.56553" lon="-1.43126">
        <ele>1360.2</ele>
      </trkpt>
      <trkpt lat="40.56552" lon="-1.43078">
        <ele>1361.1</ele>
      </trkpt>
      <trkpt lat="40.56548" lon="-1.43028">
        <ele>1362.3</ele>
      </trkpt>
      <trkpt lat="40.5654" lon="-1.42965">
        <ele>1365.1</ele>
      </trkpt>
      <trkpt lat="40.56524" lon="-1.42875">
        <ele>1366.6</ele>
      </trkpt>
      <trkpt lat="40.56514" lon="-1.42831">
        <ele>1367.1</ele>
      </trkpt>
      <trkpt lat="40.56502" lon="-1.4279">
        <ele>1368.6</ele>
      </trkpt>
      <trkpt lat="40.56491" lon="-1.42762">
        <ele>1368.8</ele>
      </trkpt>
      <trkpt lat="40.56468" lon="-1.42714">
        <ele>1371.9</ele>
      </trkpt>
      <trkpt lat="40.56418" lon="-1.42619">
        <ele>1375.8</ele>
      </trkpt>
      <trkpt lat="40.56354" lon="-1.42499">
        <ele>1372</ele>
      </trkpt>
      <trkpt lat="40.56312" lon="-1.42426">
        <ele>1367.3</ele>
      </trkpt>
      <trkpt lat="40.56288" lon="-1.42393">
        <ele>1365.1</ele>
      </trkpt>
      <trkpt lat="40.56263" lon="-1.42368">
        <ele>1363.1</ele>
      </trkpt>
      <trkpt lat="40.5623" lon="-1.42344">
        <ele>1361.4</ele>
      </trkpt>
      <trkpt lat="40.56184" lon="-1.42317">
        <ele>1359</ele>
      </trkpt>
      <trkpt lat="40.5616" lon="-1.42301">
        <ele>1358.1</ele>
      </trkpt>
      <trkpt lat="40.56142" lon="-1.42284">
        <ele>1356</ele>
      </trkpt>
      <trkpt lat="40.56119" lon="-1.42258">
        <ele>1355.4</ele>
      </trkpt>
      <trkpt lat="40.56062" lon="-1.42179">
        <ele>1348.3</ele>
      </trkpt>
      <trkpt lat="40.56051" lon="-1.42155">
        <ele>1345.3</ele>
      </trkpt>
      <trkpt lat="40.56043" lon="-1.4213">
        <ele>1341.2</ele>
      </trkpt>
      <trkpt lat="40.56039" lon="-1.42102">
        <ele>1336.3</ele>
      </trkpt>
      <trkpt lat="40.56036" lon="-1.42001">
        <ele>1335.7</ele>
      </trkpt>
      <trkpt lat="40.56031" lon="-1.41965">
        <ele>1333.7</ele>
      </trkpt>
      <trkpt lat="40.5602" lon="-1.41926">
        <ele>1333.1</ele>
      </trkpt>
      <trkpt lat="40.56007" lon="-1.41898">
        <ele>1329.4</ele>
      </trkpt>
      <trkpt lat="40.55993" lon="-1.41875">
        <ele>1327.3</ele>
      </trkpt>
      <trkpt lat="40.55977" lon="-1.41855">
        <ele>1325.5</ele>
      </trkpt>
      <trkpt lat="40.55958" lon="-1.41837">
        <ele>1324.5</ele>
      </trkpt>
      <trkpt lat="40.55883" lon="-1.41784">
        <ele>1317.3</ele>
      </trkpt>
      <trkpt lat="40.55861" lon="-1.41761">
        <ele>1313.6</ele>
      </trkpt>
      <trkpt lat="40.55847" lon="-1.41742">
        <ele>1311.2</ele>
      </trkpt>
      <trkpt lat="40.55807" lon="-1.41669">
        <ele>1307.2</ele>
      </trkpt>
      <trkpt lat="40.55789" lon="-1.41643">
        <ele>1306</ele>
      </trkpt>
      <trkpt lat="40.55775" lon="-1.41629">
        <ele>1304.6</ele>
      </trkpt>
      <trkpt lat="40.55747" lon="-1.4161">
        <ele>1301.7</ele>
      </trkpt>
      <trkpt lat="40.55731" lon="-1.41603">
        <ele>1300</ele>
      </trkpt>
      <trkpt lat="40.55657" lon="-1.41584">
        <ele>1294.5</ele>
      </trkpt>
      <trkpt lat="40.5563" lon="-1.41571">
        <ele>1291.5</ele>
      </trkpt>
      <trkpt lat="40.55609" lon="-1.41555">
        <ele>1290.1</ele>
      </trkpt>
      <trkpt lat="40.55589" lon="-1.41535">
        <ele>1287.9</ele>
      </trkpt>
      <trkpt lat="40.55573" lon="-1.41514">
        <ele>1286.3</ele>
      </trkpt>
      <trkpt lat="40.55558" lon="-1.41488">
        <ele>1284</ele>
      </trkpt>
      <trkpt lat="40.55544" lon="-1.41453">
        <ele>1281.7</ele>
      </trkpt>
      <trkpt lat="40.55523" lon="-1.41391">
        <ele>1278.4</ele>
      </trkpt>
      <trkpt lat="40.55511" lon="-1.41367">
        <ele>1275.9</ele>
      </trkpt>
      <trkpt lat="40.55493" lon="-1.41341">
        <ele>1273.5</ele>
      </trkpt>
      <trkpt lat="40.55458" lon="-1.41301">
        <ele>1269.6</ele>
      </trkpt>
      <trkpt lat="40.55446" lon="-1.41279">
        <ele>1268</ele>
      </trkpt>
      <trkpt lat="40.55436" lon="-1.41251">
        <ele>1265.1</ele>
      </trkpt>
      <trkpt lat="40.55432" lon="-1.41231">
        <ele>1263.6</ele>
      </trkpt>
      <trkpt lat="40.55431" lon="-1.41209">
        <ele>1262</ele>
      </trkpt>
      <trkpt lat="40.55435" lon="-1.41167">
        <ele>1259</ele>
      </trkpt>
      <trkpt lat="40.55441" lon="-1.41145">
        <ele>1258.8</ele>
      </trkpt>
      <trkpt lat="40.55458" lon="-1.41113">
        <ele>1256.1</ele>
      </trkpt>
      <trkpt lat="40.55468" lon="-1.41099">
        <ele>1255.5</ele>
      </trkpt>
      <trkpt lat="40.55481" lon="-1.41087">
        <ele>1254.8</ele>
      </trkpt>
      <trkpt lat="40.55497" lon="-1.41077">
        <ele>1253.6</ele>
      </trkpt>
      <trkpt lat="40.55521" lon="-1.41068">
        <ele>1252.6</ele>
      </trkpt>
      <trkpt lat="40.55572" lon="-1.41059">
        <ele>1251.4</ele>
      </trkpt>
      <trkpt lat="40.556" lon="-1.41049">
        <ele>1250.2</ele>
      </trkpt>
      <trkpt lat="40.55615" lon="-1.4104">
        <ele>1249.2</ele>
      </trkpt>
      <trkpt lat="40.55645" lon="-1.41015">
        <ele>1247.4</ele>
      </trkpt>
      <trkpt lat="40.55682" lon="-1.4098">
        <ele>1245.1</ele>
      </trkpt>
      <trkpt lat="40.55709" lon="-1.40952">
        <ele>1243.4</ele>
      </trkpt>
      <trkpt lat="40.55728" lon="-1.40926">
        <ele>1241.4</ele>
      </trkpt>
      <trkpt lat="40.55741" lon="-1.40904">
        <ele>1240.4</ele>
      </trkpt>
      <trkpt lat="40.55755" lon="-1.40875">
        <ele>1238.2</ele>
      </trkpt>
      <trkpt lat="40.55776" lon="-1.40811">
        <ele>1235.2</ele>
      </trkpt>
      <trkpt lat="40.55788" lon="-1.40738">
        <ele>1232.4</ele>
      </trkpt>
      <trkpt lat="40.55826" lon="-1.40446">
        <ele>1219.2</ele>
      </trkpt>
      <trkpt lat="40.55832" lon="-1.40387">
        <ele>1218.8</ele>
      </trkpt>
      <trkpt lat="40.55832" lon="-1.40355">
        <ele>1218.7</ele>
      </trkpt>
      <trkpt lat="40.55829" lon="-1.40321">
        <ele>1217.9</ele>
      </trkpt>
      <trkpt lat="40.55823" lon="-1.40285">
        <ele>1217.1</ele>
      </trkpt>
      <trkpt lat="40.55817" lon="-1.40263">
        <ele>1216.9</ele>
      </trkpt>
      <trkpt lat="40.55809" lon="-1.40236">
        <ele>1217.1</ele>
      </trkpt>
      <trkpt lat="40.5577" lon="-1.40134">
        <ele>1214</ele>
      </trkpt>
      <trkpt lat="40.55762" lon="-1.40105">
        <ele>1214.2</ele>
      </trkpt>
      <trkpt lat="40.55756" lon="-1.40069">
        <ele>1212.6</ele>
      </trkpt>
      <trkpt lat="40.55754" lon="-1.40038">
        <ele>1210.7</ele>
      </trkpt>
      <trkpt lat="40.55754" lon="-1.40002">
        <ele>1209.2</ele>
      </trkpt>
      <trkpt lat="40.55757" lon="-1.3997">
        <ele>1207.8</ele>
      </trkpt>
      <trkpt lat="40.55764" lon="-1.3993">
        <ele>1206.2</ele>
      </trkpt>
      <trkpt lat="40.55773" lon="-1.39898">
        <ele>1204.1</ele>
      </trkpt>
      <trkpt lat="40.55799" lon="-1.39827">
        <ele>1199.7</ele>
      </trkpt>
      <trkpt lat="40.55809" lon="-1.39795">
        <ele>1199.1</ele>
      </trkpt>
      <trkpt lat="40.55817" lon="-1.3976">
        <ele>1198.2</ele>
      </trkpt>
      <trkpt lat="40.5582" lon="-1.3973">
        <ele>1197.4</ele>
      </trkpt>
      <trkpt lat="40.5582" lon="-1.39706">
        <ele>1197.1</ele>
      </trkpt>
      <trkpt lat="40.55816" lon="-1.39656">
        <ele>1196.3</ele>
      </trkpt>
      <trkpt lat="40.55809" lon="-1.39605">
        <ele>1193.4</ele>
      </trkpt>
      <trkpt lat="40.55804" lon="-1.39551">
        <ele>1189.8</ele>
      </trkpt>
      <trkpt lat="40.55802" lon="-1.39517">
        <ele>1189.2</ele>
      </trkpt>
      <trkpt lat="40.55804" lon="-1.39469">
        <ele>1186.8</ele>
      </trkpt>
      <trkpt lat="40.55812" lon="-1.39403">
        <ele>1183.9</ele>
      </trkpt>
      <trkpt lat="40.5582" lon="-1.39357">
        <ele>1182</ele>
      </trkpt>
      <trkpt lat="40.55852" lon="-1.39223">
        <ele>1182.4</ele>
      </trkpt>
      <trkpt lat="40.55859" lon="-1.39178">
        <ele>1181.5</ele>
      </trkpt>
      <trkpt lat="40.55866" lon="-1.39091">
        <ele>1180.8</ele>
      </trkpt>
      <trkpt lat="40.55866" lon="-1.38895">
        <ele>1174.5</ele>
      </trkpt>
      <trkpt lat="40.55871" lon="-1.38816">
        <ele>1171.3</ele>
      </trkpt>
      <trkpt lat="40.5588" lon="-1.38771">
        <ele>1170.4</ele>
      </trkpt>
      <trkpt lat="40.55911" lon="-1.38664">
        <ele>1165.3</ele>
      </trkpt>
      <trkpt lat="40.55919" lon="-1.38609">
        <ele>1164.5</ele>
      </trkpt>
      <trkpt lat="40.55921" lon="-1.38566">
        <ele>1163.3</ele>
      </trkpt>
      <trkpt lat="40.55908" lon="-1.38419">
        <ele>1159.5</ele>
      </trkpt>
      <trkpt lat="40.55909" lon="-1.38381">
        <ele>1158.3</ele>
      </trkpt>
      <trkpt lat="40.55912" lon="-1.38354">
        <ele>1156.6</ele>
      </trkpt>
      <trkpt lat="40.55922" lon="-1.38304">
        <ele>1156.5</ele>
      </trkpt>
      <trkpt lat="40.55929" lon="-1.38281">
        <ele>1155.6</ele>
      </trkpt>
      <trkpt lat="40.55953" lon="-1.38226">
        <ele>1154.1</ele>
      </trkpt>
      <trkpt lat="40.56276" lon="-1.37576">
        <ele>1141.8</ele>
      </trkpt>
      <trkpt lat="40.5629" lon="-1.37543">
        <ele>1143.3</ele>
      </trkpt>
      <trkpt lat="40.56305" lon="-1.37497">
        <ele>1145.9</ele>
      </trkpt>
      <trkpt lat="40.56312" lon="-1.37463">
        <ele>1146.7</ele>
      </trkpt>
      <trkpt lat="40.56316" lon="-1.3743">
        <ele>1147.3</ele>
      </trkpt>
      <trkpt lat="40.56317" lon="-1.37403">
        <ele>1148.6</ele>
      </trkpt>
      <trkpt lat="40.56315" lon="-1.37371">
        <ele>1150.6</ele>
      </trkpt>
      <trkpt lat="40.5631" lon="-1.37338">
        <ele>1152.3</ele>
      </trkpt>
      <trkpt lat="40.56291" lon="-1.37257">
        <ele>1154.9</ele>
      </trkpt>
      <trkpt lat="40.56254" lon="-1.37117">
        <ele>1160.9</ele>
      </trkpt>
      <trkpt lat="40.56247" lon="-1.37082">
        <ele>1161.4</ele>
      </trkpt>
      <trkpt lat="40.56243" lon="-1.37008">
        <ele>1164</ele>
      </trkpt>
      <trkpt lat="40.56248" lon="-1.36949">
        <ele>1166</ele>
      </trkpt>
      <trkpt lat="40.56257" lon="-1.36904">
        <ele>1165.8</ele>
      </trkpt>
      <trkpt lat="40.56276" lon="-1.36839">
        <ele>1163.3</ele>
      </trkpt>
      <trkpt lat="40.56327" lon="-1.36678">
        <ele>1153.3</ele>
      </trkpt>
      <trkpt lat="40.56341" lon="-1.36626">
        <ele>1149.9</ele>
      </trkpt>
      <trkpt lat="40.5635" lon="-1.36564">
        <ele>1146.4</ele>
      </trkpt>
      <trkpt lat="40.56351" lon="-1.3654">
        <ele>1145.1</ele>
      </trkpt>
      <trkpt lat="40.5635" lon="-1.3651">
        <ele>1143.5</ele>
      </trkpt>
      <trkpt lat="40.56253" lon="-1.35635">
        <ele>1118</ele>
      </trkpt>
      <trkpt lat="40.56201" lon="-1.35146">
        <ele>1105.7</ele>
      </trkpt>
      <trkpt lat="40.56202" lon="-1.35125">
        <ele>1104.3</ele>
      </trkpt>
      <trkpt lat="40.56205" lon="-1.35105">
        <ele>1102.7</ele>
      </trkpt>
      <trkpt lat="40.56228" lon="-1.35014">
        <ele>1094</ele>
      </trkpt>
      <trkpt lat="40.56229" lon="-1.3498">
        <ele>1092.1</ele>
      </trkpt>
      <trkpt lat="40.56226" lon="-1.34955">
        <ele>1091.1</ele>
      </trkpt>
      <trkpt lat="40.56221" lon="-1.34937">
        <ele>1090.9</ele>
      </trkpt>
      <trkpt lat="40.56207" lon="-1.34906">
        <ele>1088.2</ele>
      </trkpt>
      <trkpt lat="40.56188" lon="-1.34881">
        <ele>1085.1</ele>
      </trkpt>
      <trkpt lat="40.56111" lon="-1.34826">
        <ele>1079.5</ele>
      </trkpt>
      <trkpt lat="40.56094" lon="-1.34808">
        <ele>1077.6</ele>
      </trkpt>
      <trkpt lat="40.56082" lon="-1.3479">
        <ele>1075.2</ele>
      </trkpt>
      <trkpt lat="40.56073" lon="-1.34772">
        <ele>1073</ele>
      </trkpt>
      <trkpt lat="40.56063" lon="-1.34738">
        <ele>1071</ele>
      </trkpt>
      <trkpt lat="40.56061" lon="-1.34719">
        <ele>1070.7</ele>
      </trkpt>
      <trkpt lat="40.5606" lon="-1.34447">
        <ele>1053.9</ele>
      </trkpt>
      <trkpt lat="40.56062" lon="-1.3437">
        <ele>1049.9</ele>
      </trkpt>
      <trkpt lat="40.56066" lon="-1.34335">
        <ele>1047.7</ele>
      </trkpt>
      <trkpt lat="40.56081" lon="-1.34259">
        <ele>1044.4</ele>
      </trkpt>
      <trkpt lat="40.56092" lon="-1.34224">
        <ele>1041.8</ele>
      </trkpt>
      <trkpt lat="40.56107" lon="-1.34185">
        <ele>1039.8</ele>
      </trkpt>
      <trkpt lat="40.56135" lon="-1.34123">
        <ele>1036.5</ele>
        <extensions>
          <visugpx:TrkExtension xmlns:visugpx="https://www.visugpx.com/editgpx/">
            <visugpx:node>32</visugpx:node>
            </visugpx:TrkExtension>
        </extensions>
      </trkpt>
      <trkpt lat="40.56415" lon="-1.31115">
        <ele>984.3</ele>
      </trkpt>
      <trkpt lat="40.56148" lon="-1.34102">
        <ele>1035</ele>
      </trkpt>
      <trkpt lat="40.54048" lon="-1.32437">
        <ele>1025.3</ele>
      </trkpt>
      <trkpt lat="40.50167" lon="-1.31158">
        <ele>1007.7</ele>
      </trkpt>
      <trkpt lat="40.49468" lon="-1.30943">
        <ele>1007.8</ele>
      </trkpt>
      <trkpt lat="40.48039" lon="-1.29664">
        <ele>997.6</ele>
      </trkpt>
      <trkpt lat="40.46433" lon="-1.27004">
        <ele>1004.5</ele>
      </trkpt>
      <trkpt lat="40.45584" lon="-1.25356">
        <ele>1007</ele>
      </trkpt>
      <trkpt lat="40.4495" lon="-1.25227">
        <ele>1006</ele>
      </trkpt>
      <trkpt lat="40.45015" lon="-1.24592">
        <ele>1009.4</ele>
      </trkpt>
      <trkpt lat="40.43343" lon="-1.22626">
        <ele>1003</ele>
      </trkpt>
      <trkpt lat="40.42774" lon="-1.21957">
        <ele>1001.1</ele>
      </trkpt>
      <trkpt lat="40.42761" lon="-1.21777">
        <ele>999.6</ele>
      </trkpt>
      <trkpt lat="40.42467" lon="-1.21665">
        <ele>1004.9</ele>
      </trkpt>
      <trkpt lat="40.41611" lon="-1.20626">
        <ele>1000</ele>
      </trkpt>
      <trkpt lat="40.41637" lon="-1.19871">
        <ele>998.9</ele>
      </trkpt>
      <trkpt lat="40.41422" lon="-1.19176">
        <ele>1000.7</ele>
      </trkpt>
      <trkpt lat="40.40448" lon="-1.18137">
        <ele>993</ele>
      </trkpt>
      <trkpt lat="40.39526" lon="-1.15751">
        <ele>987</ele>
      </trkpt>
      <trkpt lat="40.3918" lon="-1.14653">
        <ele>978.5</ele>
      </trkpt>
      <trkpt lat="40.39212" lon="-1.14224">
        <ele>975</ele>
      </trkpt>
      <trkpt lat="40.38722" lon="-1.13434">
        <ele>963</ele>
      </trkpt>
      <trkpt lat="40.38415" lon="-1.11314">
        <ele>943.9</ele>
      </trkpt>
      <trkpt lat="40.37767" lon="-1.097">
        <ele>921.2</ele>
      </trkpt>
      <trkpt lat="40.38022" lon="-1.09117">
        <ele>906</ele>
      </trkpt>
      <trkpt lat="40.37872" lon="-1.08868">
        <ele>924.7</ele>
      </trkpt>
      <trkpt lat="40.3765" lon="-1.0879">
        <ele>929.3</ele>
      </trkpt>
      <trkpt lat="40.37401" lon="-1.08705">
        <ele>926.2</ele>
      </trkpt>
      <trkpt lat="40.37192" lon="-1.09065">
        <ele>939.9</ele>
      </trkpt>
      <trkpt lat="40.37107" lon="-1.09426">
        <ele>935.6</ele>
      </trkpt>
      <trkpt lat="40.36819" lon="-1.09494">
        <ele>937.9</ele>
      </trkpt>
      <trkpt lat="40.36545" lon="-1.09271">
        <ele>946.7</ele>
      </trkpt>
      <trkpt lat="40.36466" lon="-1.08996">
        <ele>938.7</ele>
      </trkpt>
      <trkpt lat="40.35623" lon="-1.08378">
        <ele>953.7</ele>
      </trkpt>
      <trkpt lat="40.35734" lon="-1.077">
        <ele>983.7</ele>
      </trkpt>
      <trkpt lat="40.36178" lon="-1.07057">
        <ele>994.3</ele>
      </trkpt>
      <trkpt lat="40.35995" lon="-1.06396">
        <ele>1000.3</ele>
      </trkpt>
      <trkpt lat="40.35956" lon="-1.05701">
        <ele>1008.9</ele>
      </trkpt>
      <trkpt lat="40.35394" lon="-1.04748">
        <ele>1029.4</ele>
      </trkpt>
      <trkpt lat="40.35302" lon="-1.04241">
        <ele>1035.2</ele>
      </trkpt>
      <trkpt lat="40.34713" lon="-1.03297">
        <ele>1053.6</ele>
      </trkpt>
      <trkpt lat="40.34654" lon="-1.02525">
        <ele>1059</ele>
      </trkpt>
      <trkpt lat="40.34406" lon="-1.0231">
        <ele>1070.9</ele>
      </trkpt>
      <trkpt lat="40.34235" lon="-1.01997">
        <ele>1066</ele>
      </trkpt>
      <trkpt lat="40.3421" lon="-1.01692">
        <ele>1070.8</ele>
      </trkpt>
      <trkpt lat="40.33758" lon="-1.011">
        <ele>1086.7</ele>
      </trkpt>
      <trkpt lat="40.33366" lon="-1.01049">
        <ele>1096.2</ele>
      </trkpt>
      <trkpt lat="40.32679" lon="-1.00757">
        <ele>1111.9</ele>
      </trkpt>
      <trkpt lat="40.32417" lon="-1.00851">
        <ele>1106.4</ele>
      </trkpt>
      <trkpt lat="40.31835" lon="-1.00422">
        <ele>1120.9</ele>
      </trkpt>
      <trkpt lat="40.31658" lon="-0.99907">
        <ele>1129.1</ele>
      </trkpt>
      <trkpt lat="40.31337" lon="-0.99821">
        <ele>1162.4</ele>
      </trkpt>
      <trkpt lat="40.30709" lon="-0.99478">
        <ele>1151.6</ele>
      </trkpt>
      <trkpt lat="40.29969" lon="-0.99529">
        <ele>1166.6</ele>
      </trkpt>
      <trkpt lat="40.29609" lon="-0.99358">
        <ele>1179.5</ele>
      </trkpt>
      <trkpt lat="40.29354" lon="-0.991">
        <ele>1191</ele>
      </trkpt>
      <trkpt lat="40.27933" lon="-0.98731">
        <ele>1219.5</ele>
      </trkpt>
      <trkpt lat="40.28008" lon="-0.98963">
        <ele>1207.8</ele>
      </trkpt>
      <trkpt lat="40.27864" lon="-0.98877">
        <ele>1220.8</ele>
      </trkpt>
      <trkpt lat="40.27737" lon="-0.98873">
        <ele>1224.4</ele>
      </trkpt>
      <trkpt lat="40.27642" lon="-0.9868">
        <ele>1223.6</ele>
      </trkpt>
      <trkpt lat="40.27445" lon="-0.98504">
        <ele>1221.9</ele>
      </trkpt>
      <trkpt lat="40.27128" lon="-0.98306">
        <ele>1216.6</ele>
      </trkpt>
      <trkpt lat="40.2678" lon="-0.9816">
        <ele>1218</ele>
      </trkpt>
      <trkpt lat="40.25359" lon="-0.97336">
        <ele>1211</ele>
      </trkpt>
      <trkpt lat="40.24517" lon="-0.96813">
        <ele>1208.7</ele>
      </trkpt>
      <trkpt lat="40.24327" lon="-0.96774">
        <ele>1198.5</ele>
      </trkpt>
      <trkpt lat="40.24114" lon="-0.96937">
        <ele>1201.6</ele>
      </trkpt>
      <trkpt lat="40.23708" lon="-0.97332">
        <ele>1211.1</ele>
      </trkpt>
      <trkpt lat="40.23528" lon="-0.97405">
        <ele>1206.4</ele>
      </trkpt>
      <trkpt lat="40.23387" lon="-0.97375">
        <ele>1205</ele>
      </trkpt>
      <trkpt lat="40.22951" lon="-0.9701">
        <ele>1199.5</ele>
      </trkpt>
      <trkpt lat="40.22506" lon="-0.96585">
        <ele>1189.6</ele>
      </trkpt>
      <trkpt lat="40.21674" lon="-0.95388">
        <ele>1175</ele>
      </trkpt>
      <trkpt lat="40.21542" lon="-0.9462">
        <ele>1168</ele>
      </trkpt>
      <trkpt lat="40.21369" lon="-0.9441">
        <ele>1162.4</ele>
      </trkpt>
      <trkpt lat="40.21005" lon="-0.94152">
        <ele>1163.7</ele>
      </trkpt>
      <trkpt lat="40.20739" lon="-0.93633">
        <ele>1158.3</ele>
      </trkpt>
      <trkpt lat="40.20684" lon="-0.93332">
        <ele>1160.6</ele>
      </trkpt>
      <trkpt lat="40.20595" lon="-0.93268">
        <ele>1163.2</ele>
      </trkpt>
      <trkpt lat="40.20497" lon="-0.93135">
        <ele>1160.6</ele>
      </trkpt>
      <trkpt lat="40.20399" lon="-0.93075">
        <ele>1158.1</ele>
      </trkpt>
      <trkpt lat="40.20267" lon="-0.9289">
        <ele>1148.4</ele>
      </trkpt>
      <trkpt lat="40.20002" lon="-0.92783">
        <ele>1152.6</ele>
      </trkpt>
      <trkpt lat="40.19825" lon="-0.92307">
        <ele>1145.3</ele>
      </trkpt>
      <trkpt lat="40.19147" lon="-0.91886">
        <ele>1133.6</ele>
      </trkpt>
      <trkpt lat="40.1895" lon="-0.91547">
        <ele>1128.8</ele>
      </trkpt>
      <trkpt lat="40.18691" lon="-0.90899">
        <ele>1118.5</ele>
      </trkpt>
      <trkpt lat="40.18592" lon="-0.9077">
        <ele>1116.9</ele>
      </trkpt>
      <trkpt lat="40.18209" lon="-0.9056">
        <ele>1106.2</ele>
      </trkpt>
      <trkpt lat="40.18091" lon="-0.90406">
        <ele>1110.2</ele>
      </trkpt>
      <trkpt lat="40.17901" lon="-0.89865">
        <ele>1104.8</ele>
      </trkpt>
      <trkpt lat="40.16546" lon="-0.88131">
        <ele>1075.2</ele>
      </trkpt>
      <trkpt lat="40.16399" lon="-0.88041">
        <ele>1075.8</ele>
      </trkpt>
      <trkpt lat="40.16189" lon="-0.87891">
        <ele>1073.6</ele>
      </trkpt>
      <trkpt lat="40.16166" lon="-0.87483">
        <ele>1065.1</ele>
      </trkpt>
      <trkpt lat="40.16156" lon="-0.86741">
        <ele>1052.4</ele>
      </trkpt>
      <trkpt lat="40.16064" lon="-0.86384">
        <ele>1056.4</ele>
      </trkpt>
      <trkpt lat="40.15939" lon="-0.86286">
        <ele>1053.7</ele>
      </trkpt>
      <trkpt lat="40.15664" lon="-0.86371">
        <ele>1044.8</ele>
      </trkpt>
      <trkpt lat="40.15526" lon="-0.86316">
        <ele>1049.3</ele>
      </trkpt>
      <trkpt lat="40.1531" lon="-0.86144">
        <ele>1044.4</ele>
      </trkpt>
      <trkpt lat="40.15297" lon="-0.85818">
        <ele>1046.4</ele>
      </trkpt>
      <trkpt lat="40.1509" lon="-0.85419">
        <ele>1037.6</ele>
      </trkpt>
      <trkpt lat="40.15198" lon="-0.84788">
        <ele>1026.3</ele>
      </trkpt>
      <trkpt lat="40.15149" lon="-0.84599">
        <ele>1026.1</ele>
      </trkpt>
      <trkpt lat="40.15064" lon="-0.84427">
        <ele>1023.5</ele>
      </trkpt>
      <trkpt lat="40.14916" lon="-0.84217">
        <ele>1021.3</ele>
      </trkpt>
      <trkpt lat="40.14683" lon="-0.84166">
        <ele>1014.1</ele>
      </trkpt>
      <trkpt lat="40.14624" lon="-0.83848">
        <ele>1013.1</ele>
      </trkpt>
      <trkpt lat="40.14631" lon="-0.83179">
        <ele>1003.4</ele>
      </trkpt>
      <trkpt lat="40.14585" lon="-0.8299">
        <ele>997.4</ele>
      </trkpt>
      <trkpt lat="40.14437" lon="-0.82767">
        <ele>1000.9</ele>
      </trkpt>
      <trkpt lat="40.14086" lon="-0.82273">
        <ele>988.6</ele>
      </trkpt>
      <trkpt lat="40.14017" lon="-0.82101">
        <ele>994.2</ele>
      </trkpt>
      <trkpt lat="40.13922" lon="-0.82016">
        <ele>993.5</ele>
      </trkpt>
      <trkpt lat="40.13663" lon="-0.81951">
        <ele>984.6</ele>
      </trkpt>
      <trkpt lat="40.13361" lon="-0.82058">
        <ele>989.5</ele>
      </trkpt>
      <trkpt lat="40.13187" lon="-0.82016">
        <ele>976.7</ele>
      </trkpt>
      <trkpt lat="40.13092" lon="-0.8187">
        <ele>975.2</ele>
      </trkpt>
      <trkpt lat="40.13141" lon="-0.81501">
        <ele>1001.1</ele>
      </trkpt>
      <trkpt lat="40.13253" lon="-0.81101">
        <ele>982.8</ele>
      </trkpt>
      <trkpt lat="40.13384" lon="-0.80535">
        <ele>963.2</ele>
      </trkpt>
      <trkpt lat="40.13305" lon="-0.80247">
        <ele>965.9</ele>
      </trkpt>
      <trkpt lat="40.12318" lon="-0.79398">
        <ele>955.5</ele>
      </trkpt>
      <trkpt lat="40.12209" lon="-0.79217">
        <ele>946</ele>
      </trkpt>
      <trkpt lat="40.12091" lon="-0.78707">
        <ele>949</ele>
      </trkpt>
      <trkpt lat="40.12006" lon="-0.78454">
        <ele>964.3</ele>
      </trkpt>
      <trkpt lat="40.11773" lon="-0.7805">
        <ele>962</ele>
      </trkpt>
      <trkpt lat="40.11546" lon="-0.77501">
        <ele>945.5</ele>
      </trkpt>
      <trkpt lat="40.11471" lon="-0.77286">
        <ele>953.7</ele>
      </trkpt>
      <trkpt lat="40.11356" lon="-0.77239">
        <ele>949</ele>
      </trkpt>
      <trkpt lat="40.11202" lon="-0.77334">
        <ele>948.5</ele>
      </trkpt>
      <trkpt lat="40.11087" lon="-0.77488">
        <ele>958.5</ele>
      </trkpt>
      <trkpt lat="40.10716" lon="-0.77574">
        <ele>938.3</ele>
      </trkpt>
      <trkpt lat="40.10542" lon="-0.77548">
        <ele>934.2</ele>
      </trkpt>
      <trkpt lat="40.10424" lon="-0.77261">
        <ele>930.8</ele>
      </trkpt>
      <trkpt lat="40.10506" lon="-0.76986">
        <ele>942.1</ele>
      </trkpt>
      <trkpt lat="40.10562" lon="-0.76771">
        <ele>929.3</ele>
      </trkpt>
      <trkpt lat="40.10759" lon="-0.7651">
        <ele>943</ele>
      </trkpt>
      <trkpt lat="40.10828" lon="-0.76346">
        <ele>941</ele>
      </trkpt>
      <trkpt lat="40.10824" lon="-0.75965">
        <ele>943</ele>
      </trkpt>
      <trkpt lat="40.11067" lon="-0.75741">
        <ele>942.4</ele>
      </trkpt>
      <trkpt lat="40.11182" lon="-0.75728">
        <ele>935.7</ele>
      </trkpt>
      <trkpt lat="40.11418" lon="-0.75733">
        <ele>938.4</ele>
      </trkpt>
      <trkpt lat="40.11536" lon="-0.75561">
        <ele>944.6</ele>
      </trkpt>
      <trkpt lat="40.11405" lon="-0.74926">
        <ele>942.1</ele>
      </trkpt>
      <trkpt lat="40.11313" lon="-0.74475">
        <ele>953.7</ele>
      </trkpt>
      <trkpt lat="40.11169" lon="-0.74274">
        <ele>942.9</ele>
      </trkpt>
      <trkpt lat="40.10962" lon="-0.74226">
        <ele>944.3</ele>
      </trkpt>
      <trkpt lat="40.10713" lon="-0.74261">
        <ele>945.2</ele>
      </trkpt>
      <trkpt lat="40.09453" lon="-0.73995">
        <ele>943.9</ele>
      </trkpt>
      <trkpt lat="40.09199" lon="-0.73664">
        <ele>949.9</ele>
      </trkpt>
      <trkpt lat="40.08372" lon="-0.73604">
        <ele>955.7</ele>
      </trkpt>
      <trkpt lat="40.08175" lon="-0.7336">
        <ele>957.7</ele>
      </trkpt>
      <trkpt lat="40.08037" lon="-0.73124">
        <ele>959.4</ele>
      </trkpt>
      <trkpt lat="40.07344" lon="-0.72656">
        <ele>963.3</ele>
      </trkpt>
      <trkpt lat="40.07059" lon="-0.72613">
        <ele>961.4</ele>
      </trkpt>
      <trkpt lat="40.06779" lon="-0.72849">
        <ele>950.2</ele>
      </trkpt>
      <trkpt lat="40.06622" lon="-0.72866">
        <ele>951.5</ele>
      </trkpt>
      <trkpt lat="40.06362" lon="-0.72656">
        <ele>957.7</ele>
      </trkpt>
      <trkpt lat="40.06244" lon="-0.7263">
        <ele>957</ele>
      </trkpt>
      <trkpt lat="40.06113" lon="-0.72669">
        <ele>959.8</ele>
      </trkpt>
      <trkpt lat="40.05666" lon="-0.73029">
        <ele>949.8</ele>
      </trkpt>
      <trkpt lat="40.05567" lon="-0.73068">
        <ele>960.6</ele>
      </trkpt>
      <trkpt lat="40.04631" lon="-0.72887">
        <ele>966</ele>
      </trkpt>
      <trkpt lat="40.04198" lon="-0.73141">
        <ele>964</ele>
      </trkpt>
      <trkpt lat="40.0404" lon="-0.73085">
        <ele>967.6</ele>
      </trkpt>
      <trkpt lat="40.03885" lon="-0.72857">
        <ele>970.6</ele>
      </trkpt>
      <trkpt lat="40.0358" lon="-0.71918">
        <ele>968.4</ele>
      </trkpt>
      <trkpt lat="40.03481" lon="-0.7184">
        <ele>970.9</ele>
      </trkpt>
      <trkpt lat="40.0334" lon="-0.7184">
        <ele>971.4</ele>
      </trkpt>
      <trkpt lat="40.03185" lon="-0.7187">
        <ele>971.2</ele>
      </trkpt>
      <trkpt lat="40.03047" lon="-0.72008">
        <ele>970.9</ele>
      </trkpt>
      <trkpt lat="40.02863" lon="-0.72265">
        <ele>970.3</ele>
      </trkpt>
      <trkpt lat="40.02702" lon="-0.72347">
        <ele>971.1</ele>
      </trkpt>
      <trkpt lat="40.02532" lon="-0.72214">
        <ele>971.9</ele>
      </trkpt>
      <trkpt lat="40.02384" lon="-0.71497">
        <ele>973.1</ele>
      </trkpt>
      <trkpt lat="40.02538" lon="-0.70913">
        <ele>982.6</ele>
      </trkpt>
      <trkpt lat="40.02508" lon="-0.70647">
        <ele>979.8</ele>
      </trkpt>
      <trkpt lat="40.02229" lon="-0.70201">
        <ele>979.7</ele>
      </trkpt>
      <trkpt lat="40.02085" lon="-0.70064">
        <ele>982.2</ele>
      </trkpt>
      <trkpt lat="40.01378" lon="-0.69716">
        <ele>989.4</ele>
      </trkpt>
      <trkpt lat="40.00974" lon="-0.69643">
        <ele>989</ele>
      </trkpt>
      <trkpt lat="39.99307" lon="-0.69613">
        <ele>974.9</ele>
      </trkpt>
      <trkpt lat="39.97699" lon="-0.69544">
        <ele>976.3</ele>
      </trkpt>
      <trkpt lat="39.97291" lon="-0.69549">
        <ele>972.5</ele>
      </trkpt>
      <trkpt lat="39.97248" lon="-0.69373">
        <ele>973.1</ele>
      </trkpt>
      <trkpt lat="39.97117" lon="-0.69235">
        <ele>977.4</ele>
      </trkpt>
      <trkpt lat="39.9692" lon="-0.6936">
        <ele>980.9</ele>
      </trkpt>
      <trkpt lat="39.96732" lon="-0.69428">
        <ele>980.6</ele>
      </trkpt>
      <trkpt lat="39.96535" lon="-0.69394">
        <ele>983.8</ele>
      </trkpt>
      <trkpt lat="39.96466" lon="-0.69416">
        <ele>984.2</ele>
      </trkpt>
      <trkpt lat="39.96406" lon="-0.69377">
        <ele>985.7</ele>
      </trkpt>
      <trkpt lat="39.95897" lon="-0.69673">
        <ele>977.7</ele>
      </trkpt>
      <trkpt lat="39.95344" lon="-0.69531">
        <ele>967.6</ele>
      </trkpt>
      <trkpt lat="39.95143" lon="-0.6936">
        <ele>957.3</ele>
      </trkpt>
      <trkpt lat="39.94936" lon="-0.69184">
        <ele>950.1</ele>
      </trkpt>
      <trkpt lat="39.94643" lon="-0.68991">
        <ele>954.4</ele>
      </trkpt>
      <trkpt lat="39.946" lon="-0.68798">
        <ele>938.9</ele>
      </trkpt>
      <trkpt lat="39.94686" lon="-0.68536">
        <ele>930.1</ele>
      </trkpt>
      <trkpt lat="39.95084" lon="-0.67858">
        <ele>926.8</ele>
      </trkpt>
      <trkpt lat="39.95084" lon="-0.67613">
        <ele>925</ele>
      </trkpt>
      <trkpt lat="39.94998" lon="-0.67364">
        <ele>915.8</ele>
      </trkpt>
      <trkpt lat="39.9487" lon="-0.6727">
        <ele>908.6</ele>
      </trkpt>
      <trkpt lat="39.94604" lon="-0.67257">
        <ele>902</ele>
      </trkpt>
      <trkpt lat="39.94406" lon="-0.6721">
        <ele>897.2</ele>
      </trkpt>
      <trkpt lat="39.94268" lon="-0.67055">
        <ele>892.9</ele>
      </trkpt>
      <trkpt lat="39.94252" lon="-0.66798">
        <ele>892</ele>
      </trkpt>
      <trkpt lat="39.94403" lon="-0.66502">
        <ele>881</ele>
      </trkpt>
      <trkpt lat="39.94627" lon="-0.66098">
        <ele>879.8</ele>
      </trkpt>
      <trkpt lat="39.94732" lon="-0.65875">
        <ele>873.6</ele>
      </trkpt>
      <trkpt lat="39.95314" lon="-0.656">
        <ele>855.3</ele>
      </trkpt>
      <trkpt lat="39.95676" lon="-0.65455">
        <ele>854.8</ele>
      </trkpt>
      <trkpt lat="39.95795" lon="-0.65313">
        <ele>850.9</ele>
      </trkpt>
      <trkpt lat="39.95864" lon="-0.65133">
        <ele>869.8</ele>
      </trkpt>
      <trkpt lat="39.95923" lon="-0.64944">
        <ele>839.5</ele>
      </trkpt>
      <trkpt lat="39.96117" lon="-0.64661">
        <ele>824.3</ele>
      </trkpt>
      <trkpt lat="39.96249" lon="-0.64433">
        <ele>822.8</ele>
      </trkpt>
      <trkpt lat="39.96354" lon="-0.64171">
        <ele>839.4</ele>
      </trkpt>
      <trkpt lat="39.96512" lon="-0.63674">
        <ele>810.1</ele>
      </trkpt>
      <trkpt lat="39.96693" lon="-0.63399">
        <ele>801</ele>
      </trkpt>
      <trkpt lat="39.96844" lon="-0.6309">
        <ele>799.9</ele>
      </trkpt>
      <trkpt lat="39.97012" lon="-0.62678">
        <ele>792.5</ele>
      </trkpt>
      <trkpt lat="39.96913" lon="-0.62176">
        <ele>775.3</ele>
      </trkpt>
      <trkpt lat="39.96726" lon="-0.61996">
        <ele>771.6</ele>
      </trkpt>
      <trkpt lat="39.96347" lon="-0.62077">
        <ele>760.7</ele>
      </trkpt>
      <trkpt lat="39.96015" lon="-0.62004">
        <ele>753.4</ele>
      </trkpt>
      <trkpt lat="39.95785" lon="-0.61554">
        <ele>746.3</ele>
      </trkpt>
      <trkpt lat="39.95594" lon="-0.61468">
        <ele>738.4</ele>
      </trkpt>
      <trkpt lat="39.95301" lon="-0.61609">
        <ele>730.7</ele>
      </trkpt>
      <trkpt lat="39.95107" lon="-0.61541">
        <ele>724.9</ele>
      </trkpt>
      <trkpt lat="39.95022" lon="-0.61275">
        <ele>715.8</ele>
      </trkpt>
      <trkpt lat="39.95193" lon="-0.60712">
        <ele>709.3</ele>
      </trkpt>
      <trkpt lat="39.95193" lon="-0.60129">
        <ele>700.5</ele>
      </trkpt>
      <trkpt lat="39.95318" lon="-0.5982">
        <ele>696</ele>
      </trkpt>
      <trkpt lat="39.95765" lon="-0.59584">
        <ele>689.1</ele>
      </trkpt>
      <trkpt lat="39.95883" lon="-0.59283">
        <ele>683.7</ele>
      </trkpt>
      <trkpt lat="39.95818" lon="-0.58931">
        <ele>670.7</ele>
      </trkpt>
      <trkpt lat="39.9567" lon="-0.58713">
        <ele>670.4</ele>
      </trkpt>
      <trkpt lat="39.95495" lon="-0.5867">
        <ele>664.5</ele>
      </trkpt>
      <trkpt lat="39.94995" lon="-0.58785">
        <ele>645</ele>
      </trkpt>
      <trkpt lat="39.94834" lon="-0.58601">
        <ele>643.6</ele>
      </trkpt>
      <trkpt lat="39.94929" lon="-0.58271">
        <ele>637.3</ele>
      </trkpt>
      <trkpt lat="39.95127" lon="-0.57889">
        <ele>634.7</ele>
      </trkpt>
      <trkpt lat="39.95081" lon="-0.57756">
        <ele>629</ele>
      </trkpt>
      <trkpt lat="39.95008" lon="-0.5755">
        <ele>629.5</ele>
      </trkpt>
      <trkpt lat="39.94975" lon="-0.57052">
        <ele>620.9</ele>
      </trkpt>
      <trkpt lat="39.94913" lon="-0.56762">
        <ele>621.6</ele>
      </trkpt>
      <trkpt lat="39.94645" lon="-0.56311">
        <ele>604</ele>
      </trkpt>
      <trkpt lat="39.94569" lon="-0.56249">
        <ele>601.9</ele>
      </trkpt>
      <trkpt lat="39.94261" lon="-0.56189">
        <ele>587.6</ele>
      </trkpt>
      <trkpt lat="39.94031" lon="-0.5591">
        <ele>581.1</ele>
      </trkpt>
      <trkpt lat="39.93733" lon="-0.55661">
        <ele>574.2</ele>
      </trkpt>
      <trkpt lat="39.93472" lon="-0.55146">
        <ele>560.1</ele>
      </trkpt>
      <trkpt lat="39.93363" lon="-0.54863">
        <ele>558.1</ele>
      </trkpt>
      <trkpt lat="39.93202" lon="-0.54739">
        <ele>553.7</ele>
      </trkpt>
      <trkpt lat="39.93083" lon="-0.54726">
        <ele>551.7</ele>
      </trkpt>
      <trkpt lat="39.92947" lon="-0.54842">
        <ele>544.5</ele>
      </trkpt>
      <trkpt lat="39.9286" lon="-0.55065">
        <ele>539.5</ele>
      </trkpt>
      <trkpt lat="39.92868" lon="-0.56123">
        <ele>526.5</ele>
      </trkpt>
      <trkpt lat="39.92865" lon="-0.56243">
        <ele>527</ele>
      </trkpt>
      <trkpt lat="39.92378" lon="-0.56702">
        <ele>527.1</ele>
      </trkpt>
      <trkpt lat="39.92234" lon="-0.56899">
        <ele>530.5</ele>
      </trkpt>
      <trkpt lat="39.91937" lon="-0.5744">
        <ele>519.8</ele>
      </trkpt>
      <trkpt lat="39.91879" lon="-0.57507">
        <ele>510.7</ele>
      </trkpt>
      <trkpt lat="39.91769" lon="-0.57526">
        <ele>501.8</ele>
      </trkpt>
      <trkpt lat="39.91558" lon="-0.57371">
        <ele>496</ele>
      </trkpt>
      <trkpt lat="39.91471" lon="-0.57247">
        <ele>496.1</ele>
      </trkpt>
      <trkpt lat="39.9144" lon="-0.5713">
        <ele>492.5</ele>
      </trkpt>
      <trkpt lat="39.91414" lon="-0.57133">
        <ele>492.6</ele>
      </trkpt>
      <trkpt lat="39.9127" lon="-0.57229">
        <ele>487.7</ele>
      </trkpt>
      <trkpt lat="39.91256" lon="-0.57223">
        <ele>487.2</ele>
      </trkpt>
      <trkpt lat="39.91232" lon="-0.57123">
        <ele>485.1</ele>
      </trkpt>
      <trkpt lat="39.91193" lon="-0.57074">
        <ele>484.7</ele>
      </trkpt>
      <trkpt lat="39.9117" lon="-0.57056">
        <ele>484</ele>
      </trkpt>
      <trkpt lat="39.91028" lon="-0.57035">
        <ele>481.2</ele>
      </trkpt>
      <trkpt lat="39.90993" lon="-0.56929">
        <ele>470</ele>
      </trkpt>
      <trkpt lat="39.90995" lon="-0.56657">
        <ele>458.4</ele>
      </trkpt>
      <trkpt lat="39.90873" lon="-0.56148">
        <ele>449.7</ele>
      </trkpt>
      <trkpt lat="39.90781" lon="-0.55966">
        <ele>450.6</ele>
      </trkpt>
      <trkpt lat="39.90689" lon="-0.5588">
        <ele>453.9</ele>
      </trkpt>
      <trkpt lat="39.90552" lon="-0.55925">
        <ele>459.3</ele>
      </trkpt>
      <trkpt lat="39.9038" lon="-0.5609">
        <ele>458.4</ele>
      </trkpt>
      <trkpt lat="39.90274" lon="-0.56118">
        <ele>454.8</ele>
      </trkpt>
      <trkpt lat="39.90185" lon="-0.56082">
        <ele>454.1</ele>
      </trkpt>
      <trkpt lat="39.89841" lon="-0.55792">
        <ele>446.2</ele>
      </trkpt>
      <trkpt lat="39.89701" lon="-0.55584">
        <ele>437.4</ele>
      </trkpt>
      <trkpt lat="39.89326" lon="-0.54893">
        <ele>436.1</ele>
      </trkpt>
      <trkpt lat="39.89252" lon="-0.54812">
        <ele>438.4</ele>
      </trkpt>
      <trkpt lat="39.88951" lon="-0.5476">
        <ele>436.3</ele>
      </trkpt>
      <trkpt lat="39.88804" lon="-0.54614">
        <ele>440.4</ele>
      </trkpt>
      <trkpt lat="39.88769" lon="-0.54494">
        <ele>435.3</ele>
      </trkpt>
      <trkpt lat="39.88789" lon="-0.54404">
        <ele>435</ele>
      </trkpt>
      <trkpt lat="39.88613" lon="-0.5429">
        <ele>436</ele>
      </trkpt>
      <trkpt lat="39.8845" lon="-0.54123">
        <ele>435.8</ele>
      </trkpt>
      <trkpt lat="39.88404" lon="-0.54013">
        <ele>445.9</ele>
      </trkpt>
      <trkpt lat="39.88386" lon="-0.53863">
        <ele>441.2</ele>
      </trkpt>
      <trkpt lat="39.88363" lon="-0.535">
        <ele>436.9</ele>
      </trkpt>
      <trkpt lat="39.88378" lon="-0.53222">
        <ele>434.9</ele>
      </trkpt>
      <trkpt lat="39.88611" lon="-0.52556">
        <ele>456.8</ele>
      </trkpt>
      <trkpt lat="39.88658" lon="-0.52428">
        <ele>440.3</ele>
      </trkpt>
      <trkpt lat="39.88641" lon="-0.52282">
        <ele>429</ele>
      </trkpt>
      <trkpt lat="39.8862" lon="-0.52119">
        <ele>433.6</ele>
      </trkpt>
      <trkpt lat="39.88541" lon="-0.51994">
        <ele>429.9</ele>
      </trkpt>
      <trkpt lat="39.88419" lon="-0.51859">
        <ele>446.9</ele>
      </trkpt>
      <trkpt lat="39.8788" lon="-0.51619">
        <ele>424.3</ele>
      </trkpt>
      <trkpt lat="39.87737" lon="-0.51451">
        <ele>431.6</ele>
      </trkpt>
      <trkpt lat="39.87543" lon="-0.5134">
        <ele>428.6</ele>
      </trkpt>
      <trkpt lat="39.87421" lon="-0.51185">
        <ele>430.9</ele>
      </trkpt>
      <trkpt lat="39.87345" lon="-0.51065">
        <ele>434.9</ele>
      </trkpt>
      <trkpt lat="39.87223" lon="-0.51014">
        <ele>431</ele>
      </trkpt>
      <trkpt lat="39.8698" lon="-0.51181">
        <ele>427.4</ele>
      </trkpt>
      <trkpt lat="39.86769" lon="-0.51224">
        <ele>425.1</ele>
      </trkpt>
      <trkpt lat="39.86308" lon="-0.51255">
        <ele>428.3</ele>
      </trkpt>
      <trkpt lat="39.86228" lon="-0.51229">
        <ele>429.3</ele>
      </trkpt>
      <trkpt lat="39.8614" lon="-0.51283">
        <ele>427.4</ele>
      </trkpt>
      <trkpt lat="39.86094" lon="-0.51332">
        <ele>424.6</ele>
      </trkpt>
      <trkpt lat="39.86027" lon="-0.51485">
        <ele>420.6</ele>
      </trkpt>
      <trkpt lat="39.8595" lon="-0.5158">
        <ele>422.1</ele>
      </trkpt>
      <trkpt lat="39.85879" lon="-0.5162">
        <ele>426</ele>
      </trkpt>
      <trkpt lat="39.856" lon="-0.51679">
        <ele>418</ele>
      </trkpt>
      <trkpt lat="39.85208" lon="-0.51752">
        <ele>408.7</ele>
      </trkpt>
      <trkpt lat="39.85104" lon="-0.51768">
        <ele>408</ele>
      </trkpt>
      <trkpt lat="39.85029" lon="-0.51763">
        <ele>405.9</ele>
      </trkpt>
      <trkpt lat="39.84971" lon="-0.51736">
        <ele>401.7</ele>
      </trkpt>
      <trkpt lat="39.84866" lon="-0.51656">
        <ele>401.9</ele>
      </trkpt>
      <trkpt lat="39.84847" lon="-0.51636">
        <ele>401.8</ele>
      </trkpt>
      <trkpt lat="39.84825" lon="-0.51622">
        <ele>404.1</ele>
      </trkpt>
      <trkpt lat="39.84822" lon="-0.51641">
        <ele>404.9</ele>
      </trkpt>
      <trkpt lat="39.84765" lon="-0.51607">
        <ele>403</ele>
      </trkpt>
      <trkpt lat="39.84697" lon="-0.5159">
        <ele>401.1</ele>
      </trkpt>
      <trkpt lat="39.84641" lon="-0.51603">
        <ele>401.8</ele>
      </trkpt>
      <trkpt lat="39.84501" lon="-0.5168">
        <ele>394.1</ele>
      </trkpt>
      <trkpt lat="39.84411" lon="-0.51747">
        <ele>392.4</ele>
      </trkpt>
      <trkpt lat="39.84272" lon="-0.51839">
        <ele>399</ele>
      </trkpt>
      <trkpt lat="39.84199" lon="-0.51856">
        <ele>401.7</ele>
      </trkpt>
      <trkpt lat="39.83959" lon="-0.51809">
        <ele>387.5</ele>
      </trkpt>
      <trkpt lat="39.83603" lon="-0.51654">
        <ele>378.8</ele>
      </trkpt>
      <trkpt lat="39.83534" lon="-0.51581">
        <ele>373.6</ele>
      </trkpt>
      <trkpt lat="39.83505" lon="-0.51468">
        <ele>380.6</ele>
      </trkpt>
      <trkpt lat="39.83523" lon="-0.51332">
        <ele>374.3</ele>
      </trkpt>
      <trkpt lat="39.83588" lon="-0.51124">
        <ele>371.7</ele>
      </trkpt>
      <trkpt lat="39.83669" lon="-0.50952">
        <ele>374.4</ele>
      </trkpt>
      <trkpt lat="39.83732" lon="-0.50762">
        <ele>373</ele>
      </trkpt>
      <trkpt lat="39.83734" lon="-0.50603">
        <ele>368.6</ele>
      </trkpt>
      <trkpt lat="39.8371" lon="-0.50491">
        <ele>365.8</ele>
      </trkpt>
      <trkpt lat="39.83368" lon="-0.49729">
        <ele>354.6</ele>
      </trkpt>
      <trkpt lat="39.83264" lon="-0.49471">
        <ele>349.9</ele>
      </trkpt>
      <trkpt lat="39.83136" lon="-0.49303">
        <ele>344</ele>
      </trkpt>
      <trkpt lat="39.83067" lon="-0.49192">
        <ele>340.4</ele>
      </trkpt>
      <trkpt lat="39.83028" lon="-0.48975">
        <ele>340.5</ele>
      </trkpt>
      <trkpt lat="39.82991" lon="-0.48745">
        <ele>339.7</ele>
      </trkpt>
      <trkpt lat="39.8314" lon="-0.48044">
        <ele>328</ele>
      </trkpt>
      <trkpt lat="39.83126" lon="-0.47675">
        <ele>324.7</ele>
      </trkpt>
      <trkpt lat="39.82914" lon="-0.47029">
        <ele>319.7</ele>
      </trkpt>
      <trkpt lat="39.82813" lon="-0.46894">
        <ele>317</ele>
      </trkpt>
      <trkpt lat="39.82654" lon="-0.46703">
        <ele>317.1</ele>
      </trkpt>
      <trkpt lat="39.82635" lon="-0.46387">
        <ele>319.4</ele>
      </trkpt>
      <trkpt lat="39.82627" lon="-0.46323">
        <ele>316.5</ele>
      </trkpt>
      <trkpt lat="39.82299" lon="-0.45632">
        <ele>309.7</ele>
      </trkpt>
      <trkpt lat="39.82255" lon="-0.45559">
        <ele>308.8</ele>
      </trkpt>
      <trkpt lat="39.81887" lon="-0.4528">
        <ele>297.6</ele>
      </trkpt>
      <trkpt lat="39.81821" lon="-0.45156">
        <ele>296.5</ele>
      </trkpt>
      <trkpt lat="39.81783" lon="-0.44782">
        <ele>295.6</ele>
      </trkpt>
      <trkpt lat="39.8166" lon="-0.44527">
        <ele>295.4</ele>
      </trkpt>
      <trkpt lat="39.81413" lon="-0.43997">
        <ele>297.7</ele>
      </trkpt>
      <trkpt lat="39.81359" lon="-0.4389">
        <ele>298.9</ele>
      </trkpt>
      <trkpt lat="39.81314" lon="-0.4374">
        <ele>302</ele>
      </trkpt>
      <trkpt lat="39.81284" lon="-0.43572">
        <ele>298.1</ele>
      </trkpt>
      <trkpt lat="39.81275" lon="-0.43453">
        <ele>296.7</ele>
      </trkpt>
      <trkpt lat="39.8127" lon="-0.43435">
        <ele>296.5</ele>
      </trkpt>
      <trkpt lat="39.81246" lon="-0.43392">
        <ele>297.3</ele>
      </trkpt>
      <trkpt lat="39.81183" lon="-0.43308">
        <ele>298.9</ele>
      </trkpt>
      <trkpt lat="39.81084" lon="-0.43228">
        <ele>302.1</ele>
      </trkpt>
      <trkpt lat="39.80953" lon="-0.4318">
        <ele>303.2</ele>
      </trkpt>
      <trkpt lat="39.80806" lon="-0.43131">
        <ele>305.3</ele>
      </trkpt>
      <trkpt lat="39.80677" lon="-0.43011">
        <ele>288.8</ele>
      </trkpt>
      <trkpt lat="39.80601" lon="-0.4286">
        <ele>275.7</ele>
      </trkpt>
      <trkpt lat="39.80578" lon="-0.42824">
        <ele>276.5</ele>
      </trkpt>
      <trkpt lat="39.80559" lon="-0.42833">
        <ele>275.2</ele>
      </trkpt>
      <trkpt lat="39.80493" lon="-0.42802">
        <ele>272.3</ele>
      </trkpt>
      <trkpt lat="39.80425" lon="-0.42767">
        <ele>272.5</ele>
      </trkpt>
      <trkpt lat="39.80364" lon="-0.42744">
        <ele>271.1</ele>
      </trkpt>
      <trkpt lat="39.80342" lon="-0.42732">
        <ele>271.2</ele>
      </trkpt>
      <trkpt lat="39.80222" lon="-0.42648">
        <ele>269</ele>
      </trkpt>
      <trkpt lat="39.8016" lon="-0.42581">
        <ele>265.1</ele>
      </trkpt>
      <trkpt lat="39.8009" lon="-0.42481">
        <ele>264</ele>
      </trkpt>
      <trkpt lat="39.79883" lon="-0.42085">
        <ele>264.5</ele>
      </trkpt>
      <trkpt lat="39.7985" lon="-0.42031">
        <ele>264</ele>
      </trkpt>
      <trkpt lat="39.79803" lon="-0.42037">
        <ele>266.8</ele>
      </trkpt>
      <trkpt lat="39.79549" lon="-0.41665">
        <ele>261.1</ele>
      </trkpt>
      <trkpt lat="39.79416" lon="-0.41465">
        <ele>256.7</ele>
      </trkpt>
      <trkpt lat="39.79314" lon="-0.41351">
        <ele>258.9</ele>
      </trkpt>
      <trkpt lat="39.78742" lon="-0.40971">
        <ele>244.8</ele>
      </trkpt>
      <trkpt lat="39.78684" lon="-0.40894">
        <ele>240.6</ele>
      </trkpt>
      <trkpt lat="39.78625" lon="-0.40656">
        <ele>243</ele>
      </trkpt>
      <trkpt lat="39.78579" lon="-0.40433">
        <ele>245.4</ele>
      </trkpt>
      <trkpt lat="39.78555" lon="-0.40242">
        <ele>242.7</ele>
      </trkpt>
      <trkpt lat="39.78674" lon="-0.3971">
        <ele>248.6</ele>
      </trkpt>
      <trkpt lat="39.78729" lon="-0.39714">
        <ele>246</ele>
      </trkpt>
      <trkpt lat="39.78753" lon="-0.39686">
        <ele>249</ele>
      </trkpt>
      <trkpt lat="39.78757" lon="-0.39615">
        <ele>246</ele>
      </trkpt>
      <trkpt lat="39.7875" lon="-0.39478">
        <ele>247</ele>
      </trkpt>
      <trkpt lat="39.78738" lon="-0.39418">
        <ele>248.8</ele>
      </trkpt>
      <trkpt lat="39.78695" lon="-0.39343">
        <ele>250.7</ele>
      </trkpt>
      <trkpt lat="39.78681" lon="-0.39294">
        <ele>253.1</ele>
      </trkpt>
      <trkpt lat="39.78662" lon="-0.39242">
        <ele>250.6</ele>
      </trkpt>
      <trkpt lat="39.78641" lon="-0.39202">
        <ele>250.9</ele>
      </trkpt>
      <trkpt lat="39.78612" lon="-0.39158">
        <ele>251.9</ele>
      </trkpt>
      <trkpt lat="39.782" lon="-0.38639">
        <ele>244.2</ele>
      </trkpt>
      <trkpt lat="39.78157" lon="-0.38565">
        <ele>243.1</ele>
      </trkpt>
      <trkpt lat="39.78155" lon="-0.38553">
        <ele>243</ele>
      </trkpt>
      <trkpt lat="39.78154" lon="-0.38531">
        <ele>243.4</ele>
      </trkpt>
      <trkpt lat="39.78155" lon="-0.38506">
        <ele>241.1</ele>
      </trkpt>
      <trkpt lat="39.78159" lon="-0.38481">
        <ele>238.5</ele>
      </trkpt>
      <trkpt lat="39.78162" lon="-0.38455">
        <ele>237.1</ele>
      </trkpt>
      <trkpt lat="39.78169" lon="-0.38429">
        <ele>235.6</ele>
      </trkpt>
      <trkpt lat="39.78174" lon="-0.38393">
        <ele>234.5</ele>
      </trkpt>
      <trkpt lat="39.78175" lon="-0.38375">
        <ele>234</ele>
      </trkpt>
      <trkpt lat="39.78176" lon="-0.38358">
        <ele>233.5</ele>
      </trkpt>
      <trkpt lat="39.78168" lon="-0.38216">
        <ele>239.8</ele>
      </trkpt>
      <trkpt lat="39.78169" lon="-0.38206">
        <ele>239.8</ele>
      </trkpt>
      <trkpt lat="39.78199" lon="-0.38081">
        <ele>237.4</ele>
      </trkpt>
      <trkpt lat="39.78204" lon="-0.3805">
        <ele>238.7</ele>
      </trkpt>
      <trkpt lat="39.78206" lon="-0.37993">
        <ele>240.7</ele>
      </trkpt>
      <trkpt lat="39.78202" lon="-0.37938">
        <ele>238.9</ele>
      </trkpt>
      <trkpt lat="39.78198" lon="-0.37917">
        <ele>236.4</ele>
      </trkpt>
      <trkpt lat="39.78187" lon="-0.37873">
        <ele>235.2</ele>
      </trkpt>
      <trkpt lat="39.78147" lon="-0.37763">
        <ele>231.8</ele>
      </trkpt>
      <trkpt lat="39.77992" lon="-0.3756">
        <ele>224.9</ele>
      </trkpt>
      <trkpt lat="39.77823" lon="-0.37373">
        <ele>219.7</ele>
      </trkpt>
      <trkpt lat="39.77794" lon="-0.37418">
        <ele>220.8</ele>
      </trkpt>
      <trkpt lat="39.7768" lon="-0.37315">
        <ele>219.8</ele>
      </trkpt>
      <trkpt lat="39.77449" lon="-0.3713">
        <ele>217.5</ele>
      </trkpt>
      <trkpt lat="39.77139" lon="-0.37055">
        <ele>205</ele>
      </trkpt>
      <trkpt lat="39.76867" lon="-0.37128">
        <ele>203.9</ele>
      </trkpt>
      <trkpt lat="39.76778" lon="-0.371">
        <ele>206.6</ele>
      </trkpt>
      <trkpt lat="39.767" lon="-0.37012">
        <ele>205.9</ele>
      </trkpt>
      <trkpt lat="39.76491" lon="-0.36708">
        <ele>207.8</ele>
      </trkpt>
      <trkpt lat="39.76385" lon="-0.36605">
        <ele>207.6</ele>
      </trkpt>
      <trkpt lat="39.76242" lon="-0.36557">
        <ele>209.2</ele>
      </trkpt>
      <trkpt lat="39.76049" lon="-0.36525">
        <ele>208.6</ele>
      </trkpt>
      <trkpt lat="39.75938" lon="-0.36454">
        <ele>204.1</ele>
      </trkpt>
      <trkpt lat="39.75838" lon="-0.36345">
        <ele>211.7</ele>
      </trkpt>
      <trkpt lat="39.75752" lon="-0.36298">
        <ele>213.8</ele>
      </trkpt>
      <trkpt lat="39.75658" lon="-0.36315">
        <ele>208.2</ele>
      </trkpt>
      <trkpt lat="39.75534" lon="-0.36502">
        <ele>201.4</ele>
      </trkpt>
      <trkpt lat="39.75407" lon="-0.36699">
        <ele>199.7</ele>
      </trkpt>
      <trkpt lat="39.75249" lon="-0.36851">
        <ele>197.5</ele>
      </trkpt>
      <trkpt lat="39.74973" lon="-0.37098">
        <ele>189.6</ele>
      </trkpt>
      <trkpt lat="39.74869" lon="-0.37175">
        <ele>189.5</ele>
      </trkpt>
      <trkpt lat="39.7477" lon="-0.37145">
        <ele>186.7</ele>
      </trkpt>
      <trkpt lat="39.7462" lon="-0.3703">
        <ele>187.7</ele>
      </trkpt>
      <trkpt lat="39.74482" lon="-0.36916">
        <ele>195.5</ele>
      </trkpt>
      <trkpt lat="39.74298" lon="-0.36824">
        <ele>195.2</ele>
      </trkpt>
      <trkpt lat="39.74254" lon="-0.36712">
        <ele>187.5</ele>
      </trkpt>
      <trkpt lat="39.74201" lon="-0.36697">
        <ele>188.5</ele>
      </trkpt>
      <trkpt lat="39.74147" lon="-0.36742">
        <ele>186.5</ele>
      </trkpt>
      <trkpt lat="39.74117" lon="-0.36721">
        <ele>186.6</ele>
      </trkpt>
      <trkpt lat="39.74097" lon="-0.36804">
        <ele>189.4</ele>
      </trkpt>
      <trkpt lat="39.74104" lon="-0.36879">
        <ele>188.8</ele>
      </trkpt>
      <trkpt lat="39.74051" lon="-0.36969">
        <ele>197.1</ele>
      </trkpt>
      <trkpt lat="39.73991" lon="-0.36892">
        <ele>193.8</ele>
      </trkpt>
      <trkpt lat="39.73921" lon="-0.36952">
        <ele>192.5</ele>
      </trkpt>
      <trkpt lat="39.73871" lon="-0.36905">
        <ele>185.9</ele>
      </trkpt>
      <trkpt lat="39.73407" lon="-0.37231">
        <ele>175.9</ele>
      </trkpt>
      <trkpt lat="39.73249" lon="-0.37317">
        <ele>173</ele>
      </trkpt>
      <trkpt lat="39.73168" lon="-0.37332">
        <ele>169.2</ele>
      </trkpt>
      <trkpt lat="39.73152" lon="-0.37281">
        <ele>169.9</ele>
      </trkpt>
      <trkpt lat="39.73021" lon="-0.37261">
        <ele>170.5</ele>
      </trkpt>
      <trkpt lat="39.72822" lon="-0.37171">
        <ele>166.6</ele>
      </trkpt>
      <trkpt lat="39.72703" lon="-0.37098">
        <ele>162.3</ele>
      </trkpt>
      <trkpt lat="39.72663" lon="-0.37047">
        <ele>161.8</ele>
      </trkpt>
      <trkpt lat="39.72549" lon="-0.37008">
        <ele>158.9</ele>
      </trkpt>
      <trkpt lat="39.72341" lon="-0.3686">
        <ele>157.9</ele>
      </trkpt>
      <trkpt lat="39.72312" lon="-0.36789">
        <ele>154.8</ele>
      </trkpt>
      <trkpt lat="39.72412" lon="-0.36892">
        <ele>163.5</ele>
      </trkpt>
      <trkpt lat="39.72376" lon="-0.37004">
        <ele>164.3</ele>
      </trkpt>
      <trkpt lat="39.72399" lon="-0.37085">
        <ele>168.8</ele>
      </trkpt>
      <trkpt lat="39.72348" lon="-0.36987">
        <ele>162.5</ele>
      </trkpt>
      <trkpt lat="39.72234" lon="-0.37012">
        <ele>164.7</ele>
      </trkpt>
      <trkpt lat="39.72214" lon="-0.36984">
        <ele>162.8</ele>
      </trkpt>
      <trkpt lat="39.72145" lon="-0.37038">
        <ele>165.6</ele>
      </trkpt>
      <trkpt lat="39.72059" lon="-0.37017">
        <ele>165.2</ele>
      </trkpt>
      <trkpt lat="39.71879" lon="-0.37012">
        <ele>168.5</ele>
      </trkpt>
      <trkpt lat="39.71869" lon="-0.36965">
        <ele>165.5</ele>
      </trkpt>
      <trkpt lat="39.7175" lon="-0.36989">
        <ele>158.2</ele>
      </trkpt>
      <trkpt lat="39.71724" lon="-0.37038">
        <ele>154.5</ele>
      </trkpt>
      <trkpt lat="39.7167" lon="-0.36984">
        <ele>164.2</ele>
      </trkpt>
      <trkpt lat="39.7165" lon="-0.36916">
        <ele>166.1</ele>
      </trkpt>
      <trkpt lat="39.71688" lon="-0.36821">
        <ele>162</ele>
      </trkpt>
      <trkpt lat="39.71678" lon="-0.36731">
        <ele>159.7</ele>
      </trkpt>
      <trkpt lat="39.71613" lon="-0.36693">
        <ele>157</ele>
      </trkpt>
      <trkpt lat="39.71564" lon="-0.36708">
        <ele>158.3</ele>
      </trkpt>
      <trkpt lat="39.71546" lon="-0.36684">
        <ele>158.3</ele>
      </trkpt>
      <trkpt lat="39.71561" lon="-0.36628">
        <ele>155.6</ele>
      </trkpt>
      <trkpt lat="39.71359" lon="-0.36392">
        <ele>152.5</ele>
      </trkpt>
      <trkpt lat="39.71303" lon="-0.36274">
        <ele>145.8</ele>
      </trkpt>
      <trkpt lat="39.7125" lon="-0.3621">
        <ele>144.7</ele>
      </trkpt>
      <trkpt lat="39.71115" lon="-0.36027">
        <ele>146.5</ele>
      </trkpt>
      <trkpt lat="39.71085" lon="-0.35937">
        <ele>143.1</ele>
      </trkpt>
      <trkpt lat="39.71224" lon="-0.35607">
        <ele>135.3</ele>
      </trkpt>
      <trkpt lat="39.71229" lon="-0.35545">
        <ele>135.8</ele>
      </trkpt>
      <trkpt lat="39.71212" lon="-0.3548">
        <ele>134.5</ele>
      </trkpt>
      <trkpt lat="39.71146" lon="-0.35379">
        <ele>133.2</ele>
      </trkpt>
      <trkpt lat="39.71057" lon="-0.35343">
        <ele>131.7</ele>
      </trkpt>
      <trkpt lat="39.71044" lon="-0.35272">
        <ele>126.7</ele>
      </trkpt>
      <trkpt lat="39.71055" lon="-0.35186">
        <ele>123.4</ele>
      </trkpt>
      <trkpt lat="39.71006" lon="-0.35163">
        <ele>123.3</ele>
      </trkpt>
      <trkpt lat="39.70989" lon="-0.35098">
        <ele>120.5</ele>
      </trkpt>
      <trkpt lat="39.70965" lon="-0.35131">
        <ele>123.8</ele>
      </trkpt>
      <trkpt lat="39.70783" lon="-0.35015">
        <ele>118.1</ele>
      </trkpt>
      <trkpt lat="39.70516" lon="-0.34918">
        <ele>117</ele>
      </trkpt>
      <trkpt lat="39.70377" lon="-0.34811">
        <ele>116.3</ele>
      </trkpt>
      <trkpt lat="39.70321" lon="-0.34781">
        <ele>115.1</ele>
      </trkpt>
      <trkpt lat="39.70242" lon="-0.34716">
        <ele>109.9</ele>
      </trkpt>
      <trkpt lat="39.70015" lon="-0.34508">
        <ele>111.2</ele>
      </trkpt>
      <trkpt lat="39.69959" lon="-0.34386">
        <ele>105.8</ele>
      </trkpt>
      <trkpt lat="39.69926" lon="-0.34283">
        <ele>101</ele>
      </trkpt>
      <trkpt lat="39.69844" lon="-0.34257">
        <ele>97</ele>
      </trkpt>
      <trkpt lat="39.69806" lon="-0.34309">
        <ele>106.8</ele>
      </trkpt>
      <trkpt lat="39.69756" lon="-0.34289">
        <ele>107.7</ele>
      </trkpt>
      <trkpt lat="39.69695" lon="-0.34206">
        <ele>109</ele>
      </trkpt>
      <trkpt lat="39.69657" lon="-0.33978">
        <ele>112.6</ele>
      </trkpt>
      <trkpt lat="39.69616" lon="-0.33875">
        <ele>115.4</ele>
      </trkpt>
      <trkpt lat="39.69509" lon="-0.33744">
        <ele>117.7</ele>
      </trkpt>
      <trkpt lat="39.69357" lon="-0.33526">
        <ele>105.4</ele>
      </trkpt>
      <trkpt lat="39.69264" lon="-0.33407">
        <ele>100.8</ele>
      </trkpt>
      <trkpt lat="39.69149" lon="-0.33317">
        <ele>97.6</ele>
      </trkpt>
      <trkpt lat="39.69139" lon="-0.33279">
        <ele>95</ele>
      </trkpt>
      <trkpt lat="39.69173" lon="-0.33294">
        <ele>94.5</ele>
      </trkpt>
      <trkpt lat="39.69241" lon="-0.3334">
        <ele>95.5</ele>
      </trkpt>
      <trkpt lat="39.69263" lon="-0.33279">
        <ele>91.6</ele>
      </trkpt>
      <trkpt lat="39.69241" lon="-0.3324">
        <ele>89.5</ele>
      </trkpt>
      <trkpt lat="39.69292" lon="-0.3315">
        <ele>83.6</ele>
      </trkpt>
      <trkpt lat="39.69334" lon="-0.33124">
        <ele>79</ele>
      </trkpt>
      <trkpt lat="39.69202" lon="-0.33019">
        <ele>77.5</ele>
      </trkpt>
      <trkpt lat="39.69089" lon="-0.32918">
        <ele>76.1</ele>
      </trkpt>
      <trkpt lat="39.6904" lon="-0.32901">
        <ele>79.3</ele>
      </trkpt>
      <trkpt lat="39.6897" lon="-0.32811">
        <ele>78.1</ele>
      </trkpt>
      <trkpt lat="39.68993" lon="-0.32588">
        <ele>74</ele>
      </trkpt>
      <trkpt lat="39.68989" lon="-0.32508">
        <ele>74.6</ele>
      </trkpt>
      <trkpt lat="39.69112" lon="-0.32629">
        <ele>76.5</ele>
      </trkpt>
      <trkpt lat="39.69142" lon="-0.32663">
        <ele>77.5</ele>
      </trkpt>
      <trkpt lat="39.69282" lon="-0.32751">
        <ele>78.2</ele>
      </trkpt>
      <trkpt lat="39.69347" lon="-0.32794">
        <ele>79.3</ele>
      </trkpt>
      <trkpt lat="39.69414" lon="-0.32871">
        <ele>81</ele>
      </trkpt>
      <trkpt lat="39.69481" lon="-0.32865">
        <ele>81.4</ele>
      </trkpt>
      <trkpt lat="39.69533" lon="-0.32993">
        <ele>83</ele>
      </trkpt>
      <trkpt lat="39.69566" lon="-0.32989">
        <ele>83.4</ele>
      </trkpt>
      <trkpt lat="39.69629" lon="-0.32927">
        <ele>83</ele>
      </trkpt>
      <trkpt lat="39.69687" lon="-0.33041">
        <ele>84</ele>
      </trkpt>
      <trkpt lat="39.69712" lon="-0.33131">
        <ele>84.7</ele>
      </trkpt>
      <trkpt lat="39.69755" lon="-0.33109">
        <ele>85.3</ele>
      </trkpt>
      <trkpt lat="39.6976" lon="-0.33066">
        <ele>87</ele>
      </trkpt>
      <trkpt lat="39.69774" lon="-0.33043">
        <ele>90.8</ele>
      </trkpt>
      <trkpt lat="39.69718" lon="-0.3298">
        <ele>91</ele>
      </trkpt>
      <trkpt lat="39.69685" lon="-0.32889">
        <ele>91.3</ele>
      </trkpt>
      <trkpt lat="39.69669" lon="-0.32863">
        <ele>90.6</ele>
      </trkpt>
      <trkpt lat="39.69589" lon="-0.32753">
        <ele>91.7</ele>
      </trkpt>
      <trkpt lat="39.69573" lon="-0.32716">
        <ele>91.7</ele>
      </trkpt>
      <trkpt lat="39.69535" lon="-0.32606">
        <ele>92</ele>
      </trkpt>
      <trkpt lat="39.6952" lon="-0.32538">
        <ele>94.1</ele>
      </trkpt>
      <trkpt lat="39.69494" lon="-0.32465">
        <ele>94.8</ele>
      </trkpt>
      <trkpt lat="39.6948" lon="-0.32395">
        <ele>94.6</ele>
      </trkpt>
      <trkpt lat="39.69471" lon="-0.32363">
        <ele>94.9</ele>
      </trkpt>
      <trkpt lat="39.69458" lon="-0.32328">
        <ele>95.6</ele>
      </trkpt>
      <trkpt lat="39.69422" lon="-0.32258">
        <ele>96.5</ele>
      </trkpt>
      <trkpt lat="39.69402" lon="-0.32225">
        <ele>96.8</ele>
      </trkpt>
      <trkpt lat="39.69353" lon="-0.32163">
        <ele>98.4</ele>
      </trkpt>
      <trkpt lat="39.69335" lon="-0.3214">
        <ele>99.9</ele>
      </trkpt>
      <trkpt lat="39.69315" lon="-0.32103">
        <ele>101.3</ele>
      </trkpt>
      <trkpt lat="39.6926" lon="-0.31989">
        <ele>106.4</ele>
      </trkpt>
      <trkpt lat="39.69225" lon="-0.31917">
        <ele>112</ele>
      </trkpt>
      <trkpt lat="39.69201" lon="-0.31873">
        <ele>115.7</ele>
      </trkpt>
      <trkpt lat="39.69193" lon="-0.31858">
        <ele>116.3</ele>
      </trkpt>
      <trkpt lat="39.69175" lon="-0.31809">
        <ele>117.9</ele>
      </trkpt>
      <trkpt lat="39.69163" lon="-0.31792">
        <ele>116.7</ele>
      </trkpt>
      <trkpt lat="39.69147" lon="-0.31778">
        <ele>114.2</ele>
      </trkpt>
      <trkpt lat="39.69136" lon="-0.31764">
        <ele>113.6</ele>
      </trkpt>
      <trkpt lat="39.69098" lon="-0.31706">
        <ele>113.3</ele>
      </trkpt>
      <trkpt lat="39.69077" lon="-0.31661">
        <ele>113.5</ele>
      </trkpt>
      <trkpt lat="39.69026" lon="-0.31555">
        <ele>112.7</ele>
      </trkpt>
      <trkpt lat="39.68998" lon="-0.31485">
        <ele>111.8</ele>
      </trkpt>
      <trkpt lat="39.68971" lon="-0.31432">
        <ele>111.4</ele>
      </trkpt>
      <trkpt lat="39.68945" lon="-0.31383">
        <ele>109.1</ele>
      </trkpt>
      <trkpt lat="39.68923" lon="-0.31335">
        <ele>107.5</ele>
      </trkpt>
      <trkpt lat="39.68893" lon="-0.31284">
        <ele>105.7</ele>
      </trkpt>
      <trkpt lat="39.68878" lon="-0.31265">
        <ele>104.4</ele>
      </trkpt>
      <trkpt lat="39.68858" lon="-0.31249">
        <ele>102.8</ele>
      </trkpt>
      <trkpt lat="39.68809" lon="-0.31216">
        <ele>101</ele>
      </trkpt>
      <trkpt lat="39.68762" lon="-0.31189">
        <ele>100.1</ele>
      </trkpt>
      <trkpt lat="39.68756" lon="-0.31188">
        <ele>99.7</ele>
      </trkpt>
      <trkpt lat="39.68691" lon="-0.31172">
        <ele>96.3</ele>
      </trkpt>
      <trkpt lat="39.68627" lon="-0.31145">
        <ele>92</ele>
      </trkpt>
      <trkpt lat="39.68603" lon="-0.31121">
        <ele>90.9</ele>
      </trkpt>
      <trkpt lat="39.68584" lon="-0.31123">
        <ele>89.1</ele>
      </trkpt>
      <trkpt lat="39.68578" lon="-0.31127">
        <ele>88.7</ele>
      </trkpt>
      <trkpt lat="39.68571" lon="-0.31125">
        <ele>88.3</ele>
      </trkpt>
      <trkpt lat="39.68567" lon="-0.3112">
        <ele>88.2</ele>
      </trkpt>
      <trkpt lat="39.68566" lon="-0.31112">
        <ele>88.4</ele>
      </trkpt>
      <trkpt lat="39.68563" lon="-0.31098">
        <ele>88.4</ele>
      </trkpt>
      <trkpt lat="39.68555" lon="-0.31027">
        <ele>88</ele>
      </trkpt>
      <trkpt lat="39.6848" lon="-0.31032">
        <ele>83.3</ele>
      </trkpt>
      <trkpt lat="39.68419" lon="-0.31041">
        <ele>79.6</ele>
      </trkpt>
      <trkpt lat="39.68393" lon="-0.3104">
        <ele>78.2</ele>
      </trkpt>
      <trkpt lat="39.68375" lon="-0.31039">
        <ele>77.5</ele>
      </trkpt>
      <trkpt lat="39.68367" lon="-0.31037">
        <ele>77.2</ele>
      </trkpt>
      <trkpt lat="39.68364" lon="-0.31035">
        <ele>77.1</ele>
      </trkpt>
      <trkpt lat="39.68338" lon="-0.31034">
        <ele>77</ele>
      </trkpt>
      <trkpt lat="39.68326" lon="-0.31031">
        <ele>76.7</ele>
      </trkpt>
      <trkpt lat="39.68331" lon="-0.3099">
        <ele>75.9</ele>
      </trkpt>
      <trkpt lat="39.68331" lon="-0.30954">
        <ele>76.6</ele>
      </trkpt>
      <trkpt lat="39.68259" lon="-0.30962">
        <ele>74.3</ele>
      </trkpt>
      <trkpt lat="39.68207" lon="-0.30963">
        <ele>72.6</ele>
      </trkpt>
      <trkpt lat="39.68198" lon="-0.30963">
        <ele>72.4</ele>
      </trkpt>
      <trkpt lat="39.68184" lon="-0.30959">
        <ele>72.3</ele>
      </trkpt>
      <trkpt lat="39.68155" lon="-0.3094">
        <ele>71.6</ele>
      </trkpt>
      <trkpt lat="39.68133" lon="-0.30918">
        <ele>71.8</ele>
      </trkpt>
      <trkpt lat="39.68086" lon="-0.30849">
        <ele>70.1</ele>
      </trkpt>
      <trkpt lat="39.68074" lon="-0.30827">
        <ele>69.7</ele>
      </trkpt>
      <trkpt lat="39.68041" lon="-0.30681">
        <ele>67.7</ele>
      </trkpt>
      <trkpt lat="39.68038" lon="-0.30677">
        <ele>67.6</ele>
      </trkpt>
      <trkpt lat="39.68032" lon="-0.30669">
        <ele>67.2</ele>
      </trkpt>
      <trkpt lat="39.68001" lon="-0.30659">
        <ele>66.7</ele>
      </trkpt>
      <trkpt lat="39.67982" lon="-0.30645">
        <ele>66.1</ele>
      </trkpt>
      <trkpt lat="39.67952" lon="-0.30611">
        <ele>65.3</ele>
      </trkpt>
      <trkpt lat="39.67935" lon="-0.30576">
        <ele>65</ele>
      </trkpt>
      <trkpt lat="39.67924" lon="-0.30566">
        <ele>65</ele>
      </trkpt>
      <trkpt lat="39.67897" lon="-0.30569">
        <ele>63.9</ele>
      </trkpt>
      <trkpt lat="39.67887" lon="-0.30574">
        <ele>62.9</ele>
      </trkpt>
      <trkpt lat="39.67884" lon="-0.30564">
        <ele>62.9</ele>
      </trkpt>
      <trkpt lat="39.67874" lon="-0.30567">
        <ele>60.9</ele>
      </trkpt>
      <trkpt lat="39.67819" lon="-0.30579">
        <ele>60.5</ele>
      </trkpt>
      <trkpt lat="39.67809" lon="-0.30582">
        <ele>63.1</ele>
      </trkpt>
      <trkpt lat="39.678" lon="-0.3059">
        <ele>64.2</ele>
      </trkpt>
      <trkpt lat="39.67791" lon="-0.30605">
        <ele>64.1</ele>
      </trkpt>
      <trkpt lat="39.67787" lon="-0.30607">
        <ele>64.1</ele>
      </trkpt>
      <trkpt lat="39.67785" lon="-0.30604">
        <ele>64.2</ele>
      </trkpt>
      <trkpt lat="39.67774" lon="-0.30606">
        <ele>64.3</ele>
      </trkpt>
      <trkpt lat="39.67765" lon="-0.30601">
        <ele>64.7</ele>
      </trkpt>
      <trkpt lat="39.67759" lon="-0.3059">
        <ele>64.9</ele>
      </trkpt>
      <trkpt lat="39.67758" lon="-0.30576">
        <ele>64.7</ele>
      </trkpt>
      <trkpt lat="39.67762" lon="-0.30564">
        <ele>64.3</ele>
      </trkpt>
      <trkpt lat="39.67771" lon="-0.30557">
        <ele>64.1</ele>
      </trkpt>
      <trkpt lat="39.67787" lon="-0.30489">
        <ele>62.5</ele>
      </trkpt>
      <trkpt lat="39.67795" lon="-0.30412">
        <ele>60.1</ele>
      </trkpt>
      <trkpt lat="39.67795" lon="-0.30374">
        <ele>61.8</ele>
      </trkpt>
      <trkpt lat="39.67791" lon="-0.30346">
        <ele>61.5</ele>
      </trkpt>
      <trkpt lat="39.67777" lon="-0.30314">
        <ele>62</ele>
      </trkpt>
      <trkpt lat="39.67765" lon="-0.30304">
        <ele>62</ele>
      </trkpt>
      <trkpt lat="39.67763" lon="-0.30304">
        <ele>62</ele>
      </trkpt>
      <trkpt lat="39.67753" lon="-0.30299">
        <ele>62</ele>
      </trkpt>
      <trkpt lat="39.67747" lon="-0.30288">
        <ele>62</ele>
      </trkpt>
      <trkpt lat="39.67747" lon="-0.30276">
        <ele>61.9</ele>
      </trkpt>
      <trkpt lat="39.67752" lon="-0.30266">
        <ele>61.6</ele>
      </trkpt>
      <trkpt lat="39.67753" lon="-0.30265">
        <ele>61.6</ele>
      </trkpt>
      <trkpt lat="39.67756" lon="-0.30252">
        <ele>61.3</ele>
      </trkpt>
      <trkpt lat="39.67755" lon="-0.30232">
        <ele>60.8</ele>
      </trkpt>
      <trkpt lat="39.67708" lon="-0.30152">
        <ele>62</ele>
      </trkpt>
      <trkpt lat="39.67698" lon="-0.30125">
        <ele>64.4</ele>
      </trkpt>
      <trkpt lat="39.67692" lon="-0.30104">
        <ele>65</ele>
      </trkpt>
      <trkpt lat="39.67674" lon="-0.30009">
        <ele>60.5</ele>
      </trkpt>
      <trkpt lat="39.67634" lon="-0.29785">
        <ele>56.7</ele>
      </trkpt>
      <trkpt lat="39.6763" lon="-0.29753">
        <ele>57.3</ele>
      </trkpt>
      <trkpt lat="39.67628" lon="-0.29723">
        <ele>57.4</ele>
      </trkpt>
      <trkpt lat="39.67627" lon="-0.29683">
        <ele>57.6</ele>
      </trkpt>
      <trkpt lat="39.67633" lon="-0.29649">
        <ele>57.6</ele>
      </trkpt>
      <trkpt lat="39.67666" lon="-0.29538">
        <ele>56.7</ele>
      </trkpt>
      <trkpt lat="39.6768" lon="-0.29495">
        <ele>57.2</ele>
      </trkpt>
      <trkpt lat="39.67697" lon="-0.29457">
        <ele>56</ele>
      </trkpt>
      <trkpt lat="39.67751" lon="-0.29365">
        <ele>55.9</ele>
      </trkpt>
      <trkpt lat="39.67794" lon="-0.29296">
        <ele>55</ele>
      </trkpt>
      <trkpt lat="39.67807" lon="-0.29266">
        <ele>54.3</ele>
      </trkpt>
      <trkpt lat="39.6782" lon="-0.29227">
        <ele>54</ele>
      </trkpt>
      <trkpt lat="39.67828" lon="-0.29185">
        <ele>53.2</ele>
      </trkpt>
      <trkpt lat="39.67832" lon="-0.29163">
        <ele>53</ele>
      </trkpt>
      <trkpt lat="39.67838" lon="-0.29124">
        <ele>52.4</ele>
      </trkpt>
      <trkpt lat="39.67842" lon="-0.29102">
        <ele>52.2</ele>
      </trkpt>
      <trkpt lat="39.67853" lon="-0.2906">
        <ele>52.2</ele>
      </trkpt>
      <trkpt lat="39.67882" lon="-0.28973">
        <ele>53.4</ele>
      </trkpt>
      <trkpt lat="39.67916" lon="-0.28888">
        <ele>52.4</ele>
      </trkpt>
      <trkpt lat="39.67935" lon="-0.28855">
        <ele>53.4</ele>
      </trkpt>
      <trkpt lat="39.67975" lon="-0.28797">
        <ele>52.8</ele>
      </trkpt>
      <trkpt lat="39.67996" lon="-0.28763">
        <ele>52.5</ele>
      </trkpt>
      <trkpt lat="39.68013" lon="-0.28719">
        <ele>53.1</ele>
      </trkpt>
      <trkpt lat="39.68024" lon="-0.28681">
        <ele>53</ele>
      </trkpt>
      <trkpt lat="39.68023" lon="-0.28671">
        <ele>53.2</ele>
      </trkpt>
      <trkpt lat="39.68025" lon="-0.28665">
        <ele>52.7</ele>
      </trkpt>
      <trkpt lat="39.68032" lon="-0.28658">
        <ele>51.8</ele>
      </trkpt>
      <trkpt lat="39.68036" lon="-0.28658">
        <ele>51.7</ele>
      </trkpt>
      <trkpt lat="39.68041" lon="-0.28661">
        <ele>51.5</ele>
      </trkpt>
      <trkpt lat="39.68056" lon="-0.28659">
        <ele>50.9</ele>
      </trkpt>
      <trkpt lat="39.68066" lon="-0.28655">
        <ele>49.6</ele>
      </trkpt>
      <trkpt lat="39.68124" lon="-0.28578">
        <ele>47.9</ele>
      </trkpt>
      <trkpt lat="39.68151" lon="-0.28541">
        <ele>47.4</ele>
      </trkpt>
      <trkpt lat="39.68184" lon="-0.28495">
        <ele>47</ele>
      </trkpt>
      <trkpt lat="39.682" lon="-0.28481">
        <ele>47.4</ele>
      </trkpt>
      <trkpt lat="39.68197" lon="-0.28473">
        <ele>47.9</ele>
      </trkpt>
      <trkpt lat="39.68198" lon="-0.28466">
        <ele>47.8</ele>
      </trkpt>
      <trkpt lat="39.68201" lon="-0.28461">
        <ele>47.6</ele>
      </trkpt>
      <trkpt lat="39.68208" lon="-0.28458">
        <ele>47.5</ele>
      </trkpt>
      <trkpt lat="39.68219" lon="-0.28448">
        <ele>47.1</ele>
      </trkpt>
      <trkpt lat="39.68231" lon="-0.2843">
        <ele>45.9</ele>
      </trkpt>
      <trkpt lat="39.68255" lon="-0.2839">
        <ele>46.2</ele>
      </trkpt>
      <trkpt lat="39.68263" lon="-0.28372">
        <ele>45.4</ele>
      </trkpt>
      <trkpt lat="39.68281" lon="-0.28311">
        <ele>46.4</ele>
      </trkpt>
      <trkpt lat="39.68285" lon="-0.28272">
        <ele>45.2</ele>
      </trkpt>
      <trkpt lat="39.68286" lon="-0.28232">
        <ele>45.1</ele>
      </trkpt>
      <trkpt lat="39.68284" lon="-0.28186">
        <ele>45.1</ele>
      </trkpt>
      <trkpt lat="39.68281" lon="-0.28139">
        <ele>44.7</ele>
      </trkpt>
      <trkpt lat="39.6828" lon="-0.281">
        <ele>44.8</ele>
      </trkpt>
      <trkpt lat="39.68279" lon="-0.28093">
        <ele>44.9</ele>
      </trkpt>
      <trkpt lat="39.68279" lon="-0.28089">
        <ele>44.9</ele>
      </trkpt>
      <trkpt lat="39.68277" lon="-0.28047">
        <ele>44.7</ele>
      </trkpt>
      <trkpt lat="39.68274" lon="-0.27997">
        <ele>44.2</ele>
      </trkpt>
      <trkpt lat="39.68269" lon="-0.27905">
        <ele>43.7</ele>
      </trkpt>
      <trkpt lat="39.68264" lon="-0.27857">
        <ele>43.5</ele>
      </trkpt>
      <trkpt lat="39.68247" lon="-0.27793">
        <ele>47</ele>
      </trkpt>
      <trkpt lat="39.68247" lon="-0.27791">
        <ele>47</ele>
      </trkpt>
      <trkpt lat="39.68228" lon="-0.27726">
        <ele>46.8</ele>
      </trkpt>
      <trkpt lat="39.68227" lon="-0.27718">
        <ele>46.5</ele>
      </trkpt>
      <trkpt lat="39.68223" lon="-0.27713">
        <ele>46.6</ele>
      </trkpt>
      <trkpt lat="39.68211" lon="-0.27671">
        <ele>46.1</ele>
      </trkpt>
      <trkpt lat="39.68207" lon="-0.27646">
        <ele>45.3</ele>
      </trkpt>
      <trkpt lat="39.68196" lon="-0.2761">
        <ele>44.8</ele>
      </trkpt>
      <trkpt lat="39.68182" lon="-0.27563">
        <ele>45</ele>
      </trkpt>
      <trkpt lat="39.68167" lon="-0.2751">
        <ele>44.9</ele>
      </trkpt>
      <trkpt lat="39.68156" lon="-0.27467">
        <ele>44.3</ele>
      </trkpt>
      <trkpt lat="39.68134" lon="-0.27394">
        <ele>44</ele>
      </trkpt>
      <trkpt lat="39.68129" lon="-0.27374">
        <ele>43.1</ele>
      </trkpt>
      <trkpt lat="39.68118" lon="-0.27347">
        <ele>42.9</ele>
      </trkpt>
      <trkpt lat="39.68118" lon="-0.27337">
        <ele>43</ele>
      </trkpt>
      <trkpt lat="39.68116" lon="-0.27326">
        <ele>42.9</ele>
      </trkpt>
      <trkpt lat="39.68117" lon="-0.27321">
        <ele>42.8</ele>
      </trkpt>
      <trkpt lat="39.68122" lon="-0.27314">
        <ele>42.5</ele>
      </trkpt>
      <trkpt lat="39.68128" lon="-0.27312">
        <ele>42.1</ele>
      </trkpt>
      <trkpt lat="39.68131" lon="-0.27312">
        <ele>41.9</ele>
      </trkpt>
      <trkpt lat="39.68137" lon="-0.27317">
        <ele>41.9</ele>
      </trkpt>
      <trkpt lat="39.68149" lon="-0.27318">
        <ele>40.8</ele>
      </trkpt>
      <trkpt lat="39.6825" lon="-0.27276">
        <ele>45</ele>
      </trkpt>
      <trkpt lat="39.68259" lon="-0.27265">
        <ele>45.2</ele>
      </trkpt>
      <trkpt lat="39.6826" lon="-0.27258">
        <ele>45.1</ele>
      </trkpt>
      <trkpt lat="39.68264" lon="-0.27249">
        <ele>45</ele>
      </trkpt>
      <trkpt lat="39.68274" lon="-0.27244">
        <ele>45</ele>
      </trkpt>
      <trkpt lat="39.68281" lon="-0.27246">
        <ele>45</ele>
      </trkpt>
      <trkpt lat="39.68293" lon="-0.27239">
        <ele>45</ele>
      </trkpt>
      <trkpt lat="39.68333" lon="-0.27221">
        <ele>45</ele>
      </trkpt>
      <trkpt lat="39.68365" lon="-0.27207">
        <ele>45</ele>
      </trkpt>
      <trkpt lat="39.68415" lon="-0.27193">
        <ele>44.1</ele>
      </trkpt>
      <trkpt lat="39.68418" lon="-0.27192">
        <ele>44</ele>
      </trkpt>
      <trkpt lat="39.68423" lon="-0.27209">
        <ele>44.6</ele>
      </trkpt>
      <trkpt lat="39.68426" lon="-0.27218">
        <ele>44.9</ele>
      </trkpt>
      <trkpt lat="39.68424" lon="-0.27219">
        <ele>44.9</ele>
      </trkpt>
      <trkpt lat="39.68378" lon="-0.2724">
        <ele>45</ele>
      </trkpt>
      <trkpt lat="39.68411" lon="-0.27321">
        <ele>45.4</ele>
        <extensions>
          <visugpx:TrkExtension xmlns:visugpx="https://www.visugpx.com/editgpx/">
            <visugpx:node>33</visugpx:node>
            </visugpx:TrkExtension>
        </extensions>
      </trkpt>
      <trkpt lat="39.68431" lon="-0.27371">
        <ele>46</ele>
      </trkpt>
      <trkpt lat="39.68381" lon="-0.27405">
        <ele>45.9</ele>
      </trkpt>
      <trkpt lat="39.68327" lon="-0.27441">
        <ele>45.9</ele>
      </trkpt>
      <trkpt lat="39.6838" lon="-0.27628">
        <ele>46.7</ele>
      </trkpt>
      <trkpt lat="39.68385" lon="-0.27645">
        <ele>47.2</ele>
      </trkpt>
      <trkpt lat="39.68397" lon="-0.27647">
        <ele>47.2</ele>
      </trkpt>
      <trkpt lat="39.68404" lon="-0.27654">
        <ele>47.2</ele>
      </trkpt>
      <trkpt lat="39.68417" lon="-0.27657">
        <ele>47</ele>
      </trkpt>
      <trkpt lat="39.68472" lon="-0.2766">
        <ele>48</ele>
      </trkpt>
      <trkpt lat="39.68501" lon="-0.27657">
        <ele>47.7</ele>
      </trkpt>
      <trkpt lat="39.6854" lon="-0.27647">
        <ele>48</ele>
      </trkpt>
      <trkpt lat="39.68567" lon="-0.27635">
        <ele>48.4</ele>
      </trkpt>
      <trkpt lat="39.68591" lon="-0.2762">
        <ele>48.5</ele>
      </trkpt>
      <trkpt lat="39.686" lon="-0.27613">
        <ele>48.6</ele>
      </trkpt>
      <trkpt lat="39.68602" lon="-0.27604">
        <ele>48.7</ele>
      </trkpt>
      <trkpt lat="39.6861" lon="-0.27596">
        <ele>49</ele>
      </trkpt>
      <trkpt lat="39.6862" lon="-0.27594">
        <ele>49</ele>
      </trkpt>
      <trkpt lat="39.68629" lon="-0.276">
        <ele>49</ele>
      </trkpt>
      <trkpt lat="39.68643" lon="-0.27598">
        <ele>49</ele>
      </trkpt>
      <trkpt lat="39.68647" lon="-0.27595">
        <ele>49</ele>
      </trkpt>
      <trkpt lat="39.68687" lon="-0.27562">
        <ele>48.8</ele>
      </trkpt>
      <trkpt lat="39.68748" lon="-0.27504">
        <ele>48.9</ele>
      </trkpt>
      <trkpt lat="39.68786" lon="-0.27462">
        <ele>47.9</ele>
      </trkpt>
      <trkpt lat="39.68865" lon="-0.27326">
        <ele>48</ele>
      </trkpt>
      <trkpt lat="39.68868" lon="-0.27309">
        <ele>48</ele>
      </trkpt>
      <trkpt lat="39.68866" lon="-0.27299">
        <ele>47.8</ele>
      </trkpt>
      <trkpt lat="39.68867" lon="-0.27289">
        <ele>47.5</ele>
      </trkpt>
      <trkpt lat="39.68872" lon="-0.27281">
        <ele>47.5</ele>
      </trkpt>
      <trkpt lat="39.68882" lon="-0.27276">
        <ele>47.7</ele>
      </trkpt>
      <trkpt lat="39.6889" lon="-0.27278">
        <ele>48</ele>
      </trkpt>
      <trkpt lat="39.68903" lon="-0.27269">
        <ele>47.8</ele>
      </trkpt>
      <trkpt lat="39.68913" lon="-0.27259">
        <ele>47.9</ele>
      </trkpt>
      <trkpt lat="39.68931" lon="-0.27247">
        <ele>47.9</ele>
      </trkpt>
      <trkpt lat="39.68985" lon="-0.27212">
        <ele>46.9</ele>
      </trkpt>
      <trkpt lat="39.69172" lon="-0.27165">
        <ele>47.1</ele>
      </trkpt>
      <trkpt lat="39.69183" lon="-0.27161">
        <ele>47.3</ele>
      </trkpt>
      <trkpt lat="39.69196" lon="-0.27151">
        <ele>46.9</ele>
      </trkpt>
      <trkpt lat="39.69299" lon="-0.27059">
        <ele>46.8</ele>
      </trkpt>
      <trkpt lat="39.69463" lon="-0.26923">
        <ele>46</ele>
      </trkpt>
      <trkpt lat="39.69525" lon="-0.26875">
        <ele>46.4</ele>
      </trkpt>
      <trkpt lat="39.69629" lon="-0.26768">
        <ele>44.3</ele>
      </trkpt>
      <trkpt lat="39.69661" lon="-0.26731">
        <ele>44.1</ele>
      </trkpt>
      <trkpt lat="39.69691" lon="-0.26691">
        <ele>43.8</ele>
      </trkpt>
      <trkpt lat="39.69722" lon="-0.26658">
        <ele>43.7</ele>
      </trkpt>
      <trkpt lat="39.69759" lon="-0.26618">
        <ele>43</ele>
      </trkpt>
      <trkpt lat="39.69793" lon="-0.26585">
        <ele>42.6</ele>
      </trkpt>
      <trkpt lat="39.69852" lon="-0.26522">
        <ele>41.6</ele>
      </trkpt>
      <trkpt lat="39.69866" lon="-0.2651">
        <ele>40.8</ele>
      </trkpt>
      <trkpt lat="39.69932" lon="-0.26476">
        <ele>40.6</ele>
      </trkpt>
      <trkpt lat="39.69937" lon="-0.2647">
        <ele>40.7</ele>
      </trkpt>
      <trkpt lat="39.6997" lon="-0.26411">
        <ele>40.5</ele>
      </trkpt>
      <trkpt lat="39.70001" lon="-0.26368">
        <ele>39.6</ele>
      </trkpt>
      <trkpt lat="39.70015" lon="-0.26356">
        <ele>39.7</ele>
      </trkpt>
      <trkpt lat="39.70031" lon="-0.26349">
        <ele>39.7</ele>
      </trkpt>
      <trkpt lat="39.70052" lon="-0.26342">
        <ele>38.9</ele>
      </trkpt>
      <trkpt lat="39.70087" lon="-0.26335">
        <ele>39.1</ele>
      </trkpt>
      <trkpt lat="39.70095" lon="-0.26331">
        <ele>38.9</ele>
      </trkpt>
      <trkpt lat="39.70105" lon="-0.26319">
        <ele>38.8</ele>
      </trkpt>
      <trkpt lat="39.7011" lon="-0.26306">
        <ele>38.9</ele>
      </trkpt>
      <trkpt lat="39.70112" lon="-0.26294">
        <ele>38.6</ele>
      </trkpt>
      <trkpt lat="39.7011" lon="-0.26277">
        <ele>37.9</ele>
      </trkpt>
      <trkpt lat="39.70093" lon="-0.26196">
        <ele>34.4</ele>
      </trkpt>
      <trkpt lat="39.70083" lon="-0.26179">
        <ele>34</ele>
      </trkpt>
      <trkpt lat="39.70081" lon="-0.26172">
        <ele>34</ele>
      </trkpt>
      <trkpt lat="39.70073" lon="-0.26151">
        <ele>34.4</ele>
      </trkpt>
      <trkpt lat="39.70069" lon="-0.26146">
        <ele>34.4</ele>
      </trkpt>
      <trkpt lat="39.70065" lon="-0.26131">
        <ele>34.2</ele>
      </trkpt>
      <trkpt lat="39.70067" lon="-0.26116">
        <ele>33.9</ele>
      </trkpt>
      <trkpt lat="39.70072" lon="-0.26109">
        <ele>34</ele>
      </trkpt>
      <trkpt lat="39.70077" lon="-0.26104">
        <ele>33.9</ele>
      </trkpt>
      <trkpt lat="39.70084" lon="-0.26101">
        <ele>33.9</ele>
      </trkpt>
      <trkpt lat="39.70091" lon="-0.26102">
        <ele>33.7</ele>
      </trkpt>
      <trkpt lat="39.70097" lon="-0.26105">
        <ele>33.8</ele>
      </trkpt>
      <trkpt lat="39.70103" lon="-0.2611">
        <ele>34.2</ele>
      </trkpt>
      <trkpt lat="39.70106" lon="-0.26117">
        <ele>34.2</ele>
      </trkpt>
      <trkpt lat="39.70133" lon="-0.2613">
        <ele>34.5</ele>
      </trkpt>
      <trkpt lat="39.7016" lon="-0.26134">
        <ele>40.1</ele>
      </trkpt>
      <trkpt lat="39.70195" lon="-0.26132">
        <ele>35.3</ele>
      </trkpt>
      <trkpt lat="39.70238" lon="-0.26123">
        <ele>35.2</ele>
      </trkpt>
      <trkpt lat="39.70261" lon="-0.26112">
        <ele>35.4</ele>
      </trkpt>
      <trkpt lat="39.7031" lon="-0.26081">
        <ele>35.8</ele>
      </trkpt>
      <trkpt lat="39.70326" lon="-0.26075">
        <ele>35.5</ele>
      </trkpt>
      <trkpt lat="39.70357" lon="-0.26069">
        <ele>35.9</ele>
      </trkpt>
      <trkpt lat="39.70376" lon="-0.26057">
        <ele>36.1</ele>
      </trkpt>
      <trkpt lat="39.7038" lon="-0.26048">
        <ele>35.6</ele>
      </trkpt>
      <trkpt lat="39.70388" lon="-0.26034">
        <ele>35.2</ele>
      </trkpt>
      <trkpt lat="39.704" lon="-0.26023">
        <ele>34.8</ele>
      </trkpt>
      <trkpt lat="39.70413" lon="-0.26017">
        <ele>34.6</ele>
      </trkpt>
      <trkpt lat="39.70433" lon="-0.26018">
        <ele>37</ele>
      </trkpt>
      <trkpt lat="39.70451" lon="-0.26029">
        <ele>38.9</ele>
      </trkpt>
      <trkpt lat="39.70464" lon="-0.26048">
        <ele>36.4</ele>
      </trkpt>
      <trkpt lat="39.7047" lon="-0.26073">
        <ele>35</ele>
      </trkpt>
      <trkpt lat="39.7047" lon="-0.26084">
        <ele>35.2</ele>
      </trkpt>
      <trkpt lat="39.70481" lon="-0.261">
        <ele>35.6</ele>
      </trkpt>
      <trkpt lat="39.7049" lon="-0.26108">
        <ele>35.9</ele>
      </trkpt>
      <trkpt lat="39.70517" lon="-0.26124">
        <ele>36.5</ele>
      </trkpt>
      <trkpt lat="39.70532" lon="-0.26134">
        <ele>36.8</ele>
      </trkpt>
      <trkpt lat="39.70547" lon="-0.26137">
        <ele>36.9</ele>
      </trkpt>
      <trkpt lat="39.70561" lon="-0.26137">
        <ele>36.9</ele>
      </trkpt>
      <trkpt lat="39.7061" lon="-0.26126">
        <ele>36.5</ele>
      </trkpt>
      <trkpt lat="39.70752" lon="-0.2611">
        <ele>36</ele>
      </trkpt>
      <trkpt lat="39.70806" lon="-0.26073">
        <ele>35.3</ele>
      </trkpt>
      <trkpt lat="39.70821" lon="-0.26066">
        <ele>35.1</ele>
      </trkpt>
      <trkpt lat="39.70844" lon="-0.26059">
        <ele>35.1</ele>
      </trkpt>
      <trkpt lat="39.70966" lon="-0.26045">
        <ele>34.1</ele>
      </trkpt>
      <trkpt lat="39.70989" lon="-0.26015">
        <ele>32.2</ele>
      </trkpt>
      <trkpt lat="39.71044" lon="-0.25979">
        <ele>31.7</ele>
      </trkpt>
      <trkpt lat="39.71047" lon="-0.25979">
        <ele>31.8</ele>
      </trkpt>
      <trkpt lat="39.71107" lon="-0.25969">
        <ele>31</ele>
      </trkpt>
      <trkpt lat="39.71115" lon="-0.25964">
        <ele>30.9</ele>
      </trkpt>
      <trkpt lat="39.7122" lon="-0.25888">
        <ele>28.1</ele>
      </trkpt>
      <trkpt lat="39.71228" lon="-0.2588">
        <ele>27.7</ele>
      </trkpt>
      <trkpt lat="39.71243" lon="-0.25859">
        <ele>26.9</ele>
      </trkpt>
      <trkpt lat="39.71273" lon="-0.25833">
        <ele>26</ele>
      </trkpt>
      <trkpt lat="39.71339" lon="-0.25794">
        <ele>23.5</ele>
      </trkpt>
      <trkpt lat="39.71374" lon="-0.25778">
        <ele>22</ele>
      </trkpt>
      <trkpt lat="39.71452" lon="-0.25736">
        <ele>20.5</ele>
      </trkpt>
      <trkpt lat="39.71486" lon="-0.25722">
        <ele>20</ele>
      </trkpt>
      <trkpt lat="39.71512" lon="-0.25711">
        <ele>19.8</ele>
      </trkpt>
      <trkpt lat="39.7152" lon="-0.25705">
        <ele>19.6</ele>
      </trkpt>
      <trkpt lat="39.71577" lon="-0.2568">
        <ele>19.9</ele>
      </trkpt>
      <trkpt lat="39.7161" lon="-0.25669">
        <ele>20</ele>
      </trkpt>
      <trkpt lat="39.71609" lon="-0.25653">
        <ele>19.4</ele>
      </trkpt>
      <trkpt lat="39.71614" lon="-0.25647">
        <ele>19.3</ele>
      </trkpt>
      <trkpt lat="39.71642" lon="-0.25628">
        <ele>18.6</ele>
      </trkpt>
      <trkpt lat="39.7169" lon="-0.25604">
        <ele>17.8</ele>
      </trkpt>
      <trkpt lat="39.71793" lon="-0.25589">
        <ele>17.2</ele>
      </trkpt>
      <trkpt lat="39.71838" lon="-0.2558">
        <ele>17.9</ele>
      </trkpt>
      <trkpt lat="39.71886" lon="-0.25567">
        <ele>17.4</ele>
      </trkpt>
      <trkpt lat="39.71926" lon="-0.25549">
        <ele>16.8</ele>
      </trkpt>
      <trkpt lat="39.71967" lon="-0.25534">
        <ele>16.4</ele>
      </trkpt>
      <trkpt lat="39.72002" lon="-0.2553">
        <ele>17.1</ele>
      </trkpt>
      <trkpt lat="39.7206" lon="-0.25542">
        <ele>17</ele>
      </trkpt>
      <trkpt lat="39.72101" lon="-0.25532">
        <ele>16.2</ele>
      </trkpt>
      <trkpt lat="39.72117" lon="-0.25522">
        <ele>16.2</ele>
      </trkpt>
      <trkpt lat="39.72176" lon="-0.25514">
        <ele>16.5</ele>
      </trkpt>
      <trkpt lat="39.72202" lon="-0.25509">
        <ele>16.5</ele>
      </trkpt>
      <trkpt lat="39.72231" lon="-0.25498">
        <ele>16.9</ele>
      </trkpt>
      <trkpt lat="39.72267" lon="-0.25488">
        <ele>16.6</ele>
      </trkpt>
      <trkpt lat="39.72362" lon="-0.25467">
        <ele>17</ele>
      </trkpt>
      <trkpt lat="39.72408" lon="-0.25461">
        <ele>17.7</ele>
      </trkpt>
      <trkpt lat="39.72449" lon="-0.25459">
        <ele>18</ele>
      </trkpt>
      <trkpt lat="39.72459" lon="-0.25455">
        <ele>18</ele>
      </trkpt>
      <trkpt lat="39.7247" lon="-0.25445">
        <ele>18</ele>
      </trkpt>
      <trkpt lat="39.72474" lon="-0.25442">
        <ele>18.1</ele>
      </trkpt>
      <trkpt lat="39.72484" lon="-0.25431">
        <ele>18.4</ele>
      </trkpt>
      <trkpt lat="39.7249" lon="-0.25416">
        <ele>18.6</ele>
      </trkpt>
      <trkpt lat="39.72489" lon="-0.25402">
        <ele>18.3</ele>
      </trkpt>
      <trkpt lat="39.72493" lon="-0.25389">
        <ele>18</ele>
      </trkpt>
      <trkpt lat="39.72502" lon="-0.2538">
        <ele>18</ele>
      </trkpt>
      <trkpt lat="39.72508" lon="-0.25378">
        <ele>18.2</ele>
      </trkpt>
      <trkpt lat="39.72515" lon="-0.25378">
        <ele>18.3</ele>
      </trkpt>
      <trkpt lat="39.72521" lon="-0.25381">
        <ele>18.5</ele>
      </trkpt>
      <trkpt lat="39.72526" lon="-0.25369">
        <ele>18.3</ele>
      </trkpt>
      <trkpt lat="39.72528" lon="-0.25363">
        <ele>18.1</ele>
      </trkpt>
      <trkpt lat="39.72532" lon="-0.25358">
        <ele>18.1</ele>
      </trkpt>
      <trkpt lat="39.72542" lon="-0.25352">
        <ele>18.3</ele>
      </trkpt>
      <trkpt lat="39.72546" lon="-0.25354">
        <ele>18.5</ele>
      </trkpt>
      <trkpt lat="39.72555" lon="-0.25363">
        <ele>19</ele>
      </trkpt>
      <trkpt lat="39.72571" lon="-0.25388">
        <ele>19</ele>
      </trkpt>
      <trkpt lat="39.72583" lon="-0.25393">
        <ele>19</ele>
      </trkpt>
      <trkpt lat="39.72608" lon="-0.25396">
        <ele>19.2</ele>
      </trkpt>
      <trkpt lat="39.72627" lon="-0.25393">
        <ele>19.6</ele>
      </trkpt>
      <trkpt lat="39.72687" lon="-0.25365">
        <ele>19.3</ele>
      </trkpt>
      <trkpt lat="39.72723" lon="-0.2536">
        <ele>19</ele>
      </trkpt>
      <trkpt lat="39.72741" lon="-0.2535">
        <ele>19.4</ele>
      </trkpt>
      <trkpt lat="39.72753" lon="-0.25336">
        <ele>19.2</ele>
      </trkpt>
      <trkpt lat="39.7277" lon="-0.25321">
        <ele>19</ele>
      </trkpt>
      <trkpt lat="39.72791" lon="-0.2531">
        <ele>18.7</ele>
      </trkpt>
      <trkpt lat="39.72808" lon="-0.25311">
        <ele>19.1</ele>
      </trkpt>
      <trkpt lat="39.72816" lon="-0.25314">
        <ele>19</ele>
      </trkpt>
      <trkpt lat="39.72854" lon="-0.2534">
        <ele>19.4</ele>
      </trkpt>
      <trkpt lat="39.72879" lon="-0.25353">
        <ele>19.7</ele>
      </trkpt>
      <trkpt lat="39.72896" lon="-0.25357">
        <ele>19.9</ele>
      </trkpt>
      <trkpt lat="39.72913" lon="-0.25358">
        <ele>19.9</ele>
      </trkpt>
      <trkpt lat="39.7294" lon="-0.25347">
        <ele>19.5</ele>
      </trkpt>
      <trkpt lat="39.72982" lon="-0.25323">
        <ele>19.2</ele>
      </trkpt>
      <trkpt lat="39.72994" lon="-0.25305">
        <ele>18.8</ele>
      </trkpt>
      <trkpt lat="39.73006" lon="-0.25293">
        <ele>18.5</ele>
      </trkpt>
      <trkpt lat="39.73093" lon="-0.25234">
        <ele>17.6</ele>
      </trkpt>
      <trkpt lat="39.73109" lon="-0.25227">
        <ele>17.9</ele>
      </trkpt>
      <trkpt lat="39.73135" lon="-0.25208">
        <ele>17.5</ele>
      </trkpt>
      <trkpt lat="39.73151" lon="-0.25204">
        <ele>17.6</ele>
      </trkpt>
      <trkpt lat="39.73172" lon="-0.25192">
        <ele>17.7</ele>
      </trkpt>
      <trkpt lat="39.73186" lon="-0.25206">
        <ele>17.6</ele>
      </trkpt>
      <trkpt lat="39.73211" lon="-0.25228">
        <ele>18</ele>
      </trkpt>
      <trkpt lat="39.73221" lon="-0.25197">
        <ele>17.1</ele>
      </trkpt>
      <trkpt lat="39.73229" lon="-0.25188">
        <ele>17.4</ele>
      </trkpt>
      <trkpt lat="39.73397" lon="-0.25115">
        <ele>20.4</ele>
      </trkpt>
      <trkpt lat="39.73449" lon="-0.25082">
        <ele>21</ele>
      </trkpt>
      <trkpt lat="39.73481" lon="-0.25071">
        <ele>21.2</ele>
      </trkpt>
      <trkpt lat="39.73503" lon="-0.2506">
        <ele>21.3</ele>
      </trkpt>
      <trkpt lat="39.7355" lon="-0.25026">
        <ele>21.8</ele>
      </trkpt>
      <trkpt lat="39.7359" lon="-0.24993">
        <ele>22.2</ele>
      </trkpt>
      <trkpt lat="39.73673" lon="-0.24945">
        <ele>23.2</ele>
      </trkpt>
      <trkpt lat="39.73692" lon="-0.24932">
        <ele>23.1</ele>
      </trkpt>
      <trkpt lat="39.73709" lon="-0.24916">
        <ele>23</ele>
      </trkpt>
      <trkpt lat="39.73753" lon="-0.24849">
        <ele>22.6</ele>
      </trkpt>
      <trkpt lat="39.73779" lon="-0.24817">
        <ele>22.4</ele>
      </trkpt>
      <trkpt lat="39.73802" lon="-0.248">
        <ele>22.7</ele>
      </trkpt>
      <trkpt lat="39.73819" lon="-0.24794">
        <ele>22.3</ele>
      </trkpt>
      <trkpt lat="39.73876" lon="-0.24771">
        <ele>22.8</ele>
      </trkpt>
      <trkpt lat="39.73914" lon="-0.2475">
        <ele>22.9</ele>
      </trkpt>
      <trkpt lat="39.73972" lon="-0.24729">
        <ele>23</ele>
      </trkpt>
      <trkpt lat="39.73986" lon="-0.24726">
        <ele>23.1</ele>
      </trkpt>
      <trkpt lat="39.74003" lon="-0.24727">
        <ele>23.2</ele>
      </trkpt>
      <trkpt lat="39.74023" lon="-0.24729">
        <ele>23.2</ele>
      </trkpt>
      <trkpt lat="39.74053" lon="-0.24738">
        <ele>23.6</ele>
      </trkpt>
      <trkpt lat="39.74061" lon="-0.24737">
        <ele>23.6</ele>
      </trkpt>
      <trkpt lat="39.74072" lon="-0.24731">
        <ele>23.7</ele>
      </trkpt>
      <trkpt lat="39.74139" lon="-0.24701">
        <ele>24.2</ele>
      </trkpt>
      <trkpt lat="39.7415" lon="-0.24692">
        <ele>24.4</ele>
      </trkpt>
      <trkpt lat="39.74178" lon="-0.24661">
        <ele>24</ele>
      </trkpt>
      <trkpt lat="39.74261" lon="-0.2461">
        <ele>22.5</ele>
      </trkpt>
      <trkpt lat="39.74265" lon="-0.24606">
        <ele>22.2</ele>
      </trkpt>
      <trkpt lat="39.74266" lon="-0.246">
        <ele>21.8</ele>
      </trkpt>
      <trkpt lat="39.74245" lon="-0.24542">
        <ele>21.1</ele>
      </trkpt>
      <trkpt lat="39.74248" lon="-0.24531">
        <ele>21.7</ele>
      </trkpt>
      <trkpt lat="39.74252" lon="-0.24524">
        <ele>22.2</ele>
      </trkpt>
      <trkpt lat="39.74282" lon="-0.24566">
        <ele>22</ele>
      </trkpt>
      <trkpt lat="39.74362" lon="-0.24507">
        <ele>22</ele>
      </trkpt>
      <trkpt lat="39.74425" lon="-0.24452">
        <ele>21</ele>
      </trkpt>
      <trkpt lat="39.74458" lon="-0.24419">
        <ele>20.5</ele>
      </trkpt>
      <trkpt lat="39.74482" lon="-0.24383">
        <ele>19.9</ele>
      </trkpt>
      <trkpt lat="39.74528" lon="-0.24324">
        <ele>19.7</ele>
      </trkpt>
      <trkpt lat="39.74589" lon="-0.24294">
        <ele>19</ele>
      </trkpt>
      <trkpt lat="39.74662" lon="-0.2425">
        <ele>18.8</ele>
      </trkpt>
      <trkpt lat="39.74685" lon="-0.24222">
        <ele>18.7</ele>
      </trkpt>
      <trkpt lat="39.74709" lon="-0.24208">
        <ele>18.5</ele>
      </trkpt>
      <trkpt lat="39.74916" lon="-0.24148">
        <ele>19.3</ele>
      </trkpt>
      <trkpt lat="39.7496" lon="-0.24148">
        <ele>19.7</ele>
      </trkpt>
      <trkpt lat="39.74978" lon="-0.24151">
        <ele>20.1</ele>
      </trkpt>
      <trkpt lat="39.74995" lon="-0.24132">
        <ele>20</ele>
      </trkpt>
      <trkpt lat="39.75002" lon="-0.24116">
        <ele>20</ele>
      </trkpt>
      <trkpt lat="39.75034" lon="-0.23988">
        <ele>19</ele>
      </trkpt>
      <trkpt lat="39.75035" lon="-0.23968">
        <ele>19</ele>
      </trkpt>
      <trkpt lat="39.75022" lon="-0.23852">
        <ele>18.9</ele>
      </trkpt>
      <trkpt lat="39.75017" lon="-0.23802">
        <ele>18.6</ele>
      </trkpt>
      <trkpt lat="39.75011" lon="-0.23774">
        <ele>18.5</ele>
      </trkpt>
      <trkpt lat="39.74995" lon="-0.2373">
        <ele>18.8</ele>
      </trkpt>
      <trkpt lat="39.74991" lon="-0.23713">
        <ele>18.7</ele>
      </trkpt>
      <trkpt lat="39.7499" lon="-0.23649">
        <ele>18.2</ele>
      </trkpt>
      <trkpt lat="39.74998" lon="-0.23602">
        <ele>18</ele>
      </trkpt>
      <trkpt lat="39.74999" lon="-0.23579">
        <ele>18.6</ele>
      </trkpt>
      <trkpt lat="39.75011" lon="-0.23503">
        <ele>17.8</ele>
      </trkpt>
      <trkpt lat="39.75017" lon="-0.2346">
        <ele>17.6</ele>
      </trkpt>
      <trkpt lat="39.75023" lon="-0.23449">
        <ele>17.8</ele>
      </trkpt>
      <trkpt lat="39.75072" lon="-0.2341">
        <ele>17.7</ele>
      </trkpt>
      <trkpt lat="39.75082" lon="-0.23395">
        <ele>18.7</ele>
      </trkpt>
      <trkpt lat="39.75095" lon="-0.23354">
        <ele>22.1</ele>
      </trkpt>
      <trkpt lat="39.75076" lon="-0.23328">
        <ele>23</ele>
      </trkpt>
      <trkpt lat="39.7506" lon="-0.23301">
        <ele>22.4</ele>
      </trkpt>
      <trkpt lat="39.7505" lon="-0.23278">
        <ele>21.6</ele>
      </trkpt>
      <trkpt lat="39.75046" lon="-0.23258">
        <ele>20.8</ele>
      </trkpt>
      <trkpt lat="39.75047" lon="-0.23241">
        <ele>20.3</ele>
      </trkpt>
      <trkpt lat="39.75057" lon="-0.23208">
        <ele>20.1</ele>
      </trkpt>
      <trkpt lat="39.75094" lon="-0.23077">
        <ele>18.3</ele>
      </trkpt>
      <trkpt lat="39.7509" lon="-0.23074">
        <ele>18.2</ele>
      </trkpt>
      <trkpt lat="39.75086" lon="-0.23069">
        <ele>18</ele>
      </trkpt>
      <trkpt lat="39.75085" lon="-0.23063">
        <ele>18</ele>
      </trkpt>
      <trkpt lat="39.75085" lon="-0.23056">
        <ele>18</ele>
      </trkpt>
      <trkpt lat="39.75087" lon="-0.23051">
        <ele>17.9</ele>
      </trkpt>
      <trkpt lat="39.75091" lon="-0.23046">
        <ele>17.8</ele>
      </trkpt>
      <trkpt lat="39.75095" lon="-0.23044">
        <ele>17.8</ele>
      </trkpt>
      <trkpt lat="39.75104" lon="-0.23046">
        <ele>17.9</ele>
      </trkpt>
      <trkpt lat="39.75127" lon="-0.22983">
        <ele>19.5</ele>
      </trkpt>
      <trkpt lat="39.75151" lon="-0.22924">
        <ele>19.8</ele>
      </trkpt>
      <trkpt lat="39.75165" lon="-0.22888">
        <ele>18.9</ele>
      </trkpt>
      <trkpt lat="39.75183" lon="-0.22857">
        <ele>19</ele>
      </trkpt>
      <trkpt lat="39.75194" lon="-0.22837">
        <ele>19</ele>
      </trkpt>
      <trkpt lat="39.75211" lon="-0.22807">
        <ele>19</ele>
      </trkpt>
      <trkpt lat="39.75209" lon="-0.22807">
        <ele>19</ele>
      </trkpt>
      <trkpt lat="39.75203" lon="-0.228">
        <ele>19</ele>
      </trkpt>
      <trkpt lat="39.752" lon="-0.22792">
        <ele>19</ele>
      </trkpt>
      <trkpt lat="39.75225" lon="-0.22794">
        <ele>19.1</ele>
      </trkpt>
      <trkpt lat="39.75234" lon="-0.22795">
        <ele>19.3</ele>
      </trkpt>
      <trkpt lat="39.75258" lon="-0.22797">
        <ele>19.8</ele>
      </trkpt>
      <trkpt lat="39.7537" lon="-0.22807">
        <ele>22.3</ele>
      </trkpt>
      <trkpt lat="39.75402" lon="-0.2281">
        <ele>23.4</ele>
      </trkpt>
      <trkpt lat="39.75408" lon="-0.2281">
        <ele>23.6</ele>
      </trkpt>
      <trkpt lat="39.75437" lon="-0.22813">
        <ele>24.7</ele>
      </trkpt>
      <trkpt lat="39.75443" lon="-0.22813">
        <ele>24.9</ele>
      </trkpt>
      <trkpt lat="39.75504" lon="-0.22813">
        <ele>28.1</ele>
      </trkpt>
      <trkpt lat="39.75515" lon="-0.22811">
        <ele>29</ele>
      </trkpt>
      <trkpt lat="39.75555" lon="-0.22794">
        <ele>30.6</ele>
      </trkpt>
      <trkpt lat="39.75628" lon="-0.22764">
        <ele>36.6</ele>
      </trkpt>
      <trkpt lat="39.75757" lon="-0.22718">
        <ele>50.1</ele>
      </trkpt>
      <trkpt lat="39.75776" lon="-0.22715">
        <ele>53</ele>
      </trkpt>
      <trkpt lat="39.75794" lon="-0.22717">
        <ele>51.4</ele>
      </trkpt>
      <trkpt lat="39.75847" lon="-0.22741">
        <ele>49</ele>
      </trkpt>
      <trkpt lat="39.75889" lon="-0.22754">
        <ele>45</ele>
      </trkpt>
      <trkpt lat="39.759" lon="-0.22758">
        <ele>44.5</ele>
      </trkpt>
      <trkpt lat="39.76153" lon="-0.22836">
        <ele>31</ele>
      </trkpt>
      <trkpt lat="39.76266" lon="-0.22873">
        <ele>31.2</ele>
      </trkpt>
      <trkpt lat="39.76435" lon="-0.22927">
        <ele>35.4</ele>
      </trkpt>
      <trkpt lat="39.76556" lon="-0.22966">
        <ele>37</ele>
      </trkpt>
      <trkpt lat="39.76584" lon="-0.22972">
        <ele>38</ele>
      </trkpt>
      <trkpt lat="39.76623" lon="-0.22973">
        <ele>38</ele>
      </trkpt>
      <trkpt lat="39.7663" lon="-0.22971">
        <ele>38</ele>
      </trkpt>
      <trkpt lat="39.7666" lon="-0.22965">
        <ele>37.9</ele>
      </trkpt>
      <trkpt lat="39.76678" lon="-0.22957">
        <ele>38.5</ele>
      </trkpt>
      <trkpt lat="39.76838" lon="-0.22861">
        <ele>42</ele>
      </trkpt>
      <trkpt lat="39.76861" lon="-0.22852">
        <ele>42</ele>
      </trkpt>
      <trkpt lat="39.76926" lon="-0.22841">
        <ele>41</ele>
      </trkpt>
      <trkpt lat="39.76964" lon="-0.22833">
        <ele>40.3</ele>
      </trkpt>
      <trkpt lat="39.76979" lon="-0.22825">
        <ele>40</ele>
      </trkpt>
      <trkpt lat="39.77045" lon="-0.2277">
        <ele>36.3</ele>
      </trkpt>
      <trkpt lat="39.77085" lon="-0.2275">
        <ele>35.1</ele>
      </trkpt>
      <trkpt lat="39.77124" lon="-0.22734">
        <ele>35</ele>
      </trkpt>
      <trkpt lat="39.77188" lon="-0.22718">
        <ele>35</ele>
      </trkpt>
      <trkpt lat="39.77206" lon="-0.2271">
        <ele>35.6</ele>
      </trkpt>
      <trkpt lat="39.77237" lon="-0.22685">
        <ele>37.2</ele>
      </trkpt>
      <trkpt lat="39.77249" lon="-0.22679">
        <ele>37.9</ele>
      </trkpt>
      <trkpt lat="39.77263" lon="-0.22678">
        <ele>38.5</ele>
      </trkpt>
      <trkpt lat="39.77273" lon="-0.2268">
        <ele>38.8</ele>
      </trkpt>
      <trkpt lat="39.77285" lon="-0.22686">
        <ele>39</ele>
      </trkpt>
      <trkpt lat="39.77294" lon="-0.22684">
        <ele>39</ele>
      </trkpt>
      <trkpt lat="39.77302" lon="-0.22672">
        <ele>39</ele>
      </trkpt>
      <trkpt lat="39.77309" lon="-0.22665">
        <ele>38.9</ele>
      </trkpt>
      <trkpt lat="39.77319" lon="-0.22658">
        <ele>39</ele>
      </trkpt>
      <trkpt lat="39.77328" lon="-0.22655">
        <ele>39</ele>
      </trkpt>
      <trkpt lat="39.7734" lon="-0.22654">
        <ele>39.2</ele>
      </trkpt>
      <trkpt lat="39.77481" lon="-0.22699">
        <ele>40.9</ele>
      </trkpt>
      <trkpt lat="39.77508" lon="-0.22705">
        <ele>41.1</ele>
      </trkpt>
      <trkpt lat="39.7754" lon="-0.22708">
        <ele>41.2</ele>
      </trkpt>
      <trkpt lat="39.77601" lon="-0.22707">
        <ele>43</ele>
      </trkpt>
      <trkpt lat="39.77611" lon="-0.22706">
        <ele>43.6</ele>
      </trkpt>
      <trkpt lat="39.7762" lon="-0.22705">
        <ele>43.9</ele>
      </trkpt>
      <trkpt lat="39.7784" lon="-0.22714">
        <ele>48.7</ele>
      </trkpt>
      <trkpt lat="39.77864" lon="-0.22718">
        <ele>49</ele>
      </trkpt>
      <trkpt lat="39.77891" lon="-0.22725">
        <ele>50.2</ele>
      </trkpt>
      <trkpt lat="39.78218" lon="-0.22838">
        <ele>59.6</ele>
      </trkpt>
      <trkpt lat="39.78243" lon="-0.22839">
        <ele>60.4</ele>
      </trkpt>
      <trkpt lat="39.78688" lon="-0.2277">
        <ele>74.5</ele>
      </trkpt>
      <trkpt lat="39.78718" lon="-0.2276">
        <ele>75.8</ele>
      </trkpt>
      <trkpt lat="39.78826" lon="-0.22711">
        <ele>79</ele>
      </trkpt>
      <trkpt lat="39.78876" lon="-0.22696">
        <ele>77.4</ele>
      </trkpt>
      <trkpt lat="39.78944" lon="-0.22677">
        <ele>76.1</ele>
      </trkpt>
      <trkpt lat="39.79079" lon="-0.22613">
        <ele>77</ele>
      </trkpt>
      <trkpt lat="39.79188" lon="-0.22573">
        <ele>80.2</ele>
      </trkpt>
      <trkpt lat="39.79198" lon="-0.22562">
        <ele>81.4</ele>
      </trkpt>
      <trkpt lat="39.79195" lon="-0.22516">
        <ele>82</ele>
      </trkpt>
      <trkpt lat="39.79203" lon="-0.22495">
        <ele>82.1</ele>
      </trkpt>
      <trkpt lat="39.79193" lon="-0.22434">
        <ele>82.9</ele>
      </trkpt>
      <trkpt lat="39.79185" lon="-0.22407">
        <ele>82.7</ele>
      </trkpt>
      <trkpt lat="39.7917" lon="-0.2237">
        <ele>81.5</ele>
      </trkpt>
      <trkpt lat="39.79177" lon="-0.22364">
        <ele>81.8</ele>
      </trkpt>
      <trkpt lat="39.79237" lon="-0.22335">
        <ele>84</ele>
      </trkpt>
      <trkpt lat="39.79299" lon="-0.22311">
        <ele>84</ele>
      </trkpt>
      <trkpt lat="39.79319" lon="-0.22308">
        <ele>83.5</ele>
      </trkpt>
      <trkpt lat="39.79363" lon="-0.22307">
        <ele>82</ele>
      </trkpt>
      <trkpt lat="39.79411" lon="-0.22309">
        <ele>81.2</ele>
      </trkpt>
      <trkpt lat="39.79434" lon="-0.22305">
        <ele>80.4</ele>
      </trkpt>
      <trkpt lat="39.79469" lon="-0.22279">
        <ele>79.1</ele>
      </trkpt>
      <trkpt lat="39.79537" lon="-0.22251">
        <ele>75.7</ele>
      </trkpt>
      <trkpt lat="39.79576" lon="-0.22242">
        <ele>74.3</ele>
      </trkpt>
      <trkpt lat="39.79584" lon="-0.22238">
        <ele>74</ele>
      </trkpt>
      <trkpt lat="39.79614" lon="-0.22209">
        <ele>73.5</ele>
      </trkpt>
      <trkpt lat="39.79661" lon="-0.22181">
        <ele>73</ele>
      </trkpt>
      <trkpt lat="39.79688" lon="-0.22154">
        <ele>73</ele>
      </trkpt>
      <trkpt lat="39.79757" lon="-0.22101">
        <ele>73</ele>
      </trkpt>
      <trkpt lat="39.79773" lon="-0.22096">
        <ele>73.7</ele>
      </trkpt>
      <trkpt lat="39.7977" lon="-0.22086">
        <ele>73.5</ele>
      </trkpt>
      <trkpt lat="39.7977" lon="-0.22075">
        <ele>73.2</ele>
      </trkpt>
      <trkpt lat="39.79772" lon="-0.22065">
        <ele>73.1</ele>
      </trkpt>
      <trkpt lat="39.79776" lon="-0.22057">
        <ele>73</ele>
      </trkpt>
      <trkpt lat="39.79782" lon="-0.2205">
        <ele>73</ele>
      </trkpt>
      <trkpt lat="39.79789" lon="-0.22045">
        <ele>72.8</ele>
      </trkpt>
      <trkpt lat="39.79794" lon="-0.22043">
        <ele>72.7</ele>
      </trkpt>
      <trkpt lat="39.79803" lon="-0.22044">
        <ele>72.6</ele>
      </trkpt>
      <trkpt lat="39.79811" lon="-0.22047">
        <ele>72.2</ele>
      </trkpt>
      <trkpt lat="39.79817" lon="-0.22054">
        <ele>71.8</ele>
      </trkpt>
      <trkpt lat="39.79823" lon="-0.22062">
        <ele>71.7</ele>
      </trkpt>
      <trkpt lat="39.79825" lon="-0.22073">
        <ele>72.6</ele>
      </trkpt>
      <trkpt lat="39.79835" lon="-0.22085">
        <ele>72.9</ele>
      </trkpt>
      <trkpt lat="39.7986" lon="-0.22104">
        <ele>71.8</ele>
      </trkpt>
      <trkpt lat="39.79987" lon="-0.2216">
        <ele>73.5</ele>
      </trkpt>
      <trkpt lat="39.80014" lon="-0.22165">
        <ele>73.9</ele>
      </trkpt>
      <trkpt lat="39.8009" lon="-0.22165">
        <ele>73.9</ele>
      </trkpt>
      <trkpt lat="39.80361" lon="-0.22184">
        <ele>75</ele>
      </trkpt>
      <trkpt lat="39.80385" lon="-0.22178">
        <ele>75.4</ele>
      </trkpt>
      <trkpt lat="39.80402" lon="-0.22171">
        <ele>75.6</ele>
      </trkpt>
      <trkpt lat="39.8041" lon="-0.22161">
        <ele>75.6</ele>
      </trkpt>
      <trkpt lat="39.80425" lon="-0.22157">
        <ele>75.4</ele>
      </trkpt>
      <trkpt lat="39.80438" lon="-0.22165">
        <ele>75.2</ele>
      </trkpt>
      <trkpt lat="39.80444" lon="-0.22176">
        <ele>75.3</ele>
      </trkpt>
      <trkpt lat="39.80459" lon="-0.22186">
        <ele>75.7</ele>
      </trkpt>
      <trkpt lat="39.80492" lon="-0.22204">
        <ele>77</ele>
      </trkpt>
      <trkpt lat="39.80509" lon="-0.22214">
        <ele>79.1</ele>
      </trkpt>
      <trkpt lat="39.80554" lon="-0.22252">
        <ele>76.1</ele>
      </trkpt>
      <trkpt lat="39.80618" lon="-0.22305">
        <ele>72.3</ele>
      </trkpt>
      <trkpt lat="39.80637" lon="-0.22321">
        <ele>72.2</ele>
      </trkpt>
      <trkpt lat="39.80768" lon="-0.22432">
        <ele>78.7</ele>
      </trkpt>
      <trkpt lat="39.80788" lon="-0.22446">
        <ele>79.1</ele>
      </trkpt>
      <trkpt lat="39.8079" lon="-0.22447">
        <ele>79.1</ele>
      </trkpt>
      <trkpt lat="39.80794" lon="-0.22451">
        <ele>79.2</ele>
      </trkpt>
      <trkpt lat="39.80797" lon="-0.22451">
        <ele>79.2</ele>
      </trkpt>
      <trkpt lat="39.80827" lon="-0.22476">
        <ele>80</ele>
      </trkpt>
      <trkpt lat="39.80865" lon="-0.22509">
        <ele>80.4</ele>
      </trkpt>
      <trkpt lat="39.80877" lon="-0.22518">
        <ele>80.8</ele>
      </trkpt>
      <trkpt lat="39.80883" lon="-0.22527">
        <ele>81</ele>
      </trkpt>
      <trkpt lat="39.8089" lon="-0.22527">
        <ele>81</ele>
      </trkpt>
      <trkpt lat="39.80895" lon="-0.22532">
        <ele>81</ele>
      </trkpt>
      <trkpt lat="39.80896" lon="-0.22536">
        <ele>81.1</ele>
      </trkpt>
      <trkpt lat="39.80906" lon="-0.22548">
        <ele>81.4</ele>
      </trkpt>
      <trkpt lat="39.81069" lon="-0.22684">
        <ele>85.5</ele>
      </trkpt>
      <trkpt lat="39.81077" lon="-0.22691">
        <ele>85.8</ele>
      </trkpt>
      <trkpt lat="39.8109" lon="-0.22696">
        <ele>86</ele>
      </trkpt>
      <trkpt lat="39.81102" lon="-0.22695">
        <ele>86</ele>
      </trkpt>
      <trkpt lat="39.81114" lon="-0.22692">
        <ele>86.1</ele>
      </trkpt>
      <trkpt lat="39.81127" lon="-0.22682">
        <ele>86.3</ele>
      </trkpt>
      <trkpt lat="39.81134" lon="-0.22673">
        <ele>86.2</ele>
      </trkpt>
      <trkpt lat="39.81138" lon="-0.22667">
        <ele>86</ele>
      </trkpt>
      <trkpt lat="39.81208" lon="-0.22529">
        <ele>85</ele>
      </trkpt>
      <trkpt lat="39.81216" lon="-0.22512">
        <ele>85</ele>
      </trkpt>
      <trkpt lat="39.81239" lon="-0.22467">
        <ele>82.9</ele>
      </trkpt>
      <trkpt lat="39.81306" lon="-0.22337">
        <ele>84.1</ele>
      </trkpt>
      <trkpt lat="39.81322" lon="-0.22304">
        <ele>84.2</ele>
      </trkpt>
      <trkpt lat="39.81406" lon="-0.22138">
        <ele>82.9</ele>
      </trkpt>
      <trkpt lat="39.81443" lon="-0.22066">
        <ele>83.9</ele>
      </trkpt>
      <trkpt lat="39.81563" lon="-0.21831">
        <ele>83.3</ele>
      </trkpt>
      <trkpt lat="39.81727" lon="-0.21507">
        <ele>82.2</ele>
      </trkpt>
      <trkpt lat="39.81755" lon="-0.21454">
        <ele>82.2</ele>
      </trkpt>
      <trkpt lat="39.81801" lon="-0.21365">
        <ele>81.1</ele>
      </trkpt>
      <trkpt lat="39.81817" lon="-0.21329">
        <ele>80.5</ele>
      </trkpt>
      <trkpt lat="39.81818" lon="-0.21311">
        <ele>80.8</ele>
      </trkpt>
      <trkpt lat="39.81814" lon="-0.21296">
        <ele>80.3</ele>
      </trkpt>
      <trkpt lat="39.81814" lon="-0.21284">
        <ele>79.8</ele>
      </trkpt>
      <trkpt lat="39.81817" lon="-0.21273">
        <ele>79.7</ele>
      </trkpt>
      <trkpt lat="39.81821" lon="-0.21265">
        <ele>79.6</ele>
      </trkpt>
      <trkpt lat="39.81827" lon="-0.21259">
        <ele>79.5</ele>
      </trkpt>
      <trkpt lat="39.81836" lon="-0.21255">
        <ele>79.3</ele>
      </trkpt>
      <trkpt lat="39.81845" lon="-0.21255">
        <ele>79.3</ele>
      </trkpt>
      <trkpt lat="39.81852" lon="-0.21257">
        <ele>79.3</ele>
      </trkpt>
      <trkpt lat="39.81871" lon="-0.21255">
        <ele>79.5</ele>
      </trkpt>
      <trkpt lat="39.81895" lon="-0.21237">
        <ele>79.8</ele>
      </trkpt>
      <trkpt lat="39.8191" lon="-0.21224">
        <ele>79.8</ele>
      </trkpt>
      <trkpt lat="39.82025" lon="-0.21137">
        <ele>78.8</ele>
      </trkpt>
      <trkpt lat="39.8207" lon="-0.2111">
        <ele>78.5</ele>
      </trkpt>
      <trkpt lat="39.82106" lon="-0.21094">
        <ele>77.6</ele>
      </trkpt>
      <trkpt lat="39.82147" lon="-0.21082">
        <ele>78</ele>
      </trkpt>
      <trkpt lat="39.82327" lon="-0.2106">
        <ele>77.1</ele>
      </trkpt>
      <trkpt lat="39.82357" lon="-0.21056">
        <ele>77</ele>
      </trkpt>
      <trkpt lat="39.82413" lon="-0.21049">
        <ele>73.8</ele>
      </trkpt>
      <trkpt lat="39.82443" lon="-0.21045">
        <ele>73.6</ele>
      </trkpt>
      <trkpt lat="39.82497" lon="-0.21039">
        <ele>78.3</ele>
      </trkpt>
      <trkpt lat="39.82528" lon="-0.21032">
        <ele>80.2</ele>
      </trkpt>
      <trkpt lat="39.82552" lon="-0.21022">
        <ele>80.4</ele>
      </trkpt>
      <trkpt lat="39.82559" lon="-0.21012">
        <ele>80.1</ele>
      </trkpt>
      <trkpt lat="39.82567" lon="-0.21007">
        <ele>80.3</ele>
      </trkpt>
      <trkpt lat="39.8258" lon="-0.21005">
        <ele>81.1</ele>
      </trkpt>
      <trkpt lat="39.82589" lon="-0.21009">
        <ele>81.6</ele>
      </trkpt>
      <trkpt lat="39.82608" lon="-0.2101">
        <ele>81.4</ele>
      </trkpt>
      <trkpt lat="39.82638" lon="-0.20991">
        <ele>80.7</ele>
      </trkpt>
      <trkpt lat="39.82878" lon="-0.20759">
        <ele>70.1</ele>
      </trkpt>
      <trkpt lat="39.829" lon="-0.20742">
        <ele>69.5</ele>
      </trkpt>
      <trkpt lat="39.82919" lon="-0.20734">
        <ele>69.5</ele>
      </trkpt>
      <trkpt lat="39.8294" lon="-0.20731">
        <ele>70.2</ele>
      </trkpt>
      <trkpt lat="39.82969" lon="-0.20735">
        <ele>70.9</ele>
      </trkpt>
      <trkpt lat="39.82989" lon="-0.20733">
        <ele>70.8</ele>
      </trkpt>
      <trkpt lat="39.83006" lon="-0.20723">
        <ele>70.3</ele>
      </trkpt>
      <trkpt lat="39.83016" lon="-0.20712">
        <ele>70.6</ele>
      </trkpt>
      <trkpt lat="39.83023" lon="-0.20698">
        <ele>70.8</ele>
      </trkpt>
      <trkpt lat="39.83025" lon="-0.20677">
        <ele>70.8</ele>
      </trkpt>
      <trkpt lat="39.83023" lon="-0.2066">
        <ele>70.3</ele>
      </trkpt>
      <trkpt lat="39.83014" lon="-0.20638">
        <ele>69.5</ele>
      </trkpt>
      <trkpt lat="39.83002" lon="-0.20626">
        <ele>69</ele>
      </trkpt>
      <trkpt lat="39.82992" lon="-0.20608">
        <ele>66.9</ele>
      </trkpt>
      <trkpt lat="39.82984" lon="-0.20583">
        <ele>61.6</ele>
      </trkpt>
      <trkpt lat="39.82983" lon="-0.20555">
        <ele>64.5</ele>
      </trkpt>
      <trkpt lat="39.82989" lon="-0.20528">
        <ele>65.6</ele>
      </trkpt>
      <trkpt lat="39.82996" lon="-0.20511">
        <ele>65.8</ele>
      </trkpt>
      <trkpt lat="39.83007" lon="-0.20497">
        <ele>65.1</ele>
      </trkpt>
      <trkpt lat="39.83019" lon="-0.20486">
        <ele>64.2</ele>
      </trkpt>
      <trkpt lat="39.83032" lon="-0.20478">
        <ele>64.9</ele>
      </trkpt>
      <trkpt lat="39.83055" lon="-0.20475">
        <ele>65.7</ele>
      </trkpt>
      <trkpt lat="39.83078" lon="-0.20482">
        <ele>64.2</ele>
      </trkpt>
      <trkpt lat="39.83089" lon="-0.2049">
        <ele>64.3</ele>
      </trkpt>
      <trkpt lat="39.83106" lon="-0.20511">
        <ele>65.3</ele>
      </trkpt>
      <trkpt lat="39.83116" lon="-0.20535">
        <ele>64.3</ele>
      </trkpt>
      <trkpt lat="39.8312" lon="-0.20562">
        <ele>63.9</ele>
      </trkpt>
      <trkpt lat="39.83119" lon="-0.20579">
        <ele>67.3</ele>
      </trkpt>
      <trkpt lat="39.83115" lon="-0.20596">
        <ele>69.1</ele>
      </trkpt>
      <trkpt lat="39.83111" lon="-0.20608">
        <ele>69.9</ele>
      </trkpt>
      <trkpt lat="39.83115" lon="-0.20623">
        <ele>69.8</ele>
      </trkpt>
      <trkpt lat="39.83121" lon="-0.20633">
        <ele>69.8</ele>
      </trkpt>
      <trkpt lat="39.83133" lon="-0.20643">
        <ele>70.4</ele>
      </trkpt>
      <trkpt lat="39.83141" lon="-0.20643">
        <ele>70.4</ele>
      </trkpt>
      <trkpt lat="39.83155" lon="-0.20639">
        <ele>70</ele>
      </trkpt>
      <trkpt lat="39.83165" lon="-0.20633">
        <ele>69.6</ele>
      </trkpt>
      <trkpt lat="39.83176" lon="-0.20622">
        <ele>69.3</ele>
      </trkpt>
      <trkpt lat="39.83186" lon="-0.20608">
        <ele>68.5</ele>
      </trkpt>
      <trkpt lat="39.83196" lon="-0.20591">
        <ele>68.2</ele>
      </trkpt>
      <trkpt lat="39.83236" lon="-0.20523">
        <ele>62.8</ele>
      </trkpt>
      <trkpt lat="39.83266" lon="-0.20475">
        <ele>60.5</ele>
      </trkpt>
      <trkpt lat="39.83293" lon="-0.20444">
        <ele>59.9</ele>
      </trkpt>
      <trkpt lat="39.83313" lon="-0.20426">
        <ele>59.8</ele>
      </trkpt>
      <trkpt lat="39.83335" lon="-0.20409">
        <ele>60</ele>
      </trkpt>
      <trkpt lat="39.83443" lon="-0.20336">
        <ele>61</ele>
      </trkpt>
      <trkpt lat="39.83448" lon="-0.20332">
        <ele>61.1</ele>
      </trkpt>
      <trkpt lat="39.83654" lon="-0.20193">
        <ele>61.5</ele>
      </trkpt>
      <trkpt lat="39.83661" lon="-0.20188">
        <ele>61.6</ele>
      </trkpt>
      <trkpt lat="39.83723" lon="-0.20145">
        <ele>61.2</ele>
      </trkpt>
      <trkpt lat="39.84207" lon="-0.19807">
        <ele>62.5</ele>
      </trkpt>
      <trkpt lat="39.84214" lon="-0.19802">
        <ele>62.7</ele>
      </trkpt>
      <trkpt lat="39.84312" lon="-0.19733">
        <ele>63.8</ele>
      </trkpt>
      <trkpt lat="39.84324" lon="-0.19724">
        <ele>63.1</ele>
      </trkpt>
      <trkpt lat="39.84338" lon="-0.1971">
        <ele>62.6</ele>
      </trkpt>
      <trkpt lat="39.84352" lon="-0.19685">
        <ele>62.7</ele>
      </trkpt>
      <trkpt lat="39.84449" lon="-0.19464">
        <ele>59.5</ele>
      </trkpt>
      <trkpt lat="39.84464" lon="-0.19434">
        <ele>58.6</ele>
      </trkpt>
      <trkpt lat="39.84478" lon="-0.19411">
        <ele>58.8</ele>
      </trkpt>
      <trkpt lat="39.84496" lon="-0.19388">
        <ele>58.8</ele>
      </trkpt>
      <trkpt lat="39.84585" lon="-0.19292">
        <ele>58.6</ele>
      </trkpt>
      <trkpt lat="39.84634" lon="-0.1924">
        <ele>57.5</ele>
      </trkpt>
      <trkpt lat="39.84717" lon="-0.19155">
        <ele>53.7</ele>
      </trkpt>
      <trkpt lat="39.84737" lon="-0.19137">
        <ele>52.3</ele>
      </trkpt>
      <trkpt lat="39.84749" lon="-0.19127">
        <ele>50.7</ele>
      </trkpt>
      <trkpt lat="39.84757" lon="-0.1912">
        <ele>50.8</ele>
      </trkpt>
      <trkpt lat="39.8479" lon="-0.19092">
        <ele>50.8</ele>
      </trkpt>
      <trkpt lat="39.84906" lon="-0.18988">
        <ele>49.1</ele>
      </trkpt>
      <trkpt lat="39.84913" lon="-0.18982">
        <ele>49</ele>
      </trkpt>
      <trkpt lat="39.84942" lon="-0.18956">
        <ele>48.4</ele>
      </trkpt>
      <trkpt lat="39.84972" lon="-0.18933">
        <ele>47.6</ele>
      </trkpt>
      <trkpt lat="39.84994" lon="-0.18918">
        <ele>47</ele>
      </trkpt>
      <trkpt lat="39.85023" lon="-0.18901">
        <ele>46.4</ele>
      </trkpt>
      <trkpt lat="39.85069" lon="-0.18875">
        <ele>44.5</ele>
      </trkpt>
      <trkpt lat="39.85082" lon="-0.18868">
        <ele>43.5</ele>
      </trkpt>
      <trkpt lat="39.85465" lon="-0.18655">
        <ele>38.1</ele>
      </trkpt>
      <trkpt lat="39.85472" lon="-0.18651">
        <ele>37.9</ele>
      </trkpt>
      <trkpt lat="39.85474" lon="-0.1865">
        <ele>37.9</ele>
      </trkpt>
      <trkpt lat="39.85515" lon="-0.18627">
        <ele>38</ele>
      </trkpt>
      <trkpt lat="39.85523" lon="-0.1862">
        <ele>37.7</ele>
      </trkpt>
      <trkpt lat="39.85531" lon="-0.18613">
        <ele>37.3</ele>
      </trkpt>
      <trkpt lat="39.85543" lon="-0.18592">
        <ele>36.5</ele>
      </trkpt>
      <trkpt lat="39.85545" lon="-0.18574">
        <ele>35.9</ele>
      </trkpt>
      <trkpt lat="39.85539" lon="-0.18562">
        <ele>35.5</ele>
      </trkpt>
      <trkpt lat="39.85539" lon="-0.18548">
        <ele>35</ele>
      </trkpt>
      <trkpt lat="39.85542" lon="-0.18539">
        <ele>34.6</ele>
      </trkpt>
      <trkpt lat="39.85548" lon="-0.18532">
        <ele>34.3</ele>
      </trkpt>
      <trkpt lat="39.85559" lon="-0.18527">
        <ele>33.8</ele>
      </trkpt>
      <trkpt lat="39.85571" lon="-0.18531">
        <ele>33.6</ele>
      </trkpt>
      <trkpt lat="39.85584" lon="-0.1853">
        <ele>33.1</ele>
      </trkpt>
      <trkpt lat="39.85597" lon="-0.18522">
        <ele>32.8</ele>
      </trkpt>
      <trkpt lat="39.85633" lon="-0.18454">
        <ele>31.3</ele>
      </trkpt>
      <trkpt lat="39.85648" lon="-0.18425">
        <ele>30.5</ele>
      </trkpt>
      <trkpt lat="39.85684" lon="-0.18357">
        <ele>30</ele>
      </trkpt>
      <trkpt lat="39.85704" lon="-0.1832">
        <ele>29.9</ele>
      </trkpt>
      <trkpt lat="39.8571" lon="-0.18309">
        <ele>29.7</ele>
      </trkpt>
      <trkpt lat="39.85723" lon="-0.18285">
        <ele>30</ele>
      </trkpt>
      <trkpt lat="39.85754" lon="-0.18227">
        <ele>29.3</ele>
      </trkpt>
      <trkpt lat="39.85779" lon="-0.1818">
        <ele>29</ele>
      </trkpt>
      <trkpt lat="39.85831" lon="-0.18083">
        <ele>28.9</ele>
      </trkpt>
      <trkpt lat="39.85871" lon="-0.18007">
        <ele>28.5</ele>
      </trkpt>
      <trkpt lat="39.85888" lon="-0.17975">
        <ele>29</ele>
      </trkpt>
      <trkpt lat="39.85899" lon="-0.17952">
        <ele>28.5</ele>
      </trkpt>
      <trkpt lat="39.859" lon="-0.17944">
        <ele>28.4</ele>
      </trkpt>
      <trkpt lat="39.85904" lon="-0.17938">
        <ele>28.5</ele>
      </trkpt>
      <trkpt lat="39.85909" lon="-0.17935">
        <ele>28.7</ele>
      </trkpt>
      <trkpt lat="39.85914" lon="-0.17935">
        <ele>28.9</ele>
      </trkpt>
      <trkpt lat="39.85919" lon="-0.17937">
        <ele>29</ele>
      </trkpt>
      <trkpt lat="39.85923" lon="-0.17943">
        <ele>29</ele>
      </trkpt>
      <trkpt lat="39.85924" lon="-0.17949">
        <ele>29</ele>
      </trkpt>
      <trkpt lat="39.85948" lon="-0.17982">
        <ele>29.3</ele>
      </trkpt>
      <trkpt lat="39.86106" lon="-0.18184">
        <ele>34.4</ele>
      </trkpt>
      <trkpt lat="39.86111" lon="-0.1819">
        <ele>34.8</ele>
      </trkpt>
      <trkpt lat="39.86113" lon="-0.18193">
        <ele>34.8</ele>
      </trkpt>
      <trkpt lat="39.86192" lon="-0.18294">
        <ele>36.1</ele>
      </trkpt>
      <trkpt lat="39.86214" lon="-0.18273">
        <ele>35</ele>
      </trkpt>
      <trkpt lat="39.86264" lon="-0.18239">
        <ele>35.6</ele>
      </trkpt>
      <trkpt lat="39.86341" lon="-0.1821">
        <ele>36.2</ele>
      </trkpt>
      <trkpt lat="39.86417" lon="-0.18176">
        <ele>37</ele>
      </trkpt>
      <trkpt lat="39.86442" lon="-0.18163">
        <ele>37.8</ele>
      </trkpt>
      <trkpt lat="39.86486" lon="-0.18135">
        <ele>37.4</ele>
      </trkpt>
      <trkpt lat="39.8665" lon="-0.1805">
        <ele>37.9</ele>
      </trkpt>
      <trkpt lat="39.86709" lon="-0.1803">
        <ele>38</ele>
      </trkpt>
      <trkpt lat="39.86715" lon="-0.18028">
        <ele>38</ele>
      </trkpt>
      <trkpt lat="39.86727" lon="-0.18026">
        <ele>38.2</ele>
      </trkpt>
      <trkpt lat="39.86745" lon="-0.18032">
        <ele>38.8</ele>
      </trkpt>
      <trkpt lat="39.86775" lon="-0.18046">
        <ele>40.5</ele>
      </trkpt>
      <trkpt lat="39.86798" lon="-0.18048">
        <ele>41.8</ele>
      </trkpt>
      <trkpt lat="39.86819" lon="-0.18042">
        <ele>40.5</ele>
      </trkpt>
      <trkpt lat="39.86875" lon="-0.18022">
        <ele>43.4</ele>
      </trkpt>
      <trkpt lat="39.86945" lon="-0.17997">
        <ele>40.8</ele>
      </trkpt>
      <trkpt lat="39.86937" lon="-0.17986">
        <ele>40.3</ele>
      </trkpt>
      <trkpt lat="39.86925" lon="-0.17982">
        <ele>40.4</ele>
      </trkpt>
      <trkpt lat="39.86905" lon="-0.17981">
        <ele>40.3</ele>
      </trkpt>
      <trkpt lat="39.86874" lon="-0.17987">
        <ele>40</ele>
      </trkpt>
      <trkpt lat="39.86864" lon="-0.17978">
        <ele>39.3</ele>
      </trkpt>
      <trkpt lat="39.86794" lon="-0.17816">
        <ele>36.4</ele>
      </trkpt>
      <trkpt lat="39.86763" lon="-0.17734">
        <ele>35.4</ele>
      </trkpt>
      <trkpt lat="39.86753" lon="-0.17713">
        <ele>35</ele>
      </trkpt>
      <trkpt lat="39.86792" lon="-0.17668">
        <ele>35</ele>
      </trkpt>
      <trkpt lat="39.86982" lon="-0.17474">
        <ele>34.1</ele>
      </trkpt>
      <trkpt lat="39.87016" lon="-0.17426">
        <ele>33.2</ele>
      </trkpt>
      <trkpt lat="39.87038" lon="-0.17408">
        <ele>32.9</ele>
      </trkpt>
      <trkpt lat="39.87064" lon="-0.17394">
        <ele>32.2</ele>
      </trkpt>
      <trkpt lat="39.87081" lon="-0.17394">
        <ele>32.2</ele>
      </trkpt>
      <trkpt lat="39.87102" lon="-0.17383">
        <ele>32.7</ele>
      </trkpt>
      <trkpt lat="39.87223" lon="-0.17286">
        <ele>34</ele>
      </trkpt>
      <trkpt lat="39.87272" lon="-0.17242">
        <ele>34.6</ele>
      </trkpt>
      <trkpt lat="39.8731" lon="-0.17208">
        <ele>35.1</ele>
      </trkpt>
      <trkpt lat="39.8737" lon="-0.17172">
        <ele>34.5</ele>
      </trkpt>
      <trkpt lat="39.87417" lon="-0.17142">
        <ele>34.1</ele>
      </trkpt>
      <trkpt lat="39.87446" lon="-0.17114">
        <ele>34.2</ele>
      </trkpt>
      <trkpt lat="39.87546" lon="-0.16984">
        <ele>34.3</ele>
      </trkpt>
      <trkpt lat="39.87574" lon="-0.16936">
        <ele>33.3</ele>
      </trkpt>
      <trkpt lat="39.87656" lon="-0.16812">
        <ele>34.1</ele>
      </trkpt>
      <trkpt lat="39.87628" lon="-0.16755">
        <ele>34</ele>
      </trkpt>
      <trkpt lat="39.87751" lon="-0.16593">
        <ele>33</ele>
      </trkpt>
      <trkpt lat="39.87819" lon="-0.1652">
        <ele>32.9</ele>
      </trkpt>
      <trkpt lat="39.87859" lon="-0.16451">
        <ele>32.9</ele>
      </trkpt>
      <trkpt lat="39.87926" lon="-0.16359">
        <ele>32.3</ele>
      </trkpt>
      <trkpt lat="39.87983" lon="-0.16302">
        <ele>32.4</ele>
      </trkpt>
      <trkpt lat="39.88017" lon="-0.16234">
        <ele>32.6</ele>
      </trkpt>
      <trkpt lat="39.88054" lon="-0.16177">
        <ele>32.9</ele>
      </trkpt>
      <trkpt lat="39.88077" lon="-0.16134">
        <ele>33</ele>
      </trkpt>
      <trkpt lat="39.88102" lon="-0.16069">
        <ele>33</ele>
      </trkpt>
      <trkpt lat="39.88114" lon="-0.16039">
        <ele>33.1</ele>
      </trkpt>
      <trkpt lat="39.88137" lon="-0.15995">
        <ele>33.8</ele>
      </trkpt>
      <trkpt lat="39.88225" lon="-0.15875">
        <ele>32.5</ele>
      </trkpt>
      <trkpt lat="39.8825" lon="-0.15851">
        <ele>32.6</ele>
      </trkpt>
      <trkpt lat="39.88298" lon="-0.15817">
        <ele>31.7</ele>
      </trkpt>
      <trkpt lat="39.88307" lon="-0.15804">
        <ele>31</ele>
      </trkpt>
      <trkpt lat="39.88313" lon="-0.15796">
        <ele>31.2</ele>
      </trkpt>
      <trkpt lat="39.88315" lon="-0.15793">
        <ele>31.2</ele>
      </trkpt>
      <trkpt lat="39.88383" lon="-0.15752">
        <ele>32.8</ele>
      </trkpt>
      <trkpt lat="39.88421" lon="-0.15705">
        <ele>32.5</ele>
      </trkpt>
      <trkpt lat="39.88462" lon="-0.15651">
        <ele>32.3</ele>
      </trkpt>
      <trkpt lat="39.88496" lon="-0.15555">
        <ele>32</ele>
      </trkpt>
      <trkpt lat="39.88504" lon="-0.15497">
        <ele>32.1</ele>
      </trkpt>
      <trkpt lat="39.88532" lon="-0.15424">
        <ele>33</ele>
      </trkpt>
      <trkpt lat="39.88554" lon="-0.15361">
        <ele>32.9</ele>
      </trkpt>
      <trkpt lat="39.88588" lon="-0.15289">
        <ele>33</ele>
      </trkpt>
      <trkpt lat="39.88664" lon="-0.15194">
        <ele>33</ele>
      </trkpt>
      <trkpt lat="39.88694" lon="-0.15156">
        <ele>33.4</ele>
      </trkpt>
      <trkpt lat="39.8879" lon="-0.15027">
        <ele>34.4</ele>
      </trkpt>
      <trkpt lat="39.88828" lon="-0.14984">
        <ele>34.8</ele>
      </trkpt>
      <trkpt lat="39.88944" lon="-0.14891">
        <ele>36</ele>
      </trkpt>
      <trkpt lat="39.88972" lon="-0.14874">
        <ele>35.5</ele>
      </trkpt>
      <trkpt lat="39.89064" lon="-0.14852">
        <ele>36</ele>
      </trkpt>
      <trkpt lat="39.89114" lon="-0.14829">
        <ele>36.1</ele>
      </trkpt>
      <trkpt lat="39.89192" lon="-0.148">
        <ele>36.9</ele>
      </trkpt>
      <trkpt lat="39.89209" lon="-0.14798">
        <ele>37</ele>
      </trkpt>
      <trkpt lat="39.89264" lon="-0.14783">
        <ele>37</ele>
      </trkpt>
      <trkpt lat="39.89476" lon="-0.14709">
        <ele>38</ele>
      </trkpt>
      <trkpt lat="39.89523" lon="-0.14686">
        <ele>37.7</ele>
      </trkpt>
      <trkpt lat="39.89611" lon="-0.14625">
        <ele>38</ele>
      </trkpt>
      <trkpt lat="39.89803" lon="-0.14511">
        <ele>39</ele>
      </trkpt>
      <trkpt lat="39.89858" lon="-0.14482">
        <ele>39.4</ele>
      </trkpt>
      <trkpt lat="39.89924" lon="-0.14457">
        <ele>40</ele>
      </trkpt>
      <trkpt lat="39.89994" lon="-0.14446">
        <ele>40</ele>
      </trkpt>
      <trkpt lat="39.90046" lon="-0.14411">
        <ele>40</ele>
      </trkpt>
      <trkpt lat="39.90136" lon="-0.14377">
        <ele>41</ele>
      </trkpt>
      <trkpt lat="39.90181" lon="-0.14367">
        <ele>41</ele>
      </trkpt>
      <trkpt lat="39.90226" lon="-0.14353">
        <ele>41</ele>
      </trkpt>
      <trkpt lat="39.90359" lon="-0.14287">
        <ele>42</ele>
      </trkpt>
      <trkpt lat="39.90404" lon="-0.14269">
        <ele>42</ele>
      </trkpt>
      <trkpt lat="39.90473" lon="-0.14255">
        <ele>43</ele>
      </trkpt>
      <trkpt lat="39.90503" lon="-0.14251">
        <ele>43</ele>
      </trkpt>
      <trkpt lat="39.9064" lon="-0.14232">
        <ele>44</ele>
      </trkpt>
      <trkpt lat="39.90664" lon="-0.14221">
        <ele>44</ele>
      </trkpt>
      <trkpt lat="39.90707" lon="-0.14152">
        <ele>43</ele>
      </trkpt>
      <trkpt lat="39.90713" lon="-0.14143">
        <ele>43</ele>
      </trkpt>
      <trkpt lat="39.90743" lon="-0.14077">
        <ele>42.6</ele>
      </trkpt>
      <trkpt lat="39.90752" lon="-0.14064">
        <ele>42.4</ele>
      </trkpt>
      <trkpt lat="39.90765" lon="-0.14046">
        <ele>42.4</ele>
      </trkpt>
      <trkpt lat="39.90873" lon="-0.13966">
        <ele>42</ele>
      </trkpt>
      <trkpt lat="39.9097" lon="-0.1385">
        <ele>43</ele>
      </trkpt>
      <trkpt lat="39.90986" lon="-0.13826">
        <ele>43</ele>
      </trkpt>
      <trkpt lat="39.91037" lon="-0.13757">
        <ele>43</ele>
      </trkpt>
      <trkpt lat="39.91095" lon="-0.13697">
        <ele>40.7</ele>
      </trkpt>
      <trkpt lat="39.91099" lon="-0.13676">
        <ele>40.2</ele>
      </trkpt>
      <trkpt lat="39.91093" lon="-0.13652">
        <ele>40.2</ele>
      </trkpt>
      <trkpt lat="39.9109" lon="-0.13638">
        <ele>39.5</ele>
      </trkpt>
      <trkpt lat="39.91091" lon="-0.13619">
        <ele>38.8</ele>
      </trkpt>
      <trkpt lat="39.91109" lon="-0.13601">
        <ele>40.5</ele>
      </trkpt>
      <trkpt lat="39.91099" lon="-0.13587">
        <ele>40.1</ele>
      </trkpt>
      <trkpt lat="39.91027" lon="-0.13521">
        <ele>41.5</ele>
      </trkpt>
      <trkpt lat="39.91023" lon="-0.13504">
        <ele>40.2</ele>
      </trkpt>
      <trkpt lat="39.91033" lon="-0.13497">
        <ele>40.6</ele>
      </trkpt>
      <trkpt lat="39.91085" lon="-0.13493">
        <ele>42.7</ele>
      </trkpt>
      <trkpt lat="39.91448" lon="-0.13458">
        <ele>42</ele>
      </trkpt>
      <trkpt lat="39.91466" lon="-0.13443">
        <ele>41</ele>
      </trkpt>
      <trkpt lat="39.91546" lon="-0.13412">
        <ele>40.1</ele>
      </trkpt>
      <trkpt lat="39.91628" lon="-0.13379">
        <ele>40.4</ele>
      </trkpt>
      <trkpt lat="39.91671" lon="-0.13353">
        <ele>40</ele>
      </trkpt>
      <trkpt lat="39.91739" lon="-0.13283">
        <ele>40</ele>
      </trkpt>
      <trkpt lat="39.91973" lon="-0.1314">
        <ele>41</ele>
      </trkpt>
      <trkpt lat="39.9202" lon="-0.13119">
        <ele>41.8</ele>
      </trkpt>
      <trkpt lat="39.9206" lon="-0.13107">
        <ele>41.9</ele>
      </trkpt>
      <trkpt lat="39.92083" lon="-0.131">
        <ele>41.6</ele>
      </trkpt>
      <trkpt lat="39.92094" lon="-0.13096">
        <ele>41.7</ele>
      </trkpt>
      <trkpt lat="39.92167" lon="-0.13039">
        <ele>42</ele>
      </trkpt>
      <trkpt lat="39.92206" lon="-0.13012">
        <ele>41.4</ele>
      </trkpt>
      <trkpt lat="39.92222" lon="-0.13002">
        <ele>41.1</ele>
      </trkpt>
      <trkpt lat="39.92253" lon="-0.12979">
        <ele>40</ele>
      </trkpt>
      <trkpt lat="39.92266" lon="-0.12964">
        <ele>40</ele>
      </trkpt>
      <trkpt lat="39.92285" lon="-0.12925">
        <ele>40.4</ele>
      </trkpt>
      <trkpt lat="39.92296" lon="-0.12827">
        <ele>41.7</ele>
      </trkpt>
      <trkpt lat="39.92358" lon="-0.12641">
        <ele>41</ele>
      </trkpt>
      <trkpt lat="39.92368" lon="-0.1259">
        <ele>41</ele>
      </trkpt>
      <trkpt lat="39.92376" lon="-0.1255">
        <ele>41</ele>
      </trkpt>
      <trkpt lat="39.92416" lon="-0.12435">
        <ele>41</ele>
      </trkpt>
      <trkpt lat="39.92478" lon="-0.1229">
        <ele>41</ele>
      </trkpt>
      <trkpt lat="39.92495" lon="-0.12246">
        <ele>41</ele>
      </trkpt>
      <trkpt lat="39.92504" lon="-0.12225">
        <ele>41</ele>
      </trkpt>
      <trkpt lat="39.92525" lon="-0.12161">
        <ele>40</ele>
      </trkpt>
      <trkpt lat="39.92533" lon="-0.12133">
        <ele>40</ele>
      </trkpt>
      <trkpt lat="39.92532" lon="-0.12116">
        <ele>40</ele>
      </trkpt>
      <trkpt lat="39.92528" lon="-0.12103">
        <ele>40</ele>
      </trkpt>
      <trkpt lat="39.92517" lon="-0.12092">
        <ele>40</ele>
      </trkpt>
      <trkpt lat="39.9251" lon="-0.12078">
        <ele>40</ele>
      </trkpt>
      <trkpt lat="39.92507" lon="-0.1206">
        <ele>40</ele>
      </trkpt>
      <trkpt lat="39.92508" lon="-0.12041">
        <ele>40</ele>
      </trkpt>
      <trkpt lat="39.92518" lon="-0.12019">
        <ele>40</ele>
      </trkpt>
      <trkpt lat="39.92531" lon="-0.12007">
        <ele>40</ele>
      </trkpt>
      <trkpt lat="39.92543" lon="-0.12002">
        <ele>40</ele>
      </trkpt>
      <trkpt lat="39.92555" lon="-0.12003">
        <ele>40</ele>
      </trkpt>
      <trkpt lat="39.92573" lon="-0.11983">
        <ele>40.6</ele>
      </trkpt>
      <trkpt lat="39.92583" lon="-0.11946">
        <ele>41</ele>
      </trkpt>
      <trkpt lat="39.92611" lon="-0.11881">
        <ele>40.7</ele>
      </trkpt>
      <trkpt lat="39.92632" lon="-0.11844">
        <ele>40.8</ele>
      </trkpt>
      <trkpt lat="39.92654" lon="-0.11817">
        <ele>41</ele>
      </trkpt>
      <trkpt lat="39.92638" lon="-0.11801">
        <ele>40.8</ele>
      </trkpt>
      <trkpt lat="39.92705" lon="-0.11589">
        <ele>41.1</ele>
      </trkpt>
      <trkpt lat="39.92716" lon="-0.11578">
        <ele>40.9</ele>
      </trkpt>
      <trkpt lat="39.92751" lon="-0.11469">
        <ele>40.9</ele>
      </trkpt>
      <trkpt lat="39.92759" lon="-0.1144">
        <ele>40</ele>
      </trkpt>
      <trkpt lat="39.92756" lon="-0.11436">
        <ele>40</ele>
      </trkpt>
      <trkpt lat="39.92766" lon="-0.11324">
        <ele>41.6</ele>
      </trkpt>
      <trkpt lat="39.92777" lon="-0.11194">
        <ele>41</ele>
      </trkpt>
      <trkpt lat="39.92797" lon="-0.11142">
        <ele>41</ele>
      </trkpt>
      <trkpt lat="39.92949" lon="-0.10988">
        <ele>41.2</ele>
      </trkpt>
      <trkpt lat="39.93004" lon="-0.10909">
        <ele>41.1</ele>
      </trkpt>
      <trkpt lat="39.93009" lon="-0.10893">
        <ele>41.3</ele>
      </trkpt>
      <trkpt lat="39.93025" lon="-0.10873">
        <ele>41.9</ele>
      </trkpt>
      <trkpt lat="39.93045" lon="-0.10855">
        <ele>41.9</ele>
      </trkpt>
      <trkpt lat="39.93087" lon="-0.10793">
        <ele>41</ele>
      </trkpt>
      <trkpt lat="39.93094" lon="-0.10775">
        <ele>41</ele>
      </trkpt>
      <trkpt lat="39.93093" lon="-0.10767">
        <ele>41</ele>
      </trkpt>
      <trkpt lat="39.93088" lon="-0.10753">
        <ele>41</ele>
      </trkpt>
      <trkpt lat="39.93082" lon="-0.10746">
        <ele>41</ele>
      </trkpt>
      <trkpt lat="39.93074" lon="-0.10735">
        <ele>41</ele>
      </trkpt>
      <trkpt lat="39.93051" lon="-0.10706">
        <ele>41</ele>
      </trkpt>
      <trkpt lat="39.93047" lon="-0.107">
        <ele>41</ele>
      </trkpt>
      <trkpt lat="39.93026" lon="-0.10673">
        <ele>41</ele>
      </trkpt>
      <trkpt lat="39.93009" lon="-0.10657">
        <ele>41</ele>
      </trkpt>
      <trkpt lat="39.92994" lon="-0.10643">
        <ele>41</ele>
      </trkpt>
      <trkpt lat="39.92988" lon="-0.10644">
        <ele>41</ele>
      </trkpt>
      <trkpt lat="39.92982" lon="-0.10641">
        <ele>41</ele>
      </trkpt>
      <trkpt lat="39.92977" lon="-0.10636">
        <ele>41</ele>
      </trkpt>
      <trkpt lat="39.92973" lon="-0.10629">
        <ele>41</ele>
      </trkpt>
      <trkpt lat="39.92972" lon="-0.10621">
        <ele>41</ele>
      </trkpt>
      <trkpt lat="39.92972" lon="-0.10613">
        <ele>41</ele>
      </trkpt>
      <trkpt lat="39.92974" lon="-0.10606">
        <ele>40.8</ele>
      </trkpt>
      <trkpt lat="39.92983" lon="-0.10596">
        <ele>40.7</ele>
      </trkpt>
      <trkpt lat="39.92985" lon="-0.10583">
        <ele>40.5</ele>
      </trkpt>
      <trkpt lat="39.9298" lon="-0.10489">
        <ele>39.4</ele>
      </trkpt>
      <trkpt lat="39.92978" lon="-0.10446">
        <ele>39.3</ele>
      </trkpt>
      <trkpt lat="39.92977" lon="-0.10422">
        <ele>39.2</ele>
      </trkpt>
      <trkpt lat="39.92977" lon="-0.10412">
        <ele>39.2</ele>
      </trkpt>
      <trkpt lat="39.92973" lon="-0.10323">
        <ele>38.6</ele>
      </trkpt>
      <trkpt lat="39.92972" lon="-0.10315">
        <ele>38.3</ele>
      </trkpt>
      <trkpt lat="39.92971" lon="-0.10296">
        <ele>38</ele>
      </trkpt>
      <trkpt lat="39.92971" lon="-0.10282">
        <ele>38</ele>
      </trkpt>
      <trkpt lat="39.92973" lon="-0.10261">
        <ele>38</ele>
      </trkpt>
      <trkpt lat="39.9297" lon="-0.10257">
        <ele>38</ele>
      </trkpt>
      <trkpt lat="39.92968" lon="-0.10248">
        <ele>38</ele>
      </trkpt>
      <trkpt lat="39.9297" lon="-0.10238">
        <ele>38</ele>
      </trkpt>
      <trkpt lat="39.92968" lon="-0.10208">
        <ele>37.8</ele>
      </trkpt>
      <trkpt lat="39.92963" lon="-0.10085">
        <ele>37</ele>
      </trkpt>
      <trkpt lat="39.92959" lon="-0.10065">
        <ele>36.7</ele>
      </trkpt>
      <trkpt lat="39.9295" lon="-0.10066">
        <ele>36.9</ele>
      </trkpt>
      <trkpt lat="39.92946" lon="-0.10064">
        <ele>37</ele>
      </trkpt>
      <trkpt lat="39.92939" lon="-0.10055">
        <ele>36.6</ele>
      </trkpt>
      <trkpt lat="39.92938" lon="-0.10042">
        <ele>36.2</ele>
      </trkpt>
      <trkpt lat="39.92942" lon="-0.1003">
        <ele>36</ele>
      </trkpt>
      <trkpt lat="39.92951" lon="-0.10024">
        <ele>35.9</ele>
      </trkpt>
      <trkpt lat="39.92961" lon="-0.10026">
        <ele>35.9</ele>
      </trkpt>
      <trkpt lat="39.92977" lon="-0.10023">
        <ele>35.8</ele>
      </trkpt>
      <trkpt lat="39.93019" lon="-0.09985">
        <ele>35.7</ele>
      </trkpt>
      <trkpt lat="39.93036" lon="-0.0997">
        <ele>36.3</ele>
      </trkpt>
      <trkpt lat="39.93087" lon="-0.09925">
        <ele>37</ele>
      </trkpt>
      <trkpt lat="39.93146" lon="-0.09871">
        <ele>33.5</ele>
      </trkpt>
      <trkpt lat="39.93156" lon="-0.09862">
        <ele>34.4</ele>
      </trkpt>
      <trkpt lat="39.93164" lon="-0.09855">
        <ele>36.3</ele>
      </trkpt>
      <trkpt lat="39.93173" lon="-0.09847">
        <ele>36.7</ele>
      </trkpt>
      <trkpt lat="39.93205" lon="-0.09817">
        <ele>37.2</ele>
      </trkpt>
      <trkpt lat="39.93212" lon="-0.09811">
        <ele>37.1</ele>
      </trkpt>
      <trkpt lat="39.93271" lon="-0.09754">
        <ele>37.1</ele>
      </trkpt>
      <trkpt lat="39.93296" lon="-0.0973">
        <ele>37</ele>
      </trkpt>
      <trkpt lat="39.93324" lon="-0.09705">
        <ele>37.3</ele>
      </trkpt>
      <trkpt lat="39.93338" lon="-0.09695">
        <ele>37</ele>
      </trkpt>
      <trkpt lat="39.93347" lon="-0.09691">
        <ele>37</ele>
      </trkpt>
      <trkpt lat="39.93406" lon="-0.09636">
        <ele>37.6</ele>
      </trkpt>
      <trkpt lat="39.93439" lon="-0.09606">
        <ele>37</ele>
      </trkpt>
      <trkpt lat="39.93451" lon="-0.09594">
        <ele>37.1</ele>
      </trkpt>
      <trkpt lat="39.93456" lon="-0.0958">
        <ele>37</ele>
      </trkpt>
      <trkpt lat="39.93457" lon="-0.09572">
        <ele>37</ele>
      </trkpt>
      <trkpt lat="39.93461" lon="-0.09568">
        <ele>37</ele>
      </trkpt>
      <trkpt lat="39.93466" lon="-0.09567">
        <ele>37</ele>
      </trkpt>
      <trkpt lat="39.9347" lon="-0.0957">
        <ele>37</ele>
      </trkpt>
      <trkpt lat="39.93482" lon="-0.09565">
        <ele>37.1</ele>
      </trkpt>
      <trkpt lat="39.9353" lon="-0.0952">
        <ele>38</ele>
      </trkpt>
      <trkpt lat="39.93587" lon="-0.09465">
        <ele>38</ele>
      </trkpt>
      <trkpt lat="39.93635" lon="-0.0942">
        <ele>38</ele>
      </trkpt>
      <trkpt lat="39.9366" lon="-0.09397">
        <ele>38.9</ele>
      </trkpt>
      <trkpt lat="39.93706" lon="-0.09353">
        <ele>39</ele>
      </trkpt>
      <trkpt lat="39.93708" lon="-0.09351">
        <ele>39</ele>
      </trkpt>
      <trkpt lat="39.93792" lon="-0.09272">
        <ele>39.9</ele>
      </trkpt>
      <trkpt lat="39.9385" lon="-0.09218">
        <ele>40.9</ele>
      </trkpt>
      <trkpt lat="39.93871" lon="-0.09198">
        <ele>41</ele>
      </trkpt>
      <trkpt lat="39.93877" lon="-0.09192">
        <ele>41</ele>
      </trkpt>
      <trkpt lat="39.9398" lon="-0.09101">
        <ele>41</ele>
      </trkpt>
      <trkpt lat="39.93995" lon="-0.09086">
        <ele>41</ele>
      </trkpt>
      <trkpt lat="39.93997" lon="-0.09079">
        <ele>41</ele>
      </trkpt>
      <trkpt lat="39.94001" lon="-0.09075">
        <ele>41</ele>
      </trkpt>
      <trkpt lat="39.94006" lon="-0.09075">
        <ele>41</ele>
      </trkpt>
      <trkpt lat="39.9401" lon="-0.09078">
        <ele>41</ele>
      </trkpt>
      <trkpt lat="39.94012" lon="-0.09083">
        <ele>41</ele>
      </trkpt>
      <trkpt lat="39.94012" lon="-0.0909">
        <ele>41</ele>
      </trkpt>
      <trkpt lat="39.9402" lon="-0.09109">
        <ele>41</ele>
      </trkpt>
      <trkpt lat="39.94052" lon="-0.09148">
        <ele>41</ele>
      </trkpt>
      <trkpt lat="39.94084" lon="-0.09187">
        <ele>41.3</ele>
      </trkpt>
      <trkpt lat="39.94145" lon="-0.09261">
        <ele>42.1</ele>
      </trkpt>
      <trkpt lat="39.94157" lon="-0.09265">
        <ele>42.4</ele>
      </trkpt>
      <trkpt lat="39.94164" lon="-0.09264">
        <ele>42.5</ele>
      </trkpt>
      <trkpt lat="39.94172" lon="-0.09268">
        <ele>42.5</ele>
      </trkpt>
      <trkpt lat="39.94176" lon="-0.09278">
        <ele>42.7</ele>
      </trkpt>
      <trkpt lat="39.94175" lon="-0.09288">
        <ele>42.4</ele>
      </trkpt>
      <trkpt lat="39.94179" lon="-0.09302">
        <ele>42.1</ele>
      </trkpt>
      <trkpt lat="39.94243" lon="-0.09378">
        <ele>42.7</ele>
      </trkpt>
      <trkpt lat="39.94275" lon="-0.09417">
        <ele>43</ele>
      </trkpt>
      <trkpt lat="39.94302" lon="-0.09449">
        <ele>43.1</ele>
      </trkpt>
      <trkpt lat="39.94332" lon="-0.09485">
        <ele>44</ele>
      </trkpt>
      <trkpt lat="39.94344" lon="-0.09492">
        <ele>44</ele>
      </trkpt>
      <trkpt lat="39.94348" lon="-0.0949">
        <ele>44</ele>
      </trkpt>
      <trkpt lat="39.94357" lon="-0.09492">
        <ele>44</ele>
      </trkpt>
      <trkpt lat="39.94362" lon="-0.095">
        <ele>44</ele>
      </trkpt>
      <trkpt lat="39.94363" lon="-0.09505">
        <ele>44.1</ele>
      </trkpt>
      <trkpt lat="39.94362" lon="-0.09514">
        <ele>44</ele>
      </trkpt>
      <trkpt lat="39.94365" lon="-0.09525">
        <ele>44.1</ele>
      </trkpt>
      <trkpt lat="39.94422" lon="-0.09593">
        <ele>45.2</ele>
      </trkpt>
      <trkpt lat="39.9446" lon="-0.09638">
        <ele>46</ele>
      </trkpt>
      <trkpt lat="39.94469" lon="-0.09645">
        <ele>46.2</ele>
      </trkpt>
      <trkpt lat="39.94477" lon="-0.09644">
        <ele>46.3</ele>
      </trkpt>
      <trkpt lat="39.94483" lon="-0.0965">
        <ele>46.6</ele>
      </trkpt>
      <trkpt lat="39.94485" lon="-0.09658">
        <ele>46.8</ele>
      </trkpt>
      <trkpt lat="39.94493" lon="-0.09657">
        <ele>46.9</ele>
      </trkpt>
      <trkpt lat="39.94537" lon="-0.09629">
        <ele>47</ele>
      </trkpt>
      <trkpt lat="39.94573" lon="-0.09609">
        <ele>47</ele>
      </trkpt>
      <trkpt lat="39.94609" lon="-0.09599">
        <ele>47</ele>
      </trkpt>
      <trkpt lat="39.94624" lon="-0.09596">
        <ele>47.2</ele>
      </trkpt>
      <trkpt lat="39.94649" lon="-0.09588">
        <ele>47.2</ele>
      </trkpt>
      <trkpt lat="39.94758" lon="-0.09554">
        <ele>48.3</ele>
      </trkpt>
      <trkpt lat="39.94799" lon="-0.09542">
        <ele>48.5</ele>
      </trkpt>
      <trkpt lat="39.94828" lon="-0.09546">
        <ele>48.7</ele>
      </trkpt>
      <trkpt lat="39.94874" lon="-0.09553">
        <ele>49</ele>
      </trkpt>
      <trkpt lat="39.94889" lon="-0.09556">
        <ele>49</ele>
      </trkpt>
      <trkpt lat="39.94905" lon="-0.09559">
        <ele>49.1</ele>
      </trkpt>
      <trkpt lat="39.94939" lon="-0.09562">
        <ele>49.4</ele>
      </trkpt>
      <trkpt lat="39.94976" lon="-0.09562">
        <ele>50.2</ele>
      </trkpt>
      <trkpt lat="39.9507" lon="-0.09548">
        <ele>50</ele>
      </trkpt>
      <trkpt lat="39.95073" lon="-0.09541">
        <ele>50</ele>
      </trkpt>
      <trkpt lat="39.95076" lon="-0.09539">
        <ele>50</ele>
      </trkpt>
      <trkpt lat="39.95081" lon="-0.0954">
        <ele>50</ele>
      </trkpt>
      <trkpt lat="39.95084" lon="-0.09544">
        <ele>50</ele>
      </trkpt>
      <trkpt lat="39.95195" lon="-0.09516">
        <ele>49</ele>
      </trkpt>
      <trkpt lat="39.95211" lon="-0.09512">
        <ele>49</ele>
      </trkpt>
      <trkpt lat="39.95254" lon="-0.09502">
        <ele>48.7</ele>
      </trkpt>
      <trkpt lat="39.95318" lon="-0.09502">
        <ele>44.5</ele>
      </trkpt>
      <trkpt lat="39.95323" lon="-0.09503">
        <ele>44.3</ele>
      </trkpt>
      <trkpt lat="39.95445" lon="-0.09505">
        <ele>41.5</ele>
      </trkpt>
      <trkpt lat="39.9545" lon="-0.09501">
        <ele>42.9</ele>
      </trkpt>
      <trkpt lat="39.95459" lon="-0.0948">
        <ele>44.7</ele>
      </trkpt>
      <trkpt lat="39.95467" lon="-0.0947">
        <ele>46.9</ele>
      </trkpt>
      <trkpt lat="39.95469" lon="-0.09469">
        <ele>47.5</ele>
      </trkpt>
      <trkpt lat="39.95483" lon="-0.09456">
        <ele>48.3</ele>
      </trkpt>
      <trkpt lat="39.9549" lon="-0.09446">
        <ele>48.6</ele>
      </trkpt>
      <trkpt lat="39.95498" lon="-0.09445">
        <ele>49.7</ele>
      </trkpt>
      <trkpt lat="39.95501" lon="-0.09447">
        <ele>50</ele>
      </trkpt>
      <trkpt lat="39.95503" lon="-0.09453">
        <ele>50</ele>
      </trkpt>
      <trkpt lat="39.9552" lon="-0.0946">
        <ele>50</ele>
      </trkpt>
      <trkpt lat="39.95558" lon="-0.09451">
        <ele>51.1</ele>
      </trkpt>
      <trkpt lat="39.95669" lon="-0.09426">
        <ele>53.4</ele>
      </trkpt>
      <trkpt lat="39.95741" lon="-0.09398">
        <ele>54.2</ele>
      </trkpt>
      <trkpt lat="39.95844" lon="-0.09351">
        <ele>53.6</ele>
      </trkpt>
      <trkpt lat="39.95886" lon="-0.09327">
        <ele>53</ele>
      </trkpt>
      <trkpt lat="39.95916" lon="-0.09298">
        <ele>52.7</ele>
      </trkpt>
      <trkpt lat="39.95932" lon="-0.09292">
        <ele>52.2</ele>
      </trkpt>
      <trkpt lat="39.95976" lon="-0.09297">
        <ele>50.1</ele>
      </trkpt>
      <trkpt lat="39.96008" lon="-0.09307">
        <ele>47.4</ele>
      </trkpt>
      <trkpt lat="39.96021" lon="-0.09318">
        <ele>46</ele>
      </trkpt>
      <trkpt lat="39.96028" lon="-0.09331">
        <ele>46.6</ele>
      </trkpt>
      <trkpt lat="39.96051" lon="-0.09359">
        <ele>44.2</ele>
      </trkpt>
      <trkpt lat="39.96065" lon="-0.09386">
        <ele>42.8</ele>
      </trkpt>
      <trkpt lat="39.96075" lon="-0.09395">
        <ele>41.2</ele>
      </trkpt>
      <trkpt lat="39.96083" lon="-0.09397">
        <ele>39.7</ele>
      </trkpt>
      <trkpt lat="39.96092" lon="-0.09389">
        <ele>37.8</ele>
      </trkpt>
      <trkpt lat="39.96102" lon="-0.09386">
        <ele>36.1</ele>
      </trkpt>
      <trkpt lat="39.96118" lon="-0.0939">
        <ele>34.8</ele>
      </trkpt>
      <trkpt lat="39.96129" lon="-0.09387">
        <ele>34.3</ele>
      </trkpt>
      <trkpt lat="39.96139" lon="-0.09371">
        <ele>34.6</ele>
      </trkpt>
      <trkpt lat="39.96147" lon="-0.09351">
        <ele>35.7</ele>
      </trkpt>
      <trkpt lat="39.96155" lon="-0.0932">
        <ele>38.7</ele>
      </trkpt>
      <trkpt lat="39.96162" lon="-0.09308">
        <ele>40.8</ele>
      </trkpt>
      <trkpt lat="39.96172" lon="-0.09301">
        <ele>43.4</ele>
      </trkpt>
      <trkpt lat="39.96274" lon="-0.09281">
        <ele>56.9</ele>
      </trkpt>
      <trkpt lat="39.96281" lon="-0.09273">
        <ele>57.4</ele>
      </trkpt>
      <trkpt lat="39.9628" lon="-0.09261">
        <ele>57.7</ele>
      </trkpt>
      <trkpt lat="39.96283" lon="-0.0925">
        <ele>58.2</ele>
      </trkpt>
      <trkpt lat="39.96288" lon="-0.09239">
        <ele>58.2</ele>
      </trkpt>
      <trkpt lat="39.96296" lon="-0.09231">
        <ele>58.2</ele>
      </trkpt>
      <trkpt lat="39.96306" lon="-0.09227">
        <ele>58.2</ele>
      </trkpt>
      <trkpt lat="39.96316" lon="-0.09227">
        <ele>58.5</ele>
      </trkpt>
      <trkpt lat="39.96325" lon="-0.09232">
        <ele>58.8</ele>
      </trkpt>
      <trkpt lat="39.96333" lon="-0.0924">
        <ele>59</ele>
      </trkpt>
      <trkpt lat="39.9635" lon="-0.09239">
        <ele>58.8</ele>
      </trkpt>
      <trkpt lat="39.96387" lon="-0.09234">
        <ele>58.4</ele>
      </trkpt>
      <trkpt lat="39.96428" lon="-0.09228">
        <ele>57.4</ele>
      </trkpt>
      <trkpt lat="39.96462" lon="-0.09223">
        <ele>57</ele>
      </trkpt>
      <trkpt lat="39.96507" lon="-0.09216">
        <ele>57</ele>
      </trkpt>
      <trkpt lat="39.96537" lon="-0.09212">
        <ele>56.9</ele>
      </trkpt>
      <trkpt lat="39.96594" lon="-0.09203">
        <ele>56.2</ele>
      </trkpt>
      <trkpt lat="39.96612" lon="-0.092">
        <ele>56</ele>
      </trkpt>
      <trkpt lat="39.96619" lon="-0.09199">
        <ele>56</ele>
      </trkpt>
      <trkpt lat="39.96648" lon="-0.09195">
        <ele>56.3</ele>
      </trkpt>
      <trkpt lat="39.96679" lon="-0.09191">
        <ele>56.9</ele>
      </trkpt>
      <trkpt lat="39.96697" lon="-0.09185">
        <ele>56.7</ele>
      </trkpt>
      <trkpt lat="39.96752" lon="-0.09167">
        <ele>56</ele>
      </trkpt>
      <trkpt lat="39.96766" lon="-0.09162">
        <ele>56</ele>
      </trkpt>
      <trkpt lat="39.96771" lon="-0.0916">
        <ele>56</ele>
      </trkpt>
      <trkpt lat="39.96791" lon="-0.09154">
        <ele>56.5</ele>
      </trkpt>
      <trkpt lat="39.96886" lon="-0.09123">
        <ele>57</ele>
      </trkpt>
      <trkpt lat="39.96897" lon="-0.09119">
        <ele>57</ele>
      </trkpt>
      <trkpt lat="39.96905" lon="-0.09122">
        <ele>57</ele>
      </trkpt>
      <trkpt lat="39.96912" lon="-0.09118">
        <ele>57</ele>
      </trkpt>
      <trkpt lat="39.96921" lon="-0.09119">
        <ele>57</ele>
      </trkpt>
      <trkpt lat="39.96926" lon="-0.09124">
        <ele>57</ele>
      </trkpt>
      <trkpt lat="39.96929" lon="-0.09132">
        <ele>57</ele>
      </trkpt>
      <trkpt lat="39.9693" lon="-0.09139">
        <ele>57</ele>
      </trkpt>
      <trkpt lat="39.96941" lon="-0.09153">
        <ele>57</ele>
      </trkpt>
      <trkpt lat="39.96956" lon="-0.09151">
        <ele>57.2</ele>
      </trkpt>
      <trkpt lat="39.97019" lon="-0.09135">
        <ele>57</ele>
      </trkpt>
      <trkpt lat="39.9707" lon="-0.09126">
        <ele>57.7</ele>
      </trkpt>
      <trkpt lat="39.97081" lon="-0.09125">
        <ele>58</ele>
      </trkpt>
      <trkpt lat="39.97105" lon="-0.09127">
        <ele>58</ele>
      </trkpt>
      <trkpt lat="39.97147" lon="-0.09134">
        <ele>58.3</ele>
      </trkpt>
      <trkpt lat="39.972" lon="-0.09147">
        <ele>59</ele>
      </trkpt>
      <trkpt lat="39.97247" lon="-0.09158">
        <ele>59</ele>
      </trkpt>
      <trkpt lat="39.9728" lon="-0.09171">
        <ele>59</ele>
      </trkpt>
      <trkpt lat="39.97419" lon="-0.09186">
        <ele>60</ele>
      </trkpt>
      <trkpt lat="39.97508" lon="-0.09191">
        <ele>60.9</ele>
      </trkpt>
      <trkpt lat="39.9752" lon="-0.09194">
        <ele>61</ele>
      </trkpt>
      <trkpt lat="39.9753" lon="-0.092">
        <ele>61</ele>
      </trkpt>
      <trkpt lat="39.97563" lon="-0.09198">
        <ele>61</ele>
      </trkpt>
      <trkpt lat="39.97631" lon="-0.09195">
        <ele>61</ele>
      </trkpt>
      <trkpt lat="39.97666" lon="-0.09198">
        <ele>61</ele>
      </trkpt>
      <trkpt lat="39.97709" lon="-0.09206">
        <ele>61.7</ele>
      </trkpt>
      <trkpt lat="39.97727" lon="-0.09211">
        <ele>62</ele>
      </trkpt>
      <trkpt lat="39.97777" lon="-0.09234">
        <ele>62.4</ele>
      </trkpt>
      <trkpt lat="39.97835" lon="-0.09232">
        <ele>63.4</ele>
      </trkpt>
      <trkpt lat="39.97878" lon="-0.09228">
        <ele>64.1</ele>
      </trkpt>
      <trkpt lat="39.97897" lon="-0.09224">
        <ele>64.1</ele>
      </trkpt>
      <trkpt lat="39.97976" lon="-0.09206">
        <ele>65.1</ele>
      </trkpt>
      <trkpt lat="39.98083" lon="-0.09151">
        <ele>66.4</ele>
      </trkpt>
      <trkpt lat="39.98198" lon="-0.09127">
        <ele>67.6</ele>
      </trkpt>
      <trkpt lat="39.98224" lon="-0.09116">
        <ele>67.2</ele>
      </trkpt>
      <trkpt lat="39.98277" lon="-0.09088">
        <ele>68.2</ele>
      </trkpt>
      <trkpt lat="39.98327" lon="-0.09061">
        <ele>69</ele>
      </trkpt>
      <trkpt lat="39.98337" lon="-0.09048">
        <ele>69</ele>
      </trkpt>
      <trkpt lat="39.98343" lon="-0.09028">
        <ele>69</ele>
      </trkpt>
      <trkpt lat="39.98341" lon="-0.09006">
        <ele>69</ele>
      </trkpt>
      <trkpt lat="39.98332" lon="-0.08987">
        <ele>68.5</ele>
      </trkpt>
      <trkpt lat="39.98329" lon="-0.08973">
        <ele>68</ele>
      </trkpt>
      <trkpt lat="39.98329" lon="-0.08963">
        <ele>68</ele>
      </trkpt>
      <trkpt lat="39.98332" lon="-0.08952">
        <ele>68</ele>
      </trkpt>
      <trkpt lat="39.98336" lon="-0.08943">
        <ele>68</ele>
      </trkpt>
      <trkpt lat="39.98343" lon="-0.08922">
        <ele>68</ele>
      </trkpt>
      <trkpt lat="39.98343" lon="-0.08903">
        <ele>68.2</ele>
      </trkpt>
      <trkpt lat="39.98336" lon="-0.08887">
        <ele>68</ele>
      </trkpt>
      <trkpt lat="39.98325" lon="-0.08853">
        <ele>67</ele>
      </trkpt>
      <trkpt lat="39.98322" lon="-0.0883">
        <ele>67.5</ele>
      </trkpt>
      <trkpt lat="39.98322" lon="-0.08807">
        <ele>70.6</ele>
      </trkpt>
      <trkpt lat="39.98324" lon="-0.08784">
        <ele>67.4</ele>
      </trkpt>
      <trkpt lat="39.9833" lon="-0.08762">
        <ele>66.1</ele>
      </trkpt>
      <trkpt lat="39.98337" lon="-0.08743">
        <ele>66.1</ele>
      </trkpt>
      <trkpt lat="39.98346" lon="-0.08725">
        <ele>66.5</ele>
      </trkpt>
      <trkpt lat="39.98357" lon="-0.08709">
        <ele>66.5</ele>
      </trkpt>
      <trkpt lat="39.98369" lon="-0.08695">
        <ele>66</ele>
      </trkpt>
      <trkpt lat="39.98383" lon="-0.08684">
        <ele>66.1</ele>
      </trkpt>
      <trkpt lat="39.98399" lon="-0.08675">
        <ele>66.5</ele>
      </trkpt>
      <trkpt lat="39.98416" lon="-0.08669">
        <ele>67.1</ele>
      </trkpt>
      <trkpt lat="39.98434" lon="-0.08667">
        <ele>67</ele>
      </trkpt>
      <trkpt lat="39.98457" lon="-0.08669">
        <ele>67.1</ele>
      </trkpt>
      <trkpt lat="39.9848" lon="-0.08678">
        <ele>67.6</ele>
      </trkpt>
      <trkpt lat="39.98501" lon="-0.08693">
        <ele>68</ele>
      </trkpt>
      <trkpt lat="39.98519" lon="-0.08713">
        <ele>68</ele>
      </trkpt>
      <trkpt lat="39.98537" lon="-0.08714">
        <ele>68.3</ele>
      </trkpt>
      <trkpt lat="39.98546" lon="-0.0871">
        <ele>68.7</ele>
      </trkpt>
      <trkpt lat="39.98558" lon="-0.087">
        <ele>69</ele>
      </trkpt>
      <trkpt lat="39.98575" lon="-0.08688">
        <ele>69</ele>
      </trkpt>
      <trkpt lat="39.98587" lon="-0.08679">
        <ele>69.1</ele>
      </trkpt>
      <trkpt lat="39.98602" lon="-0.08672">
        <ele>69.1</ele>
      </trkpt>
      <trkpt lat="39.98659" lon="-0.08635">
        <ele>70</ele>
      </trkpt>
      <trkpt lat="39.98731" lon="-0.08577">
        <ele>71.2</ele>
      </trkpt>
      <trkpt lat="39.98774" lon="-0.08542">
        <ele>71.9</ele>
      </trkpt>
      <trkpt lat="39.98827" lon="-0.08484">
        <ele>72.8</ele>
      </trkpt>
      <trkpt lat="39.98853" lon="-0.08456">
        <ele>73</ele>
      </trkpt>
      <trkpt lat="39.98892" lon="-0.08418">
        <ele>73.1</ele>
      </trkpt>
      <trkpt lat="39.98896" lon="-0.08414">
        <ele>73.2</ele>
      </trkpt>
      <trkpt lat="39.98926" lon="-0.08384">
        <ele>73</ele>
      </trkpt>
      <trkpt lat="39.98938" lon="-0.08373">
        <ele>73</ele>
      </trkpt>
      <trkpt lat="39.98976" lon="-0.08339">
        <ele>73</ele>
      </trkpt>
      <trkpt lat="39.99026" lon="-0.08289">
        <ele>73.4</ele>
      </trkpt>
      <trkpt lat="39.99059" lon="-0.08254">
        <ele>73.3</ele>
      </trkpt>
      <trkpt lat="39.99105" lon="-0.08206">
        <ele>74</ele>
      </trkpt>
      <trkpt lat="39.99124" lon="-0.08198">
        <ele>74</ele>
      </trkpt>
      <trkpt lat="39.99123" lon="-0.08211">
        <ele>74</ele>
      </trkpt>
      <trkpt lat="39.99124" lon="-0.08248">
        <ele>74.4</ele>
      </trkpt>
      <trkpt lat="39.99126" lon="-0.08272">
        <ele>75</ele>
      </trkpt>
      <trkpt lat="39.99132" lon="-0.08298">
        <ele>77.3</ele>
      </trkpt>
      <trkpt lat="39.99142" lon="-0.08326">
        <ele>78.6</ele>
      </trkpt>
      <trkpt lat="39.99163" lon="-0.0837">
        <ele>78.5</ele>
      </trkpt>
      <trkpt lat="39.99204" lon="-0.08452">
        <ele>77.6</ele>
      </trkpt>
      <trkpt lat="39.99227" lon="-0.08497">
        <ele>78.7</ele>
      </trkpt>
      <trkpt lat="39.99258" lon="-0.08562">
        <ele>78.1</ele>
      </trkpt>
      <trkpt lat="39.99287" lon="-0.08632">
        <ele>79.3</ele>
      </trkpt>
      <trkpt lat="39.99293" lon="-0.08649">
        <ele>79.5</ele>
      </trkpt>
      <trkpt lat="39.99295" lon="-0.08665">
        <ele>79.6</ele>
      </trkpt>
      <trkpt lat="39.99296" lon="-0.08671">
        <ele>79.7</ele>
      </trkpt>
      <trkpt lat="39.99301" lon="-0.08696">
        <ele>80.1</ele>
      </trkpt>
      <trkpt lat="39.99315" lon="-0.08712">
        <ele>80.4</ele>
      </trkpt>
      <trkpt lat="39.9932" lon="-0.08731">
        <ele>80.5</ele>
      </trkpt>
      <trkpt lat="39.99318" lon="-0.08751">
        <ele>80.6</ele>
      </trkpt>
      <trkpt lat="39.99324" lon="-0.08772">
        <ele>80.9</ele>
      </trkpt>
      <trkpt lat="39.99335" lon="-0.08775">
        <ele>80.9</ele>
      </trkpt>
      <trkpt lat="39.99357" lon="-0.08774">
        <ele>81</ele>
      </trkpt>
      <trkpt lat="39.9937" lon="-0.08771">
        <ele>81</ele>
      </trkpt>
      <trkpt lat="39.99385" lon="-0.08765">
        <ele>81</ele>
      </trkpt>
      <trkpt lat="39.99401" lon="-0.08758">
        <ele>80.3</ele>
      </trkpt>
      <trkpt lat="39.99415" lon="-0.08764">
        <ele>79.6</ele>
      </trkpt>
      <trkpt lat="39.99449" lon="-0.08773">
        <ele>77.2</ele>
      </trkpt>
      <trkpt lat="39.9946" lon="-0.08782">
        <ele>77</ele>
      </trkpt>
      <trkpt lat="39.99501" lon="-0.08847">
        <ele>73</ele>
      </trkpt>
      <trkpt lat="39.99512" lon="-0.08865">
        <ele>73.4</ele>
      </trkpt>
      <trkpt lat="39.99518" lon="-0.08883">
        <ele>80.1</ele>
      </trkpt>
      <trkpt lat="39.99517" lon="-0.08937">
        <ele>79</ele>
      </trkpt>
      <trkpt lat="39.99521" lon="-0.08952">
        <ele>78.6</ele>
      </trkpt>
      <trkpt lat="39.9953" lon="-0.08962">
        <ele>78.3</ele>
      </trkpt>
      <trkpt lat="39.99574" lon="-0.08988">
        <ele>81.1</ele>
      </trkpt>
      <trkpt lat="39.99589" lon="-0.08984">
        <ele>81.9</ele>
      </trkpt>
      <trkpt lat="39.99597" lon="-0.08973">
        <ele>82.5</ele>
      </trkpt>
      <trkpt lat="39.99636" lon="-0.08909">
        <ele>84.9</ele>
      </trkpt>
      <trkpt lat="39.99647" lon="-0.08899">
        <ele>84.8</ele>
      </trkpt>
      <trkpt lat="39.99658" lon="-0.08893">
        <ele>84.4</ele>
      </trkpt>
      <trkpt lat="39.99761" lon="-0.089">
        <ele>86.2</ele>
      </trkpt>
      <trkpt lat="39.99773" lon="-0.08901">
        <ele>86.4</ele>
      </trkpt>
      <trkpt lat="39.99789" lon="-0.08909">
        <ele>86.1</ele>
      </trkpt>
      <trkpt lat="39.99797" lon="-0.08916">
        <ele>86.3</ele>
      </trkpt>
      <trkpt lat="39.99837" lon="-0.08958">
        <ele>87.3</ele>
      </trkpt>
      <trkpt lat="39.99859" lon="-0.08968">
        <ele>86.8</ele>
      </trkpt>
      <trkpt lat="39.99901" lon="-0.0897">
        <ele>85.4</ele>
      </trkpt>
      <trkpt lat="39.99914" lon="-0.08975">
        <ele>85.3</ele>
      </trkpt>
      <trkpt lat="39.99958" lon="-0.09015">
        <ele>86.1</ele>
      </trkpt>
      <trkpt lat="40.0003" lon="-0.09089">
        <ele>87.4</ele>
      </trkpt>
      <trkpt lat="40.00043" lon="-0.09097">
        <ele>87.7</ele>
      </trkpt>
      <trkpt lat="40.00054" lon="-0.09092">
        <ele>87.3</ele>
      </trkpt>
      <trkpt lat="40.00066" lon="-0.09072">
        <ele>87.5</ele>
      </trkpt>
      <trkpt lat="40.00069" lon="-0.0906">
        <ele>87.9</ele>
      </trkpt>
      <trkpt lat="40.00072" lon="-0.09035">
        <ele>88.9</ele>
      </trkpt>
      <trkpt lat="40.00105" lon="-0.08968">
        <ele>88.6</ele>
      </trkpt>
      <trkpt lat="40.00117" lon="-0.08951">
        <ele>89.2</ele>
      </trkpt>
      <trkpt lat="40.00135" lon="-0.08933">
        <ele>89.9</ele>
      </trkpt>
      <trkpt lat="40.00154" lon="-0.08922">
        <ele>90.5</ele>
      </trkpt>
      <trkpt lat="40.00172" lon="-0.08916">
        <ele>91.2</ele>
      </trkpt>
      <trkpt lat="40.00209" lon="-0.08922">
        <ele>92.3</ele>
      </trkpt>
      <trkpt lat="40.00344" lon="-0.08934">
        <ele>94</ele>
      </trkpt>
      <trkpt lat="40.00465" lon="-0.0894">
        <ele>95.7</ele>
      </trkpt>
      <trkpt lat="40.00472" lon="-0.0894">
        <ele>96</ele>
      </trkpt>
      <trkpt lat="40.00541" lon="-0.08954">
        <ele>97</ele>
      </trkpt>
      <trkpt lat="40.00609" lon="-0.08979">
        <ele>98.2</ele>
      </trkpt>
      <trkpt lat="40.00677" lon="-0.09004">
        <ele>100.1</ele>
      </trkpt>
      <trkpt lat="40.00711" lon="-0.09005">
        <ele>100.7</ele>
      </trkpt>
      <trkpt lat="40.00822" lon="-0.08998">
        <ele>103.6</ele>
      </trkpt>
      <trkpt lat="40.00843" lon="-0.08996">
        <ele>104.3</ele>
      </trkpt>
      <trkpt lat="40.01097" lon="-0.09007">
        <ele>109.7</ele>
      </trkpt>
      <trkpt lat="40.01112" lon="-0.09009">
        <ele>109.7</ele>
      </trkpt>
      <trkpt lat="40.01195" lon="-0.09055">
        <ele>111</ele>
      </trkpt>
      <trkpt lat="40.01221" lon="-0.0906">
        <ele>111</ele>
      </trkpt>
      <trkpt lat="40.01303" lon="-0.09068">
        <ele>112.5</ele>
      </trkpt>
      <trkpt lat="40.01334" lon="-0.09071">
        <ele>113</ele>
      </trkpt>
      <trkpt lat="40.01354" lon="-0.09081">
        <ele>113.9</ele>
      </trkpt>
      <trkpt lat="40.01363" lon="-0.09093">
        <ele>114.2</ele>
      </trkpt>
      <trkpt lat="40.01365" lon="-0.09126">
        <ele>114.3</ele>
      </trkpt>
      <trkpt lat="40.01367" lon="-0.09136">
        <ele>114.4</ele>
      </trkpt>
      <trkpt lat="40.01373" lon="-0.09139">
        <ele>114.9</ele>
      </trkpt>
      <trkpt lat="40.01372" lon="-0.09148">
        <ele>114.6</ele>
      </trkpt>
      <trkpt lat="40.01381" lon="-0.09159">
        <ele>115.2</ele>
      </trkpt>
      <trkpt lat="40.01385" lon="-0.09171">
        <ele>115.6</ele>
      </trkpt>
      <trkpt lat="40.01387" lon="-0.09183">
        <ele>115.8</ele>
      </trkpt>
      <trkpt lat="40.01384" lon="-0.09208">
        <ele>115.4</ele>
      </trkpt>
      <trkpt lat="40.01361" lon="-0.09313">
        <ele>112.3</ele>
      </trkpt>
      <trkpt lat="40.0134" lon="-0.09366">
        <ele>111.5</ele>
      </trkpt>
      <trkpt lat="40.01325" lon="-0.09416">
        <ele>110</ele>
      </trkpt>
      <trkpt lat="40.01369" lon="-0.09448">
        <ele>109.8</ele>
      </trkpt>
      <trkpt lat="40.01372" lon="-0.0945">
        <ele>110.4</ele>
      </trkpt>
      <trkpt lat="40.01468" lon="-0.09339">
        <ele>117.4</ele>
      </trkpt>
      <trkpt lat="40.01496" lon="-0.09331">
        <ele>117.3</ele>
      </trkpt>
      <trkpt lat="40.01514" lon="-0.09319">
        <ele>118.3</ele>
      </trkpt>
      <trkpt lat="40.01518" lon="-0.09315">
        <ele>118.5</ele>
      </trkpt>
      <trkpt lat="40.01521" lon="-0.09322">
        <ele>118.3</ele>
      </trkpt>
      <trkpt lat="40.01527" lon="-0.09325">
        <ele>118.3</ele>
      </trkpt>
      <trkpt lat="40.0154" lon="-0.09325">
        <ele>118.3</ele>
      </trkpt>
      <trkpt lat="40.0155" lon="-0.0932">
        <ele>118.5</ele>
      </trkpt>
      <trkpt lat="40.01557" lon="-0.0931">
        <ele>118.8</ele>
      </trkpt>
      <trkpt lat="40.01566" lon="-0.09279">
        <ele>118.6</ele>
      </trkpt>
      <trkpt lat="40.01576" lon="-0.09259">
        <ele>118.8</ele>
      </trkpt>
      <trkpt lat="40.0159" lon="-0.09244">
        <ele>118.9</ele>
      </trkpt>
      <trkpt lat="40.01655" lon="-0.09198">
        <ele>119.4</ele>
      </trkpt>
      <trkpt lat="40.0169" lon="-0.09178">
        <ele>120.4</ele>
      </trkpt>
      <trkpt lat="40.01724" lon="-0.09161">
        <ele>121</ele>
      </trkpt>
      <trkpt lat="40.01958" lon="-0.09078">
        <ele>125.9</ele>
      </trkpt>
      <trkpt lat="40.02011" lon="-0.09059">
        <ele>126.9</ele>
      </trkpt>
      <trkpt lat="40.02139" lon="-0.09018">
        <ele>128.7</ele>
      </trkpt>
      <trkpt lat="40.02162" lon="-0.09009">
        <ele>128.8</ele>
      </trkpt>
      <trkpt lat="40.02239" lon="-0.08979">
        <ele>130.6</ele>
      </trkpt>
      <trkpt lat="40.02248" lon="-0.08975">
        <ele>130.8</ele>
      </trkpt>
      <trkpt lat="40.02283" lon="-0.08963">
        <ele>130.5</ele>
      </trkpt>
      <trkpt lat="40.02384" lon="-0.08926">
        <ele>131.8</ele>
      </trkpt>
      <trkpt lat="40.02393" lon="-0.08923">
        <ele>131.8</ele>
      </trkpt>
      <trkpt lat="40.02432" lon="-0.0891">
        <ele>131.8</ele>
      </trkpt>
      <trkpt lat="40.02448" lon="-0.08905">
        <ele>131.8</ele>
      </trkpt>
      <trkpt lat="40.02459" lon="-0.08901">
        <ele>131.8</ele>
      </trkpt>
      <trkpt lat="40.02592" lon="-0.08857">
        <ele>129.9</ele>
      </trkpt>
      <trkpt lat="40.02654" lon="-0.08831">
        <ele>131.3</ele>
      </trkpt>
      <trkpt lat="40.02718" lon="-0.08808">
        <ele>133</ele>
      </trkpt>
      <trkpt lat="40.02765" lon="-0.08792">
        <ele>133.4</ele>
      </trkpt>
      <trkpt lat="40.02794" lon="-0.0878">
        <ele>133.6</ele>
      </trkpt>
      <trkpt lat="40.02869" lon="-0.08743">
        <ele>133.8</ele>
      </trkpt>
      <trkpt lat="40.02944" lon="-0.08685">
        <ele>136.3</ele>
      </trkpt>
      <trkpt lat="40.02978" lon="-0.08651">
        <ele>137.4</ele>
      </trkpt>
      <trkpt lat="40.03011" lon="-0.08612">
        <ele>137.6</ele>
      </trkpt>
      <trkpt lat="40.03076" lon="-0.0852">
        <ele>137</ele>
      </trkpt>
      <trkpt lat="40.03126" lon="-0.08462">
        <ele>138.2</ele>
      </trkpt>
      <trkpt lat="40.03216" lon="-0.08321">
        <ele>141.1</ele>
      </trkpt>
      <trkpt lat="40.03313" lon="-0.08145">
        <ele>145</ele>
      </trkpt>
      <trkpt lat="40.03364" lon="-0.08069">
        <ele>143.7</ele>
      </trkpt>
      <trkpt lat="40.03379" lon="-0.08047">
        <ele>145.3</ele>
      </trkpt>
      <trkpt lat="40.03423" lon="-0.07982">
        <ele>150.6</ele>
      </trkpt>
      <trkpt lat="40.03465" lon="-0.07924">
        <ele>153.5</ele>
      </trkpt>
      <trkpt lat="40.0348" lon="-0.07907">
        <ele>153.5</ele>
      </trkpt>
      <trkpt lat="40.03491" lon="-0.07906">
        <ele>153.8</ele>
      </trkpt>
      <trkpt lat="40.03522" lon="-0.07912">
        <ele>154.9</ele>
      </trkpt>
      <trkpt lat="40.03542" lon="-0.07916">
        <ele>156.5</ele>
      </trkpt>
      <trkpt lat="40.0356" lon="-0.0792">
        <ele>157.9</ele>
      </trkpt>
      <trkpt lat="40.03581" lon="-0.07924">
        <ele>158.6</ele>
      </trkpt>
      <trkpt lat="40.03627" lon="-0.07933">
        <ele>163.7</ele>
      </trkpt>
      <trkpt lat="40.03724" lon="-0.07945">
        <ele>170.1</ele>
      </trkpt>
      <trkpt lat="40.03741" lon="-0.07946">
        <ele>170.6</ele>
      </trkpt>
      <trkpt lat="40.03754" lon="-0.0794">
        <ele>171.3</ele>
      </trkpt>
      <trkpt lat="40.03793" lon="-0.07903">
        <ele>174.7</ele>
      </trkpt>
      <trkpt lat="40.03824" lon="-0.07866">
        <ele>174.7</ele>
      </trkpt>
      <trkpt lat="40.03833" lon="-0.07851">
        <ele>173.6</ele>
      </trkpt>
      <trkpt lat="40.03839" lon="-0.07835">
        <ele>173.5</ele>
      </trkpt>
      <trkpt lat="40.03841" lon="-0.07824">
        <ele>173</ele>
      </trkpt>
      <trkpt lat="40.0384" lon="-0.07814">
        <ele>172.3</ele>
      </trkpt>
      <trkpt lat="40.03839" lon="-0.07802">
        <ele>171.5</ele>
      </trkpt>
      <trkpt lat="40.03842" lon="-0.07792">
        <ele>171.5</ele>
      </trkpt>
      <trkpt lat="40.03853" lon="-0.07785">
        <ele>171.6</ele>
      </trkpt>
      <trkpt lat="40.03862" lon="-0.07778">
        <ele>171.1</ele>
      </trkpt>
      <trkpt lat="40.03866" lon="-0.07774">
        <ele>171.5</ele>
      </trkpt>
      <trkpt lat="40.03876" lon="-0.07762">
        <ele>171.7</ele>
      </trkpt>
      <trkpt lat="40.03902" lon="-0.07724">
        <ele>170.5</ele>
      </trkpt>
      <trkpt lat="40.03912" lon="-0.07708">
        <ele>170.9</ele>
      </trkpt>
      <trkpt lat="40.03921" lon="-0.07691">
        <ele>171.5</ele>
      </trkpt>
      <trkpt lat="40.03926" lon="-0.07681">
        <ele>171.7</ele>
      </trkpt>
      <trkpt lat="40.03939" lon="-0.07639">
        <ele>171</ele>
      </trkpt>
      <trkpt lat="40.0399" lon="-0.07419">
        <ele>174.4</ele>
      </trkpt>
      <trkpt lat="40.04003" lon="-0.07361">
        <ele>175.2</ele>
      </trkpt>
      <trkpt lat="40.04034" lon="-0.07225">
        <ele>178.5</ele>
      </trkpt>
      <trkpt lat="40.04035" lon="-0.07221">
        <ele>178.5</ele>
      </trkpt>
      <trkpt lat="40.04047" lon="-0.07172">
        <ele>178</ele>
      </trkpt>
      <trkpt lat="40.04052" lon="-0.0715">
        <ele>178.5</ele>
      </trkpt>
      <trkpt lat="40.04052" lon="-0.07147">
        <ele>178.6</ele>
      </trkpt>
      <trkpt lat="40.04067" lon="-0.07084">
        <ele>178.8</ele>
      </trkpt>
      <trkpt lat="40.04094" lon="-0.06964">
        <ele>181.4</ele>
      </trkpt>
      <trkpt lat="40.04109" lon="-0.069">
        <ele>182.8</ele>
      </trkpt>
      <trkpt lat="40.04111" lon="-0.06894">
        <ele>183</ele>
      </trkpt>
      <trkpt lat="40.04125" lon="-0.06832">
        <ele>185</ele>
      </trkpt>
      <trkpt lat="40.04148" lon="-0.0673">
        <ele>187.2</ele>
      </trkpt>
      <trkpt lat="40.04164" lon="-0.06666">
        <ele>187.8</ele>
      </trkpt>
      <trkpt lat="40.04167" lon="-0.06653">
        <ele>188</ele>
      </trkpt>
      <trkpt lat="40.04169" lon="-0.06644">
        <ele>188.3</ele>
      </trkpt>
      <trkpt lat="40.04172" lon="-0.0663">
        <ele>188.5</ele>
      </trkpt>
      <trkpt lat="40.04211" lon="-0.06457">
        <ele>190.2</ele>
      </trkpt>
      <trkpt lat="40.0422" lon="-0.06424">
        <ele>190.1</ele>
      </trkpt>
      <trkpt lat="40.04235" lon="-0.0639">
        <ele>190.5</ele>
      </trkpt>
      <trkpt lat="40.04252" lon="-0.0636">
        <ele>189.2</ele>
      </trkpt>
      <trkpt lat="40.04283" lon="-0.06307">
        <ele>189.3</ele>
      </trkpt>
      <trkpt lat="40.04285" lon="-0.06302">
        <ele>190.1</ele>
      </trkpt>
      <trkpt lat="40.04391" lon="-0.06116">
        <ele>190.3</ele>
      </trkpt>
      <trkpt lat="40.04439" lon="-0.06055">
        <ele>188.8</ele>
      </trkpt>
      <trkpt lat="40.04449" lon="-0.06028">
        <ele>189</ele>
      </trkpt>
      <trkpt lat="40.04448" lon="-0.06018">
        <ele>188.4</ele>
      </trkpt>
      <trkpt lat="40.04449" lon="-0.0601">
        <ele>187.9</ele>
      </trkpt>
      <trkpt lat="40.04456" lon="-0.05998">
        <ele>187.5</ele>
      </trkpt>
      <trkpt lat="40.04459" lon="-0.05969">
        <ele>183.3</ele>
      </trkpt>
      <trkpt lat="40.0445" lon="-0.05927">
        <ele>183.3</ele>
      </trkpt>
      <trkpt lat="40.04437" lon="-0.05903">
        <ele>185.6</ele>
      </trkpt>
      <trkpt lat="40.04433" lon="-0.05902">
        <ele>185.4</ele>
      </trkpt>
      <trkpt lat="40.04425" lon="-0.05894">
        <ele>185.2</ele>
      </trkpt>
      <trkpt lat="40.04421" lon="-0.05881">
        <ele>184.9</ele>
      </trkpt>
      <trkpt lat="40.04422" lon="-0.05874">
        <ele>184.8</ele>
      </trkpt>
      <trkpt lat="40.04426" lon="-0.05861">
        <ele>184.7</ele>
      </trkpt>
      <trkpt lat="40.04431" lon="-0.05856">
        <ele>184.5</ele>
      </trkpt>
      <trkpt lat="40.04438" lon="-0.05853">
        <ele>184.7</ele>
      </trkpt>
      <trkpt lat="40.04444" lon="-0.05853">
        <ele>185.1</ele>
      </trkpt>
      <trkpt lat="40.0445" lon="-0.05855">
        <ele>185.4</ele>
      </trkpt>
      <trkpt lat="40.04456" lon="-0.05861">
        <ele>186</ele>
      </trkpt>
      <trkpt lat="40.04459" lon="-0.05868">
        <ele>186</ele>
      </trkpt>
      <trkpt lat="40.04469" lon="-0.05861">
        <ele>186</ele>
      </trkpt>
      <trkpt lat="40.04483" lon="-0.05851">
        <ele>185.4</ele>
      </trkpt>
      <trkpt lat="40.04544" lon="-0.05815">
        <ele>187</ele>
      </trkpt>
      <trkpt lat="40.04566" lon="-0.05805">
        <ele>188.4</ele>
      </trkpt>
      <trkpt lat="40.04612" lon="-0.0576">
        <ele>188.7</ele>
      </trkpt>
      <trkpt lat="40.04631" lon="-0.05737">
        <ele>188.1</ele>
      </trkpt>
      <trkpt lat="40.04666" lon="-0.05712">
        <ele>188.6</ele>
      </trkpt>
      <trkpt lat="40.04698" lon="-0.05678">
        <ele>188.1</ele>
      </trkpt>
      <trkpt lat="40.04713" lon="-0.05652">
        <ele>188.7</ele>
      </trkpt>
      <trkpt lat="40.04734" lon="-0.05585">
        <ele>187.9</ele>
      </trkpt>
      <trkpt lat="40.04745" lon="-0.05561">
        <ele>187.8</ele>
      </trkpt>
      <trkpt lat="40.04804" lon="-0.05553">
        <ele>191</ele>
      </trkpt>
      <trkpt lat="40.04819" lon="-0.0554">
        <ele>192</ele>
      </trkpt>
      <trkpt lat="40.04883" lon="-0.05458">
        <ele>193.1</ele>
      </trkpt>
      <trkpt lat="40.05054" lon="-0.05242">
        <ele>192.6</ele>
      </trkpt>
      <trkpt lat="40.051" lon="-0.05182">
        <ele>193.9</ele>
      </trkpt>
      <trkpt lat="40.05164" lon="-0.05093">
        <ele>195.8</ele>
      </trkpt>
      <trkpt lat="40.05262" lon="-0.04974">
        <ele>198.2</ele>
      </trkpt>
      <trkpt lat="40.05314" lon="-0.04903">
        <ele>201.3</ele>
      </trkpt>
      <trkpt lat="40.05408" lon="-0.04782">
        <ele>203.4</ele>
      </trkpt>
      <trkpt lat="40.05559" lon="-0.04586">
        <ele>206.1</ele>
      </trkpt>
      <trkpt lat="40.05599" lon="-0.0454">
        <ele>206.3</ele>
      </trkpt>
      <trkpt lat="40.05712" lon="-0.04388">
        <ele>210</ele>
      </trkpt>
      <trkpt lat="40.05761" lon="-0.04332">
        <ele>211.4</ele>
      </trkpt>
      <trkpt lat="40.05812" lon="-0.04268">
        <ele>213</ele>
      </trkpt>
      <trkpt lat="40.05842" lon="-0.04231">
        <ele>214.2</ele>
      </trkpt>
      <trkpt lat="40.0587" lon="-0.04185">
        <ele>215.1</ele>
      </trkpt>
      <trkpt lat="40.05894" lon="-0.04158">
        <ele>215.7</ele>
      </trkpt>
      <trkpt lat="40.05982" lon="-0.04044">
        <ele>217.1</ele>
      </trkpt>
      <trkpt lat="40.06023" lon="-0.03993">
        <ele>218.4</ele>
      </trkpt>
      <trkpt lat="40.06093" lon="-0.03906">
        <ele>219</ele>
      </trkpt>
      <trkpt lat="40.06116" lon="-0.03887">
        <ele>219.3</ele>
      </trkpt>
      <trkpt lat="40.06265" lon="-0.03742">
        <ele>220.3</ele>
      </trkpt>
      <trkpt lat="40.06277" lon="-0.03719">
        <ele>219.9</ele>
      </trkpt>
      <trkpt lat="40.06294" lon="-0.03671">
        <ele>219.1</ele>
      </trkpt>
      <trkpt lat="40.0631" lon="-0.03653">
        <ele>219</ele>
      </trkpt>
      <trkpt lat="40.06327" lon="-0.03642">
        <ele>219</ele>
      </trkpt>
      <trkpt lat="40.06343" lon="-0.03641">
        <ele>219</ele>
      </trkpt>
      <trkpt lat="40.06357" lon="-0.03643">
        <ele>219.1</ele>
      </trkpt>
      <trkpt lat="40.06369" lon="-0.03647">
        <ele>219.6</ele>
      </trkpt>
      <trkpt lat="40.06383" lon="-0.03643">
        <ele>219.9</ele>
      </trkpt>
      <trkpt lat="40.06435" lon="-0.03601">
        <ele>219.7</ele>
      </trkpt>
      <trkpt lat="40.06471" lon="-0.03563">
        <ele>220.2</ele>
      </trkpt>
      <trkpt lat="40.06546" lon="-0.03497">
        <ele>220.5</ele>
      </trkpt>
      <trkpt lat="40.06596" lon="-0.03451">
        <ele>220.1</ele>
      </trkpt>
      <trkpt lat="40.06629" lon="-0.03426">
        <ele>220</ele>
      </trkpt>
      <trkpt lat="40.06688" lon="-0.03367">
        <ele>219.9</ele>
      </trkpt>
      <trkpt lat="40.06732" lon="-0.03326">
        <ele>219.7</ele>
      </trkpt>
      <trkpt lat="40.06908" lon="-0.03168">
        <ele>219.7</ele>
      </trkpt>
      <trkpt lat="40.06986" lon="-0.03105">
        <ele>221.1</ele>
      </trkpt>
      <trkpt lat="40.07033" lon="-0.03064">
        <ele>222.1</ele>
      </trkpt>
      <trkpt lat="40.07091" lon="-0.03004">
        <ele>223.2</ele>
      </trkpt>
      <trkpt lat="40.07219" lon="-0.02887">
        <ele>225.8</ele>
      </trkpt>
      <trkpt lat="40.07522" lon="-0.02616">
        <ele>232.8</ele>
      </trkpt>
      <trkpt lat="40.07514" lon="-0.02581">
        <ele>231.5</ele>
      </trkpt>
      <trkpt lat="40.07505" lon="-0.02568">
        <ele>231.2</ele>
      </trkpt>
      <trkpt lat="40.07504" lon="-0.0256">
        <ele>231.1</ele>
      </trkpt>
      <trkpt lat="40.07506" lon="-0.02555">
        <ele>231.2</ele>
      </trkpt>
      <trkpt lat="40.07567" lon="-0.02519">
        <ele>236</ele>
      </trkpt>
      <trkpt lat="40.07574" lon="-0.02519">
        <ele>236.8</ele>
      </trkpt>
      <trkpt lat="40.07582" lon="-0.02522">
        <ele>238.4</ele>
      </trkpt>
      <trkpt lat="40.0759" lon="-0.0253">
        <ele>238.3</ele>
      </trkpt>
      <trkpt lat="40.07596" lon="-0.02541">
        <ele>236.4</ele>
      </trkpt>
      <trkpt lat="40.07625" lon="-0.026">
        <ele>236.9</ele>
      </trkpt>
      <trkpt lat="40.07633" lon="-0.02613">
        <ele>238.3</ele>
      </trkpt>
      <trkpt lat="40.07642" lon="-0.0262">
        <ele>238.6</ele>
      </trkpt>
      <trkpt lat="40.0765" lon="-0.02624">
        <ele>238.5</ele>
      </trkpt>
      <trkpt lat="40.07658" lon="-0.02624">
        <ele>238.5</ele>
      </trkpt>
      <trkpt lat="40.07667" lon="-0.02621">
        <ele>238.4</ele>
      </trkpt>
      <trkpt lat="40.07674" lon="-0.02613">
        <ele>238.6</ele>
      </trkpt>
      <trkpt lat="40.07681" lon="-0.02609">
        <ele>238.9</ele>
      </trkpt>
      <trkpt lat="40.07766" lon="-0.02542">
        <ele>239.1</ele>
      </trkpt>
      <trkpt lat="40.07792" lon="-0.02507">
        <ele>239.6</ele>
      </trkpt>
      <trkpt lat="40.07823" lon="-0.02461">
        <ele>239.6</ele>
      </trkpt>
      <trkpt lat="40.07848" lon="-0.02431">
        <ele>240.5</ele>
      </trkpt>
      <trkpt lat="40.07865" lon="-0.02411">
        <ele>241.3</ele>
      </trkpt>
      <trkpt lat="40.07891" lon="-0.02387">
        <ele>242.1</ele>
      </trkpt>
      <trkpt lat="40.07945" lon="-0.02337">
        <ele>244.1</ele>
      </trkpt>
      <trkpt lat="40.07974" lon="-0.02323">
        <ele>243.3</ele>
      </trkpt>
      <trkpt lat="40.0801" lon="-0.02287">
        <ele>242.9</ele>
      </trkpt>
      <trkpt lat="40.08019" lon="-0.02272">
        <ele>243.4</ele>
      </trkpt>
      <trkpt lat="40.08035" lon="-0.02255">
        <ele>244.3</ele>
      </trkpt>
      <trkpt lat="40.08083" lon="-0.02211">
        <ele>245.6</ele>
      </trkpt>
      <trkpt lat="40.08099" lon="-0.022">
        <ele>246</ele>
      </trkpt>
      <trkpt lat="40.08108" lon="-0.02196">
        <ele>246</ele>
      </trkpt>
      <trkpt lat="40.0812" lon="-0.02187">
        <ele>247.3</ele>
      </trkpt>
      <trkpt lat="40.08137" lon="-0.02156">
        <ele>248.5</ele>
      </trkpt>
      <trkpt lat="40.08205" lon="-0.02096">
        <ele>248.4</ele>
      </trkpt>
      <trkpt lat="40.08228" lon="-0.02066">
        <ele>248.6</ele>
      </trkpt>
      <trkpt lat="40.08275" lon="-0.02024">
        <ele>249.9</ele>
      </trkpt>
      <trkpt lat="40.08297" lon="-0.02006">
        <ele>250.7</ele>
      </trkpt>
      <trkpt lat="40.08325" lon="-0.01977">
        <ele>250.9</ele>
      </trkpt>
      <trkpt lat="40.08342" lon="-0.01963">
        <ele>250.8</ele>
      </trkpt>
      <trkpt lat="40.08361" lon="-0.01955">
        <ele>250.1</ele>
      </trkpt>
      <trkpt lat="40.0838" lon="-0.0194">
        <ele>250.2</ele>
      </trkpt>
      <trkpt lat="40.08483" lon="-0.01829">
        <ele>251.4</ele>
      </trkpt>
      <trkpt lat="40.08486" lon="-0.01811">
        <ele>253.8</ele>
      </trkpt>
      <trkpt lat="40.08493" lon="-0.01796">
        <ele>254.6</ele>
      </trkpt>
      <trkpt lat="40.08562" lon="-0.01723">
        <ele>257</ele>
      </trkpt>
      <trkpt lat="40.08581" lon="-0.01698">
        <ele>257.4</ele>
      </trkpt>
      <trkpt lat="40.08696" lon="-0.01572">
        <ele>261.7</ele>
      </trkpt>
      <trkpt lat="40.08718" lon="-0.01545">
        <ele>263.2</ele>
      </trkpt>
      <trkpt lat="40.08731" lon="-0.01521">
        <ele>264.8</ele>
      </trkpt>
      <trkpt lat="40.08736" lon="-0.01506">
        <ele>264.3</ele>
      </trkpt>
      <trkpt lat="40.08743" lon="-0.01495">
        <ele>262.8</ele>
      </trkpt>
      <trkpt lat="40.08753" lon="-0.0149">
        <ele>261.7</ele>
      </trkpt>
      <trkpt lat="40.08764" lon="-0.01457">
        <ele>263.5</ele>
      </trkpt>
      <trkpt lat="40.08791" lon="-0.01416">
        <ele>265.1</ele>
      </trkpt>
      <trkpt lat="40.0881" lon="-0.01382">
        <ele>267</ele>
      </trkpt>
      <trkpt lat="40.08818" lon="-0.01372">
        <ele>268.5</ele>
      </trkpt>
      <trkpt lat="40.08835" lon="-0.01362">
        <ele>266.3</ele>
      </trkpt>
      <trkpt lat="40.08849" lon="-0.01346">
        <ele>268.4</ele>
      </trkpt>
      <trkpt lat="40.08858" lon="-0.01334">
        <ele>268.1</ele>
      </trkpt>
      <trkpt lat="40.08866" lon="-0.01309">
        <ele>269.1</ele>
      </trkpt>
      <trkpt lat="40.08893" lon="-0.0128">
        <ele>271.4</ele>
      </trkpt>
      <trkpt lat="40.0891" lon="-0.01254">
        <ele>275.4</ele>
      </trkpt>
      <trkpt lat="40.08938" lon="-0.01219">
        <ele>278.3</ele>
      </trkpt>
      <trkpt lat="40.08959" lon="-0.01197">
        <ele>279.9</ele>
      </trkpt>
      <trkpt lat="40.08971" lon="-0.01176">
        <ele>280.5</ele>
      </trkpt>
      <trkpt lat="40.08981" lon="-0.01165">
        <ele>281.5</ele>
      </trkpt>
      <trkpt lat="40.09003" lon="-0.01157">
        <ele>284.2</ele>
      </trkpt>
      <trkpt lat="40.09019" lon="-0.01146">
        <ele>284.3</ele>
      </trkpt>
      <trkpt lat="40.09032" lon="-0.01128">
        <ele>284.6</ele>
      </trkpt>
      <trkpt lat="40.09045" lon="-0.01118">
        <ele>286.2</ele>
      </trkpt>
      <trkpt lat="40.09058" lon="-0.01103">
        <ele>287</ele>
      </trkpt>
      <trkpt lat="40.09061" lon="-0.01091">
        <ele>288.2</ele>
      </trkpt>
      <trkpt lat="40.09055" lon="-0.01074">
        <ele>288.2</ele>
      </trkpt>
      <trkpt lat="40.09063" lon="-0.01047">
        <ele>292.1</ele>
      </trkpt>
      <trkpt lat="40.09064" lon="-0.01026">
        <ele>294</ele>
      </trkpt>
      <trkpt lat="40.0907" lon="-0.01007">
        <ele>296.4</ele>
      </trkpt>
      <trkpt lat="40.09078" lon="-0.00988">
        <ele>297.8</ele>
      </trkpt>
      <trkpt lat="40.09098" lon="-0.00966">
        <ele>300.3</ele>
      </trkpt>
      <trkpt lat="40.09114" lon="-0.00955">
        <ele>303.1</ele>
      </trkpt>
      <trkpt lat="40.09133" lon="-0.00951">
        <ele>304.9</ele>
      </trkpt>
      <trkpt lat="40.09144" lon="-0.00946">
        <ele>308</ele>
      </trkpt>
      <trkpt lat="40.09153" lon="-0.00947">
        <ele>310.4</ele>
      </trkpt>
      <trkpt lat="40.09162" lon="-0.00955">
        <ele>311.2</ele>
      </trkpt>
      <trkpt lat="40.0917" lon="-0.00958">
        <ele>312.5</ele>
      </trkpt>
      <trkpt lat="40.09192" lon="-0.0096">
        <ele>314.6</ele>
      </trkpt>
      <trkpt lat="40.09207" lon="-0.00976">
        <ele>312.5</ele>
      </trkpt>
      <trkpt lat="40.09217" lon="-0.00983">
        <ele>312.8</ele>
      </trkpt>
      <trkpt lat="40.09227" lon="-0.00983">
        <ele>314.1</ele>
      </trkpt>
      <trkpt lat="40.09214" lon="-0.00974">
        <ele>315</ele>
      </trkpt>
      <trkpt lat="40.09195" lon="-0.00947">
        <ele>320.1</ele>
      </trkpt>
      <trkpt lat="40.09173" lon="-0.00912">
        <ele>323.1</ele>
      </trkpt>
      <trkpt lat="40.0917" lon="-0.00902">
        <ele>323.3</ele>
      </trkpt>
      <trkpt lat="40.0917" lon="-0.00892">
        <ele>323.8</ele>
      </trkpt>
      <trkpt lat="40.09175" lon="-0.00872">
        <ele>323</ele>
      </trkpt>
      <trkpt lat="40.09189" lon="-0.00836">
        <ele>322.6</ele>
      </trkpt>
      <trkpt lat="40.09196" lon="-0.00814">
        <ele>322.4</ele>
      </trkpt>
      <trkpt lat="40.09206" lon="-0.0076">
        <ele>321.8</ele>
      </trkpt>
      <trkpt lat="40.09214" lon="-0.0074">
        <ele>321</ele>
      </trkpt>
      <trkpt lat="40.09225" lon="-0.00698">
        <ele>319.3</ele>
      </trkpt>
      <trkpt lat="40.09227" lon="-0.00677">
        <ele>318.2</ele>
      </trkpt>
      <trkpt lat="40.09236" lon="-0.00668">
        <ele>318.6</ele>
      </trkpt>
      <trkpt lat="40.09243" lon="-0.00658">
        <ele>318.5</ele>
      </trkpt>
      <trkpt lat="40.09244" lon="-0.00649">
        <ele>317.7</ele>
      </trkpt>
      <trkpt lat="40.09244" lon="-0.00643">
        <ele>317.2</ele>
      </trkpt>
      <trkpt lat="40.09259" lon="-0.00632">
        <ele>318</ele>
      </trkpt>
      <trkpt lat="40.09358" lon="-0.00494">
        <ele>310.7</ele>
      </trkpt>
      <trkpt lat="40.09403" lon="-0.00426">
        <ele>308.5</ele>
      </trkpt>
      <trkpt lat="40.09503" lon="-0.0025">
        <ele>302.9</ele>
      </trkpt>
      <trkpt lat="40.09515" lon="-0.00233">
        <ele>303.3</ele>
      </trkpt>
      <trkpt lat="40.09524" lon="-0.00224">
        <ele>301.8</ele>
      </trkpt>
      <trkpt lat="40.09531" lon="-0.00222">
        <ele>300.8</ele>
      </trkpt>
      <trkpt lat="40.09538" lon="-0.00223">
        <ele>300.3</ele>
      </trkpt>
      <trkpt lat="40.09603" lon="-0.00254">
        <ele>299.4</ele>
      </trkpt>
      <trkpt lat="40.09616" lon="-0.00257">
        <ele>299.9</ele>
      </trkpt>
      <trkpt lat="40.09627" lon="-0.00257">
        <ele>300.8</ele>
      </trkpt>
      <trkpt lat="40.09639" lon="-0.00254">
        <ele>300.6</ele>
      </trkpt>
      <trkpt lat="40.09651" lon="-0.00247">
        <ele>302.2</ele>
      </trkpt>
      <trkpt lat="40.09683" lon="-0.00221">
        <ele>300.4</ele>
      </trkpt>
      <trkpt lat="40.09708" lon="-0.00214">
        <ele>300.9</ele>
      </trkpt>
      <trkpt lat="40.09776" lon="-0.00202">
        <ele>302.8</ele>
      </trkpt>
      <trkpt lat="40.098" lon="-0.00193">
        <ele>302</ele>
      </trkpt>
      <trkpt lat="40.09818" lon="-0.00185">
        <ele>303.2</ele>
      </trkpt>
      <trkpt lat="40.10041" lon="-0.00084">
        <ele>300</ele>
      </trkpt>
      <trkpt lat="40.10044" lon="-0.00082">
        <ele>299.9</ele>
      </trkpt>
      <trkpt lat="40.10052" lon="-0.00131">
        <ele>301.9</ele>
      </trkpt>
      <trkpt lat="40.10075" lon="-0.0014">
        <ele>302.1</ele>
      </trkpt>
      <trkpt lat="40.10119" lon="-0.00159">
        <ele>304.6</ele>
      </trkpt>
      <trkpt lat="40.10133" lon="-0.00159">
        <ele>304.1</ele>
      </trkpt>
      <trkpt lat="40.10183" lon="-0.00169">
        <ele>302.1</ele>
      </trkpt>
      <trkpt lat="40.10214" lon="-0.00178">
        <ele>301.4</ele>
      </trkpt>
      <trkpt lat="40.10244" lon="-0.00182">
        <ele>299.9</ele>
      </trkpt>
      <trkpt lat="40.10254" lon="-0.00162">
        <ele>298.9</ele>
      </trkpt>
      <trkpt lat="40.10262" lon="-0.0015">
        <ele>298.7</ele>
      </trkpt>
      <trkpt lat="40.10273" lon="-0.00138">
        <ele>298.8</ele>
      </trkpt>
      <trkpt lat="40.10282" lon="-0.00124">
        <ele>298.5</ele>
      </trkpt>
      <trkpt lat="40.10286" lon="-0.00112">
        <ele>298.3</ele>
      </trkpt>
      <trkpt lat="40.10311" lon="-0.00045">
        <ele>297.7</ele>
      </trkpt>
      <trkpt lat="40.10355" lon="0.00076">
        <ele>296.2</ele>
      </trkpt>
      <trkpt lat="40.10377" lon="0.00136">
        <ele>296.3</ele>
      </trkpt>
      <trkpt lat="40.10389" lon="0.00161">
        <ele>295.4</ele>
      </trkpt>
      <trkpt lat="40.10414" lon="0.00197">
        <ele>295.1</ele>
      </trkpt>
      <trkpt lat="40.10427" lon="0.00214">
        <ele>295.4</ele>
      </trkpt>
      <trkpt lat="40.10449" lon="0.00241">
        <ele>294</ele>
      </trkpt>
      <trkpt lat="40.10761" lon="0.00635">
        <ele>278.8</ele>
      </trkpt>
      <trkpt lat="40.10767" lon="0.00642">
        <ele>277.9</ele>
      </trkpt>
      <trkpt lat="40.10813" lon="0.00701">
        <ele>276.2</ele>
      </trkpt>
      <trkpt lat="40.10822" lon="0.00712">
        <ele>275.5</ele>
      </trkpt>
      <trkpt lat="40.10884" lon="0.0079">
        <ele>277.9</ele>
      </trkpt>
      <trkpt lat="40.10891" lon="0.00809">
        <ele>279</ele>
      </trkpt>
      <trkpt lat="40.10894" lon="0.00827">
        <ele>279.1</ele>
      </trkpt>
      <trkpt lat="40.10891" lon="0.00835">
        <ele>279.1</ele>
      </trkpt>
      <trkpt lat="40.10889" lon="0.0085">
        <ele>279</ele>
      </trkpt>
      <trkpt lat="40.10892" lon="0.00866">
        <ele>279.2</ele>
      </trkpt>
      <trkpt lat="40.10899" lon="0.00879">
        <ele>279.4</ele>
      </trkpt>
      <trkpt lat="40.10902" lon="0.00901">
        <ele>282.4</ele>
      </trkpt>
      <trkpt lat="40.109" lon="0.00906">
        <ele>283.7</ele>
      </trkpt>
      <trkpt lat="40.1089" lon="0.00934">
        <ele>283.4</ele>
      </trkpt>
      <trkpt lat="40.10888" lon="0.0094">
        <ele>282</ele>
      </trkpt>
      <trkpt lat="40.10874" lon="0.00953">
        <ele>281.2</ele>
      </trkpt>
      <trkpt lat="40.10859" lon="0.00957">
        <ele>281.6</ele>
      </trkpt>
      <trkpt lat="40.1085" lon="0.00972">
        <ele>282.8</ele>
      </trkpt>
      <trkpt lat="40.10849" lon="0.00986">
        <ele>283.2</ele>
      </trkpt>
      <trkpt lat="40.10839" lon="0.00998">
        <ele>283.8</ele>
      </trkpt>
      <trkpt lat="40.10829" lon="0.01004">
        <ele>284.1</ele>
      </trkpt>
      <trkpt lat="40.1083" lon="0.01015">
        <ele>284.5</ele>
      </trkpt>
      <trkpt lat="40.10904" lon="0.01035">
        <ele>284.5</ele>
      </trkpt>
      <trkpt lat="40.10919" lon="0.01034">
        <ele>283.9</ele>
      </trkpt>
      <trkpt lat="40.10927" lon="0.0103">
        <ele>283.3</ele>
      </trkpt>
      <trkpt lat="40.10937" lon="0.01028">
        <ele>282.5</ele>
      </trkpt>
      <trkpt lat="40.10946" lon="0.01031">
        <ele>282.2</ele>
      </trkpt>
      <trkpt lat="40.11027" lon="0.01083">
        <ele>283</ele>
      </trkpt>
      <trkpt lat="40.1106" lon="0.01109">
        <ele>283.2</ele>
      </trkpt>
      <trkpt lat="40.1109" lon="0.0114">
        <ele>284</ele>
      </trkpt>
      <trkpt lat="40.11121" lon="0.01178">
        <ele>284</ele>
      </trkpt>
      <trkpt lat="40.11536" lon="0.01719">
        <ele>295.4</ele>
      </trkpt>
      <trkpt lat="40.1162" lon="0.01837">
        <ele>299</ele>
      </trkpt>
      <trkpt lat="40.11697" lon="0.01954">
        <ele>303.4</ele>
      </trkpt>
      <trkpt lat="40.11758" lon="0.02052">
        <ele>308.2</ele>
      </trkpt>
      <trkpt lat="40.11806" lon="0.02115">
        <ele>309.2</ele>
      </trkpt>
      <trkpt lat="40.11847" lon="0.02156">
        <ele>309.6</ele>
      </trkpt>
      <trkpt lat="40.11886" lon="0.02189">
        <ele>307.2</ele>
      </trkpt>
      <trkpt lat="40.11916" lon="0.02209">
        <ele>305.6</ele>
      </trkpt>
      <trkpt lat="40.11964" lon="0.02235">
        <ele>302.2</ele>
      </trkpt>
      <trkpt lat="40.12027" lon="0.0226">
        <ele>298.1</ele>
      </trkpt>
      <trkpt lat="40.12086" lon="0.0228">
        <ele>293.9</ele>
      </trkpt>
      <trkpt lat="40.12118" lon="0.02294">
        <ele>292.3</ele>
      </trkpt>
      <trkpt lat="40.12151" lon="0.02314">
        <ele>291.6</ele>
      </trkpt>
      <trkpt lat="40.12194" lon="0.02347">
        <ele>290.5</ele>
      </trkpt>
      <trkpt lat="40.12234" lon="0.02382">
        <ele>289.1</ele>
      </trkpt>
      <trkpt lat="40.12261" lon="0.02397">
        <ele>287.8</ele>
      </trkpt>
      <trkpt lat="40.12295" lon="0.02406">
        <ele>286.9</ele>
      </trkpt>
      <trkpt lat="40.12354" lon="0.02419">
        <ele>286</ele>
      </trkpt>
      <trkpt lat="40.12398" lon="0.02431">
        <ele>286.2</ele>
      </trkpt>
      <trkpt lat="40.12449" lon="0.02448">
        <ele>285</ele>
      </trkpt>
      <trkpt lat="40.12527" lon="0.02484">
        <ele>279.2</ele>
      </trkpt>
      <trkpt lat="40.12677" lon="0.02557">
        <ele>275.2</ele>
      </trkpt>
      <trkpt lat="40.12702" lon="0.02566">
        <ele>275.2</ele>
      </trkpt>
      <trkpt lat="40.12741" lon="0.02577">
        <ele>276.5</ele>
      </trkpt>
      <trkpt lat="40.13694" lon="0.0309">
        <ele>262.8</ele>
      </trkpt>
      <trkpt lat="40.14215" lon="0.03368">
        <ele>253.9</ele>
      </trkpt>
      <trkpt lat="40.14246" lon="0.03388">
        <ele>254.9</ele>
      </trkpt>
      <trkpt lat="40.14274" lon="0.03405">
        <ele>255.9</ele>
      </trkpt>
      <trkpt lat="40.1429" lon="0.03415">
        <ele>255.2</ele>
      </trkpt>
      <trkpt lat="40.14314" lon="0.03431">
        <ele>255.1</ele>
      </trkpt>
      <trkpt lat="40.144" lon="0.03478">
        <ele>255.1</ele>
      </trkpt>
      <trkpt lat="40.14444" lon="0.03512">
        <ele>254.6</ele>
      </trkpt>
      <trkpt lat="40.14479" lon="0.03548">
        <ele>254.2</ele>
      </trkpt>
      <trkpt lat="40.14506" lon="0.03583">
        <ele>254.8</ele>
      </trkpt>
      <trkpt lat="40.14532" lon="0.03627">
        <ele>255.2</ele>
      </trkpt>
      <trkpt lat="40.14548" lon="0.0366">
        <ele>255.6</ele>
      </trkpt>
      <trkpt lat="40.14555" lon="0.03678">
        <ele>256.4</ele>
      </trkpt>
      <trkpt lat="40.14557" lon="0.03699">
        <ele>256.9</ele>
      </trkpt>
      <trkpt lat="40.14561" lon="0.03708">
        <ele>256.7</ele>
      </trkpt>
      <trkpt lat="40.14566" lon="0.03714">
        <ele>256.8</ele>
      </trkpt>
      <trkpt lat="40.14574" lon="0.03719">
        <ele>257.3</ele>
      </trkpt>
      <trkpt lat="40.14583" lon="0.03723">
        <ele>257.9</ele>
      </trkpt>
      <trkpt lat="40.14582" lon="0.03738">
        <ele>257.4</ele>
      </trkpt>
      <trkpt lat="40.14587" lon="0.03756">
        <ele>257.5</ele>
      </trkpt>
      <trkpt lat="40.14594" lon="0.03766">
        <ele>258.1</ele>
      </trkpt>
      <trkpt lat="40.14607" lon="0.03773">
        <ele>258.3</ele>
      </trkpt>
      <trkpt lat="40.14621" lon="0.03772">
        <ele>258.3</ele>
      </trkpt>
      <trkpt lat="40.14646" lon="0.03775">
        <ele>258</ele>
      </trkpt>
      <trkpt lat="40.14664" lon="0.03772">
        <ele>257.8</ele>
      </trkpt>
      <trkpt lat="40.14683" lon="0.03761">
        <ele>257.5</ele>
      </trkpt>
      <trkpt lat="40.14694" lon="0.03748">
        <ele>257.9</ele>
      </trkpt>
      <trkpt lat="40.14705" lon="0.03732">
        <ele>257.2</ele>
      </trkpt>
      <trkpt lat="40.14723" lon="0.03692">
        <ele>257.8</ele>
      </trkpt>
      <trkpt lat="40.14737" lon="0.03672">
        <ele>257</ele>
      </trkpt>
      <trkpt lat="40.14751" lon="0.03662">
        <ele>257.6</ele>
      </trkpt>
      <trkpt lat="40.14767" lon="0.03657">
        <ele>257.1</ele>
      </trkpt>
      <trkpt lat="40.14867" lon="0.03671">
        <ele>258</ele>
      </trkpt>
      <trkpt lat="40.1489" lon="0.03677">
        <ele>258</ele>
      </trkpt>
      <trkpt lat="40.15003" lon="0.03736">
        <ele>259.1</ele>
      </trkpt>
      <trkpt lat="40.15021" lon="0.03746">
        <ele>259.6</ele>
      </trkpt>
      <trkpt lat="40.15153" lon="0.03817">
        <ele>260.7</ele>
      </trkpt>
      <trkpt lat="40.15207" lon="0.03846">
        <ele>261.5</ele>
      </trkpt>
      <trkpt lat="40.15253" lon="0.03871">
        <ele>262</ele>
      </trkpt>
      <trkpt lat="40.15405" lon="0.03953">
        <ele>262.1</ele>
      </trkpt>
      <trkpt lat="40.15418" lon="0.0396">
        <ele>262.1</ele>
      </trkpt>
      <trkpt lat="40.15442" lon="0.03973">
        <ele>263</ele>
      </trkpt>
      <trkpt lat="40.15519" lon="0.04015">
        <ele>263</ele>
      </trkpt>
      <trkpt lat="40.15572" lon="0.04043">
        <ele>263.5</ele>
      </trkpt>
      <trkpt lat="40.15618" lon="0.04068">
        <ele>264.1</ele>
      </trkpt>
      <trkpt lat="40.15626" lon="0.04078">
        <ele>264.4</ele>
      </trkpt>
      <trkpt lat="40.15627" lon="0.04083">
        <ele>264.6</ele>
      </trkpt>
      <trkpt lat="40.1563" lon="0.04086">
        <ele>264.7</ele>
      </trkpt>
      <trkpt lat="40.15634" lon="0.04088">
        <ele>264.9</ele>
      </trkpt>
      <trkpt lat="40.15638" lon="0.04087">
        <ele>265</ele>
      </trkpt>
      <trkpt lat="40.15639" lon="0.04085">
        <ele>265</ele>
      </trkpt>
      <trkpt lat="40.15651" lon="0.04086">
        <ele>265</ele>
      </trkpt>
      <trkpt lat="40.15698" lon="0.04111">
        <ele>265.9</ele>
      </trkpt>
      <trkpt lat="40.15741" lon="0.04135">
        <ele>266.8</ele>
      </trkpt>
      <trkpt lat="40.15769" lon="0.04144">
        <ele>267.9</ele>
      </trkpt>
      <trkpt lat="40.1579" lon="0.04146">
        <ele>268.3</ele>
      </trkpt>
      <trkpt lat="40.15829" lon="0.04147">
        <ele>268.9</ele>
      </trkpt>
      <trkpt lat="40.15878" lon="0.04149">
        <ele>269</ele>
      </trkpt>
      <trkpt lat="40.15914" lon="0.04155">
        <ele>270.5</ele>
      </trkpt>
      <trkpt lat="40.15919" lon="0.04164">
        <ele>270.9</ele>
      </trkpt>
      <trkpt lat="40.15928" lon="0.04168">
        <ele>271</ele>
      </trkpt>
      <trkpt lat="40.15938" lon="0.04166">
        <ele>271</ele>
      </trkpt>
      <trkpt lat="40.15942" lon="0.04162">
        <ele>271</ele>
      </trkpt>
      <trkpt lat="40.15974" lon="0.04155">
        <ele>270.6</ele>
      </trkpt>
      <trkpt lat="40.166" lon="0.04173">
        <ele>271.8</ele>
      </trkpt>
      <trkpt lat="40.16641" lon="0.04187">
        <ele>272.8</ele>
      </trkpt>
      <trkpt lat="40.16646" lon="0.04194">
        <ele>273</ele>
      </trkpt>
      <trkpt lat="40.16652" lon="0.04198">
        <ele>273.2</ele>
      </trkpt>
      <trkpt lat="40.16658" lon="0.042">
        <ele>273.3</ele>
      </trkpt>
      <trkpt lat="40.16669" lon="0.0422">
        <ele>274</ele>
      </trkpt>
      <trkpt lat="40.16676" lon="0.04222">
        <ele>274.3</ele>
      </trkpt>
      <trkpt lat="40.16692" lon="0.04218">
        <ele>274.8</ele>
      </trkpt>
      <trkpt lat="40.16708" lon="0.04211">
        <ele>274.6</ele>
      </trkpt>
      <trkpt lat="40.16723" lon="0.04208">
        <ele>274.5</ele>
      </trkpt>
      <trkpt lat="40.1674" lon="0.04208">
        <ele>274.5</ele>
      </trkpt>
      <trkpt lat="40.1693" lon="0.04239">
        <ele>277.1</ele>
      </trkpt>
      <trkpt lat="40.16966" lon="0.04248">
        <ele>277.9</ele>
      </trkpt>
      <trkpt lat="40.16996" lon="0.04257">
        <ele>278.3</ele>
      </trkpt>
      <trkpt lat="40.17228" lon="0.04347">
        <ele>279.8</ele>
      </trkpt>
      <trkpt lat="40.17447" lon="0.04432">
        <ele>282.7</ele>
      </trkpt>
      <trkpt lat="40.1747" lon="0.04439">
        <ele>284</ele>
      </trkpt>
      <trkpt lat="40.17502" lon="0.04448">
        <ele>283</ele>
      </trkpt>
      <trkpt lat="40.17743" lon="0.04488">
        <ele>279.8</ele>
      </trkpt>
      <trkpt lat="40.18052" lon="0.0454">
        <ele>279</ele>
      </trkpt>
      <trkpt lat="40.18157" lon="0.04562">
        <ele>277.8</ele>
      </trkpt>
      <trkpt lat="40.18255" lon="0.04586">
        <ele>277.9</ele>
      </trkpt>
      <trkpt lat="40.18475" lon="0.04654">
        <ele>280.5</ele>
      </trkpt>
      <trkpt lat="40.18523" lon="0.04664">
        <ele>281</ele>
      </trkpt>
      <trkpt lat="40.18598" lon="0.04685">
        <ele>281.2</ele>
      </trkpt>
      <trkpt lat="40.18723" lon="0.04723">
        <ele>289.2</ele>
      </trkpt>
      <trkpt lat="40.18858" lon="0.04775">
        <ele>300.7</ele>
      </trkpt>
      <trkpt lat="40.19037" lon="0.04833">
        <ele>288.7</ele>
      </trkpt>
      <trkpt lat="40.19099" lon="0.04852">
        <ele>288.7</ele>
      </trkpt>
      <trkpt lat="40.19132" lon="0.04868">
        <ele>286.8</ele>
      </trkpt>
      <trkpt lat="40.19169" lon="0.04891">
        <ele>286.3</ele>
      </trkpt>
      <trkpt lat="40.1923" lon="0.04933">
        <ele>287.5</ele>
      </trkpt>
      <trkpt lat="40.19276" lon="0.04961">
        <ele>288.2</ele>
      </trkpt>
      <trkpt lat="40.19343" lon="0.05014">
        <ele>289.3</ele>
      </trkpt>
      <trkpt lat="40.19368" lon="0.05038">
        <ele>290.4</ele>
      </trkpt>
      <trkpt lat="40.19388" lon="0.05062">
        <ele>291.2</ele>
      </trkpt>
      <trkpt lat="40.19408" lon="0.05093">
        <ele>292</ele>
      </trkpt>
      <trkpt lat="40.1953" lon="0.05314">
        <ele>292.3</ele>
      </trkpt>
      <trkpt lat="40.19536" lon="0.0533">
        <ele>292.7</ele>
      </trkpt>
      <trkpt lat="40.1953" lon="0.05343">
        <ele>293.3</ele>
      </trkpt>
      <trkpt lat="40.1953" lon="0.0535">
        <ele>293.5</ele>
      </trkpt>
      <trkpt lat="40.19534" lon="0.05364">
        <ele>293.9</ele>
      </trkpt>
      <trkpt lat="40.19537" lon="0.05369">
        <ele>294</ele>
      </trkpt>
      <trkpt lat="40.19541" lon="0.05372">
        <ele>294.1</ele>
      </trkpt>
      <trkpt lat="40.19551" lon="0.05374">
        <ele>294</ele>
      </trkpt>
      <trkpt lat="40.19561" lon="0.05368">
        <ele>294.2</ele>
      </trkpt>
      <trkpt lat="40.19565" lon="0.05362">
        <ele>294.7</ele>
      </trkpt>
      <trkpt lat="40.19567" lon="0.05355">
        <ele>294.5</ele>
      </trkpt>
      <trkpt lat="40.19568" lon="0.05347">
        <ele>293.8</ele>
      </trkpt>
      <trkpt lat="40.19582" lon="0.05329">
        <ele>293.7</ele>
      </trkpt>
      <trkpt lat="40.19588" lon="0.05326">
        <ele>295.4</ele>
      </trkpt>
      <trkpt lat="40.19628" lon="0.05301">
        <ele>296.9</ele>
      </trkpt>
      <trkpt lat="40.19631" lon="0.053">
        <ele>296.3</ele>
      </trkpt>
      <trkpt lat="40.19644" lon="0.05299">
        <ele>295</ele>
      </trkpt>
      <trkpt lat="40.19653" lon="0.05306">
        <ele>295.6</ele>
      </trkpt>
      <trkpt lat="40.19665" lon="0.05306">
        <ele>296</ele>
      </trkpt>
      <trkpt lat="40.19674" lon="0.05297">
        <ele>296.1</ele>
      </trkpt>
      <trkpt lat="40.19677" lon="0.05286">
        <ele>296.3</ele>
      </trkpt>
      <trkpt lat="40.19677" lon="0.0528">
        <ele>296.3</ele>
      </trkpt>
      <trkpt lat="40.19687" lon="0.05277">
        <ele>296.7</ele>
      </trkpt>
      <trkpt lat="40.19694" lon="0.05281">
        <ele>296.9</ele>
      </trkpt>
      <trkpt lat="40.19696" lon="0.05291">
        <ele>296.4</ele>
      </trkpt>
      <trkpt lat="40.19689" lon="0.05319">
        <ele>296.1</ele>
      </trkpt>
      <trkpt lat="40.1969" lon="0.05329">
        <ele>296.1</ele>
      </trkpt>
      <trkpt lat="40.19694" lon="0.0534">
        <ele>296.3</ele>
      </trkpt>
      <trkpt lat="40.19745" lon="0.05414">
        <ele>296.1</ele>
      </trkpt>
      <trkpt lat="40.19767" lon="0.05437">
        <ele>296.1</ele>
      </trkpt>
      <trkpt lat="40.19804" lon="0.05473">
        <ele>296.1</ele>
      </trkpt>
      <trkpt lat="40.19826" lon="0.05489">
        <ele>296.8</ele>
      </trkpt>
      <trkpt lat="40.19868" lon="0.05512">
        <ele>296.8</ele>
      </trkpt>
      <trkpt lat="40.19896" lon="0.05531">
        <ele>297.2</ele>
      </trkpt>
      <trkpt lat="40.19927" lon="0.05558">
        <ele>298.1</ele>
      </trkpt>
      <trkpt lat="40.19945" lon="0.05576">
        <ele>298.7</ele>
      </trkpt>
      <trkpt lat="40.19968" lon="0.05623">
        <ele>299.7</ele>
      </trkpt>
      <trkpt lat="40.19976" lon="0.05633">
        <ele>299.9</ele>
      </trkpt>
      <trkpt lat="40.19982" lon="0.05633">
        <ele>300.1</ele>
      </trkpt>
      <trkpt lat="40.1999" lon="0.05625">
        <ele>300.1</ele>
      </trkpt>
      <trkpt lat="40.20007" lon="0.056">
        <ele>299.3</ele>
      </trkpt>
      <trkpt lat="40.20031" lon="0.05559">
        <ele>297.8</ele>
      </trkpt>
      <trkpt lat="40.20036" lon="0.05553">
        <ele>297.3</ele>
      </trkpt>
      <trkpt lat="40.20086" lon="0.05511">
        <ele>294.5</ele>
      </trkpt>
      <trkpt lat="40.20232" lon="0.05388">
        <ele>292.6</ele>
      </trkpt>
      <trkpt lat="40.20301" lon="0.05331">
        <ele>292.9</ele>
      </trkpt>
      <trkpt lat="40.20315" lon="0.0532">
        <ele>292.7</ele>
      </trkpt>
      <trkpt lat="40.20383" lon="0.05262">
        <ele>298.5</ele>
      </trkpt>
      <trkpt lat="40.20499" lon="0.05165">
        <ele>304</ele>
      </trkpt>
      <trkpt lat="40.20503" lon="0.05161">
        <ele>303.9</ele>
      </trkpt>
      <trkpt lat="40.20718" lon="0.04981">
        <ele>302.9</ele>
      </trkpt>
      <trkpt lat="40.20733" lon="0.0497">
        <ele>303</ele>
      </trkpt>
      <trkpt lat="40.20745" lon="0.04975">
        <ele>303</ele>
      </trkpt>
      <trkpt lat="40.20759" lon="0.04995">
        <ele>303</ele>
      </trkpt>
      <trkpt lat="40.20942" lon="0.05366">
        <ele>305.8</ele>
      </trkpt>
      <trkpt lat="40.21105" lon="0.05697">
        <ele>308.2</ele>
      </trkpt>
      <trkpt lat="40.21127" lon="0.05741">
        <ele>310.1</ele>
      </trkpt>
      <trkpt lat="40.2133" lon="0.06152">
        <ele>324.1</ele>
      </trkpt>
      <trkpt lat="40.2138" lon="0.06254">
        <ele>330.7</ele>
      </trkpt>
      <trkpt lat="40.2139" lon="0.06274">
        <ele>330.9</ele>
      </trkpt>
      <trkpt lat="40.21756" lon="0.07016">
        <ele>339.3</ele>
      </trkpt>
      <trkpt lat="40.21927" lon="0.07363">
        <ele>344.1</ele>
      </trkpt>
      <trkpt lat="40.21943" lon="0.07394">
        <ele>345.4</ele>
      </trkpt>
      <trkpt lat="40.22129" lon="0.0777">
        <ele>346.8</ele>
      </trkpt>
      <trkpt lat="40.22406" lon="0.08331">
        <ele>364.8</ele>
      </trkpt>
      <trkpt lat="40.2244" lon="0.08401">
        <ele>369.5</ele>
      </trkpt>
      <trkpt lat="40.22505" lon="0.08533">
        <ele>370.8</ele>
      </trkpt>
      <trkpt lat="40.22517" lon="0.08551">
        <ele>370.4</ele>
      </trkpt>
      <trkpt lat="40.22689" lon="0.08392">
        <ele>366</ele>
      </trkpt>
      <trkpt lat="40.22706" lon="0.08371">
        <ele>366.1</ele>
      </trkpt>
      <trkpt lat="40.22777" lon="0.0826">
        <ele>360.1</ele>
      </trkpt>
      <trkpt lat="40.22788" lon="0.08247">
        <ele>359.7</ele>
      </trkpt>
      <trkpt lat="40.22801" lon="0.08236">
        <ele>358.8</ele>
      </trkpt>
      <trkpt lat="40.22867" lon="0.08189">
        <ele>354.6</ele>
      </trkpt>
      <trkpt lat="40.22886" lon="0.08176">
        <ele>353.4</ele>
      </trkpt>
      <trkpt lat="40.22904" lon="0.08162">
        <ele>352.4</ele>
      </trkpt>
      <trkpt lat="40.22911" lon="0.08151">
        <ele>352.1</ele>
      </trkpt>
      <trkpt lat="40.22917" lon="0.08136">
        <ele>351.9</ele>
      </trkpt>
      <trkpt lat="40.22919" lon="0.08114">
        <ele>351.2</ele>
      </trkpt>
      <trkpt lat="40.22926" lon="0.07981">
        <ele>350.7</ele>
      </trkpt>
      <trkpt lat="40.22931" lon="0.07952">
        <ele>350.3</ele>
      </trkpt>
      <trkpt lat="40.22943" lon="0.07911">
        <ele>350.9</ele>
      </trkpt>
      <trkpt lat="40.22948" lon="0.07898">
        <ele>351.3</ele>
      </trkpt>
      <trkpt lat="40.22957" lon="0.07884">
        <ele>351.7</ele>
      </trkpt>
      <trkpt lat="40.23008" lon="0.07836">
        <ele>352.4</ele>
      </trkpt>
      <trkpt lat="40.23181" lon="0.0774">
        <ele>348.5</ele>
      </trkpt>
      <trkpt lat="40.23191" lon="0.0773">
        <ele>348.1</ele>
      </trkpt>
      <trkpt lat="40.232" lon="0.07715">
        <ele>348.1</ele>
      </trkpt>
      <trkpt lat="40.23204" lon="0.07704">
        <ele>348.3</ele>
      </trkpt>
      <trkpt lat="40.23212" lon="0.07681">
        <ele>347.9</ele>
      </trkpt>
      <trkpt lat="40.23219" lon="0.07669">
        <ele>347.2</ele>
      </trkpt>
      <trkpt lat="40.23232" lon="0.07668">
        <ele>347</ele>
      </trkpt>
      <trkpt lat="40.23369" lon="0.07653">
        <ele>348.3</ele>
      </trkpt>
      <trkpt lat="40.23405" lon="0.0765">
        <ele>349.3</ele>
      </trkpt>
      <trkpt lat="40.23418" lon="0.07641">
        <ele>349.9</ele>
      </trkpt>
      <trkpt lat="40.23461" lon="0.07478">
        <ele>352.5</ele>
      </trkpt>
      <trkpt lat="40.23466" lon="0.07447">
        <ele>352.8</ele>
      </trkpt>
      <trkpt lat="40.23486" lon="0.07398">
        <ele>350.2</ele>
      </trkpt>
      <trkpt lat="40.23489" lon="0.07381">
        <ele>349</ele>
      </trkpt>
      <trkpt lat="40.23522" lon="0.07377">
        <ele>347.8</ele>
      </trkpt>
      <trkpt lat="40.23616" lon="0.07384">
        <ele>344.7</ele>
      </trkpt>
      <trkpt lat="40.23635" lon="0.07382">
        <ele>344.7</ele>
      </trkpt>
      <trkpt lat="40.23659" lon="0.07372">
        <ele>345.4</ele>
      </trkpt>
      <trkpt lat="40.23678" lon="0.07357">
        <ele>345.6</ele>
      </trkpt>
      <trkpt lat="40.23754" lon="0.07286">
        <ele>345.4</ele>
      </trkpt>
      <trkpt lat="40.23923" lon="0.07128">
        <ele>342.8</ele>
      </trkpt>
      <trkpt lat="40.2394" lon="0.07118">
        <ele>342.2</ele>
      </trkpt>
      <trkpt lat="40.23957" lon="0.07123">
        <ele>340.5</ele>
      </trkpt>
      <trkpt lat="40.23975" lon="0.07138">
        <ele>337.4</ele>
      </trkpt>
      <trkpt lat="40.23993" lon="0.07161">
        <ele>336.3</ele>
      </trkpt>
      <trkpt lat="40.24069" lon="0.07282">
        <ele>330</ele>
      </trkpt>
      <trkpt lat="40.24086" lon="0.07314">
        <ele>327</ele>
      </trkpt>
      <trkpt lat="40.24183" lon="0.07608">
        <ele>314.6</ele>
      </trkpt>
      <trkpt lat="40.24185" lon="0.07626">
        <ele>314.4</ele>
      </trkpt>
      <trkpt lat="40.24178" lon="0.07679">
        <ele>311.8</ele>
      </trkpt>
      <trkpt lat="40.24179" lon="0.07692">
        <ele>310</ele>
      </trkpt>
      <trkpt lat="40.24184" lon="0.07709">
        <ele>309.5</ele>
      </trkpt>
      <trkpt lat="40.24194" lon="0.07721">
        <ele>309</ele>
      </trkpt>
      <trkpt lat="40.24254" lon="0.07759">
        <ele>304.4</ele>
      </trkpt>
      <trkpt lat="40.24286" lon="0.07772">
        <ele>302.6</ele>
      </trkpt>
      <trkpt lat="40.24427" lon="0.0782">
        <ele>295.8</ele>
      </trkpt>
      <trkpt lat="40.24444" lon="0.07828">
        <ele>294.5</ele>
      </trkpt>
      <trkpt lat="40.24484" lon="0.07865">
        <ele>291.4</ele>
      </trkpt>
      <trkpt lat="40.24502" lon="0.07876">
        <ele>289.3</ele>
      </trkpt>
      <trkpt lat="40.24518" lon="0.07881">
        <ele>287.6</ele>
      </trkpt>
      <trkpt lat="40.24547" lon="0.07885">
        <ele>285.4</ele>
      </trkpt>
      <trkpt lat="40.24561" lon="0.07885">
        <ele>285.1</ele>
      </trkpt>
      <trkpt lat="40.24575" lon="0.07878">
        <ele>285.3</ele>
      </trkpt>
      <trkpt lat="40.24582" lon="0.07867">
        <ele>285.2</ele>
      </trkpt>
      <trkpt lat="40.24588" lon="0.07847">
        <ele>284.9</ele>
      </trkpt>
      <trkpt lat="40.24598" lon="0.07774">
        <ele>281.8</ele>
      </trkpt>
      <trkpt lat="40.24604" lon="0.07745">
        <ele>280.4</ele>
      </trkpt>
      <trkpt lat="40.24613" lon="0.07722">
        <ele>278.3</ele>
      </trkpt>
      <trkpt lat="40.24628" lon="0.07697">
        <ele>278.1</ele>
      </trkpt>
      <trkpt lat="40.2464" lon="0.07684">
        <ele>277.9</ele>
      </trkpt>
      <trkpt lat="40.24655" lon="0.07677">
        <ele>277.5</ele>
      </trkpt>
      <trkpt lat="40.24835" lon="0.07648">
        <ele>270.9</ele>
      </trkpt>
      <trkpt lat="40.24853" lon="0.07648">
        <ele>270</ele>
      </trkpt>
      <trkpt lat="40.24904" lon="0.0766">
        <ele>269.8</ele>
      </trkpt>
      <trkpt lat="40.24983" lon="0.07655">
        <ele>264.2</ele>
      </trkpt>
      <trkpt lat="40.25078" lon="0.07673">
        <ele>260.2</ele>
      </trkpt>
      <trkpt lat="40.25097" lon="0.07673">
        <ele>259.4</ele>
      </trkpt>
      <trkpt lat="40.25111" lon="0.07669">
        <ele>258.3</ele>
      </trkpt>
      <trkpt lat="40.25125" lon="0.0766">
        <ele>257</ele>
      </trkpt>
      <trkpt lat="40.25134" lon="0.07651">
        <ele>256.4</ele>
      </trkpt>
      <trkpt lat="40.25144" lon="0.07641">
        <ele>256.2</ele>
      </trkpt>
      <trkpt lat="40.2527" lon="0.07512">
        <ele>262.4</ele>
      </trkpt>
      <trkpt lat="40.25302" lon="0.07486">
        <ele>264.3</ele>
      </trkpt>
      <trkpt lat="40.25316" lon="0.07482">
        <ele>264.4</ele>
      </trkpt>
      <trkpt lat="40.25335" lon="0.07487">
        <ele>264</ele>
      </trkpt>
      <trkpt lat="40.25374" lon="0.07515">
        <ele>262.2</ele>
      </trkpt>
      <trkpt lat="40.25455" lon="0.07567">
        <ele>264.1</ele>
      </trkpt>
      <trkpt lat="40.25474" lon="0.07576">
        <ele>265</ele>
      </trkpt>
      <trkpt lat="40.2564" lon="0.07685">
        <ele>269</ele>
      </trkpt>
      <trkpt lat="40.25696" lon="0.07721">
        <ele>271</ele>
      </trkpt>
      <trkpt lat="40.25777" lon="0.07777">
        <ele>273.9</ele>
      </trkpt>
      <trkpt lat="40.25814" lon="0.07794">
        <ele>275.5</ele>
      </trkpt>
      <trkpt lat="40.2583" lon="0.07819">
        <ele>275.8</ele>
      </trkpt>
      <trkpt lat="40.2584" lon="0.0784">
        <ele>276</ele>
      </trkpt>
      <trkpt lat="40.25852" lon="0.07878">
        <ele>276.1</ele>
      </trkpt>
      <trkpt lat="40.25867" lon="0.07954">
        <ele>279.3</ele>
      </trkpt>
      <trkpt lat="40.25876" lon="0.07983">
        <ele>279.6</ele>
      </trkpt>
      <trkpt lat="40.25913" lon="0.0805">
        <ele>279.6</ele>
      </trkpt>
      <trkpt lat="40.2592" lon="0.08056">
        <ele>278.9</ele>
      </trkpt>
      <trkpt lat="40.25931" lon="0.08057">
        <ele>278.5</ele>
      </trkpt>
      <trkpt lat="40.25942" lon="0.08074">
        <ele>278.1</ele>
      </trkpt>
      <trkpt lat="40.25968" lon="0.08083">
        <ele>276.4</ele>
      </trkpt>
      <trkpt lat="40.26004" lon="0.0809">
        <ele>275.2</ele>
      </trkpt>
      <trkpt lat="40.26025" lon="0.08102">
        <ele>273.7</ele>
      </trkpt>
      <trkpt lat="40.26032" lon="0.08111">
        <ele>273</ele>
      </trkpt>
      <trkpt lat="40.26069" lon="0.0813">
        <ele>271.5</ele>
      </trkpt>
      <trkpt lat="40.26097" lon="0.08136">
        <ele>269.3</ele>
      </trkpt>
      <trkpt lat="40.26116" lon="0.08145">
        <ele>267.3</ele>
      </trkpt>
      <trkpt lat="40.26142" lon="0.08172">
        <ele>263.8</ele>
      </trkpt>
      <trkpt lat="40.26187" lon="0.08212">
        <ele>260.3</ele>
      </trkpt>
      <trkpt lat="40.26248" lon="0.08273">
        <ele>255.1</ele>
      </trkpt>
      <trkpt lat="40.26267" lon="0.08287">
        <ele>253.9</ele>
      </trkpt>
      <trkpt lat="40.26315" lon="0.08306">
        <ele>252</ele>
      </trkpt>
      <trkpt lat="40.26346" lon="0.08325">
        <ele>249.4</ele>
      </trkpt>
      <trkpt lat="40.26373" lon="0.0835">
        <ele>246.4</ele>
      </trkpt>
      <trkpt lat="40.26404" lon="0.08369">
        <ele>244.2</ele>
      </trkpt>
      <trkpt lat="40.26452" lon="0.08392">
        <ele>240.7</ele>
      </trkpt>
      <trkpt lat="40.26473" lon="0.08409">
        <ele>240</ele>
      </trkpt>
      <trkpt lat="40.265" lon="0.08438">
        <ele>238</ele>
      </trkpt>
      <trkpt lat="40.26534" lon="0.08477">
        <ele>236.6</ele>
      </trkpt>
      <trkpt lat="40.26567" lon="0.08491">
        <ele>234.8</ele>
      </trkpt>
      <trkpt lat="40.2659" lon="0.08506">
        <ele>232.9</ele>
      </trkpt>
      <trkpt lat="40.26639" lon="0.08526">
        <ele>231.1</ele>
      </trkpt>
      <trkpt lat="40.26646" lon="0.08525">
        <ele>231.3</ele>
      </trkpt>
      <trkpt lat="40.26649" lon="0.08523">
        <ele>231.5</ele>
      </trkpt>
      <trkpt lat="40.2666" lon="0.08532">
        <ele>231.4</ele>
      </trkpt>
      <trkpt lat="40.26685" lon="0.08544">
        <ele>230.9</ele>
      </trkpt>
      <trkpt lat="40.26701" lon="0.08548">
        <ele>230.8</ele>
      </trkpt>
      <trkpt lat="40.26747" lon="0.08544">
        <ele>231.2</ele>
      </trkpt>
      <trkpt lat="40.26772" lon="0.08547">
        <ele>232.2</ele>
      </trkpt>
      <trkpt lat="40.26794" lon="0.08551">
        <ele>233</ele>
      </trkpt>
      <trkpt lat="40.26809" lon="0.08558">
        <ele>233.4</ele>
      </trkpt>
      <trkpt lat="40.26821" lon="0.08569">
        <ele>234.6</ele>
      </trkpt>
      <trkpt lat="40.26834" lon="0.08588">
        <ele>236.6</ele>
      </trkpt>
      <trkpt lat="40.26843" lon="0.08612">
        <ele>239.3</ele>
      </trkpt>
      <trkpt lat="40.26859" lon="0.08645">
        <ele>239.9</ele>
      </trkpt>
      <trkpt lat="40.26924" lon="0.0874">
        <ele>241.3</ele>
      </trkpt>
      <trkpt lat="40.26945" lon="0.08766">
        <ele>241.4</ele>
      </trkpt>
      <trkpt lat="40.27057" lon="0.08872">
        <ele>242.6</ele>
      </trkpt>
      <trkpt lat="40.27072" lon="0.08889">
        <ele>242</ele>
      </trkpt>
      <trkpt lat="40.27099" lon="0.08918">
        <ele>242</ele>
      </trkpt>
      <trkpt lat="40.27175" lon="0.09035">
        <ele>240.7</ele>
      </trkpt>
      <trkpt lat="40.27248" lon="0.09066">
        <ele>239.3</ele>
      </trkpt>
      <trkpt lat="40.27265" lon="0.09076">
        <ele>239.9</ele>
      </trkpt>
      <trkpt lat="40.27307" lon="0.09108">
        <ele>242.2</ele>
      </trkpt>
      <trkpt lat="40.27337" lon="0.09126">
        <ele>243.7</ele>
      </trkpt>
      <trkpt lat="40.27353" lon="0.09141">
        <ele>244.5</ele>
      </trkpt>
      <trkpt lat="40.2736" lon="0.09131">
        <ele>245.2</ele>
      </trkpt>
      <trkpt lat="40.27401" lon="0.09171">
        <ele>246.5</ele>
      </trkpt>
      <trkpt lat="40.27431" lon="0.09195">
        <ele>246</ele>
      </trkpt>
      <trkpt lat="40.27463" lon="0.09217">
        <ele>246.5</ele>
      </trkpt>
      <trkpt lat="40.27506" lon="0.0924">
        <ele>245.2</ele>
      </trkpt>
      <trkpt lat="40.27531" lon="0.09251">
        <ele>244.8</ele>
      </trkpt>
      <trkpt lat="40.2786" lon="0.09392">
        <ele>239.9</ele>
      </trkpt>
      <trkpt lat="40.27945" lon="0.09427">
        <ele>239.6</ele>
      </trkpt>
      <trkpt lat="40.27951" lon="0.09429">
        <ele>239.7</ele>
      </trkpt>
      <trkpt lat="40.28045" lon="0.09463">
        <ele>234.5</ele>
      </trkpt>
      <trkpt lat="40.2814" lon="0.09492">
        <ele>226.9</ele>
      </trkpt>
      <trkpt lat="40.28147" lon="0.09494">
        <ele>227</ele>
      </trkpt>
      <trkpt lat="40.28272" lon="0.09534">
        <ele>225.2</ele>
      </trkpt>
      <trkpt lat="40.2832" lon="0.09549">
        <ele>226.6</ele>
      </trkpt>
      <trkpt lat="40.28386" lon="0.09572">
        <ele>226.3</ele>
      </trkpt>
      <trkpt lat="40.28419" lon="0.09586">
        <ele>225.9</ele>
      </trkpt>
      <trkpt lat="40.28479" lon="0.09612">
        <ele>225.7</ele>
      </trkpt>
      <trkpt lat="40.28657" lon="0.09698">
        <ele>226.4</ele>
      </trkpt>
      <trkpt lat="40.28669" lon="0.09703">
        <ele>226.4</ele>
      </trkpt>
      <trkpt lat="40.28681" lon="0.09709">
        <ele>226.2</ele>
      </trkpt>
      <trkpt lat="40.28691" lon="0.09714">
        <ele>226.2</ele>
      </trkpt>
      <trkpt lat="40.28748" lon="0.09741">
        <ele>227</ele>
      </trkpt>
      <trkpt lat="40.28821" lon="0.09778">
        <ele>227</ele>
      </trkpt>
      <trkpt lat="40.28892" lon="0.09819">
        <ele>227.5</ele>
      </trkpt>
      <trkpt lat="40.29084" lon="0.09941">
        <ele>224.4</ele>
      </trkpt>
      <trkpt lat="40.2911" lon="0.09958">
        <ele>222.1</ele>
      </trkpt>
      <trkpt lat="40.2928" lon="0.10068">
        <ele>224.1</ele>
      </trkpt>
      <trkpt lat="40.29315" lon="0.10096">
        <ele>223.3</ele>
      </trkpt>
      <trkpt lat="40.29362" lon="0.10143">
        <ele>223.9</ele>
      </trkpt>
      <trkpt lat="40.29495" lon="0.10288">
        <ele>218.7</ele>
      </trkpt>
      <trkpt lat="40.29634" lon="0.10439">
        <ele>213.9</ele>
      </trkpt>
      <trkpt lat="40.29687" lon="0.10492">
        <ele>211.5</ele>
      </trkpt>
      <trkpt lat="40.29706" lon="0.1051">
        <ele>210.4</ele>
      </trkpt>
      <trkpt lat="40.3004" lon="0.10788">
        <ele>198.6</ele>
      </trkpt>
      <trkpt lat="40.30309" lon="0.1101">
        <ele>188</ele>
      </trkpt>
      <trkpt lat="40.30418" lon="0.111">
        <ele>185</ele>
      </trkpt>
      <trkpt lat="40.30505" lon="0.11172">
        <ele>186</ele>
      </trkpt>
      <trkpt lat="40.30582" lon="0.11237">
        <ele>186.4</ele>
      </trkpt>
      <trkpt lat="40.30595" lon="0.11252">
        <ele>186.4</ele>
      </trkpt>
      <trkpt lat="40.30638" lon="0.11297">
        <ele>186</ele>
      </trkpt>
      <trkpt lat="40.3065" lon="0.11313">
        <ele>186</ele>
      </trkpt>
      <trkpt lat="40.30662" lon="0.11337">
        <ele>186</ele>
      </trkpt>
      <trkpt lat="40.30663" lon="0.11348">
        <ele>186</ele>
      </trkpt>
      <trkpt lat="40.30666" lon="0.11354">
        <ele>186</ele>
      </trkpt>
      <trkpt lat="40.30671" lon="0.1136">
        <ele>186</ele>
      </trkpt>
      <trkpt lat="40.3068" lon="0.11389">
        <ele>185</ele>
      </trkpt>
      <trkpt lat="40.30685" lon="0.11398">
        <ele>185</ele>
      </trkpt>
      <trkpt lat="40.30687" lon="0.11405">
        <ele>185</ele>
      </trkpt>
      <trkpt lat="40.30708" lon="0.11467">
        <ele>183.7</ele>
      </trkpt>
      <trkpt lat="40.30739" lon="0.11559">
        <ele>181.6</ele>
      </trkpt>
      <trkpt lat="40.30743" lon="0.1157">
        <ele>180.6</ele>
      </trkpt>
      <trkpt lat="40.30752" lon="0.11597">
        <ele>178.7</ele>
      </trkpt>
      <trkpt lat="40.30764" lon="0.11635">
        <ele>178.7</ele>
      </trkpt>
      <trkpt lat="40.30804" lon="0.11754">
        <ele>179.9</ele>
      </trkpt>
      <trkpt lat="40.3082" lon="0.11801">
        <ele>180.5</ele>
      </trkpt>
      <trkpt lat="40.30832" lon="0.11837">
        <ele>181</ele>
      </trkpt>
      <trkpt lat="40.30877" lon="0.11973">
        <ele>180.6</ele>
      </trkpt>
      <trkpt lat="40.30899" lon="0.12042">
        <ele>180.4</ele>
      </trkpt>
      <trkpt lat="40.30919" lon="0.121">
        <ele>181.1</ele>
      </trkpt>
      <trkpt lat="40.30936" lon="0.12151">
        <ele>183.3</ele>
      </trkpt>
      <trkpt lat="40.30938" lon="0.12159">
        <ele>183.7</ele>
      </trkpt>
      <trkpt lat="40.30945" lon="0.12173">
        <ele>184.7</ele>
      </trkpt>
      <trkpt lat="40.30983" lon="0.12181">
        <ele>186.7</ele>
      </trkpt>
      <trkpt lat="40.3099" lon="0.1218">
        <ele>186.8</ele>
      </trkpt>
      <trkpt lat="40.31004" lon="0.12172">
        <ele>187.1</ele>
      </trkpt>
      <trkpt lat="40.31075" lon="0.12136">
        <ele>185.9</ele>
      </trkpt>
      <trkpt lat="40.31121" lon="0.12129">
        <ele>184</ele>
      </trkpt>
      <trkpt lat="40.31167" lon="0.12129">
        <ele>182.3</ele>
      </trkpt>
      <trkpt lat="40.31194" lon="0.1213">
        <ele>180.4</ele>
      </trkpt>
      <trkpt lat="40.31207" lon="0.12134">
        <ele>179.6</ele>
      </trkpt>
      <trkpt lat="40.31212" lon="0.12135">
        <ele>179.4</ele>
      </trkpt>
      <trkpt lat="40.31295" lon="0.12154">
        <ele>176.3</ele>
      </trkpt>
      <trkpt lat="40.31322" lon="0.12161">
        <ele>175.9</ele>
      </trkpt>
      <trkpt lat="40.31367" lon="0.12172">
        <ele>175.8</ele>
      </trkpt>
      <trkpt lat="40.31413" lon="0.12182">
        <ele>176.9</ele>
      </trkpt>
      <trkpt lat="40.31483" lon="0.12197">
        <ele>178.3</ele>
      </trkpt>
      <trkpt lat="40.31499" lon="0.12205">
        <ele>178.9</ele>
      </trkpt>
      <trkpt lat="40.3152" lon="0.1222">
        <ele>179.8</ele>
      </trkpt>
      <trkpt lat="40.31525" lon="0.12223">
        <ele>179.8</ele>
      </trkpt>
      <trkpt lat="40.31546" lon="0.12239">
        <ele>177.7</ele>
      </trkpt>
      <trkpt lat="40.3158" lon="0.12266">
        <ele>179.6</ele>
      </trkpt>
      <trkpt lat="40.31611" lon="0.12281">
        <ele>180.4</ele>
      </trkpt>
      <trkpt lat="40.31657" lon="0.12296">
        <ele>182.1</ele>
      </trkpt>
      <trkpt lat="40.31664" lon="0.123">
        <ele>182.5</ele>
      </trkpt>
      <trkpt lat="40.31691" lon="0.12309">
        <ele>184.4</ele>
      </trkpt>
      <trkpt lat="40.31788" lon="0.12337">
        <ele>188.3</ele>
      </trkpt>
      <trkpt lat="40.31844" lon="0.12377">
        <ele>190.4</ele>
      </trkpt>
      <trkpt lat="40.31891" lon="0.12403">
        <ele>191.5</ele>
      </trkpt>
      <trkpt lat="40.31912" lon="0.12412">
        <ele>191.3</ele>
      </trkpt>
      <trkpt lat="40.31943" lon="0.12429">
        <ele>191</ele>
      </trkpt>
      <trkpt lat="40.32279" lon="0.12614">
        <ele>193.9</ele>
      </trkpt>
      <trkpt lat="40.32412" lon="0.12685">
        <ele>194.9</ele>
      </trkpt>
      <trkpt lat="40.32506" lon="0.12734">
        <ele>197.9</ele>
      </trkpt>
      <trkpt lat="40.32546" lon="0.12748">
        <ele>199.8</ele>
      </trkpt>
      <trkpt lat="40.32581" lon="0.12757">
        <ele>200.7</ele>
      </trkpt>
      <trkpt lat="40.32996" lon="0.12817">
        <ele>207.9</ele>
      </trkpt>
      <trkpt lat="40.3326" lon="0.12855">
        <ele>209.4</ele>
      </trkpt>
      <trkpt lat="40.33345" lon="0.12866">
        <ele>207.8</ele>
      </trkpt>
      <trkpt lat="40.33385" lon="0.12868">
        <ele>206.3</ele>
      </trkpt>
      <trkpt lat="40.33423" lon="0.12863">
        <ele>208</ele>
      </trkpt>
      <trkpt lat="40.3346" lon="0.12853">
        <ele>208.6</ele>
      </trkpt>
      <trkpt lat="40.33498" lon="0.12839">
        <ele>209.7</ele>
      </trkpt>
      <trkpt lat="40.33544" lon="0.12812">
        <ele>211.6</ele>
      </trkpt>
      <trkpt lat="40.33636" lon="0.12743">
        <ele>215.1</ele>
      </trkpt>
      <trkpt lat="40.33719" lon="0.1268">
        <ele>217.5</ele>
      </trkpt>
      <trkpt lat="40.33728" lon="0.12673">
        <ele>217.8</ele>
      </trkpt>
      <trkpt lat="40.33767" lon="0.12652">
        <ele>217.7</ele>
      </trkpt>
      <trkpt lat="40.33811" lon="0.12632">
        <ele>218</ele>
      </trkpt>
      <trkpt lat="40.33854" lon="0.1262">
        <ele>218.7</ele>
      </trkpt>
      <trkpt lat="40.33876" lon="0.12615">
        <ele>219.3</ele>
      </trkpt>
      <trkpt lat="40.33932" lon="0.12613">
        <ele>220</ele>
      </trkpt>
      <trkpt lat="40.33978" lon="0.12611">
        <ele>221</ele>
      </trkpt>
      <trkpt lat="40.33999" lon="0.1261">
        <ele>221</ele>
      </trkpt>
      <trkpt lat="40.3404" lon="0.12603">
        <ele>221.1</ele>
      </trkpt>
      <trkpt lat="40.34321" lon="0.12595">
        <ele>218.6</ele>
      </trkpt>
      <trkpt lat="40.34347" lon="0.12594">
        <ele>219.3</ele>
      </trkpt>
      <trkpt lat="40.34386" lon="0.12594">
        <ele>220</ele>
      </trkpt>
      <trkpt lat="40.34642" lon="0.12587">
        <ele>221.3</ele>
      </trkpt>
      <trkpt lat="40.34685" lon="0.1259">
        <ele>222.1</ele>
      </trkpt>
      <trkpt lat="40.34734" lon="0.12601">
        <ele>222.4</ele>
      </trkpt>
      <trkpt lat="40.34747" lon="0.12605">
        <ele>222.1</ele>
      </trkpt>
      <trkpt lat="40.34777" lon="0.12619">
        <ele>222</ele>
      </trkpt>
      <trkpt lat="40.34808" lon="0.1264">
        <ele>221.7</ele>
      </trkpt>
      <trkpt lat="40.3483" lon="0.12659">
        <ele>220.5</ele>
      </trkpt>
      <trkpt lat="40.34837" lon="0.12672">
        <ele>218</ele>
      </trkpt>
      <trkpt lat="40.34854" lon="0.12698">
        <ele>216.2</ele>
      </trkpt>
      <trkpt lat="40.34867" lon="0.12719">
        <ele>219.3</ele>
      </trkpt>
      <trkpt lat="40.34884" lon="0.12748">
        <ele>221.1</ele>
      </trkpt>
      <trkpt lat="40.34916" lon="0.12802">
        <ele>222.8</ele>
      </trkpt>
      <trkpt lat="40.34943" lon="0.12846">
        <ele>223.5</ele>
      </trkpt>
      <trkpt lat="40.34957" lon="0.12863">
        <ele>224.4</ele>
      </trkpt>
      <trkpt lat="40.35043" lon="0.13016">
        <ele>226.8</ele>
      </trkpt>
      <trkpt lat="40.35156" lon="0.13213">
        <ele>229.8</ele>
      </trkpt>
      <trkpt lat="40.35178" lon="0.13247">
        <ele>232.2</ele>
      </trkpt>
      <trkpt lat="40.352" lon="0.13275">
        <ele>233.6</ele>
      </trkpt>
      <trkpt lat="40.35225" lon="0.13299">
        <ele>234.3</ele>
      </trkpt>
      <trkpt lat="40.35263" lon="0.13327">
        <ele>234.6</ele>
      </trkpt>
      <trkpt lat="40.35292" lon="0.1334">
        <ele>235.6</ele>
      </trkpt>
      <trkpt lat="40.35324" lon="0.13351">
        <ele>236</ele>
      </trkpt>
      <trkpt lat="40.35361" lon="0.13357">
        <ele>238</ele>
      </trkpt>
      <trkpt lat="40.35399" lon="0.13359">
        <ele>238</ele>
      </trkpt>
      <trkpt lat="40.35537" lon="0.13364">
        <ele>238.7</ele>
      </trkpt>
      <trkpt lat="40.35705" lon="0.1337">
        <ele>241.4</ele>
      </trkpt>
      <trkpt lat="40.35741" lon="0.13373">
        <ele>241.1</ele>
      </trkpt>
      <trkpt lat="40.35759" lon="0.13378">
        <ele>240.9</ele>
      </trkpt>
      <trkpt lat="40.35783" lon="0.13385">
        <ele>241.3</ele>
      </trkpt>
      <trkpt lat="40.35824" lon="0.13405">
        <ele>241.8</ele>
      </trkpt>
      <trkpt lat="40.35865" lon="0.13436">
        <ele>243.2</ele>
      </trkpt>
      <trkpt lat="40.35907" lon="0.13483">
        <ele>248.2</ele>
      </trkpt>
      <trkpt lat="40.35969" lon="0.13566">
        <ele>253.2</ele>
      </trkpt>
      <trkpt lat="40.36008" lon="0.13607">
        <ele>256</ele>
      </trkpt>
      <trkpt lat="40.36052" lon="0.13641">
        <ele>258.5</ele>
      </trkpt>
      <trkpt lat="40.36086" lon="0.13659">
        <ele>262</ele>
      </trkpt>
      <trkpt lat="40.36121" lon="0.13672">
        <ele>262.6</ele>
      </trkpt>
      <trkpt lat="40.36169" lon="0.13683">
        <ele>266.6</ele>
      </trkpt>
      <trkpt lat="40.36303" lon="0.13686">
        <ele>271.2</ele>
      </trkpt>
      <trkpt lat="40.36336" lon="0.1369">
        <ele>270.7</ele>
      </trkpt>
      <trkpt lat="40.36391" lon="0.13709">
        <ele>272</ele>
      </trkpt>
      <trkpt lat="40.36433" lon="0.13736">
        <ele>272</ele>
      </trkpt>
      <trkpt lat="40.36469" lon="0.13771">
        <ele>269.5</ele>
      </trkpt>
      <trkpt lat="40.36507" lon="0.13821">
        <ele>266.6</ele>
      </trkpt>
      <trkpt lat="40.36571" lon="0.13913">
        <ele>260.7</ele>
      </trkpt>
      <trkpt lat="40.36596" lon="0.13939">
        <ele>258.7</ele>
      </trkpt>
      <trkpt lat="40.36616" lon="0.13954">
        <ele>255.9</ele>
      </trkpt>
      <trkpt lat="40.3665" lon="0.13974">
        <ele>255.3</ele>
      </trkpt>
      <trkpt lat="40.36764" lon="0.14026">
        <ele>254.6</ele>
      </trkpt>
      <trkpt lat="40.36852" lon="0.14066">
        <ele>255.8</ele>
      </trkpt>
      <trkpt lat="40.37044" lon="0.14155">
        <ele>255.2</ele>
      </trkpt>
      <trkpt lat="40.37055" lon="0.1416">
        <ele>255.2</ele>
      </trkpt>
      <trkpt lat="40.37112" lon="0.14186">
        <ele>254.6</ele>
      </trkpt>
      <trkpt lat="40.37241" lon="0.14245">
        <ele>254.8</ele>
      </trkpt>
      <trkpt lat="40.37328" lon="0.14285">
        <ele>254.4</ele>
      </trkpt>
      <trkpt lat="40.3739" lon="0.14312">
        <ele>255.3</ele>
      </trkpt>
      <trkpt lat="40.37455" lon="0.14332">
        <ele>257.4</ele>
      </trkpt>
      <trkpt lat="40.37518" lon="0.14348">
        <ele>257.8</ele>
      </trkpt>
      <trkpt lat="40.37572" lon="0.14362">
        <ele>257.9</ele>
      </trkpt>
      <trkpt lat="40.37837" lon="0.1443">
        <ele>256.6</ele>
      </trkpt>
      <trkpt lat="40.37958" lon="0.14454">
        <ele>256.1</ele>
      </trkpt>
      <trkpt lat="40.37988" lon="0.14462">
        <ele>256.5</ele>
      </trkpt>
      <trkpt lat="40.38" lon="0.14466">
        <ele>257</ele>
      </trkpt>
      <trkpt lat="40.38027" lon="0.14474">
        <ele>256.8</ele>
      </trkpt>
      <trkpt lat="40.38063" lon="0.14489">
        <ele>253.4</ele>
      </trkpt>
      <trkpt lat="40.38114" lon="0.1451">
        <ele>255.7</ele>
      </trkpt>
      <trkpt lat="40.38169" lon="0.14533">
        <ele>258</ele>
      </trkpt>
      <trkpt lat="40.38274" lon="0.14576">
        <ele>261.6</ele>
      </trkpt>
      <trkpt lat="40.38432" lon="0.14643">
        <ele>267.4</ele>
      </trkpt>
      <trkpt lat="40.38388" lon="0.14885">
        <ele>280.6</ele>
      </trkpt>
      <trkpt lat="40.38391" lon="0.14918">
        <ele>285.4</ele>
      </trkpt>
      <trkpt lat="40.38402" lon="0.14949">
        <ele>285.2</ele>
      </trkpt>
      <trkpt lat="40.38402" lon="0.14985">
        <ele>286.6</ele>
      </trkpt>
      <trkpt lat="40.38388" lon="0.15031">
        <ele>289.9</ele>
      </trkpt>
      <trkpt lat="40.3837" lon="0.15076">
        <ele>289.3</ele>
      </trkpt>
      <trkpt lat="40.38349" lon="0.15105">
        <ele>289.8</ele>
      </trkpt>
      <trkpt lat="40.3829" lon="0.15157">
        <ele>290.7</ele>
      </trkpt>
      <trkpt lat="40.38275" lon="0.15186">
        <ele>290.9</ele>
      </trkpt>
      <trkpt lat="40.38258" lon="0.15231">
        <ele>292.3</ele>
      </trkpt>
      <trkpt lat="40.38224" lon="0.15287">
        <ele>295.7</ele>
      </trkpt>
      <trkpt lat="40.38198" lon="0.15308">
        <ele>297.9</ele>
      </trkpt>
      <trkpt lat="40.3819" lon="0.15322">
        <ele>298.3</ele>
      </trkpt>
      <trkpt lat="40.38178" lon="0.15358">
        <ele>299.8</ele>
      </trkpt>
      <trkpt lat="40.38174" lon="0.15393">
        <ele>302.4</ele>
      </trkpt>
      <trkpt lat="40.38175" lon="0.15427">
        <ele>305.7</ele>
      </trkpt>
      <trkpt lat="40.38183" lon="0.15476">
        <ele>308.9</ele>
      </trkpt>
      <trkpt lat="40.38195" lon="0.15506">
        <ele>311.2</ele>
      </trkpt>
      <trkpt lat="40.38209" lon="0.15523">
        <ele>310.3</ele>
      </trkpt>
      <trkpt lat="40.38247" lon="0.15545">
        <ele>304.9</ele>
      </trkpt>
      <trkpt lat="40.38273" lon="0.15565">
        <ele>303.6</ele>
      </trkpt>
      <trkpt lat="40.3829" lon="0.15587">
        <ele>305</ele>
      </trkpt>
      <trkpt lat="40.38345" lon="0.15666">
        <ele>311.5</ele>
      </trkpt>
      <trkpt lat="40.38365" lon="0.15679">
        <ele>312.1</ele>
      </trkpt>
      <trkpt lat="40.38388" lon="0.15688">
        <ele>311.6</ele>
      </trkpt>
      <trkpt lat="40.38423" lon="0.15706">
        <ele>310.3</ele>
      </trkpt>
      <trkpt lat="40.38454" lon="0.15724">
        <ele>310.7</ele>
      </trkpt>
      <trkpt lat="40.38484" lon="0.15736">
        <ele>310.8</ele>
      </trkpt>
      <trkpt lat="40.38539" lon="0.15764">
        <ele>312.8</ele>
      </trkpt>
      <trkpt lat="40.38629" lon="0.15814">
        <ele>314.2</ele>
      </trkpt>
      <trkpt lat="40.38688" lon="0.15851">
        <ele>315.4</ele>
      </trkpt>
      <trkpt lat="40.38731" lon="0.15887">
        <ele>316.2</ele>
      </trkpt>
      <trkpt lat="40.38818" lon="0.15947">
        <ele>313.1</ele>
      </trkpt>
      <trkpt lat="40.38856" lon="0.15961">
        <ele>314.5</ele>
      </trkpt>
      <trkpt lat="40.39008" lon="0.16055">
        <ele>319.7</ele>
      </trkpt>
      <trkpt lat="40.39075" lon="0.16085">
        <ele>318.6</ele>
      </trkpt>
      <trkpt lat="40.39096" lon="0.16096">
        <ele>317.1</ele>
      </trkpt>
      <trkpt lat="40.39131" lon="0.16127">
        <ele>313.1</ele>
      </trkpt>
      <trkpt lat="40.39169" lon="0.16154">
        <ele>314.5</ele>
      </trkpt>
      <trkpt lat="40.39208" lon="0.16178">
        <ele>313.8</ele>
      </trkpt>
      <trkpt lat="40.39244" lon="0.16204">
        <ele>315.6</ele>
      </trkpt>
      <trkpt lat="40.39288" lon="0.16232">
        <ele>320.9</ele>
      </trkpt>
      <trkpt lat="40.39371" lon="0.16255">
        <ele>322.4</ele>
      </trkpt>
      <trkpt lat="40.39414" lon="0.16251">
        <ele>322.1</ele>
      </trkpt>
      <trkpt lat="40.39444" lon="0.16261">
        <ele>323.2</ele>
      </trkpt>
      <trkpt lat="40.39481" lon="0.16279">
        <ele>322.4</ele>
      </trkpt>
      <trkpt lat="40.39572" lon="0.16354">
        <ele>321.6</ele>
      </trkpt>
      <trkpt lat="40.39587" lon="0.16369">
        <ele>322.2</ele>
      </trkpt>
      <trkpt lat="40.3965" lon="0.16449">
        <ele>325.9</ele>
      </trkpt>
      <trkpt lat="40.39702" lon="0.16507">
        <ele>325.5</ele>
      </trkpt>
      <trkpt lat="40.39843" lon="0.16641">
        <ele>322</ele>
      </trkpt>
      <trkpt lat="40.39871" lon="0.16661">
        <ele>322</ele>
      </trkpt>
      <trkpt lat="40.39903" lon="0.16677">
        <ele>324.3</ele>
      </trkpt>
      <trkpt lat="40.39969" lon="0.16693">
        <ele>327.9</ele>
      </trkpt>
      <trkpt lat="40.4" lon="0.16704">
        <ele>327.3</ele>
      </trkpt>
      <trkpt lat="40.40029" lon="0.16706">
        <ele>326.8</ele>
      </trkpt>
      <trkpt lat="40.40155" lon="0.16747">
        <ele>326.4</ele>
      </trkpt>
      <trkpt lat="40.40213" lon="0.16777">
        <ele>326.2</ele>
      </trkpt>
      <trkpt lat="40.40219" lon="0.16786">
        <ele>326.4</ele>
      </trkpt>
      <trkpt lat="40.40228" lon="0.16797">
        <ele>327.1</ele>
      </trkpt>
      <trkpt lat="40.40265" lon="0.16819">
        <ele>332.2</ele>
      </trkpt>
      <trkpt lat="40.40293" lon="0.1684">
        <ele>335.5</ele>
      </trkpt>
      <trkpt lat="40.40308" lon="0.16855">
        <ele>336.4</ele>
      </trkpt>
      <trkpt lat="40.40316" lon="0.16861">
        <ele>336.2</ele>
      </trkpt>
      <trkpt lat="40.4032" lon="0.16885">
        <ele>337.7</ele>
      </trkpt>
      <trkpt lat="40.40314" lon="0.16915">
        <ele>340.5</ele>
      </trkpt>
      <trkpt lat="40.40292" lon="0.16992">
        <ele>342.9</ele>
      </trkpt>
      <trkpt lat="40.40266" lon="0.17102">
        <ele>342.8</ele>
      </trkpt>
      <trkpt lat="40.40265" lon="0.17123">
        <ele>342.9</ele>
      </trkpt>
      <trkpt lat="40.40269" lon="0.17141">
        <ele>343.4</ele>
      </trkpt>
      <trkpt lat="40.40281" lon="0.17152">
        <ele>343.2</ele>
      </trkpt>
      <trkpt lat="40.40397" lon="0.17205">
        <ele>340.4</ele>
      </trkpt>
      <trkpt lat="40.4043" lon="0.17238">
        <ele>337.5</ele>
      </trkpt>
      <trkpt lat="40.40464" lon="0.17278">
        <ele>334.7</ele>
      </trkpt>
      <trkpt lat="40.40491" lon="0.17293">
        <ele>332.2</ele>
      </trkpt>
      <trkpt lat="40.40524" lon="0.17301">
        <ele>331</ele>
      </trkpt>
      <trkpt lat="40.4055" lon="0.17314">
        <ele>331.1</ele>
      </trkpt>
      <trkpt lat="40.40587" lon="0.1734">
        <ele>330.7</ele>
      </trkpt>
      <trkpt lat="40.40599" lon="0.17348">
        <ele>329.9</ele>
      </trkpt>
      <trkpt lat="40.40647" lon="0.17391">
        <ele>329.5</ele>
      </trkpt>
      <trkpt lat="40.40689" lon="0.17417">
        <ele>330</ele>
      </trkpt>
      <trkpt lat="40.40733" lon="0.17436">
        <ele>331.9</ele>
      </trkpt>
      <trkpt lat="40.40906" lon="0.17505">
        <ele>332.2</ele>
      </trkpt>
      <trkpt lat="40.40947" lon="0.17521">
        <ele>332.6</ele>
      </trkpt>
      <trkpt lat="40.40987" lon="0.17529">
        <ele>334</ele>
      </trkpt>
      <trkpt lat="40.41006" lon="0.17533">
        <ele>334.2</ele>
      </trkpt>
      <trkpt lat="40.41019" lon="0.17505">
        <ele>333.5</ele>
      </trkpt>
      <trkpt lat="40.4103" lon="0.17482">
        <ele>333.4</ele>
      </trkpt>
      <trkpt lat="40.41042" lon="0.17454">
        <ele>332</ele>
      </trkpt>
      <trkpt lat="40.41057" lon="0.17445">
        <ele>330.8</ele>
      </trkpt>
      <trkpt lat="40.41077" lon="0.17446">
        <ele>328</ele>
      </trkpt>
      <trkpt lat="40.41149" lon="0.17466">
        <ele>322.3</ele>
      </trkpt>
      <trkpt lat="40.41163" lon="0.17453">
        <ele>321.3</ele>
      </trkpt>
      <trkpt lat="40.41189" lon="0.1742">
        <ele>319.7</ele>
      </trkpt>
      <trkpt lat="40.41193" lon="0.17421">
        <ele>319.3</ele>
      </trkpt>
      <trkpt lat="40.41235" lon="0.17437">
        <ele>322.1</ele>
      </trkpt>
      <trkpt lat="40.41264" lon="0.17452">
        <ele>324.6</ele>
      </trkpt>
      <trkpt lat="40.41305" lon="0.17464">
        <ele>325.9</ele>
      </trkpt>
      <trkpt lat="40.41347" lon="0.17487">
        <ele>327.9</ele>
      </trkpt>
      <trkpt lat="40.41375" lon="0.17493">
        <ele>329</ele>
      </trkpt>
      <trkpt lat="40.41394" lon="0.17495">
        <ele>329.5</ele>
      </trkpt>
      <trkpt lat="40.41414" lon="0.17493">
        <ele>330.4</ele>
      </trkpt>
      <trkpt lat="40.41538" lon="0.17495">
        <ele>335.4</ele>
      </trkpt>
      <trkpt lat="40.41555" lon="0.17497">
        <ele>336</ele>
      </trkpt>
      <trkpt lat="40.41606" lon="0.175">
        <ele>336.8</ele>
      </trkpt>
      <trkpt lat="40.41624" lon="0.17501">
        <ele>337.5</ele>
      </trkpt>
      <trkpt lat="40.4166" lon="0.17506">
        <ele>339</ele>
      </trkpt>
      <trkpt lat="40.41693" lon="0.17511">
        <ele>338.8</ele>
      </trkpt>
      <trkpt lat="40.41709" lon="0.17513">
        <ele>339</ele>
      </trkpt>
      <trkpt lat="40.4174" lon="0.17518">
        <ele>339</ele>
      </trkpt>
      <trkpt lat="40.41806" lon="0.17536">
        <ele>337</ele>
      </trkpt>
      <trkpt lat="40.41809" lon="0.17537">
        <ele>336.9</ele>
      </trkpt>
      <trkpt lat="40.41865" lon="0.17552">
        <ele>336</ele>
      </trkpt>
      <trkpt lat="40.41867" lon="0.17547">
        <ele>336</ele>
      </trkpt>
      <trkpt lat="40.41877" lon="0.1753">
        <ele>336</ele>
      </trkpt>
      <trkpt lat="40.41863" lon="0.17519">
        <ele>336</ele>
      </trkpt>
      <trkpt lat="40.41881" lon="0.17478">
        <ele>336.2</ele>
      </trkpt>
      <trkpt lat="40.4189" lon="0.17484">
        <ele>336</ele>
      </trkpt>
      <trkpt lat="40.41921" lon="0.17433">
        <ele>337</ele>
      </trkpt>
      <trkpt lat="40.41938" lon="0.17416">
        <ele>337</ele>
      </trkpt>
      <trkpt lat="40.41955" lon="0.17406">
        <ele>335.9</ele>
      </trkpt>
      <trkpt lat="40.41969" lon="0.17404">
        <ele>335.2</ele>
      </trkpt>
      <trkpt lat="40.41977" lon="0.17402">
        <ele>334.9</ele>
      </trkpt>
      <trkpt lat="40.41984" lon="0.17395">
        <ele>334.4</ele>
      </trkpt>
      <trkpt lat="40.42028" lon="0.17296">
        <ele>328.7</ele>
      </trkpt>
      <trkpt lat="40.42035" lon="0.17296">
        <ele>328.7</ele>
      </trkpt>
      <trkpt lat="40.42038" lon="0.17292">
        <ele>328.7</ele>
      </trkpt>
      <trkpt lat="40.42039" lon="0.17285">
        <ele>328.6</ele>
      </trkpt>
      <trkpt lat="40.42037" lon="0.17279">
        <ele>328.4</ele>
      </trkpt>
      <trkpt lat="40.42059" lon="0.17234">
        <ele>325.6</ele>
      </trkpt>
      <trkpt lat="40.42312" lon="0.16834">
        <ele>317</ele>
      </trkpt>
      <trkpt lat="40.42326" lon="0.168">
        <ele>316.3</ele>
      </trkpt>
      <trkpt lat="40.42327" lon="0.16796">
        <ele>316.2</ele>
      </trkpt>
      <trkpt lat="40.4233" lon="0.16786">
        <ele>316.1</ele>
      </trkpt>
      <trkpt lat="40.42331" lon="0.16783">
        <ele>316.1</ele>
      </trkpt>
      <trkpt lat="40.42342" lon="0.16755">
        <ele>316.6</ele>
      </trkpt>
      <trkpt lat="40.42384" lon="0.16662">
        <ele>320</ele>
      </trkpt>
      <trkpt lat="40.42397" lon="0.1662">
        <ele>322.6</ele>
      </trkpt>
      <trkpt lat="40.42408" lon="0.16593">
        <ele>322.8</ele>
      </trkpt>
      <trkpt lat="40.42467" lon="0.16482">
        <ele>325</ele>
      </trkpt>
      <trkpt lat="40.42471" lon="0.1648">
        <ele>325</ele>
      </trkpt>
      <trkpt lat="40.42475" lon="0.16482">
        <ele>324.9</ele>
      </trkpt>
      <trkpt lat="40.42662" lon="0.16127">
        <ele>324.3</ele>
      </trkpt>
      <trkpt lat="40.42798" lon="0.15885">
        <ele>329.9</ele>
      </trkpt>
      <trkpt lat="40.42825" lon="0.15834">
        <ele>331</ele>
      </trkpt>
      <trkpt lat="40.42832" lon="0.15815">
        <ele>330.4</ele>
      </trkpt>
      <trkpt lat="40.42838" lon="0.15787">
        <ele>330.4</ele>
      </trkpt>
      <trkpt lat="40.4284" lon="0.1577">
        <ele>330.4</ele>
      </trkpt>
      <trkpt lat="40.4284" lon="0.15745">
        <ele>330.2</ele>
      </trkpt>
      <trkpt lat="40.42848" lon="0.15744">
        <ele>330.5</ele>
      </trkpt>
      <trkpt lat="40.42865" lon="0.15736">
        <ele>331.1</ele>
      </trkpt>
      <trkpt lat="40.42886" lon="0.15721">
        <ele>331.9</ele>
      </trkpt>
      <trkpt lat="40.42892" lon="0.1572">
        <ele>331.9</ele>
      </trkpt>
      <trkpt lat="40.43053" lon="0.15853">
        <ele>336.9</ele>
      </trkpt>
      <trkpt lat="40.431" lon="0.15887">
        <ele>338.6</ele>
      </trkpt>
      <trkpt lat="40.43136" lon="0.15937">
        <ele>338.2</ele>
      </trkpt>
      <trkpt lat="40.43251" lon="0.16021">
        <ele>325.7</ele>
      </trkpt>
      <trkpt lat="40.43375" lon="0.16107">
        <ele>324.3</ele>
      </trkpt>
      <trkpt lat="40.43447" lon="0.16167">
        <ele>330.3</ele>
      </trkpt>
      <trkpt lat="40.43539" lon="0.16223">
        <ele>333</ele>
      </trkpt>
      <trkpt lat="40.43661" lon="0.16309">
        <ele>333.5</ele>
      </trkpt>
      <trkpt lat="40.43671" lon="0.16315">
        <ele>333.6</ele>
      </trkpt>
      <trkpt lat="40.43801" lon="0.16385">
        <ele>332</ele>
      </trkpt>
      <trkpt lat="40.43903" lon="0.1644">
        <ele>331.6</ele>
      </trkpt>
      <trkpt lat="40.44039" lon="0.16524">
        <ele>331</ele>
      </trkpt>
      <trkpt lat="40.44088" lon="0.16554">
        <ele>331.2</ele>
      </trkpt>
      <trkpt lat="40.44283" lon="0.16647">
        <ele>332.9</ele>
      </trkpt>
      <trkpt lat="40.44504" lon="0.16762">
        <ele>332</ele>
      </trkpt>
      <trkpt lat="40.44541" lon="0.16781">
        <ele>332</ele>
      </trkpt>
      <trkpt lat="40.44716" lon="0.16872">
        <ele>330</ele>
      </trkpt>
      <trkpt lat="40.44933" lon="0.17004">
        <ele>326</ele>
      </trkpt>
      <trkpt lat="40.45016" lon="0.17054">
        <ele>329.2</ele>
      </trkpt>
      <trkpt lat="40.45069" lon="0.17084">
        <ele>330.5</ele>
      </trkpt>
      <trkpt lat="40.45435" lon="0.17287">
        <ele>330</ele>
      </trkpt>
      <trkpt lat="40.45556" lon="0.17366">
        <ele>331</ele>
      </trkpt>
      <trkpt lat="40.4563" lon="0.17422">
        <ele>330.8</ele>
      </trkpt>
      <trkpt lat="40.45733" lon="0.17472">
        <ele>331</ele>
      </trkpt>
      <trkpt lat="40.45786" lon="0.17503">
        <ele>330</ele>
      </trkpt>
      <trkpt lat="40.45864" lon="0.17553">
        <ele>321.9</ele>
      </trkpt>
      <trkpt lat="40.45886" lon="0.17578">
        <ele>320.8</ele>
      </trkpt>
      <trkpt lat="40.45893" lon="0.17585">
        <ele>320.9</ele>
      </trkpt>
      <trkpt lat="40.45949" lon="0.1764">
        <ele>321</ele>
      </trkpt>
      <trkpt lat="40.46124" lon="0.17766">
        <ele>323.4</ele>
      </trkpt>
      <trkpt lat="40.46126" lon="0.17767">
        <ele>323.4</ele>
      </trkpt>
      <trkpt lat="40.46175" lon="0.178">
        <ele>323.4</ele>
      </trkpt>
      <trkpt lat="40.46253" lon="0.17847">
        <ele>324.6</ele>
      </trkpt>
      <trkpt lat="40.46252" lon="0.17873">
        <ele>324</ele>
      </trkpt>
      <trkpt lat="40.46284" lon="0.17869">
        <ele>324.8</ele>
      </trkpt>
      <trkpt lat="40.46289" lon="0.17868">
        <ele>324.9</ele>
      </trkpt>
      <trkpt lat="40.46297" lon="0.17902">
        <ele>323.4</ele>
      </trkpt>
      <trkpt lat="40.46321" lon="0.17909">
        <ele>322.8</ele>
      </trkpt>
      <trkpt lat="40.46393" lon="0.17924">
        <ele>322.8</ele>
      </trkpt>
      <trkpt lat="40.46419" lon="0.17938">
        <ele>323</ele>
      </trkpt>
      <trkpt lat="40.46436" lon="0.17962">
        <ele>322.2</ele>
      </trkpt>
      <trkpt lat="40.46445" lon="0.17979">
        <ele>322.5</ele>
      </trkpt>
      <trkpt lat="40.46479" lon="0.18109">
        <ele>322.2</ele>
      </trkpt>
      <trkpt lat="40.46483" lon="0.18114">
        <ele>322.3</ele>
      </trkpt>
      <trkpt lat="40.465" lon="0.18081">
        <ele>323</ele>
      </trkpt>
      <trkpt lat="40.46506" lon="0.18064">
        <ele>323.2</ele>
      </trkpt>
      <trkpt lat="40.46525" lon="0.18001">
        <ele>323.1</ele>
      </trkpt>
      <trkpt lat="40.46528" lon="0.17987">
        <ele>323.5</ele>
      </trkpt>
      <trkpt lat="40.46539" lon="0.17994">
        <ele>323.1</ele>
      </trkpt>
      <trkpt lat="40.46561" lon="0.18011">
        <ele>322.7</ele>
      </trkpt>
      <trkpt lat="40.46563" lon="0.18015">
        <ele>322.6</ele>
      </trkpt>
      <trkpt lat="40.46694" lon="0.1824">
        <ele>321.4</ele>
      </trkpt>
      <trkpt lat="40.46695" lon="0.1825">
        <ele>321</ele>
      </trkpt>
      <trkpt lat="40.46722" lon="0.18294">
        <ele>323</ele>
      </trkpt>
      <trkpt lat="40.46729" lon="0.18309">
        <ele>324.2</ele>
      </trkpt>
      <trkpt lat="40.46735" lon="0.1832">
        <ele>325.4</ele>
      </trkpt>
      <trkpt lat="40.46754" lon="0.18349">
        <ele>326.8</ele>
      </trkpt>
      <trkpt lat="40.46778" lon="0.18374">
        <ele>327.5</ele>
      </trkpt>
      <trkpt lat="40.46841" lon="0.18445">
        <ele>328.6</ele>
      </trkpt>
      <trkpt lat="40.46857" lon="0.18472">
        <ele>329.7</ele>
      </trkpt>
      <trkpt lat="40.46902" lon="0.18544">
        <ele>333.9</ele>
      </trkpt>
      <trkpt lat="40.46991" lon="0.18732">
        <ele>330.4</ele>
      </trkpt>
      <trkpt lat="40.47075" lon="0.18896">
        <ele>343.9</ele>
      </trkpt>
      <trkpt lat="40.47114" lon="0.18954">
        <ele>346.5</ele>
      </trkpt>
      <trkpt lat="40.47171" lon="0.19034">
        <ele>347.1</ele>
      </trkpt>
      <trkpt lat="40.47179" lon="0.19045">
        <ele>346.9</ele>
      </trkpt>
      <trkpt lat="40.47195" lon="0.19053">
        <ele>346.1</ele>
      </trkpt>
      <trkpt lat="40.47217" lon="0.19062">
        <ele>343.8</ele>
      </trkpt>
      <trkpt lat="40.47261" lon="0.19058">
        <ele>335.4</ele>
      </trkpt>
      <trkpt lat="40.47341" lon="0.19042">
        <ele>325.1</ele>
      </trkpt>
      <trkpt lat="40.47389" lon="0.19078">
        <ele>321.6</ele>
      </trkpt>
      <trkpt lat="40.47397" lon="0.19086">
        <ele>323.4</ele>
      </trkpt>
      <trkpt lat="40.47462" lon="0.19165">
        <ele>330</ele>
      </trkpt>
      <trkpt lat="40.47528" lon="0.19231">
        <ele>334</ele>
      </trkpt>
      <trkpt lat="40.47588" lon="0.19312">
        <ele>338.1</ele>
      </trkpt>
      <trkpt lat="40.47668" lon="0.19408">
        <ele>346.4</ele>
      </trkpt>
      <trkpt lat="40.4771" lon="0.19478">
        <ele>343.2</ele>
      </trkpt>
      <trkpt lat="40.47756" lon="0.19516">
        <ele>339.2</ele>
      </trkpt>
      <trkpt lat="40.47811" lon="0.19594">
        <ele>333.3</ele>
      </trkpt>
      <trkpt lat="40.47826" lon="0.19689">
        <ele>336.5</ele>
      </trkpt>
      <trkpt lat="40.47847" lon="0.19737">
        <ele>335.9</ele>
      </trkpt>
      <trkpt lat="40.47884" lon="0.19795">
        <ele>334</ele>
      </trkpt>
      <trkpt lat="40.47887" lon="0.19824">
        <ele>335.1</ele>
      </trkpt>
      <trkpt lat="40.47879" lon="0.1986">
        <ele>337.5</ele>
      </trkpt>
      <trkpt lat="40.47881" lon="0.19899">
        <ele>339.3</ele>
      </trkpt>
      <trkpt lat="40.4789" lon="0.19927">
        <ele>337.2</ele>
      </trkpt>
      <trkpt lat="40.47903" lon="0.19935">
        <ele>335.7</ele>
      </trkpt>
      <trkpt lat="40.47979" lon="0.1995">
        <ele>323.5</ele>
      </trkpt>
      <trkpt lat="40.47998" lon="0.19952">
        <ele>322.3</ele>
      </trkpt>
      <trkpt lat="40.48018" lon="0.19968">
        <ele>320.4</ele>
      </trkpt>
      <trkpt lat="40.48021" lon="0.20004">
        <ele>323</ele>
      </trkpt>
      <trkpt lat="40.48009" lon="0.20043">
        <ele>326.7</ele>
      </trkpt>
      <trkpt lat="40.4798" lon="0.20103">
        <ele>334.1</ele>
      </trkpt>
      <trkpt lat="40.4799" lon="0.20117">
        <ele>337.6</ele>
      </trkpt>
      <trkpt lat="40.48012" lon="0.20111">
        <ele>339.6</ele>
      </trkpt>
      <trkpt lat="40.48068" lon="0.20104">
        <ele>349.7</ele>
      </trkpt>
      <trkpt lat="40.4811" lon="0.20143">
        <ele>353.1</ele>
      </trkpt>
      <trkpt lat="40.48182" lon="0.20238">
        <ele>354.3</ele>
      </trkpt>
      <trkpt lat="40.48367" lon="0.20526">
        <ele>356.2</ele>
      </trkpt>
      <trkpt lat="40.48399" lon="0.20566">
        <ele>355.9</ele>
      </trkpt>
      <trkpt lat="40.48406" lon="0.20574">
        <ele>355.6</ele>
      </trkpt>
      <trkpt lat="40.48406" lon="0.20621">
        <ele>353.1</ele>
      </trkpt>
      <trkpt lat="40.48397" lon="0.20679">
        <ele>349.4</ele>
      </trkpt>
      <trkpt lat="40.48409" lon="0.20701">
        <ele>344.6</ele>
      </trkpt>
      <trkpt lat="40.48451" lon="0.20678">
        <ele>339.9</ele>
      </trkpt>
      <trkpt lat="40.48484" lon="0.20674">
        <ele>335</ele>
      </trkpt>
      <trkpt lat="40.48738" lon="0.21011">
        <ele>330.8</ele>
      </trkpt>
      <trkpt lat="40.48812" lon="0.21121">
        <ele>331.2</ele>
      </trkpt>
      <trkpt lat="40.48847" lon="0.21172">
        <ele>331.4</ele>
      </trkpt>
      <trkpt lat="40.48877" lon="0.21229">
        <ele>331.4</ele>
      </trkpt>
      <trkpt lat="40.48917" lon="0.21313">
        <ele>331</ele>
      </trkpt>
      <trkpt lat="40.48993" lon="0.21481">
        <ele>329.7</ele>
      </trkpt>
      <trkpt lat="40.49018" lon="0.2156">
        <ele>324.9</ele>
      </trkpt>
      <trkpt lat="40.49062" lon="0.2163">
        <ele>324.1</ele>
      </trkpt>
      <trkpt lat="40.49122" lon="0.21747">
        <ele>320.1</ele>
      </trkpt>
      <trkpt lat="40.49143" lon="0.21811">
        <ele>318.8</ele>
      </trkpt>
      <trkpt lat="40.49155" lon="0.21842">
        <ele>319</ele>
      </trkpt>
      <trkpt lat="40.49164" lon="0.21866">
        <ele>320</ele>
      </trkpt>
      <trkpt lat="40.492" lon="0.21993">
        <ele>322.1</ele>
      </trkpt>
      <trkpt lat="40.49214" lon="0.22046">
        <ele>323.4</ele>
      </trkpt>
      <trkpt lat="40.4923" lon="0.22075">
        <ele>326.1</ele>
      </trkpt>
      <trkpt lat="40.49304" lon="0.22185">
        <ele>332.4</ele>
      </trkpt>
      <trkpt lat="40.49325" lon="0.22225">
        <ele>332.6</ele>
      </trkpt>
      <trkpt lat="40.4935" lon="0.22311">
        <ele>334.4</ele>
      </trkpt>
      <trkpt lat="40.49432" lon="0.22543">
        <ele>332.6</ele>
      </trkpt>
      <trkpt lat="40.49457" lon="0.22608">
        <ele>331</ele>
      </trkpt>
      <trkpt lat="40.49467" lon="0.22645">
        <ele>330.8</ele>
      </trkpt>
      <trkpt lat="40.49894" lon="0.22764">
        <ele>334.8</ele>
      </trkpt>
      <trkpt lat="40.50134" lon="0.22866">
        <ele>328.7</ele>
      </trkpt>
      <trkpt lat="40.50463" lon="0.23">
        <ele>326.3</ele>
      </trkpt>
      <trkpt lat="40.50548" lon="0.23031">
        <ele>331.2</ele>
      </trkpt>
      <trkpt lat="40.50584" lon="0.23039">
        <ele>333</ele>
      </trkpt>
      <trkpt lat="40.50611" lon="0.23032">
        <ele>333</ele>
      </trkpt>
      <trkpt lat="40.50707" lon="0.23016">
        <ele>332</ele>
      </trkpt>
      <trkpt lat="40.50744" lon="0.23022">
        <ele>331.1</ele>
      </trkpt>
      <trkpt lat="40.50754" lon="0.23024">
        <ele>330.7</ele>
      </trkpt>
      <trkpt lat="40.50811" lon="0.23065">
        <ele>329.2</ele>
      </trkpt>
      <trkpt lat="40.50821" lon="0.23072">
        <ele>329.6</ele>
      </trkpt>
      <trkpt lat="40.50949" lon="0.23051">
        <ele>331.8</ele>
      </trkpt>
      <trkpt lat="40.51021" lon="0.23026">
        <ele>326.6</ele>
      </trkpt>
      <trkpt lat="40.51084" lon="0.23016">
        <ele>330</ele>
      </trkpt>
      <trkpt lat="40.51108" lon="0.23017">
        <ele>329.1</ele>
      </trkpt>
      <trkpt lat="40.51165" lon="0.23042">
        <ele>328.1</ele>
      </trkpt>
      <trkpt lat="40.51198" lon="0.23061">
        <ele>328.2</ele>
      </trkpt>
      <trkpt lat="40.51238" lon="0.23079">
        <ele>328.4</ele>
      </trkpt>
      <trkpt lat="40.51265" lon="0.23076">
        <ele>326.8</ele>
      </trkpt>
      <trkpt lat="40.51343" lon="0.23074">
        <ele>321.9</ele>
      </trkpt>
      <trkpt lat="40.51369" lon="0.23305">
        <ele>316.7</ele>
      </trkpt>
      <trkpt lat="40.51375" lon="0.23332">
        <ele>316.5</ele>
      </trkpt>
      <trkpt lat="40.51385" lon="0.23372">
        <ele>316.8</ele>
      </trkpt>
      <trkpt lat="40.5143" lon="0.23489">
        <ele>319.7</ele>
      </trkpt>
      <trkpt lat="40.51422" lon="0.23539">
        <ele>321.4</ele>
      </trkpt>
      <trkpt lat="40.51409" lon="0.23575">
        <ele>321.4</ele>
      </trkpt>
      <trkpt lat="40.51405" lon="0.23606">
        <ele>319.9</ele>
      </trkpt>
      <trkpt lat="40.51425" lon="0.23696">
        <ele>319.3</ele>
      </trkpt>
      <trkpt lat="40.5145" lon="0.23795">
        <ele>315.8</ele>
      </trkpt>
      <trkpt lat="40.51473" lon="0.23836">
        <ele>315.9</ele>
      </trkpt>
      <trkpt lat="40.51547" lon="0.23927">
        <ele>315.3</ele>
      </trkpt>
      <trkpt lat="40.51568" lon="0.2396">
        <ele>314.6</ele>
      </trkpt>
      <trkpt lat="40.51589" lon="0.24001">
        <ele>315</ele>
      </trkpt>
      <trkpt lat="40.5162" lon="0.24072">
        <ele>315.9</ele>
      </trkpt>
      <trkpt lat="40.51661" lon="0.24198">
        <ele>317.4</ele>
      </trkpt>
      <trkpt lat="40.51748" lon="0.2446">
        <ele>315.4</ele>
      </trkpt>
      <trkpt lat="40.51819" lon="0.24613">
        <ele>309.4</ele>
      </trkpt>
      <trkpt lat="40.51899" lon="0.2478">
        <ele>313.1</ele>
      </trkpt>
      <trkpt lat="40.51916" lon="0.24841">
        <ele>313.4</ele>
      </trkpt>
      <trkpt lat="40.51923" lon="0.24866">
        <ele>311.8</ele>
      </trkpt>
      <trkpt lat="40.51931" lon="0.24901">
        <ele>309.6</ele>
      </trkpt>
      <trkpt lat="40.51934" lon="0.24927">
        <ele>308.4</ele>
      </trkpt>
      <trkpt lat="40.51951" lon="0.2494">
        <ele>307.5</ele>
      </trkpt>
      <trkpt lat="40.51967" lon="0.24977">
        <ele>307.3</ele>
      </trkpt>
      <trkpt lat="40.51981" lon="0.25016">
        <ele>307.7</ele>
      </trkpt>
      <trkpt lat="40.52011" lon="0.2508">
        <ele>312.2</ele>
      </trkpt>
      <trkpt lat="40.52033" lon="0.25119">
        <ele>313.8</ele>
      </trkpt>
      <trkpt lat="40.52072" lon="0.25173">
        <ele>314.5</ele>
      </trkpt>
      <trkpt lat="40.52108" lon="0.25239">
        <ele>312.5</ele>
      </trkpt>
      <trkpt lat="40.52147" lon="0.25316">
        <ele>312.9</ele>
      </trkpt>
      <trkpt lat="40.52177" lon="0.25382">
        <ele>313.6</ele>
      </trkpt>
      <trkpt lat="40.52193" lon="0.25449">
        <ele>311.9</ele>
      </trkpt>
      <trkpt lat="40.52234" lon="0.25558">
        <ele>312.2</ele>
      </trkpt>
      <trkpt lat="40.5226" lon="0.25618">
        <ele>312.8</ele>
      </trkpt>
      <trkpt lat="40.52283" lon="0.25682">
        <ele>312.9</ele>
      </trkpt>
      <trkpt lat="40.52322" lon="0.25754">
        <ele>309.9</ele>
      </trkpt>
      <trkpt lat="40.5234" lon="0.25834">
        <ele>307.2</ele>
      </trkpt>
      <trkpt lat="40.52338" lon="0.25854">
        <ele>305.8</ele>
      </trkpt>
      <trkpt lat="40.52338" lon="0.2586">
        <ele>305.4</ele>
      </trkpt>
      <trkpt lat="40.52346" lon="0.25905">
        <ele>302.4</ele>
      </trkpt>
      <trkpt lat="40.52345" lon="0.25935">
        <ele>300.2</ele>
      </trkpt>
      <trkpt lat="40.5235" lon="0.25958">
        <ele>298.7</ele>
      </trkpt>
      <trkpt lat="40.52357" lon="0.25983">
        <ele>296.9</ele>
      </trkpt>
      <trkpt lat="40.52371" lon="0.26096">
        <ele>292.9</ele>
      </trkpt>
      <trkpt lat="40.52397" lon="0.26218">
        <ele>288.8</ele>
      </trkpt>
      <trkpt lat="40.52398" lon="0.26233">
        <ele>288.6</ele>
      </trkpt>
      <trkpt lat="40.52401" lon="0.26254">
        <ele>288.8</ele>
      </trkpt>
      <trkpt lat="40.5243" lon="0.26321">
        <ele>289.3</ele>
      </trkpt>
      <trkpt lat="40.52435" lon="0.26326">
        <ele>289.3</ele>
      </trkpt>
      <trkpt lat="40.52449" lon="0.2635">
        <ele>288.2</ele>
      </trkpt>
      <trkpt lat="40.52461" lon="0.26388">
        <ele>286.1</ele>
      </trkpt>
      <trkpt lat="40.52472" lon="0.26435">
        <ele>285.3</ele>
      </trkpt>
      <trkpt lat="40.52476" lon="0.26474">
        <ele>285.5</ele>
      </trkpt>
      <trkpt lat="40.5248" lon="0.2652">
        <ele>286.6</ele>
      </trkpt>
      <trkpt lat="40.52483" lon="0.26536">
        <ele>286.8</ele>
      </trkpt>
      <trkpt lat="40.52486" lon="0.26547">
        <ele>287.1</ele>
      </trkpt>
      <trkpt lat="40.52526" lon="0.26625">
        <ele>288.6</ele>
      </trkpt>
      <trkpt lat="40.52551" lon="0.26684">
        <ele>292.1</ele>
      </trkpt>
      <trkpt lat="40.52544" lon="0.26714">
        <ele>291.6</ele>
      </trkpt>
      <trkpt lat="40.52544" lon="0.2675">
        <ele>290.8</ele>
      </trkpt>
      <trkpt lat="40.52556" lon="0.26788">
        <ele>289.4</ele>
      </trkpt>
      <trkpt lat="40.52568" lon="0.26852">
        <ele>290.3</ele>
      </trkpt>
      <trkpt lat="40.52567" lon="0.2688">
        <ele>290.4</ele>
      </trkpt>
      <trkpt lat="40.52552" lon="0.26917">
        <ele>287.3</ele>
      </trkpt>
      <trkpt lat="40.52541" lon="0.26956">
        <ele>286.1</ele>
      </trkpt>
      <trkpt lat="40.52546" lon="0.27023">
        <ele>283.3</ele>
      </trkpt>
      <trkpt lat="40.5256" lon="0.2707">
        <ele>282.2</ele>
      </trkpt>
      <trkpt lat="40.52568" lon="0.27109">
        <ele>280.3</ele>
      </trkpt>
      <trkpt lat="40.52582" lon="0.27153">
        <ele>277.9</ele>
      </trkpt>
      <trkpt lat="40.52596" lon="0.27208">
        <ele>277.8</ele>
      </trkpt>
      <trkpt lat="40.52599" lon="0.27264">
        <ele>278.8</ele>
      </trkpt>
      <trkpt lat="40.52573" lon="0.27324">
        <ele>280.7</ele>
      </trkpt>
      <trkpt lat="40.52548" lon="0.27362">
        <ele>284.6</ele>
      </trkpt>
      <trkpt lat="40.52536" lon="0.27373">
        <ele>285.5</ele>
      </trkpt>
      <trkpt lat="40.52524" lon="0.27384">
        <ele>287.5</ele>
      </trkpt>
      <trkpt lat="40.52521" lon="0.27396">
        <ele>290.3</ele>
      </trkpt>
      <trkpt lat="40.52541" lon="0.27403">
        <ele>291.3</ele>
      </trkpt>
      <trkpt lat="40.52551" lon="0.2741">
        <ele>293.2</ele>
      </trkpt>
      <trkpt lat="40.52516" lon="0.27436">
        <ele>294.9</ele>
      </trkpt>
      <trkpt lat="40.52491" lon="0.27513">
        <ele>292</ele>
      </trkpt>
      <trkpt lat="40.52456" lon="0.27681">
        <ele>291.4</ele>
      </trkpt>
      <trkpt lat="40.52432" lon="0.27737">
        <ele>293.3</ele>
      </trkpt>
      <trkpt lat="40.52426" lon="0.27759">
        <ele>294.2</ele>
      </trkpt>
      <trkpt lat="40.52427" lon="0.27777">
        <ele>294.5</ele>
      </trkpt>
      <trkpt lat="40.52434" lon="0.27794">
        <ele>294.4</ele>
      </trkpt>
      <trkpt lat="40.52453" lon="0.27816">
        <ele>294</ele>
      </trkpt>
      <trkpt lat="40.52503" lon="0.27867">
        <ele>294.7</ele>
      </trkpt>
      <trkpt lat="40.52512" lon="0.27885">
        <ele>294.1</ele>
      </trkpt>
      <trkpt lat="40.52512" lon="0.2791">
        <ele>294.9</ele>
      </trkpt>
      <trkpt lat="40.52515" lon="0.27944">
        <ele>296</ele>
      </trkpt>
      <trkpt lat="40.52528" lon="0.27984">
        <ele>297</ele>
      </trkpt>
      <trkpt lat="40.52533" lon="0.28021">
        <ele>296.2</ele>
      </trkpt>
      <trkpt lat="40.52539" lon="0.28053">
        <ele>295.1</ele>
      </trkpt>
      <trkpt lat="40.52541" lon="0.28064">
        <ele>294.4</ele>
      </trkpt>
      <trkpt lat="40.52573" lon="0.281">
        <ele>289.5</ele>
      </trkpt>
      <trkpt lat="40.52608" lon="0.28146">
        <ele>285</ele>
      </trkpt>
      <trkpt lat="40.52626" lon="0.28162">
        <ele>283.5</ele>
      </trkpt>
      <trkpt lat="40.5263" lon="0.28168">
        <ele>283.3</ele>
      </trkpt>
      <trkpt lat="40.52675" lon="0.2824">
        <ele>277.3</ele>
      </trkpt>
      <trkpt lat="40.52682" lon="0.28269">
        <ele>274.7</ele>
      </trkpt>
      <trkpt lat="40.52694" lon="0.2831">
        <ele>270.9</ele>
      </trkpt>
      <trkpt lat="40.52713" lon="0.28382">
        <ele>267.8</ele>
      </trkpt>
      <trkpt lat="40.52717" lon="0.28463">
        <ele>263.9</ele>
      </trkpt>
      <trkpt lat="40.52715" lon="0.28495">
        <ele>264</ele>
      </trkpt>
      <trkpt lat="40.52689" lon="0.28571">
        <ele>264.4</ele>
      </trkpt>
      <trkpt lat="40.52664" lon="0.28664">
        <ele>264.3</ele>
      </trkpt>
      <trkpt lat="40.52651" lon="0.28751">
        <ele>261.8</ele>
      </trkpt>
      <trkpt lat="40.52646" lon="0.28777">
        <ele>261.3</ele>
      </trkpt>
      <trkpt lat="40.52656" lon="0.28853">
        <ele>256.9</ele>
      </trkpt>
      <trkpt lat="40.52653" lon="0.28922">
        <ele>251.5</ele>
      </trkpt>
      <trkpt lat="40.52668" lon="0.29">
        <ele>248.2</ele>
      </trkpt>
      <trkpt lat="40.52676" lon="0.29024">
        <ele>249.4</ele>
      </trkpt>
      <trkpt lat="40.52691" lon="0.29027">
        <ele>249.9</ele>
      </trkpt>
      <trkpt lat="40.52704" lon="0.29033">
        <ele>251.1</ele>
      </trkpt>
      <trkpt lat="40.5272" lon="0.29044">
        <ele>252.6</ele>
      </trkpt>
      <trkpt lat="40.52744" lon="0.29069">
        <ele>252.7</ele>
      </trkpt>
      <trkpt lat="40.52765" lon="0.29101">
        <ele>253.2</ele>
      </trkpt>
      <trkpt lat="40.52781" lon="0.29133">
        <ele>254.1</ele>
      </trkpt>
      <trkpt lat="40.52827" lon="0.29217">
        <ele>256.8</ele>
      </trkpt>
      <trkpt lat="40.52845" lon="0.29263">
        <ele>257</ele>
      </trkpt>
      <trkpt lat="40.52864" lon="0.29325">
        <ele>255.3</ele>
      </trkpt>
      <trkpt lat="40.52886" lon="0.29407">
        <ele>252.7</ele>
      </trkpt>
      <trkpt lat="40.52883" lon="0.29419">
        <ele>251.9</ele>
      </trkpt>
      <trkpt lat="40.52878" lon="0.29425">
        <ele>251.6</ele>
      </trkpt>
      <trkpt lat="40.52869" lon="0.29431">
        <ele>251.1</ele>
      </trkpt>
      <trkpt lat="40.52863" lon="0.29432">
        <ele>250.9</ele>
      </trkpt>
      <trkpt lat="40.52857" lon="0.29435">
        <ele>250.5</ele>
      </trkpt>
      <trkpt lat="40.52853" lon="0.29441">
        <ele>249.9</ele>
      </trkpt>
      <trkpt lat="40.52851" lon="0.29449">
        <ele>249.6</ele>
      </trkpt>
      <trkpt lat="40.52851" lon="0.29456">
        <ele>249.6</ele>
      </trkpt>
      <trkpt lat="40.52853" lon="0.29463">
        <ele>249.7</ele>
      </trkpt>
      <trkpt lat="40.5286" lon="0.29472">
        <ele>250</ele>
      </trkpt>
      <trkpt lat="40.52867" lon="0.29474">
        <ele>250.2</ele>
      </trkpt>
      <trkpt lat="40.52874" lon="0.29473">
        <ele>250.5</ele>
      </trkpt>
      <trkpt lat="40.52881" lon="0.29473">
        <ele>250.7</ele>
      </trkpt>
      <trkpt lat="40.52889" lon="0.29477">
        <ele>251</ele>
      </trkpt>
      <trkpt lat="40.52909" lon="0.29492">
        <ele>250.5</ele>
      </trkpt>
      <trkpt lat="40.52938" lon="0.29518">
        <ele>250.7</ele>
      </trkpt>
      <trkpt lat="40.52954" lon="0.29541">
        <ele>250.5</ele>
      </trkpt>
      <trkpt lat="40.52973" lon="0.29573">
        <ele>249.4</ele>
      </trkpt>
      <trkpt lat="40.53319" lon="0.30308">
        <ele>226.5</ele>
      </trkpt>
      <trkpt lat="40.53397" lon="0.30472">
        <ele>221.7</ele>
      </trkpt>
      <trkpt lat="40.53391" lon="0.30484">
        <ele>221.9</ele>
      </trkpt>
      <trkpt lat="40.5339" lon="0.30492">
        <ele>222</ele>
      </trkpt>
      <trkpt lat="40.53393" lon="0.30503">
        <ele>221.9</ele>
      </trkpt>
      <trkpt lat="40.53377" lon="0.30529">
        <ele>224.2</ele>
      </trkpt>
      <trkpt lat="40.53391" lon="0.30548">
        <ele>222.8</ele>
      </trkpt>
      <trkpt lat="40.5343" lon="0.30578">
        <ele>219.5</ele>
      </trkpt>
      <trkpt lat="40.53498" lon="0.3065">
        <ele>216.5</ele>
      </trkpt>
      <trkpt lat="40.53632" lon="0.30808">
        <ele>211</ele>
      </trkpt>
      <trkpt lat="40.53666" lon="0.30846">
        <ele>210.5</ele>
      </trkpt>
      <trkpt lat="40.53712" lon="0.309">
        <ele>208.4</ele>
      </trkpt>
      <trkpt lat="40.53721" lon="0.3093">
        <ele>207.6</ele>
      </trkpt>
      <trkpt lat="40.53754" lon="0.31137">
        <ele>206.7</ele>
      </trkpt>
      <trkpt lat="40.53766" lon="0.31229">
        <ele>206.5</ele>
      </trkpt>
      <trkpt lat="40.53786" lon="0.31339">
        <ele>208.8</ele>
      </trkpt>
      <trkpt lat="40.53788" lon="0.3138">
        <ele>211.2</ele>
      </trkpt>
      <trkpt lat="40.53801" lon="0.31471">
        <ele>212</ele>
      </trkpt>
      <trkpt lat="40.5381" lon="0.31506">
        <ele>212.5</ele>
      </trkpt>
      <trkpt lat="40.53823" lon="0.31543">
        <ele>212.6</ele>
      </trkpt>
      <trkpt lat="40.53857" lon="0.31669">
        <ele>209</ele>
      </trkpt>
      <trkpt lat="40.5389" lon="0.31886">
        <ele>206.1</ele>
      </trkpt>
      <trkpt lat="40.53894" lon="0.31931">
        <ele>206.1</ele>
      </trkpt>
      <trkpt lat="40.53903" lon="0.31987">
        <ele>206</ele>
      </trkpt>
      <trkpt lat="40.53916" lon="0.3203">
        <ele>206</ele>
      </trkpt>
      <trkpt lat="40.53935" lon="0.32076">
        <ele>205.3</ele>
      </trkpt>
      <trkpt lat="40.53983" lon="0.32212">
        <ele>205.9</ele>
      </trkpt>
      <trkpt lat="40.53999" lon="0.3229">
        <ele>206</ele>
      </trkpt>
      <trkpt lat="40.53993" lon="0.32461">
        <ele>206.1</ele>
      </trkpt>
      <trkpt lat="40.53997" lon="0.32645">
        <ele>204.1</ele>
      </trkpt>
      <trkpt lat="40.53997" lon="0.32727">
        <ele>203.8</ele>
      </trkpt>
      <trkpt lat="40.54005" lon="0.32775">
        <ele>203</ele>
      </trkpt>
      <trkpt lat="40.54083" lon="0.33102">
        <ele>201</ele>
      </trkpt>
      <trkpt lat="40.5409" lon="0.33175">
        <ele>201.3</ele>
      </trkpt>
      <trkpt lat="40.54089" lon="0.33262">
        <ele>203.4</ele>
      </trkpt>
      <trkpt lat="40.54101" lon="0.33315">
        <ele>203</ele>
      </trkpt>
      <trkpt lat="40.5414" lon="0.33384">
        <ele>201.9</ele>
      </trkpt>
      <trkpt lat="40.54156" lon="0.33495">
        <ele>200.9</ele>
      </trkpt>
      <trkpt lat="40.54175" lon="0.33541">
        <ele>200.3</ele>
      </trkpt>
      <trkpt lat="40.54259" lon="0.3372">
        <ele>188.7</ele>
      </trkpt>
      <trkpt lat="40.5429" lon="0.33778">
        <ele>183.9</ele>
      </trkpt>
      <trkpt lat="40.54336" lon="0.33877">
        <ele>177</ele>
      </trkpt>
      <trkpt lat="40.54375" lon="0.33954">
        <ele>174.8</ele>
      </trkpt>
      <trkpt lat="40.54411" lon="0.34015">
        <ele>174</ele>
      </trkpt>
      <trkpt lat="40.54456" lon="0.34148">
        <ele>173</ele>
      </trkpt>
      <trkpt lat="40.5446" lon="0.3419">
        <ele>173</ele>
      </trkpt>
      <trkpt lat="40.54409" lon="0.34237">
        <ele>172</ele>
      </trkpt>
      <trkpt lat="40.54394" lon="0.34261">
        <ele>172</ele>
      </trkpt>
      <trkpt lat="40.54382" lon="0.34287">
        <ele>171.9</ele>
      </trkpt>
      <trkpt lat="40.54363" lon="0.3432">
        <ele>171.1</ele>
      </trkpt>
      <trkpt lat="40.54352" lon="0.34345">
        <ele>171</ele>
      </trkpt>
      <trkpt lat="40.54324" lon="0.34379">
        <ele>169.7</ele>
      </trkpt>
      <trkpt lat="40.54379" lon="0.34386">
        <ele>166.6</ele>
      </trkpt>
      <trkpt lat="40.54429" lon="0.34379">
        <ele>161</ele>
      </trkpt>
      <trkpt lat="40.54478" lon="0.34366">
        <ele>158</ele>
      </trkpt>
      <trkpt lat="40.54483" lon="0.34371">
        <ele>156.8</ele>
      </trkpt>
      <trkpt lat="40.5448" lon="0.34379">
        <ele>155.2</ele>
      </trkpt>
      <trkpt lat="40.54437" lon="0.344">
        <ele>152.9</ele>
      </trkpt>
      <trkpt lat="40.54426" lon="0.34408">
        <ele>151.5</ele>
      </trkpt>
      <trkpt lat="40.54418" lon="0.34421">
        <ele>147.7</ele>
      </trkpt>
      <trkpt lat="40.54426" lon="0.34464">
        <ele>146.9</ele>
      </trkpt>
      <trkpt lat="40.54415" lon="0.34488">
        <ele>148.7</ele>
      </trkpt>
      <trkpt lat="40.54376" lon="0.34524">
        <ele>149.3</ele>
      </trkpt>
      <trkpt lat="40.54367" lon="0.34536">
        <ele>149.6</ele>
      </trkpt>
      <trkpt lat="40.5436" lon="0.34557">
        <ele>152.9</ele>
      </trkpt>
      <trkpt lat="40.54351" lon="0.34636">
        <ele>156.7</ele>
      </trkpt>
      <trkpt lat="40.54345" lon="0.34666">
        <ele>159</ele>
      </trkpt>
      <trkpt lat="40.54319" lon="0.34735">
        <ele>161.1</ele>
      </trkpt>
      <trkpt lat="40.54317" lon="0.34753">
        <ele>162.3</ele>
      </trkpt>
      <trkpt lat="40.54318" lon="0.34775">
        <ele>162.4</ele>
      </trkpt>
      <trkpt lat="40.54351" lon="0.34969">
        <ele>166.1</ele>
      </trkpt>
      <trkpt lat="40.54355" lon="0.35044">
        <ele>169.4</ele>
      </trkpt>
      <trkpt lat="40.54361" lon="0.35118">
        <ele>171</ele>
      </trkpt>
      <trkpt lat="40.54372" lon="0.35168">
        <ele>172.1</ele>
      </trkpt>
      <trkpt lat="40.5439" lon="0.35206">
        <ele>173</ele>
      </trkpt>
      <trkpt lat="40.5462" lon="0.35499">
        <ele>171</ele>
      </trkpt>
      <trkpt lat="40.54657" lon="0.35556">
        <ele>169.3</ele>
      </trkpt>
      <trkpt lat="40.54679" lon="0.35597">
        <ele>168.6</ele>
      </trkpt>
      <trkpt lat="40.54688" lon="0.35613">
        <ele>168.2</ele>
      </trkpt>
      <trkpt lat="40.54736" lon="0.35676">
        <ele>167.2</ele>
      </trkpt>
      <trkpt lat="40.54759" lon="0.35715">
        <ele>167.5</ele>
      </trkpt>
      <trkpt lat="40.54817" lon="0.35773">
        <ele>166.7</ele>
      </trkpt>
      <trkpt lat="40.54997" lon="0.36071">
        <ele>164.9</ele>
      </trkpt>
      <trkpt lat="40.5511" lon="0.36205">
        <ele>165.4</ele>
      </trkpt>
      <trkpt lat="40.55255" lon="0.36467">
        <ele>165.5</ele>
      </trkpt>
      <trkpt lat="40.55268" lon="0.36502">
        <ele>166.3</ele>
      </trkpt>
      <trkpt lat="40.55279" lon="0.36553">
        <ele>167.1</ele>
      </trkpt>
      <trkpt lat="40.55343" lon="0.36799">
        <ele>168</ele>
      </trkpt>
      <trkpt lat="40.55373" lon="0.3696">
        <ele>165</ele>
      </trkpt>
      <trkpt lat="40.55423" lon="0.37079">
        <ele>165</ele>
      </trkpt>
      <trkpt lat="40.55444" lon="0.37151">
        <ele>165</ele>
      </trkpt>
      <trkpt lat="40.55466" lon="0.37244">
        <ele>165.6</ele>
      </trkpt>
      <trkpt lat="40.55488" lon="0.3743">
        <ele>163.8</ele>
      </trkpt>
      <trkpt lat="40.55494" lon="0.37459">
        <ele>163.4</ele>
      </trkpt>
      <trkpt lat="40.55506" lon="0.37488">
        <ele>162.8</ele>
      </trkpt>
      <trkpt lat="40.55518" lon="0.37516">
        <ele>161</ele>
      </trkpt>
      <trkpt lat="40.55523" lon="0.37547">
        <ele>159</ele>
      </trkpt>
      <trkpt lat="40.55523" lon="0.37591">
        <ele>158.1</ele>
      </trkpt>
      <trkpt lat="40.55512" lon="0.37671">
        <ele>152</ele>
      </trkpt>
      <trkpt lat="40.55492" lon="0.37756">
        <ele>149.3</ele>
      </trkpt>
      <trkpt lat="40.55494" lon="0.37788">
        <ele>147.5</ele>
      </trkpt>
      <trkpt lat="40.55498" lon="0.37826">
        <ele>148.8</ele>
      </trkpt>
      <trkpt lat="40.55509" lon="0.37858">
        <ele>150</ele>
      </trkpt>
      <trkpt lat="40.55541" lon="0.37908">
        <ele>152.8</ele>
      </trkpt>
      <trkpt lat="40.55562" lon="0.37923">
        <ele>155</ele>
      </trkpt>
      <trkpt lat="40.55601" lon="0.3794">
        <ele>159.3</ele>
      </trkpt>
      <trkpt lat="40.55628" lon="0.37968">
        <ele>160.6</ele>
      </trkpt>
      <trkpt lat="40.55657" lon="0.37999">
        <ele>161</ele>
      </trkpt>
      <trkpt lat="40.55687" lon="0.38051">
        <ele>160.3</ele>
      </trkpt>
      <trkpt lat="40.55725" lon="0.38202">
        <ele>158</ele>
      </trkpt>
      <trkpt lat="40.55732" lon="0.38251">
        <ele>158</ele>
      </trkpt>
      <trkpt lat="40.55748" lon="0.38364">
        <ele>157.9</ele>
      </trkpt>
      <trkpt lat="40.55775" lon="0.38462">
        <ele>157</ele>
      </trkpt>
      <trkpt lat="40.55792" lon="0.38561">
        <ele>156.5</ele>
      </trkpt>
      <trkpt lat="40.55841" lon="0.38873">
        <ele>154.6</ele>
      </trkpt>
      <trkpt lat="40.55853" lon="0.38923">
        <ele>154</ele>
      </trkpt>
      <trkpt lat="40.55866" lon="0.38965">
        <ele>154</ele>
      </trkpt>
      <trkpt lat="40.55886" lon="0.39008">
        <ele>153</ele>
      </trkpt>
      <trkpt lat="40.56047" lon="0.39261">
        <ele>153</ele>
      </trkpt>
      <trkpt lat="40.56114" lon="0.39366">
        <ele>153.1</ele>
      </trkpt>
      <trkpt lat="40.56237" lon="0.39587">
        <ele>153</ele>
      </trkpt>
      <trkpt lat="40.56306" lon="0.3973">
        <ele>152</ele>
      </trkpt>
      <trkpt lat="40.56377" lon="0.39877">
        <ele>151</ele>
      </trkpt>
      <trkpt lat="40.56466" lon="0.40025">
        <ele>150.1</ele>
      </trkpt>
      <trkpt lat="40.56536" lon="0.40157">
        <ele>150.1</ele>
      </trkpt>
      <trkpt lat="40.56594" lon="0.40246">
        <ele>150</ele>
      </trkpt>
      <trkpt lat="40.56731" lon="0.40425">
        <ele>149</ele>
      </trkpt>
      <trkpt lat="40.56783" lon="0.40503">
        <ele>148.9</ele>
      </trkpt>
      <trkpt lat="40.56797" lon="0.40539">
        <ele>148</ele>
      </trkpt>
      <trkpt lat="40.56796" lon="0.4055">
        <ele>148</ele>
      </trkpt>
      <trkpt lat="40.56797" lon="0.40555">
        <ele>148</ele>
      </trkpt>
      <trkpt lat="40.56801" lon="0.40566">
        <ele>147.9</ele>
      </trkpt>
      <trkpt lat="40.56809" lon="0.40572">
        <ele>148</ele>
      </trkpt>
      <trkpt lat="40.5682" lon="0.40572">
        <ele>148</ele>
      </trkpt>
      <trkpt lat="40.56843" lon="0.40596">
        <ele>149.1</ele>
      </trkpt>
      <trkpt lat="40.56957" lon="0.4077">
        <ele>148</ele>
      </trkpt>
      <trkpt lat="40.57322" lon="0.41222">
        <ele>146.6</ele>
      </trkpt>
      <trkpt lat="40.57522" lon="0.41417">
        <ele>145.8</ele>
      </trkpt>
      <trkpt lat="40.5781" lon="0.41709">
        <ele>146.1</ele>
      </trkpt>
      <trkpt lat="40.57944" lon="0.41806">
        <ele>147</ele>
      </trkpt>
      <trkpt lat="40.58052" lon="0.41908">
        <ele>146</ele>
      </trkpt>
      <trkpt lat="40.58159" lon="0.42037">
        <ele>144.3</ele>
      </trkpt>
      <trkpt lat="40.58264" lon="0.42254">
        <ele>145.1</ele>
      </trkpt>
      <trkpt lat="40.58298" lon="0.42298">
        <ele>146</ele>
      </trkpt>
      <trkpt lat="40.58349" lon="0.42351">
        <ele>144.6</ele>
      </trkpt>
      <trkpt lat="40.58363" lon="0.42366">
        <ele>143.9</ele>
      </trkpt>
      <trkpt lat="40.58389" lon="0.42429">
        <ele>136.9</ele>
      </trkpt>
      <trkpt lat="40.58407" lon="0.42444">
        <ele>136.9</ele>
      </trkpt>
      <trkpt lat="40.58418" lon="0.42456">
        <ele>138.7</ele>
      </trkpt>
      <trkpt lat="40.58415" lon="0.42479">
        <ele>137.4</ele>
      </trkpt>
      <trkpt lat="40.58388" lon="0.42591">
        <ele>138.3</ele>
      </trkpt>
      <trkpt lat="40.58372" lon="0.42619">
        <ele>137.9</ele>
      </trkpt>
      <trkpt lat="40.5834" lon="0.42651">
        <ele>137.5</ele>
      </trkpt>
      <trkpt lat="40.58326" lon="0.42685">
        <ele>141.2</ele>
      </trkpt>
      <trkpt lat="40.58328" lon="0.42697">
        <ele>143.2</ele>
      </trkpt>
      <trkpt lat="40.5833" lon="0.42711">
        <ele>143.2</ele>
      </trkpt>
      <trkpt lat="40.58377" lon="0.4276">
        <ele>144</ele>
      </trkpt>
      <trkpt lat="40.5841" lon="0.42811">
        <ele>143</ele>
      </trkpt>
      <trkpt lat="40.58484" lon="0.43133">
        <ele>139.5</ele>
      </trkpt>
      <trkpt lat="40.58499" lon="0.4318">
        <ele>139</ele>
      </trkpt>
      <trkpt lat="40.58521" lon="0.43221">
        <ele>138</ele>
      </trkpt>
      <trkpt lat="40.58559" lon="0.43273">
        <ele>137.2</ele>
      </trkpt>
      <trkpt lat="40.5861" lon="0.43343">
        <ele>136</ele>
      </trkpt>
      <trkpt lat="40.58697" lon="0.43488">
        <ele>134.4</ele>
      </trkpt>
      <trkpt lat="40.58789" lon="0.43668">
        <ele>132</ele>
      </trkpt>
      <trkpt lat="40.58877" lon="0.43799">
        <ele>130</ele>
      </trkpt>
      <trkpt lat="40.59051" lon="0.44076">
        <ele>132.8</ele>
      </trkpt>
      <trkpt lat="40.592" lon="0.4429">
        <ele>133.6</ele>
      </trkpt>
      <trkpt lat="40.59226" lon="0.44308">
        <ele>133.9</ele>
      </trkpt>
      <trkpt lat="40.59237" lon="0.44315">
        <ele>134</ele>
      </trkpt>
      <trkpt lat="40.59246" lon="0.44336">
        <ele>134.7</ele>
      </trkpt>
      <trkpt lat="40.59247" lon="0.44349">
        <ele>134.8</ele>
      </trkpt>
      <trkpt lat="40.5925" lon="0.44358">
        <ele>135</ele>
      </trkpt>
      <trkpt lat="40.59256" lon="0.44363">
        <ele>134.9</ele>
      </trkpt>
      <trkpt lat="40.5926" lon="0.44366">
        <ele>134.8</ele>
      </trkpt>
      <trkpt lat="40.59267" lon="0.44366">
        <ele>134.8</ele>
      </trkpt>
      <trkpt lat="40.59273" lon="0.44364">
        <ele>134.9</ele>
      </trkpt>
      <trkpt lat="40.59276" lon="0.44361">
        <ele>135</ele>
      </trkpt>
      <trkpt lat="40.59283" lon="0.44357">
        <ele>134.8</ele>
      </trkpt>
      <trkpt lat="40.59296" lon="0.44352">
        <ele>134.3</ele>
      </trkpt>
      <trkpt lat="40.59325" lon="0.44367">
        <ele>134</ele>
      </trkpt>
      <trkpt lat="40.59384" lon="0.44404">
        <ele>134</ele>
      </trkpt>
      <trkpt lat="40.5941" lon="0.4442">
        <ele>134.6</ele>
      </trkpt>
      <trkpt lat="40.59423" lon="0.44431">
        <ele>134.6</ele>
      </trkpt>
      <trkpt lat="40.59438" lon="0.44445">
        <ele>134.8</ele>
      </trkpt>
      <trkpt lat="40.59471" lon="0.44478">
        <ele>135.2</ele>
      </trkpt>
      <trkpt lat="40.59479" lon="0.44488">
        <ele>135.7</ele>
      </trkpt>
      <trkpt lat="40.59494" lon="0.44506">
        <ele>136</ele>
      </trkpt>
      <trkpt lat="40.59505" lon="0.44518">
        <ele>136</ele>
      </trkpt>
      <trkpt lat="40.59531" lon="0.44547">
        <ele>135.9</ele>
      </trkpt>
      <trkpt lat="40.59547" lon="0.44566">
        <ele>135.2</ele>
      </trkpt>
      <trkpt lat="40.59563" lon="0.44581">
        <ele>135</ele>
      </trkpt>
      <trkpt lat="40.59552" lon="0.44601">
        <ele>134.4</ele>
      </trkpt>
      <trkpt lat="40.59568" lon="0.44617">
        <ele>134</ele>
      </trkpt>
      <trkpt lat="40.59551" lon="0.44681">
        <ele>133.1</ele>
      </trkpt>
      <trkpt lat="40.59554" lon="0.44721">
        <ele>132.9</ele>
      </trkpt>
      <trkpt lat="40.59567" lon="0.44749">
        <ele>132</ele>
      </trkpt>
      <trkpt lat="40.5961" lon="0.44801">
        <ele>132</ele>
      </trkpt>
      <trkpt lat="40.59635" lon="0.44828">
        <ele>132</ele>
      </trkpt>
      <trkpt lat="40.59653" lon="0.4481">
        <ele>132</ele>
      </trkpt>
      <trkpt lat="40.59658" lon="0.44807">
        <ele>132</ele>
      </trkpt>
      <trkpt lat="40.59675" lon="0.448">
        <ele>132.4</ele>
      </trkpt>
      <trkpt lat="40.5974" lon="0.44875">
        <ele>133</ele>
      </trkpt>
      <trkpt lat="40.59752" lon="0.44888">
        <ele>133.1</ele>
      </trkpt>
      <trkpt lat="40.59774" lon="0.44912">
        <ele>133.1</ele>
      </trkpt>
      <trkpt lat="40.59793" lon="0.44886">
        <ele>134</ele>
      </trkpt>
      <trkpt lat="40.59816" lon="0.4491">
        <ele>134</ele>
      </trkpt>
      <trkpt lat="40.59831" lon="0.44885">
        <ele>134.1</ele>
      </trkpt>
      <trkpt lat="40.59837" lon="0.44875">
        <ele>134.5</ele>
      </trkpt>
      <trkpt lat="40.59856" lon="0.44898">
        <ele>134</ele>
      </trkpt>
      <trkpt lat="40.59907" lon="0.44955">
        <ele>133</ele>
      </trkpt>
      <trkpt lat="40.59922" lon="0.44972">
        <ele>133</ele>
      </trkpt>
      <trkpt lat="40.59999" lon="0.45061">
        <ele>132.8</ele>
      </trkpt>
      <trkpt lat="40.60067" lon="0.45144">
        <ele>133.3</ele>
      </trkpt>
      <trkpt lat="40.60074" lon="0.45152">
        <ele>133.4</ele>
      </trkpt>
      <trkpt lat="40.60229" lon="0.45338">
        <ele>132.1</ele>
      </trkpt>
      <trkpt lat="40.60245" lon="0.45355">
        <ele>132</ele>
      </trkpt>
      <trkpt lat="40.60264" lon="0.45376">
        <ele>132</ele>
      </trkpt>
      <trkpt lat="40.60275" lon="0.45396">
        <ele>132.1</ele>
      </trkpt>
      <trkpt lat="40.60279" lon="0.45409">
        <ele>132.7</ele>
      </trkpt>
      <trkpt lat="40.60277" lon="0.4542">
        <ele>132.9</ele>
      </trkpt>
      <trkpt lat="40.60278" lon="0.45432">
        <ele>133</ele>
      </trkpt>
      <trkpt lat="40.60283" lon="0.45441">
        <ele>133</ele>
      </trkpt>
      <trkpt lat="40.60289" lon="0.45449">
        <ele>132.6</ele>
      </trkpt>
      <trkpt lat="40.60299" lon="0.45453">
        <ele>132.5</ele>
      </trkpt>
      <trkpt lat="40.60309" lon="0.45451">
        <ele>132.6</ele>
      </trkpt>
      <trkpt lat="40.60329" lon="0.4546">
        <ele>131.7</ele>
      </trkpt>
      <trkpt lat="40.60351" lon="0.45477">
        <ele>132</ele>
      </trkpt>
      <trkpt lat="40.60523" lon="0.45673">
        <ele>132.8</ele>
      </trkpt>
      <trkpt lat="40.60639" lon="0.45802">
        <ele>133</ele>
      </trkpt>
      <trkpt lat="40.60805" lon="0.45974">
        <ele>130.9</ele>
      </trkpt>
      <trkpt lat="40.60913" lon="0.46082">
        <ele>129.8</ele>
      </trkpt>
      <trkpt lat="40.61124" lon="0.46294">
        <ele>127.7</ele>
      </trkpt>
      <trkpt lat="40.61307" lon="0.46476">
        <ele>128.6</ele>
      </trkpt>
      <trkpt lat="40.61364" lon="0.46531">
        <ele>127.7</ele>
      </trkpt>
      <trkpt lat="40.61423" lon="0.46586">
        <ele>127.5</ele>
      </trkpt>
      <trkpt lat="40.61477" lon="0.46632">
        <ele>127.1</ele>
      </trkpt>
      <trkpt lat="40.61782" lon="0.46873">
        <ele>128</ele>
      </trkpt>
      <trkpt lat="40.61906" lon="0.46972">
        <ele>128</ele>
      </trkpt>
      <trkpt lat="40.62016" lon="0.4706">
        <ele>129.5</ele>
      </trkpt>
      <trkpt lat="40.62051" lon="0.47092">
        <ele>130</ele>
      </trkpt>
      <trkpt lat="40.62063" lon="0.47106">
        <ele>130</ele>
      </trkpt>
      <trkpt lat="40.62084" lon="0.47135">
        <ele>130</ele>
      </trkpt>
      <trkpt lat="40.62131" lon="0.47215">
        <ele>130</ele>
      </trkpt>
      <trkpt lat="40.62347" lon="0.47598">
        <ele>129.8</ele>
      </trkpt>
      <trkpt lat="40.62362" lon="0.47624">
        <ele>129.5</ele>
      </trkpt>
      <trkpt lat="40.62442" lon="0.47764">
        <ele>129.5</ele>
      </trkpt>
      <trkpt lat="40.62502" lon="0.47869">
        <ele>129</ele>
      </trkpt>
      <trkpt lat="40.62505" lon="0.47882">
        <ele>129</ele>
      </trkpt>
      <trkpt lat="40.62513" lon="0.47896">
        <ele>128.9</ele>
      </trkpt>
      <trkpt lat="40.62589" lon="0.48031">
        <ele>129</ele>
      </trkpt>
      <trkpt lat="40.62605" lon="0.48055">
        <ele>129</ele>
      </trkpt>
      <trkpt lat="40.62642" lon="0.48098">
        <ele>128.5</ele>
      </trkpt>
      <trkpt lat="40.62668" lon="0.48131">
        <ele>128</ele>
      </trkpt>
      <trkpt lat="40.6269" lon="0.48162">
        <ele>127.7</ele>
      </trkpt>
      <trkpt lat="40.62705" lon="0.48185">
        <ele>127.2</ele>
      </trkpt>
      <trkpt lat="40.62711" lon="0.4819">
        <ele>127.3</ele>
      </trkpt>
      <trkpt lat="40.62719" lon="0.48192">
        <ele>127.8</ele>
      </trkpt>
      <trkpt lat="40.62731" lon="0.48201">
        <ele>127.6</ele>
      </trkpt>
      <trkpt lat="40.62744" lon="0.48213">
        <ele>127.2</ele>
      </trkpt>
      <trkpt lat="40.62756" lon="0.4822">
        <ele>127.1</ele>
      </trkpt>
      <trkpt lat="40.6277" lon="0.48237">
        <ele>126.7</ele>
      </trkpt>
      <trkpt lat="40.63069" lon="0.48572">
        <ele>122.2</ele>
      </trkpt>
      <trkpt lat="40.63254" lon="0.48774">
        <ele>118.7</ele>
      </trkpt>
      <trkpt lat="40.63684" lon="0.49256">
        <ele>116.4</ele>
      </trkpt>
      <trkpt lat="40.6395" lon="0.49525">
        <ele>114.8</ele>
      </trkpt>
      <trkpt lat="40.63998" lon="0.49569">
        <ele>114</ele>
      </trkpt>
      <trkpt lat="40.64053" lon="0.49613">
        <ele>115.7</ele>
      </trkpt>
      <trkpt lat="40.64149" lon="0.49678">
        <ele>115.7</ele>
      </trkpt>
      <trkpt lat="40.64172" lon="0.49692">
        <ele>116.8</ele>
      </trkpt>
      <trkpt lat="40.64164" lon="0.49725">
        <ele>115.6</ele>
      </trkpt>
      <trkpt lat="40.6429" lon="0.49825">
        <ele>116.6</ele>
      </trkpt>
      <trkpt lat="40.64421" lon="0.49918">
        <ele>114.3</ele>
      </trkpt>
      <trkpt lat="40.64445" lon="0.49935">
        <ele>114.7</ele>
      </trkpt>
      <trkpt lat="40.64471" lon="0.49956">
        <ele>113.7</ele>
      </trkpt>
      <trkpt lat="40.64515" lon="0.50007">
        <ele>113.7</ele>
      </trkpt>
      <trkpt lat="40.64519" lon="0.50013">
        <ele>113.6</ele>
      </trkpt>
      <trkpt lat="40.64538" lon="0.50044">
        <ele>112.5</ele>
      </trkpt>
      <trkpt lat="40.64546" lon="0.50064">
        <ele>112.6</ele>
      </trkpt>
      <trkpt lat="40.64556" lon="0.50101">
        <ele>116.2</ele>
      </trkpt>
      <trkpt lat="40.64558" lon="0.50113">
        <ele>116.5</ele>
      </trkpt>
      <trkpt lat="40.64558" lon="0.50128">
        <ele>117</ele>
      </trkpt>
      <trkpt lat="40.64553" lon="0.50139">
        <ele>117.4</ele>
      </trkpt>
      <trkpt lat="40.64526" lon="0.50188">
        <ele>119.4</ele>
      </trkpt>
      <trkpt lat="40.64495" lon="0.50237">
        <ele>116.6</ele>
      </trkpt>
      <trkpt lat="40.64486" lon="0.50248">
        <ele>117.8</ele>
      </trkpt>
      <trkpt lat="40.64477" lon="0.50256">
        <ele>117.7</ele>
      </trkpt>
      <trkpt lat="40.64469" lon="0.50259">
        <ele>117.3</ele>
      </trkpt>
      <trkpt lat="40.64461" lon="0.50259">
        <ele>117.2</ele>
      </trkpt>
      <trkpt lat="40.64422" lon="0.50254">
        <ele>119.2</ele>
      </trkpt>
      <trkpt lat="40.64411" lon="0.50257">
        <ele>119.3</ele>
      </trkpt>
      <trkpt lat="40.64402" lon="0.50261">
        <ele>119.5</ele>
      </trkpt>
      <trkpt lat="40.64388" lon="0.50288">
        <ele>122.2</ele>
      </trkpt>
      <trkpt lat="40.64377" lon="0.50334">
        <ele>120.6</ele>
      </trkpt>
      <trkpt lat="40.64354" lon="0.50421">
        <ele>122.6</ele>
      </trkpt>
      <trkpt lat="40.64339" lon="0.5045">
        <ele>121.9</ele>
      </trkpt>
      <trkpt lat="40.6432" lon="0.50465">
        <ele>120.8</ele>
      </trkpt>
      <trkpt lat="40.64298" lon="0.50468">
        <ele>120.8</ele>
      </trkpt>
      <trkpt lat="40.64272" lon="0.50464">
        <ele>120.7</ele>
      </trkpt>
      <trkpt lat="40.64294" lon="0.50481">
        <ele>121.1</ele>
      </trkpt>
      <trkpt lat="40.64321" lon="0.50482">
        <ele>120.6</ele>
      </trkpt>
      <trkpt lat="40.64337" lon="0.50475">
        <ele>120</ele>
      </trkpt>
      <trkpt lat="40.64348" lon="0.50466">
        <ele>119.9</ele>
      </trkpt>
      <trkpt lat="40.64359" lon="0.50455">
        <ele>119.8</ele>
      </trkpt>
      <trkpt lat="40.64369" lon="0.50437">
        <ele>120.2</ele>
      </trkpt>
      <trkpt lat="40.64378" lon="0.50428">
        <ele>119.7</ele>
      </trkpt>
      <trkpt lat="40.64386" lon="0.50426">
        <ele>118.5</ele>
      </trkpt>
      <trkpt lat="40.64394" lon="0.50427">
        <ele>118.1</ele>
      </trkpt>
      <trkpt lat="40.64505" lon="0.5049">
        <ele>117.6</ele>
      </trkpt>
      <trkpt lat="40.6459" lon="0.50534">
        <ele>117</ele>
      </trkpt>
      <trkpt lat="40.64689" lon="0.5058">
        <ele>115.4</ele>
      </trkpt>
      <trkpt lat="40.64692" lon="0.50615">
        <ele>116.2</ele>
      </trkpt>
      <trkpt lat="40.64697" lon="0.50631">
        <ele>116.6</ele>
      </trkpt>
      <trkpt lat="40.64704" lon="0.50644">
        <ele>116.7</ele>
      </trkpt>
      <trkpt lat="40.64731" lon="0.50684">
        <ele>117</ele>
      </trkpt>
      <trkpt lat="40.64747" lon="0.50717">
        <ele>116.9</ele>
      </trkpt>
      <trkpt lat="40.64753" lon="0.50736">
        <ele>116.9</ele>
      </trkpt>
      <trkpt lat="40.64775" lon="0.50766">
        <ele>117.1</ele>
      </trkpt>
      <trkpt lat="40.648" lon="0.50795">
        <ele>117.6</ele>
      </trkpt>
      <trkpt lat="40.64824" lon="0.50832">
        <ele>118.3</ele>
      </trkpt>
      <trkpt lat="40.64866" lon="0.50963">
        <ele>118.5</ele>
      </trkpt>
      <trkpt lat="40.64884" lon="0.51078">
        <ele>120.8</ele>
      </trkpt>
      <trkpt lat="40.64892" lon="0.51108">
        <ele>120.9</ele>
      </trkpt>
      <trkpt lat="40.64922" lon="0.51142">
        <ele>120.8</ele>
      </trkpt>
      <trkpt lat="40.6495" lon="0.5117">
        <ele>119.9</ele>
      </trkpt>
      <trkpt lat="40.64986" lon="0.51195">
        <ele>119.5</ele>
      </trkpt>
      <trkpt lat="40.64996" lon="0.51204">
        <ele>119.1</ele>
      </trkpt>
      <trkpt lat="40.65037" lon="0.51253">
        <ele>119.7</ele>
      </trkpt>
      <trkpt lat="40.65079" lon="0.51296">
        <ele>118.8</ele>
      </trkpt>
      <trkpt lat="40.65114" lon="0.51343">
        <ele>118.3</ele>
      </trkpt>
      <trkpt lat="40.65202" lon="0.51434">
        <ele>119.6</ele>
      </trkpt>
      <trkpt lat="40.6521" lon="0.51442">
        <ele>119.4</ele>
      </trkpt>
      <trkpt lat="40.65246" lon="0.51483">
        <ele>120</ele>
      </trkpt>
      <trkpt lat="40.65253" lon="0.51489">
        <ele>120.3</ele>
      </trkpt>
      <trkpt lat="40.65261" lon="0.51489">
        <ele>120.4</ele>
      </trkpt>
      <trkpt lat="40.65276" lon="0.5148">
        <ele>120.2</ele>
      </trkpt>
      <trkpt lat="40.65281" lon="0.51479">
        <ele>120.4</ele>
      </trkpt>
      <trkpt lat="40.6529" lon="0.51482">
        <ele>120.8</ele>
      </trkpt>
      <trkpt lat="40.65303" lon="0.51489">
        <ele>121.5</ele>
      </trkpt>
      <trkpt lat="40.65346" lon="0.51531">
        <ele>122.6</ele>
      </trkpt>
      <trkpt lat="40.65352" lon="0.51532">
        <ele>122.4</ele>
      </trkpt>
      <trkpt lat="40.65359" lon="0.5153">
        <ele>122.1</ele>
      </trkpt>
      <trkpt lat="40.65382" lon="0.51515">
        <ele>121.2</ele>
      </trkpt>
      <trkpt lat="40.65386" lon="0.51514">
        <ele>121.1</ele>
      </trkpt>
      <trkpt lat="40.65394" lon="0.51517">
        <ele>121.2</ele>
      </trkpt>
      <trkpt lat="40.65454" lon="0.51548">
        <ele>122.6</ele>
      </trkpt>
      <trkpt lat="40.65491" lon="0.51564">
        <ele>122.6</ele>
      </trkpt>
      <trkpt lat="40.65534" lon="0.51601">
        <ele>122.1</ele>
      </trkpt>
      <trkpt lat="40.65541" lon="0.51606">
        <ele>122.3</ele>
      </trkpt>
      <trkpt lat="40.65547" lon="0.51607">
        <ele>122.5</ele>
      </trkpt>
      <trkpt lat="40.65552" lon="0.51606">
        <ele>122.6</ele>
      </trkpt>
      <trkpt lat="40.65557" lon="0.51603">
        <ele>122.5</ele>
      </trkpt>
      <trkpt lat="40.65591" lon="0.51562">
        <ele>120.4</ele>
      </trkpt>
      <trkpt lat="40.65625" lon="0.51524">
        <ele>118.4</ele>
      </trkpt>
      <trkpt lat="40.65647" lon="0.51496">
        <ele>117.6</ele>
      </trkpt>
      <trkpt lat="40.65652" lon="0.51492">
        <ele>117.4</ele>
      </trkpt>
      <trkpt lat="40.65658" lon="0.51492">
        <ele>117.2</ele>
      </trkpt>
      <trkpt lat="40.65662" lon="0.51494">
        <ele>117.1</ele>
      </trkpt>
      <trkpt lat="40.65667" lon="0.51499">
        <ele>117</ele>
      </trkpt>
      <trkpt lat="40.65706" lon="0.51563">
        <ele>117</ele>
      </trkpt>
      <trkpt lat="40.65714" lon="0.51575">
        <ele>117.5</ele>
      </trkpt>
      <trkpt lat="40.65756" lon="0.51602">
        <ele>119.5</ele>
      </trkpt>
      <trkpt lat="40.6576" lon="0.51608">
        <ele>119.6</ele>
      </trkpt>
      <trkpt lat="40.65766" lon="0.51621">
        <ele>119</ele>
      </trkpt>
      <trkpt lat="40.65814" lon="0.51575">
        <ele>116.2</ele>
      </trkpt>
      <trkpt lat="40.65819" lon="0.51572">
        <ele>115.7</ele>
      </trkpt>
      <trkpt lat="40.65827" lon="0.51571">
        <ele>115</ele>
      </trkpt>
      <trkpt lat="40.65831" lon="0.51573">
        <ele>114.6</ele>
      </trkpt>
      <trkpt lat="40.65834" lon="0.51577">
        <ele>114.2</ele>
      </trkpt>
      <trkpt lat="40.65858" lon="0.51618">
        <ele>112.6</ele>
      </trkpt>
      <trkpt lat="40.65877" lon="0.51646">
        <ele>110.6</ele>
      </trkpt>
      <trkpt lat="40.65888" lon="0.51666">
        <ele>111</ele>
      </trkpt>
      <trkpt lat="40.65903" lon="0.5168">
        <ele>111.7</ele>
      </trkpt>
      <trkpt lat="40.65909" lon="0.51682">
        <ele>111.8</ele>
      </trkpt>
      <trkpt lat="40.65915" lon="0.5168">
        <ele>111.5</ele>
      </trkpt>
      <trkpt lat="40.65942" lon="0.5166">
        <ele>110.9</ele>
      </trkpt>
      <trkpt lat="40.65952" lon="0.51656">
        <ele>109.9</ele>
      </trkpt>
      <trkpt lat="40.65975" lon="0.51651">
        <ele>108</ele>
      </trkpt>
      <trkpt lat="40.6599" lon="0.51646">
        <ele>108.2</ele>
      </trkpt>
      <trkpt lat="40.66012" lon="0.51632">
        <ele>109.1</ele>
      </trkpt>
      <trkpt lat="40.66026" lon="0.51618">
        <ele>110.2</ele>
      </trkpt>
      <trkpt lat="40.66034" lon="0.51612">
        <ele>110.1</ele>
      </trkpt>
      <trkpt lat="40.66044" lon="0.51616">
        <ele>110.2</ele>
      </trkpt>
      <trkpt lat="40.66099" lon="0.51665">
        <ele>108.3</ele>
      </trkpt>
      <trkpt lat="40.66121" lon="0.51687">
        <ele>106</ele>
      </trkpt>
      <trkpt lat="40.66151" lon="0.51724">
        <ele>105.1</ele>
      </trkpt>
      <trkpt lat="40.66156" lon="0.51727">
        <ele>105.3</ele>
      </trkpt>
      <trkpt lat="40.66162" lon="0.51726">
        <ele>105.2</ele>
      </trkpt>
      <trkpt lat="40.66168" lon="0.51722">
        <ele>105</ele>
      </trkpt>
      <trkpt lat="40.66177" lon="0.51714">
        <ele>104.7</ele>
      </trkpt>
      <trkpt lat="40.6619" lon="0.51706">
        <ele>104.4</ele>
      </trkpt>
      <trkpt lat="40.66223" lon="0.517">
        <ele>104.2</ele>
      </trkpt>
      <trkpt lat="40.66237" lon="0.51703">
        <ele>104.5</ele>
      </trkpt>
      <trkpt lat="40.66257" lon="0.51722">
        <ele>105.2</ele>
      </trkpt>
      <trkpt lat="40.6626" lon="0.51723">
        <ele>104.9</ele>
      </trkpt>
      <trkpt lat="40.66266" lon="0.51723">
        <ele>104.3</ele>
      </trkpt>
      <trkpt lat="40.66272" lon="0.51716">
        <ele>103.7</ele>
      </trkpt>
      <trkpt lat="40.66289" lon="0.51694">
        <ele>103.2</ele>
      </trkpt>
      <trkpt lat="40.66295" lon="0.517">
        <ele>102.8</ele>
      </trkpt>
      <trkpt lat="40.66339" lon="0.51717">
        <ele>104</ele>
      </trkpt>
      <trkpt lat="40.66361" lon="0.51729">
        <ele>105.2</ele>
      </trkpt>
      <trkpt lat="40.6644" lon="0.51785">
        <ele>101.8</ele>
      </trkpt>
      <trkpt lat="40.66477" lon="0.51808">
        <ele>102.3</ele>
      </trkpt>
      <trkpt lat="40.66524" lon="0.51835">
        <ele>105.3</ele>
      </trkpt>
      <trkpt lat="40.66592" lon="0.51869">
        <ele>101</ele>
      </trkpt>
      <trkpt lat="40.66643" lon="0.5188">
        <ele>100.4</ele>
      </trkpt>
      <trkpt lat="40.66649" lon="0.5188">
        <ele>100.5</ele>
      </trkpt>
      <trkpt lat="40.66664" lon="0.5187">
        <ele>100.3</ele>
      </trkpt>
      <trkpt lat="40.66685" lon="0.51853">
        <ele>98.6</ele>
      </trkpt>
      <trkpt lat="40.66714" lon="0.5184">
        <ele>97.5</ele>
      </trkpt>
      <trkpt lat="40.66767" lon="0.51827">
        <ele>96.4</ele>
      </trkpt>
      <trkpt lat="40.66781" lon="0.51827">
        <ele>96</ele>
      </trkpt>
      <trkpt lat="40.66839" lon="0.51846">
        <ele>96.7</ele>
      </trkpt>
      <trkpt lat="40.66977" lon="0.51899">
        <ele>105.9</ele>
      </trkpt>
      <trkpt lat="40.67011" lon="0.51914">
        <ele>110.1</ele>
      </trkpt>
      <trkpt lat="40.67044" lon="0.51928">
        <ele>114</ele>
      </trkpt>
      <trkpt lat="40.67048" lon="0.51929">
        <ele>114.3</ele>
      </trkpt>
      <trkpt lat="40.6709" lon="0.51945">
        <ele>119</ele>
      </trkpt>
      <trkpt lat="40.67117" lon="0.51956">
        <ele>123.5</ele>
      </trkpt>
      <trkpt lat="40.67123" lon="0.51962">
        <ele>124.4</ele>
      </trkpt>
      <trkpt lat="40.67122" lon="0.51968">
        <ele>124.6</ele>
      </trkpt>
      <trkpt lat="40.67147" lon="0.51976">
        <ele>126.3</ele>
      </trkpt>
      <trkpt lat="40.67161" lon="0.51987">
        <ele>126.4</ele>
      </trkpt>
      <trkpt lat="40.67173" lon="0.51998">
        <ele>126.3</ele>
      </trkpt>
      <trkpt lat="40.67185" lon="0.52011">
        <ele>126</ele>
      </trkpt>
      <trkpt lat="40.67216" lon="0.52039">
        <ele>125.4</ele>
      </trkpt>
      <trkpt lat="40.67234" lon="0.52041">
        <ele>125.5</ele>
      </trkpt>
      <trkpt lat="40.67239" lon="0.52046">
        <ele>125.3</ele>
      </trkpt>
      <trkpt lat="40.67265" lon="0.521">
        <ele>124.9</ele>
      </trkpt>
      <trkpt lat="40.67282" lon="0.52135">
        <ele>127.6</ele>
      </trkpt>
      <trkpt lat="40.67315" lon="0.52137">
        <ele>126.2</ele>
      </trkpt>
      <trkpt lat="40.67334" lon="0.52148">
        <ele>126.2</ele>
      </trkpt>
      <trkpt lat="40.6737" lon="0.52184">
        <ele>125.4</ele>
      </trkpt>
      <trkpt lat="40.67399" lon="0.52195">
        <ele>124.7</ele>
      </trkpt>
      <trkpt lat="40.6744" lon="0.52203">
        <ele>125.3</ele>
      </trkpt>
      <trkpt lat="40.67546" lon="0.52297">
        <ele>127.1</ele>
      </trkpt>
      <trkpt lat="40.67559" lon="0.52321">
        <ele>127.3</ele>
      </trkpt>
      <trkpt lat="40.67595" lon="0.52449">
        <ele>129.3</ele>
      </trkpt>
      <trkpt lat="40.6762" lon="0.52526">
        <ele>127.4</ele>
      </trkpt>
      <trkpt lat="40.67631" lon="0.52555">
        <ele>126.6</ele>
      </trkpt>
      <trkpt lat="40.67649" lon="0.52581">
        <ele>127.4</ele>
      </trkpt>
      <trkpt lat="40.67668" lon="0.526">
        <ele>127.6</ele>
      </trkpt>
      <trkpt lat="40.67674" lon="0.5261">
        <ele>127.9</ele>
      </trkpt>
      <trkpt lat="40.67696" lon="0.52622">
        <ele>128.8</ele>
      </trkpt>
      <trkpt lat="40.67709" lon="0.52624">
        <ele>129.2</ele>
      </trkpt>
      <trkpt lat="40.6772" lon="0.52623">
        <ele>129.4</ele>
      </trkpt>
      <trkpt lat="40.67735" lon="0.5262">
        <ele>129.8</ele>
      </trkpt>
      <trkpt lat="40.67753" lon="0.52611">
        <ele>130.2</ele>
      </trkpt>
      <trkpt lat="40.67772" lon="0.52598">
        <ele>130.3</ele>
      </trkpt>
      <trkpt lat="40.67791" lon="0.52597">
        <ele>130.7</ele>
      </trkpt>
      <trkpt lat="40.679" lon="0.52563">
        <ele>129.4</ele>
      </trkpt>
      <trkpt lat="40.68001" lon="0.5254">
        <ele>128.8</ele>
      </trkpt>
      <trkpt lat="40.68057" lon="0.52538">
        <ele>129.9</ele>
      </trkpt>
      <trkpt lat="40.68095" lon="0.52542">
        <ele>131.2</ele>
      </trkpt>
      <trkpt lat="40.68115" lon="0.52544">
        <ele>131.1</ele>
      </trkpt>
      <trkpt lat="40.68151" lon="0.52555">
        <ele>134</ele>
      </trkpt>
      <trkpt lat="40.68217" lon="0.52588">
        <ele>138.1</ele>
      </trkpt>
      <trkpt lat="40.68259" lon="0.52619">
        <ele>141.4</ele>
      </trkpt>
      <trkpt lat="40.68273" lon="0.52625">
        <ele>139.9</ele>
      </trkpt>
      <trkpt lat="40.68283" lon="0.52637">
        <ele>138.3</ele>
      </trkpt>
      <trkpt lat="40.68305" lon="0.52675">
        <ele>135.5</ele>
      </trkpt>
      <trkpt lat="40.68328" lon="0.52711">
        <ele>130</ele>
      </trkpt>
      <trkpt lat="40.68337" lon="0.52728">
        <ele>127.7</ele>
      </trkpt>
      <trkpt lat="40.68348" lon="0.52763">
        <ele>123.8</ele>
      </trkpt>
      <trkpt lat="40.68358" lon="0.52825">
        <ele>122.1</ele>
      </trkpt>
      <trkpt lat="40.6836" lon="0.52836">
        <ele>122.1</ele>
      </trkpt>
      <trkpt lat="40.6836" lon="0.52863">
        <ele>122</ele>
      </trkpt>
      <trkpt lat="40.68354" lon="0.52892">
        <ele>120.6</ele>
      </trkpt>
      <trkpt lat="40.68335" lon="0.52924">
        <ele>118.6</ele>
      </trkpt>
      <trkpt lat="40.68305" lon="0.52958">
        <ele>117.6</ele>
      </trkpt>
      <trkpt lat="40.68285" lon="0.52977">
        <ele>117</ele>
      </trkpt>
      <trkpt lat="40.6828" lon="0.52995">
        <ele>116.9</ele>
      </trkpt>
      <trkpt lat="40.68279" lon="0.53006">
        <ele>116.7</ele>
      </trkpt>
      <trkpt lat="40.68282" lon="0.53023">
        <ele>116.3</ele>
      </trkpt>
      <trkpt lat="40.68287" lon="0.53027">
        <ele>116.6</ele>
      </trkpt>
      <trkpt lat="40.68292" lon="0.53028">
        <ele>117.1</ele>
      </trkpt>
      <trkpt lat="40.68312" lon="0.53016">
        <ele>116.8</ele>
      </trkpt>
      <trkpt lat="40.68397" lon="0.53004">
        <ele>120.2</ele>
      </trkpt>
      <trkpt lat="40.68411" lon="0.53003">
        <ele>120.9</ele>
      </trkpt>
      <trkpt lat="40.68424" lon="0.53012">
        <ele>122.5</ele>
      </trkpt>
      <trkpt lat="40.68429" lon="0.53024">
        <ele>123</ele>
      </trkpt>
      <trkpt lat="40.68432" lon="0.53035">
        <ele>123.3</ele>
      </trkpt>
      <trkpt lat="40.68432" lon="0.53076">
        <ele>125</ele>
      </trkpt>
      <trkpt lat="40.68434" lon="0.53105">
        <ele>125.7</ele>
      </trkpt>
      <trkpt lat="40.68438" lon="0.5312">
        <ele>125.6</ele>
      </trkpt>
      <trkpt lat="40.68453" lon="0.53143">
        <ele>124.7</ele>
      </trkpt>
      <trkpt lat="40.68491" lon="0.53172">
        <ele>123.2</ele>
      </trkpt>
      <trkpt lat="40.6853" lon="0.53213">
        <ele>119.7</ele>
      </trkpt>
      <trkpt lat="40.68545" lon="0.53232">
        <ele>117.7</ele>
      </trkpt>
      <trkpt lat="40.68554" lon="0.53254">
        <ele>116.1</ele>
      </trkpt>
      <trkpt lat="40.68565" lon="0.53304">
        <ele>113.7</ele>
      </trkpt>
      <trkpt lat="40.68583" lon="0.53368">
        <ele>109</ele>
      </trkpt>
      <trkpt lat="40.68604" lon="0.53419">
        <ele>107.7</ele>
      </trkpt>
      <trkpt lat="40.68636" lon="0.53473">
        <ele>103.2</ele>
      </trkpt>
      <trkpt lat="40.68653" lon="0.53498">
        <ele>101.1</ele>
      </trkpt>
      <trkpt lat="40.68705" lon="0.53527">
        <ele>97.2</ele>
      </trkpt>
      <trkpt lat="40.68717" lon="0.53543">
        <ele>95.7</ele>
      </trkpt>
      <trkpt lat="40.68766" lon="0.53648">
        <ele>92.7</ele>
      </trkpt>
      <trkpt lat="40.68772" lon="0.53667">
        <ele>92.6</ele>
      </trkpt>
      <trkpt lat="40.68786" lon="0.53765">
        <ele>85.1</ele>
      </trkpt>
      <trkpt lat="40.6882" lon="0.53879">
        <ele>78.4</ele>
      </trkpt>
      <trkpt lat="40.68823" lon="0.53909">
        <ele>76.6</ele>
      </trkpt>
      <trkpt lat="40.68828" lon="0.54011">
        <ele>73.2</ele>
      </trkpt>
      <trkpt lat="40.68849" lon="0.54149">
        <ele>71.4</ele>
      </trkpt>
      <trkpt lat="40.68852" lon="0.54161">
        <ele>71.3</ele>
      </trkpt>
      <trkpt lat="40.6886" lon="0.54174">
        <ele>71</ele>
      </trkpt>
      <trkpt lat="40.68869" lon="0.54184">
        <ele>70.9</ele>
      </trkpt>
      <trkpt lat="40.6888" lon="0.5419">
        <ele>70.9</ele>
      </trkpt>
      <trkpt lat="40.68889" lon="0.54193">
        <ele>70.9</ele>
      </trkpt>
      <trkpt lat="40.68945" lon="0.54181">
        <ele>69.5</ele>
      </trkpt>
      <trkpt lat="40.69001" lon="0.54163">
        <ele>68</ele>
      </trkpt>
      <trkpt lat="40.69018" lon="0.5416">
        <ele>67.4</ele>
      </trkpt>
      <trkpt lat="40.69033" lon="0.54161">
        <ele>67</ele>
      </trkpt>
      <trkpt lat="40.69117" lon="0.54176">
        <ele>65.7</ele>
      </trkpt>
      <trkpt lat="40.69139" lon="0.54179">
        <ele>64.6</ele>
      </trkpt>
      <trkpt lat="40.69175" lon="0.54176">
        <ele>64.6</ele>
      </trkpt>
      <trkpt lat="40.69224" lon="0.54161">
        <ele>63.1</ele>
      </trkpt>
      <trkpt lat="40.69251" lon="0.54151">
        <ele>62.6</ele>
      </trkpt>
      <trkpt lat="40.69271" lon="0.54145">
        <ele>62.8</ele>
      </trkpt>
      <trkpt lat="40.69293" lon="0.54143">
        <ele>62.9</ele>
      </trkpt>
      <trkpt lat="40.69317" lon="0.54148">
        <ele>63.1</ele>
      </trkpt>
      <trkpt lat="40.69333" lon="0.54148">
        <ele>63.7</ele>
      </trkpt>
      <trkpt lat="40.69376" lon="0.54133">
        <ele>64.4</ele>
      </trkpt>
      <trkpt lat="40.69425" lon="0.5412">
        <ele>66</ele>
      </trkpt>
      <trkpt lat="40.69435" lon="0.5412">
        <ele>66.3</ele>
      </trkpt>
      <trkpt lat="40.69442" lon="0.54123">
        <ele>66.5</ele>
      </trkpt>
      <trkpt lat="40.6945" lon="0.5413">
        <ele>66.7</ele>
      </trkpt>
      <trkpt lat="40.69457" lon="0.54139">
        <ele>66.9</ele>
      </trkpt>
      <trkpt lat="40.69465" lon="0.54164">
        <ele>66.6</ele>
      </trkpt>
      <trkpt lat="40.69473" lon="0.54213">
        <ele>67.1</ele>
      </trkpt>
      <trkpt lat="40.69485" lon="0.54263">
        <ele>66.9</ele>
      </trkpt>
      <trkpt lat="40.6949" lon="0.54289">
        <ele>67</ele>
      </trkpt>
      <trkpt lat="40.69524" lon="0.54411">
        <ele>63.4</ele>
      </trkpt>
      <trkpt lat="40.69533" lon="0.54459">
        <ele>61.5</ele>
      </trkpt>
      <trkpt lat="40.69539" lon="0.54562">
        <ele>58.3</ele>
      </trkpt>
      <trkpt lat="40.69543" lon="0.54606">
        <ele>57.6</ele>
      </trkpt>
      <trkpt lat="40.69544" lon="0.54637">
        <ele>57</ele>
      </trkpt>
      <trkpt lat="40.69546" lon="0.54656">
        <ele>56.6</ele>
      </trkpt>
      <trkpt lat="40.6955" lon="0.54669">
        <ele>56.2</ele>
      </trkpt>
      <trkpt lat="40.69571" lon="0.54728">
        <ele>55.3</ele>
      </trkpt>
      <trkpt lat="40.69595" lon="0.54796">
        <ele>53.6</ele>
      </trkpt>
      <trkpt lat="40.69605" lon="0.54831">
        <ele>53.1</ele>
      </trkpt>
      <trkpt lat="40.69607" lon="0.54844">
        <ele>53</ele>
      </trkpt>
      <trkpt lat="40.6961" lon="0.54874">
        <ele>53</ele>
      </trkpt>
      <trkpt lat="40.6961" lon="0.54934">
        <ele>53</ele>
      </trkpt>
      <trkpt lat="40.69614" lon="0.54956">
        <ele>52.9</ele>
      </trkpt>
      <trkpt lat="40.69621" lon="0.54977">
        <ele>52.6</ele>
      </trkpt>
      <trkpt lat="40.6964" lon="0.55048">
        <ele>52</ele>
      </trkpt>
      <trkpt lat="40.6965" lon="0.55084">
        <ele>51</ele>
      </trkpt>
      <trkpt lat="40.69679" lon="0.55197">
        <ele>49</ele>
      </trkpt>
      <trkpt lat="40.69686" lon="0.55242">
        <ele>49</ele>
      </trkpt>
      <trkpt lat="40.69711" lon="0.55353">
        <ele>47.3</ele>
      </trkpt>
      <trkpt lat="40.69731" lon="0.55419">
        <ele>46.6</ele>
      </trkpt>
      <trkpt lat="40.69745" lon="0.55453">
        <ele>45.7</ele>
      </trkpt>
      <trkpt lat="40.6976" lon="0.55485">
        <ele>44.5</ele>
      </trkpt>
      <trkpt lat="40.69776" lon="0.55529">
        <ele>42.1</ele>
      </trkpt>
      <trkpt lat="40.69794" lon="0.5558">
        <ele>40.2</ele>
      </trkpt>
      <trkpt lat="40.69804" lon="0.55622">
        <ele>40</ele>
      </trkpt>
      <trkpt lat="40.69812" lon="0.55665">
        <ele>40.7</ele>
      </trkpt>
      <trkpt lat="40.69816" lon="0.55714">
        <ele>40.7</ele>
      </trkpt>
      <trkpt lat="40.69815" lon="0.55758">
        <ele>41</ele>
      </trkpt>
      <trkpt lat="40.6982" lon="0.55825">
        <ele>41.9</ele>
      </trkpt>
      <trkpt lat="40.69825" lon="0.55846">
        <ele>42.4</ele>
      </trkpt>
      <trkpt lat="40.69867" lon="0.55948">
        <ele>46.3</ele>
      </trkpt>
      <trkpt lat="40.69875" lon="0.55979">
        <ele>45.9</ele>
      </trkpt>
      <trkpt lat="40.69881" lon="0.56011">
        <ele>45.3</ele>
      </trkpt>
      <trkpt lat="40.69885" lon="0.56044">
        <ele>44.9</ele>
      </trkpt>
      <trkpt lat="40.69886" lon="0.5607">
        <ele>44.9</ele>
      </trkpt>
      <trkpt lat="40.69887" lon="0.56087">
        <ele>44.8</ele>
      </trkpt>
      <trkpt lat="40.6989" lon="0.56112">
        <ele>44</ele>
      </trkpt>
      <trkpt lat="40.69893" lon="0.56125">
        <ele>43.8</ele>
      </trkpt>
      <trkpt lat="40.69921" lon="0.56181">
        <ele>43.6</ele>
      </trkpt>
      <trkpt lat="40.69942" lon="0.5622">
        <ele>43</ele>
      </trkpt>
      <trkpt lat="40.69996" lon="0.56322">
        <ele>40.4</ele>
      </trkpt>
      <trkpt lat="40.70035" lon="0.56408">
        <ele>38</ele>
      </trkpt>
      <trkpt lat="40.70047" lon="0.56447">
        <ele>37.6</ele>
      </trkpt>
      <trkpt lat="40.7006" lon="0.56517">
        <ele>35.5</ele>
      </trkpt>
      <trkpt lat="40.70065" lon="0.56558">
        <ele>34.3</ele>
      </trkpt>
      <trkpt lat="40.70061" lon="0.56575">
        <ele>34.1</ele>
      </trkpt>
      <trkpt lat="40.70061" lon="0.56589">
        <ele>33.8</ele>
      </trkpt>
      <trkpt lat="40.70065" lon="0.56603">
        <ele>33.5</ele>
      </trkpt>
      <trkpt lat="40.70071" lon="0.56615">
        <ele>33.3</ele>
      </trkpt>
      <trkpt lat="40.70081" lon="0.56623">
        <ele>33.1</ele>
      </trkpt>
      <trkpt lat="40.70091" lon="0.56627">
        <ele>32.9</ele>
      </trkpt>
      <trkpt lat="40.70103" lon="0.56626">
        <ele>32.9</ele>
      </trkpt>
      <trkpt lat="40.70113" lon="0.56621">
        <ele>33.3</ele>
      </trkpt>
      <trkpt lat="40.7013" lon="0.5662">
        <ele>33.1</ele>
      </trkpt>
      <trkpt lat="40.70146" lon="0.56627">
        <ele>32.9</ele>
      </trkpt>
      <trkpt lat="40.70151" lon="0.56632">
        <ele>32.7</ele>
      </trkpt>
      <trkpt lat="40.7017" lon="0.56649">
        <ele>31.7</ele>
      </trkpt>
      <trkpt lat="40.70191" lon="0.56665">
        <ele>31.1</ele>
      </trkpt>
      <trkpt lat="40.70281" lon="0.5674">
        <ele>30.4</ele>
      </trkpt>
      <trkpt lat="40.70331" lon="0.5678">
        <ele>29</ele>
      </trkpt>
      <trkpt lat="40.70417" lon="0.5685">
        <ele>27.8</ele>
      </trkpt>
      <trkpt lat="40.70424" lon="0.56858">
        <ele>27.2</ele>
      </trkpt>
      <trkpt lat="40.70512" lon="0.56966">
        <ele>25.1</ele>
      </trkpt>
      <trkpt lat="40.70528" lon="0.56987">
        <ele>24.5</ele>
      </trkpt>
      <trkpt lat="40.70571" lon="0.57043">
        <ele>24</ele>
      </trkpt>
      <trkpt lat="40.7058" lon="0.57054">
        <ele>24</ele>
      </trkpt>
      <trkpt lat="40.70592" lon="0.5707">
        <ele>23.8</ele>
      </trkpt>
      <trkpt lat="40.70603" lon="0.57083">
        <ele>23.3</ele>
      </trkpt>
      <trkpt lat="40.70616" lon="0.57098">
        <ele>23.1</ele>
      </trkpt>
      <trkpt lat="40.7062" lon="0.57108">
        <ele>23.3</ele>
      </trkpt>
      <trkpt lat="40.70621" lon="0.57116">
        <ele>23.3</ele>
      </trkpt>
      <trkpt lat="40.70619" lon="0.57122">
        <ele>23.2</ele>
      </trkpt>
      <trkpt lat="40.70619" lon="0.57136">
        <ele>23</ele>
      </trkpt>
      <trkpt lat="40.70621" lon="0.57145">
        <ele>22.9</ele>
      </trkpt>
      <trkpt lat="40.70625" lon="0.57154">
        <ele>22.7</ele>
      </trkpt>
      <trkpt lat="40.70635" lon="0.57163">
        <ele>22.9</ele>
      </trkpt>
      <trkpt lat="40.70646" lon="0.57165">
        <ele>23</ele>
      </trkpt>
      <trkpt lat="40.70652" lon="0.57164">
        <ele>23</ele>
      </trkpt>
      <trkpt lat="40.70661" lon="0.57159">
        <ele>23</ele>
      </trkpt>
      <trkpt lat="40.70672" lon="0.57163">
        <ele>23</ele>
      </trkpt>
      <trkpt lat="40.70679" lon="0.57169">
        <ele>23</ele>
      </trkpt>
      <trkpt lat="40.70741" lon="0.57241">
        <ele>21.8</ele>
      </trkpt>
      <trkpt lat="40.70745" lon="0.57247">
        <ele>21.8</ele>
      </trkpt>
      <trkpt lat="40.7075" lon="0.57252">
        <ele>22</ele>
      </trkpt>
      <trkpt lat="40.70789" lon="0.57296">
        <ele>22.1</ele>
      </trkpt>
      <trkpt lat="40.7079" lon="0.57313">
        <ele>22.1</ele>
      </trkpt>
      <trkpt lat="40.7085" lon="0.5738">
        <ele>22.8</ele>
      </trkpt>
      <trkpt lat="40.70891" lon="0.57426">
        <ele>21.4</ele>
      </trkpt>
      <trkpt lat="40.70896" lon="0.57432">
        <ele>21.6</ele>
      </trkpt>
      <trkpt lat="40.709" lon="0.57437">
        <ele>21.5</ele>
      </trkpt>
      <trkpt lat="40.70941" lon="0.57486">
        <ele>19.6</ele>
      </trkpt>
      <trkpt lat="40.70937" lon="0.57551">
        <ele>16.3</ele>
      </trkpt>
      <trkpt lat="40.70935" lon="0.57598">
        <ele>14.8</ele>
      </trkpt>
      <trkpt lat="40.70933" lon="0.57641">
        <ele>12.9</ele>
      </trkpt>
      <trkpt lat="40.70963" lon="0.57644">
        <ele>12.8</ele>
      </trkpt>
      <trkpt lat="40.70997" lon="0.57646">
        <ele>12.7</ele>
      </trkpt>
      <trkpt lat="40.71056" lon="0.57651">
        <ele>13</ele>
      </trkpt>
      <trkpt lat="40.71062" lon="0.57634">
        <ele>13.2</ele>
      </trkpt>
      <trkpt lat="40.71095" lon="0.57684">
        <ele>12.4</ele>
      </trkpt>
      <trkpt lat="40.71113" lon="0.57712">
        <ele>12</ele>
      </trkpt>
      <trkpt lat="40.71122" lon="0.57721">
        <ele>12</ele>
      </trkpt>
      <trkpt lat="40.7113" lon="0.5772">
        <ele>12</ele>
      </trkpt>
      <trkpt lat="40.71138" lon="0.57711">
        <ele>12</ele>
      </trkpt>
      <trkpt lat="40.71195" lon="0.5777">
        <ele>11.3</ele>
      </trkpt>
      <trkpt lat="40.71229" lon="0.57805">
        <ele>11</ele>
      </trkpt>
      <trkpt lat="40.71263" lon="0.5784">
        <ele>11</ele>
      </trkpt>
      <trkpt lat="40.7133" lon="0.57908">
        <ele>11</ele>
      </trkpt>
      <trkpt lat="40.71327" lon="0.57913">
        <ele>11</ele>
      </trkpt>
      <trkpt lat="40.71325" lon="0.57917">
        <ele>11</ele>
      </trkpt>
      <trkpt lat="40.71323" lon="0.57918">
        <ele>11</ele>
      </trkpt>
      <trkpt lat="40.713" lon="0.5794">
        <ele>10.1</ele>
      </trkpt>
      <trkpt lat="40.7128" lon="0.57955">
        <ele>10</ele>
      </trkpt>
      <trkpt lat="40.71328" lon="0.58008">
        <ele>9.9</ele>
      </trkpt>
      <trkpt lat="40.71393" lon="0.58074">
        <ele>11</ele>
      </trkpt>
      <trkpt lat="40.71397" lon="0.58077">
        <ele>10.9</ele>
      </trkpt>
      <trkpt lat="40.71436" lon="0.58117">
        <ele>5.5</ele>
      </trkpt>
      <trkpt lat="40.71539" lon="0.58222">
        <ele>6.2</ele>
      </trkpt>
      <trkpt lat="40.71563" lon="0.58248">
        <ele>8.6</ele>
        <extensions>
          <visugpx:TrkExtension xmlns:visugpx="https://www.visugpx.com/editgpx/">
            <visugpx:node>34</visugpx:node>
            </visugpx:TrkExtension>
        </extensions>
      </trkpt>
      <trkpt lat="40.71436" lon="0.58115">
        <ele>5.7</ele>
      </trkpt>
      <trkpt lat="40.7133" lon="0.58007">
        <ele>10</ele>
      </trkpt>
      <trkpt lat="40.71315" lon="0.58027">
        <ele>9.4</ele>
      </trkpt>
      <trkpt lat="40.71298" lon="0.58059">
        <ele>8.6</ele>
      </trkpt>
      <trkpt lat="40.71313" lon="0.58073">
        <ele>8.6</ele>
      </trkpt>
      <trkpt lat="40.71327" lon="0.5809">
        <ele>8.6</ele>
      </trkpt>
      <trkpt lat="40.71342" lon="0.58116">
        <ele>8.3</ele>
      </trkpt>
      <trkpt lat="40.71352" lon="0.58146">
        <ele>7.7</ele>
      </trkpt>
      <trkpt lat="40.71354" lon="0.58167">
        <ele>7</ele>
      </trkpt>
      <trkpt lat="40.71353" lon="0.58198">
        <ele>5.9</ele>
      </trkpt>
      <trkpt lat="40.71346" lon="0.58219">
        <ele>5.1</ele>
      </trkpt>
      <trkpt lat="40.71298" lon="0.58309">
        <ele>5</ele>
      </trkpt>
      <trkpt lat="40.71292" lon="0.58309">
        <ele>5</ele>
      </trkpt>
      <trkpt lat="40.71287" lon="0.58311">
        <ele>5</ele>
      </trkpt>
      <trkpt lat="40.71283" lon="0.58315">
        <ele>5</ele>
      </trkpt>
      <trkpt lat="40.71281" lon="0.58311">
        <ele>5</ele>
      </trkpt>
      <trkpt lat="40.71272" lon="0.58308">
        <ele>5</ele>
      </trkpt>
      <trkpt lat="40.71261" lon="0.58311">
        <ele>5</ele>
      </trkpt>
      <trkpt lat="40.71252" lon="0.58317">
        <ele>5</ele>
      </trkpt>
      <trkpt lat="40.71248" lon="0.58327">
        <ele>5.1</ele>
      </trkpt>
      <trkpt lat="40.71249" lon="0.58345">
        <ele>5</ele>
      </trkpt>
      <trkpt lat="40.71252" lon="0.58357">
        <ele>5</ele>
      </trkpt>
      <trkpt lat="40.7125" lon="0.58387">
        <ele>5</ele>
      </trkpt>
      <trkpt lat="40.7122" lon="0.58423">
        <ele>5</ele>
      </trkpt>
      <trkpt lat="40.71152" lon="0.58498">
        <ele>5</ele>
      </trkpt>
      <trkpt lat="40.7111" lon="0.58548">
        <ele>5</ele>
      </trkpt>
      <trkpt lat="40.71075" lon="0.58585">
        <ele>5</ele>
      </trkpt>
      <trkpt lat="40.71061" lon="0.58596">
        <ele>5</ele>
      </trkpt>
      <trkpt lat="40.71032" lon="0.58623">
        <ele>5</ele>
      </trkpt>
      <trkpt lat="40.70969" lon="0.58697">
        <ele>5</ele>
      </trkpt>
      <trkpt lat="40.70948" lon="0.58724">
        <ele>5</ele>
      </trkpt>
      <trkpt lat="40.70929" lon="0.58752">
        <ele>5</ele>
      </trkpt>
      <trkpt lat="40.70867" lon="0.58855">
        <ele>4.8</ele>
      </trkpt>
      <trkpt lat="40.70828" lon="0.58915">
        <ele>5.8</ele>
      </trkpt>
      <trkpt lat="40.70811" lon="0.58944">
        <ele>6</ele>
      </trkpt>
      <trkpt lat="40.70795" lon="0.58976">
        <ele>5.6</ele>
      </trkpt>
      <trkpt lat="40.70768" lon="0.59044">
        <ele>5</ele>
      </trkpt>
      <trkpt lat="40.70738" lon="0.59143">
        <ele>4</ele>
      </trkpt>
      <trkpt lat="40.70719" lon="0.59199">
        <ele>5</ele>
      </trkpt>
      <trkpt lat="40.70667" lon="0.59316">
        <ele>4.6</ele>
      </trkpt>
      <trkpt lat="40.70653" lon="0.59353">
        <ele>4.5</ele>
      </trkpt>
      <trkpt lat="40.70642" lon="0.59391">
        <ele>4.9</ele>
      </trkpt>
      <trkpt lat="40.70633" lon="0.59383">
        <ele>4.8</ele>
      </trkpt>
      <trkpt lat="40.70597" lon="0.59506">
        <ele>4.1</ele>
      </trkpt>
      <trkpt lat="40.70505" lon="0.59843">
        <ele>4</ele>
      </trkpt>
      <trkpt lat="40.70486" lon="0.59931">
        <ele>4</ele>
      </trkpt>
      <trkpt lat="40.70458" lon="0.60206">
        <ele>4</ele>
      </trkpt>
      <trkpt lat="40.70429" lon="0.60461">
        <ele>4.2</ele>
      </trkpt>
      <trkpt lat="40.70399" lon="0.60446">
        <ele>4</ele>
        <extensions>
          <visugpx:TrkExtension xmlns:visugpx="https://www.visugpx.com/editgpx/">
            <visugpx:node>35</visugpx:node>
            </visugpx:TrkExtension>
        </extensions>
      </trkpt>
      <trkpt lat="40.70429" lon="0.60461">
        <ele>4.2</ele>
      </trkpt>
      <trkpt lat="40.70402" lon="0.60711">
        <ele>4</ele>
      </trkpt>
      <trkpt lat="40.70394" lon="0.6076">
        <ele>4.8</ele>
      </trkpt>
      <trkpt lat="40.70393" lon="0.60779">
        <ele>4.9</ele>
      </trkpt>
      <trkpt lat="40.70394" lon="0.60791">
        <ele>4.8</ele>
      </trkpt>
      <trkpt lat="40.70381" lon="0.60829">
        <ele>4.1</ele>
      </trkpt>
      <trkpt lat="40.70344" lon="0.60974">
        <ele>4</ele>
      </trkpt>
      <trkpt lat="40.7038" lon="0.60984">
        <ele>4.7</ele>
      </trkpt>
      <trkpt lat="40.70363" lon="0.61139">
        <ele>4</ele>
      </trkpt>
      <trkpt lat="40.70361" lon="0.61174">
        <ele>4</ele>
      </trkpt>
      <trkpt lat="40.7035" lon="0.61698">
        <ele>4</ele>
      </trkpt>
      <trkpt lat="40.7035" lon="0.61721">
        <ele>4</ele>
      </trkpt>
      <trkpt lat="40.70353" lon="0.61748">
        <ele>4</ele>
      </trkpt>
      <trkpt lat="40.70358" lon="0.61771">
        <ele>4</ele>
      </trkpt>
      <trkpt lat="40.7042" lon="0.61938">
        <ele>4</ele>
      </trkpt>
      <trkpt lat="40.70515" lon="0.6221">
        <ele>4</ele>
      </trkpt>
      <trkpt lat="40.70589" lon="0.62415">
        <ele>3.8</ele>
      </trkpt>
      <trkpt lat="40.70588" lon="0.62422">
        <ele>3.7</ele>
      </trkpt>
      <trkpt lat="40.70583" lon="0.62429">
        <ele>3.6</ele>
      </trkpt>
      <trkpt lat="40.71096" lon="0.63869">
        <ele>3</ele>
      </trkpt>
      <trkpt lat="40.71117" lon="0.63941">
        <ele>3.1</ele>
      </trkpt>
      <trkpt lat="40.71188" lon="0.64505">
        <ele>3.8</ele>
      </trkpt>
      <trkpt lat="40.7119" lon="0.64529">
        <ele>3.8</ele>
      </trkpt>
      <trkpt lat="40.71191" lon="0.64612">
        <ele>3</ele>
      </trkpt>
      <trkpt lat="40.71227" lon="0.65072">
        <ele>3</ele>
      </trkpt>
      <trkpt lat="40.71236" lon="0.65218">
        <ele>3</ele>
      </trkpt>
      <trkpt lat="40.71261" lon="0.65386">
        <ele>3</ele>
      </trkpt>
      <trkpt lat="40.71295" lon="0.65721">
        <ele>3</ele>
      </trkpt>
      <trkpt lat="40.71296" lon="0.65749">
        <ele>3</ele>
      </trkpt>
      <trkpt lat="40.71285" lon="0.65908">
        <ele>3</ele>
      </trkpt>
      <trkpt lat="40.71281" lon="0.66123">
        <ele>3</ele>
      </trkpt>
      <trkpt lat="40.71281" lon="0.66155">
        <ele>3</ele>
      </trkpt>
      <trkpt lat="40.71287" lon="0.663">
        <ele>3</ele>
      </trkpt>
      <trkpt lat="40.71291" lon="0.66324">
        <ele>3</ele>
      </trkpt>
      <trkpt lat="40.71301" lon="0.66347">
        <ele>3</ele>
      </trkpt>
      <trkpt lat="40.714" lon="0.66517">
        <ele>3</ele>
      </trkpt>
      <trkpt lat="40.71412" lon="0.66554">
        <ele>3</ele>
      </trkpt>
      <trkpt lat="40.71465" lon="0.66771">
        <ele>3.6</ele>
      </trkpt>
      <trkpt lat="40.71473" lon="0.66819">
        <ele>3</ele>
      </trkpt>
      <trkpt lat="40.71487" lon="0.66929">
        <ele>3</ele>
      </trkpt>
      <trkpt lat="40.71488" lon="0.66975">
        <ele>3</ele>
      </trkpt>
      <trkpt lat="40.71486" lon="0.67038">
        <ele>3</ele>
      </trkpt>
      <trkpt lat="40.71481" lon="0.6708">
        <ele>3</ele>
      </trkpt>
      <trkpt lat="40.7146" lon="0.67197">
        <ele>3</ele>
      </trkpt>
      <trkpt lat="40.71431" lon="0.67301">
        <ele>3</ele>
      </trkpt>
      <trkpt lat="40.71386" lon="0.67483">
        <ele>3</ele>
      </trkpt>
      <trkpt lat="40.71375" lon="0.67521">
        <ele>3</ele>
      </trkpt>
      <trkpt lat="40.71316" lon="0.67682">
        <ele>3</ele>
      </trkpt>
      <trkpt lat="40.71258" lon="0.67834">
        <ele>3</ele>
      </trkpt>
      <trkpt lat="40.71249" lon="0.67863">
        <ele>3</ele>
      </trkpt>
      <trkpt lat="40.71236" lon="0.67945">
        <ele>3</ele>
      </trkpt>
      <trkpt lat="40.71215" lon="0.68097">
        <ele>3</ele>
      </trkpt>
      <trkpt lat="40.71221" lon="0.68169">
        <ele>3</ele>
      </trkpt>
      <trkpt lat="40.71234" lon="0.68278">
        <ele>2.4</ele>
      </trkpt>
      <trkpt lat="40.71233" lon="0.68298">
        <ele>2.8</ele>
      </trkpt>
      <trkpt lat="40.7123" lon="0.68311">
        <ele>3.1</ele>
      </trkpt>
      <trkpt lat="40.71219" lon="0.68331">
        <ele>3.8</ele>
      </trkpt>
      <trkpt lat="40.71237" lon="0.68359">
        <ele>3.5</ele>
      </trkpt>
      <trkpt lat="40.71219" lon="0.68477">
        <ele>3</ele>
        <extensions>
          <visugpx:TrkExtension xmlns:visugpx="https://www.visugpx.com/editgpx/">
            <visugpx:node>36</visugpx:node>
            </visugpx:TrkExtension>
        </extensions>
      </trkpt>
      <trkpt lat="40.71153" lon="0.68877">
        <ele>3</ele>
      </trkpt>
      <trkpt lat="40.71149" lon="0.68923">
        <ele>3</ele>
      </trkpt>
      <trkpt lat="40.71145" lon="0.69047">
        <ele>3</ele>
      </trkpt>
      <trkpt lat="40.71143" lon="0.69234">
        <ele>3</ele>
      </trkpt>
      <trkpt lat="40.71138" lon="0.69271">
        <ele>3</ele>
      </trkpt>
      <trkpt lat="40.70974" lon="0.70115">
        <ele>2.9</ele>
      </trkpt>
      <trkpt lat="40.70944" lon="0.70281">
        <ele>2.1</ele>
      </trkpt>
      <trkpt lat="40.70928" lon="0.70418">
        <ele>2</ele>
      </trkpt>
      <trkpt lat="40.70926" lon="0.70527">
        <ele>2</ele>
      </trkpt>
      <trkpt lat="40.70913" lon="0.70733">
        <ele>2</ele>
      </trkpt>
      <trkpt lat="40.709" lon="0.71017">
        <ele>2</ele>
      </trkpt>
      <trkpt lat="40.70891" lon="0.71119">
        <ele>2.7</ele>
      </trkpt>
      <trkpt lat="40.70864" lon="0.71351">
        <ele>3</ele>
      </trkpt>
      <trkpt lat="40.71016" lon="0.71458">
        <ele>2.5</ele>
      </trkpt>
      <trkpt lat="40.71042" lon="0.71479">
        <ele>2.5</ele>
      </trkpt>
      <trkpt lat="40.71067" lon="0.71506">
        <ele>2.5</ele>
      </trkpt>
      <trkpt lat="40.71084" lon="0.71534">
        <ele>2.8</ele>
      </trkpt>
      <trkpt lat="40.71095" lon="0.71561">
        <ele>2.1</ele>
      </trkpt>
      <trkpt lat="40.71108" lon="0.71597">
        <ele>2.9</ele>
      </trkpt>
      <trkpt lat="40.71124" lon="0.71649">
        <ele>3.7</ele>
      </trkpt>
      <trkpt lat="40.7112" lon="0.7165">
        <ele>3.6</ele>
      </trkpt>
      <trkpt lat="40.71114" lon="0.71655">
        <ele>3.6</ele>
      </trkpt>
      <trkpt lat="40.71111" lon="0.71664">
        <ele>3.9</ele>
      </trkpt>
      <trkpt lat="40.71112" lon="0.71676">
        <ele>4</ele>
      </trkpt>
      <trkpt lat="40.71119" lon="0.71687">
        <ele>4</ele>
      </trkpt>
      <trkpt lat="40.71126" lon="0.71688">
        <ele>4</ele>
      </trkpt>
      <trkpt lat="40.71132" lon="0.71685">
        <ele>4</ele>
      </trkpt>
      <trkpt lat="40.71136" lon="0.7168">
        <ele>4</ele>
      </trkpt>
      <trkpt lat="40.71139" lon="0.71672">
        <ele>4</ele>
      </trkpt>
      <trkpt lat="40.71159" lon="0.71682">
        <ele>4.5</ele>
      </trkpt>
      <trkpt lat="40.71446" lon="0.71802">
        <ele>4.5</ele>
      </trkpt>
      <trkpt lat="40.71486" lon="0.71822">
        <ele>2.8</ele>
      </trkpt>
      <trkpt lat="40.7151" lon="0.7184">
        <ele>3</ele>
      </trkpt>
      <trkpt lat="40.7155" lon="0.71875">
        <ele>3.4</ele>
      </trkpt>
      <trkpt lat="40.71548" lon="0.7188">
        <ele>3.5</ele>
      </trkpt>
      <trkpt lat="40.71547" lon="0.71891">
        <ele>3.7</ele>
      </trkpt>
      <trkpt lat="40.71549" lon="0.71897">
        <ele>3.6</ele>
      </trkpt>
      <trkpt lat="40.71554" lon="0.71903">
        <ele>3.5</ele>
      </trkpt>
      <trkpt lat="40.71563" lon="0.71905">
        <ele>3.3</ele>
      </trkpt>
      <trkpt lat="40.71567" lon="0.71903">
        <ele>3.3</ele>
      </trkpt>
      <trkpt lat="40.71572" lon="0.71896">
        <ele>3.3</ele>
      </trkpt>
      <trkpt lat="40.71586" lon="0.71911">
        <ele>3</ele>
      </trkpt>
      <trkpt lat="40.7163" lon="0.71952">
        <ele>3</ele>
      </trkpt>
      <trkpt lat="40.71668" lon="0.71997">
        <ele>2.9</ele>
      </trkpt>
      <trkpt lat="40.71662" lon="0.72015">
        <ele>2.5</ele>
      </trkpt>
      <trkpt lat="40.71649" lon="0.72066">
        <ele>2.4</ele>
      </trkpt>
      <trkpt lat="40.71697" lon="0.72104">
        <ele>2.1</ele>
      </trkpt>
      <trkpt lat="40.71746" lon="0.72136">
        <ele>2.8</ele>
      </trkpt>
      <trkpt lat="40.71807" lon="0.72167">
        <ele>2.1</ele>
        <extensions>
          <visugpx:TrkExtension xmlns:visugpx="https://www.visugpx.com/editgpx/">
            <visugpx:node>37</visugpx:node>
            </visugpx:TrkExtension>
        </extensions>
      </trkpt>
      <trkpt lat="40.71856" lon="0.72195">
        <ele>2.2</ele>
      </trkpt>
      <trkpt lat="40.71841" lon="0.72413">
        <ele>2.7</ele>
      </trkpt>
      <trkpt lat="40.71836" lon="0.72555">
        <ele>2</ele>
      </trkpt>
      <trkpt lat="40.71835" lon="0.72739">
        <ele>2</ele>
      </trkpt>
      <trkpt lat="40.71841" lon="0.72893">
        <ele>2</ele>
      </trkpt>
      <trkpt lat="40.71839" lon="0.72959">
        <ele>2</ele>
      </trkpt>
      <trkpt lat="40.71833" lon="0.7301">
        <ele>2</ele>
      </trkpt>
      <trkpt lat="40.71812" lon="0.73092">
        <ele>2</ele>
      </trkpt>
      <trkpt lat="40.71809" lon="0.73107">
        <ele>2</ele>
      </trkpt>
      <trkpt lat="40.71808" lon="0.73124">
        <ele>2</ele>
      </trkpt>
      <trkpt lat="40.71805" lon="0.73126">
        <ele>2</ele>
      </trkpt>
      <trkpt lat="40.71802" lon="0.73132">
        <ele>2</ele>
      </trkpt>
      <trkpt lat="40.71805" lon="0.73141">
        <ele>2</ele>
      </trkpt>
      <trkpt lat="40.7177" lon="0.73213">
        <ele>2.5</ele>
      </trkpt>
      <trkpt lat="40.71765" lon="0.73227">
        <ele>2.6</ele>
      </trkpt>
      <trkpt lat="40.71761" lon="0.73247">
        <ele>2.9</ele>
      </trkpt>
      <trkpt lat="40.71757" lon="0.73327">
        <ele>3</ele>
      </trkpt>
      <trkpt lat="40.71728" lon="0.73511">
        <ele>3</ele>
      </trkpt>
      <trkpt lat="40.71692" lon="0.73665">
        <ele>3</ele>
      </trkpt>
      <trkpt lat="40.71688" lon="0.73689">
        <ele>3</ele>
      </trkpt>
      <trkpt lat="40.71685" lon="0.73818">
        <ele>3</ele>
      </trkpt>
      <trkpt lat="40.71675" lon="0.73938">
        <ele>3</ele>
      </trkpt>
      <trkpt lat="40.71676" lon="0.73965">
        <ele>3</ele>
      </trkpt>
      <trkpt lat="40.71681" lon="0.73989">
        <ele>3</ele>
      </trkpt>
      <trkpt lat="40.71725" lon="0.74107">
        <ele>3</ele>
      </trkpt>
      <trkpt lat="40.7173" lon="0.74129">
        <ele>3</ele>
      </trkpt>
      <trkpt lat="40.7173" lon="0.74148">
        <ele>3</ele>
      </trkpt>
      <trkpt lat="40.71727" lon="0.74163">
        <ele>3</ele>
      </trkpt>
      <trkpt lat="40.71717" lon="0.74182">
        <ele>2.9</ele>
      </trkpt>
      <trkpt lat="40.71636" lon="0.74281">
        <ele>3</ele>
      </trkpt>
      <trkpt lat="40.71625" lon="0.743">
        <ele>3</ele>
      </trkpt>
      <trkpt lat="40.71616" lon="0.74333">
        <ele>2.8</ele>
      </trkpt>
      <trkpt lat="40.7161" lon="0.74384">
        <ele>3</ele>
      </trkpt>
      <trkpt lat="40.71597" lon="0.74455">
        <ele>3</ele>
      </trkpt>
      <trkpt lat="40.71583" lon="0.74504">
        <ele>3</ele>
      </trkpt>
      <trkpt lat="40.71536" lon="0.74644">
        <ele>2.9</ele>
      </trkpt>
      <trkpt lat="40.71517" lon="0.74706">
        <ele>2.7</ele>
      </trkpt>
      <trkpt lat="40.71491" lon="0.74805">
        <ele>3</ele>
      </trkpt>
      <trkpt lat="40.7147" lon="0.74862">
        <ele>2.9</ele>
      </trkpt>
      <trkpt lat="40.7142" lon="0.7498">
        <ele>2.1</ele>
      </trkpt>
      <trkpt lat="40.71229" lon="0.75445">
        <ele>2.3</ele>
      </trkpt>
      <trkpt lat="40.71198" lon="0.75524">
        <ele>2</ele>
      </trkpt>
      <trkpt lat="40.71173" lon="0.75579">
        <ele>2</ele>
      </trkpt>
      <trkpt lat="40.71162" lon="0.7561">
        <ele>2.8</ele>
      </trkpt>
      <trkpt lat="40.71162" lon="0.75621">
        <ele>2.8</ele>
      </trkpt>
      <trkpt lat="40.71165" lon="0.75633">
        <ele>2.9</ele>
      </trkpt>
      <trkpt lat="40.7117" lon="0.7564">
        <ele>3</ele>
      </trkpt>
      <trkpt lat="40.71178" lon="0.75643">
        <ele>3</ele>
      </trkpt>
      <trkpt lat="40.71187" lon="0.75642">
        <ele>3</ele>
      </trkpt>
      <trkpt lat="40.71194" lon="0.75639">
        <ele>3</ele>
      </trkpt>
      <trkpt lat="40.71179" lon="0.75656">
        <ele>3</ele>
        <extensions>
          <visugpx:TrkExtension xmlns:visugpx="https://www.visugpx.com/editgpx/">
            <visugpx:node>38</visugpx:node>
            </visugpx:TrkExtension>
        </extensions>
      </trkpt>
      <trkpt lat="40.71051" lon="0.758">
        <ele>2.7</ele>
      </trkpt>
      <trkpt lat="40.71002" lon="0.75862">
        <ele>3</ele>
      </trkpt>
      <trkpt lat="40.70941" lon="0.75944">
        <ele>2.7</ele>
      </trkpt>
      <trkpt lat="40.70909" lon="0.75991">
        <ele>2.6</ele>
      </trkpt>
      <trkpt lat="40.70867" lon="0.76063">
        <ele>2.9</ele>
      </trkpt>
      <trkpt lat="40.70828" lon="0.76143">
        <ele>2.8</ele>
      </trkpt>
      <trkpt lat="40.708" lon="0.76205">
        <ele>2.8</ele>
      </trkpt>
      <trkpt lat="40.70763" lon="0.76299">
        <ele>2.4</ele>
      </trkpt>
      <trkpt lat="40.70741" lon="0.76361">
        <ele>2.4</ele>
      </trkpt>
      <trkpt lat="40.7071" lon="0.76462">
        <ele>2.4</ele>
      </trkpt>
      <trkpt lat="40.70691" lon="0.76537">
        <ele>2.5</ele>
      </trkpt>
      <trkpt lat="40.7068" lon="0.76589">
        <ele>2.3</ele>
      </trkpt>
      <trkpt lat="40.70668" lon="0.76656">
        <ele>2.3</ele>
      </trkpt>
      <trkpt lat="40.70655" lon="0.76755">
        <ele>1.6</ele>
      </trkpt>
      <trkpt lat="40.70635" lon="0.76953">
        <ele>1.9</ele>
      </trkpt>
      <trkpt lat="40.70572" lon="0.77635">
        <ele>1.6</ele>
      </trkpt>
      <trkpt lat="40.70488" lon="0.78591">
        <ele>1.2</ele>
      </trkpt>
      <trkpt lat="40.70472" lon="0.78704">
        <ele>2</ele>
      </trkpt>
      <trkpt lat="40.70463" lon="0.78782">
        <ele>1</ele>
      </trkpt>
      <trkpt lat="40.70437" lon="0.79138">
        <ele>1</ele>
      </trkpt>
      <trkpt lat="40.70437" lon="0.79244">
        <ele>1</ele>
      </trkpt>
      <trkpt lat="40.7045" lon="0.79358">
        <ele>1.1</ele>
      </trkpt>
      <trkpt lat="40.70688" lon="0.80981">
        <ele>1.8</ele>
      </trkpt>
      <trkpt lat="40.70698" lon="0.81043">
        <ele>2</ele>
      </trkpt>
      <trkpt lat="40.70712" lon="0.81096">
        <ele>1.6</ele>
      </trkpt>
      <trkpt lat="40.70721" lon="0.81117">
        <ele>2</ele>
      </trkpt>
      <trkpt lat="40.70731" lon="0.81135">
        <ele>2</ele>
      </trkpt>
      <trkpt lat="40.70759" lon="0.81174">
        <ele>2</ele>
      </trkpt>
      <trkpt lat="40.70757" lon="0.81179">
        <ele>2</ele>
      </trkpt>
      <trkpt lat="40.70756" lon="0.81191">
        <ele>2</ele>
      </trkpt>
      <trkpt lat="40.7076" lon="0.81201">
        <ele>2</ele>
      </trkpt>
      <trkpt lat="40.70764" lon="0.81204">
        <ele>2</ele>
      </trkpt>
      <trkpt lat="40.70769" lon="0.81205">
        <ele>2</ele>
      </trkpt>
      <trkpt lat="40.70777" lon="0.81202">
        <ele>2</ele>
      </trkpt>
      <trkpt lat="40.70815" lon="0.81268">
        <ele>1.2</ele>
      </trkpt>
      <trkpt lat="40.71157" lon="0.81836">
        <ele>1.7</ele>
      </trkpt>
      <trkpt lat="40.7119" lon="0.81902">
        <ele>1.8</ele>
      </trkpt>
      <trkpt lat="40.71204" lon="0.81939">
        <ele>1.1</ele>
      </trkpt>
      <trkpt lat="40.7122" lon="0.81993">
        <ele>1.7</ele>
      </trkpt>
      <trkpt lat="40.71395" lon="0.82678">
        <ele>1.5</ele>
      </trkpt>
      <trkpt lat="40.71427" lon="0.8278">
        <ele>2</ele>
      </trkpt>
      <trkpt lat="40.71422" lon="0.82792">
        <ele>2</ele>
      </trkpt>
      <trkpt lat="40.71424" lon="0.82805">
        <ele>2</ele>
      </trkpt>
      <trkpt lat="40.71428" lon="0.8281">
        <ele>1.9</ele>
      </trkpt>
      <trkpt lat="40.71435" lon="0.82813">
        <ele>1.9</ele>
      </trkpt>
      <trkpt lat="40.71445" lon="0.82809">
        <ele>2</ele>
      </trkpt>
      <trkpt lat="40.7145" lon="0.82799">
        <ele>1.8</ele>
      </trkpt>
      <trkpt lat="40.71474" lon="0.82809">
        <ele>1</ele>
      </trkpt>
      <trkpt lat="40.71482" lon="0.82816">
        <ele>1</ele>
      </trkpt>
      <trkpt lat="40.71834" lon="0.83218">
        <ele>1</ele>
      </trkpt>
      <trkpt lat="40.72114" lon="0.83542">
        <ele>1</ele>
      </trkpt>
      <trkpt lat="40.71737" lon="0.84174">
        <ele>1.7</ele>
        <extensions>
          <visugpx:TrkExtension xmlns:visugpx="https://www.visugpx.com/editgpx/">
            <visugpx:node>39</visugpx:node>
            </visugpx:TrkExtension>
        </extensions>
      </trkpt>
      <trkpt lat="40.72114" lon="0.83542">
        <ele>1</ele>
      </trkpt>
      <trkpt lat="40.71834" lon="0.83218">
        <ele>1</ele>
      </trkpt>
      <trkpt lat="40.71482" lon="0.82816">
        <ele>1</ele>
      </trkpt>
      <trkpt lat="40.71474" lon="0.82809">
        <ele>1</ele>
      </trkpt>
      <trkpt lat="40.7145" lon="0.82799">
        <ele>1.8</ele>
      </trkpt>
      <trkpt lat="40.7145" lon="0.82793">
        <ele>1.8</ele>
      </trkpt>
      <trkpt lat="40.71447" lon="0.82783">
        <ele>1.9</ele>
      </trkpt>
      <trkpt lat="40.71441" lon="0.82778">
        <ele>2</ele>
      </trkpt>
      <trkpt lat="40.71436" lon="0.82777">
        <ele>2</ele>
      </trkpt>
      <trkpt lat="40.71427" lon="0.8278">
        <ele>2</ele>
      </trkpt>
      <trkpt lat="40.71395" lon="0.82678">
        <ele>1.5</ele>
      </trkpt>
      <trkpt lat="40.7122" lon="0.81993">
        <ele>1.7</ele>
      </trkpt>
      <trkpt lat="40.71204" lon="0.81939">
        <ele>1.1</ele>
      </trkpt>
      <trkpt lat="40.7119" lon="0.81902">
        <ele>1.8</ele>
      </trkpt>
      <trkpt lat="40.71157" lon="0.81836">
        <ele>1.7</ele>
      </trkpt>
      <trkpt lat="40.70789" lon="0.81224">
        <ele>1.6</ele>
      </trkpt>
      <trkpt lat="40.70777" lon="0.81202">
        <ele>2</ele>
      </trkpt>
      <trkpt lat="40.70782" lon="0.81194">
        <ele>1.8</ele>
      </trkpt>
      <trkpt lat="40.70783" lon="0.81189">
        <ele>1.8</ele>
      </trkpt>
      <trkpt lat="40.70782" lon="0.81178">
        <ele>1.8</ele>
      </trkpt>
      <trkpt lat="40.7078" lon="0.81174">
        <ele>1.9</ele>
      </trkpt>
      <trkpt lat="40.70772" lon="0.81169">
        <ele>2</ele>
      </trkpt>
      <trkpt lat="40.70764" lon="0.8117">
        <ele>2</ele>
      </trkpt>
      <trkpt lat="40.70759" lon="0.81174">
        <ele>2</ele>
      </trkpt>
      <trkpt lat="40.70731" lon="0.81135">
        <ele>2</ele>
      </trkpt>
      <trkpt lat="40.70721" lon="0.81117">
        <ele>2</ele>
      </trkpt>
      <trkpt lat="40.70712" lon="0.81096">
        <ele>1.6</ele>
      </trkpt>
      <trkpt lat="40.70698" lon="0.81043">
        <ele>2</ele>
      </trkpt>
      <trkpt lat="40.70688" lon="0.80981">
        <ele>1.8</ele>
      </trkpt>
      <trkpt lat="40.7045" lon="0.79358">
        <ele>1.1</ele>
      </trkpt>
      <trkpt lat="40.70437" lon="0.79244">
        <ele>1</ele>
      </trkpt>
      <trkpt lat="40.70437" lon="0.79138">
        <ele>1</ele>
      </trkpt>
      <trkpt lat="40.70463" lon="0.78782">
        <ele>1</ele>
      </trkpt>
      <trkpt lat="40.70472" lon="0.78704">
        <ele>2</ele>
      </trkpt>
      <trkpt lat="40.70488" lon="0.78591">
        <ele>1.2</ele>
      </trkpt>
      <trkpt lat="40.70572" lon="0.77635">
        <ele>1.6</ele>
      </trkpt>
      <trkpt lat="40.70635" lon="0.76953">
        <ele>1.9</ele>
      </trkpt>
      <trkpt lat="40.70655" lon="0.76755">
        <ele>1.6</ele>
      </trkpt>
      <trkpt lat="40.70668" lon="0.76656">
        <ele>2.3</ele>
      </trkpt>
      <trkpt lat="40.70675" lon="0.76616">
        <ele>1.5</ele>
      </trkpt>
      <trkpt lat="40.70691" lon="0.76537">
        <ele>2.5</ele>
      </trkpt>
      <trkpt lat="40.707" lon="0.765">
        <ele>2.2</ele>
      </trkpt>
      <trkpt lat="40.7072" lon="0.76428">
        <ele>2.9</ele>
      </trkpt>
      <trkpt lat="40.70741" lon="0.76361">
        <ele>2.4</ele>
      </trkpt>
      <trkpt lat="40.70776" lon="0.76264">
        <ele>2.5</ele>
      </trkpt>
      <trkpt lat="40.708" lon="0.76205">
        <ele>2.8</ele>
      </trkpt>
      <trkpt lat="40.70828" lon="0.76143">
        <ele>2.8</ele>
      </trkpt>
      <trkpt lat="40.70867" lon="0.76063">
        <ele>2.9</ele>
      </trkpt>
      <trkpt lat="40.70909" lon="0.75991">
        <ele>2.6</ele>
      </trkpt>
      <trkpt lat="40.70941" lon="0.75944">
        <ele>2.7</ele>
      </trkpt>
      <trkpt lat="40.71002" lon="0.75862">
        <ele>3</ele>
      </trkpt>
      <trkpt lat="40.71051" lon="0.758">
        <ele>2.7</ele>
      </trkpt>
      <trkpt lat="40.7111" lon="0.75732">
        <ele>3</ele>
      </trkpt>
      <trkpt lat="40.712" lon="0.75633">
        <ele>3</ele>
      </trkpt>
      <trkpt lat="40.71201" lon="0.75626">
        <ele>3</ele>
      </trkpt>
      <trkpt lat="40.712" lon="0.75611">
        <ele>3</ele>
      </trkpt>
      <trkpt lat="40.71195" lon="0.75599">
        <ele>2.6</ele>
      </trkpt>
      <trkpt lat="40.71192" lon="0.75596">
        <ele>2.5</ele>
      </trkpt>
      <trkpt lat="40.71181" lon="0.75595">
        <ele>2.4</ele>
      </trkpt>
      <trkpt lat="40.71166" lon="0.75599">
        <ele>2.6</ele>
      </trkpt>
      <trkpt lat="40.71164" lon="0.75604">
        <ele>2.7</ele>
      </trkpt>
      <trkpt lat="40.71102" lon="0.75514">
        <ele>2</ele>
        <extensions>
          <visugpx:TrkExtension xmlns:visugpx="https://www.visugpx.com/editgpx/">
            <visugpx:node>40</visugpx:node>
            </visugpx:TrkExtension>
        </extensions>
      </trkpt>
      <trkpt lat="40.71058" lon="0.75449">
        <ele>2</ele>
      </trkpt>
      <trkpt lat="40.71055" lon="0.75441">
        <ele>2</ele>
      </trkpt>
      <trkpt lat="40.71055" lon="0.75432">
        <ele>2</ele>
      </trkpt>
      <trkpt lat="40.71071" lon="0.75374">
        <ele>1.3</ele>
      </trkpt>
      <trkpt lat="40.71091" lon="0.75251">
        <ele>2</ele>
      </trkpt>
      <trkpt lat="40.71096" lon="0.75186">
        <ele>1.5</ele>
      </trkpt>
      <trkpt lat="40.71101" lon="0.75062">
        <ele>2.1</ele>
      </trkpt>
      <trkpt lat="40.71103" lon="0.7498">
        <ele>2</ele>
      </trkpt>
      <trkpt lat="40.71101" lon="0.74881">
        <ele>2</ele>
        <extensions>
          <visugpx:TrkExtension xmlns:visugpx="https://www.visugpx.com/editgpx/">
            <visugpx:node>41</visugpx:node>
            </visugpx:TrkExtension>
        </extensions>
      </trkpt>
      <trkpt lat="40.71096" lon="0.74717">
        <ele>1.9</ele>
      </trkpt>
      <trkpt lat="40.71099" lon="0.7447">
        <ele>3</ele>
      </trkpt>
      <trkpt lat="40.71097" lon="0.74396">
        <ele>3</ele>
      </trkpt>
      <trkpt lat="40.71099" lon="0.74364">
        <ele>3</ele>
      </trkpt>
      <trkpt lat="40.71113" lon="0.74249">
        <ele>2</ele>
      </trkpt>
      <trkpt lat="40.71124" lon="0.74059">
        <ele>1.5</ele>
      </trkpt>
      <trkpt lat="40.71148" lon="0.73732">
        <ele>1.7</ele>
      </trkpt>
      <trkpt lat="40.71141" lon="0.73672">
        <ele>2.1</ele>
      </trkpt>
      <trkpt lat="40.71141" lon="0.73658">
        <ele>1.8</ele>
      </trkpt>
      <trkpt lat="40.71146" lon="0.73626">
        <ele>1.5</ele>
      </trkpt>
      <trkpt lat="40.71158" lon="0.73614">
        <ele>2.4</ele>
      </trkpt>
      <trkpt lat="40.71168" lon="0.73526">
        <ele>2</ele>
      </trkpt>
      <trkpt lat="40.71189" lon="0.73522">
        <ele>2.8</ele>
      </trkpt>
      <trkpt lat="40.71201" lon="0.73419">
        <ele>3</ele>
      </trkpt>
      <trkpt lat="40.71204" lon="0.73349">
        <ele>2.6</ele>
      </trkpt>
      <trkpt lat="40.71223" lon="0.73123">
        <ele>3</ele>
      </trkpt>
      <trkpt lat="40.71246" lon="0.72973">
        <ele>2.7</ele>
      </trkpt>
      <trkpt lat="40.7125" lon="0.72958">
        <ele>2.5</ele>
      </trkpt>
      <trkpt lat="40.71252" lon="0.72956">
        <ele>2.5</ele>
        <extensions>
          <visugpx:TrkExtension xmlns:visugpx="https://www.visugpx.com/editgpx/">
            <visugpx:node>42</visugpx:node>
            </visugpx:TrkExtension>
        </extensions>
      </trkpt>
      <trkpt lat="40.71256" lon="0.72952">
        <ele>2.4</ele>
      </trkpt>
      <trkpt lat="40.71266" lon="0.72947">
        <ele>2.6</ele>
      </trkpt>
      <trkpt lat="40.71419" lon="0.72874">
        <ele>2.5</ele>
      </trkpt>
      <trkpt lat="40.71381" lon="0.72739">
        <ele>3</ele>
      </trkpt>
      <trkpt lat="40.71358" lon="0.72636">
        <ele>3</ele>
      </trkpt>
      <trkpt lat="40.71358" lon="0.72619">
        <ele>2.9</ele>
      </trkpt>
      <trkpt lat="40.71397" lon="0.7241">
        <ele>2.1</ele>
      </trkpt>
      <trkpt lat="40.71412" lon="0.72342">
        <ele>2.8</ele>
      </trkpt>
      <trkpt lat="40.7144" lon="0.72264">
        <ele>2.8</ele>
        <extensions>
          <visugpx:TrkExtension xmlns:visugpx="https://www.visugpx.com/editgpx/">
            <visugpx:node>43</visugpx:node>
            </visugpx:TrkExtension>
        </extensions>
      </trkpt>
      <trkpt lat="40.71498" lon="0.72099">
        <ele>2.9</ele>
      </trkpt>
      <trkpt lat="40.71495" lon="0.72082">
        <ele>2.8</ele>
      </trkpt>
      <trkpt lat="40.71559" lon="0.71905">
        <ele>3.4</ele>
      </trkpt>
      <trkpt lat="40.71567" lon="0.71903">
        <ele>3.3</ele>
      </trkpt>
      <trkpt lat="40.71572" lon="0.71896">
        <ele>3.3</ele>
      </trkpt>
      <trkpt lat="40.71572" lon="0.71882">
        <ele>3.3</ele>
      </trkpt>
      <trkpt lat="40.71567" lon="0.71873">
        <ele>3.3</ele>
      </trkpt>
      <trkpt lat="40.7158" lon="0.71847">
        <ele>2.9</ele>
      </trkpt>
      <trkpt lat="40.71605" lon="0.71781">
        <ele>3</ele>
      </trkpt>
      <trkpt lat="40.71783" lon="0.71286">
        <ele>2.7</ele>
      </trkpt>
      <trkpt lat="40.71789" lon="0.71277">
        <ele>3</ele>
      </trkpt>
      <trkpt lat="40.718" lon="0.7127">
        <ele>3</ele>
      </trkpt>
      <trkpt lat="40.71807" lon="0.71269">
        <ele>3</ele>
      </trkpt>
      <trkpt lat="40.71811" lon="0.71191">
        <ele>3</ele>
      </trkpt>
      <trkpt lat="40.71818" lon="0.71157">
        <ele>2.7</ele>
      </trkpt>
      <trkpt lat="40.71824" lon="0.71146">
        <ele>2.8</ele>
      </trkpt>
      <trkpt lat="40.71831" lon="0.71138">
        <ele>3</ele>
      </trkpt>
      <trkpt lat="40.7184" lon="0.71132">
        <ele>2.8</ele>
      </trkpt>
      <trkpt lat="40.71869" lon="0.7112">
        <ele>2.8</ele>
      </trkpt>
      <trkpt lat="40.71883" lon="0.71117">
        <ele>3</ele>
      </trkpt>
      <trkpt lat="40.71922" lon="0.71119">
        <ele>3</ele>
      </trkpt>
      <trkpt lat="40.71948" lon="0.70848">
        <ele>3</ele>
      </trkpt>
      <trkpt lat="40.71947" lon="0.70813">
        <ele>3</ele>
      </trkpt>
      <trkpt lat="40.71935" lon="0.70713">
        <ele>3</ele>
      </trkpt>
      <trkpt lat="40.71923" lon="0.70563">
        <ele>3</ele>
      </trkpt>
      <trkpt lat="40.71922" lon="0.70536">
        <ele>3</ele>
      </trkpt>
      <trkpt lat="40.71923" lon="0.70511">
        <ele>3.1</ele>
      </trkpt>
      <trkpt lat="40.7193" lon="0.70463">
        <ele>3</ele>
      </trkpt>
      <trkpt lat="40.71983" lon="0.70266">
        <ele>3</ele>
      </trkpt>
      <trkpt lat="40.71989" lon="0.7025">
        <ele>3</ele>
      </trkpt>
      <trkpt lat="40.71998" lon="0.70234">
        <ele>3</ele>
      </trkpt>
      <trkpt lat="40.72006" lon="0.70234">
        <ele>3</ele>
      </trkpt>
      <trkpt lat="40.72009" lon="0.7023">
        <ele>3</ele>
      </trkpt>
      <trkpt lat="40.7201" lon="0.70225">
        <ele>3</ele>
      </trkpt>
      <trkpt lat="40.72022" lon="0.70221">
        <ele>3</ele>
      </trkpt>
      <trkpt lat="40.72241" lon="0.70086">
        <ele>3</ele>
      </trkpt>
      <trkpt lat="40.72265" lon="0.70069">
        <ele>3</ele>
        <extensions>
          <visugpx:TrkExtension xmlns:visugpx="https://www.visugpx.com/editgpx/">
            <visugpx:node>44</visugpx:node>
            </visugpx:TrkExtension>
        </extensions>
      </trkpt>
      <trkpt lat="40.72426" lon="0.69956">
        <ele>3</ele>
      </trkpt>
      <trkpt lat="40.72432" lon="0.69963">
        <ele>3</ele>
      </trkpt>
      <trkpt lat="40.72436" lon="0.69965">
        <ele>3</ele>
      </trkpt>
      <trkpt lat="40.72444" lon="0.69963">
        <ele>3</ele>
      </trkpt>
      <trkpt lat="40.7245" lon="0.69957">
        <ele>3</ele>
      </trkpt>
      <trkpt lat="40.72452" lon="0.69951">
        <ele>3</ele>
      </trkpt>
      <trkpt lat="40.72451" lon="0.69941">
        <ele>3</ele>
      </trkpt>
      <trkpt lat="40.72446" lon="0.69932">
        <ele>3</ele>
      </trkpt>
      <trkpt lat="40.72441" lon="0.69929">
        <ele>3</ele>
      </trkpt>
      <trkpt lat="40.72447" lon="0.69888">
        <ele>2.9</ele>
      </trkpt>
      <trkpt lat="40.72475" lon="0.69748">
        <ele>2.9</ele>
      </trkpt>
      <trkpt lat="40.72498" lon="0.69409">
        <ele>3</ele>
      </trkpt>
      <trkpt lat="40.72579" lon="0.69439">
        <ele>3</ele>
      </trkpt>
      <trkpt lat="40.72574" lon="0.69412">
        <ele>3.1</ele>
      </trkpt>
      <trkpt lat="40.72568" lon="0.69355">
        <ele>2.9</ele>
      </trkpt>
      <trkpt lat="40.72563" lon="0.69239">
        <ele>3</ele>
      </trkpt>
      <trkpt lat="40.72562" lon="0.6918">
        <ele>3</ele>
      </trkpt>
      <trkpt lat="40.7256" lon="0.69161">
        <ele>3</ele>
      </trkpt>
      <trkpt lat="40.7255" lon="0.69113">
        <ele>3.2</ele>
      </trkpt>
      <trkpt lat="40.7253" lon="0.69044">
        <ele>3</ele>
      </trkpt>
      <trkpt lat="40.72517" lon="0.68989">
        <ele>3.4</ele>
      </trkpt>
      <trkpt lat="40.7244" lon="0.68598">
        <ele>3.4</ele>
        <extensions>
          <visugpx:TrkExtension xmlns:visugpx="https://www.visugpx.com/editgpx/">
            <visugpx:node>45</visugpx:node>
            </visugpx:TrkExtension>
        </extensions>
      </trkpt>
      <trkpt lat="40.7242" lon="0.68514">
        <ele>3.5</ele>
      </trkpt>
      <trkpt lat="40.72414" lon="0.68478">
        <ele>4</ele>
      </trkpt>
      <trkpt lat="40.72416" lon="0.6839">
        <ele>4</ele>
      </trkpt>
      <trkpt lat="40.7241" lon="0.68316">
        <ele>3.3</ele>
      </trkpt>
      <trkpt lat="40.724" lon="0.68222">
        <ele>2.8</ele>
      </trkpt>
      <trkpt lat="40.72403" lon="0.68196">
        <ele>3.5</ele>
      </trkpt>
      <trkpt lat="40.72409" lon="0.68179">
        <ele>3.9</ele>
      </trkpt>
      <trkpt lat="40.72422" lon="0.68163">
        <ele>4</ele>
      </trkpt>
      <trkpt lat="40.72451" lon="0.68133">
        <ele>3.8</ele>
      </trkpt>
      <trkpt lat="40.72473" lon="0.68113">
        <ele>3</ele>
      </trkpt>
      <trkpt lat="40.72484" lon="0.68104">
        <ele>3</ele>
      </trkpt>
      <trkpt lat="40.72602" lon="0.68023">
        <ele>3</ele>
      </trkpt>
      <trkpt lat="40.72632" lon="0.67997">
        <ele>3</ele>
      </trkpt>
      <trkpt lat="40.72721" lon="0.67909">
        <ele>3.7</ele>
      </trkpt>
      <trkpt lat="40.7274" lon="0.67894">
        <ele>3.6</ele>
      </trkpt>
      <trkpt lat="40.72761" lon="0.67884">
        <ele>3.9</ele>
        <extensions>
          <visugpx:TrkExtension xmlns:visugpx="https://www.visugpx.com/editgpx/">
            <visugpx:node>46</visugpx:node>
            </visugpx:TrkExtension>
        </extensions>
      </trkpt>
      <trkpt lat="40.72771" lon="0.67881">
        <ele>3.9</ele>
      </trkpt>
      <trkpt lat="40.72783" lon="0.67881">
        <ele>4.1</ele>
      </trkpt>
      <trkpt lat="40.72797" lon="0.67883">
        <ele>4.1</ele>
      </trkpt>
      <trkpt lat="40.72804" lon="0.67887">
        <ele>4.1</ele>
      </trkpt>
      <trkpt lat="40.72812" lon="0.67886">
        <ele>3.9</ele>
      </trkpt>
      <trkpt lat="40.72818" lon="0.67881">
        <ele>3.8</ele>
      </trkpt>
      <trkpt lat="40.72822" lon="0.67873">
        <ele>4</ele>
      </trkpt>
      <trkpt lat="40.72821" lon="0.67858">
        <ele>4.3</ele>
      </trkpt>
      <trkpt lat="40.72817" lon="0.6785">
        <ele>4</ele>
      </trkpt>
      <trkpt lat="40.72809" lon="0.67845">
        <ele>3.8</ele>
      </trkpt>
      <trkpt lat="40.72786" lon="0.67814">
        <ele>3</ele>
      </trkpt>
      <trkpt lat="40.72772" lon="0.6778">
        <ele>3.2</ele>
      </trkpt>
      <trkpt lat="40.72733" lon="0.67675">
        <ele>3.2</ele>
      </trkpt>
      <trkpt lat="40.72707" lon="0.67593">
        <ele>3.5</ele>
      </trkpt>
      <trkpt lat="40.72689" lon="0.67528">
        <ele>3</ele>
      </trkpt>
      <trkpt lat="40.72285" lon="0.65888">
        <ele>3.7</ele>
      </trkpt>
      <trkpt lat="40.72272" lon="0.65827">
        <ele>3.2</ele>
      </trkpt>
      <trkpt lat="40.72262" lon="0.65767">
        <ele>3.6</ele>
      </trkpt>
      <trkpt lat="40.72253" lon="0.65698">
        <ele>3.9</ele>
      </trkpt>
      <trkpt lat="40.72243" lon="0.65599">
        <ele>3.3</ele>
      </trkpt>
      <trkpt lat="40.72233" lon="0.65525">
        <ele>4</ele>
      </trkpt>
      <trkpt lat="40.72218" lon="0.65451">
        <ele>3.9</ele>
      </trkpt>
      <trkpt lat="40.72195" lon="0.65378">
        <ele>4</ele>
      </trkpt>
      <trkpt lat="40.72126" lon="0.65201">
        <ele>3.6</ele>
      </trkpt>
      <trkpt lat="40.72093" lon="0.65104">
        <ele>3.7</ele>
      </trkpt>
      <trkpt lat="40.72096" lon="0.65092">
        <ele>3.5</ele>
      </trkpt>
      <trkpt lat="40.72095" lon="0.65082">
        <ele>3.6</ele>
      </trkpt>
      <trkpt lat="40.72006" lon="0.64717">
        <ele>3.4</ele>
      </trkpt>
      <trkpt lat="40.71974" lon="0.64594">
        <ele>3.3</ele>
      </trkpt>
      <trkpt lat="40.71948" lon="0.64481">
        <ele>3.1</ele>
      </trkpt>
      <trkpt lat="40.71906" lon="0.64319">
        <ele>3.4</ele>
      </trkpt>
      <trkpt lat="40.71783" lon="0.63814">
        <ele>3.9</ele>
      </trkpt>
      <trkpt lat="40.71667" lon="0.63352">
        <ele>3</ele>
      </trkpt>
      <trkpt lat="40.7164" lon="0.63236">
        <ele>3</ele>
      </trkpt>
      <trkpt lat="40.71598" lon="0.6307">
        <ele>3.7</ele>
      </trkpt>
      <trkpt lat="40.71589" lon="0.63044">
        <ele>4.1</ele>
      </trkpt>
      <trkpt lat="40.71584" lon="0.6301">
        <ele>3.3</ele>
      </trkpt>
      <trkpt lat="40.71572" lon="0.62959">
        <ele>2.8</ele>
      </trkpt>
      <trkpt lat="40.71541" lon="0.62842">
        <ele>3</ele>
      </trkpt>
      <trkpt lat="40.71519" lon="0.62746">
        <ele>2.6</ele>
      </trkpt>
      <trkpt lat="40.71329" lon="0.61987">
        <ele>3.2</ele>
      </trkpt>
      <trkpt lat="40.71293" lon="0.61835">
        <ele>3.5</ele>
      </trkpt>
      <trkpt lat="40.71282" lon="0.6178">
        <ele>3.9</ele>
        <extensions>
          <visugpx:TrkExtension xmlns:visugpx="https://www.visugpx.com/editgpx/">
            <visugpx:node>47</visugpx:node>
            </visugpx:TrkExtension>
        </extensions>
      </trkpt>
      <trkpt lat="40.71293" lon="0.61835">
        <ele>3.5</ele>
      </trkpt>
      <trkpt lat="40.71329" lon="0.61987">
        <ele>3.2</ele>
      </trkpt>
      <trkpt lat="40.71519" lon="0.62746">
        <ele>2.6</ele>
      </trkpt>
      <trkpt lat="40.71541" lon="0.62842">
        <ele>3</ele>
      </trkpt>
      <trkpt lat="40.71572" lon="0.62959">
        <ele>2.8</ele>
      </trkpt>
      <trkpt lat="40.71584" lon="0.6301">
        <ele>3.3</ele>
      </trkpt>
      <trkpt lat="40.71589" lon="0.63044">
        <ele>4.1</ele>
      </trkpt>
      <trkpt lat="40.71598" lon="0.6307">
        <ele>3.7</ele>
      </trkpt>
      <trkpt lat="40.7164" lon="0.63236">
        <ele>3</ele>
      </trkpt>
      <trkpt lat="40.71667" lon="0.63352">
        <ele>3</ele>
      </trkpt>
      <trkpt lat="40.71783" lon="0.63814">
        <ele>3.9</ele>
      </trkpt>
      <trkpt lat="40.72251" lon="0.63695">
        <ele>3</ele>
      </trkpt>
      <trkpt lat="40.72274" lon="0.63693">
        <ele>2.9</ele>
      </trkpt>
      <trkpt lat="40.72294" lon="0.63694">
        <ele>2.4</ele>
      </trkpt>
      <trkpt lat="40.72375" lon="0.63711">
        <ele>2</ele>
      </trkpt>
      <trkpt lat="40.72628" lon="0.63752">
        <ele>2</ele>
      </trkpt>
      <trkpt lat="40.72673" lon="0.63761">
        <ele>1.9</ele>
      </trkpt>
      <trkpt lat="40.7269" lon="0.63761">
        <ele>1.5</ele>
      </trkpt>
      <trkpt lat="40.72704" lon="0.63756">
        <ele>1.4</ele>
      </trkpt>
      <trkpt lat="40.72717" lon="0.63743">
        <ele>1.8</ele>
      </trkpt>
      <trkpt lat="40.72837" lon="0.63572">
        <ele>2.5</ele>
      </trkpt>
      <trkpt lat="40.73117" lon="0.63277">
        <ele>2.7</ele>
      </trkpt>
      <trkpt lat="40.73176" lon="0.63225">
        <ele>2</ele>
      </trkpt>
      <trkpt lat="40.73182" lon="0.63218">
        <ele>2</ele>
      </trkpt>
      <trkpt lat="40.73191" lon="0.63196">
        <ele>2</ele>
      </trkpt>
      <trkpt lat="40.73195" lon="0.63178">
        <ele>2</ele>
      </trkpt>
      <trkpt lat="40.73233" lon="0.62959">
        <ele>2</ele>
      </trkpt>
      <trkpt lat="40.73638" lon="0.63015">
        <ele>2</ele>
      </trkpt>
      <trkpt lat="40.73667" lon="0.63015">
        <ele>2</ele>
      </trkpt>
      <trkpt lat="40.737" lon="0.63011">
        <ele>2.6</ele>
      </trkpt>
      <trkpt lat="40.73781" lon="0.62995">
        <ele>2.7</ele>
      </trkpt>
      <trkpt lat="40.73799" lon="0.62989">
        <ele>2.1</ele>
      </trkpt>
      <trkpt lat="40.73816" lon="0.6298">
        <ele>2.3</ele>
      </trkpt>
      <trkpt lat="40.7388" lon="0.6293">
        <ele>2.2</ele>
      </trkpt>
      <trkpt lat="40.73904" lon="0.62913">
        <ele>2</ele>
      </trkpt>
      <trkpt lat="40.74007" lon="0.62853">
        <ele>2.6</ele>
      </trkpt>
      <trkpt lat="40.74026" lon="0.62844">
        <ele>2.6</ele>
      </trkpt>
      <trkpt lat="40.74048" lon="0.62837">
        <ele>3.6</ele>
      </trkpt>
      <trkpt lat="40.7407" lon="0.62834">
        <ele>4</ele>
      </trkpt>
      <trkpt lat="40.7425" lon="0.6283">
        <ele>6</ele>
      </trkpt>
      <trkpt lat="40.74281" lon="0.62831">
        <ele>6</ele>
      </trkpt>
      <trkpt lat="40.74313" lon="0.62835">
        <ele>6</ele>
      </trkpt>
      <trkpt lat="40.74344" lon="0.62835">
        <ele>6</ele>
      </trkpt>
      <trkpt lat="40.74377" lon="0.62847">
        <ele>5.7</ele>
      </trkpt>
      <trkpt lat="40.74391" lon="0.6285">
        <ele>5.5</ele>
      </trkpt>
      <trkpt lat="40.74447" lon="0.6285">
        <ele>7.5</ele>
      </trkpt>
      <trkpt lat="40.7448" lon="0.62848">
        <ele>8</ele>
      </trkpt>
      <trkpt lat="40.74503" lon="0.62842">
        <ele>8.1</ele>
      </trkpt>
      <trkpt lat="40.74525" lon="0.62832">
        <ele>8.9</ele>
      </trkpt>
      <trkpt lat="40.74653" lon="0.62765">
        <ele>11.2</ele>
      </trkpt>
      <trkpt lat="40.74678" lon="0.6275">
        <ele>12</ele>
      </trkpt>
      <trkpt lat="40.74701" lon="0.62735">
        <ele>12.6</ele>
      </trkpt>
      <trkpt lat="40.74745" lon="0.62702">
        <ele>13.8</ele>
      </trkpt>
      <trkpt lat="40.74818" lon="0.62661">
        <ele>14.6</ele>
      </trkpt>
      <trkpt lat="40.74871" lon="0.62613">
        <ele>16</ele>
      </trkpt>
      <trkpt lat="40.74934" lon="0.62567">
        <ele>17.3</ele>
      </trkpt>
      <trkpt lat="40.74844" lon="0.62398">
        <ele>16</ele>
      </trkpt>
      <trkpt lat="40.7483" lon="0.6237">
        <ele>16</ele>
      </trkpt>
      <trkpt lat="40.7482" lon="0.62341">
        <ele>15.7</ele>
      </trkpt>
      <trkpt lat="40.74823" lon="0.62339">
        <ele>15.7</ele>
      </trkpt>
      <trkpt lat="40.74825" lon="0.62335">
        <ele>15.7</ele>
      </trkpt>
      <trkpt lat="40.74832" lon="0.62311">
        <ele>16</ele>
      </trkpt>
      <trkpt lat="40.74834" lon="0.62289">
        <ele>16</ele>
      </trkpt>
      <trkpt lat="40.74851" lon="0.62207">
        <ele>16.6</ele>
      </trkpt>
      <trkpt lat="40.74886" lon="0.62063">
        <ele>18</ele>
      </trkpt>
      <trkpt lat="40.74926" lon="0.61887">
        <ele>18.6</ele>
      </trkpt>
      <trkpt lat="40.7504" lon="0.61447">
        <ele>25.4</ele>
      </trkpt>
      <trkpt lat="40.75064" lon="0.61449">
        <ele>26.3</ele>
      </trkpt>
      <trkpt lat="40.75157" lon="0.61439">
        <ele>28.7</ele>
      </trkpt>
      <trkpt lat="40.75302" lon="0.61419">
        <ele>32.9</ele>
      </trkpt>
      <trkpt lat="40.75311" lon="0.61432">
        <ele>33.5</ele>
      </trkpt>
      <trkpt lat="40.75334" lon="0.61493">
        <ele>33.3</ele>
      </trkpt>
      <trkpt lat="40.7534" lon="0.615">
        <ele>33.2</ele>
      </trkpt>
      <trkpt lat="40.75347" lon="0.61505">
        <ele>33.4</ele>
      </trkpt>
      <trkpt lat="40.75363" lon="0.61509">
        <ele>33.8</ele>
      </trkpt>
      <trkpt lat="40.75366" lon="0.61501">
        <ele>34.3</ele>
      </trkpt>
      <trkpt lat="40.75367" lon="0.61492">
        <ele>34.9</ele>
      </trkpt>
      <trkpt lat="40.75355" lon="0.61462">
        <ele>35.6</ele>
        <extensions>
          <visugpx:TrkExtension xmlns:visugpx="https://www.visugpx.com/editgpx/">
            <visugpx:node>48</visugpx:node>
            </visugpx:TrkExtension>
        </extensions>
      </trkpt>
    </trkseg>
  </trk>
</gpx>